<?xml version='1.0' encoding='UTF-8'?><gpx version="1.1" creator="JPX - https://github.com/jenetics/jpx" xmlns="http://www.topografix.com/GPX/1/1"><trk><trkseg><trkpt lat="43.1369017" lon="11.48186"><ele>147.0</ele><time>2026-04-11T01:58:32.986Z</time></trkpt><trkpt lat="43.1369633" lon="11.4818967"><ele>147.0</ele><time>2026-04-11T01:59:54.986Z</time></trkpt><trkpt lat="43.1369017" lon="11.4819633"><ele>147.0</ele><time>2026-04-11T02:00:52.986Z</time></trkpt><trkpt lat="43.1368217" lon="11.4819983"><ele>147.0</ele><time>2026-04-11T02:00:56.986Z</time></trkpt><trkpt lat="43.1367267" lon="11.48197"><ele>147.0</ele><time>2026-04-11T02:00:59.986Z</time></trkpt><trkpt lat="43.136675" lon="11.481905"><ele>147.0</ele><time>2026-04-11T02:01:01.986Z</time></trkpt><trkpt lat="43.1366483" lon="11.4817817"><ele>147.0</ele><time>2026-04-11T02:01:03.986Z</time></trkpt><trkpt lat="43.136625" lon="11.481655"><ele>147.0</ele><time>2026-04-11T02:01:05.986Z</time></trkpt><trkpt lat="43.136605" lon="11.4815133"><ele>147.0</ele><time>2026-04-11T02:01:07.986Z</time></trkpt><trkpt lat="43.136575" lon="11.4813817"><ele>147.0</ele><time>2026-04-11T02:01:09.986Z</time></trkpt><trkpt lat="43.1365483" lon="11.4812317"><ele>147.0</ele><time>2026-04-11T02:01:11.986Z</time></trkpt><trkpt lat="43.136515" lon="11.481095"><ele>146.6</ele><time>2026-04-11T02:01:13.986Z</time></trkpt><trkpt lat="43.1364783" lon="11.48096"><ele>146.2</ele><time>2026-04-11T02:01:15.986Z</time></trkpt><trkpt lat="43.1364333" lon="11.4808367"><ele>145.8</ele><time>2026-04-11T02:01:17.987Z</time></trkpt><trkpt lat="43.1363983" lon="11.4807233"><ele>145.4</ele><time>2026-04-11T02:01:19.986Z</time></trkpt><trkpt lat="43.1363683" lon="11.4806133"><ele>145.0</ele><time>2026-04-11T02:01:21.987Z</time></trkpt><trkpt lat="43.136335" lon="11.48049"><ele>144.8</ele><time>2026-04-11T02:01:23.986Z</time></trkpt><trkpt lat="43.1363067" lon="11.48037"><ele>144.6</ele><time>2026-04-11T02:01:25.987Z</time></trkpt><trkpt lat="43.136275" lon="11.48024"><ele>144.4</ele><time>2026-04-11T02:01:27.986Z</time></trkpt><trkpt lat="43.13624" lon="11.4800967"><ele>144.2</ele><time>2026-04-11T02:01:29.986Z</time></trkpt><trkpt lat="43.1362033" lon="11.4799583"><ele>144.0</ele><time>2026-04-11T02:01:31.986Z</time></trkpt><trkpt lat="43.13617" lon="11.4798183"><ele>144.0</ele><time>2026-04-11T02:01:33.986Z</time></trkpt><trkpt lat="43.1361367" lon="11.4796817"><ele>144.0</ele><time>2026-04-11T02:01:35.986Z</time></trkpt><trkpt lat="43.1361033" lon="11.4795483"><ele>144.0</ele><time>2026-04-11T02:01:37.986Z</time></trkpt><trkpt lat="43.1360717" lon="11.479405"><ele>144.0</ele><time>2026-04-11T02:01:39.986Z</time></trkpt><trkpt lat="43.1360417" lon="11.47926"><ele>144.0</ele><time>2026-04-11T02:01:41.986Z</time></trkpt><trkpt lat="43.136015" lon="11.4791017"><ele>144.0</ele><time>2026-04-11T02:01:43.986Z</time></trkpt><trkpt lat="43.1359733" lon="11.4789517"><ele>144.0</ele><time>2026-04-11T02:01:45.986Z</time></trkpt><trkpt lat="43.1359317" lon="11.4788083"><ele>144.0</ele><time>2026-04-11T02:01:47.987Z</time></trkpt><trkpt lat="43.1358933" lon="11.4786633"><ele>144.0</ele><time>2026-04-11T02:01:49.987Z</time></trkpt><trkpt lat="43.13586" lon="11.47852"><ele>144.2</ele><time>2026-04-11T02:01:51.986Z</time></trkpt><trkpt lat="43.1358233" lon="11.4783733"><ele>144.4</ele><time>2026-04-11T02:01:53.986Z</time></trkpt><trkpt lat="43.135785" lon="11.47823"><ele>144.6</ele><time>2026-04-11T02:01:55.986Z</time></trkpt><trkpt lat="43.135755" lon="11.47806"><ele>144.8</ele><time>2026-04-11T02:01:57.986Z</time></trkpt><trkpt lat="43.1357383" lon="11.4779717"><ele>145.0</ele><time>2026-04-11T02:01:58.986Z</time></trkpt><trkpt lat="43.1357183" lon="11.4778867"><ele>144.57142857142858</ele><time>2026-04-11T02:01:59.987Z</time></trkpt><trkpt lat="43.1357017" lon="11.4778033"><ele>144.14285714285717</ele><time>2026-04-11T02:02:00.986Z</time></trkpt><trkpt lat="43.1356817" lon="11.4777167"><ele>143.71428571428572</ele><time>2026-04-11T02:02:01.986Z</time></trkpt><trkpt lat="43.13566" lon="11.4776267"><ele>143.28571428571428</ele><time>2026-04-11T02:02:02.986Z</time></trkpt><trkpt lat="43.13564" lon="11.477535"><ele>142.85714285714283</ele><time>2026-04-11T02:02:03.986Z</time></trkpt><trkpt lat="43.1356133" lon="11.477445"><ele>142.42857142857142</ele><time>2026-04-11T02:02:04.986Z</time></trkpt><trkpt lat="43.1355933" lon="11.47735"><ele>142.0</ele><time>2026-04-11T02:02:05.986Z</time></trkpt><trkpt lat="43.1355817" lon="11.4772633"><ele>142.0</ele><time>2026-04-11T02:02:06.986Z</time></trkpt><trkpt lat="43.13556" lon="11.4771783"><ele>142.0</ele><time>2026-04-11T02:02:07.986Z</time></trkpt><trkpt lat="43.1355433" lon="11.4770817"><ele>142.0</ele><time>2026-04-11T02:02:08.986Z</time></trkpt><trkpt lat="43.1355233" lon="11.4769983"><ele>142.0</ele><time>2026-04-11T02:02:09.986Z</time></trkpt><trkpt lat="43.1355083" lon="11.4769117"><ele>142.0</ele><time>2026-04-11T02:02:10.986Z</time></trkpt><trkpt lat="43.1354833" lon="11.4767433"><ele>142.0</ele><time>2026-04-11T02:02:12.986Z</time></trkpt><trkpt lat="43.1354433" lon="11.4765833"><ele>141.5</ele><time>2026-04-11T02:02:14.986Z</time></trkpt><trkpt lat="43.135415" lon="11.4764317"><ele>141.0</ele><time>2026-04-11T02:02:16.987Z</time></trkpt><trkpt lat="43.1353733" lon="11.4762767"><ele>140.5</ele><time>2026-04-11T02:02:18.986Z</time></trkpt><trkpt lat="43.1353283" lon="11.4761283"><ele>140.0</ele><time>2026-04-11T02:02:20.986Z</time></trkpt><trkpt lat="43.13528" lon="11.4759817"><ele>139.5</ele><time>2026-04-11T02:02:22.986Z</time></trkpt><trkpt lat="43.1352417" lon="11.4758383"><ele>139.0</ele><time>2026-04-11T02:02:24.986Z</time></trkpt><trkpt lat="43.1352033" lon="11.475695"><ele>138.5</ele><time>2026-04-11T02:02:26.986Z</time></trkpt><trkpt lat="43.1351667" lon="11.4755367"><ele>138.0</ele><time>2026-04-11T02:02:28.986Z</time></trkpt><trkpt lat="43.1351317" lon="11.475375"><ele>138.0</ele><time>2026-04-11T02:02:30.986Z</time></trkpt><trkpt lat="43.135115" lon="11.4752833"><ele>138.0</ele><time>2026-04-11T02:02:31.987Z</time></trkpt><trkpt lat="43.1350933" lon="11.4751883"><ele>138.0</ele><time>2026-04-11T02:02:32.987Z</time></trkpt><trkpt lat="43.1350717" lon="11.4750933"><ele>138.0</ele><time>2026-04-11T02:02:33.986Z</time></trkpt><trkpt lat="43.1350517" lon="11.4749983"><ele>138.0</ele><time>2026-04-11T02:02:34.986Z</time></trkpt><trkpt lat="43.1350367" lon="11.4749017"><ele>138.0</ele><time>2026-04-11T02:02:35.986Z</time></trkpt><trkpt lat="43.13502" lon="11.4748067"><ele>138.0</ele><time>2026-04-11T02:02:36.986Z</time></trkpt><trkpt lat="43.135005" lon="11.4747067"><ele>138.0</ele><time>2026-04-11T02:02:37.987Z</time></trkpt><trkpt lat="43.1349833" lon="11.474615"><ele>138.0</ele><time>2026-04-11T02:02:38.986Z</time></trkpt><trkpt lat="43.1349617" lon="11.474525"><ele>138.0</ele><time>2026-04-11T02:02:39.987Z</time></trkpt><trkpt lat="43.1349417" lon="11.4744367"><ele>138.0</ele><time>2026-04-11T02:02:40.986Z</time></trkpt><trkpt lat="43.1349183" lon="11.474345"><ele>138.0</ele><time>2026-04-11T02:02:41.987Z</time></trkpt><trkpt lat="43.1349017" lon="11.4742533"><ele>138.0</ele><time>2026-04-11T02:02:42.986Z</time></trkpt><trkpt lat="43.134885" lon="11.4741683"><ele>138.0</ele><time>2026-04-11T02:02:43.986Z</time></trkpt><trkpt lat="43.1348683" lon="11.4740817"><ele>138.0</ele><time>2026-04-11T02:02:44.986Z</time></trkpt><trkpt lat="43.1348417" lon="11.4739133"><ele>138.0</ele><time>2026-04-11T02:02:46.986Z</time></trkpt><trkpt lat="43.1348233" lon="11.4738267"><ele>138.0</ele><time>2026-04-11T02:02:47.986Z</time></trkpt><trkpt lat="43.1348067" lon="11.473735"><ele>138.0</ele><time>2026-04-11T02:02:48.986Z</time></trkpt><trkpt lat="43.1347867" lon="11.4736467"><ele>138.0</ele><time>2026-04-11T02:02:49.987Z</time></trkpt><trkpt lat="43.134755" lon="11.4734783"><ele>138.0</ele><time>2026-04-11T02:02:51.986Z</time></trkpt><trkpt lat="43.1347433" lon="11.4733917"><ele>138.0</ele><time>2026-04-11T02:02:52.986Z</time></trkpt><trkpt lat="43.1347117" lon="11.4732233"><ele>138.0</ele><time>2026-04-11T02:02:54.986Z</time></trkpt><trkpt lat="43.1347" lon="11.473135"><ele>138.0</ele><time>2026-04-11T02:02:55.986Z</time></trkpt><trkpt lat="43.1346733" lon="11.472965"><ele>138.0</ele><time>2026-04-11T02:02:57.986Z</time></trkpt><trkpt lat="43.13466" lon="11.47288"><ele>138.0</ele><time>2026-04-11T02:02:58.986Z</time></trkpt><trkpt lat="43.13465" lon="11.4727933"><ele>138.0</ele><time>2026-04-11T02:02:59.986Z</time></trkpt><trkpt lat="43.1346383" lon="11.4727033"><ele>138.0</ele><time>2026-04-11T02:03:00.986Z</time></trkpt><trkpt lat="43.1346033" lon="11.47254"><ele>138.0</ele><time>2026-04-11T02:03:02.986Z</time></trkpt><trkpt lat="43.1345783" lon="11.472375"><ele>138.0</ele><time>2026-04-11T02:03:04.986Z</time></trkpt><trkpt lat="43.134545" lon="11.472215"><ele>138.0</ele><time>2026-04-11T02:03:06.986Z</time></trkpt><trkpt lat="43.134505" lon="11.4720583"><ele>138.0</ele><time>2026-04-11T02:03:08.986Z</time></trkpt><trkpt lat="43.1344633" lon="11.4719033"><ele>138.0</ele><time>2026-04-11T02:03:10.986Z</time></trkpt><trkpt lat="43.13443" lon="11.471755"><ele>138.0</ele><time>2026-04-11T02:03:12.986Z</time></trkpt><trkpt lat="43.1344083" lon="11.4716117"><ele>138.0</ele><time>2026-04-11T02:03:14.986Z</time></trkpt><trkpt lat="43.1343917" lon="11.47148"><ele>138.0</ele><time>2026-04-11T02:03:16.986Z</time></trkpt><trkpt lat="43.134415" lon="11.4713567"><ele>138.4</ele><time>2026-04-11T02:03:18.986Z</time></trkpt><trkpt lat="43.134505" lon="11.47127"><ele>138.8</ele><time>2026-04-11T02:03:20.986Z</time></trkpt><trkpt lat="43.1346033" lon="11.4712283"><ele>139.2</ele><time>2026-04-11T02:03:22.986Z</time></trkpt><trkpt lat="43.13471" lon="11.47119"><ele>139.6</ele><time>2026-04-11T02:03:24.986Z</time></trkpt><trkpt lat="43.1348083" lon="11.4711433"><ele>140.0</ele><time>2026-04-11T02:03:26.986Z</time></trkpt><trkpt lat="43.134905" lon="11.4710833"><ele>140.0</ele><time>2026-04-11T02:03:28.986Z</time></trkpt><trkpt lat="43.135015" lon="11.4710183"><ele>140.0</ele><time>2026-04-11T02:03:30.987Z</time></trkpt><trkpt lat="43.135125" lon="11.47095"><ele>140.0</ele><time>2026-04-11T02:03:32.986Z</time></trkpt><trkpt lat="43.1352433" lon="11.4709"><ele>140.0</ele><time>2026-04-11T02:03:34.986Z</time></trkpt><trkpt lat="43.1353533" lon="11.470845"><ele>140.0</ele><time>2026-04-11T02:03:36.986Z</time></trkpt><trkpt lat="43.13546" lon="11.47078"><ele>140.0</ele><time>2026-04-11T02:03:38.986Z</time></trkpt><trkpt lat="43.1355683" lon="11.4707133"><ele>140.0</ele><time>2026-04-11T02:03:40.986Z</time></trkpt><trkpt lat="43.1356767" lon="11.4706433"><ele>140.0</ele><time>2026-04-11T02:03:42.986Z</time></trkpt><trkpt lat="43.135735" lon="11.4706083"><ele>140.0</ele><time>2026-04-11T02:03:43.986Z</time></trkpt><trkpt lat="43.1358433" lon="11.4705433"><ele>140.16666666666666</ele><time>2026-04-11T02:03:45.986Z</time></trkpt><trkpt lat="43.1359533" lon="11.4704817"><ele>140.33333333333331</ele><time>2026-04-11T02:03:47.986Z</time></trkpt><trkpt lat="43.1360167" lon="11.4704533"><ele>140.5</ele><time>2026-04-11T02:03:48.986Z</time></trkpt><trkpt lat="43.136075" lon="11.470415"><ele>140.66666666666666</ele><time>2026-04-11T02:03:49.986Z</time></trkpt><trkpt lat="43.1361317" lon="11.4703767"><ele>140.83333333333334</ele><time>2026-04-11T02:03:50.986Z</time></trkpt><trkpt lat="43.1362417" lon="11.4703117"><ele>141.0</ele><time>2026-04-11T02:03:52.986Z</time></trkpt><trkpt lat="43.1363017" lon="11.470275"><ele>141.0</ele><time>2026-04-11T02:03:53.986Z</time></trkpt><trkpt lat="43.1363617" lon="11.47024"><ele>141.0</ele><time>2026-04-11T02:03:54.986Z</time></trkpt><trkpt lat="43.136475" lon="11.470185"><ele>141.0</ele><time>2026-04-11T02:03:56.986Z</time></trkpt><trkpt lat="43.13659" lon="11.4701333"><ele>141.0</ele><time>2026-04-11T02:03:58.986Z</time></trkpt><trkpt lat="43.1367" lon="11.47006"><ele>141.0</ele><time>2026-04-11T02:04:00.986Z</time></trkpt><trkpt lat="43.1368083" lon="11.4700033"><ele>140.75</ele><time>2026-04-11T02:04:02.986Z</time></trkpt><trkpt lat="43.1369233" lon="11.4699467"><ele>140.5</ele><time>2026-04-11T02:04:04.986Z</time></trkpt><trkpt lat="43.137035" lon="11.4698917"><ele>140.25</ele><time>2026-04-11T02:04:06.986Z</time></trkpt><trkpt lat="43.1371417" lon="11.46983"><ele>140.0</ele><time>2026-04-11T02:04:08.986Z</time></trkpt><trkpt lat="43.1372333" lon="11.4697583"><ele>140.0</ele><time>2026-04-11T02:04:10.986Z</time></trkpt><trkpt lat="43.1373367" lon="11.469685"><ele>140.0</ele><time>2026-04-11T02:04:12.986Z</time></trkpt><trkpt lat="43.1373933" lon="11.4696433"><ele>140.0</ele><time>2026-04-11T02:04:13.986Z</time></trkpt><trkpt lat="43.1374917" lon="11.46956"><ele>140.0</ele><time>2026-04-11T02:04:15.986Z</time></trkpt><trkpt lat="43.1375933" lon="11.469475"><ele>140.0</ele><time>2026-04-11T02:04:17.986Z</time></trkpt><trkpt lat="43.13765" lon="11.469425"><ele>140.25</ele><time>2026-04-11T02:04:18.986Z</time></trkpt><trkpt lat="43.1377433" lon="11.4693317"><ele>140.5</ele><time>2026-04-11T02:04:20.986Z</time></trkpt><trkpt lat="43.13784" lon="11.4692433"><ele>140.75</ele><time>2026-04-11T02:04:22.986Z</time></trkpt><trkpt lat="43.137945" lon="11.4691583"><ele>141.0</ele><time>2026-04-11T02:04:24.986Z</time></trkpt><trkpt lat="43.13804" lon="11.4690483"><ele>141.0</ele><time>2026-04-11T02:04:26.986Z</time></trkpt><trkpt lat="43.1380917" lon="11.4689933"><ele>141.0</ele><time>2026-04-11T02:04:27.986Z</time></trkpt><trkpt lat="43.1381867" lon="11.4688917"><ele>141.0</ele><time>2026-04-11T02:04:29.986Z</time></trkpt><trkpt lat="43.13824" lon="11.4688433"><ele>141.0</ele><time>2026-04-11T02:04:30.987Z</time></trkpt><trkpt lat="43.138335" lon="11.4687383"><ele>141.0</ele><time>2026-04-11T02:04:32.986Z</time></trkpt><trkpt lat="43.1384167" lon="11.468635"><ele>140.8</ele><time>2026-04-11T02:04:34.986Z</time></trkpt><trkpt lat="43.1385133" lon="11.4685467"><ele>140.6</ele><time>2026-04-11T02:04:36.986Z</time></trkpt><trkpt lat="43.1386033" lon="11.4684467"><ele>140.4</ele><time>2026-04-11T02:04:38.986Z</time></trkpt><trkpt lat="43.138705" lon="11.46834"><ele>140.2</ele><time>2026-04-11T02:04:40.986Z</time></trkpt><trkpt lat="43.1387583" lon="11.4682867"><ele>140.0</ele><time>2026-04-11T02:04:41.986Z</time></trkpt><trkpt lat="43.1388117" lon="11.4682267"><ele>140.0</ele><time>2026-04-11T02:04:42.986Z</time></trkpt><trkpt lat="43.1388667" lon="11.4681667"><ele>140.0</ele><time>2026-04-11T02:04:43.986Z</time></trkpt><trkpt lat="43.1389183" lon="11.4681067"><ele>140.0</ele><time>2026-04-11T02:04:44.986Z</time></trkpt><trkpt lat="43.1389683" lon="11.4680517"><ele>140.0</ele><time>2026-04-11T02:04:45.986Z</time></trkpt><trkpt lat="43.13905" lon="11.4679517"><ele>140.0</ele><time>2026-04-11T02:04:47.987Z</time></trkpt><trkpt lat="43.13914" lon="11.4678567"><ele>140.0</ele><time>2026-04-11T02:04:49.986Z</time></trkpt><trkpt lat="43.1392367" lon="11.4677583"><ele>140.33333333333331</ele><time>2026-04-11T02:04:51.986Z</time></trkpt><trkpt lat="43.1393317" lon="11.4676483"><ele>140.66666666666666</ele><time>2026-04-11T02:04:53.986Z</time></trkpt><trkpt lat="43.1393833" lon="11.46759"><ele>141.0</ele><time>2026-04-11T02:04:54.986Z</time></trkpt><trkpt lat="43.13944" lon="11.46753"><ele>141.33333333333334</ele><time>2026-04-11T02:04:55.986Z</time></trkpt><trkpt lat="43.1394917" lon="11.4674783"><ele>141.66666666666669</ele><time>2026-04-11T02:04:56.986Z</time></trkpt><trkpt lat="43.1395483" lon="11.46742"><ele>142.0</ele><time>2026-04-11T02:04:57.986Z</time></trkpt><trkpt lat="43.1396033" lon="11.4673717"><ele>142.0</ele><time>2026-04-11T02:04:58.986Z</time></trkpt><trkpt lat="43.1396617" lon="11.467315"><ele>142.0</ele><time>2026-04-11T02:04:59.987Z</time></trkpt><trkpt lat="43.1397617" lon="11.4672067"><ele>142.0</ele><time>2026-04-11T02:05:01.986Z</time></trkpt><trkpt lat="43.1398117" lon="11.4671517"><ele>142.0</ele><time>2026-04-11T02:05:02.986Z</time></trkpt><trkpt lat="43.1399167" lon="11.46705"><ele>142.0</ele><time>2026-04-11T02:05:04.986Z</time></trkpt><trkpt lat="43.1400083" lon="11.4669483"><ele>142.33333333333334</ele><time>2026-04-11T02:05:06.987Z</time></trkpt><trkpt lat="43.1400583" lon="11.4668917"><ele>142.66666666666669</ele><time>2026-04-11T02:05:07.986Z</time></trkpt><trkpt lat="43.1401033" lon="11.4668267"><ele>143.0</ele><time>2026-04-11T02:05:08.986Z</time></trkpt><trkpt lat="43.1401533" lon="11.4667667"><ele>143.33333333333334</ele><time>2026-04-11T02:05:09.986Z</time></trkpt><trkpt lat="43.1402067" lon="11.46671"><ele>143.66666666666666</ele><time>2026-04-11T02:05:10.987Z</time></trkpt><trkpt lat="43.1403117" lon="11.4665983"><ele>144.0</ele><time>2026-04-11T02:05:12.986Z</time></trkpt><trkpt lat="43.140365" lon="11.4665483"><ele>144.0</ele><time>2026-04-11T02:05:13.986Z</time></trkpt><trkpt lat="43.1404617" lon="11.4664517"><ele>144.0</ele><time>2026-04-11T02:05:15.986Z</time></trkpt><trkpt lat="43.1405167" lon="11.4664083"><ele>144.0</ele><time>2026-04-11T02:05:16.986Z</time></trkpt><trkpt lat="43.1406167" lon="11.4663067"><ele>144.0</ele><time>2026-04-11T02:05:18.987Z</time></trkpt><trkpt lat="43.1407033" lon="11.4662067"><ele>144.0</ele><time>2026-04-11T02:05:20.986Z</time></trkpt><trkpt lat="43.140795" lon="11.4661083"><ele>143.8</ele><time>2026-04-11T02:05:22.986Z</time></trkpt><trkpt lat="43.14089" lon="11.4660033"><ele>143.60000000000002</ele><time>2026-04-11T02:05:24.986Z</time></trkpt><trkpt lat="43.1409433" lon="11.4659517"><ele>143.4</ele><time>2026-04-11T02:05:25.986Z</time></trkpt><trkpt lat="43.1410367" lon="11.4658567"><ele>143.20000000000002</ele><time>2026-04-11T02:05:27.986Z</time></trkpt><trkpt lat="43.1411267" lon="11.465755"><ele>143.0</ele><time>2026-04-11T02:05:29.986Z</time></trkpt><trkpt lat="43.1411783" lon="11.4656967"><ele>143.0</ele><time>2026-04-11T02:05:30.987Z</time></trkpt><trkpt lat="43.1412283" lon="11.4656433"><ele>143.0</ele><time>2026-04-11T02:05:31.986Z</time></trkpt><trkpt lat="43.1412783" lon="11.46559"><ele>143.0</ele><time>2026-04-11T02:05:32.986Z</time></trkpt><trkpt lat="43.141365" lon="11.46547"><ele>143.0</ele><time>2026-04-11T02:05:34.987Z</time></trkpt><trkpt lat="43.1414133" lon="11.4654117"><ele>143.0</ele><time>2026-04-11T02:05:35.986Z</time></trkpt><trkpt lat="43.1415133" lon="11.4653183"><ele>143.0</ele><time>2026-04-11T02:05:37.986Z</time></trkpt><trkpt lat="43.1416167" lon="11.4652233"><ele>143.4</ele><time>2026-04-11T02:05:39.986Z</time></trkpt><trkpt lat="43.1416717" lon="11.4651667"><ele>143.8</ele><time>2026-04-11T02:05:40.986Z</time></trkpt><trkpt lat="43.1417217" lon="11.4651117"><ele>144.2</ele><time>2026-04-11T02:05:41.986Z</time></trkpt><trkpt lat="43.1418133" lon="11.46502"><ele>144.6</ele><time>2026-04-11T02:05:43.987Z</time></trkpt><trkpt lat="43.14191" lon="11.464925"><ele>145.0</ele><time>2026-04-11T02:05:45.986Z</time></trkpt><trkpt lat="43.1420033" lon="11.464825"><ele>145.0</ele><time>2026-04-11T02:05:47.987Z</time></trkpt><trkpt lat="43.1420533" lon="11.4647717"><ele>145.0</ele><time>2026-04-11T02:05:48.986Z</time></trkpt><trkpt lat="43.14211" lon="11.46473"><ele>145.0</ele><time>2026-04-11T02:05:49.986Z</time></trkpt><trkpt lat="43.1421683" lon="11.4646817"><ele>145.0</ele><time>2026-04-11T02:05:50.986Z</time></trkpt><trkpt lat="43.1422633" lon="11.46459"><ele>145.0</ele><time>2026-04-11T02:05:52.986Z</time></trkpt><trkpt lat="43.1423633" lon="11.4644867"><ele>145.0</ele><time>2026-04-11T02:05:54.986Z</time></trkpt><trkpt lat="43.142465" lon="11.4643917"><ele>145.16666666666669</ele><time>2026-04-11T02:05:56.986Z</time></trkpt><trkpt lat="43.142515" lon="11.4643383"><ele>145.33333333333334</ele><time>2026-04-11T02:05:57.986Z</time></trkpt><trkpt lat="43.1426" lon="11.4642167"><ele>145.5</ele><time>2026-04-11T02:05:59.986Z</time></trkpt><trkpt lat="43.1426467" lon="11.4641483"><ele>145.66666666666666</ele><time>2026-04-11T02:06:00.986Z</time></trkpt><trkpt lat="43.1426933" lon="11.4640833"><ele>145.83333333333331</ele><time>2026-04-11T02:06:01.986Z</time></trkpt><trkpt lat="43.1427333" lon="11.46401"><ele>146.0</ele><time>2026-04-11T02:06:02.986Z</time></trkpt><trkpt lat="43.1427917" lon="11.4638733"><ele>146.2</ele><time>2026-04-11T02:06:04.986Z</time></trkpt><trkpt lat="43.14285" lon="11.4637483"><ele>146.39999999999998</ele><time>2026-04-11T02:06:06.986Z</time></trkpt><trkpt lat="43.1429083" lon="11.463615"><ele>146.6</ele><time>2026-04-11T02:06:08.986Z</time></trkpt><trkpt lat="43.1429667" lon="11.4634833"><ele>146.79999999999998</ele><time>2026-04-11T02:06:10.986Z</time></trkpt><trkpt lat="43.1430267" lon="11.4633517"><ele>147.0</ele><time>2026-04-11T02:06:12.986Z</time></trkpt><trkpt lat="43.143075" lon="11.4632233"><ele>147.0</ele><time>2026-04-11T02:06:14.986Z</time></trkpt><trkpt lat="43.1431267" lon="11.4630833"><ele>147.0</ele><time>2026-04-11T02:06:16.986Z</time></trkpt><trkpt lat="43.1431767" lon="11.4629617"><ele>147.0</ele><time>2026-04-11T02:06:18.986Z</time></trkpt><trkpt lat="43.1432133" lon="11.4628467"><ele>147.0</ele><time>2026-04-11T02:06:20.986Z</time></trkpt><trkpt lat="43.14326" lon="11.462735"><ele>147.0</ele><time>2026-04-11T02:06:22.986Z</time></trkpt><trkpt lat="43.1433" lon="11.4626183"><ele>147.6</ele><time>2026-04-11T02:06:24.986Z</time></trkpt><trkpt lat="43.1433517" lon="11.46251"><ele>148.2</ele><time>2026-04-11T02:06:26.986Z</time></trkpt><trkpt lat="43.1434017" lon="11.4624033"><ele>148.8</ele><time>2026-04-11T02:06:28.986Z</time></trkpt><trkpt lat="43.1434533" lon="11.4622933"><ele>149.4</ele><time>2026-04-11T02:06:30.986Z</time></trkpt><trkpt lat="43.1435083" lon="11.4621883"><ele>150.0</ele><time>2026-04-11T02:06:32.986Z</time></trkpt><trkpt lat="43.14356" lon="11.4620917"><ele>150.0</ele><time>2026-04-11T02:06:34.986Z</time></trkpt><trkpt lat="43.14363" lon="11.4619933"><ele>150.0</ele><time>2026-04-11T02:06:36.986Z</time></trkpt><trkpt lat="43.1437" lon="11.4619183"><ele>150.0</ele><time>2026-04-11T02:06:38.986Z</time></trkpt><trkpt lat="43.1437633" lon="11.4618333"><ele>150.0</ele><time>2026-04-11T02:06:40.986Z</time></trkpt><trkpt lat="43.1438317" lon="11.4617633"><ele>150.0</ele><time>2026-04-11T02:06:42.986Z</time></trkpt><trkpt lat="43.14389" lon="11.4616983"><ele>150.0</ele><time>2026-04-11T02:06:44.986Z</time></trkpt><trkpt lat="43.1439567" lon="11.4616317"><ele>150.0</ele><time>2026-04-11T02:06:46.986Z</time></trkpt><trkpt lat="43.1440233" lon="11.46158"><ele>150.0</ele><time>2026-04-11T02:06:48.986Z</time></trkpt><trkpt lat="43.14411" lon="11.46153"><ele>150.0</ele><time>2026-04-11T02:06:50.986Z</time></trkpt><trkpt lat="43.1441883" lon="11.4615"><ele>150.0</ele><time>2026-04-11T02:06:52.986Z</time></trkpt><trkpt lat="43.144255" lon="11.4614617"><ele>150.0</ele><time>2026-04-11T02:06:54.986Z</time></trkpt><trkpt lat="43.144325" lon="11.4614167"><ele>150.0</ele><time>2026-04-11T02:06:56.987Z</time></trkpt><trkpt lat="43.144395" lon="11.4613783"><ele>150.85714285714283</ele><time>2026-04-11T02:06:58.986Z</time></trkpt><trkpt lat="43.1444583" lon="11.4613467"><ele>151.71428571428572</ele><time>2026-04-11T02:07:00.986Z</time></trkpt><trkpt lat="43.1445233" lon="11.4613183"><ele>152.57142857142856</ele><time>2026-04-11T02:07:02.986Z</time></trkpt><trkpt lat="43.1445833" lon="11.4612783"><ele>153.42857142857142</ele><time>2026-04-11T02:07:04.986Z</time></trkpt><trkpt lat="43.144655" lon="11.4612367"><ele>154.28571428571428</ele><time>2026-04-11T02:07:06.986Z</time></trkpt><trkpt lat="43.144715" lon="11.4612083"><ele>155.14285714285714</ele><time>2026-04-11T02:07:08.986Z</time></trkpt><trkpt lat="43.1447783" lon="11.461185"><ele>156.0</ele><time>2026-04-11T02:07:10.986Z</time></trkpt><trkpt lat="43.14485" lon="11.4611517"><ele>157.0</ele><time>2026-04-11T02:07:12.986Z</time></trkpt><trkpt lat="43.1449217" lon="11.4611083"><ele>158.0</ele><time>2026-04-11T02:07:14.986Z</time></trkpt><trkpt lat="43.145" lon="11.4610583"><ele>159.0</ele><time>2026-04-11T02:07:16.986Z</time></trkpt><trkpt lat="43.1450783" lon="11.461"><ele>160.0</ele><time>2026-04-11T02:07:18.987Z</time></trkpt><trkpt lat="43.1451433" lon="11.4609433"><ele>161.0</ele><time>2026-04-11T02:07:20.987Z</time></trkpt><trkpt lat="43.145205" lon="11.460885"><ele>162.0</ele><time>2026-04-11T02:07:22.986Z</time></trkpt><trkpt lat="43.145275" lon="11.460835"><ele>162.0</ele><time>2026-04-11T02:07:24.986Z</time></trkpt><trkpt lat="43.1453667" lon="11.460795"><ele>162.0</ele><time>2026-04-11T02:07:26.986Z</time></trkpt><trkpt lat="43.1454717" lon="11.4607667"><ele>162.0</ele><time>2026-04-11T02:07:28.986Z</time></trkpt><trkpt lat="43.1455733" lon="11.4607533"><ele>162.0</ele><time>2026-04-11T02:07:30.986Z</time></trkpt><trkpt lat="43.145675" lon="11.4607433"><ele>162.0</ele><time>2026-04-11T02:07:32.986Z</time></trkpt><trkpt lat="43.14578" lon="11.46072"><ele>162.25</ele><time>2026-04-11T02:07:34.986Z</time></trkpt><trkpt lat="43.1458833" lon="11.4607117"><ele>162.5</ele><time>2026-04-11T02:07:36.986Z</time></trkpt><trkpt lat="43.1459833" lon="11.46066"><ele>162.75</ele><time>2026-04-11T02:07:38.986Z</time></trkpt><trkpt lat="43.1460933" lon="11.46062"><ele>163.0</ele><time>2026-04-11T02:07:40.986Z</time></trkpt><trkpt lat="43.1462233" lon="11.460595"><ele>163.0</ele><time>2026-04-11T02:07:42.986Z</time></trkpt><trkpt lat="43.1462967" lon="11.46058"><ele>163.0</ele><time>2026-04-11T02:07:43.986Z</time></trkpt><trkpt lat="43.1463633" lon="11.4605617"><ele>163.0</ele><time>2026-04-11T02:07:44.986Z</time></trkpt><trkpt lat="43.1464333" lon="11.4605367"><ele>163.0</ele><time>2026-04-11T02:07:45.986Z</time></trkpt><trkpt lat="43.1464983" lon="11.4605183"><ele>163.0</ele><time>2026-04-11T02:07:46.986Z</time></trkpt><trkpt lat="43.14656" lon="11.4604967"><ele>163.0</ele><time>2026-04-11T02:07:47.986Z</time></trkpt><trkpt lat="43.146675" lon="11.4604583"><ele>162.5</ele><time>2026-04-11T02:07:49.986Z</time></trkpt><trkpt lat="43.1467983" lon="11.4604083"><ele>162.0</ele><time>2026-04-11T02:07:51.986Z</time></trkpt><trkpt lat="43.146865" lon="11.4603833"><ele>161.5</ele><time>2026-04-11T02:07:52.986Z</time></trkpt><trkpt lat="43.1469267" lon="11.4603583"><ele>161.0</ele><time>2026-04-11T02:07:53.986Z</time></trkpt><trkpt lat="43.1469917" lon="11.4603383"><ele>160.5</ele><time>2026-04-11T02:07:54.986Z</time></trkpt><trkpt lat="43.14706" lon="11.46031"><ele>160.0</ele><time>2026-04-11T02:07:55.986Z</time></trkpt><trkpt lat="43.147125" lon="11.460285"><ele>160.0</ele><time>2026-04-11T02:07:56.986Z</time></trkpt><trkpt lat="43.1471883" lon="11.460255"><ele>160.0</ele><time>2026-04-11T02:07:57.987Z</time></trkpt><trkpt lat="43.147255" lon="11.4602433"><ele>160.0</ele><time>2026-04-11T02:07:58.986Z</time></trkpt><trkpt lat="43.1473317" lon="11.4602317"><ele>160.0</ele><time>2026-04-11T02:07:59.986Z</time></trkpt><trkpt lat="43.1474067" lon="11.46022"><ele>160.0</ele><time>2026-04-11T02:08:00.987Z</time></trkpt><trkpt lat="43.14748" lon="11.4602233"><ele>160.0</ele><time>2026-04-11T02:08:01.986Z</time></trkpt><trkpt lat="43.1475567" lon="11.46021"><ele>160.0</ele><time>2026-04-11T02:08:02.986Z</time></trkpt><trkpt lat="43.1476333" lon="11.4601967"><ele>159.0</ele><time>2026-04-11T02:08:03.986Z</time></trkpt><trkpt lat="43.14771" lon="11.4601917"><ele>158.0</ele><time>2026-04-11T02:08:04.986Z</time></trkpt><trkpt lat="43.1477917" lon="11.4602"><ele>157.0</ele><time>2026-04-11T02:08:05.986Z</time></trkpt><trkpt lat="43.1478767" lon="11.4602133"><ele>156.0</ele><time>2026-04-11T02:08:06.986Z</time></trkpt><trkpt lat="43.1479583" lon="11.4602417"><ele>155.0</ele><time>2026-04-11T02:08:07.986Z</time></trkpt><trkpt lat="43.14804" lon="11.4602667"><ele>154.0</ele><time>2026-04-11T02:08:08.986Z</time></trkpt><trkpt lat="43.1481167" lon="11.4602983"><ele>154.0</ele><time>2026-04-11T02:08:09.986Z</time></trkpt><trkpt lat="43.1481883" lon="11.4603383"><ele>154.0</ele><time>2026-04-11T02:08:10.987Z</time></trkpt><trkpt lat="43.148255" lon="11.460385"><ele>154.0</ele><time>2026-04-11T02:08:11.986Z</time></trkpt><trkpt lat="43.1483067" lon="11.4604367"><ele>154.0</ele><time>2026-04-11T02:08:12.986Z</time></trkpt><trkpt lat="43.148365" lon="11.4605033"><ele>154.0</ele><time>2026-04-11T02:08:13.986Z</time></trkpt><trkpt lat="43.1484217" lon="11.46057"><ele>154.0</ele><time>2026-04-11T02:08:14.986Z</time></trkpt><trkpt lat="43.1484733" lon="11.4606517"><ele>154.0</ele><time>2026-04-11T02:08:15.986Z</time></trkpt><trkpt lat="43.1485183" lon="11.4607383"><ele>153.6</ele><time>2026-04-11T02:08:16.986Z</time></trkpt><trkpt lat="43.1485583" lon="11.46084"><ele>153.2</ele><time>2026-04-11T02:08:17.986Z</time></trkpt><trkpt lat="43.1486" lon="11.4609583"><ele>152.79999999999998</ele><time>2026-04-11T02:08:18.986Z</time></trkpt><trkpt lat="43.148645" lon="11.4610917"><ele>152.4</ele><time>2026-04-11T02:08:19.986Z</time></trkpt><trkpt lat="43.14869" lon="11.4612167"><ele>152.0</ele><time>2026-04-11T02:08:20.986Z</time></trkpt><trkpt lat="43.1487333" lon="11.4613367"><ele>151.6</ele><time>2026-04-11T02:08:21.986Z</time></trkpt><trkpt lat="43.1487783" lon="11.4614533"><ele>151.2</ele><time>2026-04-11T02:08:22.986Z</time></trkpt><trkpt lat="43.1488267" lon="11.4615633"><ele>150.8</ele><time>2026-04-11T02:08:23.986Z</time></trkpt><trkpt lat="43.1488767" lon="11.46168"><ele>150.4</ele><time>2026-04-11T02:08:24.987Z</time></trkpt><trkpt lat="43.148925" lon="11.4617883"><ele>150.0</ele><time>2026-04-11T02:08:25.986Z</time></trkpt><trkpt lat="43.1489733" lon="11.461905"><ele>150.0</ele><time>2026-04-11T02:08:26.986Z</time></trkpt><trkpt lat="43.14902" lon="11.4620133"><ele>150.0</ele><time>2026-04-11T02:08:27.986Z</time></trkpt><trkpt lat="43.1490667" lon="11.4621267"><ele>150.0</ele><time>2026-04-11T02:08:28.986Z</time></trkpt><trkpt lat="43.1491117" lon="11.46223"><ele>150.0</ele><time>2026-04-11T02:08:29.987Z</time></trkpt><trkpt lat="43.149155" lon="11.46234"><ele>150.0</ele><time>2026-04-11T02:08:30.986Z</time></trkpt><trkpt lat="43.14921" lon="11.462435"><ele>148.83333333333334</ele><time>2026-04-11T02:08:31.986Z</time></trkpt><trkpt lat="43.149255" lon="11.46253"><ele>147.66666666666666</ele><time>2026-04-11T02:08:32.986Z</time></trkpt><trkpt lat="43.1493017" lon="11.462625"><ele>146.5</ele><time>2026-04-11T02:08:33.986Z</time></trkpt><trkpt lat="43.1493467" lon="11.4627083"><ele>145.33333333333331</ele><time>2026-04-11T02:08:34.987Z</time></trkpt><trkpt lat="43.1493933" lon="11.4627867"><ele>144.16666666666666</ele><time>2026-04-11T02:08:35.986Z</time></trkpt><trkpt lat="43.1494483" lon="11.4628567"><ele>143.0</ele><time>2026-04-11T02:08:36.986Z</time></trkpt><trkpt lat="43.1495083" lon="11.4629417"><ele>143.16666666666666</ele><time>2026-04-11T02:08:37.986Z</time></trkpt><trkpt lat="43.1495717" lon="11.4630117"><ele>143.33333333333331</ele><time>2026-04-11T02:08:38.986Z</time></trkpt><trkpt lat="43.1496433" lon="11.463065"><ele>143.5</ele><time>2026-04-11T02:08:39.986Z</time></trkpt><trkpt lat="43.1497233" lon="11.4631217"><ele>143.66666666666666</ele><time>2026-04-11T02:08:40.986Z</time></trkpt><trkpt lat="43.1498033" lon="11.4631567"><ele>143.83333333333334</ele><time>2026-04-11T02:08:41.986Z</time></trkpt><trkpt lat="43.14988" lon="11.4631617"><ele>144.0</ele><time>2026-04-11T02:08:42.986Z</time></trkpt><trkpt lat="43.1499567" lon="11.4631433"><ele>144.0</ele><time>2026-04-11T02:08:43.986Z</time></trkpt><trkpt lat="43.1500367" lon="11.4631383"><ele>144.0</ele><time>2026-04-11T02:08:44.986Z</time></trkpt><trkpt lat="43.1501083" lon="11.4631117"><ele>144.0</ele><time>2026-04-11T02:08:45.986Z</time></trkpt><trkpt lat="43.1501833" lon="11.4630733"><ele>144.0</ele><time>2026-04-11T02:08:46.986Z</time></trkpt><trkpt lat="43.1502567" lon="11.4630267"><ele>144.0</ele><time>2026-04-11T02:08:47.986Z</time></trkpt><trkpt lat="43.15033" lon="11.4629817"><ele>144.0</ele><time>2026-04-11T02:08:48.986Z</time></trkpt><trkpt lat="43.150395" lon="11.46293"><ele>144.00000000000003</ele><time>2026-04-11T02:08:49.986Z</time></trkpt><trkpt lat="43.1504633" lon="11.4628817"><ele>144.0</ele><time>2026-04-11T02:08:50.986Z</time></trkpt><trkpt lat="43.1505333" lon="11.4628383"><ele>144.0</ele><time>2026-04-11T02:08:51.986Z</time></trkpt><trkpt lat="43.1506067" lon="11.4627967"><ele>144.0</ele><time>2026-04-11T02:08:52.986Z</time></trkpt><trkpt lat="43.15067" lon="11.46276"><ele>144.0</ele><time>2026-04-11T02:08:53.986Z</time></trkpt><trkpt lat="43.150735" lon="11.4627217"><ele>144.00000000000003</ele><time>2026-04-11T02:08:54.986Z</time></trkpt><trkpt lat="43.1508017" lon="11.4626867"><ele>144.0</ele><time>2026-04-11T02:08:55.986Z</time></trkpt><trkpt lat="43.15087" lon="11.4626583"><ele>144.00000000000003</ele><time>2026-04-11T02:08:56.986Z</time></trkpt><trkpt lat="43.1509367" lon="11.4626267"><ele>144.0</ele><time>2026-04-11T02:08:57.986Z</time></trkpt><trkpt lat="43.1510067" lon="11.4625817"><ele>144.0</ele><time>2026-04-11T02:08:58.986Z</time></trkpt><trkpt lat="43.15107" lon="11.4625417"><ele>144.0</ele><time>2026-04-11T02:08:59.986Z</time></trkpt><trkpt lat="43.1511283" lon="11.4625033"><ele>144.0</ele><time>2026-04-11T02:09:00.986Z</time></trkpt><trkpt lat="43.1511917" lon="11.4624667"><ele>144.00000000000003</ele><time>2026-04-11T02:09:01.986Z</time></trkpt><trkpt lat="43.151255" lon="11.4624233"><ele>144.0</ele><time>2026-04-11T02:09:02.986Z</time></trkpt><trkpt lat="43.151315" lon="11.4623833"><ele>144.00000000000003</ele><time>2026-04-11T02:09:03.986Z</time></trkpt><trkpt lat="43.151375" lon="11.4623417"><ele>144.0</ele><time>2026-04-11T02:09:04.986Z</time></trkpt><trkpt lat="43.1514367" lon="11.4623067"><ele>144.0</ele><time>2026-04-11T02:09:05.987Z</time></trkpt><trkpt lat="43.1515017" lon="11.4622683"><ele>144.0</ele><time>2026-04-11T02:09:06.987Z</time></trkpt><trkpt lat="43.1515633" lon="11.4622267"><ele>144.0</ele><time>2026-04-11T02:09:07.986Z</time></trkpt><trkpt lat="43.1516283" lon="11.4621933"><ele>144.00000000000003</ele><time>2026-04-11T02:09:08.986Z</time></trkpt><trkpt lat="43.1516967" lon="11.46216"><ele>144.0</ele><time>2026-04-11T02:09:09.987Z</time></trkpt><trkpt lat="43.1517633" lon="11.462115"><ele>143.85714285714286</ele><time>2026-04-11T02:09:10.986Z</time></trkpt><trkpt lat="43.151825" lon="11.4620733"><ele>143.71428571428572</ele><time>2026-04-11T02:09:11.986Z</time></trkpt><trkpt lat="43.15189" lon="11.46204"><ele>143.57142857142856</ele><time>2026-04-11T02:09:12.987Z</time></trkpt><trkpt lat="43.15195" lon="11.4620067"><ele>143.42857142857144</ele><time>2026-04-11T02:09:13.986Z</time></trkpt><trkpt lat="43.1520133" lon="11.46197"><ele>143.28571428571428</ele><time>2026-04-11T02:09:14.986Z</time></trkpt><trkpt lat="43.1520767" lon="11.4619317"><ele>143.14285714285714</ele><time>2026-04-11T02:09:15.986Z</time></trkpt><trkpt lat="43.15214" lon="11.4619033"><ele>143.0</ele><time>2026-04-11T02:09:16.986Z</time></trkpt><trkpt lat="43.15221" lon="11.4618783"><ele>142.99999999999997</ele><time>2026-04-11T02:09:17.986Z</time></trkpt><trkpt lat="43.1522783" lon="11.4618517"><ele>143.0</ele><time>2026-04-11T02:09:18.986Z</time></trkpt><trkpt lat="43.152345" lon="11.4618267"><ele>143.0</ele><time>2026-04-11T02:09:19.986Z</time></trkpt><trkpt lat="43.1524117" lon="11.4617983"><ele>143.0</ele><time>2026-04-11T02:09:20.986Z</time></trkpt><trkpt lat="43.152475" lon="11.461765"><ele>143.0</ele><time>2026-04-11T02:09:21.986Z</time></trkpt><trkpt lat="43.152535" lon="11.4617267"><ele>142.99999999999997</ele><time>2026-04-11T02:09:22.986Z</time></trkpt><trkpt lat="43.1526017" lon="11.46169"><ele>143.0</ele><time>2026-04-11T02:09:23.986Z</time></trkpt><trkpt lat="43.15267" lon="11.4616583"><ele>143.28571428571428</ele><time>2026-04-11T02:09:24.986Z</time></trkpt><trkpt lat="43.1527317" lon="11.4616217"><ele>143.57142857142856</ele><time>2026-04-11T02:09:25.986Z</time></trkpt><trkpt lat="43.1527967" lon="11.461595"><ele>143.85714285714286</ele><time>2026-04-11T02:09:26.986Z</time></trkpt><trkpt lat="43.1528583" lon="11.4615667"><ele>144.14285714285714</ele><time>2026-04-11T02:09:27.986Z</time></trkpt><trkpt lat="43.1529217" lon="11.4615383"><ele>144.42857142857144</ele><time>2026-04-11T02:09:28.986Z</time></trkpt><trkpt lat="43.1529867" lon="11.46151"><ele>144.71428571428572</ele><time>2026-04-11T02:09:29.986Z</time></trkpt><trkpt lat="43.1530517" lon="11.4614683"><ele>145.0</ele><time>2026-04-11T02:09:30.986Z</time></trkpt><trkpt lat="43.1531183" lon="11.4614317"><ele>145.0</ele><time>2026-04-11T02:09:31.986Z</time></trkpt><trkpt lat="43.1531817" lon="11.4613967"><ele>145.0</ele><time>2026-04-11T02:09:32.986Z</time></trkpt><trkpt lat="43.1532483" lon="11.4613633"><ele>145.0</ele><time>2026-04-11T02:09:33.986Z</time></trkpt><trkpt lat="43.1533133" lon="11.4613283"><ele>145.0</ele><time>2026-04-11T02:09:34.986Z</time></trkpt><trkpt lat="43.1533733" lon="11.461295"><ele>145.0</ele><time>2026-04-11T02:09:35.987Z</time></trkpt><trkpt lat="43.1534317" lon="11.46126"><ele>145.0</ele><time>2026-04-11T02:09:36.986Z</time></trkpt><trkpt lat="43.153495" lon="11.4612233"><ele>145.0</ele><time>2026-04-11T02:09:37.987Z</time></trkpt><trkpt lat="43.1535583" lon="11.4611883"><ele>145.33333333333334</ele><time>2026-04-11T02:09:38.986Z</time></trkpt><trkpt lat="43.1536217" lon="11.4611567"><ele>145.66666666666669</ele><time>2026-04-11T02:09:39.986Z</time></trkpt><trkpt lat="43.1536883" lon="11.4611167"><ele>146.0</ele><time>2026-04-11T02:09:40.986Z</time></trkpt><trkpt lat="43.15375" lon="11.4610883"><ele>146.33333333333334</ele><time>2026-04-11T02:09:41.986Z</time></trkpt><trkpt lat="43.1538083" lon="11.4610517"><ele>146.66666666666666</ele><time>2026-04-11T02:09:42.986Z</time></trkpt><trkpt lat="43.1539233" lon="11.4609833"><ele>147.0</ele><time>2026-04-11T02:09:44.987Z</time></trkpt><trkpt lat="43.153985" lon="11.4609533"><ele>146.79999999999998</ele><time>2026-04-11T02:09:45.986Z</time></trkpt><trkpt lat="43.154045" lon="11.46092"><ele>146.6</ele><time>2026-04-11T02:09:46.986Z</time></trkpt><trkpt lat="43.1541533" lon="11.460855"><ele>146.39999999999998</ele><time>2026-04-11T02:09:48.986Z</time></trkpt><trkpt lat="43.1542767" lon="11.460795"><ele>146.2</ele><time>2026-04-11T02:09:50.986Z</time></trkpt><trkpt lat="43.1543917" lon="11.460725"><ele>146.0</ele><time>2026-04-11T02:09:52.987Z</time></trkpt><trkpt lat="43.1544533" lon="11.4606917"><ele>146.0</ele><time>2026-04-11T02:09:53.986Z</time></trkpt><trkpt lat="43.1545183" lon="11.4606567"><ele>146.0</ele><time>2026-04-11T02:09:54.986Z</time></trkpt><trkpt lat="43.1545817" lon="11.4606283"><ele>146.0</ele><time>2026-04-11T02:09:55.986Z</time></trkpt><trkpt lat="43.1546433" lon="11.4605933"><ele>146.0</ele><time>2026-04-11T02:09:56.986Z</time></trkpt><trkpt lat="43.1547067" lon="11.460565"><ele>146.0</ele><time>2026-04-11T02:09:57.986Z</time></trkpt><trkpt lat="43.1547733" lon="11.46054"><ele>146.0</ele><time>2026-04-11T02:09:58.986Z</time></trkpt><trkpt lat="43.1548383" lon="11.4605117"><ele>146.0</ele><time>2026-04-11T02:09:59.987Z</time></trkpt><trkpt lat="43.1549483" lon="11.460455"><ele>146.0</ele><time>2026-04-11T02:10:01.986Z</time></trkpt><trkpt lat="43.1550517" lon="11.4603967"><ele>146.0</ele><time>2026-04-11T02:10:03.986Z</time></trkpt><trkpt lat="43.1551633" lon="11.4603317"><ele>146.0</ele><time>2026-04-11T02:10:05.986Z</time></trkpt><trkpt lat="43.1552683" lon="11.46028"><ele>146.0</ele><time>2026-04-11T02:10:07.986Z</time></trkpt><trkpt lat="43.1553733" lon="11.4602283"><ele>146.0</ele><time>2026-04-11T02:10:09.986Z</time></trkpt><trkpt lat="43.1554383" lon="11.460195"><ele>146.0</ele><time>2026-04-11T02:10:10.986Z</time></trkpt><trkpt lat="43.1555067" lon="11.4601733"><ele>146.0</ele><time>2026-04-11T02:10:11.986Z</time></trkpt><trkpt lat="43.1555667" lon="11.4601383"><ele>146.0</ele><time>2026-04-11T02:10:12.986Z</time></trkpt><trkpt lat="43.1556733" lon="11.460075"><ele>146.0</ele><time>2026-04-11T02:10:14.986Z</time></trkpt><trkpt lat="43.155785" lon="11.4600067"><ele>146.0</ele><time>2026-04-11T02:10:16.986Z</time></trkpt><trkpt lat="43.1558433" lon="11.4599733"><ele>146.0</ele><time>2026-04-11T02:10:17.987Z</time></trkpt><trkpt lat="43.1559067" lon="11.4599483"><ele>146.0</ele><time>2026-04-11T02:10:18.987Z</time></trkpt><trkpt lat="43.1559717" lon="11.4599167"><ele>146.0</ele><time>2026-04-11T02:10:19.986Z</time></trkpt><trkpt lat="43.1560867" lon="11.4598533"><ele>146.0</ele><time>2026-04-11T02:10:21.986Z</time></trkpt><trkpt lat="43.1562067" lon="11.45981"><ele>146.0</ele><time>2026-04-11T02:10:23.987Z</time></trkpt><trkpt lat="43.1563233" lon="11.4597617"><ele>146.0</ele><time>2026-04-11T02:10:25.987Z</time></trkpt><trkpt lat="43.1563833" lon="11.4597283"><ele>146.0</ele><time>2026-04-11T02:10:26.986Z</time></trkpt><trkpt lat="43.156445" lon="11.4596917"><ele>146.0</ele><time>2026-04-11T02:10:27.986Z</time></trkpt><trkpt lat="43.156565" lon="11.4596333"><ele>146.0</ele><time>2026-04-11T02:10:29.986Z</time></trkpt><trkpt lat="43.1566267" lon="11.4596033"><ele>146.0</ele><time>2026-04-11T02:10:30.986Z</time></trkpt><trkpt lat="43.1567367" lon="11.4595267"><ele>146.0</ele><time>2026-04-11T02:10:32.986Z</time></trkpt><trkpt lat="43.1568483" lon="11.459455"><ele>146.28571428571428</ele><time>2026-04-11T02:10:34.987Z</time></trkpt><trkpt lat="43.15691" lon="11.4594267"><ele>146.57142857142858</ele><time>2026-04-11T02:10:35.986Z</time></trkpt><trkpt lat="43.1569717" lon="11.4594"><ele>146.85714285714286</ele><time>2026-04-11T02:10:36.986Z</time></trkpt><trkpt lat="43.1570333" lon="11.4593683"><ele>147.14285714285714</ele><time>2026-04-11T02:10:37.987Z</time></trkpt><trkpt lat="43.1570983" lon="11.4593383"><ele>147.42857142857142</ele><time>2026-04-11T02:10:38.986Z</time></trkpt><trkpt lat="43.1571633" lon="11.4593067"><ele>147.71428571428572</ele><time>2026-04-11T02:10:39.986Z</time></trkpt><trkpt lat="43.1572283" lon="11.4592717"><ele>148.0</ele><time>2026-04-11T02:10:40.986Z</time></trkpt><trkpt lat="43.1572883" lon="11.45924"><ele>147.66666666666669</ele><time>2026-04-11T02:10:41.986Z</time></trkpt><trkpt lat="43.1573933" lon="11.4591783"><ele>147.33333333333334</ele><time>2026-04-11T02:10:43.986Z</time></trkpt><trkpt lat="43.1574517" lon="11.4591383"><ele>147.0</ele><time>2026-04-11T02:10:44.986Z</time></trkpt><trkpt lat="43.1575683" lon="11.4590717"><ele>146.66666666666666</ele><time>2026-04-11T02:10:46.987Z</time></trkpt><trkpt lat="43.15763" lon="11.4590433"><ele>146.33333333333331</ele><time>2026-04-11T02:10:47.986Z</time></trkpt><trkpt lat="43.157695" lon="11.4590017"><ele>146.0</ele><time>2026-04-11T02:10:48.987Z</time></trkpt><trkpt lat="43.1577583" lon="11.4589633"><ele>146.0</ele><time>2026-04-11T02:10:49.986Z</time></trkpt><trkpt lat="43.1578167" lon="11.45893"><ele>146.0</ele><time>2026-04-11T02:10:50.987Z</time></trkpt><trkpt lat="43.15788" lon="11.45891"><ele>146.0</ele><time>2026-04-11T02:10:51.986Z</time></trkpt><trkpt lat="43.1579433" lon="11.4588867"><ele>146.0</ele><time>2026-04-11T02:10:52.987Z</time></trkpt><trkpt lat="43.15806" lon="11.458835"><ele>146.0</ele><time>2026-04-11T02:10:54.986Z</time></trkpt><trkpt lat="43.1581217" lon="11.458805"><ele>146.0</ele><time>2026-04-11T02:10:55.987Z</time></trkpt><trkpt lat="43.1582383" lon="11.4587483"><ele>145.75</ele><time>2026-04-11T02:10:57.986Z</time></trkpt><trkpt lat="43.1583433" lon="11.4586867"><ele>145.5</ele><time>2026-04-11T02:10:59.986Z</time></trkpt><trkpt lat="43.1584533" lon="11.4586267"><ele>145.25</ele><time>2026-04-11T02:11:01.986Z</time></trkpt><trkpt lat="43.1585583" lon="11.45856"><ele>145.0</ele><time>2026-04-11T02:11:03.986Z</time></trkpt><trkpt lat="43.15867" lon="11.458495"><ele>145.0</ele><time>2026-04-11T02:11:05.986Z</time></trkpt><trkpt lat="43.1587733" lon="11.458425"><ele>145.0</ele><time>2026-04-11T02:11:07.986Z</time></trkpt><trkpt lat="43.1588317" lon="11.4583883"><ele>145.0</ele><time>2026-04-11T02:11:08.986Z</time></trkpt><trkpt lat="43.1588967" lon="11.4583533"><ele>145.0</ele><time>2026-04-11T02:11:09.987Z</time></trkpt><trkpt lat="43.1590167" lon="11.4582867"><ele>145.0</ele><time>2026-04-11T02:11:11.987Z</time></trkpt><trkpt lat="43.1591417" lon="11.4582233"><ele>145.16666666666669</ele><time>2026-04-11T02:11:13.986Z</time></trkpt><trkpt lat="43.1592617" lon="11.4581667"><ele>145.33333333333334</ele><time>2026-04-11T02:11:15.986Z</time></trkpt><trkpt lat="43.1593233" lon="11.4581367"><ele>145.5</ele><time>2026-04-11T02:11:16.987Z</time></trkpt><trkpt lat="43.15939" lon="11.4581017"><ele>145.66666666666666</ele><time>2026-04-11T02:11:17.987Z</time></trkpt><trkpt lat="43.1594517" lon="11.4580783"><ele>145.83333333333331</ele><time>2026-04-11T02:11:18.986Z</time></trkpt><trkpt lat="43.159515" lon="11.4580483"><ele>146.0</ele><time>2026-04-11T02:11:19.986Z</time></trkpt><trkpt lat="43.1595767" lon="11.45802"><ele>146.0</ele><time>2026-04-11T02:11:20.986Z</time></trkpt><trkpt lat="43.1596383" lon="11.4579917"><ele>146.0</ele><time>2026-04-11T02:11:21.986Z</time></trkpt><trkpt lat="43.1597017" lon="11.4579533"><ele>146.0</ele><time>2026-04-11T02:11:22.986Z</time></trkpt><trkpt lat="43.15976" lon="11.4579133"><ele>146.0</ele><time>2026-04-11T02:11:23.986Z</time></trkpt><trkpt lat="43.15982" lon="11.457875"><ele>146.0</ele><time>2026-04-11T02:11:24.986Z</time></trkpt><trkpt lat="43.1598783" lon="11.45784"><ele>146.0</ele><time>2026-04-11T02:11:25.986Z</time></trkpt><trkpt lat="43.15994" lon="11.4578117"><ele>146.0</ele><time>2026-04-11T02:11:26.986Z</time></trkpt><trkpt lat="43.16006" lon="11.45775"><ele>146.0</ele><time>2026-04-11T02:11:28.986Z</time></trkpt><trkpt lat="43.1601667" lon="11.4576917"><ele>146.0</ele><time>2026-04-11T02:11:30.986Z</time></trkpt><trkpt lat="43.1602767" lon="11.457615"><ele>146.0</ele><time>2026-04-11T02:11:32.986Z</time></trkpt><trkpt lat="43.160365" lon="11.4575117"><ele>146.0</ele><time>2026-04-11T02:11:34.986Z</time></trkpt><trkpt lat="43.160445" lon="11.4573767"><ele>146.0</ele><time>2026-04-11T02:11:36.987Z</time></trkpt><trkpt lat="43.160475" lon="11.4572217"><ele>146.0</ele><time>2026-04-11T02:11:38.987Z</time></trkpt><trkpt lat="43.1604933" lon="11.4570767"><ele>146.0</ele><time>2026-04-11T02:11:40.987Z</time></trkpt><trkpt lat="43.1605217" lon="11.4569567"><ele>146.0</ele><time>2026-04-11T02:11:42.987Z</time></trkpt><trkpt lat="43.160575" lon="11.4568633"><ele>146.0</ele><time>2026-04-11T02:11:44.986Z</time></trkpt><trkpt lat="43.1606517" lon="11.4568083"><ele>146.33333333333331</ele><time>2026-04-11T02:11:46.987Z</time></trkpt><trkpt lat="43.1607183" lon="11.456805"><ele>146.66666666666666</ele><time>2026-04-11T02:11:48.986Z</time></trkpt><trkpt lat="43.16078" lon="11.4568567"><ele>147.0</ele><time>2026-04-11T02:11:50.987Z</time></trkpt><trkpt lat="43.1608417" lon="11.4569533"><ele>147.33333333333334</ele><time>2026-04-11T02:11:52.986Z</time></trkpt><trkpt lat="43.1609033" lon="11.45708"><ele>147.66666666666669</ele><time>2026-04-11T02:11:54.987Z</time></trkpt><trkpt lat="43.1609467" lon="11.4571867"><ele>148.0</ele><time>2026-04-11T02:11:56.986Z</time></trkpt><trkpt lat="43.16098" lon="11.457285"><ele>148.0</ele><time>2026-04-11T02:11:58.986Z</time></trkpt><trkpt lat="43.1610133" lon="11.4574017"><ele>148.0</ele><time>2026-04-11T02:12:00.986Z</time></trkpt><trkpt lat="43.1610433" lon="11.45755"><ele>148.0</ele><time>2026-04-11T02:12:02.986Z</time></trkpt><trkpt lat="43.1610783" lon="11.4577133"><ele>148.0</ele><time>2026-04-11T02:12:04.986Z</time></trkpt><trkpt lat="43.161095" lon="11.4578183"><ele>148.0</ele><time>2026-04-11T02:12:05.986Z</time></trkpt><trkpt lat="43.16111" lon="11.457925"><ele>147.8</ele><time>2026-04-11T02:12:06.986Z</time></trkpt><trkpt lat="43.1611217" lon="11.45805"><ele>147.60000000000002</ele><time>2026-04-11T02:12:07.987Z</time></trkpt><trkpt lat="43.1611333" lon="11.45819"><ele>147.39999999999998</ele><time>2026-04-11T02:12:08.986Z</time></trkpt><trkpt lat="43.1611417" lon="11.45833"><ele>147.2</ele><time>2026-04-11T02:12:09.986Z</time></trkpt><trkpt lat="43.1611517" lon="11.4584717"><ele>147.0</ele><time>2026-04-11T02:12:10.986Z</time></trkpt><trkpt lat="43.1611617" lon="11.4586133"><ele>147.0</ele><time>2026-04-11T02:12:11.986Z</time></trkpt><trkpt lat="43.1611733" lon="11.4587533"><ele>147.0</ele><time>2026-04-11T02:12:12.986Z</time></trkpt><trkpt lat="43.1611867" lon="11.4588883"><ele>147.0</ele><time>2026-04-11T02:12:13.986Z</time></trkpt><trkpt lat="43.1611933" lon="11.4590267"><ele>147.0</ele><time>2026-04-11T02:12:14.986Z</time></trkpt><trkpt lat="43.1612083" lon="11.4591633"><ele>147.0</ele><time>2026-04-11T02:12:15.987Z</time></trkpt><trkpt lat="43.1612233" lon="11.4592967"><ele>146.79999999999998</ele><time>2026-04-11T02:12:16.986Z</time></trkpt><trkpt lat="43.1612417" lon="11.4594217"><ele>146.6</ele><time>2026-04-11T02:12:17.986Z</time></trkpt><trkpt lat="43.1612617" lon="11.4595483"><ele>146.39999999999998</ele><time>2026-04-11T02:12:18.987Z</time></trkpt><trkpt lat="43.1612867" lon="11.4596717"><ele>146.2</ele><time>2026-04-11T02:12:19.987Z</time></trkpt><trkpt lat="43.16131" lon="11.4597917"><ele>146.0</ele><time>2026-04-11T02:12:20.986Z</time></trkpt><trkpt lat="43.1613333" lon="11.4599083"><ele>146.0</ele><time>2026-04-11T02:12:21.986Z</time></trkpt><trkpt lat="43.1613517" lon="11.4600233"><ele>146.0</ele><time>2026-04-11T02:12:22.986Z</time></trkpt><trkpt lat="43.1613783" lon="11.4601367"><ele>146.0</ele><time>2026-04-11T02:12:23.987Z</time></trkpt><trkpt lat="43.1614133" lon="11.4602367"><ele>146.0</ele><time>2026-04-11T02:12:24.986Z</time></trkpt><trkpt lat="43.1614583" lon="11.4603183"><ele>146.0</ele><time>2026-04-11T02:12:25.986Z</time></trkpt><trkpt lat="43.1615067" lon="11.46039"><ele>146.0</ele><time>2026-04-11T02:12:26.986Z</time></trkpt><trkpt lat="43.1615617" lon="11.4604517"><ele>145.85714285714286</ele><time>2026-04-11T02:12:27.986Z</time></trkpt><trkpt lat="43.1616283" lon="11.4605083"><ele>145.71428571428572</ele><time>2026-04-11T02:12:28.986Z</time></trkpt><trkpt lat="43.1616917" lon="11.460565"><ele>145.57142857142858</ele><time>2026-04-11T02:12:29.987Z</time></trkpt><trkpt lat="43.1617517" lon="11.4606217"><ele>145.42857142857144</ele><time>2026-04-11T02:12:30.987Z</time></trkpt><trkpt lat="43.1618133" lon="11.4606767"><ele>145.2857142857143</ele><time>2026-04-11T02:12:31.986Z</time></trkpt><trkpt lat="43.161875" lon="11.46074"><ele>145.14285714285714</ele><time>2026-04-11T02:12:32.987Z</time></trkpt><trkpt lat="43.1619317" lon="11.460795"><ele>145.0</ele><time>2026-04-11T02:12:33.986Z</time></trkpt><trkpt lat="43.1619867" lon="11.4608567"><ele>145.0</ele><time>2026-04-11T02:12:34.986Z</time></trkpt><trkpt lat="43.16205" lon="11.46092"><ele>145.0</ele><time>2026-04-11T02:12:35.986Z</time></trkpt><trkpt lat="43.162115" lon="11.46099"><ele>145.0</ele><time>2026-04-11T02:12:36.986Z</time></trkpt><trkpt lat="43.1621717" lon="11.4610567"><ele>145.0</ele><time>2026-04-11T02:12:37.986Z</time></trkpt><trkpt lat="43.1622283" lon="11.4611117"><ele>145.0</ele><time>2026-04-11T02:12:38.986Z</time></trkpt><trkpt lat="43.1622833" lon="11.4611717"><ele>145.0</ele><time>2026-04-11T02:12:39.986Z</time></trkpt><trkpt lat="43.1623367" lon="11.4612233"><ele>145.0</ele><time>2026-04-11T02:12:40.987Z</time></trkpt><trkpt lat="43.162395" lon="11.4612833"><ele>144.71428571428572</ele><time>2026-04-11T02:12:41.986Z</time></trkpt><trkpt lat="43.16245" lon="11.46134"><ele>144.42857142857144</ele><time>2026-04-11T02:12:42.986Z</time></trkpt><trkpt lat="43.16251" lon="11.4613967"><ele>144.14285714285714</ele><time>2026-04-11T02:12:43.986Z</time></trkpt><trkpt lat="43.162565" lon="11.4614567"><ele>143.85714285714286</ele><time>2026-04-11T02:12:44.986Z</time></trkpt><trkpt lat="43.16262" lon="11.4615117"><ele>143.57142857142856</ele><time>2026-04-11T02:12:45.986Z</time></trkpt><trkpt lat="43.1626733" lon="11.46158"><ele>143.28571428571428</ele><time>2026-04-11T02:12:46.986Z</time></trkpt><trkpt lat="43.16273" lon="11.4616367"><ele>143.0</ele><time>2026-04-11T02:12:47.987Z</time></trkpt><trkpt lat="43.1627883" lon="11.461705"><ele>143.0</ele><time>2026-04-11T02:12:48.986Z</time></trkpt><trkpt lat="43.1628517" lon="11.4617717"><ele>143.0</ele><time>2026-04-11T02:12:49.986Z</time></trkpt><trkpt lat="43.162915" lon="11.4618317"><ele>143.0</ele><time>2026-04-11T02:12:50.987Z</time></trkpt><trkpt lat="43.1629783" lon="11.4618883"><ele>143.0</ele><time>2026-04-11T02:12:51.986Z</time></trkpt><trkpt lat="43.1630483" lon="11.4619417"><ele>143.0</ele><time>2026-04-11T02:12:52.987Z</time></trkpt><trkpt lat="43.16312" lon="11.4619933"><ele>143.0</ele><time>2026-04-11T02:12:53.986Z</time></trkpt><trkpt lat="43.163195" lon="11.4620433"><ele>143.0</ele><time>2026-04-11T02:12:54.986Z</time></trkpt><trkpt lat="43.163275" lon="11.4620883"><ele>143.0</ele><time>2026-04-11T02:12:55.986Z</time></trkpt><trkpt lat="43.1633533" lon="11.462135"><ele>143.0</ele><time>2026-04-11T02:12:56.986Z</time></trkpt><trkpt lat="43.1634283" lon="11.462185"><ele>143.0</ele><time>2026-04-11T02:12:57.987Z</time></trkpt><trkpt lat="43.1634917" lon="11.4622383"><ele>143.0</ele><time>2026-04-11T02:12:58.986Z</time></trkpt><trkpt lat="43.163545" lon="11.4622967"><ele>143.0</ele><time>2026-04-11T02:12:59.986Z</time></trkpt><trkpt lat="43.1635917" lon="11.4623683"><ele>143.0</ele><time>2026-04-11T02:13:00.986Z</time></trkpt><trkpt lat="43.1636317" lon="11.462465"><ele>143.0</ele><time>2026-04-11T02:13:01.986Z</time></trkpt><trkpt lat="43.1636717" lon="11.46255"><ele>143.0</ele><time>2026-04-11T02:13:02.986Z</time></trkpt><trkpt lat="43.16371" lon="11.4626317"><ele>143.0</ele><time>2026-04-11T02:13:03.987Z</time></trkpt><trkpt lat="43.163755" lon="11.4626967"><ele>143.0</ele><time>2026-04-11T02:13:04.986Z</time></trkpt><trkpt lat="43.1638583" lon="11.4627933"><ele>143.0</ele><time>2026-04-11T02:13:06.987Z</time></trkpt><trkpt lat="43.163965" lon="11.4628633"><ele>143.16666666666666</ele><time>2026-04-11T02:13:08.986Z</time></trkpt><trkpt lat="43.164075" lon="11.4629333"><ele>143.33333333333331</ele><time>2026-04-11T02:13:10.986Z</time></trkpt><trkpt lat="43.1641767" lon="11.4630167"><ele>143.5</ele><time>2026-04-11T02:13:12.986Z</time></trkpt><trkpt lat="43.1642317" lon="11.4630667"><ele>143.66666666666666</ele><time>2026-04-11T02:13:13.987Z</time></trkpt><trkpt lat="43.16429" lon="11.4631183"><ele>143.83333333333334</ele><time>2026-04-11T02:13:14.987Z</time></trkpt><trkpt lat="43.1643483" lon="11.4631633"><ele>144.0</ele><time>2026-04-11T02:13:15.986Z</time></trkpt><trkpt lat="43.1644067" lon="11.4632133"><ele>144.0</ele><time>2026-04-11T02:13:16.986Z</time></trkpt><trkpt lat="43.1645183" lon="11.463295"><ele>144.0</ele><time>2026-04-11T02:13:18.986Z</time></trkpt><trkpt lat="43.1646083" lon="11.463395"><ele>144.0</ele><time>2026-04-11T02:13:20.986Z</time></trkpt><trkpt lat="43.1646883" lon="11.4634867"><ele>144.0</ele><time>2026-04-11T02:13:22.986Z</time></trkpt><trkpt lat="43.1647383" lon="11.463545"><ele>144.0</ele><time>2026-04-11T02:13:23.986Z</time></trkpt><trkpt lat="43.16479" lon="11.4636117"><ele>144.16666666666666</ele><time>2026-04-11T02:13:24.986Z</time></trkpt><trkpt lat="43.1648883" lon="11.463715"><ele>144.33333333333334</ele><time>2026-04-11T02:13:26.986Z</time></trkpt><trkpt lat="43.16495" lon="11.463775"><ele>144.5</ele><time>2026-04-11T02:13:27.986Z</time></trkpt><trkpt lat="43.1650133" lon="11.4638283"><ele>144.66666666666669</ele><time>2026-04-11T02:13:28.986Z</time></trkpt><trkpt lat="43.1650717" lon="11.463875"><ele>144.83333333333334</ele><time>2026-04-11T02:13:29.986Z</time></trkpt><trkpt lat="43.1651383" lon="11.4639267"><ele>145.0</ele><time>2026-04-11T02:13:30.987Z</time></trkpt><trkpt lat="43.1652017" lon="11.46397"><ele>145.0</ele><time>2026-04-11T02:13:31.987Z</time></trkpt><trkpt lat="43.1652783" lon="11.4640183"><ele>145.0</ele><time>2026-04-11T02:13:32.986Z</time></trkpt><trkpt lat="43.16535" lon="11.4640567"><ele>145.0</ele><time>2026-04-11T02:13:33.986Z</time></trkpt><trkpt lat="43.1654083" lon="11.4640917"><ele>145.0</ele><time>2026-04-11T02:13:34.987Z</time></trkpt><trkpt lat="43.1655067" lon="11.4641683"><ele>145.0</ele><time>2026-04-11T02:13:36.986Z</time></trkpt><trkpt lat="43.1655667" lon="11.4642017"><ele>145.0</ele><time>2026-04-11T02:13:37.986Z</time></trkpt><trkpt lat="43.1656733" lon="11.46429"><ele>145.2</ele><time>2026-04-11T02:13:39.986Z</time></trkpt><trkpt lat="43.16573" lon="11.464335"><ele>145.4</ele><time>2026-04-11T02:13:40.987Z</time></trkpt><trkpt lat="43.16583" lon="11.4644083"><ele>145.6</ele><time>2026-04-11T02:13:42.986Z</time></trkpt><trkpt lat="43.1659383" lon="11.4644567"><ele>145.8</ele><time>2026-04-11T02:13:44.986Z</time></trkpt><trkpt lat="43.166055" lon="11.4644367"><ele>146.0</ele><time>2026-04-11T02:13:46.986Z</time></trkpt><trkpt lat="43.1661583" lon="11.4643583"><ele>146.0</ele><time>2026-04-11T02:13:48.986Z</time></trkpt><trkpt lat="43.1662333" lon="11.4642167"><ele>146.0</ele><time>2026-04-11T02:13:50.986Z</time></trkpt><trkpt lat="43.1662733" lon="11.4641433"><ele>146.0</ele><time>2026-04-11T02:13:51.986Z</time></trkpt><trkpt lat="43.16635" lon="11.464"><ele>146.0</ele><time>2026-04-11T02:13:53.986Z</time></trkpt><trkpt lat="43.166385" lon="11.463925"><ele>146.0</ele><time>2026-04-11T02:13:54.986Z</time></trkpt><trkpt lat="43.16643" lon="11.4638533"><ele>146.0</ele><time>2026-04-11T02:13:55.986Z</time></trkpt><trkpt lat="43.166475" lon="11.46378"><ele>146.0</ele><time>2026-04-11T02:13:56.986Z</time></trkpt><trkpt lat="43.1665233" lon="11.463715"><ele>146.0</ele><time>2026-04-11T02:13:57.986Z</time></trkpt><trkpt lat="43.1665717" lon="11.463655"><ele>146.0</ele><time>2026-04-11T02:13:58.986Z</time></trkpt><trkpt lat="43.166665" lon="11.46355"><ele>146.0</ele><time>2026-04-11T02:14:00.986Z</time></trkpt><trkpt lat="43.1667617" lon="11.46346"><ele>146.0</ele><time>2026-04-11T02:14:02.986Z</time></trkpt><trkpt lat="43.16686" lon="11.463385"><ele>146.2</ele><time>2026-04-11T02:14:04.986Z</time></trkpt><trkpt lat="43.1669667" lon="11.4633383"><ele>146.39999999999998</ele><time>2026-04-11T02:14:06.986Z</time></trkpt><trkpt lat="43.1670583" lon="11.4633717"><ele>146.6</ele><time>2026-04-11T02:14:08.986Z</time></trkpt><trkpt lat="43.1671383" lon="11.46346"><ele>146.79999999999998</ele><time>2026-04-11T02:14:10.986Z</time></trkpt><trkpt lat="43.1672283" lon="11.4635483"><ele>147.0</ele><time>2026-04-11T02:14:12.986Z</time></trkpt><trkpt lat="43.16728" lon="11.4636"><ele>147.0</ele><time>2026-04-11T02:14:13.986Z</time></trkpt><trkpt lat="43.16734" lon="11.46365"><ele>147.0</ele><time>2026-04-11T02:14:14.986Z</time></trkpt><trkpt lat="43.1673983" lon="11.4636917"><ele>147.0</ele><time>2026-04-11T02:14:15.987Z</time></trkpt><trkpt lat="43.1674567" lon="11.4637283"><ele>147.0</ele><time>2026-04-11T02:14:16.986Z</time></trkpt><trkpt lat="43.167525" lon="11.46377"><ele>147.0</ele><time>2026-04-11T02:14:17.986Z</time></trkpt><trkpt lat="43.1675867" lon="11.463795"><ele>147.0</ele><time>2026-04-11T02:14:18.986Z</time></trkpt><trkpt lat="43.1676533" lon="11.4638317"><ele>147.0</ele><time>2026-04-11T02:14:19.986Z</time></trkpt><trkpt lat="43.1677167" lon="11.4638817"><ele>147.2</ele><time>2026-04-11T02:14:20.986Z</time></trkpt><trkpt lat="43.1677717" lon="11.463925"><ele>147.39999999999998</ele><time>2026-04-11T02:14:21.986Z</time></trkpt><trkpt lat="43.1678267" lon="11.46397"><ele>147.60000000000002</ele><time>2026-04-11T02:14:22.986Z</time></trkpt><trkpt lat="43.1679283" lon="11.4640383"><ele>147.8</ele><time>2026-04-11T02:14:24.986Z</time></trkpt><trkpt lat="43.1680267" lon="11.4641067"><ele>148.0</ele><time>2026-04-11T02:14:26.986Z</time></trkpt><trkpt lat="43.16812" lon="11.464165"><ele>148.0</ele><time>2026-04-11T02:14:28.986Z</time></trkpt><trkpt lat="43.16817" lon="11.4642217"><ele>148.0</ele><time>2026-04-11T02:14:30.986Z</time></trkpt><trkpt lat="43.1681917" lon="11.4643233"><ele>148.0</ele><time>2026-04-11T02:14:32.986Z</time></trkpt><trkpt lat="43.1681633" lon="11.4644533"><ele>148.0</ele><time>2026-04-11T02:14:34.986Z</time></trkpt><trkpt lat="43.1681083" lon="11.4645867"><ele>148.0</ele><time>2026-04-11T02:14:36.986Z</time></trkpt><trkpt lat="43.1680783" lon="11.464665"><ele>148.0</ele><time>2026-04-11T02:14:37.987Z</time></trkpt><trkpt lat="43.168045" lon="11.4647433"><ele>148.14285714285714</ele><time>2026-04-11T02:14:38.986Z</time></trkpt><trkpt lat="43.1680133" lon="11.4648317"><ele>148.28571428571428</ele><time>2026-04-11T02:14:39.986Z</time></trkpt><trkpt lat="43.167975" lon="11.4649117"><ele>148.42857142857142</ele><time>2026-04-11T02:14:40.986Z</time></trkpt><trkpt lat="43.167925" lon="11.4649733"><ele>148.57142857142856</ele><time>2026-04-11T02:14:41.986Z</time></trkpt><trkpt lat="43.1678717" lon="11.4650217"><ele>148.7142857142857</ele><time>2026-04-11T02:14:42.986Z</time></trkpt><trkpt lat="43.1678133" lon="11.4650583"><ele>148.85714285714286</ele><time>2026-04-11T02:14:43.986Z</time></trkpt><trkpt lat="43.1677117" lon="11.46511"><ele>149.0</ele><time>2026-04-11T02:14:45.986Z</time></trkpt><trkpt lat="43.1675917" lon="11.465105"><ele>149.0</ele><time>2026-04-11T02:14:47.986Z</time></trkpt><trkpt lat="43.1675183" lon="11.4650967"><ele>149.0</ele><time>2026-04-11T02:14:48.986Z</time></trkpt><trkpt lat="43.1674533" lon="11.4650917"><ele>149.0</ele><time>2026-04-11T02:14:49.987Z</time></trkpt><trkpt lat="43.1673883" lon="11.4650783"><ele>149.0</ele><time>2026-04-11T02:14:50.986Z</time></trkpt><trkpt lat="43.1673233" lon="11.46507"><ele>149.0</ele><time>2026-04-11T02:14:51.986Z</time></trkpt><trkpt lat="43.1671983" lon="11.4650917"><ele>149.0</ele><time>2026-04-11T02:14:53.986Z</time></trkpt><trkpt lat="43.167135" lon="11.4651117"><ele>148.83333333333331</ele><time>2026-04-11T02:14:54.986Z</time></trkpt><trkpt lat="43.1670733" lon="11.4651317"><ele>148.66666666666666</ele><time>2026-04-11T02:14:55.986Z</time></trkpt><trkpt lat="43.1670117" lon="11.4651583"><ele>148.5</ele><time>2026-04-11T02:14:56.986Z</time></trkpt><trkpt lat="43.1669067" lon="11.4652167"><ele>148.33333333333334</ele><time>2026-04-11T02:14:58.986Z</time></trkpt><trkpt lat="43.1668483" lon="11.4652567"><ele>148.16666666666669</ele><time>2026-04-11T02:14:59.986Z</time></trkpt><trkpt lat="43.166785" lon="11.4653"><ele>148.0</ele><time>2026-04-11T02:15:00.986Z</time></trkpt><trkpt lat="43.1667117" lon="11.4653433"><ele>148.0</ele><time>2026-04-11T02:15:01.986Z</time></trkpt><trkpt lat="43.1666433" lon="11.4653917"><ele>148.0</ele><time>2026-04-11T02:15:02.986Z</time></trkpt><trkpt lat="43.1665717" lon="11.4654483"><ele>148.0</ele><time>2026-04-11T02:15:03.986Z</time></trkpt><trkpt lat="43.1665" lon="11.4655117"><ele>148.0</ele><time>2026-04-11T02:15:04.986Z</time></trkpt><trkpt lat="43.1664367" lon="11.46558"><ele>148.0</ele><time>2026-04-11T02:15:05.986Z</time></trkpt><trkpt lat="43.1663783" lon="11.4656517"><ele>148.0</ele><time>2026-04-11T02:15:06.986Z</time></trkpt><trkpt lat="43.1663233" lon="11.4657233"><ele>147.33333333333334</ele><time>2026-04-11T02:15:07.986Z</time></trkpt><trkpt lat="43.16627" lon="11.4657983"><ele>146.66666666666669</ele><time>2026-04-11T02:15:08.987Z</time></trkpt><trkpt lat="43.1662167" lon="11.4658717"><ele>146.0</ele><time>2026-04-11T02:15:09.986Z</time></trkpt><trkpt lat="43.166155" lon="11.4659417"><ele>145.33333333333334</ele><time>2026-04-11T02:15:10.986Z</time></trkpt><trkpt lat="43.1660917" lon="11.46601"><ele>144.66666666666666</ele><time>2026-04-11T02:15:11.987Z</time></trkpt><trkpt lat="43.1660317" lon="11.4660817"><ele>144.0</ele><time>2026-04-11T02:15:12.986Z</time></trkpt><trkpt lat="43.1659733" lon="11.466155"><ele>144.0</ele><time>2026-04-11T02:15:13.986Z</time></trkpt><trkpt lat="43.16592" lon="11.4662267"><ele>144.0</ele><time>2026-04-11T02:15:14.986Z</time></trkpt><trkpt lat="43.1658667" lon="11.466305"><ele>144.0</ele><time>2026-04-11T02:15:15.986Z</time></trkpt><trkpt lat="43.165805" lon="11.4663783"><ele>144.0</ele><time>2026-04-11T02:15:16.986Z</time></trkpt><trkpt lat="43.16573" lon="11.4664467"><ele>144.0</ele><time>2026-04-11T02:15:17.986Z</time></trkpt><trkpt lat="43.1656517" lon="11.466505"><ele>144.0</ele><time>2026-04-11T02:15:18.987Z</time></trkpt><trkpt lat="43.16556" lon="11.466545"><ele>144.66666666666666</ele><time>2026-04-11T02:15:19.986Z</time></trkpt><trkpt lat="43.1654683" lon="11.466575"><ele>145.33333333333334</ele><time>2026-04-11T02:15:20.987Z</time></trkpt><trkpt lat="43.1653867" lon="11.466605"><ele>146.0</ele><time>2026-04-11T02:15:21.986Z</time></trkpt><trkpt lat="43.1653067" lon="11.4666483"><ele>146.66666666666669</ele><time>2026-04-11T02:15:22.986Z</time></trkpt><trkpt lat="43.1652283" lon="11.4666967"><ele>147.33333333333334</ele><time>2026-04-11T02:15:23.986Z</time></trkpt><trkpt lat="43.1651583" lon="11.466745"><ele>148.0</ele><time>2026-04-11T02:15:24.986Z</time></trkpt><trkpt lat="43.165095" lon="11.4667933"><ele>148.0</ele><time>2026-04-11T02:15:25.986Z</time></trkpt><trkpt lat="43.16503" lon="11.4668417"><ele>148.0</ele><time>2026-04-11T02:15:26.986Z</time></trkpt><trkpt lat="43.1649633" lon="11.46689"><ele>148.0</ele><time>2026-04-11T02:15:27.987Z</time></trkpt><trkpt lat="43.1648967" lon="11.4669367"><ele>148.0</ele><time>2026-04-11T02:15:28.986Z</time></trkpt><trkpt lat="43.1648317" lon="11.46699"><ele>148.0</ele><time>2026-04-11T02:15:29.986Z</time></trkpt><trkpt lat="43.1647733" lon="11.4670333"><ele>148.0</ele><time>2026-04-11T02:15:30.986Z</time></trkpt><trkpt lat="43.164705" lon="11.46708"><ele>148.0</ele><time>2026-04-11T02:15:31.986Z</time></trkpt><trkpt lat="43.16464" lon="11.4671283"><ele>147.71428571428572</ele><time>2026-04-11T02:15:32.986Z</time></trkpt><trkpt lat="43.164585" lon="11.467175"><ele>147.42857142857142</ele><time>2026-04-11T02:15:33.986Z</time></trkpt><trkpt lat="43.1645267" lon="11.46722"><ele>147.14285714285714</ele><time>2026-04-11T02:15:34.986Z</time></trkpt><trkpt lat="43.1644583" lon="11.46726"><ele>146.85714285714286</ele><time>2026-04-11T02:15:35.986Z</time></trkpt><trkpt lat="43.16439" lon="11.467305"><ele>146.57142857142858</ele><time>2026-04-11T02:15:36.986Z</time></trkpt><trkpt lat="43.1643183" lon="11.4673517"><ele>146.28571428571428</ele><time>2026-04-11T02:15:37.986Z</time></trkpt><trkpt lat="43.1642533" lon="11.4674017"><ele>146.0</ele><time>2026-04-11T02:15:38.986Z</time></trkpt><trkpt lat="43.1641883" lon="11.4674483"><ele>146.0</ele><time>2026-04-11T02:15:39.986Z</time></trkpt><trkpt lat="43.1641217" lon="11.4674867"><ele>146.0</ele><time>2026-04-11T02:15:40.986Z</time></trkpt><trkpt lat="43.1640633" lon="11.467525"><ele>146.0</ele><time>2026-04-11T02:15:41.986Z</time></trkpt><trkpt lat="43.163965" lon="11.46759"><ele>146.0</ele><time>2026-04-11T02:15:43.986Z</time></trkpt><trkpt lat="43.1638983" lon="11.4676967"><ele>146.0</ele><time>2026-04-11T02:15:45.986Z</time></trkpt><trkpt lat="43.1638883" lon="11.4678267"><ele>146.0</ele><time>2026-04-11T02:15:47.986Z</time></trkpt><trkpt lat="43.16393" lon="11.4679733"><ele>146.0</ele><time>2026-04-11T02:15:49.986Z</time></trkpt><trkpt lat="43.163975" lon="11.46812"><ele>146.0</ele><time>2026-04-11T02:15:51.986Z</time></trkpt><trkpt lat="43.1640283" lon="11.468275"><ele>146.0</ele><time>2026-04-11T02:15:53.986Z</time></trkpt><trkpt lat="43.1640567" lon="11.468355"><ele>146.0</ele><time>2026-04-11T02:15:54.986Z</time></trkpt><trkpt lat="43.1640783" lon="11.4684433"><ele>146.0</ele><time>2026-04-11T02:15:55.986Z</time></trkpt><trkpt lat="43.1641033" lon="11.4685317"><ele>146.0</ele><time>2026-04-11T02:15:56.986Z</time></trkpt><trkpt lat="43.1641183" lon="11.46863"><ele>146.42857142857142</ele><time>2026-04-11T02:15:57.986Z</time></trkpt><trkpt lat="43.164125" lon="11.4687283"><ele>146.85714285714286</ele><time>2026-04-11T02:15:58.986Z</time></trkpt><trkpt lat="43.164125" lon="11.468825"><ele>147.28571428571428</ele><time>2026-04-11T02:15:59.986Z</time></trkpt><trkpt lat="43.1641217" lon="11.4689133"><ele>147.71428571428572</ele><time>2026-04-11T02:16:00.986Z</time></trkpt><trkpt lat="43.1640917" lon="11.4689917"><ele>148.14285714285714</ele><time>2026-04-11T02:16:01.987Z</time></trkpt><trkpt lat="43.1640433" lon="11.46906"><ele>148.57142857142856</ele><time>2026-04-11T02:16:02.986Z</time></trkpt><trkpt lat="43.1639883" lon="11.4691083"><ele>149.0</ele><time>2026-04-11T02:16:03.987Z</time></trkpt><trkpt lat="43.1639267" lon="11.46914"><ele>149.8</ele><time>2026-04-11T02:16:04.986Z</time></trkpt><trkpt lat="43.16386" lon="11.4691517"><ele>150.60000000000002</ele><time>2026-04-11T02:16:05.986Z</time></trkpt><trkpt lat="43.1637883" lon="11.4691533"><ele>151.4</ele><time>2026-04-11T02:16:06.986Z</time></trkpt><trkpt lat="43.1636583" lon="11.4691633"><ele>152.20000000000002</ele><time>2026-04-11T02:16:08.986Z</time></trkpt><trkpt lat="43.1635417" lon="11.469205"><ele>153.0</ele><time>2026-04-11T02:16:10.986Z</time></trkpt><trkpt lat="43.1634767" lon="11.4692233"><ele>153.0</ele><time>2026-04-11T02:16:11.986Z</time></trkpt><trkpt lat="43.1634167" lon="11.46925"><ele>153.0</ele><time>2026-04-11T02:16:12.987Z</time></trkpt><trkpt lat="43.1633033" lon="11.4693017"><ele>153.0</ele><time>2026-04-11T02:16:14.986Z</time></trkpt><trkpt lat="43.1632017" lon="11.4693483"><ele>153.0</ele><time>2026-04-11T02:16:16.986Z</time></trkpt><trkpt lat="43.163125" lon="11.4694317"><ele>153.0</ele><time>2026-04-11T02:16:18.987Z</time></trkpt><trkpt lat="43.163035" lon="11.4695183"><ele>152.83333333333334</ele><time>2026-04-11T02:16:20.986Z</time></trkpt><trkpt lat="43.1629583" lon="11.469595"><ele>152.66666666666666</ele><time>2026-04-11T02:16:22.986Z</time></trkpt><trkpt lat="43.1628833" lon="11.4696733"><ele>152.5</ele><time>2026-04-11T02:16:24.986Z</time></trkpt><trkpt lat="43.16283" lon="11.4697517"><ele>152.33333333333331</ele><time>2026-04-11T02:16:26.986Z</time></trkpt><trkpt lat="43.162785" lon="11.4698367"><ele>152.16666666666666</ele><time>2026-04-11T02:16:28.986Z</time></trkpt><trkpt lat="43.162745" lon="11.46994"><ele>152.0</ele><time>2026-04-11T02:16:30.986Z</time></trkpt><trkpt lat="43.1627233" lon="11.4700417"><ele>152.83333333333331</ele><time>2026-04-11T02:16:32.986Z</time></trkpt><trkpt lat="43.1627067" lon="11.4701483"><ele>153.66666666666666</ele><time>2026-04-11T02:16:34.987Z</time></trkpt><trkpt lat="43.1627017" lon="11.47026"><ele>154.5</ele><time>2026-04-11T02:16:36.986Z</time></trkpt><trkpt lat="43.1626983" lon="11.47035"><ele>155.33333333333334</ele><time>2026-04-11T02:16:38.986Z</time></trkpt><trkpt lat="43.1626867" lon="11.4704483"><ele>156.16666666666669</ele><time>2026-04-11T02:16:40.986Z</time></trkpt><trkpt lat="43.1626817" lon="11.4705583"><ele>157.0</ele><time>2026-04-11T02:16:42.986Z</time></trkpt><trkpt lat="43.1626783" lon="11.470665"><ele>157.83333333333334</ele><time>2026-04-11T02:16:44.986Z</time></trkpt><trkpt lat="43.162675" lon="11.4707667"><ele>158.66666666666669</ele><time>2026-04-11T02:16:46.986Z</time></trkpt><trkpt lat="43.1626717" lon="11.470895"><ele>159.5</ele><time>2026-04-11T02:16:49.986Z</time></trkpt><trkpt lat="43.1626583" lon="11.47102"><ele>160.33333333333334</ele><time>2026-04-11T02:16:52.986Z</time></trkpt><trkpt lat="43.162655" lon="11.4711083"><ele>161.16666666666666</ele><time>2026-04-11T02:16:54.986Z</time></trkpt><trkpt lat="43.162645" lon="11.4711983"><ele>162.0</ele><time>2026-04-11T02:16:56.986Z</time></trkpt><trkpt lat="43.162635" lon="11.4713117"><ele>162.83333333333334</ele><time>2026-04-11T02:16:59.987Z</time></trkpt><trkpt lat="43.16263" lon="11.4714217"><ele>163.66666666666666</ele><time>2026-04-11T02:17:03.986Z</time></trkpt><trkpt lat="43.16261" lon="11.4715167"><ele>164.5</ele><time>2026-04-11T02:17:06.986Z</time></trkpt><trkpt lat="43.1625933" lon="11.4716317"><ele>165.33333333333331</ele><time>2026-04-11T02:17:09.986Z</time></trkpt><trkpt lat="43.16256" lon="11.4717183"><ele>166.16666666666666</ele><time>2026-04-11T02:17:12.986Z</time></trkpt><trkpt lat="43.162525" lon="11.4718133"><ele>167.0</ele><time>2026-04-11T02:17:16.986Z</time></trkpt><trkpt lat="43.1624883" lon="11.4719017"><ele>167.0</ele><time>2026-04-11T02:17:19.986Z</time></trkpt><trkpt lat="43.1624617" lon="11.472"><ele>167.0</ele><time>2026-04-11T02:17:22.986Z</time></trkpt><trkpt lat="43.16243" lon="11.4720917"><ele>167.0</ele><time>2026-04-11T02:17:25.986Z</time></trkpt><trkpt lat="43.1623983" lon="11.47217"><ele>167.0</ele><time>2026-04-11T02:17:28.987Z</time></trkpt><trkpt lat="43.1623683" lon="11.4722517"><ele>167.0</ele><time>2026-04-11T02:17:31.986Z</time></trkpt><trkpt lat="43.1623283" lon="11.47235"><ele>167.0</ele><time>2026-04-11T02:17:34.986Z</time></trkpt><trkpt lat="43.1622867" lon="11.4724417"><ele>167.0</ele><time>2026-04-11T02:17:37.986Z</time></trkpt><trkpt lat="43.1622283" lon="11.47253"><ele>167.83333333333331</ele><time>2026-04-11T02:17:40.986Z</time></trkpt><trkpt lat="43.1621867" lon="11.4726183"><ele>168.66666666666666</ele><time>2026-04-11T02:17:43.986Z</time></trkpt><trkpt lat="43.1621417" lon="11.472715"><ele>169.5</ele><time>2026-04-11T02:17:46.986Z</time></trkpt><trkpt lat="43.1621033" lon="11.4728117"><ele>170.33333333333334</ele><time>2026-04-11T02:17:49.986Z</time></trkpt><trkpt lat="43.16206" lon="11.4728767"><ele>171.16666666666669</ele><time>2026-04-11T02:17:51.986Z</time></trkpt><trkpt lat="43.1620217" lon="11.4729567"><ele>172.0</ele><time>2026-04-11T02:17:54.986Z</time></trkpt><trkpt lat="43.1619617" lon="11.473045"><ele>173.0</ele><time>2026-04-11T02:17:57.986Z</time></trkpt><trkpt lat="43.1619067" lon="11.4731467"><ele>174.0</ele><time>2026-04-11T02:18:00.986Z</time></trkpt><trkpt lat="43.16186" lon="11.47325"><ele>175.0</ele><time>2026-04-11T02:18:03.986Z</time></trkpt><trkpt lat="43.1618383" lon="11.4733483"><ele>176.0</ele><time>2026-04-11T02:18:06.986Z</time></trkpt><trkpt lat="43.1618317" lon="11.47346"><ele>177.0</ele><time>2026-04-11T02:18:09.986Z</time></trkpt><trkpt lat="43.1618467" lon="11.47356"><ele>178.0</ele><time>2026-04-11T02:18:12.986Z</time></trkpt><trkpt lat="43.161875" lon="11.47366"><ele>178.0</ele><time>2026-04-11T02:18:15.986Z</time></trkpt><trkpt lat="43.16191" lon="11.4737583"><ele>178.0</ele><time>2026-04-11T02:18:18.986Z</time></trkpt><trkpt lat="43.1619317" lon="11.4738683"><ele>178.0</ele><time>2026-04-11T02:18:21.986Z</time></trkpt><trkpt lat="43.1619517" lon="11.473965"><ele>178.0</ele><time>2026-04-11T02:18:24.986Z</time></trkpt><trkpt lat="43.1619583" lon="11.4740733"><ele>178.0</ele><time>2026-04-11T02:18:27.986Z</time></trkpt><trkpt lat="43.161945" lon="11.4741867"><ele>178.0</ele><time>2026-04-11T02:18:30.986Z</time></trkpt><trkpt lat="43.16194" lon="11.4742733"><ele>178.33333333333334</ele><time>2026-04-11T02:18:32.986Z</time></trkpt><trkpt lat="43.161945" lon="11.4743917"><ele>178.66666666666669</ele><time>2026-04-11T02:18:35.986Z</time></trkpt><trkpt lat="43.1619633" lon="11.4745133"><ele>179.0</ele><time>2026-04-11T02:18:38.986Z</time></trkpt><trkpt lat="43.1619967" lon="11.4746183"><ele>179.33333333333334</ele><time>2026-04-11T02:18:41.986Z</time></trkpt><trkpt lat="43.162055" lon="11.474705"><ele>179.66666666666666</ele><time>2026-04-11T02:18:44.986Z</time></trkpt><trkpt lat="43.162125" lon="11.474775"><ele>180.0</ele><time>2026-04-11T02:18:48.986Z</time></trkpt><trkpt lat="43.1621867" lon="11.47482"><ele>180.0</ele><time>2026-04-11T02:18:50.986Z</time></trkpt><trkpt lat="43.1622617" lon="11.474875"><ele>180.0</ele><time>2026-04-11T02:18:53.986Z</time></trkpt><trkpt lat="43.16235" lon="11.47492"><ele>180.0</ele><time>2026-04-11T02:18:56.986Z</time></trkpt><trkpt lat="43.1624333" lon="11.474945"><ele>180.0</ele><time>2026-04-11T02:18:59.986Z</time></trkpt><trkpt lat="43.1624983" lon="11.4749433"><ele>180.0</ele><time>2026-04-11T02:19:01.987Z</time></trkpt><trkpt lat="43.1625933" lon="11.47496"><ele>180.0</ele><time>2026-04-11T02:19:04.986Z</time></trkpt><trkpt lat="43.1626583" lon="11.474985"><ele>181.66666666666666</ele><time>2026-04-11T02:19:06.986Z</time></trkpt><trkpt lat="43.1627183" lon="11.4750217"><ele>183.33333333333334</ele><time>2026-04-11T02:19:08.986Z</time></trkpt><trkpt lat="43.1627883" lon="11.4750583"><ele>185.0</ele><time>2026-04-11T02:19:10.986Z</time></trkpt><trkpt lat="43.1628633" lon="11.4751017"><ele>186.66666666666669</ele><time>2026-04-11T02:19:12.986Z</time></trkpt><trkpt lat="43.1629383" lon="11.47514"><ele>188.33333333333334</ele><time>2026-04-11T02:19:14.986Z</time></trkpt><trkpt lat="43.1630117" lon="11.475165"><ele>190.0</ele><time>2026-04-11T02:19:16.986Z</time></trkpt><trkpt lat="43.163095" lon="11.475205"><ele>190.0</ele><time>2026-04-11T02:19:18.986Z</time></trkpt><trkpt lat="43.163175" lon="11.47525"><ele>190.0</ele><time>2026-04-11T02:19:20.987Z</time></trkpt><trkpt lat="43.1632567" lon="11.47528"><ele>190.0</ele><time>2026-04-11T02:19:22.986Z</time></trkpt><trkpt lat="43.1633317" lon="11.475295"><ele>190.0</ele><time>2026-04-11T02:19:24.986Z</time></trkpt><trkpt lat="43.16342" lon="11.4753167"><ele>190.0</ele><time>2026-04-11T02:19:26.986Z</time></trkpt><trkpt lat="43.1635233" lon="11.475355"><ele>190.0</ele><time>2026-04-11T02:19:28.986Z</time></trkpt><trkpt lat="43.1636233" lon="11.475405"><ele>189.5</ele><time>2026-04-11T02:19:30.986Z</time></trkpt><trkpt lat="43.1637267" lon="11.47547"><ele>189.0</ele><time>2026-04-11T02:19:32.986Z</time></trkpt><trkpt lat="43.1638383" lon="11.4755383"><ele>188.5</ele><time>2026-04-11T02:19:34.986Z</time></trkpt><trkpt lat="43.1638967" lon="11.4755717"><ele>188.0</ele><time>2026-04-11T02:19:35.986Z</time></trkpt><trkpt lat="43.16396" lon="11.4756083"><ele>187.5</ele><time>2026-04-11T02:19:36.986Z</time></trkpt><trkpt lat="43.1640233" lon="11.4756417"><ele>187.0</ele><time>2026-04-11T02:19:37.986Z</time></trkpt><trkpt lat="43.1640933" lon="11.475675"><ele>187.0</ele><time>2026-04-11T02:19:38.986Z</time></trkpt><trkpt lat="43.1641633" lon="11.47571"><ele>187.0</ele><time>2026-04-11T02:19:39.986Z</time></trkpt><trkpt lat="43.1642317" lon="11.47575"><ele>187.0</ele><time>2026-04-11T02:19:40.986Z</time></trkpt><trkpt lat="43.1643" lon="11.47579"><ele>187.0</ele><time>2026-04-11T02:19:41.986Z</time></trkpt><trkpt lat="43.1643667" lon="11.4758283"><ele>187.0</ele><time>2026-04-11T02:19:42.987Z</time></trkpt><trkpt lat="43.1644317" lon="11.4758633"><ele>187.0</ele><time>2026-04-11T02:19:43.986Z</time></trkpt><trkpt lat="43.1644967" lon="11.4758967"><ele>187.0</ele><time>2026-04-11T02:19:44.986Z</time></trkpt><trkpt lat="43.1645633" lon="11.47592"><ele>187.0</ele><time>2026-04-11T02:19:45.986Z</time></trkpt><trkpt lat="43.16463" lon="11.47594"><ele>187.0</ele><time>2026-04-11T02:19:46.986Z</time></trkpt><trkpt lat="43.1646917" lon="11.4759583"><ele>187.0</ele><time>2026-04-11T02:19:47.986Z</time></trkpt><trkpt lat="43.1647533" lon="11.475985"><ele>187.0</ele><time>2026-04-11T02:19:48.986Z</time></trkpt><trkpt lat="43.164815" lon="11.4760083"><ele>187.0</ele><time>2026-04-11T02:19:49.986Z</time></trkpt><trkpt lat="43.164925" lon="11.4760467"><ele>187.0</ele><time>2026-04-11T02:19:51.986Z</time></trkpt><trkpt lat="43.1650233" lon="11.4760783"><ele>187.0</ele><time>2026-04-11T02:19:53.986Z</time></trkpt><trkpt lat="43.165115" lon="11.4761133"><ele>187.0</ele><time>2026-04-11T02:19:55.986Z</time></trkpt><trkpt lat="43.1652017" lon="11.476145"><ele>187.0</ele><time>2026-04-11T02:19:57.986Z</time></trkpt><trkpt lat="43.1652767" lon="11.4761767"><ele>187.0</ele><time>2026-04-11T02:19:59.986Z</time></trkpt><trkpt lat="43.1653533" lon="11.476225"><ele>187.0</ele><time>2026-04-11T02:20:01.986Z</time></trkpt><trkpt lat="43.1654167" lon="11.4762433"><ele>187.0</ele><time>2026-04-11T02:20:02.986Z</time></trkpt><trkpt lat="43.1655" lon="11.476305"><ele>186.39999999999998</ele><time>2026-04-11T02:20:04.986Z</time></trkpt><trkpt lat="43.1655983" lon="11.4763683"><ele>185.79999999999998</ele><time>2026-04-11T02:20:06.986Z</time></trkpt><trkpt lat="43.1656933" lon="11.4764517"><ele>185.2</ele><time>2026-04-11T02:20:08.986Z</time></trkpt><trkpt lat="43.1657917" lon="11.4765133"><ele>184.6</ele><time>2026-04-11T02:20:10.986Z</time></trkpt><trkpt lat="43.16588" lon="11.4765367"><ele>184.0</ele><time>2026-04-11T02:20:12.986Z</time></trkpt><trkpt lat="43.165945" lon="11.4765083"><ele>185.39999999999998</ele><time>2026-04-11T02:20:14.986Z</time></trkpt><trkpt lat="43.16604" lon="11.4764917"><ele>186.8</ele><time>2026-04-11T02:20:17.987Z</time></trkpt><trkpt lat="43.1661233" lon="11.4766"><ele>188.2</ele><time>2026-04-11T02:20:19.986Z</time></trkpt><trkpt lat="43.166195" lon="11.476655"><ele>189.60000000000002</ele><time>2026-04-11T02:20:21.986Z</time></trkpt><trkpt lat="43.1662933" lon="11.47675"><ele>191.0</ele><time>2026-04-11T02:20:23.986Z</time></trkpt><trkpt lat="43.1663433" lon="11.47681"><ele>191.0</ele><time>2026-04-11T02:20:24.986Z</time></trkpt><trkpt lat="43.1664283" lon="11.476915"><ele>191.0</ele><time>2026-04-11T02:20:26.986Z</time></trkpt><trkpt lat="43.1665083" lon="11.4770017"><ele>191.0</ele><time>2026-04-11T02:20:28.987Z</time></trkpt><trkpt lat="43.1665883" lon="11.477095"><ele>191.0</ele><time>2026-04-11T02:20:30.986Z</time></trkpt><trkpt lat="43.1666633" lon="11.477185"><ele>191.0</ele><time>2026-04-11T02:20:32.986Z</time></trkpt><trkpt lat="43.1667333" lon="11.4772583"><ele>191.4</ele><time>2026-04-11T02:20:34.987Z</time></trkpt><trkpt lat="43.1667933" lon="11.4773167"><ele>191.8</ele><time>2026-04-11T02:20:36.986Z</time></trkpt><trkpt lat="43.1668683" lon="11.4773983"><ele>192.20000000000002</ele><time>2026-04-11T02:20:38.986Z</time></trkpt><trkpt lat="43.1669483" lon="11.4775"><ele>192.60000000000002</ele><time>2026-04-11T02:20:40.986Z</time></trkpt><trkpt lat="43.1670417" lon="11.4775883"><ele>193.0</ele><time>2026-04-11T02:20:42.986Z</time></trkpt><trkpt lat="43.16714" lon="11.4776667"><ele>193.0</ele><time>2026-04-11T02:20:44.986Z</time></trkpt><trkpt lat="43.1672617" lon="11.4777233"><ele>193.0</ele><time>2026-04-11T02:20:46.986Z</time></trkpt><trkpt lat="43.167385" lon="11.4777367"><ele>193.0</ele><time>2026-04-11T02:20:48.986Z</time></trkpt><trkpt lat="43.1675033" lon="11.4777517"><ele>193.0</ele><time>2026-04-11T02:20:50.986Z</time></trkpt><trkpt lat="43.1676167" lon="11.4777617"><ele>193.16666666666666</ele><time>2026-04-11T02:20:52.987Z</time></trkpt><trkpt lat="43.16771" lon="11.477765"><ele>193.33333333333331</ele><time>2026-04-11T02:20:54.986Z</time></trkpt><trkpt lat="43.1678067" lon="11.4777733"><ele>193.5</ele><time>2026-04-11T02:20:56.986Z</time></trkpt><trkpt lat="43.167885" lon="11.4777767"><ele>193.66666666666669</ele><time>2026-04-11T02:20:58.986Z</time></trkpt><trkpt lat="43.1679567" lon="11.4777733"><ele>193.83333333333334</ele><time>2026-04-11T02:21:00.986Z</time></trkpt><trkpt lat="43.16803" lon="11.477775"><ele>194.0</ele><time>2026-04-11T02:21:02.986Z</time></trkpt><trkpt lat="43.1681217" lon="11.477785"><ele>194.39999999999998</ele><time>2026-04-11T02:21:04.986Z</time></trkpt><trkpt lat="43.1682117" lon="11.4777817"><ele>194.8</ele><time>2026-04-11T02:21:06.986Z</time></trkpt><trkpt lat="43.168315" lon="11.4777867"><ele>195.2</ele><time>2026-04-11T02:21:08.986Z</time></trkpt><trkpt lat="43.1684233" lon="11.477805"><ele>195.60000000000002</ele><time>2026-04-11T02:21:10.986Z</time></trkpt><trkpt lat="43.1685133" lon="11.4778383"><ele>196.0</ele><time>2026-04-11T02:21:12.986Z</time></trkpt><trkpt lat="43.168615" lon="11.4778683"><ele>196.0</ele><time>2026-04-11T02:21:14.986Z</time></trkpt><trkpt lat="43.168725" lon="11.477905"><ele>196.0</ele><time>2026-04-11T02:21:16.986Z</time></trkpt><trkpt lat="43.1688233" lon="11.4779267"><ele>196.0</ele><time>2026-04-11T02:21:18.986Z</time></trkpt><trkpt lat="43.1689167" lon="11.47795"><ele>196.0</ele><time>2026-04-11T02:21:20.986Z</time></trkpt><trkpt lat="43.169015" lon="11.477975"><ele>196.0</ele><time>2026-04-11T02:21:22.986Z</time></trkpt><trkpt lat="43.1691" lon="11.4780117"><ele>195.99999999999997</ele><time>2026-04-11T02:21:24.986Z</time></trkpt><trkpt lat="43.1691917" lon="11.47805"><ele>196.0</ele><time>2026-04-11T02:21:26.986Z</time></trkpt><trkpt lat="43.169265" lon="11.4781067"><ele>196.0</ele><time>2026-04-11T02:21:28.986Z</time></trkpt><trkpt lat="43.16934" lon="11.47817"><ele>196.0</ele><time>2026-04-11T02:21:30.986Z</time></trkpt><trkpt lat="43.1694017" lon="11.4782483"><ele>195.99999999999997</ele><time>2026-04-11T02:21:32.986Z</time></trkpt><trkpt lat="43.1694517" lon="11.4783333"><ele>196.0</ele><time>2026-04-11T02:21:34.986Z</time></trkpt><trkpt lat="43.1695067" lon="11.4784317"><ele>196.0</ele><time>2026-04-11T02:21:36.986Z</time></trkpt><trkpt lat="43.1695633" lon="11.4785517"><ele>196.0</ele><time>2026-04-11T02:21:38.986Z</time></trkpt><trkpt lat="43.1696183" lon="11.4786583"><ele>196.0</ele><time>2026-04-11T02:21:40.986Z</time></trkpt><trkpt lat="43.1696733" lon="11.4787767"><ele>196.0</ele><time>2026-04-11T02:21:42.986Z</time></trkpt><trkpt lat="43.16972" lon="11.478885"><ele>196.0</ele><time>2026-04-11T02:21:44.986Z</time></trkpt><trkpt lat="43.1697717" lon="11.4789917"><ele>197.0</ele><time>2026-04-11T02:21:46.986Z</time></trkpt><trkpt lat="43.1698333" lon="11.4790967"><ele>198.0</ele><time>2026-04-11T02:21:48.987Z</time></trkpt><trkpt lat="43.1698917" lon="11.4791883"><ele>199.0</ele><time>2026-04-11T02:21:50.987Z</time></trkpt><trkpt lat="43.1699633" lon="11.4792633"><ele>200.0</ele><time>2026-04-11T02:21:52.986Z</time></trkpt><trkpt lat="43.1700467" lon="11.4793183"><ele>201.0</ele><time>2026-04-11T02:21:54.986Z</time></trkpt><trkpt lat="43.1701333" lon="11.4793667"><ele>201.0</ele><time>2026-04-11T02:21:56.986Z</time></trkpt><trkpt lat="43.1702117" lon="11.4794133"><ele>201.0</ele><time>2026-04-11T02:21:58.987Z</time></trkpt><trkpt lat="43.17029" lon="11.47944"><ele>201.0</ele><time>2026-04-11T02:22:00.986Z</time></trkpt><trkpt lat="43.1703767" lon="11.4794683"><ele>201.0</ele><time>2026-04-11T02:22:02.986Z</time></trkpt><trkpt lat="43.1704583" lon="11.4794933"><ele>201.0</ele><time>2026-04-11T02:22:04.986Z</time></trkpt><trkpt lat="43.17054" lon="11.4795167"><ele>201.0</ele><time>2026-04-11T02:22:06.986Z</time></trkpt><trkpt lat="43.1706217" lon="11.4795533"><ele>201.4</ele><time>2026-04-11T02:22:08.986Z</time></trkpt><trkpt lat="43.1707067" lon="11.4795933"><ele>201.8</ele><time>2026-04-11T02:22:10.986Z</time></trkpt><trkpt lat="43.1707783" lon="11.4796633"><ele>202.20000000000002</ele><time>2026-04-11T02:22:12.986Z</time></trkpt><trkpt lat="43.17085" lon="11.4797583"><ele>202.60000000000002</ele><time>2026-04-11T02:22:14.986Z</time></trkpt><trkpt lat="43.1709017" lon="11.4798433"><ele>203.0</ele><time>2026-04-11T02:22:16.987Z</time></trkpt><trkpt lat="43.1709467" lon="11.479965"><ele>203.0</ele><time>2026-04-11T02:22:18.986Z</time></trkpt><trkpt lat="43.17099" lon="11.4801033"><ele>203.0</ele><time>2026-04-11T02:22:20.987Z</time></trkpt><trkpt lat="43.171025" lon="11.48023"><ele>203.0</ele><time>2026-04-11T02:22:22.986Z</time></trkpt><trkpt lat="43.17106" lon="11.4803767"><ele>203.0</ele><time>2026-04-11T02:22:24.987Z</time></trkpt><trkpt lat="43.1710817" lon="11.48051"><ele>203.0</ele><time>2026-04-11T02:22:26.986Z</time></trkpt><trkpt lat="43.1711117" lon="11.4806367"><ele>203.0</ele><time>2026-04-11T02:22:28.986Z</time></trkpt><trkpt lat="43.17114" lon="11.480785"><ele>203.0</ele><time>2026-04-11T02:22:30.986Z</time></trkpt><trkpt lat="43.1711667" lon="11.4809267"><ele>203.0</ele><time>2026-04-11T02:22:32.986Z</time></trkpt><trkpt lat="43.1711867" lon="11.4810517"><ele>203.0</ele><time>2026-04-11T02:22:34.986Z</time></trkpt><trkpt lat="43.1712067" lon="11.48116"><ele>203.0</ele><time>2026-04-11T02:22:36.986Z</time></trkpt><trkpt lat="43.1712283" lon="11.4812717"><ele>203.00000000000003</ele><time>2026-04-11T02:22:38.986Z</time></trkpt><trkpt lat="43.17125" lon="11.4813633"><ele>203.0</ele><time>2026-04-11T02:22:40.986Z</time></trkpt><trkpt lat="43.1712717" lon="11.48146"><ele>203.0</ele><time>2026-04-11T02:22:42.986Z</time></trkpt><trkpt lat="43.1712833" lon="11.48156"><ele>203.0</ele><time>2026-04-11T02:22:44.986Z</time></trkpt><trkpt lat="43.1712967" lon="11.4816567"><ele>203.00000000000003</ele><time>2026-04-11T02:22:46.986Z</time></trkpt><trkpt lat="43.17131" lon="11.48178"><ele>203.0</ele><time>2026-04-11T02:22:49.987Z</time></trkpt><trkpt lat="43.1713217" lon="11.4819017"><ele>203.00000000000003</ele><time>2026-04-11T02:22:52.986Z</time></trkpt><trkpt lat="43.1713433" lon="11.481985"><ele>203.0</ele><time>2026-04-11T02:22:54.986Z</time></trkpt><trkpt lat="43.171375" lon="11.48209"><ele>203.0</ele><time>2026-04-11T02:22:57.987Z</time></trkpt><trkpt lat="43.1714083" lon="11.4821883"><ele>203.0</ele><time>2026-04-11T02:23:00.986Z</time></trkpt><trkpt lat="43.1714467" lon="11.4822583"><ele>203.00000000000003</ele><time>2026-04-11T02:23:02.986Z</time></trkpt><trkpt lat="43.1714933" lon="11.4823583"><ele>203.0</ele><time>2026-04-11T02:23:05.986Z</time></trkpt><trkpt lat="43.17154" lon="11.4824683"><ele>204.33333333333334</ele><time>2026-04-11T02:23:08.986Z</time></trkpt><trkpt lat="43.1715783" lon="11.48256"><ele>205.66666666666669</ele><time>2026-04-11T02:23:10.986Z</time></trkpt><trkpt lat="43.171625" lon="11.482635"><ele>207.0</ele><time>2026-04-11T02:23:12.986Z</time></trkpt><trkpt lat="43.1716667" lon="11.482735"><ele>208.33333333333331</ele><time>2026-04-11T02:23:14.987Z</time></trkpt><trkpt lat="43.171705" lon="11.482835"><ele>209.66666666666666</ele><time>2026-04-11T02:23:16.986Z</time></trkpt><trkpt lat="43.1717517" lon="11.48291"><ele>211.0</ele><time>2026-04-11T02:23:18.986Z</time></trkpt><trkpt lat="43.1718" lon="11.4829717"><ele>210.99999999999997</ele><time>2026-04-11T02:23:20.986Z</time></trkpt><trkpt lat="43.17186" lon="11.48305"><ele>211.0</ele><time>2026-04-11T02:23:22.987Z</time></trkpt><trkpt lat="43.1719217" lon="11.48312"><ele>211.0</ele><time>2026-04-11T02:23:24.986Z</time></trkpt><trkpt lat="43.171975" lon="11.4831733"><ele>211.0</ele><time>2026-04-11T02:23:26.986Z</time></trkpt><trkpt lat="43.1720467" lon="11.48325"><ele>210.99999999999997</ele><time>2026-04-11T02:23:28.986Z</time></trkpt><trkpt lat="43.1721" lon="11.483305"><ele>211.0</ele><time>2026-04-11T02:23:30.986Z</time></trkpt><trkpt lat="43.17216" lon="11.4833783"><ele>210.99999999999997</ele><time>2026-04-11T02:23:32.986Z</time></trkpt><trkpt lat="43.1722217" lon="11.4834483"><ele>211.0</ele><time>2026-04-11T02:23:34.987Z</time></trkpt><trkpt lat="43.1722833" lon="11.48352"><ele>211.0</ele><time>2026-04-11T02:23:36.986Z</time></trkpt><trkpt lat="43.1723283" lon="11.4835833"><ele>211.0</ele><time>2026-04-11T02:23:38.986Z</time></trkpt><trkpt lat="43.1723783" lon="11.4836417"><ele>210.99999999999997</ele><time>2026-04-11T02:23:40.986Z</time></trkpt><trkpt lat="43.1724583" lon="11.4836983"><ele>211.0</ele><time>2026-04-11T02:23:43.986Z</time></trkpt><trkpt lat="43.1725367" lon="11.4837417"><ele>213.33333333333331</ele><time>2026-04-11T02:23:46.986Z</time></trkpt><trkpt lat="43.1726033" lon="11.4837817"><ele>215.66666666666666</ele><time>2026-04-11T02:23:49.986Z</time></trkpt><trkpt lat="43.1726867" lon="11.4838167"><ele>218.0</ele><time>2026-04-11T02:23:52.986Z</time></trkpt><trkpt lat="43.1727667" lon="11.4838533"><ele>220.33333333333331</ele><time>2026-04-11T02:23:55.986Z</time></trkpt><trkpt lat="43.1728533" lon="11.4838883"><ele>222.66666666666666</ele><time>2026-04-11T02:23:58.986Z</time></trkpt><trkpt lat="43.17293" lon="11.4839067"><ele>225.0</ele><time>2026-04-11T02:24:02.986Z</time></trkpt><trkpt lat="43.173005" lon="11.4839217"><ele>225.00000000000003</ele><time>2026-04-11T02:24:05.986Z</time></trkpt><trkpt lat="43.1730817" lon="11.48395"><ele>225.0</ele><time>2026-04-11T02:24:08.986Z</time></trkpt><trkpt lat="43.17316" lon="11.48396"><ele>225.00000000000003</ele><time>2026-04-11T02:24:11.986Z</time></trkpt><trkpt lat="43.1732233" lon="11.48399"><ele>225.00000000000003</ele><time>2026-04-11T02:24:13.986Z</time></trkpt><trkpt lat="43.1732917" lon="11.4840167"><ele>225.0</ele><time>2026-04-11T02:24:15.986Z</time></trkpt><trkpt lat="43.1733583" lon="11.4840167"><ele>225.00000000000003</ele><time>2026-04-11T02:24:17.986Z</time></trkpt><trkpt lat="43.1734433" lon="11.48403"><ele>225.00000000000003</ele><time>2026-04-11T02:24:19.987Z</time></trkpt><trkpt lat="43.173525" lon="11.4840283"><ele>225.66666666666666</ele><time>2026-04-11T02:24:21.986Z</time></trkpt><trkpt lat="43.17359" lon="11.4840383"><ele>226.33333333333331</ele><time>2026-04-11T02:24:23.986Z</time></trkpt><trkpt lat="43.1736667" lon="11.48408"><ele>227.0</ele><time>2026-04-11T02:24:26.987Z</time></trkpt><trkpt lat="43.17375" lon="11.4841083"><ele>227.66666666666666</ele><time>2026-04-11T02:24:30.986Z</time></trkpt><trkpt lat="43.1738367" lon="11.48412"><ele>228.33333333333331</ele><time>2026-04-11T02:24:33.986Z</time></trkpt><trkpt lat="43.173955" lon="11.4841017"><ele>229.0</ele><time>2026-04-11T02:24:35.986Z</time></trkpt><trkpt lat="43.1740283" lon="11.4840933"><ele>229.0</ele><time>2026-04-11T02:24:37.986Z</time></trkpt><trkpt lat="43.174115" lon="11.4840833"><ele>228.99999999999997</ele><time>2026-04-11T02:24:39.986Z</time></trkpt><trkpt lat="43.1742067" lon="11.484095"><ele>228.99999999999997</ele><time>2026-04-11T02:24:42.987Z</time></trkpt><trkpt lat="43.174275" lon="11.4841383"><ele>229.0</ele><time>2026-04-11T02:24:44.986Z</time></trkpt><trkpt lat="43.1743567" lon="11.4841833"><ele>229.0</ele><time>2026-04-11T02:24:46.987Z</time></trkpt><trkpt lat="43.1744617" lon="11.484255"><ele>229.0</ele><time>2026-04-11T02:24:48.987Z</time></trkpt><trkpt lat="43.1745567" lon="11.4843133"><ele>228.99999999999997</ele><time>2026-04-11T02:24:50.987Z</time></trkpt><trkpt lat="43.1746467" lon="11.4843583"><ele>228.99999999999997</ele><time>2026-04-11T02:24:52.988Z</time></trkpt><trkpt lat="43.1747433" lon="11.48441"><ele>229.0</ele><time>2026-04-11T02:24:54.988Z</time></trkpt><trkpt lat="43.1748433" lon="11.484485"><ele>229.0</ele><time>2026-04-11T02:24:56.987Z</time></trkpt><trkpt lat="43.1749067" lon="11.48453"><ele>228.99999999999997</ele><time>2026-04-11T02:24:57.987Z</time></trkpt><trkpt lat="43.1750033" lon="11.4845933"><ele>229.0</ele><time>2026-04-11T02:24:59.987Z</time></trkpt><trkpt lat="43.1750817" lon="11.4846583"><ele>229.0</ele><time>2026-04-11T02:25:01.987Z</time></trkpt><trkpt lat="43.17516" lon="11.484725"><ele>229.0</ele><time>2026-04-11T02:25:03.988Z</time></trkpt><trkpt lat="43.1752317" lon="11.4847817"><ele>228.99999999999997</ele><time>2026-04-11T02:25:05.987Z</time></trkpt><trkpt lat="43.17529" lon="11.4848217"><ele>229.0</ele><time>2026-04-11T02:25:07.987Z</time></trkpt><trkpt lat="43.1753567" lon="11.4848633"><ele>228.99999999999997</ele><time>2026-04-11T02:25:09.987Z</time></trkpt><trkpt lat="43.1754317" lon="11.4848667"><ele>229.0</ele><time>2026-04-11T02:25:12.987Z</time></trkpt><trkpt lat="43.1754883" lon="11.4848217"><ele>229.0</ele><time>2026-04-11T02:25:14.987Z</time></trkpt><trkpt lat="43.1755533" lon="11.4847167"><ele>229.0</ele><time>2026-04-11T02:25:16.987Z</time></trkpt><trkpt lat="43.175605" lon="11.4846433"><ele>228.99999999999997</ele><time>2026-04-11T02:25:17.987Z</time></trkpt><trkpt lat="43.1756517" lon="11.4845733"><ele>229.0</ele><time>2026-04-11T02:25:18.987Z</time></trkpt><trkpt lat="43.1757233" lon="11.4844467"><ele>228.99999999999997</ele><time>2026-04-11T02:25:20.987Z</time></trkpt><trkpt lat="43.17578" lon="11.4842983"><ele>229.0</ele><time>2026-04-11T02:25:22.987Z</time></trkpt><trkpt lat="43.1758033" lon="11.4842133"><ele>229.0</ele><time>2026-04-11T02:25:23.987Z</time></trkpt><trkpt lat="43.1758183" lon="11.4841283"><ele>229.0</ele><time>2026-04-11T02:25:24.988Z</time></trkpt><trkpt lat="43.1758317" lon="11.4840433"><ele>228.99999999999997</ele><time>2026-04-11T02:25:25.987Z</time></trkpt><trkpt lat="43.1758333" lon="11.4839383"><ele>229.0</ele><time>2026-04-11T02:25:26.987Z</time></trkpt><trkpt lat="43.1758333" lon="11.4838333"><ele>227.85714285714286</ele><time>2026-04-11T02:25:27.987Z</time></trkpt><trkpt lat="43.1758217" lon="11.4837317"><ele>226.71428571428572</ele><time>2026-04-11T02:25:28.987Z</time></trkpt><trkpt lat="43.175815" lon="11.4836117"><ele>225.57142857142858</ele><time>2026-04-11T02:25:29.987Z</time></trkpt><trkpt lat="43.1758033" lon="11.48351"><ele>224.42857142857144</ele><time>2026-04-11T02:25:30.988Z</time></trkpt><trkpt lat="43.1757967" lon="11.4834083"><ele>223.28571428571428</ele><time>2026-04-11T02:25:31.987Z</time></trkpt><trkpt lat="43.1757883" lon="11.48332"><ele>222.14285714285717</ele><time>2026-04-11T02:25:32.987Z</time></trkpt><trkpt lat="43.175785" lon="11.4832217"><ele>221.0</ele><time>2026-04-11T02:25:33.987Z</time></trkpt><trkpt lat="43.17578" lon="11.48313"><ele>221.0</ele><time>2026-04-11T02:25:34.987Z</time></trkpt><trkpt lat="43.1757667" lon="11.4830383"><ele>221.00000000000003</ele><time>2026-04-11T02:25:35.987Z</time></trkpt><trkpt lat="43.1757467" lon="11.4828867"><ele>221.00000000000003</ele><time>2026-04-11T02:25:37.987Z</time></trkpt><trkpt lat="43.1757067" lon="11.4827967"><ele>221.0</ele><time>2026-04-11T02:25:39.988Z</time></trkpt><trkpt lat="43.1756583" lon="11.48269"><ele>221.0</ele><time>2026-04-11T02:25:41.987Z</time></trkpt><trkpt lat="43.175625" lon="11.4825083"><ele>218.20000000000002</ele><time>2026-04-11T02:25:43.987Z</time></trkpt><trkpt lat="43.175625" lon="11.4823917"><ele>215.40000000000003</ele><time>2026-04-11T02:25:44.987Z</time></trkpt><trkpt lat="43.1756367" lon="11.4822783"><ele>212.6</ele><time>2026-04-11T02:25:45.987Z</time></trkpt><trkpt lat="43.1756567" lon="11.4821567"><ele>209.8</ele><time>2026-04-11T02:25:46.988Z</time></trkpt><trkpt lat="43.17568" lon="11.4820283"><ele>207.0</ele><time>2026-04-11T02:25:47.987Z</time></trkpt><trkpt lat="43.1757217" lon="11.4819017"><ele>207.0</ele><time>2026-04-11T02:25:48.987Z</time></trkpt><trkpt lat="43.17576" lon="11.48179"><ele>207.0</ele><time>2026-04-11T02:25:49.987Z</time></trkpt><trkpt lat="43.1758133" lon="11.48169"><ele>207.0</ele><time>2026-04-11T02:25:50.988Z</time></trkpt><trkpt lat="43.17588" lon="11.4816133"><ele>207.0</ele><time>2026-04-11T02:25:51.987Z</time></trkpt><trkpt lat="43.1759483" lon="11.4815433"><ele>207.0</ele><time>2026-04-11T02:25:52.987Z</time></trkpt><trkpt lat="43.176005" lon="11.4814767"><ele>207.0</ele><time>2026-04-11T02:25:53.987Z</time></trkpt><trkpt lat="43.1760533" lon="11.4814017"><ele>207.0</ele><time>2026-04-11T02:25:54.987Z</time></trkpt><trkpt lat="43.176095" lon="11.4812967"><ele>207.0</ele><time>2026-04-11T02:25:55.987Z</time></trkpt><trkpt lat="43.1761217" lon="11.48118"><ele>207.0</ele><time>2026-04-11T02:25:56.987Z</time></trkpt><trkpt lat="43.17614" lon="11.481055"><ele>207.0</ele><time>2026-04-11T02:25:57.988Z</time></trkpt><trkpt lat="43.17615" lon="11.48093"><ele>207.0</ele><time>2026-04-11T02:25:58.987Z</time></trkpt><trkpt lat="43.176165" lon="11.4808083"><ele>205.5</ele><time>2026-04-11T02:25:59.988Z</time></trkpt><trkpt lat="43.17618" lon="11.480685"><ele>204.0</ele><time>2026-04-11T02:26:00.988Z</time></trkpt><trkpt lat="43.1761983" lon="11.4805633"><ele>202.5</ele><time>2026-04-11T02:26:01.987Z</time></trkpt><trkpt lat="43.1762083" lon="11.4804433"><ele>201.0</ele><time>2026-04-11T02:26:02.988Z</time></trkpt><trkpt lat="43.17622" lon="11.4803433"><ele>199.5</ele><time>2026-04-11T02:26:03.987Z</time></trkpt><trkpt lat="43.1762433" lon="11.4802517"><ele>198.0</ele><time>2026-04-11T02:26:04.987Z</time></trkpt><trkpt lat="43.176275" lon="11.4801567"><ele>197.5</ele><time>2026-04-11T02:26:05.987Z</time></trkpt><trkpt lat="43.176325" lon="11.4800767"><ele>197.0</ele><time>2026-04-11T02:26:06.987Z</time></trkpt><trkpt lat="43.1763817" lon="11.4799983"><ele>196.5</ele><time>2026-04-11T02:26:07.987Z</time></trkpt><trkpt lat="43.1764383" lon="11.47992"><ele>196.0</ele><time>2026-04-11T02:26:08.988Z</time></trkpt><trkpt lat="43.1765" lon="11.4798367"><ele>195.5</ele><time>2026-04-11T02:26:09.987Z</time></trkpt><trkpt lat="43.1765617" lon="11.4797433"><ele>195.0</ele><time>2026-04-11T02:26:10.987Z</time></trkpt><trkpt lat="43.17662" lon="11.4796467"><ele>193.4</ele><time>2026-04-11T02:26:11.988Z</time></trkpt><trkpt lat="43.1766667" lon="11.4795367"><ele>191.8</ele><time>2026-04-11T02:26:12.987Z</time></trkpt><trkpt lat="43.1766967" lon="11.47943"><ele>190.2</ele><time>2026-04-11T02:26:13.987Z</time></trkpt><trkpt lat="43.17671" lon="11.47931"><ele>188.6</ele><time>2026-04-11T02:26:14.988Z</time></trkpt><trkpt lat="43.176715" lon="11.47918"><ele>187.0</ele><time>2026-04-11T02:26:15.988Z</time></trkpt><trkpt lat="43.1767167" lon="11.4790533"><ele>187.0</ele><time>2026-04-11T02:26:16.987Z</time></trkpt><trkpt lat="43.1767083" lon="11.4789333"><ele>187.0</ele><time>2026-04-11T02:26:17.987Z</time></trkpt><trkpt lat="43.176695" lon="11.478815"><ele>187.0</ele><time>2026-04-11T02:26:18.987Z</time></trkpt><trkpt lat="43.1766867" lon="11.4786983"><ele>187.0</ele><time>2026-04-11T02:26:19.988Z</time></trkpt><trkpt lat="43.1766767" lon="11.47858"><ele>187.0</ele><time>2026-04-11T02:26:20.987Z</time></trkpt><trkpt lat="43.1766767" lon="11.47846"><ele>187.0</ele><time>2026-04-11T02:26:21.987Z</time></trkpt><trkpt lat="43.17668" lon="11.4783417"><ele>185.66666666666669</ele><time>2026-04-11T02:26:22.987Z</time></trkpt><trkpt lat="43.1766933" lon="11.478225"><ele>184.33333333333334</ele><time>2026-04-11T02:26:23.987Z</time></trkpt><trkpt lat="43.1767133" lon="11.4781117"><ele>183.0</ele><time>2026-04-11T02:26:24.987Z</time></trkpt><trkpt lat="43.1767333" lon="11.4779917"><ele>181.66666666666666</ele><time>2026-04-11T02:26:25.987Z</time></trkpt><trkpt lat="43.1767467" lon="11.4778867"><ele>180.33333333333331</ele><time>2026-04-11T02:26:26.987Z</time></trkpt><trkpt lat="43.176765" lon="11.4777883"><ele>179.0</ele><time>2026-04-11T02:26:27.987Z</time></trkpt><trkpt lat="43.176795" lon="11.477705"><ele>177.33333333333331</ele><time>2026-04-11T02:26:28.987Z</time></trkpt><trkpt lat="43.1768383" lon="11.4776383"><ele>175.66666666666666</ele><time>2026-04-11T02:26:29.987Z</time></trkpt><trkpt lat="43.1769033" lon="11.4775833"><ele>174.0</ele><time>2026-04-11T02:26:30.988Z</time></trkpt><trkpt lat="43.1769733" lon="11.477535"><ele>172.33333333333334</ele><time>2026-04-11T02:26:31.988Z</time></trkpt><trkpt lat="43.1770633" lon="11.4775033"><ele>170.66666666666669</ele><time>2026-04-11T02:26:32.987Z</time></trkpt><trkpt lat="43.177155" lon="11.47748"><ele>169.0</ele><time>2026-04-11T02:26:33.987Z</time></trkpt><trkpt lat="43.17726" lon="11.4774667"><ele>167.39999999999998</ele><time>2026-04-11T02:26:34.987Z</time></trkpt><trkpt lat="43.1773667" lon="11.4774567"><ele>165.8</ele><time>2026-04-11T02:26:35.987Z</time></trkpt><trkpt lat="43.1774717" lon="11.4774367"><ele>164.2</ele><time>2026-04-11T02:26:36.987Z</time></trkpt><trkpt lat="43.1775817" lon="11.4774167"><ele>162.60000000000002</ele><time>2026-04-11T02:26:37.987Z</time></trkpt><trkpt lat="43.1776917" lon="11.4774017"><ele>161.0</ele><time>2026-04-11T02:26:38.987Z</time></trkpt><trkpt lat="43.177805" lon="11.4773833"><ele>161.0</ele><time>2026-04-11T02:26:39.987Z</time></trkpt><trkpt lat="43.177915" lon="11.477375"><ele>161.0</ele><time>2026-04-11T02:26:40.988Z</time></trkpt><trkpt lat="43.17802" lon="11.4773617"><ele>161.0</ele><time>2026-04-11T02:26:41.987Z</time></trkpt><trkpt lat="43.1781233" lon="11.4773433"><ele>161.0</ele><time>2026-04-11T02:26:42.988Z</time></trkpt><trkpt lat="43.1782317" lon="11.47732"><ele>161.0</ele><time>2026-04-11T02:26:43.987Z</time></trkpt><trkpt lat="43.1783433" lon="11.4773"><ele>160.20000000000002</ele><time>2026-04-11T02:26:44.987Z</time></trkpt><trkpt lat="43.178445" lon="11.4772767"><ele>159.4</ele><time>2026-04-11T02:26:45.987Z</time></trkpt><trkpt lat="43.17855" lon="11.4772583"><ele>158.6</ele><time>2026-04-11T02:26:46.987Z</time></trkpt><trkpt lat="43.1786517" lon="11.4772283"><ele>157.8</ele><time>2026-04-11T02:26:47.987Z</time></trkpt><trkpt lat="43.17875" lon="11.4771967"><ele>157.0</ele><time>2026-04-11T02:26:48.987Z</time></trkpt><trkpt lat="43.1788583" lon="11.47718"><ele>157.0</ele><time>2026-04-11T02:26:49.987Z</time></trkpt><trkpt lat="43.1789583" lon="11.47715"><ele>157.0</ele><time>2026-04-11T02:26:50.987Z</time></trkpt><trkpt lat="43.1790583" lon="11.477115"><ele>157.0</ele><time>2026-04-11T02:26:51.987Z</time></trkpt><trkpt lat="43.1791533" lon="11.4770883"><ele>157.0</ele><time>2026-04-11T02:26:52.987Z</time></trkpt><trkpt lat="43.1792467" lon="11.4770717"><ele>157.0</ele><time>2026-04-11T02:26:53.987Z</time></trkpt><trkpt lat="43.179345" lon="11.4770667"><ele>156.66666666666669</ele><time>2026-04-11T02:26:54.987Z</time></trkpt><trkpt lat="43.1794367" lon="11.4770683"><ele>156.33333333333334</ele><time>2026-04-11T02:26:55.987Z</time></trkpt><trkpt lat="43.179525" lon="11.477075"><ele>156.0</ele><time>2026-04-11T02:26:56.987Z</time></trkpt><trkpt lat="43.1796033" lon="11.4770933"><ele>155.66666666666666</ele><time>2026-04-11T02:26:57.987Z</time></trkpt><trkpt lat="43.1796733" lon="11.477115"><ele>155.33333333333331</ele><time>2026-04-11T02:26:58.987Z</time></trkpt><trkpt lat="43.1797433" lon="11.4771383"><ele>155.0</ele><time>2026-04-11T02:26:59.987Z</time></trkpt><trkpt lat="43.1798117" lon="11.4771617"><ele>155.0</ele><time>2026-04-11T02:27:00.987Z</time></trkpt><trkpt lat="43.1798783" lon="11.4771833"><ele>155.0</ele><time>2026-04-11T02:27:01.987Z</time></trkpt><trkpt lat="43.1799433" lon="11.4772017"><ele>155.0</ele><time>2026-04-11T02:27:02.987Z</time></trkpt><trkpt lat="43.1800083" lon="11.47722"><ele>155.0</ele><time>2026-04-11T02:27:03.987Z</time></trkpt><trkpt lat="43.1800717" lon="11.4772383"><ele>155.0</ele><time>2026-04-11T02:27:04.987Z</time></trkpt><trkpt lat="43.180135" lon="11.477255"><ele>155.0</ele><time>2026-04-11T02:27:05.987Z</time></trkpt><trkpt lat="43.1802517" lon="11.4772867"><ele>155.0</ele><time>2026-04-11T02:27:07.988Z</time></trkpt><trkpt lat="43.18037" lon="11.4773217"><ele>155.0</ele><time>2026-04-11T02:27:09.987Z</time></trkpt><trkpt lat="43.1804883" lon="11.4773517"><ele>155.0</ele><time>2026-04-11T02:27:11.987Z</time></trkpt><trkpt lat="43.180555" lon="11.4773667"><ele>155.0</ele><time>2026-04-11T02:27:12.987Z</time></trkpt><trkpt lat="43.18062" lon="11.4773883"><ele>155.0</ele><time>2026-04-11T02:27:13.987Z</time></trkpt><trkpt lat="43.1806833" lon="11.4774033"><ele>155.0</ele><time>2026-04-11T02:27:14.987Z</time></trkpt><trkpt lat="43.1807983" lon="11.477425"><ele>155.0</ele><time>2026-04-11T02:27:16.987Z</time></trkpt><trkpt lat="43.18091" lon="11.4774567"><ele>155.2</ele><time>2026-04-11T02:27:18.987Z</time></trkpt><trkpt lat="43.18103" lon="11.477485"><ele>155.4</ele><time>2026-04-11T02:27:20.987Z</time></trkpt><trkpt lat="43.18115" lon="11.4775233"><ele>155.6</ele><time>2026-04-11T02:27:22.987Z</time></trkpt><trkpt lat="43.1812683" lon="11.477535"><ele>155.8</ele><time>2026-04-11T02:27:24.987Z</time></trkpt><trkpt lat="43.1813317" lon="11.4775483"><ele>156.0</ele><time>2026-04-11T02:27:25.987Z</time></trkpt><trkpt lat="43.1814333" lon="11.477585"><ele>156.0</ele><time>2026-04-11T02:27:27.987Z</time></trkpt><trkpt lat="43.1815483" lon="11.4776117"><ele>156.0</ele><time>2026-04-11T02:27:29.987Z</time></trkpt><trkpt lat="43.1816683" lon="11.4776433"><ele>156.0</ele><time>2026-04-11T02:27:31.987Z</time></trkpt><trkpt lat="43.1817833" lon="11.477685"><ele>156.0</ele><time>2026-04-11T02:27:33.987Z</time></trkpt><trkpt lat="43.1819017" lon="11.477725"><ele>156.0</ele><time>2026-04-11T02:27:35.988Z</time></trkpt><trkpt lat="43.18202" lon="11.477755"><ele>156.0</ele><time>2026-04-11T02:27:37.987Z</time></trkpt><trkpt lat="43.1821417" lon="11.47779"><ele>156.0</ele><time>2026-04-11T02:27:39.987Z</time></trkpt><trkpt lat="43.1822617" lon="11.4778317"><ele>156.0</ele><time>2026-04-11T02:27:41.988Z</time></trkpt><trkpt lat="43.1823883" lon="11.477825"><ele>155.85714285714286</ele><time>2026-04-11T02:27:43.987Z</time></trkpt><trkpt lat="43.1824517" lon="11.4778"><ele>155.7142857142857</ele><time>2026-04-11T02:27:44.987Z</time></trkpt><trkpt lat="43.1825117" lon="11.4777583"><ele>155.57142857142856</ele><time>2026-04-11T02:27:45.987Z</time></trkpt><trkpt lat="43.1825733" lon="11.4777067"><ele>155.42857142857144</ele><time>2026-04-11T02:27:46.988Z</time></trkpt><trkpt lat="43.182635" lon="11.477665"><ele>155.28571428571428</ele><time>2026-04-11T02:27:47.987Z</time></trkpt><trkpt lat="43.18269" lon="11.4776183"><ele>155.14285714285714</ele><time>2026-04-11T02:27:48.987Z</time></trkpt><trkpt lat="43.1827483" lon="11.4775633"><ele>155.0</ele><time>2026-04-11T02:27:49.988Z</time></trkpt><trkpt lat="43.1828017" lon="11.4775117"><ele>155.0</ele><time>2026-04-11T02:27:50.987Z</time></trkpt><trkpt lat="43.182855" lon="11.4774567"><ele>155.0</ele><time>2026-04-11T02:27:51.987Z</time></trkpt><trkpt lat="43.18291" lon="11.4774017"><ele>155.0</ele><time>2026-04-11T02:27:52.987Z</time></trkpt><trkpt lat="43.183015" lon="11.47731"><ele>155.0</ele><time>2026-04-11T02:27:54.987Z</time></trkpt><trkpt lat="43.1830683" lon="11.47726"><ele>155.0</ele><time>2026-04-11T02:27:55.987Z</time></trkpt><trkpt lat="43.1831217" lon="11.47721"><ele>155.0</ele><time>2026-04-11T02:27:56.987Z</time></trkpt><trkpt lat="43.1831817" lon="11.4771617"><ele>154.83333333333331</ele><time>2026-04-11T02:27:57.987Z</time></trkpt><trkpt lat="43.18324" lon="11.477115"><ele>154.66666666666666</ele><time>2026-04-11T02:27:58.987Z</time></trkpt><trkpt lat="43.1833017" lon="11.47706"><ele>154.5</ele><time>2026-04-11T02:27:59.987Z</time></trkpt><trkpt lat="43.1833583" lon="11.4770117"><ele>154.33333333333334</ele><time>2026-04-11T02:28:00.987Z</time></trkpt><trkpt lat="43.18342" lon="11.4769633"><ele>154.16666666666669</ele><time>2026-04-11T02:28:01.987Z</time></trkpt><trkpt lat="43.18348" lon="11.4769167"><ele>154.0</ele><time>2026-04-11T02:28:02.987Z</time></trkpt><trkpt lat="43.1835883" lon="11.4768367"><ele>153.8</ele><time>2026-04-11T02:28:04.988Z</time></trkpt><trkpt lat="43.1836433" lon="11.4767817"><ele>153.60000000000002</ele><time>2026-04-11T02:28:05.987Z</time></trkpt><trkpt lat="43.1836983" lon="11.4767317"><ele>153.4</ele><time>2026-04-11T02:28:06.987Z</time></trkpt><trkpt lat="43.1838017" lon="11.4766433"><ele>153.20000000000002</ele><time>2026-04-11T02:28:08.988Z</time></trkpt><trkpt lat="43.1839067" lon="11.47656"><ele>153.0</ele><time>2026-04-11T02:28:10.987Z</time></trkpt><trkpt lat="43.18401" lon="11.47647"><ele>153.16666666666666</ele><time>2026-04-11T02:28:12.987Z</time></trkpt><trkpt lat="43.1840717" lon="11.4764233"><ele>153.33333333333334</ele><time>2026-04-11T02:28:13.987Z</time></trkpt><trkpt lat="43.18413" lon="11.4763783"><ele>153.5</ele><time>2026-04-11T02:28:14.987Z</time></trkpt><trkpt lat="43.1841867" lon="11.47633"><ele>153.66666666666669</ele><time>2026-04-11T02:28:15.987Z</time></trkpt><trkpt lat="43.184245" lon="11.47628"><ele>153.83333333333334</ele><time>2026-04-11T02:28:16.988Z</time></trkpt><trkpt lat="43.1843567" lon="11.4762033"><ele>154.0</ele><time>2026-04-11T02:28:18.987Z</time></trkpt><trkpt lat="43.1844617" lon="11.4761133"><ele>154.0</ele><time>2026-04-11T02:28:20.987Z</time></trkpt><trkpt lat="43.1845217" lon="11.4760667"><ele>154.0</ele><time>2026-04-11T02:28:21.987Z</time></trkpt><trkpt lat="43.18458" lon="11.4760233"><ele>154.0</ele><time>2026-04-11T02:28:22.988Z</time></trkpt><trkpt lat="43.1846933" lon="11.4759367"><ele>154.0</ele><time>2026-04-11T02:28:24.987Z</time></trkpt><trkpt lat="43.184785" lon="11.475845"><ele>154.0</ele><time>2026-04-11T02:28:26.987Z</time></trkpt><trkpt lat="43.184875" lon="11.475765"><ele>154.25</ele><time>2026-04-11T02:28:28.987Z</time></trkpt><trkpt lat="43.1849733" lon="11.4756967"><ele>154.5</ele><time>2026-04-11T02:28:30.987Z</time></trkpt><trkpt lat="43.1850767" lon="11.4756083"><ele>154.75</ele><time>2026-04-11T02:28:32.987Z</time></trkpt><trkpt lat="43.1851767" lon="11.4755233"><ele>155.0</ele><time>2026-04-11T02:28:34.987Z</time></trkpt><trkpt lat="43.1852767" lon="11.4754417"><ele>154.75</ele><time>2026-04-11T02:28:36.987Z</time></trkpt><trkpt lat="43.185385" lon="11.4753483"><ele>154.5</ele><time>2026-04-11T02:28:38.987Z</time></trkpt><trkpt lat="43.185495" lon="11.4752617"><ele>154.25</ele><time>2026-04-11T02:28:40.987Z</time></trkpt><trkpt lat="43.1856" lon="11.4751733"><ele>154.0</ele><time>2026-04-11T02:28:42.987Z</time></trkpt><trkpt lat="43.1857133" lon="11.4750933"><ele>154.0</ele><time>2026-04-11T02:28:44.987Z</time></trkpt><trkpt lat="43.18577" lon="11.47505"><ele>154.0</ele><time>2026-04-11T02:28:45.987Z</time></trkpt><trkpt lat="43.1858233" lon="11.4750017"><ele>154.0</ele><time>2026-04-11T02:28:46.987Z</time></trkpt><trkpt lat="43.1859317" lon="11.4749233"><ele>154.0</ele><time>2026-04-11T02:28:48.987Z</time></trkpt><trkpt lat="43.1860433" lon="11.4748517"><ele>154.0</ele><time>2026-04-11T02:28:50.987Z</time></trkpt><trkpt lat="43.1861583" lon="11.474805"><ele>154.0</ele><time>2026-04-11T02:28:52.988Z</time></trkpt><trkpt lat="43.1862733" lon="11.4747967"><ele>154.0</ele><time>2026-04-11T02:28:54.987Z</time></trkpt><trkpt lat="43.18634" lon="11.4748017"><ele>154.0</ele><time>2026-04-11T02:28:55.987Z</time></trkpt><trkpt lat="43.1864667" lon="11.4748133"><ele>154.0</ele><time>2026-04-11T02:28:57.987Z</time></trkpt><trkpt lat="43.1865833" lon="11.4748117"><ele>154.0</ele><time>2026-04-11T02:28:59.987Z</time></trkpt><trkpt lat="43.1866933" lon="11.474795"><ele>154.2</ele><time>2026-04-11T02:29:01.987Z</time></trkpt><trkpt lat="43.18681" lon="11.4747833"><ele>154.4</ele><time>2026-04-11T02:29:03.988Z</time></trkpt><trkpt lat="43.186915" lon="11.4747617"><ele>154.6</ele><time>2026-04-11T02:29:05.987Z</time></trkpt><trkpt lat="43.1870033" lon="11.4747433"><ele>154.8</ele><time>2026-04-11T02:29:07.987Z</time></trkpt><trkpt lat="43.1870883" lon="11.4747183"><ele>155.0</ele><time>2026-04-11T02:29:09.987Z</time></trkpt><trkpt lat="43.1871833" lon="11.4747"><ele>155.0</ele><time>2026-04-11T02:29:11.988Z</time></trkpt><trkpt lat="43.187285" lon="11.4747183"><ele>155.0</ele><time>2026-04-11T02:29:13.987Z</time></trkpt><trkpt lat="43.1873733" lon="11.4747633"><ele>155.0</ele><time>2026-04-11T02:29:15.987Z</time></trkpt><trkpt lat="43.187445" lon="11.474815"><ele>155.0</ele><time>2026-04-11T02:29:17.987Z</time></trkpt><trkpt lat="43.1875233" lon="11.47486"><ele>155.0</ele><time>2026-04-11T02:29:19.987Z</time></trkpt><trkpt lat="43.187605" lon="11.47491"><ele>155.8</ele><time>2026-04-11T02:29:21.987Z</time></trkpt><trkpt lat="43.1877083" lon="11.4749217"><ele>156.6</ele><time>2026-04-11T02:29:23.987Z</time></trkpt><trkpt lat="43.1878083" lon="11.474875"><ele>157.4</ele><time>2026-04-11T02:29:25.987Z</time></trkpt><trkpt lat="43.1878667" lon="11.4747817"><ele>158.2</ele><time>2026-04-11T02:29:27.987Z</time></trkpt><trkpt lat="43.18791" lon="11.47468"><ele>159.0</ele><time>2026-04-11T02:29:29.987Z</time></trkpt><trkpt lat="43.1879483" lon="11.474555"><ele>159.0</ele><time>2026-04-11T02:29:31.987Z</time></trkpt><trkpt lat="43.1880033" lon="11.4744367"><ele>159.0</ele><time>2026-04-11T02:29:33.988Z</time></trkpt><trkpt lat="43.1880783" lon="11.47434"><ele>159.0</ele><time>2026-04-11T02:29:35.987Z</time></trkpt><trkpt lat="43.1881533" lon="11.47427"><ele>159.0</ele><time>2026-04-11T02:29:37.987Z</time></trkpt><trkpt lat="43.1882167" lon="11.4742117"><ele>159.0</ele><time>2026-04-11T02:29:39.987Z</time></trkpt><trkpt lat="43.188275" lon="11.47416"><ele>159.0</ele><time>2026-04-11T02:29:41.987Z</time></trkpt><trkpt lat="43.1883383" lon="11.4741117"><ele>160.0</ele><time>2026-04-11T02:29:43.987Z</time></trkpt><trkpt lat="43.1883867" lon="11.4740533"><ele>161.0</ele><time>2026-04-11T02:29:45.987Z</time></trkpt><trkpt lat="43.188435" lon="11.473985"><ele>162.0</ele><time>2026-04-11T02:29:47.987Z</time></trkpt><trkpt lat="43.18848" lon="11.4739133"><ele>163.0</ele><time>2026-04-11T02:29:49.987Z</time></trkpt><trkpt lat="43.1885167" lon="11.4738133"><ele>164.0</ele><time>2026-04-11T02:29:52.987Z</time></trkpt><trkpt lat="43.188545" lon="11.4737017"><ele>165.0</ele><time>2026-04-11T02:29:55.987Z</time></trkpt><trkpt lat="43.1885833" lon="11.4735833"><ele>165.0</ele><time>2026-04-11T02:29:58.988Z</time></trkpt><trkpt lat="43.1886133" lon="11.4734617"><ele>165.0</ele><time>2026-04-11T02:30:01.988Z</time></trkpt><trkpt lat="43.1886433" lon="11.4733467"><ele>165.0</ele><time>2026-04-11T02:30:04.988Z</time></trkpt><trkpt lat="43.188685" lon="11.4732333"><ele>165.0</ele><time>2026-04-11T02:30:07.987Z</time></trkpt><trkpt lat="43.18872" lon="11.473155"><ele>165.0</ele><time>2026-04-11T02:30:09.988Z</time></trkpt><trkpt lat="43.1887633" lon="11.4730633"><ele>165.0</ele><time>2026-04-11T02:30:11.987Z</time></trkpt><trkpt lat="43.1888033" lon="11.4729667"><ele>164.2</ele><time>2026-04-11T02:30:13.987Z</time></trkpt><trkpt lat="43.1888467" lon="11.4728567"><ele>163.4</ele><time>2026-04-11T02:30:15.987Z</time></trkpt><trkpt lat="43.1888983" lon="11.47274"><ele>162.60000000000002</ele><time>2026-04-11T02:30:17.987Z</time></trkpt><trkpt lat="43.1889383" lon="11.47262"><ele>161.8</ele><time>2026-04-11T02:30:19.987Z</time></trkpt><trkpt lat="43.1889783" lon="11.4724883"><ele>161.0</ele><time>2026-04-11T02:30:21.987Z</time></trkpt><trkpt lat="43.18902" lon="11.47235"><ele>162.20000000000002</ele><time>2026-04-11T02:30:23.988Z</time></trkpt><trkpt lat="43.1890583" lon="11.4722133"><ele>163.4</ele><time>2026-04-11T02:30:25.987Z</time></trkpt><trkpt lat="43.189095" lon="11.47208"><ele>164.6</ele><time>2026-04-11T02:30:27.987Z</time></trkpt><trkpt lat="43.1891383" lon="11.4719467"><ele>165.8</ele><time>2026-04-11T02:30:29.988Z</time></trkpt><trkpt lat="43.1892017" lon="11.4718133"><ele>167.0</ele><time>2026-04-11T02:30:31.987Z</time></trkpt><trkpt lat="43.1892717" lon="11.47168"><ele>167.0</ele><time>2026-04-11T02:30:33.987Z</time></trkpt><trkpt lat="43.189315" lon="11.4716083"><ele>167.0</ele><time>2026-04-11T02:30:34.987Z</time></trkpt><trkpt lat="43.1893567" lon="11.4715367"><ele>167.0</ele><time>2026-04-11T02:30:35.987Z</time></trkpt><trkpt lat="43.1894467" lon="11.47142"><ele>167.0</ele><time>2026-04-11T02:30:37.987Z</time></trkpt><trkpt lat="43.1895" lon="11.4713667"><ele>167.0</ele><time>2026-04-11T02:30:38.988Z</time></trkpt><trkpt lat="43.1895633" lon="11.4713267"><ele>167.0</ele><time>2026-04-11T02:30:39.988Z</time></trkpt><trkpt lat="43.1896233" lon="11.4712833"><ele>166.66666666666666</ele><time>2026-04-11T02:30:40.987Z</time></trkpt><trkpt lat="43.189685" lon="11.4712433"><ele>166.33333333333331</ele><time>2026-04-11T02:30:41.987Z</time></trkpt><trkpt lat="43.1897467" lon="11.4712133"><ele>166.0</ele><time>2026-04-11T02:30:42.987Z</time></trkpt><trkpt lat="43.189805" lon="11.4711767"><ele>165.66666666666666</ele><time>2026-04-11T02:30:43.987Z</time></trkpt><trkpt lat="43.1899" lon="11.4711167"><ele>165.33333333333334</ele><time>2026-04-11T02:30:45.987Z</time></trkpt><trkpt lat="43.1900067" lon="11.4710417"><ele>165.0</ele><time>2026-04-11T02:30:47.988Z</time></trkpt><trkpt lat="43.1901083" lon="11.4709633"><ele>165.0</ele><time>2026-04-11T02:30:49.987Z</time></trkpt><trkpt lat="43.1901633" lon="11.4709183"><ele>165.0</ele><time>2026-04-11T02:30:50.987Z</time></trkpt><trkpt lat="43.1902133" lon="11.470865"><ele>165.0</ele><time>2026-04-11T02:30:51.987Z</time></trkpt><trkpt lat="43.19026" lon="11.4708067"><ele>165.0</ele><time>2026-04-11T02:30:52.987Z</time></trkpt><trkpt lat="43.190345" lon="11.4706933"><ele>165.0</ele><time>2026-04-11T02:30:54.987Z</time></trkpt><trkpt lat="43.1904383" lon="11.4705967"><ele>165.0</ele><time>2026-04-11T02:30:56.987Z</time></trkpt><trkpt lat="43.1905233" lon="11.4704967"><ele>164.4</ele><time>2026-04-11T02:30:58.988Z</time></trkpt><trkpt lat="43.1906067" lon="11.4703867"><ele>163.8</ele><time>2026-04-11T02:31:00.987Z</time></trkpt><trkpt lat="43.1907017" lon="11.47027"><ele>163.2</ele><time>2026-04-11T02:31:02.987Z</time></trkpt><trkpt lat="43.1907467" lon="11.470195"><ele>162.6</ele><time>2026-04-11T02:31:03.987Z</time></trkpt><trkpt lat="43.1907933" lon="11.4701183"><ele>162.0</ele><time>2026-04-11T02:31:04.987Z</time></trkpt><trkpt lat="43.1908233" lon="11.47002"><ele>162.0</ele><time>2026-04-11T02:31:05.988Z</time></trkpt><trkpt lat="43.19087" lon="11.46994"><ele>162.0</ele><time>2026-04-11T02:31:06.987Z</time></trkpt><trkpt lat="43.190915" lon="11.4698517"><ele>162.0</ele><time>2026-04-11T02:31:07.987Z</time></trkpt><trkpt lat="43.19096" lon="11.469765"><ele>162.0</ele><time>2026-04-11T02:31:08.987Z</time></trkpt><trkpt lat="43.1909983" lon="11.469675"><ele>162.0</ele><time>2026-04-11T02:31:09.987Z</time></trkpt><trkpt lat="43.1910367" lon="11.4695833"><ele>162.0</ele><time>2026-04-11T02:31:10.987Z</time></trkpt><trkpt lat="43.1910783" lon="11.46949"><ele>161.16666666666666</ele><time>2026-04-11T02:31:11.987Z</time></trkpt><trkpt lat="43.1911133" lon="11.4693983"><ele>160.33333333333334</ele><time>2026-04-11T02:31:12.987Z</time></trkpt><trkpt lat="43.191155" lon="11.4693083"><ele>159.5</ele><time>2026-04-11T02:31:13.987Z</time></trkpt><trkpt lat="43.1911883" lon="11.4692167"><ele>158.66666666666669</ele><time>2026-04-11T02:31:14.987Z</time></trkpt><trkpt lat="43.1912367" lon="11.4691267"><ele>157.83333333333334</ele><time>2026-04-11T02:31:15.988Z</time></trkpt><trkpt lat="43.1912917" lon="11.4690483"><ele>157.0</ele><time>2026-04-11T02:31:16.988Z</time></trkpt><trkpt lat="43.1913417" lon="11.4689817"><ele>156.99999999999997</ele><time>2026-04-11T02:31:17.987Z</time></trkpt><trkpt lat="43.1914067" lon="11.468925"><ele>157.0</ele><time>2026-04-11T02:31:18.988Z</time></trkpt><trkpt lat="43.1914683" lon="11.4688683"><ele>157.0</ele><time>2026-04-11T02:31:19.987Z</time></trkpt><trkpt lat="43.1915317" lon="11.46882"><ele>157.0</ele><time>2026-04-11T02:31:20.987Z</time></trkpt><trkpt lat="43.19159" lon="11.468765"><ele>157.0</ele><time>2026-04-11T02:31:21.988Z</time></trkpt><trkpt lat="43.19164" lon="11.4687067"><ele>156.99999999999997</ele><time>2026-04-11T02:31:22.987Z</time></trkpt><trkpt lat="43.1917017" lon="11.4686583"><ele>157.0</ele><time>2026-04-11T02:31:23.987Z</time></trkpt><trkpt lat="43.1917567" lon="11.468605"><ele>157.28571428571428</ele><time>2026-04-11T02:31:24.987Z</time></trkpt><trkpt lat="43.1918133" lon="11.468555"><ele>157.57142857142856</ele><time>2026-04-11T02:31:25.987Z</time></trkpt><trkpt lat="43.191865" lon="11.4685033"><ele>157.85714285714283</ele><time>2026-04-11T02:31:26.987Z</time></trkpt><trkpt lat="43.1919217" lon="11.468455"><ele>158.14285714285714</ele><time>2026-04-11T02:31:27.987Z</time></trkpt><trkpt lat="43.19198" lon="11.4684"><ele>158.42857142857144</ele><time>2026-04-11T02:31:28.988Z</time></trkpt><trkpt lat="43.1920383" lon="11.468345"><ele>158.7142857142857</ele><time>2026-04-11T02:31:29.987Z</time></trkpt><trkpt lat="43.1920933" lon="11.4682883"><ele>159.0</ele><time>2026-04-11T02:31:30.987Z</time></trkpt><trkpt lat="43.19215" lon="11.4682283"><ele>159.0</ele><time>2026-04-11T02:31:31.987Z</time></trkpt><trkpt lat="43.1922133" lon="11.4681633"><ele>159.0</ele><time>2026-04-11T02:31:32.987Z</time></trkpt><trkpt lat="43.1922767" lon="11.4681083"><ele>159.0</ele><time>2026-04-11T02:31:33.987Z</time></trkpt><trkpt lat="43.1923467" lon="11.46806"><ele>159.0</ele><time>2026-04-11T02:31:34.987Z</time></trkpt><trkpt lat="43.192415" lon="11.4680067"><ele>159.0</ele><time>2026-04-11T02:31:35.987Z</time></trkpt><trkpt lat="43.1924783" lon="11.46795"><ele>159.0</ele><time>2026-04-11T02:31:36.987Z</time></trkpt><trkpt lat="43.1925383" lon="11.4678917"><ele>158.57142857142856</ele><time>2026-04-11T02:31:37.987Z</time></trkpt><trkpt lat="43.1925933" lon="11.4678283"><ele>158.14285714285717</ele><time>2026-04-11T02:31:38.987Z</time></trkpt><trkpt lat="43.1926467" lon="11.4677683"><ele>157.71428571428572</ele><time>2026-04-11T02:31:39.987Z</time></trkpt><trkpt lat="43.1927017" lon="11.4677067"><ele>157.28571428571428</ele><time>2026-04-11T02:31:40.987Z</time></trkpt><trkpt lat="43.1927567" lon="11.4676533"><ele>156.85714285714283</ele><time>2026-04-11T02:31:41.987Z</time></trkpt><trkpt lat="43.192815" lon="11.4675983"><ele>156.42857142857144</ele><time>2026-04-11T02:31:42.987Z</time></trkpt><trkpt lat="43.1928717" lon="11.4675383"><ele>156.0</ele><time>2026-04-11T02:31:43.987Z</time></trkpt><trkpt lat="43.1929283" lon="11.467475"><ele>156.0</ele><time>2026-04-11T02:31:44.988Z</time></trkpt><trkpt lat="43.1929867" lon="11.4674133"><ele>156.0</ele><time>2026-04-11T02:31:45.987Z</time></trkpt><trkpt lat="43.1930467" lon="11.4673567"><ele>156.0</ele><time>2026-04-11T02:31:46.987Z</time></trkpt><trkpt lat="43.1931033" lon="11.4672967"><ele>156.0</ele><time>2026-04-11T02:31:47.987Z</time></trkpt><trkpt lat="43.1931617" lon="11.4672467"><ele>156.0</ele><time>2026-04-11T02:31:48.987Z</time></trkpt><trkpt lat="43.1932183" lon="11.4671917"><ele>156.0</ele><time>2026-04-11T02:31:49.987Z</time></trkpt><trkpt lat="43.1932783" lon="11.4671417"><ele>156.0</ele><time>2026-04-11T02:31:50.987Z</time></trkpt><trkpt lat="43.1933367" lon="11.4671"><ele>156.0</ele><time>2026-04-11T02:31:51.987Z</time></trkpt><trkpt lat="43.19339" lon="11.4670483"><ele>156.0</ele><time>2026-04-11T02:31:52.987Z</time></trkpt><trkpt lat="43.1934483" lon="11.46699"><ele>156.0</ele><time>2026-04-11T02:31:53.987Z</time></trkpt><trkpt lat="43.1935133" lon="11.4669333"><ele>156.0</ele><time>2026-04-11T02:31:54.987Z</time></trkpt><trkpt lat="43.193575" lon="11.4668717"><ele>156.0</ele><time>2026-04-11T02:31:55.987Z</time></trkpt><trkpt lat="43.1936333" lon="11.4668033"><ele>156.0</ele><time>2026-04-11T02:31:56.987Z</time></trkpt><trkpt lat="43.1936983" lon="11.466735"><ele>156.0</ele><time>2026-04-11T02:31:57.987Z</time></trkpt><trkpt lat="43.1937667" lon="11.4666733"><ele>156.0</ele><time>2026-04-11T02:31:58.988Z</time></trkpt><trkpt lat="43.1938417" lon="11.4666233"><ele>156.0</ele><time>2026-04-11T02:31:59.987Z</time></trkpt><trkpt lat="43.1939183" lon="11.4665617"><ele>156.0</ele><time>2026-04-11T02:32:00.987Z</time></trkpt><trkpt lat="43.1939933" lon="11.4665067"><ele>156.0</ele><time>2026-04-11T02:32:01.987Z</time></trkpt><trkpt lat="43.1940633" lon="11.46645"><ele>156.0</ele><time>2026-04-11T02:32:02.987Z</time></trkpt><trkpt lat="43.194125" lon="11.4663933"><ele>156.0</ele><time>2026-04-11T02:32:03.987Z</time></trkpt><trkpt lat="43.1941833" lon="11.466335"><ele>155.83333333333334</ele><time>2026-04-11T02:32:04.987Z</time></trkpt><trkpt lat="43.194235" lon="11.4662733"><ele>155.66666666666666</ele><time>2026-04-11T02:32:05.987Z</time></trkpt><trkpt lat="43.1942783" lon="11.4662067"><ele>155.5</ele><time>2026-04-11T02:32:06.987Z</time></trkpt><trkpt lat="43.194355" lon="11.4661083"><ele>155.33333333333331</ele><time>2026-04-11T02:32:08.987Z</time></trkpt><trkpt lat="43.1944367" lon="11.466025"><ele>155.16666666666666</ele><time>2026-04-11T02:32:10.987Z</time></trkpt><trkpt lat="43.1945083" lon="11.465945"><ele>155.0</ele><time>2026-04-11T02:32:12.988Z</time></trkpt><trkpt lat="43.194585" lon="11.465875"><ele>155.0</ele><time>2026-04-11T02:32:14.987Z</time></trkpt><trkpt lat="43.194665" lon="11.465805"><ele>155.0</ele><time>2026-04-11T02:32:16.987Z</time></trkpt><trkpt lat="43.1947483" lon="11.4657133"><ele>155.0</ele><time>2026-04-11T02:32:18.988Z</time></trkpt><trkpt lat="43.1948233" lon="11.4656517"><ele>155.0</ele><time>2026-04-11T02:32:20.987Z</time></trkpt><trkpt lat="43.194895" lon="11.4656633"><ele>155.0</ele><time>2026-04-11T02:32:23.987Z</time></trkpt><trkpt lat="43.1949383" lon="11.4657367"><ele>155.0</ele><time>2026-04-11T02:32:26.987Z</time></trkpt><trkpt lat="43.1949867" lon="11.4658467"><ele>155.0</ele><time>2026-04-11T02:32:29.988Z</time></trkpt><trkpt lat="43.1950417" lon="11.4659217"><ele>155.0</ele><time>2026-04-11T02:32:31.987Z</time></trkpt><trkpt lat="43.1950983" lon="11.4659983"><ele>155.0</ele><time>2026-04-11T02:32:33.987Z</time></trkpt><trkpt lat="43.195155" lon="11.4660667"><ele>155.0</ele><time>2026-04-11T02:32:35.987Z</time></trkpt><trkpt lat="43.19523" lon="11.46616"><ele>155.0</ele><time>2026-04-11T02:32:37.988Z</time></trkpt><trkpt lat="43.19529" lon="11.4662583"><ele>155.0</ele><time>2026-04-11T02:32:39.987Z</time></trkpt><trkpt lat="43.1953517" lon="11.4663767"><ele>155.5</ele><time>2026-04-11T02:32:41.987Z</time></trkpt><trkpt lat="43.195395" lon="11.4664967"><ele>156.0</ele><time>2026-04-11T02:32:43.987Z</time></trkpt><trkpt lat="43.19542" lon="11.4666217"><ele>156.5</ele><time>2026-04-11T02:32:45.987Z</time></trkpt><trkpt lat="43.19544" lon="11.466745"><ele>157.0</ele><time>2026-04-11T02:32:47.987Z</time></trkpt><trkpt lat="43.1954467" lon="11.4668567"><ele>157.5</ele><time>2026-04-11T02:32:49.987Z</time></trkpt><trkpt lat="43.1954483" lon="11.466955"><ele>158.0</ele><time>2026-04-11T02:32:51.987Z</time></trkpt><trkpt lat="43.19547" lon="11.467075"><ele>158.33333333333331</ele><time>2026-04-11T02:32:54.987Z</time></trkpt><trkpt lat="43.1955" lon="11.46718"><ele>158.66666666666666</ele><time>2026-04-11T02:32:57.987Z</time></trkpt><trkpt lat="43.1955117" lon="11.46728"><ele>159.0</ele><time>2026-04-11T02:33:00.988Z</time></trkpt><trkpt lat="43.1955417" lon="11.4673667"><ele>159.33333333333334</ele><time>2026-04-11T02:33:03.987Z</time></trkpt><trkpt lat="43.19559" lon="11.4674617"><ele>159.66666666666669</ele><time>2026-04-11T02:33:07.987Z</time></trkpt><trkpt lat="43.1956683" lon="11.4675033"><ele>160.0</ele><time>2026-04-11T02:33:11.987Z</time></trkpt><trkpt lat="43.1957417" lon="11.46753"><ele>160.83333333333334</ele><time>2026-04-11T02:33:14.987Z</time></trkpt><trkpt lat="43.1958167" lon="11.467575"><ele>161.66666666666669</ele><time>2026-04-11T02:33:17.987Z</time></trkpt><trkpt lat="43.1958917" lon="11.467625"><ele>162.5</ele><time>2026-04-11T02:33:20.988Z</time></trkpt><trkpt lat="43.1959567" lon="11.46766"><ele>163.33333333333334</ele><time>2026-04-11T02:33:23.987Z</time></trkpt><trkpt lat="43.19603" lon="11.4677033"><ele>164.16666666666666</ele><time>2026-04-11T02:33:26.987Z</time></trkpt><trkpt lat="43.1961017" lon="11.4677417"><ele>165.0</ele><time>2026-04-11T02:33:29.988Z</time></trkpt><trkpt lat="43.1961567" lon="11.4677983"><ele>165.00000000000003</ele><time>2026-04-11T02:33:32.987Z</time></trkpt><trkpt lat="43.1962117" lon="11.4678467"><ele>165.0</ele><time>2026-04-11T02:33:35.987Z</time></trkpt><trkpt lat="43.1962567" lon="11.4679117"><ele>165.0</ele><time>2026-04-11T02:33:38.988Z</time></trkpt><trkpt lat="43.1963" lon="11.4679783"><ele>165.0</ele><time>2026-04-11T02:33:41.988Z</time></trkpt><trkpt lat="43.1963483" lon="11.4680517"><ele>165.0</ele><time>2026-04-11T02:33:44.987Z</time></trkpt><trkpt lat="43.196395" lon="11.4681183"><ele>165.00000000000003</ele><time>2026-04-11T02:33:47.988Z</time></trkpt><trkpt lat="43.1964433" lon="11.46819"><ele>165.0</ele><time>2026-04-11T02:33:50.987Z</time></trkpt><trkpt lat="43.1964833" lon="11.4682817"><ele>166.66666666666666</ele><time>2026-04-11T02:33:53.987Z</time></trkpt><trkpt lat="43.1965267" lon="11.468375"><ele>168.33333333333334</ele><time>2026-04-11T02:33:56.987Z</time></trkpt><trkpt lat="43.19657" lon="11.4684683"><ele>170.0</ele><time>2026-04-11T02:33:59.987Z</time></trkpt><trkpt lat="43.1965967" lon="11.4685667"><ele>171.66666666666669</ele><time>2026-04-11T02:34:02.987Z</time></trkpt><trkpt lat="43.1966283" lon="11.4686683"><ele>173.33333333333334</ele><time>2026-04-11T02:34:05.987Z</time></trkpt><trkpt lat="43.1966417" lon="11.4687633"><ele>175.0</ele><time>2026-04-11T02:34:08.987Z</time></trkpt><trkpt lat="43.196655" lon="11.468855"><ele>175.85714285714286</ele><time>2026-04-11T02:34:11.987Z</time></trkpt><trkpt lat="43.1966933" lon="11.46893"><ele>176.71428571428572</ele><time>2026-04-11T02:34:15.987Z</time></trkpt><trkpt lat="43.1967383" lon="11.4690233"><ele>177.57142857142856</ele><time>2026-04-11T02:34:19.987Z</time></trkpt><trkpt lat="43.1967833" lon="11.4690967"><ele>178.42857142857144</ele><time>2026-04-11T02:34:23.987Z</time></trkpt><trkpt lat="43.1968317" lon="11.4691683"><ele>179.28571428571428</ele><time>2026-04-11T02:34:27.987Z</time></trkpt><trkpt lat="43.196885" lon="11.4692483"><ele>180.14285714285714</ele><time>2026-04-11T02:34:31.988Z</time></trkpt><trkpt lat="43.1969267" lon="11.4693133"><ele>181.0</ele><time>2026-04-11T02:34:35.987Z</time></trkpt><trkpt lat="43.1969767" lon="11.4693983"><ele>181.0</ele><time>2026-04-11T02:34:39.987Z</time></trkpt><trkpt lat="43.1970233" lon="11.46948"><ele>181.0</ele><time>2026-04-11T02:34:43.987Z</time></trkpt><trkpt lat="43.1970683" lon="11.4695683"><ele>181.0</ele><time>2026-04-11T02:34:46.987Z</time></trkpt><trkpt lat="43.19711" lon="11.4696633"><ele>181.0</ele><time>2026-04-11T02:34:50.987Z</time></trkpt><trkpt lat="43.1971617" lon="11.4697533"><ele>181.0</ele><time>2026-04-11T02:34:54.988Z</time></trkpt><trkpt lat="43.1972017" lon="11.4698267"><ele>181.0</ele><time>2026-04-11T02:34:57.987Z</time></trkpt><trkpt lat="43.1972333" lon="11.4699217"><ele>181.16666666666669</ele><time>2026-04-11T02:35:00.987Z</time></trkpt><trkpt lat="43.1972617" lon="11.4700133"><ele>181.33333333333334</ele><time>2026-04-11T02:35:03.987Z</time></trkpt><trkpt lat="43.1972917" lon="11.470095"><ele>181.5</ele><time>2026-04-11T02:35:06.987Z</time></trkpt><trkpt lat="43.1973367" lon="11.4701733"><ele>181.66666666666666</ele><time>2026-04-11T02:35:10.988Z</time></trkpt><trkpt lat="43.1973817" lon="11.47024"><ele>181.83333333333331</ele><time>2026-04-11T02:35:14.988Z</time></trkpt><trkpt lat="43.1974533" lon="11.4702783"><ele>182.0</ele><time>2026-04-11T02:35:19.987Z</time></trkpt><trkpt lat="43.1975533" lon="11.4703367"><ele>183.16666666666666</ele><time>2026-04-11T02:35:25.987Z</time></trkpt><trkpt lat="43.1976167" lon="11.4703617"><ele>184.33333333333331</ele><time>2026-04-11T02:35:28.987Z</time></trkpt><trkpt lat="43.1976933" lon="11.4704117"><ele>185.5</ele><time>2026-04-11T02:35:31.987Z</time></trkpt><trkpt lat="43.1977683" lon="11.4704417"><ele>186.66666666666666</ele><time>2026-04-11T02:35:35.987Z</time></trkpt><trkpt lat="43.1978483" lon="11.4704767"><ele>187.83333333333334</ele><time>2026-04-11T02:35:39.987Z</time></trkpt><trkpt lat="43.197915" lon="11.47049"><ele>189.0</ele><time>2026-04-11T02:35:42.987Z</time></trkpt><trkpt lat="43.1980267" lon="11.47056"><ele>190.83333333333334</ele><time>2026-04-11T02:35:48.988Z</time></trkpt><trkpt lat="43.1981017" lon="11.4706167"><ele>192.66666666666669</ele><time>2026-04-11T02:35:51.988Z</time></trkpt><trkpt lat="43.1981667" lon="11.4706983"><ele>194.5</ele><time>2026-04-11T02:35:54.987Z</time></trkpt><trkpt lat="43.1982033" lon="11.4707733"><ele>196.33333333333334</ele><time>2026-04-11T02:35:56.988Z</time></trkpt><trkpt lat="43.1982533" lon="11.4708467"><ele>198.16666666666669</ele><time>2026-04-11T02:35:59.988Z</time></trkpt><trkpt lat="43.1983083" lon="11.4709267"><ele>200.0</ele><time>2026-04-11T02:36:03.988Z</time></trkpt><trkpt lat="43.19835" lon="11.471"><ele>200.66666666666669</ele><time>2026-04-11T02:36:06.987Z</time></trkpt><trkpt lat="43.1984" lon="11.4710817"><ele>201.33333333333334</ele><time>2026-04-11T02:36:11.987Z</time></trkpt><trkpt lat="43.1984367" lon="11.4711717"><ele>202.0</ele><time>2026-04-11T02:36:14.987Z</time></trkpt><trkpt lat="43.1984783" lon="11.47126"><ele>202.66666666666669</ele><time>2026-04-11T02:36:18.987Z</time></trkpt><trkpt lat="43.19852" lon="11.471355"><ele>203.33333333333334</ele><time>2026-04-11T02:36:21.987Z</time></trkpt><trkpt lat="43.1985533" lon="11.4714467"><ele>204.0</ele><time>2026-04-11T02:36:23.987Z</time></trkpt><trkpt lat="43.1985783" lon="11.4715683"><ele>205.0</ele><time>2026-04-11T02:36:26.987Z</time></trkpt><trkpt lat="43.1985817" lon="11.47166"><ele>206.0</ele><time>2026-04-11T02:36:29.987Z</time></trkpt><trkpt lat="43.198585" lon="11.4717567"><ele>207.0</ele><time>2026-04-11T02:36:33.987Z</time></trkpt><trkpt lat="43.198585" lon="11.47187"><ele>208.0</ele><time>2026-04-11T02:36:37.987Z</time></trkpt><trkpt lat="43.1985917" lon="11.4720217"><ele>209.0</ele><time>2026-04-11T02:36:40.988Z</time></trkpt><trkpt lat="43.1985983" lon="11.4721833"><ele>210.0</ele><time>2026-04-11T02:36:42.987Z</time></trkpt><trkpt lat="43.1986017" lon="11.4722867"><ele>210.6</ele><time>2026-04-11T02:36:44.987Z</time></trkpt><trkpt lat="43.1986217" lon="11.47239"><ele>211.2</ele><time>2026-04-11T02:36:45.987Z</time></trkpt><trkpt lat="43.1986567" lon="11.4725467"><ele>211.8</ele><time>2026-04-11T02:36:47.987Z</time></trkpt><trkpt lat="43.1986817" lon="11.4726867"><ele>212.4</ele><time>2026-04-11T02:36:49.988Z</time></trkpt><trkpt lat="43.198725" lon="11.4728333"><ele>213.0</ele><time>2026-04-11T02:36:51.987Z</time></trkpt><trkpt lat="43.1987683" lon="11.4729733"><ele>213.16666666666666</ele><time>2026-04-11T02:36:53.987Z</time></trkpt><trkpt lat="43.1988083" lon="11.4730967"><ele>213.33333333333331</ele><time>2026-04-11T02:36:55.987Z</time></trkpt><trkpt lat="43.1988333" lon="11.4731767"><ele>213.5</ele><time>2026-04-11T02:36:56.987Z</time></trkpt><trkpt lat="43.1988667" lon="11.4732567"><ele>213.66666666666666</ele><time>2026-04-11T02:36:57.987Z</time></trkpt><trkpt lat="43.198915" lon="11.4734083"><ele>213.83333333333331</ele><time>2026-04-11T02:36:59.987Z</time></trkpt><trkpt lat="43.1989317" lon="11.4735"><ele>214.0</ele><time>2026-04-11T02:37:00.987Z</time></trkpt><trkpt lat="43.1989433" lon="11.4736083"><ele>213.99999999999997</ele><time>2026-04-11T02:37:01.987Z</time></trkpt><trkpt lat="43.1989467" lon="11.4737067"><ele>214.0</ele><time>2026-04-11T02:37:02.987Z</time></trkpt><trkpt lat="43.1989483" lon="11.473865"><ele>214.0</ele><time>2026-04-11T02:37:03.987Z</time></trkpt><trkpt lat="43.1989467" lon="11.4739633"><ele>214.0</ele><time>2026-04-11T02:37:04.987Z</time></trkpt><trkpt lat="43.1989533" lon="11.4740567"><ele>213.99999999999997</ele><time>2026-04-11T02:37:05.987Z</time></trkpt><trkpt lat="43.1989617" lon="11.4741483"><ele>214.0</ele><time>2026-04-11T02:37:06.987Z</time></trkpt><trkpt lat="43.1989767" lon="11.4742367"><ele>212.71428571428572</ele><time>2026-04-11T02:37:07.987Z</time></trkpt><trkpt lat="43.198995" lon="11.4743283"><ele>211.42857142857144</ele><time>2026-04-11T02:37:08.987Z</time></trkpt><trkpt lat="43.1990167" lon="11.47441"><ele>210.14285714285717</ele><time>2026-04-11T02:37:09.987Z</time></trkpt><trkpt lat="43.199065" lon="11.4745433"><ele>208.85714285714286</ele><time>2026-04-11T02:37:11.987Z</time></trkpt><trkpt lat="43.1991033" lon="11.4746167"><ele>207.57142857142856</ele><time>2026-04-11T02:37:12.987Z</time></trkpt><trkpt lat="43.199135" lon="11.4746917"><ele>206.2857142857143</ele><time>2026-04-11T02:37:13.987Z</time></trkpt><trkpt lat="43.199175" lon="11.47478"><ele>205.0</ele><time>2026-04-11T02:37:14.987Z</time></trkpt><trkpt lat="43.1992083" lon="11.4748567"><ele>203.8</ele><time>2026-04-11T02:37:15.988Z</time></trkpt><trkpt lat="43.1992683" lon="11.475005"><ele>202.6</ele><time>2026-04-11T02:37:17.987Z</time></trkpt><trkpt lat="43.199325" lon="11.4751367"><ele>201.39999999999998</ele><time>2026-04-11T02:37:19.987Z</time></trkpt><trkpt lat="43.1993817" lon="11.4752517"><ele>200.2</ele><time>2026-04-11T02:37:21.987Z</time></trkpt><trkpt lat="43.1994317" lon="11.4753383"><ele>199.0</ele><time>2026-04-11T02:37:23.987Z</time></trkpt><trkpt lat="43.1994917" lon="11.4754217"><ele>200.16666666666666</ele><time>2026-04-11T02:37:25.987Z</time></trkpt><trkpt lat="43.199555" lon="11.47551"><ele>201.33333333333331</ele><time>2026-04-11T02:37:27.987Z</time></trkpt><trkpt lat="43.1996183" lon="11.4755767"><ele>202.5</ele><time>2026-04-11T02:37:29.987Z</time></trkpt><trkpt lat="43.19968" lon="11.4756333"><ele>203.66666666666669</ele><time>2026-04-11T02:37:31.987Z</time></trkpt><trkpt lat="43.19974" lon="11.4756883"><ele>204.83333333333334</ele><time>2026-04-11T02:37:33.987Z</time></trkpt><trkpt lat="43.1998067" lon="11.4757217"><ele>206.0</ele><time>2026-04-11T02:37:35.987Z</time></trkpt><trkpt lat="43.1998817" lon="11.4757667"><ele>206.00000000000003</ele><time>2026-04-11T02:37:38.987Z</time></trkpt><trkpt lat="43.1999483" lon="11.4758067"><ele>206.0</ele><time>2026-04-11T02:37:41.987Z</time></trkpt><trkpt lat="43.2000167" lon="11.475845"><ele>206.0</ele><time>2026-04-11T02:37:44.987Z</time></trkpt><trkpt lat="43.2000767" lon="11.4758833"><ele>206.0</ele><time>2026-04-11T02:37:47.987Z</time></trkpt><trkpt lat="43.2001417" lon="11.4759533"><ele>206.00000000000003</ele><time>2026-04-11T02:37:50.987Z</time></trkpt><trkpt lat="43.2001917" lon="11.4760133"><ele>206.0</ele><time>2026-04-11T02:37:52.987Z</time></trkpt><trkpt lat="43.20027" lon="11.4760917"><ele>205.99999999999997</ele><time>2026-04-11T02:37:55.987Z</time></trkpt><trkpt lat="43.2003283" lon="11.4761483"><ele>206.0</ele><time>2026-04-11T02:37:57.987Z</time></trkpt><trkpt lat="43.200385" lon="11.47621"><ele>206.0</ele><time>2026-04-11T02:37:59.987Z</time></trkpt><trkpt lat="43.2004417" lon="11.476275"><ele>206.0</ele><time>2026-04-11T02:38:01.987Z</time></trkpt><trkpt lat="43.2005017" lon="11.4763417"><ele>206.0</ele><time>2026-04-11T02:38:03.987Z</time></trkpt><trkpt lat="43.2005633" lon="11.4764"><ele>205.99999999999997</ele><time>2026-04-11T02:38:05.987Z</time></trkpt><trkpt lat="43.2006217" lon="11.4764483"><ele>206.0</ele><time>2026-04-11T02:38:07.988Z</time></trkpt><trkpt lat="43.2006867" lon="11.4765333"><ele>206.0</ele><time>2026-04-11T02:38:09.987Z</time></trkpt><trkpt lat="43.20075" lon="11.4766633"><ele>206.0</ele><time>2026-04-11T02:38:11.987Z</time></trkpt><trkpt lat="43.200805" lon="11.4767983"><ele>206.0</ele><time>2026-04-11T02:38:13.987Z</time></trkpt><trkpt lat="43.20086" lon="11.476915"><ele>206.0</ele><time>2026-04-11T02:38:15.987Z</time></trkpt><trkpt lat="43.2009117" lon="11.4770167"><ele>206.0</ele><time>2026-04-11T02:38:17.988Z</time></trkpt><trkpt lat="43.2009583" lon="11.4771433"><ele>206.0</ele><time>2026-04-11T02:38:19.987Z</time></trkpt><trkpt lat="43.2010033" lon="11.4772667"><ele>206.0</ele><time>2026-04-11T02:38:21.987Z</time></trkpt><trkpt lat="43.2010433" lon="11.4773867"><ele>206.0</ele><time>2026-04-11T02:38:23.987Z</time></trkpt><trkpt lat="43.2010783" lon="11.4775"><ele>206.0</ele><time>2026-04-11T02:38:25.988Z</time></trkpt><trkpt lat="43.2011133" lon="11.4776067"><ele>206.0</ele><time>2026-04-11T02:38:27.987Z</time></trkpt><trkpt lat="43.20115" lon="11.477715"><ele>206.00000000000003</ele><time>2026-04-11T02:38:29.987Z</time></trkpt><trkpt lat="43.201195" lon="11.4778167"><ele>206.0</ele><time>2026-04-11T02:38:31.987Z</time></trkpt><trkpt lat="43.2012383" lon="11.4779167"><ele>206.0</ele><time>2026-04-11T02:38:33.987Z</time></trkpt><trkpt lat="43.20128" lon="11.4780233"><ele>206.0</ele><time>2026-04-11T02:38:35.988Z</time></trkpt><trkpt lat="43.2013167" lon="11.47811"><ele>206.00000000000003</ele><time>2026-04-11T02:38:37.987Z</time></trkpt><trkpt lat="43.201355" lon="11.4781983"><ele>206.0</ele><time>2026-04-11T02:38:39.987Z</time></trkpt><trkpt lat="43.201395" lon="11.4783"><ele>206.50000000000003</ele><time>2026-04-11T02:38:41.987Z</time></trkpt><trkpt lat="43.2014417" lon="11.4783983"><ele>207.0</ele><time>2026-04-11T02:38:43.987Z</time></trkpt><trkpt lat="43.201495" lon="11.4784833"><ele>207.5</ele><time>2026-04-11T02:38:45.987Z</time></trkpt><trkpt lat="43.2015317" lon="11.4785767"><ele>208.0</ele><time>2026-04-11T02:38:47.987Z</time></trkpt><trkpt lat="43.2015633" lon="11.47868"><ele>208.50000000000003</ele><time>2026-04-11T02:38:49.987Z</time></trkpt><trkpt lat="43.2015967" lon="11.478795"><ele>209.0</ele><time>2026-04-11T02:38:51.987Z</time></trkpt><trkpt lat="43.2016383" lon="11.4789"><ele>209.66666666666669</ele><time>2026-04-11T02:38:53.988Z</time></trkpt><trkpt lat="43.2016783" lon="11.4790183"><ele>210.33333333333334</ele><time>2026-04-11T02:38:55.987Z</time></trkpt><trkpt lat="43.20171" lon="11.4791217"><ele>211.0</ele><time>2026-04-11T02:38:57.987Z</time></trkpt><trkpt lat="43.201735" lon="11.4792067"><ele>211.66666666666669</ele><time>2026-04-11T02:38:59.987Z</time></trkpt><trkpt lat="43.2017633" lon="11.4792967"><ele>212.33333333333334</ele><time>2026-04-11T02:39:01.987Z</time></trkpt><trkpt lat="43.2017983" lon="11.4793917"><ele>213.0</ele><time>2026-04-11T02:39:03.987Z</time></trkpt><trkpt lat="43.2018283" lon="11.4794817"><ele>213.0</ele><time>2026-04-11T02:39:05.987Z</time></trkpt><trkpt lat="43.201865" lon="11.4795983"><ele>213.0</ele><time>2026-04-11T02:39:08.987Z</time></trkpt><trkpt lat="43.2019017" lon="11.4797"><ele>213.0</ele><time>2026-04-11T02:39:11.987Z</time></trkpt><trkpt lat="43.2019317" lon="11.4798217"><ele>213.0</ele><time>2026-04-11T02:39:14.987Z</time></trkpt><trkpt lat="43.201965" lon="11.4799467"><ele>213.0</ele><time>2026-04-11T02:39:17.987Z</time></trkpt><trkpt lat="43.2020033" lon="11.4800267"><ele>213.0</ele><time>2026-04-11T02:39:19.987Z</time></trkpt><trkpt lat="43.20204" lon="11.4801183"><ele>212.83333333333334</ele><time>2026-04-11T02:39:21.987Z</time></trkpt><trkpt lat="43.20208" lon="11.4802167"><ele>212.66666666666669</ele><time>2026-04-11T02:39:23.987Z</time></trkpt><trkpt lat="43.2021267" lon="11.4803183"><ele>212.5</ele><time>2026-04-11T02:39:25.987Z</time></trkpt><trkpt lat="43.2021633" lon="11.4804"><ele>212.33333333333334</ele><time>2026-04-11T02:39:27.987Z</time></trkpt><trkpt lat="43.2022033" lon="11.4804967"><ele>212.16666666666669</ele><time>2026-04-11T02:39:29.987Z</time></trkpt><trkpt lat="43.2022383" lon="11.4805967"><ele>212.0</ele><time>2026-04-11T02:39:31.987Z</time></trkpt><trkpt lat="43.2022567" lon="11.480705"><ele>212.33333333333334</ele><time>2026-04-11T02:39:33.987Z</time></trkpt><trkpt lat="43.2022683" lon="11.4808117"><ele>212.66666666666669</ele><time>2026-04-11T02:39:35.988Z</time></trkpt><trkpt lat="43.2022783" lon="11.48091"><ele>213.0</ele><time>2026-04-11T02:39:37.987Z</time></trkpt><trkpt lat="43.2022883" lon="11.481005"><ele>213.33333333333331</ele><time>2026-04-11T02:39:39.987Z</time></trkpt><trkpt lat="43.2022967" lon="11.4810983"><ele>213.66666666666666</ele><time>2026-04-11T02:39:41.987Z</time></trkpt><trkpt lat="43.2023083" lon="11.4812283"><ele>214.0</ele><time>2026-04-11T02:39:44.987Z</time></trkpt><trkpt lat="43.2023183" lon="11.4813617"><ele>213.99999999999997</ele><time>2026-04-11T02:39:47.987Z</time></trkpt><trkpt lat="43.2023383" lon="11.4814767"><ele>214.0</ele><time>2026-04-11T02:39:50.987Z</time></trkpt><trkpt lat="43.20235" lon="11.4815833"><ele>214.0</ele><time>2026-04-11T02:39:53.987Z</time></trkpt><trkpt lat="43.2023483" lon="11.4817017"><ele>214.0</ele><time>2026-04-11T02:39:56.987Z</time></trkpt><trkpt lat="43.2023383" lon="11.48182"><ele>213.99999999999997</ele><time>2026-04-11T02:39:59.987Z</time></trkpt><trkpt lat="43.2023283" lon="11.48193"><ele>214.0</ele><time>2026-04-11T02:40:02.988Z</time></trkpt><trkpt lat="43.2023317" lon="11.4820283"><ele>215.49999999999997</ele><time>2026-04-11T02:40:04.987Z</time></trkpt><trkpt lat="43.2023217" lon="11.48214"><ele>217.0</ele><time>2026-04-11T02:40:07.987Z</time></trkpt><trkpt lat="43.202315" lon="11.482245"><ele>218.5</ele><time>2026-04-11T02:40:10.987Z</time></trkpt><trkpt lat="43.202285" lon="11.482355"><ele>220.0</ele><time>2026-04-11T02:40:13.987Z</time></trkpt><trkpt lat="43.2022717" lon="11.4824517"><ele>221.49999999999997</ele><time>2026-04-11T02:40:16.987Z</time></trkpt><trkpt lat="43.202255" lon="11.482555"><ele>223.0</ele><time>2026-04-11T02:40:19.987Z</time></trkpt><trkpt lat="43.2022433" lon="11.482675"><ele>223.0</ele><time>2026-04-11T02:40:23.987Z</time></trkpt><trkpt lat="43.20224" lon="11.482785"><ele>223.0</ele><time>2026-04-11T02:40:26.987Z</time></trkpt><trkpt lat="43.2022383" lon="11.48288"><ele>223.0</ele><time>2026-04-11T02:40:29.988Z</time></trkpt><trkpt lat="43.2022417" lon="11.4829867"><ele>223.0</ele><time>2026-04-11T02:40:32.987Z</time></trkpt><trkpt lat="43.2022383" lon="11.4830833"><ele>223.0</ele><time>2026-04-11T02:40:35.987Z</time></trkpt><trkpt lat="43.20223" lon="11.4831883"><ele>223.0</ele><time>2026-04-11T02:40:39.987Z</time></trkpt><trkpt lat="43.2022067" lon="11.4832833"><ele>223.0</ele><time>2026-04-11T02:40:42.987Z</time></trkpt><trkpt lat="43.2021717" lon="11.48337"><ele>225.0</ele><time>2026-04-11T02:40:46.987Z</time></trkpt><trkpt lat="43.20213" lon="11.4834567"><ele>227.0</ele><time>2026-04-11T02:40:49.987Z</time></trkpt><trkpt lat="43.20208" lon="11.4835367"><ele>229.0</ele><time>2026-04-11T02:40:52.987Z</time></trkpt><trkpt lat="43.202045" lon="11.4836133"><ele>231.0</ele><time>2026-04-11T02:40:55.987Z</time></trkpt><trkpt lat="43.202005" lon="11.4836867"><ele>233.0</ele><time>2026-04-11T02:40:58.987Z</time></trkpt><trkpt lat="43.201965" lon="11.483765"><ele>234.99999999999997</ele><time>2026-04-11T02:41:01.987Z</time></trkpt><trkpt lat="43.201925" lon="11.4838617"><ele>236.99999999999997</ele><time>2026-04-11T02:41:05.987Z</time></trkpt><trkpt lat="43.20188" lon="11.483935"><ele>239.28571428571425</ele><time>2026-04-11T02:41:09.987Z</time></trkpt><trkpt lat="43.2018517" lon="11.4840183"><ele>241.57142857142856</ele><time>2026-04-11T02:41:13.987Z</time></trkpt><trkpt lat="43.2018383" lon="11.48411"><ele>243.85714285714286</ele><time>2026-04-11T02:41:19.987Z</time></trkpt><trkpt lat="43.20186" lon="11.4841967"><ele>246.14285714285714</ele><time>2026-04-11T02:41:24.987Z</time></trkpt><trkpt lat="43.201895" lon="11.484275"><ele>248.42857142857144</ele><time>2026-04-11T02:41:28.988Z</time></trkpt><trkpt lat="43.2019117" lon="11.48436"><ele>250.71428571428575</ele><time>2026-04-11T02:41:32.988Z</time></trkpt><trkpt lat="43.201955" lon="11.48445"><ele>253.00000000000003</ele><time>2026-04-11T02:41:38.987Z</time></trkpt><trkpt lat="43.2019867" lon="11.4845483"><ele>254.28571428571433</ele><time>2026-04-11T02:41:41.987Z</time></trkpt><trkpt lat="43.2020283" lon="11.4846183"><ele>255.57142857142858</ele><time>2026-04-11T02:41:45.987Z</time></trkpt><trkpt lat="43.2020583" lon="11.4847117"><ele>256.8571428571429</ele><time>2026-04-11T02:41:49.987Z</time></trkpt><trkpt lat="43.2021067" lon="11.4848017"><ele>258.14285714285717</ele><time>2026-04-11T02:41:53.988Z</time></trkpt><trkpt lat="43.2021483" lon="11.4848883"><ele>259.42857142857144</ele><time>2026-04-11T02:41:57.987Z</time></trkpt><trkpt lat="43.2021767" lon="11.4849817"><ele>260.7142857142857</ele><time>2026-04-11T02:42:01.988Z</time></trkpt><trkpt lat="43.2022017" lon="11.48507"><ele>262.0</ele><time>2026-04-11T02:42:05.987Z</time></trkpt><trkpt lat="43.2021933" lon="11.4851667"><ele>262.0</ele><time>2026-04-11T02:42:09.987Z</time></trkpt><trkpt lat="43.202215" lon="11.485255"><ele>262.0</ele><time>2026-04-11T02:42:12.987Z</time></trkpt><trkpt lat="43.2022433" lon="11.4853533"><ele>262.0</ele><time>2026-04-11T02:42:14.987Z</time></trkpt><trkpt lat="43.2022783" lon="11.4854583"><ele>262.0</ele><time>2026-04-11T02:42:16.988Z</time></trkpt><trkpt lat="43.2023167" lon="11.48557"><ele>262.0</ele><time>2026-04-11T02:42:18.987Z</time></trkpt><trkpt lat="43.202355" lon="11.485695"><ele>262.0</ele><time>2026-04-11T02:42:20.987Z</time></trkpt><trkpt lat="43.202385" lon="11.4858017"><ele>260.8</ele><time>2026-04-11T02:42:22.987Z</time></trkpt><trkpt lat="43.20243" lon="11.4859117"><ele>259.6</ele><time>2026-04-11T02:42:24.988Z</time></trkpt><trkpt lat="43.20249" lon="11.4860317"><ele>258.40000000000003</ele><time>2026-04-11T02:42:26.987Z</time></trkpt><trkpt lat="43.2025517" lon="11.4861283"><ele>257.2</ele><time>2026-04-11T02:42:28.987Z</time></trkpt><trkpt lat="43.2026217" lon="11.48622"><ele>256.0</ele><time>2026-04-11T02:42:30.988Z</time></trkpt><trkpt lat="43.202705" lon="11.4863133"><ele>254.4</ele><time>2026-04-11T02:42:32.987Z</time></trkpt><trkpt lat="43.2027983" lon="11.4864317"><ele>252.8</ele><time>2026-04-11T02:42:34.988Z</time></trkpt><trkpt lat="43.202845" lon="11.4865083"><ele>251.20000000000002</ele><time>2026-04-11T02:42:35.987Z</time></trkpt><trkpt lat="43.2029167" lon="11.48662"><ele>249.60000000000002</ele><time>2026-04-11T02:42:37.987Z</time></trkpt><trkpt lat="43.2029883" lon="11.4866983"><ele>248.0</ele><time>2026-04-11T02:42:39.987Z</time></trkpt><trkpt lat="43.20306" lon="11.4867783"><ele>248.0</ele><time>2026-04-11T02:42:41.987Z</time></trkpt><trkpt lat="43.2031267" lon="11.48686"><ele>248.0</ele><time>2026-04-11T02:42:43.987Z</time></trkpt><trkpt lat="43.2031983" lon="11.4869583"><ele>248.0</ele><time>2026-04-11T02:42:45.987Z</time></trkpt><trkpt lat="43.2032567" lon="11.487055"><ele>248.0</ele><time>2026-04-11T02:42:47.987Z</time></trkpt><trkpt lat="43.203325" lon="11.4871367"><ele>248.0</ele><time>2026-04-11T02:42:49.988Z</time></trkpt><trkpt lat="43.2033967" lon="11.487215"><ele>248.2</ele><time>2026-04-11T02:42:51.987Z</time></trkpt><trkpt lat="43.2034583" lon="11.4872983"><ele>248.4</ele><time>2026-04-11T02:42:53.987Z</time></trkpt><trkpt lat="43.2035233" lon="11.4873983"><ele>248.59999999999997</ele><time>2026-04-11T02:42:55.987Z</time></trkpt><trkpt lat="43.2035617" lon="11.4874733"><ele>248.79999999999998</ele><time>2026-04-11T02:42:56.987Z</time></trkpt><trkpt lat="43.20363" lon="11.487605"><ele>249.0</ele><time>2026-04-11T02:42:58.987Z</time></trkpt><trkpt lat="43.2036917" lon="11.4877333"><ele>249.0</ele><time>2026-04-11T02:43:00.987Z</time></trkpt><trkpt lat="43.2037567" lon="11.4878617"><ele>249.0</ele><time>2026-04-11T02:43:02.987Z</time></trkpt><trkpt lat="43.2037933" lon="11.4879383"><ele>249.0</ele><time>2026-04-11T02:43:03.987Z</time></trkpt><trkpt lat="43.20383" lon="11.48802"><ele>249.0</ele><time>2026-04-11T02:43:04.987Z</time></trkpt><trkpt lat="43.2038683" lon="11.4880983"><ele>249.0</ele><time>2026-04-11T02:43:05.987Z</time></trkpt><trkpt lat="43.2039367" lon="11.48824"><ele>249.0</ele><time>2026-04-11T02:43:07.987Z</time></trkpt><trkpt lat="43.204005" lon="11.4883767"><ele>248.75</ele><time>2026-04-11T02:43:09.987Z</time></trkpt><trkpt lat="43.2040833" lon="11.4884967"><ele>248.5</ele><time>2026-04-11T02:43:11.987Z</time></trkpt><trkpt lat="43.2041567" lon="11.488625"><ele>248.25</ele><time>2026-04-11T02:43:13.987Z</time></trkpt><trkpt lat="43.2042367" lon="11.4887317"><ele>248.0</ele><time>2026-04-11T02:43:15.987Z</time></trkpt><trkpt lat="43.2043233" lon="11.48885"><ele>248.0</ele><time>2026-04-11T02:43:17.988Z</time></trkpt><trkpt lat="43.2043667" lon="11.4889183"><ele>248.00000000000003</ele><time>2026-04-11T02:43:18.988Z</time></trkpt><trkpt lat="43.2044083" lon="11.4889983"><ele>248.0</ele><time>2026-04-11T02:43:19.987Z</time></trkpt><trkpt lat="43.2044483" lon="11.4890783"><ele>248.0</ele><time>2026-04-11T02:43:20.987Z</time></trkpt><trkpt lat="43.2044883" lon="11.4891617"><ele>248.00000000000003</ele><time>2026-04-11T02:43:21.988Z</time></trkpt><trkpt lat="43.2045267" lon="11.48925"><ele>248.0</ele><time>2026-04-11T02:43:22.987Z</time></trkpt><trkpt lat="43.204565" lon="11.4893467"><ele>248.0</ele><time>2026-04-11T02:43:23.987Z</time></trkpt><trkpt lat="43.2046" lon="11.4894433"><ele>248.00000000000003</ele><time>2026-04-11T02:43:24.987Z</time></trkpt><trkpt lat="43.204635" lon="11.4895417"><ele>248.0</ele><time>2026-04-11T02:43:25.987Z</time></trkpt><trkpt lat="43.204665" lon="11.48964"><ele>248.0</ele><time>2026-04-11T02:43:26.987Z</time></trkpt><trkpt lat="43.20469" lon="11.48973"><ele>248.0</ele><time>2026-04-11T02:43:27.988Z</time></trkpt><trkpt lat="43.2047183" lon="11.4898333"><ele>248.00000000000003</ele><time>2026-04-11T02:43:28.988Z</time></trkpt><trkpt lat="43.204745" lon="11.48994"><ele>248.0</ele><time>2026-04-11T02:43:29.987Z</time></trkpt><trkpt lat="43.2047717" lon="11.4900383"><ele>247.50000000000003</ele><time>2026-04-11T02:43:30.987Z</time></trkpt><trkpt lat="43.2048117" lon="11.4901367"><ele>247.0</ele><time>2026-04-11T02:43:31.987Z</time></trkpt><trkpt lat="43.204855" lon="11.49023"><ele>246.5</ele><time>2026-04-11T02:43:32.987Z</time></trkpt><trkpt lat="43.2049033" lon="11.4903183"><ele>246.0</ele><time>2026-04-11T02:43:33.987Z</time></trkpt><trkpt lat="43.2049517" lon="11.4904"><ele>245.50000000000003</ele><time>2026-04-11T02:43:34.988Z</time></trkpt><trkpt lat="43.2050033" lon="11.4904683"><ele>245.0</ele><time>2026-04-11T02:43:35.987Z</time></trkpt><trkpt lat="43.2050583" lon="11.490535"><ele>245.00000000000003</ele><time>2026-04-11T02:43:36.987Z</time></trkpt><trkpt lat="43.205105" lon="11.490595"><ele>245.0</ele><time>2026-04-11T02:43:37.987Z</time></trkpt><trkpt lat="43.2051567" lon="11.4906683"><ele>245.0</ele><time>2026-04-11T02:43:38.987Z</time></trkpt><trkpt lat="43.2052483" lon="11.4907717"><ele>245.0</ele><time>2026-04-11T02:43:40.987Z</time></trkpt><trkpt lat="43.2053317" lon="11.4908383"><ele>245.00000000000003</ele><time>2026-04-11T02:43:42.987Z</time></trkpt><trkpt lat="43.2054083" lon="11.4908733"><ele>245.0</ele><time>2026-04-11T02:43:44.987Z</time></trkpt><trkpt lat="43.2054783" lon="11.4908883"><ele>245.0</ele><time>2026-04-11T02:43:46.988Z</time></trkpt><trkpt lat="43.2055633" lon="11.4908867"><ele>245.0</ele><time>2026-04-11T02:43:49.987Z</time></trkpt><trkpt lat="43.2056417" lon="11.4908917"><ele>245.0</ele><time>2026-04-11T02:43:52.987Z</time></trkpt><trkpt lat="43.2057183" lon="11.4908967"><ele>245.0</ele><time>2026-04-11T02:43:56.987Z</time></trkpt><trkpt lat="43.20578" lon="11.4908783"><ele>245.0</ele><time>2026-04-11T02:43:59.988Z</time></trkpt><trkpt lat="43.2058467" lon="11.4908583"><ele>245.0</ele><time>2026-04-11T02:44:02.987Z</time></trkpt><trkpt lat="43.2059117" lon="11.4908583"><ele>245.0</ele><time>2026-04-11T02:44:05.987Z</time></trkpt><trkpt lat="43.2059933" lon="11.4908583"><ele>247.16666666666669</ele><time>2026-04-11T02:44:08.987Z</time></trkpt><trkpt lat="43.2060583" lon="11.4908517"><ele>249.33333333333334</ele><time>2026-04-11T02:44:11.987Z</time></trkpt><trkpt lat="43.2061317" lon="11.4908567"><ele>251.5</ele><time>2026-04-11T02:44:15.987Z</time></trkpt><trkpt lat="43.206195" lon="11.4908483"><ele>253.66666666666669</ele><time>2026-04-11T02:44:18.987Z</time></trkpt><trkpt lat="43.2062783" lon="11.4908433"><ele>255.83333333333334</ele><time>2026-04-11T02:44:21.987Z</time></trkpt><trkpt lat="43.206365" lon="11.49086"><ele>258.0</ele><time>2026-04-11T02:44:24.987Z</time></trkpt><trkpt lat="43.2064533" lon="11.49089"><ele>257.8333333333333</ele><time>2026-04-11T02:44:27.987Z</time></trkpt><trkpt lat="43.2065317" lon="11.49092"><ele>257.6666666666667</ele><time>2026-04-11T02:44:29.988Z</time></trkpt><trkpt lat="43.206595" lon="11.4909817"><ele>257.5</ele><time>2026-04-11T02:44:31.987Z</time></trkpt><trkpt lat="43.2066583" lon="11.4910667"><ele>257.33333333333337</ele><time>2026-04-11T02:44:33.987Z</time></trkpt><trkpt lat="43.206715" lon="11.4911617"><ele>257.1666666666667</ele><time>2026-04-11T02:44:35.987Z</time></trkpt><trkpt lat="43.2067733" lon="11.4912633"><ele>257.0</ele><time>2026-04-11T02:44:37.988Z</time></trkpt><trkpt lat="43.2068167" lon="11.4913817"><ele>256.2</ele><time>2026-04-11T02:44:39.987Z</time></trkpt><trkpt lat="43.2068767" lon="11.4915233"><ele>255.39999999999998</ele><time>2026-04-11T02:44:41.987Z</time></trkpt><trkpt lat="43.20694" lon="11.4916617"><ele>254.60000000000002</ele><time>2026-04-11T02:44:43.987Z</time></trkpt><trkpt lat="43.2069767" lon="11.491735"><ele>253.8</ele><time>2026-04-11T02:44:44.987Z</time></trkpt><trkpt lat="43.2070233" lon="11.491815"><ele>253.0</ele><time>2026-04-11T02:44:45.987Z</time></trkpt><trkpt lat="43.2070717" lon="11.4918883"><ele>253.00000000000003</ele><time>2026-04-11T02:44:46.987Z</time></trkpt><trkpt lat="43.207115" lon="11.4919517"><ele>253.0</ele><time>2026-04-11T02:44:47.987Z</time></trkpt><trkpt lat="43.2071733" lon="11.4920117"><ele>253.00000000000003</ele><time>2026-04-11T02:44:48.987Z</time></trkpt><trkpt lat="43.2072333" lon="11.4920767"><ele>253.00000000000003</ele><time>2026-04-11T02:44:49.987Z</time></trkpt><trkpt lat="43.207295" lon="11.4921367"><ele>253.0</ele><time>2026-04-11T02:44:50.987Z</time></trkpt><trkpt lat="43.2073583" lon="11.4921967"><ele>253.00000000000003</ele><time>2026-04-11T02:44:51.987Z</time></trkpt><trkpt lat="43.207425" lon="11.4922633"><ele>253.00000000000003</ele><time>2026-04-11T02:44:52.987Z</time></trkpt><trkpt lat="43.2074967" lon="11.4923467"><ele>252.16666666666666</ele><time>2026-04-11T02:44:53.988Z</time></trkpt><trkpt lat="43.207565" lon="11.4924283"><ele>251.33333333333331</ele><time>2026-04-11T02:44:54.988Z</time></trkpt><trkpt lat="43.207635" lon="11.4925133"><ele>250.5</ele><time>2026-04-11T02:44:55.987Z</time></trkpt><trkpt lat="43.2076933" lon="11.4925767"><ele>249.66666666666669</ele><time>2026-04-11T02:44:56.987Z</time></trkpt><trkpt lat="43.2077583" lon="11.4926433"><ele>248.83333333333334</ele><time>2026-04-11T02:44:57.987Z</time></trkpt><trkpt lat="43.20782" lon="11.4927017"><ele>248.0</ele><time>2026-04-11T02:44:58.987Z</time></trkpt><trkpt lat="43.2078783" lon="11.4927667"><ele>248.00000000000003</ele><time>2026-04-11T02:44:59.987Z</time></trkpt><trkpt lat="43.2079483" lon="11.4928533"><ele>248.0</ele><time>2026-04-11T02:45:00.987Z</time></trkpt><trkpt lat="43.20801" lon="11.49292"><ele>248.0</ele><time>2026-04-11T02:45:01.987Z</time></trkpt><trkpt lat="43.208065" lon="11.4929767"><ele>248.0</ele><time>2026-04-11T02:45:02.988Z</time></trkpt><trkpt lat="43.2081167" lon="11.493035"><ele>248.00000000000003</ele><time>2026-04-11T02:45:03.987Z</time></trkpt><trkpt lat="43.2081667" lon="11.4930883"><ele>248.0</ele><time>2026-04-11T02:45:04.987Z</time></trkpt><trkpt lat="43.2082633" lon="11.493175"><ele>248.4</ele><time>2026-04-11T02:45:06.988Z</time></trkpt><trkpt lat="43.2083683" lon="11.493265"><ele>248.8</ele><time>2026-04-11T02:45:08.987Z</time></trkpt><trkpt lat="43.20842" lon="11.493325"><ele>249.2</ele><time>2026-04-11T02:45:09.987Z</time></trkpt><trkpt lat="43.2085233" lon="11.4934067"><ele>249.6</ele><time>2026-04-11T02:45:11.987Z</time></trkpt><trkpt lat="43.208625" lon="11.4934783"><ele>250.0</ele><time>2026-04-11T02:45:13.987Z</time></trkpt><trkpt lat="43.2087233" lon="11.4935617"><ele>250.0</ele><time>2026-04-11T02:45:15.987Z</time></trkpt><trkpt lat="43.2087883" lon="11.49364"><ele>250.0</ele><time>2026-04-11T02:45:17.987Z</time></trkpt><trkpt lat="43.2088467" lon="11.4936783"><ele>250.0</ele><time>2026-04-11T02:45:19.987Z</time></trkpt><trkpt lat="43.20889" lon="11.4937467"><ele>250.0</ele><time>2026-04-11T02:45:21.987Z</time></trkpt><trkpt lat="43.208925" lon="11.49382"><ele>250.0</ele><time>2026-04-11T02:45:23.987Z</time></trkpt><trkpt lat="43.2089633" lon="11.493915"><ele>250.0</ele><time>2026-04-11T02:45:26.987Z</time></trkpt><trkpt lat="43.2090017" lon="11.4940067"><ele>250.0</ele><time>2026-04-11T02:45:29.987Z</time></trkpt><trkpt lat="43.2090383" lon="11.4941067"><ele>251.49999999999997</ele><time>2026-04-11T02:45:32.988Z</time></trkpt><trkpt lat="43.20907" lon="11.4942133"><ele>253.0</ele><time>2026-04-11T02:45:35.987Z</time></trkpt><trkpt lat="43.2091017" lon="11.49432"><ele>254.5</ele><time>2026-04-11T02:45:38.987Z</time></trkpt><trkpt lat="43.2091317" lon="11.4944167"><ele>256.0</ele><time>2026-04-11T02:45:41.987Z</time></trkpt><trkpt lat="43.2091533" lon="11.494505"><ele>257.5</ele><time>2026-04-11T02:45:44.987Z</time></trkpt><trkpt lat="43.2091733" lon="11.4946133"><ele>259.0</ele><time>2026-04-11T02:45:48.987Z</time></trkpt><trkpt lat="43.209185" lon="11.4947083"><ele>259.2857142857143</ele><time>2026-04-11T02:45:51.987Z</time></trkpt><trkpt lat="43.2092067" lon="11.4948117"><ele>259.57142857142856</ele><time>2026-04-11T02:45:55.987Z</time></trkpt><trkpt lat="43.209225" lon="11.4949133"><ele>259.8571428571429</ele><time>2026-04-11T02:45:59.987Z</time></trkpt><trkpt lat="43.2092333" lon="11.4950067"><ele>260.1428571428571</ele><time>2026-04-11T02:46:02.987Z</time></trkpt><trkpt lat="43.209245" lon="11.4951083"><ele>260.42857142857144</ele><time>2026-04-11T02:46:05.987Z</time></trkpt><trkpt lat="43.2092617" lon="11.4952017"><ele>260.7142857142857</ele><time>2026-04-11T02:46:09.987Z</time></trkpt><trkpt lat="43.20928" lon="11.4952983"><ele>261.0</ele><time>2026-04-11T02:46:13.987Z</time></trkpt><trkpt lat="43.209315" lon="11.4954"><ele>261.2857142857143</ele><time>2026-04-11T02:46:17.987Z</time></trkpt><trkpt lat="43.2093517" lon="11.4954817"><ele>261.57142857142856</ele><time>2026-04-11T02:46:21.987Z</time></trkpt><trkpt lat="43.2093967" lon="11.495555"><ele>261.85714285714283</ele><time>2026-04-11T02:46:24.988Z</time></trkpt><trkpt lat="43.20943" lon="11.4956433"><ele>262.1428571428571</ele><time>2026-04-11T02:46:28.987Z</time></trkpt><trkpt lat="43.2094567" lon="11.495735"><ele>262.4285714285714</ele><time>2026-04-11T02:46:31.988Z</time></trkpt><trkpt lat="43.2094883" lon="11.4958167"><ele>262.7142857142857</ele><time>2026-04-11T02:46:34.988Z</time></trkpt><trkpt lat="43.20951" lon="11.4959033"><ele>263.0</ele><time>2026-04-11T02:46:37.987Z</time></trkpt><trkpt lat="43.209535" lon="11.496"><ele>263.0</ele><time>2026-04-11T02:46:40.987Z</time></trkpt><trkpt lat="43.2095533" lon="11.4960833"><ele>263.0</ele><time>2026-04-11T02:46:42.987Z</time></trkpt><trkpt lat="43.2096" lon="11.4962033"><ele>263.0</ele><time>2026-04-11T02:46:45.987Z</time></trkpt><trkpt lat="43.2096433" lon="11.4963067"><ele>263.0</ele><time>2026-04-11T02:46:47.987Z</time></trkpt><trkpt lat="43.2096983" lon="11.49643"><ele>263.0</ele><time>2026-04-11T02:46:49.987Z</time></trkpt><trkpt lat="43.2097767" lon="11.4965517"><ele>263.4</ele><time>2026-04-11T02:46:51.987Z</time></trkpt><trkpt lat="43.2098667" lon="11.4966467"><ele>263.8</ele><time>2026-04-11T02:46:53.987Z</time></trkpt><trkpt lat="43.2099733" lon="11.496745"><ele>264.2</ele><time>2026-04-11T02:46:55.987Z</time></trkpt><trkpt lat="43.210035" lon="11.4967983"><ele>264.6</ele><time>2026-04-11T02:46:56.987Z</time></trkpt><trkpt lat="43.2101" lon="11.4968567"><ele>265.0</ele><time>2026-04-11T02:46:57.988Z</time></trkpt><trkpt lat="43.2102067" lon="11.4969417"><ele>265.0</ele><time>2026-04-11T02:46:59.987Z</time></trkpt><trkpt lat="43.2102633" lon="11.4969933"><ele>265.0</ele><time>2026-04-11T02:47:00.987Z</time></trkpt><trkpt lat="43.2103167" lon="11.4970417"><ele>265.0</ele><time>2026-04-11T02:47:01.987Z</time></trkpt><trkpt lat="43.2104117" lon="11.497125"><ele>265.0</ele><time>2026-04-11T02:47:03.987Z</time></trkpt><trkpt lat="43.210505" lon="11.4972"><ele>265.0</ele><time>2026-04-11T02:47:05.987Z</time></trkpt><trkpt lat="43.2105967" lon="11.4972617"><ele>264.8</ele><time>2026-04-11T02:47:07.987Z</time></trkpt><trkpt lat="43.21068" lon="11.4973383"><ele>264.6</ele><time>2026-04-11T02:47:09.987Z</time></trkpt><trkpt lat="43.2107567" lon="11.4974267"><ele>264.4</ele><time>2026-04-11T02:47:11.987Z</time></trkpt><trkpt lat="43.210805" lon="11.4975283"><ele>264.2</ele><time>2026-04-11T02:47:13.987Z</time></trkpt><trkpt lat="43.2108367" lon="11.4976483"><ele>264.0</ele><time>2026-04-11T02:47:15.987Z</time></trkpt><trkpt lat="43.2108717" lon="11.4977917"><ele>263.0</ele><time>2026-04-11T02:47:17.987Z</time></trkpt><trkpt lat="43.2108983" lon="11.4979267"><ele>262.0</ele><time>2026-04-11T02:47:19.988Z</time></trkpt><trkpt lat="43.210915" lon="11.4980667"><ele>261.0</ele><time>2026-04-11T02:47:21.987Z</time></trkpt><trkpt lat="43.21094" lon="11.4982067"><ele>260.0</ele><time>2026-04-11T02:47:23.987Z</time></trkpt><trkpt lat="43.210975" lon="11.4983433"><ele>259.0</ele><time>2026-04-11T02:47:25.988Z</time></trkpt><trkpt lat="43.21104" lon="11.4984817"><ele>259.0</ele><time>2026-04-11T02:47:27.987Z</time></trkpt><trkpt lat="43.2110883" lon="11.4985483"><ele>259.0</ele><time>2026-04-11T02:47:28.987Z</time></trkpt><trkpt lat="43.211145" lon="11.4985933"><ele>259.0</ele><time>2026-04-11T02:47:29.988Z</time></trkpt><trkpt lat="43.2112617" lon="11.4986417"><ele>259.0</ele><time>2026-04-11T02:47:31.987Z</time></trkpt><trkpt lat="43.2113817" lon="11.498645"><ele>259.0</ele><time>2026-04-11T02:47:33.988Z</time></trkpt><trkpt lat="43.2114483" lon="11.4986333"><ele>259.0</ele><time>2026-04-11T02:47:34.987Z</time></trkpt><trkpt lat="43.211515" lon="11.4986333"><ele>257.5</ele><time>2026-04-11T02:47:35.987Z</time></trkpt><trkpt lat="43.2115867" lon="11.49862"><ele>256.0</ele><time>2026-04-11T02:47:36.987Z</time></trkpt><trkpt lat="43.2116617" lon="11.4986067"><ele>254.5</ele><time>2026-04-11T02:47:37.987Z</time></trkpt><trkpt lat="43.21173" lon="11.498595"><ele>253.0</ele><time>2026-04-11T02:47:38.987Z</time></trkpt><trkpt lat="43.2118017" lon="11.4985817"><ele>251.49999999999997</ele><time>2026-04-11T02:47:39.987Z</time></trkpt><trkpt lat="43.2118667" lon="11.4985717"><ele>250.0</ele><time>2026-04-11T02:47:40.987Z</time></trkpt><trkpt lat="43.2119717" lon="11.498595"><ele>249.99999999999997</ele><time>2026-04-11T02:47:42.987Z</time></trkpt><trkpt lat="43.212075" lon="11.49871"><ele>250.0</ele><time>2026-04-11T02:47:44.987Z</time></trkpt><trkpt lat="43.2121233" lon="11.4987917"><ele>250.0</ele><time>2026-04-11T02:47:45.987Z</time></trkpt><trkpt lat="43.2121617" lon="11.4988783"><ele>250.0</ele><time>2026-04-11T02:47:46.987Z</time></trkpt><trkpt lat="43.2121883" lon="11.49897"><ele>249.99999999999997</ele><time>2026-04-11T02:47:47.987Z</time></trkpt><trkpt lat="43.2122067" lon="11.499065"><ele>250.0</ele><time>2026-04-11T02:47:48.987Z</time></trkpt><trkpt lat="43.2122167" lon="11.4991567"><ele>248.8</ele><time>2026-04-11T02:47:49.987Z</time></trkpt><trkpt lat="43.2122017" lon="11.499335"><ele>247.6</ele><time>2026-04-11T02:47:51.987Z</time></trkpt><trkpt lat="43.2121783" lon="11.4994267"><ele>246.39999999999998</ele><time>2026-04-11T02:47:52.987Z</time></trkpt><trkpt lat="43.2121417" lon="11.4995067"><ele>245.2</ele><time>2026-04-11T02:47:53.987Z</time></trkpt><trkpt lat="43.212095" lon="11.4995667"><ele>244.0</ele><time>2026-04-11T02:47:54.987Z</time></trkpt><trkpt lat="43.2119833" lon="11.4996367"><ele>241.83333333333331</ele><time>2026-04-11T02:47:56.987Z</time></trkpt><trkpt lat="43.2119167" lon="11.4996667"><ele>239.66666666666666</ele><time>2026-04-11T02:47:57.987Z</time></trkpt><trkpt lat="43.211855" lon="11.4996933"><ele>237.5</ele><time>2026-04-11T02:47:58.987Z</time></trkpt><trkpt lat="43.21179" lon="11.4997217"><ele>235.33333333333331</ele><time>2026-04-11T02:47:59.987Z</time></trkpt><trkpt lat="43.2116967" lon="11.4998167"><ele>233.16666666666666</ele><time>2026-04-11T02:48:01.987Z</time></trkpt><trkpt lat="43.2116217" lon="11.4999383"><ele>231.0</ele><time>2026-04-11T02:48:03.987Z</time></trkpt><trkpt lat="43.2116033" lon="11.500025"><ele>231.0</ele><time>2026-04-11T02:48:04.987Z</time></trkpt><trkpt lat="43.21159" lon="11.500125"><ele>231.0</ele><time>2026-04-11T02:48:05.987Z</time></trkpt><trkpt lat="43.2115683" lon="11.5002283"><ele>231.0</ele><time>2026-04-11T02:48:06.987Z</time></trkpt><trkpt lat="43.2115433" lon="11.50033"><ele>231.0</ele><time>2026-04-11T02:48:07.987Z</time></trkpt><trkpt lat="43.2115233" lon="11.5004383"><ele>231.0</ele><time>2026-04-11T02:48:08.987Z</time></trkpt><trkpt lat="43.2115033" lon="11.50054"><ele>231.0</ele><time>2026-04-11T02:48:09.987Z</time></trkpt><trkpt lat="43.211485" lon="11.5006467"><ele>229.28571428571428</ele><time>2026-04-11T02:48:10.987Z</time></trkpt><trkpt lat="43.2114617" lon="11.5007517"><ele>227.57142857142856</ele><time>2026-04-11T02:48:11.987Z</time></trkpt><trkpt lat="43.2114267" lon="11.50084"><ele>225.85714285714286</ele><time>2026-04-11T02:48:12.987Z</time></trkpt><trkpt lat="43.2113867" lon="11.500925"><ele>224.14285714285714</ele><time>2026-04-11T02:48:13.987Z</time></trkpt><trkpt lat="43.2113417" lon="11.5010017"><ele>222.42857142857142</ele><time>2026-04-11T02:48:14.987Z</time></trkpt><trkpt lat="43.2112883" lon="11.5010567"><ele>220.71428571428572</ele><time>2026-04-11T02:48:15.988Z</time></trkpt><trkpt lat="43.2112333" lon="11.5011"><ele>219.0</ele><time>2026-04-11T02:48:16.987Z</time></trkpt><trkpt lat="43.2111717" lon="11.5011283"><ele>219.0</ele><time>2026-04-11T02:48:17.987Z</time></trkpt><trkpt lat="43.21111" lon="11.5011567"><ele>218.99999999999997</ele><time>2026-04-11T02:48:18.987Z</time></trkpt><trkpt lat="43.210995" lon="11.5012033"><ele>218.99999999999997</ele><time>2026-04-11T02:48:20.987Z</time></trkpt><trkpt lat="43.2108983" lon="11.5012517"><ele>219.0</ele><time>2026-04-11T02:48:22.987Z</time></trkpt><trkpt lat="43.21081" lon="11.5013117"><ele>219.0</ele><time>2026-04-11T02:48:24.987Z</time></trkpt><trkpt lat="43.2107417" lon="11.5013817"><ele>219.2</ele><time>2026-04-11T02:48:26.987Z</time></trkpt><trkpt lat="43.2106933" lon="11.5014683"><ele>219.39999999999998</ele><time>2026-04-11T02:48:28.987Z</time></trkpt><trkpt lat="43.2106367" lon="11.5015567"><ele>219.6</ele><time>2026-04-11T02:48:30.987Z</time></trkpt><trkpt lat="43.2105967" lon="11.5016683"><ele>219.8</ele><time>2026-04-11T02:48:32.987Z</time></trkpt><trkpt lat="43.21056" lon="11.5017933"><ele>220.0</ele><time>2026-04-11T02:48:34.987Z</time></trkpt><trkpt lat="43.2105183" lon="11.5019267"><ele>220.0</ele><time>2026-04-11T02:48:36.987Z</time></trkpt><trkpt lat="43.2104783" lon="11.5020733"><ele>220.0</ele><time>2026-04-11T02:48:38.988Z</time></trkpt><trkpt lat="43.210425" lon="11.502225"><ele>220.0</ele><time>2026-04-11T02:48:40.987Z</time></trkpt><trkpt lat="43.2103667" lon="11.5023367"><ele>220.0</ele><time>2026-04-11T02:48:42.987Z</time></trkpt><trkpt lat="43.210285" lon="11.5024317"><ele>220.0</ele><time>2026-04-11T02:48:44.987Z</time></trkpt><trkpt lat="43.2101817" lon="11.5025317"><ele>219.83333333333331</ele><time>2026-04-11T02:48:46.987Z</time></trkpt><trkpt lat="43.2101233" lon="11.5025917"><ele>219.66666666666666</ele><time>2026-04-11T02:48:47.987Z</time></trkpt><trkpt lat="43.21006" lon="11.50266"><ele>219.5</ele><time>2026-04-11T02:48:48.988Z</time></trkpt><trkpt lat="43.20999" lon="11.5027267"><ele>219.33333333333331</ele><time>2026-04-11T02:48:49.987Z</time></trkpt><trkpt lat="43.2099283" lon="11.5027933"><ele>219.16666666666666</ele><time>2026-04-11T02:48:50.987Z</time></trkpt><trkpt lat="43.2098617" lon="11.502865"><ele>219.0</ele><time>2026-04-11T02:48:51.987Z</time></trkpt><trkpt lat="43.209795" lon="11.5029383"><ele>219.0</ele><time>2026-04-11T02:48:52.987Z</time></trkpt><trkpt lat="43.2097267" lon="11.5030167"><ele>219.0</ele><time>2026-04-11T02:48:53.987Z</time></trkpt><trkpt lat="43.20966" lon="11.503095"><ele>219.0</ele><time>2026-04-11T02:48:54.987Z</time></trkpt><trkpt lat="43.20959" lon="11.50317"><ele>219.0</ele><time>2026-04-11T02:48:55.988Z</time></trkpt><trkpt lat="43.2095283" lon="11.5032433"><ele>219.0</ele><time>2026-04-11T02:48:56.987Z</time></trkpt><trkpt lat="43.2094633" lon="11.50332"><ele>219.0</ele><time>2026-04-11T02:48:57.987Z</time></trkpt><trkpt lat="43.2094" lon="11.5033917"><ele>219.0</ele><time>2026-04-11T02:48:58.987Z</time></trkpt><trkpt lat="43.2093467" lon="11.5034683"><ele>219.0</ele><time>2026-04-11T02:48:59.987Z</time></trkpt><trkpt lat="43.2092883" lon="11.5035517"><ele>219.0</ele><time>2026-04-11T02:49:00.987Z</time></trkpt><trkpt lat="43.2092317" lon="11.503635"><ele>219.0</ele><time>2026-04-11T02:49:01.987Z</time></trkpt><trkpt lat="43.209185" lon="11.50373"><ele>219.0</ele><time>2026-04-11T02:49:02.988Z</time></trkpt><trkpt lat="43.2091283" lon="11.5038217"><ele>219.0</ele><time>2026-04-11T02:49:03.987Z</time></trkpt><trkpt lat="43.2090783" lon="11.5039217"><ele>217.16666666666666</ele><time>2026-04-11T02:49:04.987Z</time></trkpt><trkpt lat="43.2090317" lon="11.5040117"><ele>215.33333333333331</ele><time>2026-04-11T02:49:05.987Z</time></trkpt><trkpt lat="43.20899" lon="11.5041"><ele>213.5</ele><time>2026-04-11T02:49:06.987Z</time></trkpt><trkpt lat="43.2089467" lon="11.5041833"><ele>211.66666666666666</ele><time>2026-04-11T02:49:07.987Z</time></trkpt><trkpt lat="43.2089" lon="11.5042667"><ele>209.83333333333331</ele><time>2026-04-11T02:49:08.987Z</time></trkpt><trkpt lat="43.20884" lon="11.5043517"><ele>208.0</ele><time>2026-04-11T02:49:09.987Z</time></trkpt><trkpt lat="43.2087833" lon="11.50443"><ele>207.99999999999997</ele><time>2026-04-11T02:49:10.987Z</time></trkpt><trkpt lat="43.208715" lon="11.5044917"><ele>208.0</ele><time>2026-04-11T02:49:11.987Z</time></trkpt><trkpt lat="43.20866" lon="11.50454"><ele>208.0</ele><time>2026-04-11T02:49:12.988Z</time></trkpt><trkpt lat="43.2085983" lon="11.5045867"><ele>208.0</ele><time>2026-04-11T02:49:13.987Z</time></trkpt><trkpt lat="43.2085233" lon="11.5046133"><ele>207.99999999999997</ele><time>2026-04-11T02:49:14.988Z</time></trkpt><trkpt lat="43.2084367" lon="11.50463"><ele>208.0</ele><time>2026-04-11T02:49:15.987Z</time></trkpt><trkpt lat="43.2083517" lon="11.5046417"><ele>205.33333333333331</ele><time>2026-04-11T02:49:16.987Z</time></trkpt><trkpt lat="43.2082733" lon="11.5046433"><ele>202.66666666666666</ele><time>2026-04-11T02:49:17.987Z</time></trkpt><trkpt lat="43.208195" lon="11.5046467"><ele>200.0</ele><time>2026-04-11T02:49:18.987Z</time></trkpt><trkpt lat="43.2081233" lon="11.50464"><ele>197.33333333333331</ele><time>2026-04-11T02:49:19.987Z</time></trkpt><trkpt lat="43.2080483" lon="11.5046283"><ele>194.66666666666666</ele><time>2026-04-11T02:49:20.987Z</time></trkpt><trkpt lat="43.2079783" lon="11.504605"><ele>192.0</ele><time>2026-04-11T02:49:21.987Z</time></trkpt><trkpt lat="43.2078717" lon="11.5045817"><ele>190.33333333333334</ele><time>2026-04-11T02:49:23.987Z</time></trkpt><trkpt lat="43.2078" lon="11.5046067"><ele>188.66666666666666</ele><time>2026-04-11T02:49:25.987Z</time></trkpt><trkpt lat="43.2077817" lon="11.5047233"><ele>187.0</ele><time>2026-04-11T02:49:28.987Z</time></trkpt><trkpt lat="43.2078517" lon="11.5047633"><ele>185.33333333333331</ele><time>2026-04-11T02:49:30.987Z</time></trkpt><trkpt lat="43.2079617" lon="11.504805"><ele>183.66666666666666</ele><time>2026-04-11T02:49:32.987Z</time></trkpt><trkpt lat="43.2080317" lon="11.5048333"><ele>182.0</ele><time>2026-04-11T02:49:33.987Z</time></trkpt><trkpt lat="43.208095" lon="11.5048667"><ele>182.0</ele><time>2026-04-11T02:49:34.988Z</time></trkpt><trkpt lat="43.2081567" lon="11.5048983"><ele>182.0</ele><time>2026-04-11T02:49:35.988Z</time></trkpt><trkpt lat="43.2082217" lon="11.5049283"><ele>182.0</ele><time>2026-04-11T02:49:36.987Z</time></trkpt><trkpt lat="43.2082867" lon="11.504965"><ele>182.0</ele><time>2026-04-11T02:49:37.987Z</time></trkpt><trkpt lat="43.2083517" lon="11.5049933"><ele>182.0</ele><time>2026-04-11T02:49:38.987Z</time></trkpt><trkpt lat="43.2084683" lon="11.505025"><ele>182.0</ele><time>2026-04-11T02:49:40.987Z</time></trkpt><trkpt lat="43.2085917" lon="11.5050433"><ele>182.5</ele><time>2026-04-11T02:49:42.987Z</time></trkpt><trkpt lat="43.2086567" lon="11.505055"><ele>183.0</ele><time>2026-04-11T02:49:43.987Z</time></trkpt><trkpt lat="43.208725" lon="11.5050667"><ele>183.5</ele><time>2026-04-11T02:49:44.987Z</time></trkpt><trkpt lat="43.2087967" lon="11.505085"><ele>184.0</ele><time>2026-04-11T02:49:45.987Z</time></trkpt><trkpt lat="43.2088667" lon="11.505105"><ele>184.5</ele><time>2026-04-11T02:49:46.987Z</time></trkpt><trkpt lat="43.20899" lon="11.5051033"><ele>185.0</ele><time>2026-04-11T02:49:48.987Z</time></trkpt><trkpt lat="43.2090583" lon="11.5050883"><ele>185.0</ele><time>2026-04-11T02:49:49.988Z</time></trkpt><trkpt lat="43.2091267" lon="11.5050533"><ele>185.0</ele><time>2026-04-11T02:49:50.987Z</time></trkpt><trkpt lat="43.20924" lon="11.50498"><ele>185.0</ele><time>2026-04-11T02:49:52.987Z</time></trkpt><trkpt lat="43.209295" lon="11.5049367"><ele>185.0</ele><time>2026-04-11T02:49:53.987Z</time></trkpt><trkpt lat="43.209395" lon="11.5048683"><ele>185.0</ele><time>2026-04-11T02:49:55.988Z</time></trkpt><trkpt lat="43.2095083" lon="11.5048417"><ele>184.99999999999997</ele><time>2026-04-11T02:49:57.987Z</time></trkpt><trkpt lat="43.2095733" lon="11.50485"><ele>185.0</ele><time>2026-04-11T02:49:58.988Z</time></trkpt><trkpt lat="43.20964" lon="11.5048667"><ele>185.0</ele><time>2026-04-11T02:49:59.987Z</time></trkpt><trkpt lat="43.2097" lon="11.504895"><ele>185.0</ele><time>2026-04-11T02:50:00.987Z</time></trkpt><trkpt lat="43.2097583" lon="11.50493"><ele>185.0</ele><time>2026-04-11T02:50:01.987Z</time></trkpt><trkpt lat="43.2098183" lon="11.50498"><ele>184.99999999999997</ele><time>2026-04-11T02:50:02.988Z</time></trkpt><trkpt lat="43.2098783" lon="11.50503"><ele>185.0</ele><time>2026-04-11T02:50:03.987Z</time></trkpt><trkpt lat="43.2099367" lon="11.5050867"><ele>183.66666666666666</ele><time>2026-04-11T02:50:04.988Z</time></trkpt><trkpt lat="43.209995" lon="11.505145"><ele>182.33333333333331</ele><time>2026-04-11T02:50:05.987Z</time></trkpt><trkpt lat="43.2100583" lon="11.5052"><ele>181.0</ele><time>2026-04-11T02:50:06.988Z</time></trkpt><trkpt lat="43.2101233" lon="11.5052483"><ele>179.66666666666666</ele><time>2026-04-11T02:50:07.987Z</time></trkpt><trkpt lat="43.2101933" lon="11.50529"><ele>178.33333333333334</ele><time>2026-04-11T02:50:08.987Z</time></trkpt><trkpt lat="43.2102667" lon="11.5053217"><ele>177.0</ele><time>2026-04-11T02:50:09.987Z</time></trkpt><trkpt lat="43.2103433" lon="11.50535"><ele>177.0</ele><time>2026-04-11T02:50:10.987Z</time></trkpt><trkpt lat="43.210425" lon="11.5053733"><ele>177.0</ele><time>2026-04-11T02:50:11.987Z</time></trkpt><trkpt lat="43.2105067" lon="11.5053933"><ele>177.0</ele><time>2026-04-11T02:50:12.987Z</time></trkpt><trkpt lat="43.2105917" lon="11.5054033"><ele>177.0</ele><time>2026-04-11T02:50:13.987Z</time></trkpt><trkpt lat="43.21068" lon="11.505405"><ele>177.0</ele><time>2026-04-11T02:50:14.987Z</time></trkpt><trkpt lat="43.2107767" lon="11.5053933"><ele>177.0</ele><time>2026-04-11T02:50:15.987Z</time></trkpt><trkpt lat="43.2108667" lon="11.505365"><ele>176.5</ele><time>2026-04-11T02:50:16.987Z</time></trkpt><trkpt lat="43.21095" lon="11.5053417"><ele>176.0</ele><time>2026-04-11T02:50:17.987Z</time></trkpt><trkpt lat="43.2110317" lon="11.5053217"><ele>175.5</ele><time>2026-04-11T02:50:18.987Z</time></trkpt><trkpt lat="43.21115" lon="11.5052967"><ele>175.0</ele><time>2026-04-11T02:50:20.988Z</time></trkpt><trkpt lat="43.2112133" lon="11.5053117"><ele>174.5</ele><time>2026-04-11T02:50:21.987Z</time></trkpt><trkpt lat="43.2112683" lon="11.505355"><ele>174.0</ele><time>2026-04-11T02:50:22.989Z</time></trkpt><trkpt lat="43.2113267" lon="11.5054133"><ele>172.5</ele><time>2026-04-11T02:50:23.988Z</time></trkpt><trkpt lat="43.2113817" lon="11.50549"><ele>171.0</ele><time>2026-04-11T02:50:24.988Z</time></trkpt><trkpt lat="43.2114183" lon="11.5055817"><ele>169.5</ele><time>2026-04-11T02:50:25.988Z</time></trkpt><trkpt lat="43.2114483" lon="11.5056917"><ele>168.0</ele><time>2026-04-11T02:50:26.988Z</time></trkpt><trkpt lat="43.2114833" lon="11.5057983"><ele>166.5</ele><time>2026-04-11T02:50:27.988Z</time></trkpt><trkpt lat="43.211515" lon="11.5059017"><ele>165.0</ele><time>2026-04-11T02:50:28.988Z</time></trkpt><trkpt lat="43.21154" lon="11.5059983"><ele>165.0</ele><time>2026-04-11T02:50:29.988Z</time></trkpt><trkpt lat="43.2115683" lon="11.5061033"><ele>165.0</ele><time>2026-04-11T02:50:30.989Z</time></trkpt><trkpt lat="43.21159" lon="11.5062017"><ele>165.0</ele><time>2026-04-11T02:50:31.988Z</time></trkpt><trkpt lat="43.2116183" lon="11.5063067"><ele>165.0</ele><time>2026-04-11T02:50:32.988Z</time></trkpt><trkpt lat="43.21164" lon="11.506395"><ele>165.0</ele><time>2026-04-11T02:50:33.988Z</time></trkpt><trkpt lat="43.211665" lon="11.5064933"><ele>165.0</ele><time>2026-04-11T02:50:34.988Z</time></trkpt><trkpt lat="43.2116883" lon="11.5065883"><ele>165.0</ele><time>2026-04-11T02:50:35.988Z</time></trkpt><trkpt lat="43.2117117" lon="11.5066783"><ele>165.0</ele><time>2026-04-11T02:50:36.988Z</time></trkpt><trkpt lat="43.2117467" lon="11.5068383"><ele>165.0</ele><time>2026-04-11T02:50:38.988Z</time></trkpt><trkpt lat="43.2117967" lon="11.5069983"><ele>165.0</ele><time>2026-04-11T02:50:40.988Z</time></trkpt><trkpt lat="43.2118217" lon="11.5070783"><ele>165.0</ele><time>2026-04-11T02:50:41.988Z</time></trkpt><trkpt lat="43.2118433" lon="11.5071667"><ele>164.83333333333334</ele><time>2026-04-11T02:50:42.988Z</time></trkpt><trkpt lat="43.211895" lon="11.5073183"><ele>164.66666666666666</ele><time>2026-04-11T02:50:44.989Z</time></trkpt><trkpt lat="43.2119217" lon="11.5073983"><ele>164.5</ele><time>2026-04-11T02:50:45.988Z</time></trkpt><trkpt lat="43.2119483" lon="11.507485"><ele>164.33333333333331</ele><time>2026-04-11T02:50:46.988Z</time></trkpt><trkpt lat="43.2119867" lon="11.5075633"><ele>164.16666666666666</ele><time>2026-04-11T02:50:47.989Z</time></trkpt><trkpt lat="43.2120333" lon="11.5076333"><ele>164.0</ele><time>2026-04-11T02:50:48.988Z</time></trkpt><trkpt lat="43.21209" lon="11.5076917"><ele>164.0</ele><time>2026-04-11T02:50:49.988Z</time></trkpt><trkpt lat="43.2121517" lon="11.5077317"><ele>164.0</ele><time>2026-04-11T02:50:50.988Z</time></trkpt><trkpt lat="43.2122217" lon="11.507765"><ele>164.0</ele><time>2026-04-11T02:50:51.988Z</time></trkpt><trkpt lat="43.212295" lon="11.5078"><ele>164.0</ele><time>2026-04-11T02:50:52.989Z</time></trkpt><trkpt lat="43.2123633" lon="11.5078333"><ele>164.0</ele><time>2026-04-11T02:50:53.988Z</time></trkpt><trkpt lat="43.212465" lon="11.50791"><ele>164.0</ele><time>2026-04-11T02:50:55.988Z</time></trkpt><trkpt lat="43.2125417" lon="11.5080183"><ele>163.66666666666666</ele><time>2026-04-11T02:50:57.988Z</time></trkpt><trkpt lat="43.2126267" lon="11.5081583"><ele>163.33333333333331</ele><time>2026-04-11T02:50:59.988Z</time></trkpt><trkpt lat="43.2126683" lon="11.5082417"><ele>163.0</ele><time>2026-04-11T02:51:00.988Z</time></trkpt><trkpt lat="43.212705" lon="11.5083217"><ele>162.66666666666666</ele><time>2026-04-11T02:51:01.988Z</time></trkpt><trkpt lat="43.2127433" lon="11.5084017"><ele>162.33333333333334</ele><time>2026-04-11T02:51:02.988Z</time></trkpt><trkpt lat="43.2127783" lon="11.508475"><ele>162.0</ele><time>2026-04-11T02:51:03.988Z</time></trkpt><trkpt lat="43.2128367" lon="11.5086033"><ele>162.0</ele><time>2026-04-11T02:51:05.988Z</time></trkpt><trkpt lat="43.2129017" lon="11.50874"><ele>162.0</ele><time>2026-04-11T02:51:07.988Z</time></trkpt><trkpt lat="43.2129383" lon="11.5088133"><ele>162.0</ele><time>2026-04-11T02:51:08.988Z</time></trkpt><trkpt lat="43.212975" lon="11.50889"><ele>162.0</ele><time>2026-04-11T02:51:09.988Z</time></trkpt><trkpt lat="43.2130117" lon="11.5089633"><ele>162.0</ele><time>2026-04-11T02:51:10.989Z</time></trkpt><trkpt lat="43.21305" lon="11.5090333"><ele>162.0</ele><time>2026-04-11T02:51:11.988Z</time></trkpt><trkpt lat="43.21311" lon="11.50917"><ele>162.16666666666666</ele><time>2026-04-11T02:51:13.988Z</time></trkpt><trkpt lat="43.2131617" lon="11.509275"><ele>162.33333333333334</ele><time>2026-04-11T02:51:15.988Z</time></trkpt><trkpt lat="43.2132067" lon="11.5093567"><ele>162.5</ele><time>2026-04-11T02:51:17.988Z</time></trkpt><trkpt lat="43.2132633" lon="11.5094583"><ele>162.66666666666669</ele><time>2026-04-11T02:51:19.988Z</time></trkpt><trkpt lat="43.213315" lon="11.5095617"><ele>162.83333333333334</ele><time>2026-04-11T02:51:21.989Z</time></trkpt><trkpt lat="43.2133583" lon="11.5096333"><ele>163.0</ele><time>2026-04-11T02:51:22.988Z</time></trkpt><trkpt lat="43.2134067" lon="11.50969"><ele>163.0</ele><time>2026-04-11T02:51:23.988Z</time></trkpt><trkpt lat="43.2134983" lon="11.509805"><ele>163.0</ele><time>2026-04-11T02:51:25.988Z</time></trkpt><trkpt lat="43.21355" lon="11.5098617"><ele>163.0</ele><time>2026-04-11T02:51:26.988Z</time></trkpt><trkpt lat="43.2136033" lon="11.5099217"><ele>163.0</ele><time>2026-04-11T02:51:27.988Z</time></trkpt><trkpt lat="43.2136567" lon="11.5099833"><ele>163.0</ele><time>2026-04-11T02:51:28.988Z</time></trkpt><trkpt lat="43.2137083" lon="11.5100517"><ele>163.0</ele><time>2026-04-11T02:51:29.988Z</time></trkpt><trkpt lat="43.21376" lon="11.5101183"><ele>163.0</ele><time>2026-04-11T02:51:30.988Z</time></trkpt><trkpt lat="43.2138083" lon="11.5101817"><ele>163.0</ele><time>2026-04-11T02:51:31.988Z</time></trkpt><trkpt lat="43.2138567" lon="11.51024"><ele>163.0</ele><time>2026-04-11T02:51:32.988Z</time></trkpt><trkpt lat="43.2139333" lon="11.5103483"><ele>163.0</ele><time>2026-04-11T02:51:34.988Z</time></trkpt><trkpt lat="43.214005" lon="11.5104633"><ele>163.0</ele><time>2026-04-11T02:51:36.988Z</time></trkpt><trkpt lat="43.2140417" lon="11.510535"><ele>163.0</ele><time>2026-04-11T02:51:37.988Z</time></trkpt><trkpt lat="43.21411" lon="11.5106733"><ele>163.25</ele><time>2026-04-11T02:51:39.988Z</time></trkpt><trkpt lat="43.2141817" lon="11.5108083"><ele>163.5</ele><time>2026-04-11T02:51:41.988Z</time></trkpt><trkpt lat="43.214235" lon="11.5109417"><ele>163.75</ele><time>2026-04-11T02:51:43.988Z</time></trkpt><trkpt lat="43.214275" lon="11.5110833"><ele>164.0</ele><time>2026-04-11T02:51:45.988Z</time></trkpt><trkpt lat="43.2142983" lon="11.5112317"><ele>164.33333333333331</ele><time>2026-04-11T02:51:47.988Z</time></trkpt><trkpt lat="43.2142983" lon="11.5113183"><ele>164.66666666666666</ele><time>2026-04-11T02:51:48.988Z</time></trkpt><trkpt lat="43.2142617" lon="11.5114667"><ele>165.0</ele><time>2026-04-11T02:51:50.988Z</time></trkpt><trkpt lat="43.2142333" lon="11.5116067"><ele>165.33333333333334</ele><time>2026-04-11T02:51:52.988Z</time></trkpt><trkpt lat="43.21422" lon="11.5117267"><ele>165.66666666666669</ele><time>2026-04-11T02:51:54.988Z</time></trkpt><trkpt lat="43.21422" lon="11.5118267"><ele>166.0</ele><time>2026-04-11T02:51:56.988Z</time></trkpt><trkpt lat="43.2142317" lon="11.5119167"><ele>166.0</ele><time>2026-04-11T02:51:58.988Z</time></trkpt><trkpt lat="43.2142533" lon="11.512035"><ele>166.0</ele><time>2026-04-11T02:52:01.988Z</time></trkpt><trkpt lat="43.214295" lon="11.512125"><ele>166.0</ele><time>2026-04-11T02:52:04.988Z</time></trkpt><trkpt lat="43.21434" lon="11.5122067"><ele>166.0</ele><time>2026-04-11T02:52:08.988Z</time></trkpt><trkpt lat="43.2144017" lon="11.5122733"><ele>166.0</ele><time>2026-04-11T02:52:12.989Z</time></trkpt><trkpt lat="43.2144733" lon="11.5123167"><ele>166.0</ele><time>2026-04-11T02:52:16.988Z</time></trkpt><trkpt lat="43.2145333" lon="11.5123533"><ele>166.28571428571428</ele><time>2026-04-11T02:52:19.988Z</time></trkpt><trkpt lat="43.2146" lon="11.5124167"><ele>166.57142857142858</ele><time>2026-04-11T02:52:23.989Z</time></trkpt><trkpt lat="43.214655" lon="11.5124733"><ele>166.85714285714286</ele><time>2026-04-11T02:52:26.989Z</time></trkpt><trkpt lat="43.2147183" lon="11.51252"><ele>167.14285714285714</ele><time>2026-04-11T02:52:29.988Z</time></trkpt><trkpt lat="43.2147833" lon="11.5125567"><ele>167.42857142857144</ele><time>2026-04-11T02:52:32.988Z</time></trkpt><trkpt lat="43.214845" lon="11.512615"><ele>167.71428571428572</ele><time>2026-04-11T02:52:35.988Z</time></trkpt><trkpt lat="43.2148967" lon="11.512685"><ele>168.0</ele><time>2026-04-11T02:52:38.988Z</time></trkpt><trkpt lat="43.214955" lon="11.5127467"><ele>169.66666666666666</ele><time>2026-04-11T02:52:41.988Z</time></trkpt><trkpt lat="43.21502" lon="11.51282"><ele>171.33333333333334</ele><time>2026-04-11T02:52:44.988Z</time></trkpt><trkpt lat="43.2150767" lon="11.51287"><ele>173.0</ele><time>2026-04-11T02:52:47.988Z</time></trkpt><trkpt lat="43.2151433" lon="11.51295"><ele>174.66666666666669</ele><time>2026-04-11T02:52:50.988Z</time></trkpt><trkpt lat="43.2151917" lon="11.5130267"><ele>176.33333333333334</ele><time>2026-04-11T02:52:53.989Z</time></trkpt><trkpt lat="43.21525" lon="11.5131067"><ele>178.0</ele><time>2026-04-11T02:52:57.988Z</time></trkpt><trkpt lat="43.2152983" lon="11.5131733"><ele>178.33333333333334</ele><time>2026-04-11T02:53:00.988Z</time></trkpt><trkpt lat="43.2153433" lon="11.51325"><ele>178.66666666666669</ele><time>2026-04-11T02:53:03.988Z</time></trkpt><trkpt lat="43.215385" lon="11.513325"><ele>179.0</ele><time>2026-04-11T02:53:06.988Z</time></trkpt><trkpt lat="43.2154267" lon="11.5134183"><ele>179.33333333333334</ele><time>2026-04-11T02:53:09.989Z</time></trkpt><trkpt lat="43.2154517" lon="11.51352"><ele>179.66666666666666</ele><time>2026-04-11T02:53:12.988Z</time></trkpt><trkpt lat="43.2154833" lon="11.513615"><ele>180.0</ele><time>2026-04-11T02:53:15.988Z</time></trkpt><trkpt lat="43.2155017" lon="11.5137183"><ele>180.33333333333334</ele><time>2026-04-11T02:53:18.988Z</time></trkpt><trkpt lat="43.2155217" lon="11.5138017"><ele>180.66666666666666</ele><time>2026-04-11T02:53:20.988Z</time></trkpt><trkpt lat="43.215535" lon="11.51393"><ele>181.0</ele><time>2026-04-11T02:53:23.988Z</time></trkpt><trkpt lat="43.2155517" lon="11.5140567"><ele>181.33333333333331</ele><time>2026-04-11T02:53:25.988Z</time></trkpt><trkpt lat="43.2155883" lon="11.5142117"><ele>181.66666666666666</ele><time>2026-04-11T02:53:27.988Z</time></trkpt><trkpt lat="43.2156183" lon="11.5143033"><ele>182.0</ele><time>2026-04-11T02:53:28.988Z</time></trkpt><trkpt lat="43.2156533" lon="11.5144133"><ele>182.33333333333331</ele><time>2026-04-11T02:53:29.988Z</time></trkpt><trkpt lat="43.215695" lon="11.51452"><ele>182.66666666666666</ele><time>2026-04-11T02:53:30.988Z</time></trkpt><trkpt lat="43.2157367" lon="11.51463"><ele>183.0</ele><time>2026-04-11T02:53:31.988Z</time></trkpt><trkpt lat="43.2157733" lon="11.514735"><ele>183.33333333333334</ele><time>2026-04-11T02:53:32.988Z</time></trkpt><trkpt lat="43.2158067" lon="11.51485"><ele>183.66666666666669</ele><time>2026-04-11T02:53:33.988Z</time></trkpt><trkpt lat="43.2158483" lon="11.5149633"><ele>184.0</ele><time>2026-04-11T02:53:34.988Z</time></trkpt><trkpt lat="43.215885" lon="11.5150733"><ele>182.0</ele><time>2026-04-11T02:53:35.988Z</time></trkpt><trkpt lat="43.21593" lon="11.515195"><ele>180.0</ele><time>2026-04-11T02:53:36.988Z</time></trkpt><trkpt lat="43.21597" lon="11.5153233"><ele>178.0</ele><time>2026-04-11T02:53:37.988Z</time></trkpt><trkpt lat="43.2160083" lon="11.5154417"><ele>176.0</ele><time>2026-04-11T02:53:38.989Z</time></trkpt><trkpt lat="43.2160517" lon="11.5155633"><ele>174.0</ele><time>2026-04-11T02:53:39.988Z</time></trkpt><trkpt lat="43.216105" lon="11.5156783"><ele>172.79999999999998</ele><time>2026-04-11T02:53:40.988Z</time></trkpt><trkpt lat="43.2161533" lon="11.5157933"><ele>171.6</ele><time>2026-04-11T02:53:41.988Z</time></trkpt><trkpt lat="43.2162017" lon="11.5158983"><ele>170.4</ele><time>2026-04-11T02:53:42.988Z</time></trkpt><trkpt lat="43.2162533" lon="11.515995"><ele>169.2</ele><time>2026-04-11T02:53:43.988Z</time></trkpt><trkpt lat="43.2163083" lon="11.5161"><ele>168.0</ele><time>2026-04-11T02:53:44.988Z</time></trkpt><trkpt lat="43.21636" lon="11.516195"><ele>168.16666666666666</ele><time>2026-04-11T02:53:45.989Z</time></trkpt><trkpt lat="43.2164133" lon="11.5162917"><ele>168.33333333333334</ele><time>2026-04-11T02:53:46.988Z</time></trkpt><trkpt lat="43.2164667" lon="11.51639"><ele>168.5</ele><time>2026-04-11T02:53:47.988Z</time></trkpt><trkpt lat="43.2165183" lon="11.5164817"><ele>168.66666666666669</ele><time>2026-04-11T02:53:48.988Z</time></trkpt><trkpt lat="43.2165683" lon="11.5165733"><ele>168.83333333333334</ele><time>2026-04-11T02:53:49.988Z</time></trkpt><trkpt lat="43.2166183" lon="11.5166733"><ele>169.0</ele><time>2026-04-11T02:53:50.988Z</time></trkpt><trkpt lat="43.2166633" lon="11.5167617"><ele>169.0</ele><time>2026-04-11T02:53:51.989Z</time></trkpt><trkpt lat="43.216705" lon="11.5168517"><ele>169.0</ele><time>2026-04-11T02:53:52.988Z</time></trkpt><trkpt lat="43.2167433" lon="11.5169267"><ele>169.0</ele><time>2026-04-11T02:53:53.988Z</time></trkpt><trkpt lat="43.2168117" lon="11.5170583"><ele>169.0</ele><time>2026-04-11T02:53:55.988Z</time></trkpt><trkpt lat="43.2168667" lon="11.517175"><ele>169.0</ele><time>2026-04-11T02:53:57.988Z</time></trkpt><trkpt lat="43.2169183" lon="11.5172983"><ele>169.16666666666669</ele><time>2026-04-11T02:53:59.988Z</time></trkpt><trkpt lat="43.2169683" lon="11.5174083"><ele>169.33333333333334</ele><time>2026-04-11T02:54:01.988Z</time></trkpt><trkpt lat="43.21701" lon="11.5175183"><ele>169.5</ele><time>2026-04-11T02:54:03.988Z</time></trkpt><trkpt lat="43.2170533" lon="11.5176183"><ele>169.66666666666666</ele><time>2026-04-11T02:54:05.988Z</time></trkpt><trkpt lat="43.2170917" lon="11.5177067"><ele>169.83333333333331</ele><time>2026-04-11T02:54:07.988Z</time></trkpt><trkpt lat="43.2171167" lon="11.517805"><ele>170.0</ele><time>2026-04-11T02:54:09.988Z</time></trkpt><trkpt lat="43.217145" lon="11.5178933"><ele>169.83333333333331</ele><time>2026-04-11T02:54:11.988Z</time></trkpt><trkpt lat="43.2171817" lon="11.517975"><ele>169.66666666666666</ele><time>2026-04-11T02:54:13.988Z</time></trkpt><trkpt lat="43.2172217" lon="11.5180633"><ele>169.5</ele><time>2026-04-11T02:54:15.988Z</time></trkpt><trkpt lat="43.2172683" lon="11.518155"><ele>169.33333333333334</ele><time>2026-04-11T02:54:17.989Z</time></trkpt><trkpt lat="43.21731" lon="11.518255"><ele>169.16666666666669</ele><time>2026-04-11T02:54:19.988Z</time></trkpt><trkpt lat="43.2173517" lon="11.5183683"><ele>169.0</ele><time>2026-04-11T02:54:21.988Z</time></trkpt><trkpt lat="43.2173917" lon="11.5185067"><ele>169.83333333333334</ele><time>2026-04-11T02:54:23.988Z</time></trkpt><trkpt lat="43.2174133" lon="11.5185917"><ele>170.66666666666669</ele><time>2026-04-11T02:54:24.989Z</time></trkpt><trkpt lat="43.2174533" lon="11.51876"><ele>171.5</ele><time>2026-04-11T02:54:26.988Z</time></trkpt><trkpt lat="43.2174717" lon="11.51885"><ele>172.33333333333334</ele><time>2026-04-11T02:54:27.988Z</time></trkpt><trkpt lat="43.217485" lon="11.51894"><ele>173.16666666666666</ele><time>2026-04-11T02:54:28.989Z</time></trkpt><trkpt lat="43.217495" lon="11.5190283"><ele>174.0</ele><time>2026-04-11T02:54:29.988Z</time></trkpt><trkpt lat="43.2175017" lon="11.519115"><ele>174.0</ele><time>2026-04-11T02:54:30.987Z</time></trkpt><trkpt lat="43.2175017" lon="11.51927"><ele>174.0</ele><time>2026-04-11T02:54:32.988Z</time></trkpt><trkpt lat="43.2174983" lon="11.51939"><ele>174.0</ele><time>2026-04-11T02:54:34.988Z</time></trkpt><trkpt lat="43.21749" lon="11.519495"><ele>174.0</ele><time>2026-04-11T02:54:36.988Z</time></trkpt><trkpt lat="43.21749" lon="11.5195867"><ele>174.0</ele><time>2026-04-11T02:54:38.988Z</time></trkpt><trkpt lat="43.2174767" lon="11.519705"><ele>174.0</ele><time>2026-04-11T02:54:41.988Z</time></trkpt><trkpt lat="43.2174817" lon="11.5198067"><ele>175.0</ele><time>2026-04-11T02:54:44.988Z</time></trkpt><trkpt lat="43.21748" lon="11.5199067"><ele>176.0</ele><time>2026-04-11T02:54:47.988Z</time></trkpt><trkpt lat="43.2174833" lon="11.5200183"><ele>177.0</ele><time>2026-04-11T02:54:51.988Z</time></trkpt><trkpt lat="43.2174733" lon="11.5201117"><ele>178.0</ele><time>2026-04-11T02:54:54.989Z</time></trkpt><trkpt lat="43.2174633" lon="11.52022"><ele>179.0</ele><time>2026-04-11T02:54:57.988Z</time></trkpt><trkpt lat="43.2174567" lon="11.5203283"><ele>180.0</ele><time>2026-04-11T02:55:00.988Z</time></trkpt><trkpt lat="43.217455" lon="11.5204367"><ele>180.7142857142857</ele><time>2026-04-11T02:55:03.988Z</time></trkpt><trkpt lat="43.21745" lon="11.52054"><ele>181.42857142857144</ele><time>2026-04-11T02:55:06.989Z</time></trkpt><trkpt lat="43.217455" lon="11.52063"><ele>182.14285714285714</ele><time>2026-04-11T02:55:09.988Z</time></trkpt><trkpt lat="43.21745" lon="11.5207183"><ele>182.85714285714283</ele><time>2026-04-11T02:55:12.988Z</time></trkpt><trkpt lat="43.2174617" lon="11.5208217"><ele>183.57142857142856</ele><time>2026-04-11T02:55:15.989Z</time></trkpt><trkpt lat="43.2174783" lon="11.5209167"><ele>184.28571428571428</ele><time>2026-04-11T02:55:18.988Z</time></trkpt><trkpt lat="43.2175233" lon="11.5210233"><ele>185.0</ele><time>2026-04-11T02:55:21.988Z</time></trkpt><trkpt lat="43.2175583" lon="11.5210967"><ele>185.0</ele><time>2026-04-11T02:55:23.988Z</time></trkpt><trkpt lat="43.2176" lon="11.5211733"><ele>185.0</ele><time>2026-04-11T02:55:25.988Z</time></trkpt><trkpt lat="43.21765" lon="11.5212433"><ele>185.0</ele><time>2026-04-11T02:55:27.988Z</time></trkpt><trkpt lat="43.21771" lon="11.5212883"><ele>185.0</ele><time>2026-04-11T02:55:29.988Z</time></trkpt><trkpt lat="43.2177817" lon="11.5213333"><ele>185.0</ele><time>2026-04-11T02:55:31.988Z</time></trkpt><trkpt lat="43.21787" lon="11.5213667"><ele>185.0</ele><time>2026-04-11T02:55:33.989Z</time></trkpt><trkpt lat="43.2179783" lon="11.5214417"><ele>185.33333333333331</ele><time>2026-04-11T02:55:35.988Z</time></trkpt><trkpt lat="43.2180767" lon="11.5215417"><ele>185.66666666666666</ele><time>2026-04-11T02:55:37.988Z</time></trkpt><trkpt lat="43.2181133" lon="11.521615"><ele>186.0</ele><time>2026-04-11T02:55:38.988Z</time></trkpt><trkpt lat="43.2181383" lon="11.5216983"><ele>186.33333333333334</ele><time>2026-04-11T02:55:39.988Z</time></trkpt><trkpt lat="43.2181633" lon="11.521795"><ele>186.66666666666669</ele><time>2026-04-11T02:55:40.989Z</time></trkpt><trkpt lat="43.2181783" lon="11.5218933"><ele>187.0</ele><time>2026-04-11T02:55:41.988Z</time></trkpt><trkpt lat="43.21819" lon="11.5219883"><ele>185.83333333333334</ele><time>2026-04-11T02:55:42.988Z</time></trkpt><trkpt lat="43.2182017" lon="11.5220817"><ele>184.66666666666669</ele><time>2026-04-11T02:55:43.989Z</time></trkpt><trkpt lat="43.21822" lon="11.5221767"><ele>183.5</ele><time>2026-04-11T02:55:44.988Z</time></trkpt><trkpt lat="43.21824" lon="11.5222767"><ele>182.33333333333334</ele><time>2026-04-11T02:55:45.988Z</time></trkpt><trkpt lat="43.218265" lon="11.5223767"><ele>181.16666666666666</ele><time>2026-04-11T02:55:46.989Z</time></trkpt><trkpt lat="43.2182933" lon="11.5224817"><ele>180.0</ele><time>2026-04-11T02:55:47.988Z</time></trkpt><trkpt lat="43.2183233" lon="11.5225883"><ele>180.0</ele><time>2026-04-11T02:55:48.988Z</time></trkpt><trkpt lat="43.218355" lon="11.5226983"><ele>180.0</ele><time>2026-04-11T02:55:49.988Z</time></trkpt><trkpt lat="43.21839" lon="11.52281"><ele>180.0</ele><time>2026-04-11T02:55:50.988Z</time></trkpt><trkpt lat="43.2184267" lon="11.5229233"><ele>180.0</ele><time>2026-04-11T02:55:51.988Z</time></trkpt><trkpt lat="43.2184667" lon="11.523035"><ele>180.0</ele><time>2026-04-11T02:55:52.988Z</time></trkpt><trkpt lat="43.21851" lon="11.52315"><ele>178.4</ele><time>2026-04-11T02:55:53.988Z</time></trkpt><trkpt lat="43.21856" lon="11.52326"><ele>176.8</ele><time>2026-04-11T02:55:54.988Z</time></trkpt><trkpt lat="43.21861" lon="11.5233667"><ele>175.2</ele><time>2026-04-11T02:55:55.988Z</time></trkpt><trkpt lat="43.2186617" lon="11.5234667"><ele>173.6</ele><time>2026-04-11T02:55:56.988Z</time></trkpt><trkpt lat="43.21872" lon="11.5235667"><ele>172.0</ele><time>2026-04-11T02:55:57.989Z</time></trkpt><trkpt lat="43.218775" lon="11.5236683"><ele>172.0</ele><time>2026-04-11T02:55:58.988Z</time></trkpt><trkpt lat="43.21883" lon="11.5237667"><ele>172.0</ele><time>2026-04-11T02:55:59.988Z</time></trkpt><trkpt lat="43.2188883" lon="11.52386"><ele>172.0</ele><time>2026-04-11T02:56:00.989Z</time></trkpt><trkpt lat="43.2189433" lon="11.5239617"><ele>172.0</ele><time>2026-04-11T02:56:01.988Z</time></trkpt><trkpt lat="43.219005" lon="11.524065"><ele>172.0</ele><time>2026-04-11T02:56:02.988Z</time></trkpt><trkpt lat="43.2190617" lon="11.524155"><ele>172.0</ele><time>2026-04-11T02:56:03.988Z</time></trkpt><trkpt lat="43.2191167" lon="11.5242483"><ele>172.0</ele><time>2026-04-11T02:56:04.988Z</time></trkpt><trkpt lat="43.2191733" lon="11.5243483"><ele>172.0</ele><time>2026-04-11T02:56:05.988Z</time></trkpt><trkpt lat="43.219225" lon="11.5244383"><ele>172.0</ele><time>2026-04-11T02:56:06.988Z</time></trkpt><trkpt lat="43.2192817" lon="11.524535"><ele>172.0</ele><time>2026-04-11T02:56:07.988Z</time></trkpt><trkpt lat="43.2193317" lon="11.52463"><ele>172.0</ele><time>2026-04-11T02:56:08.988Z</time></trkpt><trkpt lat="43.2193817" lon="11.5247233"><ele>171.0</ele><time>2026-04-11T02:56:09.988Z</time></trkpt><trkpt lat="43.21943" lon="11.5248"><ele>170.0</ele><time>2026-04-11T02:56:10.988Z</time></trkpt><trkpt lat="43.2195217" lon="11.5249083"><ele>169.0</ele><time>2026-04-11T02:56:12.988Z</time></trkpt><trkpt lat="43.2196067" lon="11.5249583"><ele>168.0</ele><time>2026-04-11T02:56:14.988Z</time></trkpt><trkpt lat="43.21969" lon="11.52498"><ele>167.0</ele><time>2026-04-11T02:56:16.988Z</time></trkpt><trkpt lat="43.2197767" lon="11.525"><ele>168.0</ele><time>2026-04-11T02:56:18.988Z</time></trkpt><trkpt lat="43.2198533" lon="11.52499"><ele>169.0</ele><time>2026-04-11T02:56:20.989Z</time></trkpt><trkpt lat="43.219925" lon="11.5249683"><ele>170.0</ele><time>2026-04-11T02:56:22.989Z</time></trkpt><trkpt lat="43.22" lon="11.5249483"><ele>171.0</ele><time>2026-04-11T02:56:24.988Z</time></trkpt><trkpt lat="43.2200717" lon="11.5249117"><ele>172.0</ele><time>2026-04-11T02:56:26.988Z</time></trkpt><trkpt lat="43.2201617" lon="11.524875"><ele>173.0</ele><time>2026-04-11T02:56:28.988Z</time></trkpt><trkpt lat="43.2202467" lon="11.5248433"><ele>173.0</ele><time>2026-04-11T02:56:30.988Z</time></trkpt><trkpt lat="43.2203417" lon="11.5248283"><ele>173.0</ele><time>2026-04-11T02:56:32.988Z</time></trkpt><trkpt lat="43.220435" lon="11.5248383"><ele>173.0</ele><time>2026-04-11T02:56:34.988Z</time></trkpt><trkpt lat="43.2205417" lon="11.52488"><ele>173.0</ele><time>2026-04-11T02:56:36.988Z</time></trkpt><trkpt lat="43.2206417" lon="11.5249483"><ele>173.0</ele><time>2026-04-11T02:56:38.988Z</time></trkpt><trkpt lat="43.2207267" lon="11.5250433"><ele>174.25</ele><time>2026-04-11T02:56:40.989Z</time></trkpt><trkpt lat="43.2208267" lon="11.5251267"><ele>175.5</ele><time>2026-04-11T02:56:42.988Z</time></trkpt><trkpt lat="43.220925" lon="11.5251967"><ele>176.75</ele><time>2026-04-11T02:56:44.989Z</time></trkpt><trkpt lat="43.221035" lon="11.5252417"><ele>178.0</ele><time>2026-04-11T02:56:46.989Z</time></trkpt><trkpt lat="43.22115" lon="11.5252633"><ele>178.0</ele><time>2026-04-11T02:56:48.989Z</time></trkpt><trkpt lat="43.2212133" lon="11.525275"><ele>178.0</ele><time>2026-04-11T02:56:49.988Z</time></trkpt><trkpt lat="43.2212783" lon="11.5252817"><ele>178.0</ele><time>2026-04-11T02:56:50.989Z</time></trkpt><trkpt lat="43.2213983" lon="11.5253083"><ele>178.0</ele><time>2026-04-11T02:56:52.989Z</time></trkpt><trkpt lat="43.2215133" lon="11.5253183"><ele>178.0</ele><time>2026-04-11T02:56:54.988Z</time></trkpt><trkpt lat="43.2216267" lon="11.5253317"><ele>179.2</ele><time>2026-04-11T02:56:56.988Z</time></trkpt><trkpt lat="43.2217433" lon="11.5253517"><ele>180.4</ele><time>2026-04-11T02:56:58.988Z</time></trkpt><trkpt lat="43.2218567" lon="11.5253767"><ele>181.6</ele><time>2026-04-11T02:57:00.988Z</time></trkpt><trkpt lat="43.2219667" lon="11.5253967"><ele>182.79999999999998</ele><time>2026-04-11T02:57:02.989Z</time></trkpt><trkpt lat="43.2220683" lon="11.52541"><ele>184.0</ele><time>2026-04-11T02:57:04.988Z</time></trkpt><trkpt lat="43.2221767" lon="11.52543"><ele>180.75</ele><time>2026-04-11T02:57:06.988Z</time></trkpt><trkpt lat="43.2222917" lon="11.5254417"><ele>177.5</ele><time>2026-04-11T02:57:08.988Z</time></trkpt><trkpt lat="43.22241" lon="11.52546"><ele>174.25</ele><time>2026-04-11T02:57:10.988Z</time></trkpt><trkpt lat="43.2225267" lon="11.525465"><ele>171.0</ele><time>2026-04-11T02:57:12.988Z</time></trkpt><trkpt lat="43.2226483" lon="11.5254783"><ele>170.66666666666666</ele><time>2026-04-11T02:57:14.988Z</time></trkpt><trkpt lat="43.222715" lon="11.525505"><ele>170.33333333333334</ele><time>2026-04-11T02:57:15.988Z</time></trkpt><trkpt lat="43.2228183" lon="11.52556"><ele>170.0</ele><time>2026-04-11T02:57:17.988Z</time></trkpt><trkpt lat="43.222895" lon="11.5256067"><ele>169.66666666666669</ele><time>2026-04-11T02:57:19.988Z</time></trkpt><trkpt lat="43.2229667" lon="11.5256717"><ele>169.33333333333334</ele><time>2026-04-11T02:57:21.989Z</time></trkpt><trkpt lat="43.223045" lon="11.5257433"><ele>169.0</ele><time>2026-04-11T02:57:23.988Z</time></trkpt><trkpt lat="43.2231283" lon="11.525805"><ele>170.39999999999998</ele><time>2026-04-11T02:57:25.988Z</time></trkpt><trkpt lat="43.2232117" lon="11.525845"><ele>171.8</ele><time>2026-04-11T02:57:27.988Z</time></trkpt><trkpt lat="43.2233017" lon="11.5258717"><ele>173.2</ele><time>2026-04-11T02:57:29.988Z</time></trkpt><trkpt lat="43.223405" lon="11.5258817"><ele>174.60000000000002</ele><time>2026-04-11T02:57:31.989Z</time></trkpt><trkpt lat="43.2234683" lon="11.5258883"><ele>176.0</ele><time>2026-04-11T02:57:32.988Z</time></trkpt><trkpt lat="43.223575" lon="11.5259033"><ele>176.0</ele><time>2026-04-11T02:57:34.989Z</time></trkpt><trkpt lat="43.2236917" lon="11.5259083"><ele>176.0</ele><time>2026-04-11T02:57:36.988Z</time></trkpt><trkpt lat="43.223815" lon="11.5259067"><ele>176.0</ele><time>2026-04-11T02:57:38.988Z</time></trkpt><trkpt lat="43.2238783" lon="11.5259083"><ele>176.0</ele><time>2026-04-11T02:57:39.988Z</time></trkpt><trkpt lat="43.2239467" lon="11.5259067"><ele>176.0</ele><time>2026-04-11T02:57:40.988Z</time></trkpt><trkpt lat="43.2240133" lon="11.5259067"><ele>176.0</ele><time>2026-04-11T02:57:41.989Z</time></trkpt><trkpt lat="43.2240833" lon="11.52591"><ele>176.14285714285714</ele><time>2026-04-11T02:57:42.988Z</time></trkpt><trkpt lat="43.224155" lon="11.5259017"><ele>176.28571428571428</ele><time>2026-04-11T02:57:43.988Z</time></trkpt><trkpt lat="43.2242267" lon="11.5258933"><ele>176.42857142857144</ele><time>2026-04-11T02:57:44.988Z</time></trkpt><trkpt lat="43.2242983" lon="11.52589"><ele>176.57142857142856</ele><time>2026-04-11T02:57:45.988Z</time></trkpt><trkpt lat="43.2243717" lon="11.525895"><ele>176.7142857142857</ele><time>2026-04-11T02:57:46.988Z</time></trkpt><trkpt lat="43.2244483" lon="11.5259017"><ele>176.85714285714286</ele><time>2026-04-11T02:57:47.988Z</time></trkpt><trkpt lat="43.2245167" lon="11.5259117"><ele>177.0</ele><time>2026-04-11T02:57:48.988Z</time></trkpt><trkpt lat="43.2245867" lon="11.5259283"><ele>177.0</ele><time>2026-04-11T02:57:49.988Z</time></trkpt><trkpt lat="43.224655" lon="11.5259533"><ele>177.0</ele><time>2026-04-11T02:57:50.989Z</time></trkpt><trkpt lat="43.2247267" lon="11.5259767"><ele>177.0</ele><time>2026-04-11T02:57:51.988Z</time></trkpt><trkpt lat="43.2248483" lon="11.5260183"><ele>177.0</ele><time>2026-04-11T02:57:53.988Z</time></trkpt><trkpt lat="43.2249633" lon="11.52604"><ele>177.0</ele><time>2026-04-11T02:57:55.988Z</time></trkpt><trkpt lat="43.2250267" lon="11.5260483"><ele>177.0</ele><time>2026-04-11T02:57:56.988Z</time></trkpt><trkpt lat="43.2250867" lon="11.526075"><ele>177.6</ele><time>2026-04-11T02:57:57.988Z</time></trkpt><trkpt lat="43.2251967" lon="11.5261067"><ele>178.2</ele><time>2026-04-11T02:57:59.988Z</time></trkpt><trkpt lat="43.2253083" lon="11.5261433"><ele>178.8</ele><time>2026-04-11T02:58:01.988Z</time></trkpt><trkpt lat="43.2254167" lon="11.5261717"><ele>179.4</ele><time>2026-04-11T02:58:03.988Z</time></trkpt><trkpt lat="43.2255233" lon="11.526205"><ele>180.0</ele><time>2026-04-11T02:58:05.988Z</time></trkpt><trkpt lat="43.2256183" lon="11.5262517"><ele>179.16666666666666</ele><time>2026-04-11T02:58:07.988Z</time></trkpt><trkpt lat="43.22571" lon="11.52629"><ele>178.33333333333334</ele><time>2026-04-11T02:58:09.988Z</time></trkpt><trkpt lat="43.225795" lon="11.52631"><ele>177.5</ele><time>2026-04-11T02:58:11.989Z</time></trkpt><trkpt lat="43.2258717" lon="11.526345"><ele>176.66666666666669</ele><time>2026-04-11T02:58:13.988Z</time></trkpt><trkpt lat="43.2259667" lon="11.5263683"><ele>175.83333333333334</ele><time>2026-04-11T02:58:16.988Z</time></trkpt><trkpt lat="43.2260367" lon="11.5263617"><ele>175.0</ele><time>2026-04-11T02:58:18.988Z</time></trkpt><trkpt lat="43.22611" lon="11.5263517"><ele>175.0</ele><time>2026-04-11T02:58:20.988Z</time></trkpt><trkpt lat="43.22618" lon="11.5263433"><ele>175.0</ele><time>2026-04-11T02:58:22.988Z</time></trkpt><trkpt lat="43.2262533" lon="11.5263333"><ele>175.0</ele><time>2026-04-11T02:58:24.988Z</time></trkpt><trkpt lat="43.2263317" lon="11.526315"><ele>175.0</ele><time>2026-04-11T02:58:26.988Z</time></trkpt><trkpt lat="43.2264083" lon="11.5263067"><ele>175.0</ele><time>2026-04-11T02:58:28.988Z</time></trkpt><trkpt lat="43.2265" lon="11.5262917"><ele>175.0</ele><time>2026-04-11T02:58:30.988Z</time></trkpt><trkpt lat="43.2265983" lon="11.52628"><ele>175.4</ele><time>2026-04-11T02:58:32.988Z</time></trkpt><trkpt lat="43.2267083" lon="11.5262683"><ele>175.8</ele><time>2026-04-11T02:58:34.988Z</time></trkpt><trkpt lat="43.22683" lon="11.5262633"><ele>176.2</ele><time>2026-04-11T02:58:36.988Z</time></trkpt><trkpt lat="43.2269033" lon="11.52626"><ele>176.6</ele><time>2026-04-11T02:58:37.988Z</time></trkpt><trkpt lat="43.2269783" lon="11.52627"><ele>177.0</ele><time>2026-04-11T02:58:38.989Z</time></trkpt><trkpt lat="43.2270583" lon="11.5262867"><ele>177.0</ele><time>2026-04-11T02:58:39.988Z</time></trkpt><trkpt lat="43.22714" lon="11.52631"><ele>177.0</ele><time>2026-04-11T02:58:40.988Z</time></trkpt><trkpt lat="43.227215" lon="11.5263317"><ele>177.0</ele><time>2026-04-11T02:58:41.988Z</time></trkpt><trkpt lat="43.22728" lon="11.5263783"><ele>177.0</ele><time>2026-04-11T02:58:42.988Z</time></trkpt><trkpt lat="43.2273367" lon="11.526435"><ele>177.0</ele><time>2026-04-11T02:58:43.988Z</time></trkpt><trkpt lat="43.2273983" lon="11.526505"><ele>177.0</ele><time>2026-04-11T02:58:44.988Z</time></trkpt><trkpt lat="43.2274617" lon="11.5265867"><ele>176.33333333333334</ele><time>2026-04-11T02:58:45.988Z</time></trkpt><trkpt lat="43.227525" lon="11.52666"><ele>175.66666666666666</ele><time>2026-04-11T02:58:46.988Z</time></trkpt><trkpt lat="43.2275883" lon="11.5267367"><ele>175.0</ele><time>2026-04-11T02:58:47.988Z</time></trkpt><trkpt lat="43.2276533" lon="11.52682"><ele>174.33333333333331</ele><time>2026-04-11T02:58:48.989Z</time></trkpt><trkpt lat="43.2277167" lon="11.5268967"><ele>173.66666666666666</ele><time>2026-04-11T02:58:49.988Z</time></trkpt><trkpt lat="43.2277817" lon="11.5269583"><ele>173.0</ele><time>2026-04-11T02:58:50.988Z</time></trkpt><trkpt lat="43.2278517" lon="11.527025"><ele>172.83333333333331</ele><time>2026-04-11T02:58:51.988Z</time></trkpt><trkpt lat="43.227925" lon="11.527085"><ele>172.66666666666666</ele><time>2026-04-11T02:58:52.988Z</time></trkpt><trkpt lat="43.2280017" lon="11.5271433"><ele>172.5</ele><time>2026-04-11T02:58:53.988Z</time></trkpt><trkpt lat="43.2280767" lon="11.5271917"><ele>172.33333333333334</ele><time>2026-04-11T02:58:54.988Z</time></trkpt><trkpt lat="43.2281533" lon="11.5272383"><ele>172.16666666666669</ele><time>2026-04-11T02:58:55.988Z</time></trkpt><trkpt lat="43.22823" lon="11.5272783"><ele>172.0</ele><time>2026-04-11T02:58:56.988Z</time></trkpt><trkpt lat="43.2283083" lon="11.52731"><ele>171.33333333333334</ele><time>2026-04-11T02:58:57.988Z</time></trkpt><trkpt lat="43.2283817" lon="11.527345"><ele>170.66666666666669</ele><time>2026-04-11T02:58:58.988Z</time></trkpt><trkpt lat="43.2284583" lon="11.52738"><ele>170.0</ele><time>2026-04-11T02:58:59.989Z</time></trkpt><trkpt lat="43.2285317" lon="11.5274083"><ele>169.33333333333334</ele><time>2026-04-11T02:59:00.988Z</time></trkpt><trkpt lat="43.2286" lon="11.5274417"><ele>168.66666666666666</ele><time>2026-04-11T02:59:01.988Z</time></trkpt><trkpt lat="43.2286717" lon="11.5274867"><ele>168.0</ele><time>2026-04-11T02:59:02.988Z</time></trkpt><trkpt lat="43.228735" lon="11.5275367"><ele>168.0</ele><time>2026-04-11T02:59:03.989Z</time></trkpt><trkpt lat="43.2287933" lon="11.52759"><ele>168.0</ele><time>2026-04-11T02:59:04.988Z</time></trkpt><trkpt lat="43.2288517" lon="11.5276533"><ele>168.0</ele><time>2026-04-11T02:59:05.988Z</time></trkpt><trkpt lat="43.228905" lon="11.52772"><ele>168.0</ele><time>2026-04-11T02:59:06.988Z</time></trkpt><trkpt lat="43.2289917" lon="11.52782"><ele>168.0</ele><time>2026-04-11T02:59:08.988Z</time></trkpt><trkpt lat="43.2290733" lon="11.5279333"><ele>168.0</ele><time>2026-04-11T02:59:10.988Z</time></trkpt><trkpt lat="43.2291417" lon="11.5280383"><ele>169.0</ele><time>2026-04-11T02:59:12.988Z</time></trkpt><trkpt lat="43.229205" lon="11.5281083"><ele>170.0</ele><time>2026-04-11T02:59:14.988Z</time></trkpt><trkpt lat="43.2292667" lon="11.5281817"><ele>171.0</ele><time>2026-04-11T02:59:16.988Z</time></trkpt><trkpt lat="43.2293233" lon="11.52825"><ele>172.0</ele><time>2026-04-11T02:59:18.988Z</time></trkpt><trkpt lat="43.2293767" lon="11.5283133"><ele>173.0</ele><time>2026-04-11T02:59:20.988Z</time></trkpt><trkpt lat="43.2294433" lon="11.5283767"><ele>174.0</ele><time>2026-04-11T02:59:23.989Z</time></trkpt><trkpt lat="43.22952" lon="11.52845"><ele>174.0</ele><time>2026-04-11T02:59:26.989Z</time></trkpt><trkpt lat="43.2295817" lon="11.5285067"><ele>174.0</ele><time>2026-04-11T02:59:28.988Z</time></trkpt><trkpt lat="43.2296317" lon="11.52856"><ele>174.0</ele><time>2026-04-11T02:59:30.989Z</time></trkpt><trkpt lat="43.2296867" lon="11.5286083"><ele>174.0</ele><time>2026-04-11T02:59:32.988Z</time></trkpt><trkpt lat="43.229765" lon="11.52865"><ele>174.0</ele><time>2026-04-11T02:59:35.988Z</time></trkpt><trkpt lat="43.22985" lon="11.5286983"><ele>174.0</ele><time>2026-04-11T02:59:38.988Z</time></trkpt><trkpt lat="43.2299267" lon="11.5287683"><ele>174.33333333333334</ele><time>2026-04-11T02:59:40.988Z</time></trkpt><trkpt lat="43.2300167" lon="11.528865"><ele>174.66666666666666</ele><time>2026-04-11T02:59:42.988Z</time></trkpt><trkpt lat="43.2300633" lon="11.5289233"><ele>175.0</ele><time>2026-04-11T02:59:43.988Z</time></trkpt><trkpt lat="43.23011" lon="11.5289883"><ele>175.33333333333331</ele><time>2026-04-11T02:59:44.988Z</time></trkpt><trkpt lat="43.2301567" lon="11.52906"><ele>175.66666666666666</ele><time>2026-04-11T02:59:45.988Z</time></trkpt><trkpt lat="43.2302067" lon="11.5291317"><ele>176.0</ele><time>2026-04-11T02:59:46.988Z</time></trkpt><trkpt lat="43.23026" lon="11.5292017"><ele>176.0</ele><time>2026-04-11T02:59:47.988Z</time></trkpt><trkpt lat="43.2303167" lon="11.529275"><ele>176.0</ele><time>2026-04-11T02:59:48.988Z</time></trkpt><trkpt lat="43.2303733" lon="11.529345"><ele>176.0</ele><time>2026-04-11T02:59:49.989Z</time></trkpt><trkpt lat="43.2304333" lon="11.529425"><ele>176.0</ele><time>2026-04-11T02:59:50.988Z</time></trkpt><trkpt lat="43.2304967" lon="11.5295033"><ele>176.0</ele><time>2026-04-11T02:59:51.988Z</time></trkpt><trkpt lat="43.23056" lon="11.5295833"><ele>176.0</ele><time>2026-04-11T02:59:52.989Z</time></trkpt><trkpt lat="43.2306183" lon="11.5296633"><ele>175.33333333333331</ele><time>2026-04-11T02:59:53.988Z</time></trkpt><trkpt lat="43.2306783" lon="11.5297467"><ele>174.66666666666666</ele><time>2026-04-11T02:59:54.988Z</time></trkpt><trkpt lat="43.2307433" lon="11.5298417"><ele>174.0</ele><time>2026-04-11T02:59:55.988Z</time></trkpt><trkpt lat="43.2308033" lon="11.52992"><ele>173.33333333333334</ele><time>2026-04-11T02:59:56.988Z</time></trkpt><trkpt lat="43.2308633" lon="11.5300017"><ele>172.66666666666669</ele><time>2026-04-11T02:59:57.988Z</time></trkpt><trkpt lat="43.2309283" lon="11.5300967"><ele>172.0</ele><time>2026-04-11T02:59:58.989Z</time></trkpt><trkpt lat="43.230995" lon="11.5301917"><ele>172.0</ele><time>2026-04-11T02:59:59.988Z</time></trkpt><trkpt lat="43.2310533" lon="11.5302867"><ele>172.0</ele><time>2026-04-11T03:00:00.988Z</time></trkpt><trkpt lat="43.23111" lon="11.53038"><ele>172.0</ele><time>2026-04-11T03:00:01.988Z</time></trkpt><trkpt lat="43.2311633" lon="11.5304783"><ele>172.0</ele><time>2026-04-11T03:00:02.989Z</time></trkpt><trkpt lat="43.2312117" lon="11.530575"><ele>172.0</ele><time>2026-04-11T03:00:03.988Z</time></trkpt><trkpt lat="43.2312583" lon="11.530675"><ele>172.0</ele><time>2026-04-11T03:00:04.988Z</time></trkpt><trkpt lat="43.2313067" lon="11.5307883"><ele>171.66666666666669</ele><time>2026-04-11T03:00:05.988Z</time></trkpt><trkpt lat="43.2313467" lon="11.5308933"><ele>171.33333333333334</ele><time>2026-04-11T03:00:06.988Z</time></trkpt><trkpt lat="43.231385" lon="11.5309967"><ele>171.0</ele><time>2026-04-11T03:00:07.988Z</time></trkpt><trkpt lat="43.23142" lon="11.53109"><ele>170.66666666666666</ele><time>2026-04-11T03:00:08.988Z</time></trkpt><trkpt lat="43.231445" lon="11.531175"><ele>170.33333333333331</ele><time>2026-04-11T03:00:09.988Z</time></trkpt><trkpt lat="43.2314883" lon="11.53134"><ele>170.0</ele><time>2026-04-11T03:00:11.988Z</time></trkpt><trkpt lat="43.2315117" lon="11.5314367"><ele>170.0</ele><time>2026-04-11T03:00:12.988Z</time></trkpt><trkpt lat="43.2315283" lon="11.5315283"><ele>170.0</ele><time>2026-04-11T03:00:13.988Z</time></trkpt><trkpt lat="43.231545" lon="11.5316133"><ele>170.0</ele><time>2026-04-11T03:00:14.988Z</time></trkpt><trkpt lat="43.2315667" lon="11.5317067"><ele>170.0</ele><time>2026-04-11T03:00:15.988Z</time></trkpt><trkpt lat="43.231585" lon="11.5317983"><ele>170.0</ele><time>2026-04-11T03:00:16.989Z</time></trkpt><trkpt lat="43.2316067" lon="11.53197"><ele>170.0</ele><time>2026-04-11T03:00:18.988Z</time></trkpt><trkpt lat="43.2316383" lon="11.53213"><ele>170.0</ele><time>2026-04-11T03:00:20.988Z</time></trkpt><trkpt lat="43.2316717" lon="11.5322717"><ele>170.0</ele><time>2026-04-11T03:00:22.988Z</time></trkpt><trkpt lat="43.2317" lon="11.5324217"><ele>170.0</ele><time>2026-04-11T03:00:24.988Z</time></trkpt><trkpt lat="43.231725" lon="11.5325733"><ele>170.0</ele><time>2026-04-11T03:00:26.988Z</time></trkpt><trkpt lat="43.2317533" lon="11.5327217"><ele>170.0</ele><time>2026-04-11T03:00:28.988Z</time></trkpt><trkpt lat="43.2317867" lon="11.53288"><ele>170.0</ele><time>2026-04-11T03:00:30.989Z</time></trkpt><trkpt lat="43.23181" lon="11.5330283"><ele>170.0</ele><time>2026-04-11T03:00:32.988Z</time></trkpt><trkpt lat="43.2318383" lon="11.5331683"><ele>170.0</ele><time>2026-04-11T03:00:34.988Z</time></trkpt><trkpt lat="43.23187" lon="11.53331"><ele>170.0</ele><time>2026-04-11T03:00:36.988Z</time></trkpt><trkpt lat="43.2319017" lon="11.5334633"><ele>170.0</ele><time>2026-04-11T03:00:38.989Z</time></trkpt><trkpt lat="43.2319317" lon="11.5336067"><ele>169.6</ele><time>2026-04-11T03:00:40.988Z</time></trkpt><trkpt lat="43.2319633" lon="11.5337483"><ele>169.2</ele><time>2026-04-11T03:00:42.988Z</time></trkpt><trkpt lat="43.2320067" lon="11.5338833"><ele>168.8</ele><time>2026-04-11T03:00:44.989Z</time></trkpt><trkpt lat="43.2320583" lon="11.5340117"><ele>168.4</ele><time>2026-04-11T03:00:46.988Z</time></trkpt><trkpt lat="43.23212" lon="11.5341417"><ele>168.0</ele><time>2026-04-11T03:00:48.988Z</time></trkpt><trkpt lat="43.2322017" lon="11.5342567"><ele>168.0</ele><time>2026-04-11T03:00:50.988Z</time></trkpt><trkpt lat="43.2322867" lon="11.534365"><ele>168.0</ele><time>2026-04-11T03:00:52.988Z</time></trkpt><trkpt lat="43.2323817" lon="11.53446"><ele>168.0</ele><time>2026-04-11T03:00:54.988Z</time></trkpt><trkpt lat="43.232475" lon="11.5345467"><ele>168.0</ele><time>2026-04-11T03:00:56.988Z</time></trkpt><trkpt lat="43.2325333" lon="11.5345883"><ele>168.0</ele><time>2026-04-11T03:00:57.988Z</time></trkpt><trkpt lat="43.2326417" lon="11.5346583"><ele>168.4</ele><time>2026-04-11T03:00:59.989Z</time></trkpt><trkpt lat="43.2327483" lon="11.5347367"><ele>168.8</ele><time>2026-04-11T03:01:01.988Z</time></trkpt><trkpt lat="43.2328033" lon="11.53478"><ele>169.2</ele><time>2026-04-11T03:01:02.988Z</time></trkpt><trkpt lat="43.2328567" lon="11.5348283"><ele>169.6</ele><time>2026-04-11T03:01:03.988Z</time></trkpt><trkpt lat="43.232955" lon="11.5348967"><ele>170.0</ele><time>2026-04-11T03:01:05.988Z</time></trkpt><trkpt lat="43.2330633" lon="11.5349683"><ele>171.0</ele><time>2026-04-11T03:01:07.989Z</time></trkpt><trkpt lat="43.2331617" lon="11.53503"><ele>172.0</ele><time>2026-04-11T03:01:09.988Z</time></trkpt><trkpt lat="43.23326" lon="11.5351017"><ele>173.0</ele><time>2026-04-11T03:01:11.988Z</time></trkpt><trkpt lat="43.23336" lon="11.5351867"><ele>174.0</ele><time>2026-04-11T03:01:13.989Z</time></trkpt><trkpt lat="43.2334633" lon="11.5352833"><ele>172.75</ele><time>2026-04-11T03:01:15.988Z</time></trkpt><trkpt lat="43.2335583" lon="11.5353967"><ele>171.5</ele><time>2026-04-11T03:01:17.988Z</time></trkpt><trkpt lat="43.23364" lon="11.5355083"><ele>170.25</ele><time>2026-04-11T03:01:19.988Z</time></trkpt><trkpt lat="43.233715" lon="11.5356217"><ele>169.0</ele><time>2026-04-11T03:01:21.988Z</time></trkpt><trkpt lat="43.23379" lon="11.5357483"><ele>169.0</ele><time>2026-04-11T03:01:23.989Z</time></trkpt><trkpt lat="43.2338667" lon="11.5358983"><ele>169.0</ele><time>2026-04-11T03:01:25.988Z</time></trkpt><trkpt lat="43.233905" lon="11.5359717"><ele>169.0</ele><time>2026-04-11T03:01:26.989Z</time></trkpt><trkpt lat="43.2339417" lon="11.5360483"><ele>169.0</ele><time>2026-04-11T03:01:27.988Z</time></trkpt><trkpt lat="43.23398" lon="11.53612"><ele>169.0</ele><time>2026-04-11T03:01:28.988Z</time></trkpt><trkpt lat="43.2340217" lon="11.53619"><ele>169.0</ele><time>2026-04-11T03:01:29.988Z</time></trkpt><trkpt lat="43.234085" lon="11.5363167"><ele>169.75</ele><time>2026-04-11T03:01:31.988Z</time></trkpt><trkpt lat="43.234155" lon="11.5364367"><ele>170.5</ele><time>2026-04-11T03:01:33.988Z</time></trkpt><trkpt lat="43.2342267" lon="11.53656"><ele>171.25</ele><time>2026-04-11T03:01:35.988Z</time></trkpt><trkpt lat="43.2342917" lon="11.53668"><ele>172.0</ele><time>2026-04-11T03:01:37.988Z</time></trkpt><trkpt lat="43.23436" lon="11.53682"><ele>172.0</ele><time>2026-04-11T03:01:39.988Z</time></trkpt><trkpt lat="43.2344233" lon="11.5369467"><ele>172.0</ele><time>2026-04-11T03:01:41.988Z</time></trkpt><trkpt lat="43.234485" lon="11.5370833"><ele>172.0</ele><time>2026-04-11T03:01:43.988Z</time></trkpt><trkpt lat="43.23455" lon="11.5372233"><ele>172.0</ele><time>2026-04-11T03:01:45.988Z</time></trkpt><trkpt lat="43.2346183" lon="11.53734"><ele>172.0</ele><time>2026-04-11T03:01:47.988Z</time></trkpt><trkpt lat="43.2346517" lon="11.5374167"><ele>172.0</ele><time>2026-04-11T03:01:48.988Z</time></trkpt><trkpt lat="43.2347167" lon="11.5375417"><ele>172.0</ele><time>2026-04-11T03:01:50.988Z</time></trkpt><trkpt lat="43.2347867" lon="11.537655"><ele>172.0</ele><time>2026-04-11T03:01:52.988Z</time></trkpt><trkpt lat="43.2348533" lon="11.5377767"><ele>172.0</ele><time>2026-04-11T03:01:54.988Z</time></trkpt><trkpt lat="43.2349267" lon="11.5379033"><ele>172.5</ele><time>2026-04-11T03:01:56.988Z</time></trkpt><trkpt lat="43.2349967" lon="11.5380317"><ele>173.0</ele><time>2026-04-11T03:01:58.988Z</time></trkpt><trkpt lat="43.23507" lon="11.5381667"><ele>173.5</ele><time>2026-04-11T03:02:00.988Z</time></trkpt><trkpt lat="43.2351517" lon="11.5382833"><ele>174.0</ele><time>2026-04-11T03:02:02.988Z</time></trkpt><trkpt lat="43.23522" lon="11.5384133"><ele>174.0</ele><time>2026-04-11T03:02:04.989Z</time></trkpt><trkpt lat="43.235285" lon="11.5385583"><ele>174.0</ele><time>2026-04-11T03:02:06.988Z</time></trkpt><trkpt lat="43.23532" lon="11.5386367"><ele>174.0</ele><time>2026-04-11T03:02:07.989Z</time></trkpt><trkpt lat="43.2353617" lon="11.5387067"><ele>174.0</ele><time>2026-04-11T03:02:08.988Z</time></trkpt><trkpt lat="43.2354367" lon="11.538845"><ele>174.0</ele><time>2026-04-11T03:02:10.988Z</time></trkpt><trkpt lat="43.2355133" lon="11.538985"><ele>173.79999999999998</ele><time>2026-04-11T03:02:12.988Z</time></trkpt><trkpt lat="43.23555" lon="11.5390583"><ele>173.6</ele><time>2026-04-11T03:02:13.989Z</time></trkpt><trkpt lat="43.2356183" lon="11.53919"><ele>173.4</ele><time>2026-04-11T03:02:15.988Z</time></trkpt><trkpt lat="43.2356867" lon="11.5393367"><ele>173.2</ele><time>2026-04-11T03:02:17.988Z</time></trkpt><trkpt lat="43.2357633" lon="11.539475"><ele>173.0</ele><time>2026-04-11T03:02:19.988Z</time></trkpt><trkpt lat="43.2358017" lon="11.5395517"><ele>173.28571428571428</ele><time>2026-04-11T03:02:20.988Z</time></trkpt><trkpt lat="43.2358383" lon="11.539645"><ele>173.57142857142858</ele><time>2026-04-11T03:02:21.988Z</time></trkpt><trkpt lat="43.235865" lon="11.5397283"><ele>173.85714285714286</ele><time>2026-04-11T03:02:22.988Z</time></trkpt><trkpt lat="43.235885" lon="11.5398133"><ele>174.14285714285714</ele><time>2026-04-11T03:02:23.988Z</time></trkpt><trkpt lat="43.2358967" lon="11.5399033"><ele>174.42857142857144</ele><time>2026-04-11T03:02:24.988Z</time></trkpt><trkpt lat="43.2359" lon="11.5400017"><ele>174.71428571428572</ele><time>2026-04-11T03:02:25.989Z</time></trkpt><trkpt lat="43.2358983" lon="11.5400933"><ele>175.0</ele><time>2026-04-11T03:02:26.988Z</time></trkpt><trkpt lat="43.2358983" lon="11.5401817"><ele>175.0</ele><time>2026-04-11T03:02:27.989Z</time></trkpt><trkpt lat="43.2359" lon="11.540285"><ele>175.0</ele><time>2026-04-11T03:02:28.988Z</time></trkpt><trkpt lat="43.2359" lon="11.540375"><ele>175.0</ele><time>2026-04-11T03:02:29.989Z</time></trkpt><trkpt lat="43.2358967" lon="11.5404683"><ele>175.0</ele><time>2026-04-11T03:02:30.989Z</time></trkpt><trkpt lat="43.2358883" lon="11.54064"><ele>175.0</ele><time>2026-04-11T03:02:32.988Z</time></trkpt><trkpt lat="43.2358717" lon="11.5407983"><ele>175.0</ele><time>2026-04-11T03:02:34.989Z</time></trkpt><trkpt lat="43.2358733" lon="11.54095"><ele>175.0</ele><time>2026-04-11T03:02:36.988Z</time></trkpt><trkpt lat="43.2358617" lon="11.54111"><ele>175.0</ele><time>2026-04-11T03:02:38.988Z</time></trkpt><trkpt lat="43.2358467" lon="11.5412833"><ele>175.0</ele><time>2026-04-11T03:02:40.988Z</time></trkpt><trkpt lat="43.2358333" lon="11.5414517"><ele>176.0</ele><time>2026-04-11T03:02:42.989Z</time></trkpt><trkpt lat="43.2358383" lon="11.5416183"><ele>177.0</ele><time>2026-04-11T03:02:44.989Z</time></trkpt><trkpt lat="43.235835" lon="11.5417767"><ele>178.0</ele><time>2026-04-11T03:02:46.988Z</time></trkpt><trkpt lat="43.2358267" lon="11.5419317"><ele>179.0</ele><time>2026-04-11T03:02:48.988Z</time></trkpt><trkpt lat="43.2358167" lon="11.5420883"><ele>179.0</ele><time>2026-04-11T03:02:50.988Z</time></trkpt><trkpt lat="43.2358017" lon="11.542245"><ele>179.0</ele><time>2026-04-11T03:02:52.988Z</time></trkpt><trkpt lat="43.2357983" lon="11.5423967"><ele>179.0</ele><time>2026-04-11T03:02:54.988Z</time></trkpt><trkpt lat="43.2358" lon="11.5425483"><ele>179.0</ele><time>2026-04-11T03:02:56.988Z</time></trkpt><trkpt lat="43.2358017" lon="11.542695"><ele>179.0</ele><time>2026-04-11T03:02:58.988Z</time></trkpt><trkpt lat="43.2357967" lon="11.5428433"><ele>178.79999999999998</ele><time>2026-04-11T03:03:00.988Z</time></trkpt><trkpt lat="43.235785" lon="11.5430083"><ele>178.6</ele><time>2026-04-11T03:03:02.988Z</time></trkpt><trkpt lat="43.23578" lon="11.543095"><ele>178.4</ele><time>2026-04-11T03:03:03.989Z</time></trkpt><trkpt lat="43.23577" lon="11.5431817"><ele>178.2</ele><time>2026-04-11T03:03:04.988Z</time></trkpt><trkpt lat="43.235765" lon="11.5433317"><ele>178.0</ele><time>2026-04-11T03:03:06.988Z</time></trkpt><trkpt lat="43.2357817" lon="11.543475"><ele>178.0</ele><time>2026-04-11T03:03:08.988Z</time></trkpt><trkpt lat="43.2357867" lon="11.5436217"><ele>178.0</ele><time>2026-04-11T03:03:10.988Z</time></trkpt><trkpt lat="43.235775" lon="11.5437883"><ele>178.0</ele><time>2026-04-11T03:03:12.988Z</time></trkpt><trkpt lat="43.23577" lon="11.543875"><ele>178.0</ele><time>2026-04-11T03:03:13.988Z</time></trkpt><trkpt lat="43.2357717" lon="11.5439633"><ele>178.0</ele><time>2026-04-11T03:03:14.988Z</time></trkpt><trkpt lat="43.2357667" lon="11.5441317"><ele>177.83333333333334</ele><time>2026-04-11T03:03:16.988Z</time></trkpt><trkpt lat="43.2357567" lon="11.5442983"><ele>177.66666666666669</ele><time>2026-04-11T03:03:18.989Z</time></trkpt><trkpt lat="43.23575" lon="11.54439"><ele>177.5</ele><time>2026-04-11T03:03:19.988Z</time></trkpt><trkpt lat="43.2357467" lon="11.54448"><ele>177.33333333333334</ele><time>2026-04-11T03:03:20.989Z</time></trkpt><trkpt lat="43.2357467" lon="11.5445667"><ele>177.16666666666666</ele><time>2026-04-11T03:03:21.989Z</time></trkpt><trkpt lat="43.2357417" lon="11.5447383"><ele>177.0</ele><time>2026-04-11T03:03:23.989Z</time></trkpt><trkpt lat="43.2357417" lon="11.5448267"><ele>176.8</ele><time>2026-04-11T03:03:24.989Z</time></trkpt><trkpt lat="43.2357433" lon="11.544915"><ele>176.6</ele><time>2026-04-11T03:03:25.988Z</time></trkpt><trkpt lat="43.2357567" lon="11.5450933"><ele>176.4</ele><time>2026-04-11T03:03:27.988Z</time></trkpt><trkpt lat="43.2357667" lon="11.54519"><ele>176.20000000000002</ele><time>2026-04-11T03:03:28.988Z</time></trkpt><trkpt lat="43.2357933" lon="11.54535"><ele>176.0</ele><time>2026-04-11T03:03:30.989Z</time></trkpt><trkpt lat="43.2358383" lon="11.54551"><ele>176.0</ele><time>2026-04-11T03:03:32.988Z</time></trkpt><trkpt lat="43.23589" lon="11.5456583"><ele>176.0</ele><time>2026-04-11T03:03:34.988Z</time></trkpt><trkpt lat="43.2359467" lon="11.54579"><ele>176.0</ele><time>2026-04-11T03:03:36.988Z</time></trkpt><trkpt lat="43.2360017" lon="11.5459367"><ele>176.0</ele><time>2026-04-11T03:03:38.988Z</time></trkpt><trkpt lat="43.2360567" lon="11.546075"><ele>175.25</ele><time>2026-04-11T03:03:40.988Z</time></trkpt><trkpt lat="43.236115" lon="11.5462183"><ele>174.5</ele><time>2026-04-11T03:03:42.988Z</time></trkpt><trkpt lat="43.236175" lon="11.5463533"><ele>173.75</ele><time>2026-04-11T03:03:44.988Z</time></trkpt><trkpt lat="43.2362583" lon="11.54647"><ele>173.0</ele><time>2026-04-11T03:03:46.988Z</time></trkpt><trkpt lat="43.236335" lon="11.546595"><ele>173.0</ele><time>2026-04-11T03:03:48.988Z</time></trkpt><trkpt lat="43.2364167" lon="11.5467233"><ele>173.0</ele><time>2026-04-11T03:03:50.988Z</time></trkpt><trkpt lat="43.2364583" lon="11.5467883"><ele>173.0</ele><time>2026-04-11T03:03:51.988Z</time></trkpt><trkpt lat="43.236535" lon="11.546905"><ele>173.0</ele><time>2026-04-11T03:03:53.989Z</time></trkpt><trkpt lat="43.2366117" lon="11.5470133"><ele>173.0</ele><time>2026-04-11T03:03:55.988Z</time></trkpt><trkpt lat="43.2366883" lon="11.5471217"><ele>173.2</ele><time>2026-04-11T03:03:57.988Z</time></trkpt><trkpt lat="43.236775" lon="11.547225"><ele>173.4</ele><time>2026-04-11T03:03:59.988Z</time></trkpt><trkpt lat="43.2368633" lon="11.5473217"><ele>173.6</ele><time>2026-04-11T03:04:01.989Z</time></trkpt><trkpt lat="43.2369533" lon="11.5474183"><ele>173.79999999999998</ele><time>2026-04-11T03:04:03.988Z</time></trkpt><trkpt lat="43.2370317" lon="11.547505"><ele>174.0</ele><time>2026-04-11T03:04:05.988Z</time></trkpt><trkpt lat="43.2371217" lon="11.54761"><ele>174.0</ele><time>2026-04-11T03:04:07.988Z</time></trkpt><trkpt lat="43.2371717" lon="11.547665"><ele>174.0</ele><time>2026-04-11T03:04:08.989Z</time></trkpt><trkpt lat="43.237265" lon="11.5477617"><ele>174.0</ele><time>2026-04-11T03:04:10.988Z</time></trkpt><trkpt lat="43.23736" lon="11.5478633"><ele>174.0</ele><time>2026-04-11T03:04:12.988Z</time></trkpt><trkpt lat="43.237455" lon="11.547965"><ele>174.0</ele><time>2026-04-11T03:04:14.989Z</time></trkpt><trkpt lat="43.2375467" lon="11.548075"><ele>174.5</ele><time>2026-04-11T03:04:16.989Z</time></trkpt><trkpt lat="43.237635" lon="11.5481683"><ele>175.0</ele><time>2026-04-11T03:04:18.988Z</time></trkpt><trkpt lat="43.2377183" lon="11.5482767"><ele>175.5</ele><time>2026-04-11T03:04:20.988Z</time></trkpt><trkpt lat="43.2378083" lon="11.548375"><ele>176.0</ele><time>2026-04-11T03:04:22.988Z</time></trkpt><trkpt lat="43.2378967" lon="11.5484717"><ele>176.0</ele><time>2026-04-11T03:04:24.988Z</time></trkpt><trkpt lat="43.2379983" lon="11.548565"><ele>176.0</ele><time>2026-04-11T03:04:26.988Z</time></trkpt><trkpt lat="43.23809" lon="11.5486717"><ele>176.0</ele><time>2026-04-11T03:04:28.988Z</time></trkpt><trkpt lat="43.23819" lon="11.5487683"><ele>176.0</ele><time>2026-04-11T03:04:30.988Z</time></trkpt><trkpt lat="43.2383" lon="11.5488417"><ele>176.0</ele><time>2026-04-11T03:04:32.988Z</time></trkpt><trkpt lat="43.238395" lon="11.548915"><ele>176.0</ele><time>2026-04-11T03:04:34.988Z</time></trkpt><trkpt lat="43.2384967" lon="11.5490067"><ele>176.0</ele><time>2026-04-11T03:04:36.988Z</time></trkpt><trkpt lat="43.2386" lon="11.5490817"><ele>176.0</ele><time>2026-04-11T03:04:38.988Z</time></trkpt><trkpt lat="43.23871" lon="11.5491567"><ele>176.0</ele><time>2026-04-11T03:04:40.988Z</time></trkpt><trkpt lat="43.2388117" lon="11.5492283"><ele>176.0</ele><time>2026-04-11T03:04:42.988Z</time></trkpt><trkpt lat="43.2389183" lon="11.5493117"><ele>176.0</ele><time>2026-04-11T03:04:44.988Z</time></trkpt><trkpt lat="43.2389733" lon="11.5493567"><ele>176.0</ele><time>2026-04-11T03:04:45.988Z</time></trkpt><trkpt lat="43.2390267" lon="11.54941"><ele>176.0</ele><time>2026-04-11T03:04:46.988Z</time></trkpt><trkpt lat="43.2390817" lon="11.5494617"><ele>176.0</ele><time>2026-04-11T03:04:47.988Z</time></trkpt><trkpt lat="43.239135" lon="11.5495133"><ele>175.83333333333331</ele><time>2026-04-11T03:04:48.988Z</time></trkpt><trkpt lat="43.2392317" lon="11.5496133"><ele>175.66666666666666</ele><time>2026-04-11T03:04:50.988Z</time></trkpt><trkpt lat="43.2392867" lon="11.54966"><ele>175.5</ele><time>2026-04-11T03:04:51.988Z</time></trkpt><trkpt lat="43.23934" lon="11.5497067"><ele>175.33333333333334</ele><time>2026-04-11T03:04:52.988Z</time></trkpt><trkpt lat="43.2393967" lon="11.5497633"><ele>175.16666666666669</ele><time>2026-04-11T03:04:53.988Z</time></trkpt><trkpt lat="43.2394583" lon="11.54983"><ele>175.0</ele><time>2026-04-11T03:04:54.988Z</time></trkpt><trkpt lat="43.2395067" lon="11.549895"><ele>175.0</ele><time>2026-04-11T03:04:55.988Z</time></trkpt><trkpt lat="43.2395617" lon="11.54997"><ele>175.0</ele><time>2026-04-11T03:04:56.988Z</time></trkpt><trkpt lat="43.2396117" lon="11.5500467"><ele>175.0</ele><time>2026-04-11T03:04:57.988Z</time></trkpt><trkpt lat="43.239655" lon="11.55011"><ele>175.0</ele><time>2026-04-11T03:04:58.988Z</time></trkpt><trkpt lat="43.2397083" lon="11.55017"><ele>175.0</ele><time>2026-04-11T03:04:59.988Z</time></trkpt><trkpt lat="43.2397567" lon="11.55024"><ele>175.0</ele><time>2026-04-11T03:05:00.988Z</time></trkpt><trkpt lat="43.23984" lon="11.550365"><ele>174.66666666666669</ele><time>2026-04-11T03:05:02.988Z</time></trkpt><trkpt lat="43.239885" lon="11.5504317"><ele>174.33333333333334</ele><time>2026-04-11T03:05:03.988Z</time></trkpt><trkpt lat="43.239935" lon="11.5504967"><ele>174.0</ele><time>2026-04-11T03:05:04.988Z</time></trkpt><trkpt lat="43.23999" lon="11.5505617"><ele>173.66666666666666</ele><time>2026-04-11T03:05:05.988Z</time></trkpt><trkpt lat="43.2400417" lon="11.5506433"><ele>173.33333333333331</ele><time>2026-04-11T03:05:06.988Z</time></trkpt><trkpt lat="43.2401183" lon="11.550775"><ele>173.0</ele><time>2026-04-11T03:05:08.988Z</time></trkpt><trkpt lat="43.2401583" lon="11.5508433"><ele>173.0</ele><time>2026-04-11T03:05:09.989Z</time></trkpt><trkpt lat="43.2402067" lon="11.5509033"><ele>173.0</ele><time>2026-04-11T03:05:10.989Z</time></trkpt><trkpt lat="43.24026" lon="11.5509667"><ele>173.0</ele><time>2026-04-11T03:05:11.988Z</time></trkpt><trkpt lat="43.2403117" lon="11.55103"><ele>173.0</ele><time>2026-04-11T03:05:12.988Z</time></trkpt><trkpt lat="43.2403633" lon="11.5510967"><ele>173.0</ele><time>2026-04-11T03:05:13.988Z</time></trkpt><trkpt lat="43.240415" lon="11.5511667"><ele>173.0</ele><time>2026-04-11T03:05:14.988Z</time></trkpt><trkpt lat="43.240465" lon="11.5512367"><ele>173.0</ele><time>2026-04-11T03:05:15.989Z</time></trkpt><trkpt lat="43.2405133" lon="11.5513067"><ele>172.66666666666666</ele><time>2026-04-11T03:05:16.988Z</time></trkpt><trkpt lat="43.2405633" lon="11.5513667"><ele>172.33333333333331</ele><time>2026-04-11T03:05:17.988Z</time></trkpt><trkpt lat="43.24062" lon="11.551435"><ele>172.0</ele><time>2026-04-11T03:05:18.988Z</time></trkpt><trkpt lat="43.2406633" lon="11.5514983"><ele>171.66666666666666</ele><time>2026-04-11T03:05:19.988Z</time></trkpt><trkpt lat="43.240755" lon="11.551625"><ele>171.33333333333334</ele><time>2026-04-11T03:05:21.988Z</time></trkpt><trkpt lat="43.2407983" lon="11.5516967"><ele>171.0</ele><time>2026-04-11T03:05:22.988Z</time></trkpt><trkpt lat="43.2408467" lon="11.55187"><ele>172.14285714285714</ele><time>2026-04-11T03:05:24.988Z</time></trkpt><trkpt lat="43.240845" lon="11.55196"><ele>173.28571428571428</ele><time>2026-04-11T03:05:25.988Z</time></trkpt><trkpt lat="43.2408267" lon="11.55205"><ele>174.42857142857144</ele><time>2026-04-11T03:05:26.988Z</time></trkpt><trkpt lat="43.2407883" lon="11.5521367"><ele>175.57142857142856</ele><time>2026-04-11T03:05:27.988Z</time></trkpt><trkpt lat="43.2407517" lon="11.55222"><ele>176.71428571428572</ele><time>2026-04-11T03:05:28.988Z</time></trkpt><trkpt lat="43.24072" lon="11.552295"><ele>177.85714285714286</ele><time>2026-04-11T03:05:29.988Z</time></trkpt><trkpt lat="43.2406917" lon="11.5523733"><ele>179.0</ele><time>2026-04-11T03:05:30.989Z</time></trkpt><trkpt lat="43.2406583" lon="11.55245"><ele>177.79999999999998</ele><time>2026-04-11T03:05:31.988Z</time></trkpt><trkpt lat="43.2405967" lon="11.55258"><ele>176.6</ele><time>2026-04-11T03:05:33.988Z</time></trkpt><trkpt lat="43.2405317" lon="11.552705"><ele>175.4</ele><time>2026-04-11T03:05:35.988Z</time></trkpt><trkpt lat="43.2404933" lon="11.5527767"><ele>174.2</ele><time>2026-04-11T03:05:36.989Z</time></trkpt><trkpt lat="43.2404317" lon="11.5529067"><ele>173.0</ele><time>2026-04-11T03:05:38.989Z</time></trkpt><trkpt lat="43.24039" lon="11.5529933"><ele>173.0</ele><time>2026-04-11T03:05:40.988Z</time></trkpt><trkpt lat="43.240405" lon="11.5531"><ele>173.0</ele><time>2026-04-11T03:05:43.988Z</time></trkpt><trkpt lat="43.2404883" lon="11.5531417"><ele>173.0</ele><time>2026-04-11T03:05:46.988Z</time></trkpt><trkpt lat="43.2405583" lon="11.5531783"><ele>173.0</ele><time>2026-04-11T03:05:48.988Z</time></trkpt><trkpt lat="43.2406383" lon="11.5532167"><ele>173.0</ele><time>2026-04-11T03:05:50.988Z</time></trkpt><trkpt lat="43.2407217" lon="11.5532767"><ele>173.0</ele><time>2026-04-11T03:05:52.988Z</time></trkpt><trkpt lat="43.2408033" lon="11.5533317"><ele>173.33333333333331</ele><time>2026-04-11T03:05:54.988Z</time></trkpt><trkpt lat="43.2408733" lon="11.5533867"><ele>173.66666666666666</ele><time>2026-04-11T03:05:56.988Z</time></trkpt><trkpt lat="43.24096" lon="11.5534583"><ele>174.0</ele><time>2026-04-11T03:05:58.988Z</time></trkpt><trkpt lat="43.2410367" lon="11.5535167"><ele>174.33333333333334</ele><time>2026-04-11T03:06:00.988Z</time></trkpt><trkpt lat="43.2411033" lon="11.5535817"><ele>174.66666666666669</ele><time>2026-04-11T03:06:02.989Z</time></trkpt><trkpt lat="43.2411767" lon="11.55363"><ele>175.0</ele><time>2026-04-11T03:06:05.988Z</time></trkpt><trkpt lat="43.2412583" lon="11.5536317"><ele>175.0</ele><time>2026-04-11T03:06:08.989Z</time></trkpt><trkpt lat="43.241335" lon="11.5536383"><ele>175.0</ele><time>2026-04-11T03:06:11.988Z</time></trkpt><trkpt lat="43.2413983" lon="11.553665"><ele>175.0</ele><time>2026-04-11T03:06:13.988Z</time></trkpt><trkpt lat="43.24148" lon="11.5536983"><ele>175.0</ele><time>2026-04-11T03:06:16.988Z</time></trkpt><trkpt lat="43.24155" lon="11.5537033"><ele>175.0</ele><time>2026-04-11T03:06:19.988Z</time></trkpt><trkpt lat="43.2416267" lon="11.5536983"><ele>175.0</ele><time>2026-04-11T03:06:22.988Z</time></trkpt><trkpt lat="43.2416933" lon="11.5537033"><ele>175.0</ele><time>2026-04-11T03:06:25.988Z</time></trkpt><trkpt lat="43.2417767" lon="11.5537233"><ele>175.5</ele><time>2026-04-11T03:06:28.988Z</time></trkpt><trkpt lat="43.2418517" lon="11.5537483"><ele>176.0</ele><time>2026-04-11T03:06:31.988Z</time></trkpt><trkpt lat="43.241925" lon="11.553765"><ele>176.5</ele><time>2026-04-11T03:06:34.988Z</time></trkpt><trkpt lat="43.242" lon="11.5537983"><ele>177.0</ele><time>2026-04-11T03:06:38.988Z</time></trkpt><trkpt lat="43.2420567" lon="11.5538583"><ele>177.5</ele><time>2026-04-11T03:06:42.988Z</time></trkpt><trkpt lat="43.2421233" lon="11.553915"><ele>178.0</ele><time>2026-04-11T03:06:46.989Z</time></trkpt><trkpt lat="43.2421983" lon="11.5539633"><ele>178.0</ele><time>2026-04-11T03:06:50.988Z</time></trkpt><trkpt lat="43.2422533" lon="11.5540067"><ele>178.0</ele><time>2026-04-11T03:06:53.988Z</time></trkpt><trkpt lat="43.24231" lon="11.55407"><ele>178.0</ele><time>2026-04-11T03:06:57.988Z</time></trkpt><trkpt lat="43.24239" lon="11.5541283"><ele>178.0</ele><time>2026-04-11T03:07:00.988Z</time></trkpt><trkpt lat="43.2424517" lon="11.5541733"><ele>178.0</ele><time>2026-04-11T03:07:03.988Z</time></trkpt><trkpt lat="43.2425233" lon="11.55422"><ele>178.0</ele><time>2026-04-11T03:07:06.988Z</time></trkpt><trkpt lat="43.2425883" lon="11.5542817"><ele>180.66666666666669</ele><time>2026-04-11T03:07:09.989Z</time></trkpt><trkpt lat="43.2426967" lon="11.5543767"><ele>183.33333333333334</ele><time>2026-04-11T03:07:17.988Z</time></trkpt><trkpt lat="43.2427833" lon="11.5544017"><ele>186.0</ele><time>2026-04-11T03:07:20.988Z</time></trkpt><trkpt lat="43.2428467" lon="11.55442"><ele>188.66666666666669</ele><time>2026-04-11T03:07:22.988Z</time></trkpt><trkpt lat="43.2429133" lon="11.5544367"><ele>191.33333333333334</ele><time>2026-04-11T03:07:24.988Z</time></trkpt><trkpt lat="43.2429817" lon="11.5544583"><ele>194.0</ele><time>2026-04-11T03:07:26.988Z</time></trkpt><trkpt lat="43.243075" lon="11.5545033"><ele>195.00000000000003</ele><time>2026-04-11T03:07:28.988Z</time></trkpt><trkpt lat="43.24316" lon="11.5545033"><ele>196.0</ele><time>2026-04-11T03:07:30.988Z</time></trkpt><trkpt lat="43.2432283" lon="11.5544983"><ele>197.0</ele><time>2026-04-11T03:07:32.988Z</time></trkpt><trkpt lat="43.2433" lon="11.5544883"><ele>198.0</ele><time>2026-04-11T03:07:34.989Z</time></trkpt><trkpt lat="43.24338" lon="11.5544733"><ele>199.00000000000003</ele><time>2026-04-11T03:07:36.988Z</time></trkpt><trkpt lat="43.243475" lon="11.5544483"><ele>200.0</ele><time>2026-04-11T03:07:38.988Z</time></trkpt><trkpt lat="43.2435967" lon="11.5544333"><ele>200.00000000000003</ele><time>2026-04-11T03:07:40.988Z</time></trkpt><trkpt lat="43.2436667" lon="11.5544233"><ele>200.0</ele><time>2026-04-11T03:07:41.988Z</time></trkpt><trkpt lat="43.2437417" lon="11.5544117"><ele>200.0</ele><time>2026-04-11T03:07:42.988Z</time></trkpt><trkpt lat="43.2438183" lon="11.5543983"><ele>200.0</ele><time>2026-04-11T03:07:43.988Z</time></trkpt><trkpt lat="43.2439017" lon="11.5543867"><ele>200.00000000000003</ele><time>2026-04-11T03:07:44.988Z</time></trkpt><trkpt lat="43.2439867" lon="11.5543767"><ele>200.0</ele><time>2026-04-11T03:07:45.988Z</time></trkpt><trkpt lat="43.2440767" lon="11.55436"><ele>198.0</ele><time>2026-04-11T03:07:46.988Z</time></trkpt><trkpt lat="43.2441667" lon="11.55435"><ele>196.0</ele><time>2026-04-11T03:07:47.988Z</time></trkpt><trkpt lat="43.2442583" lon="11.5543417"><ele>194.0</ele><time>2026-04-11T03:07:48.988Z</time></trkpt><trkpt lat="43.2443567" lon="11.554335"><ele>192.0</ele><time>2026-04-11T03:07:49.988Z</time></trkpt><trkpt lat="43.244455" lon="11.554325"><ele>190.0</ele><time>2026-04-11T03:07:50.988Z</time></trkpt><trkpt lat="43.244555" lon="11.554315"><ele>190.0</ele><time>2026-04-11T03:07:51.988Z</time></trkpt><trkpt lat="43.2446633" lon="11.55431"><ele>190.0</ele><time>2026-04-11T03:07:52.988Z</time></trkpt><trkpt lat="43.2447667" lon="11.5543017"><ele>190.0</ele><time>2026-04-11T03:07:53.988Z</time></trkpt><trkpt lat="43.2448633" lon="11.5543"><ele>190.0</ele><time>2026-04-11T03:07:54.988Z</time></trkpt><trkpt lat="43.244955" lon="11.5542883"><ele>190.0</ele><time>2026-04-11T03:07:55.989Z</time></trkpt><trkpt lat="43.24505" lon="11.5542767"><ele>189.2</ele><time>2026-04-11T03:07:56.989Z</time></trkpt><trkpt lat="43.2451467" lon="11.5542567"><ele>188.4</ele><time>2026-04-11T03:07:57.988Z</time></trkpt><trkpt lat="43.24524" lon="11.5542383"><ele>187.60000000000002</ele><time>2026-04-11T03:07:58.988Z</time></trkpt><trkpt lat="43.2453333" lon="11.55422"><ele>186.8</ele><time>2026-04-11T03:07:59.988Z</time></trkpt><trkpt lat="43.2454283" lon="11.55421"><ele>186.0</ele><time>2026-04-11T03:08:00.989Z</time></trkpt><trkpt lat="43.2455217" lon="11.5541983"><ele>186.0</ele><time>2026-04-11T03:08:01.988Z</time></trkpt><trkpt lat="43.2456183" lon="11.5541867"><ele>186.0</ele><time>2026-04-11T03:08:02.988Z</time></trkpt><trkpt lat="43.2457133" lon="11.554175"><ele>186.0</ele><time>2026-04-11T03:08:03.988Z</time></trkpt><trkpt lat="43.245805" lon="11.5541583"><ele>186.0</ele><time>2026-04-11T03:08:04.988Z</time></trkpt><trkpt lat="43.2458967" lon="11.5541433"><ele>186.0</ele><time>2026-04-11T03:08:05.988Z</time></trkpt><trkpt lat="43.2459917" lon="11.5541267"><ele>184.20000000000002</ele><time>2026-04-11T03:08:06.988Z</time></trkpt><trkpt lat="43.2460883" lon="11.5541133"><ele>182.4</ele><time>2026-04-11T03:08:07.988Z</time></trkpt><trkpt lat="43.24619" lon="11.5541"><ele>180.6</ele><time>2026-04-11T03:08:08.988Z</time></trkpt><trkpt lat="43.2462933" lon="11.5540783"><ele>178.8</ele><time>2026-04-11T03:08:09.988Z</time></trkpt><trkpt lat="43.2464017" lon="11.5540683"><ele>177.0</ele><time>2026-04-11T03:08:10.988Z</time></trkpt><trkpt lat="43.2465067" lon="11.554075"><ele>176.0</ele><time>2026-04-11T03:08:11.989Z</time></trkpt><trkpt lat="43.246605" lon="11.5541"><ele>175.0</ele><time>2026-04-11T03:08:12.989Z</time></trkpt><trkpt lat="43.2467017" lon="11.5541367"><ele>174.0</ele><time>2026-04-11T03:08:13.988Z</time></trkpt><trkpt lat="43.2467933" lon="11.554185"><ele>173.0</ele><time>2026-04-11T03:08:14.988Z</time></trkpt><trkpt lat="43.246875" lon="11.554235"><ele>172.0</ele><time>2026-04-11T03:08:15.988Z</time></trkpt><trkpt lat="43.24695" lon="11.5542883"><ele>172.0</ele><time>2026-04-11T03:08:16.988Z</time></trkpt><trkpt lat="43.24702" lon="11.55434"><ele>172.0</ele><time>2026-04-11T03:08:17.988Z</time></trkpt><trkpt lat="43.247085" lon="11.5544"><ele>172.0</ele><time>2026-04-11T03:08:18.988Z</time></trkpt><trkpt lat="43.247145" lon="11.5544517"><ele>172.0</ele><time>2026-04-11T03:08:19.989Z</time></trkpt><trkpt lat="43.24723" lon="11.5545167"><ele>172.0</ele><time>2026-04-11T03:08:21.988Z</time></trkpt><trkpt lat="43.247285" lon="11.5545617"><ele>172.0</ele><time>2026-04-11T03:08:23.988Z</time></trkpt><trkpt lat="43.2473517" lon="11.554585"><ele>173.16666666666669</ele><time>2026-04-11T03:08:26.988Z</time></trkpt><trkpt lat="43.2474217" lon="11.5546333"><ele>174.33333333333334</ele><time>2026-04-11T03:08:30.988Z</time></trkpt><trkpt lat="43.2475017" lon="11.55468"><ele>175.5</ele><time>2026-04-11T03:08:34.988Z</time></trkpt><trkpt lat="43.24756" lon="11.5547183"><ele>176.66666666666666</ele><time>2026-04-11T03:08:37.988Z</time></trkpt><trkpt lat="43.2476333" lon="11.5547733"><ele>177.83333333333331</ele><time>2026-04-11T03:08:41.988Z</time></trkpt><trkpt lat="43.247705" lon="11.5548333"><ele>179.0</ele><time>2026-04-11T03:08:45.989Z</time></trkpt><trkpt lat="43.247775" lon="11.5548983"><ele>179.0</ele><time>2026-04-11T03:08:49.988Z</time></trkpt><trkpt lat="43.247835" lon="11.5549567"><ele>179.0</ele><time>2026-04-11T03:08:52.988Z</time></trkpt><trkpt lat="43.2478783" lon="11.5550417"><ele>179.0</ele><time>2026-04-11T03:08:55.988Z</time></trkpt><trkpt lat="43.247925" lon="11.555125"><ele>179.0</ele><time>2026-04-11T03:08:58.988Z</time></trkpt><trkpt lat="43.2479717" lon="11.5551967"><ele>179.0</ele><time>2026-04-11T03:09:01.988Z</time></trkpt><trkpt lat="43.2480217" lon="11.5552733"><ele>179.0</ele><time>2026-04-11T03:09:04.988Z</time></trkpt><trkpt lat="43.2480833" lon="11.555355"><ele>180.14285714285717</ele><time>2026-04-11T03:09:08.988Z</time></trkpt><trkpt lat="43.2481383" lon="11.5554333"><ele>181.28571428571428</ele><time>2026-04-11T03:09:11.988Z</time></trkpt><trkpt lat="43.24819" lon="11.5554867"><ele>182.42857142857144</ele><time>2026-04-11T03:09:13.988Z</time></trkpt><trkpt lat="43.2482667" lon="11.55555"><ele>183.57142857142858</ele><time>2026-04-11T03:09:16.988Z</time></trkpt><trkpt lat="43.2483383" lon="11.5556067"><ele>184.71428571428572</ele><time>2026-04-11T03:09:19.988Z</time></trkpt><trkpt lat="43.2483983" lon="11.5556483"><ele>185.85714285714286</ele><time>2026-04-11T03:09:21.988Z</time></trkpt><trkpt lat="43.248455" lon="11.5556917"><ele>187.0</ele><time>2026-04-11T03:09:23.988Z</time></trkpt><trkpt lat="43.2485117" lon="11.55573"><ele>187.0</ele><time>2026-04-11T03:09:25.988Z</time></trkpt><trkpt lat="43.2485883" lon="11.5557967"><ele>187.0</ele><time>2026-04-11T03:09:27.988Z</time></trkpt><trkpt lat="43.24867" lon="11.55587"><ele>187.0</ele><time>2026-04-11T03:09:29.988Z</time></trkpt><trkpt lat="43.2487617" lon="11.5559267"><ele>187.0</ele><time>2026-04-11T03:09:31.989Z</time></trkpt><trkpt lat="43.2488517" lon="11.5559583"><ele>187.0</ele><time>2026-04-11T03:09:33.988Z</time></trkpt><trkpt lat="43.2489317" lon="11.5559633"><ele>188.28571428571428</ele><time>2026-04-11T03:09:35.989Z</time></trkpt><trkpt lat="43.2490117" lon="11.5559667"><ele>189.57142857142858</ele><time>2026-04-11T03:09:37.988Z</time></trkpt><trkpt lat="43.24908" lon="11.5559633"><ele>190.85714285714286</ele><time>2026-04-11T03:09:39.988Z</time></trkpt><trkpt lat="43.2491567" lon="11.555955"><ele>192.14285714285714</ele><time>2026-04-11T03:09:41.988Z</time></trkpt><trkpt lat="43.24923" lon="11.5559567"><ele>193.42857142857144</ele><time>2026-04-11T03:09:43.988Z</time></trkpt><trkpt lat="43.249295" lon="11.5559583"><ele>194.71428571428572</ele><time>2026-04-11T03:09:45.988Z</time></trkpt><trkpt lat="43.2493633" lon="11.5559567"><ele>196.0</ele><time>2026-04-11T03:09:47.988Z</time></trkpt><trkpt lat="43.2494433" lon="11.5559517"><ele>196.0</ele><time>2026-04-11T03:09:49.988Z</time></trkpt><trkpt lat="43.2495367" lon="11.5559517"><ele>196.0</ele><time>2026-04-11T03:09:51.988Z</time></trkpt><trkpt lat="43.2496367" lon="11.5559633"><ele>196.0</ele><time>2026-04-11T03:09:53.988Z</time></trkpt><trkpt lat="43.249735" lon="11.5559683"><ele>196.0</ele><time>2026-04-11T03:09:55.988Z</time></trkpt><trkpt lat="43.2498167" lon="11.5559483"><ele>196.0</ele><time>2026-04-11T03:09:57.989Z</time></trkpt><trkpt lat="43.2498933" lon="11.5559167"><ele>196.49999999999997</ele><time>2026-04-11T03:09:59.988Z</time></trkpt><trkpt lat="43.2499633" lon="11.55586"><ele>197.0</ele><time>2026-04-11T03:10:02.988Z</time></trkpt><trkpt lat="43.250045" lon="11.5558083"><ele>197.5</ele><time>2026-04-11T03:10:05.988Z</time></trkpt><trkpt lat="43.25011" lon="11.555765"><ele>198.0</ele><time>2026-04-11T03:10:08.988Z</time></trkpt><trkpt lat="43.2501733" lon="11.5557183"><ele>198.49999999999997</ele><time>2026-04-11T03:10:12.988Z</time></trkpt><trkpt lat="43.2502717" lon="11.5556683"><ele>199.0</ele><time>2026-04-11T03:10:19.989Z</time></trkpt><trkpt lat="43.2503233" lon="11.5556"><ele>198.99999999999997</ele><time>2026-04-11T03:10:22.989Z</time></trkpt><trkpt lat="43.2503817" lon="11.5555483"><ele>199.0</ele><time>2026-04-11T03:10:26.989Z</time></trkpt><trkpt lat="43.25043" lon="11.55549"><ele>199.0</ele><time>2026-04-11T03:10:30.99Z</time></trkpt><trkpt lat="43.2504833" lon="11.5554183"><ele>199.0</ele><time>2026-04-11T03:10:35.989Z</time></trkpt><trkpt lat="43.2505417" lon="11.5553767"><ele>199.0</ele><time>2026-04-11T03:10:39.989Z</time></trkpt><trkpt lat="43.2506033" lon="11.55531"><ele>198.99999999999997</ele><time>2026-04-11T03:10:44.989Z</time></trkpt><trkpt lat="43.2506533" lon="11.55524"><ele>199.0</ele><time>2026-04-11T03:10:48.989Z</time></trkpt><trkpt lat="43.25071" lon="11.5551633"><ele>201.66666666666666</ele><time>2026-04-11T03:10:53.989Z</time></trkpt><trkpt lat="43.2508233" lon="11.55505"><ele>204.33333333333331</ele><time>2026-04-11T03:11:02.989Z</time></trkpt><trkpt lat="43.2509033" lon="11.5549717"><ele>207.0</ele><time>2026-04-11T03:11:08.989Z</time></trkpt><trkpt lat="43.25096" lon="11.5549283"><ele>209.66666666666669</ele><time>2026-04-11T03:11:10.99Z</time></trkpt><trkpt lat="43.2510133" lon="11.5548817"><ele>212.33333333333334</ele><time>2026-04-11T03:11:13.989Z</time></trkpt><trkpt lat="43.25107" lon="11.5548367"><ele>215.0</ele><time>2026-04-11T03:11:16.989Z</time></trkpt><trkpt lat="43.2511317" lon="11.5548133"><ele>215.0</ele><time>2026-04-11T03:11:19.989Z</time></trkpt><trkpt lat="43.2511967" lon="11.5547817"><ele>215.0</ele><time>2026-04-11T03:11:22.989Z</time></trkpt><trkpt lat="43.2512567" lon="11.554755"><ele>215.0</ele><time>2026-04-11T03:11:25.989Z</time></trkpt><trkpt lat="43.2513333" lon="11.5547167"><ele>215.0</ele><time>2026-04-11T03:11:29.99Z</time></trkpt><trkpt lat="43.2514133" lon="11.5546933"><ele>215.0</ele><time>2026-04-11T03:11:32.989Z</time></trkpt><trkpt lat="43.2514883" lon="11.55467"><ele>215.0</ele><time>2026-04-11T03:11:35.989Z</time></trkpt><trkpt lat="43.2515567" lon="11.5546467"><ele>215.0</ele><time>2026-04-11T03:11:38.989Z</time></trkpt><trkpt lat="43.2516267" lon="11.5546267"><ele>214.66666666666669</ele><time>2026-04-11T03:11:41.989Z</time></trkpt><trkpt lat="43.2516917" lon="11.5546067"><ele>214.33333333333334</ele><time>2026-04-11T03:11:44.99Z</time></trkpt><trkpt lat="43.2517683" lon="11.55458"><ele>214.0</ele><time>2026-04-11T03:11:49.99Z</time></trkpt><trkpt lat="43.25184" lon="11.5545667"><ele>213.66666666666669</ele><time>2026-04-11T03:11:53.989Z</time></trkpt><trkpt lat="43.2519217" lon="11.55456"><ele>213.33333333333334</ele><time>2026-04-11T03:11:57.989Z</time></trkpt><trkpt lat="43.2520067" lon="11.5545517"><ele>213.0</ele><time>2026-04-11T03:12:00.989Z</time></trkpt><trkpt lat="43.252095" lon="11.5545483"><ele>212.99999999999997</ele><time>2026-04-11T03:12:03.989Z</time></trkpt><trkpt lat="43.2521717" lon="11.5545517"><ele>213.0</ele><time>2026-04-11T03:12:05.989Z</time></trkpt><trkpt lat="43.2522417" lon="11.5545517"><ele>213.0</ele><time>2026-04-11T03:12:07.989Z</time></trkpt><trkpt lat="43.2523033" lon="11.554575"><ele>213.0</ele><time>2026-04-11T03:12:09.989Z</time></trkpt><trkpt lat="43.25238" lon="11.5545933"><ele>213.0</ele><time>2026-04-11T03:12:12.989Z</time></trkpt><trkpt lat="43.25246" lon="11.554605"><ele>212.99999999999997</ele><time>2026-04-11T03:12:15.989Z</time></trkpt><trkpt lat="43.25253" lon="11.55463"><ele>213.0</ele><time>2026-04-11T03:12:17.989Z</time></trkpt><trkpt lat="43.2525933" lon="11.5546483"><ele>213.16666666666666</ele><time>2026-04-11T03:12:20.989Z</time></trkpt><trkpt lat="43.25266" lon="11.55466"><ele>213.33333333333331</ele><time>2026-04-11T03:12:23.989Z</time></trkpt><trkpt lat="43.2527367" lon="11.5546383"><ele>213.5</ele><time>2026-04-11T03:12:27.989Z</time></trkpt><trkpt lat="43.2528167" lon="11.55463"><ele>213.66666666666666</ele><time>2026-04-11T03:12:31.99Z</time></trkpt><trkpt lat="43.2529017" lon="11.5546183"><ele>213.83333333333331</ele><time>2026-04-11T03:12:35.989Z</time></trkpt><trkpt lat="43.2529767" lon="11.554605"><ele>214.0</ele><time>2026-04-11T03:12:39.989Z</time></trkpt><trkpt lat="43.25304" lon="11.55459"><ele>214.00000000000003</ele><time>2026-04-11T03:12:42.989Z</time></trkpt><trkpt lat="43.2531133" lon="11.5545633"><ele>214.0</ele><time>2026-04-11T03:12:46.989Z</time></trkpt><trkpt lat="43.253185" lon="11.5545517"><ele>214.0</ele><time>2026-04-11T03:12:50.989Z</time></trkpt><trkpt lat="43.2532483" lon="11.55452"><ele>214.0</ele><time>2026-04-11T03:12:54.989Z</time></trkpt><trkpt lat="43.2533167" lon="11.5544933"><ele>214.0</ele><time>2026-04-11T03:12:58.989Z</time></trkpt><trkpt lat="43.25338" lon="11.554445"><ele>214.00000000000003</ele><time>2026-04-11T03:13:02.989Z</time></trkpt><trkpt lat="43.2534367" lon="11.554395"><ele>214.0</ele><time>2026-04-11T03:13:07.989Z</time></trkpt><trkpt lat="43.2535017" lon="11.5543717"><ele>216.57142857142858</ele><time>2026-04-11T03:13:11.989Z</time></trkpt><trkpt lat="43.2535567" lon="11.5543217"><ele>219.14285714285717</ele><time>2026-04-11T03:13:15.989Z</time></trkpt><trkpt lat="43.253615" lon="11.55426"><ele>221.71428571428572</ele><time>2026-04-11T03:13:19.989Z</time></trkpt><trkpt lat="43.253675" lon="11.5542133"><ele>224.2857142857143</ele><time>2026-04-11T03:13:22.99Z</time></trkpt><trkpt lat="43.2537383" lon="11.5541817"><ele>226.85714285714286</ele><time>2026-04-11T03:13:25.989Z</time></trkpt><trkpt lat="43.2538033" lon="11.554125"><ele>229.42857142857147</ele><time>2026-04-11T03:13:29.989Z</time></trkpt><trkpt lat="43.2538633" lon="11.5540817"><ele>232.00000000000003</ele><time>2026-04-11T03:13:32.989Z</time></trkpt><trkpt lat="43.2539133" lon="11.5540133"><ele>232.42857142857144</ele><time>2026-04-11T03:13:35.989Z</time></trkpt><trkpt lat="43.2539633" lon="11.553935"><ele>232.85714285714286</ele><time>2026-04-11T03:13:39.989Z</time></trkpt><trkpt lat="43.2539967" lon="11.55385"><ele>233.28571428571428</ele><time>2026-04-11T03:13:43.99Z</time></trkpt><trkpt lat="43.2540217" lon="11.5537667"><ele>233.71428571428572</ele><time>2026-04-11T03:13:47.989Z</time></trkpt><trkpt lat="43.2540317" lon="11.553665"><ele>234.1428571428571</ele><time>2026-04-11T03:13:51.989Z</time></trkpt><trkpt lat="43.2540383" lon="11.55356"><ele>234.57142857142856</ele><time>2026-04-11T03:13:56.989Z</time></trkpt><trkpt lat="43.254045" lon="11.5534467"><ele>235.0</ele><time>2026-04-11T03:14:02.989Z</time></trkpt><trkpt lat="43.2540533" lon="11.553345"><ele>236.42857142857142</ele><time>2026-04-11T03:14:06.989Z</time></trkpt><trkpt lat="43.2540783" lon="11.5532483"><ele>237.85714285714283</ele><time>2026-04-11T03:14:10.989Z</time></trkpt><trkpt lat="43.2541083" lon="11.5531467"><ele>239.28571428571428</ele><time>2026-04-11T03:14:14.989Z</time></trkpt><trkpt lat="43.254145" lon="11.5530617"><ele>240.71428571428572</ele><time>2026-04-11T03:14:18.989Z</time></trkpt><trkpt lat="43.2542083" lon="11.5530017"><ele>242.14285714285714</ele><time>2026-04-11T03:14:22.989Z</time></trkpt><trkpt lat="43.2542733" lon="11.55295"><ele>243.57142857142856</ele><time>2026-04-11T03:14:26.989Z</time></trkpt><trkpt lat="43.2543417" lon="11.5529283"><ele>245.0</ele><time>2026-04-11T03:14:30.989Z</time></trkpt><trkpt lat="43.2544167" lon="11.5529183"><ele>245.00000000000003</ele><time>2026-04-11T03:14:34.989Z</time></trkpt><trkpt lat="43.2544967" lon="11.5529133"><ele>245.0</ele><time>2026-04-11T03:14:38.989Z</time></trkpt><trkpt lat="43.25458" lon="11.5529"><ele>245.0</ele><time>2026-04-11T03:14:42.989Z</time></trkpt><trkpt lat="43.2546667" lon="11.552905"><ele>245.0</ele><time>2026-04-11T03:14:45.989Z</time></trkpt><trkpt lat="43.25475" lon="11.5528783"><ele>245.00000000000003</ele><time>2026-04-11T03:14:48.989Z</time></trkpt><trkpt lat="43.2548183" lon="11.5528733"><ele>245.0</ele><time>2026-04-11T03:14:50.989Z</time></trkpt><trkpt lat="43.2548833" lon="11.5528767"><ele>245.50000000000003</ele><time>2026-04-11T03:14:52.989Z</time></trkpt><trkpt lat="43.254975" lon="11.5528783"><ele>246.0</ele><time>2026-04-11T03:14:55.989Z</time></trkpt><trkpt lat="43.25506" lon="11.5528733"><ele>246.5</ele><time>2026-04-11T03:14:58.989Z</time></trkpt><trkpt lat="43.2551367" lon="11.552885"><ele>247.0</ele><time>2026-04-11T03:15:01.989Z</time></trkpt><trkpt lat="43.2552217" lon="11.5528767"><ele>247.50000000000003</ele><time>2026-04-11T03:15:04.989Z</time></trkpt><trkpt lat="43.2553133" lon="11.5528717"><ele>248.0</ele><time>2026-04-11T03:15:07.989Z</time></trkpt><trkpt lat="43.2553933" lon="11.5528867"><ele>248.00000000000003</ele><time>2026-04-11T03:15:09.99Z</time></trkpt><trkpt lat="43.255465" lon="11.552895"><ele>248.0</ele><time>2026-04-11T03:15:11.989Z</time></trkpt><trkpt lat="43.25554" lon="11.5529217"><ele>248.0</ele><time>2026-04-11T03:15:13.989Z</time></trkpt><trkpt lat="43.2556183" lon="11.5529317"><ele>248.0</ele><time>2026-04-11T03:15:15.989Z</time></trkpt><trkpt lat="43.2556933" lon="11.5529617"><ele>248.00000000000003</ele><time>2026-04-11T03:15:17.989Z</time></trkpt><trkpt lat="43.2557617" lon="11.553"><ele>248.0</ele><time>2026-04-11T03:15:19.989Z</time></trkpt><trkpt lat="43.2558317" lon="11.5530483"><ele>248.8</ele><time>2026-04-11T03:15:21.989Z</time></trkpt><trkpt lat="43.2559083" lon="11.5530983"><ele>249.60000000000002</ele><time>2026-04-11T03:15:23.989Z</time></trkpt><trkpt lat="43.2559867" lon="11.5531433"><ele>250.39999999999998</ele><time>2026-04-11T03:15:25.989Z</time></trkpt><trkpt lat="43.256065" lon="11.5531967"><ele>251.2</ele><time>2026-04-11T03:15:27.989Z</time></trkpt><trkpt lat="43.2561483" lon="11.5532517"><ele>252.0</ele><time>2026-04-11T03:15:29.989Z</time></trkpt><trkpt lat="43.25624" lon="11.5533117"><ele>252.0</ele><time>2026-04-11T03:15:31.989Z</time></trkpt><trkpt lat="43.25633" lon="11.5533667"><ele>252.0</ele><time>2026-04-11T03:15:33.989Z</time></trkpt><trkpt lat="43.2564183" lon="11.553425"><ele>252.0</ele><time>2026-04-11T03:15:35.99Z</time></trkpt><trkpt lat="43.2565033" lon="11.5534767"><ele>252.0</ele><time>2026-04-11T03:15:37.989Z</time></trkpt><trkpt lat="43.2565917" lon="11.5535317"><ele>252.0</ele><time>2026-04-11T03:15:39.989Z</time></trkpt><trkpt lat="43.2566917" lon="11.553595"><ele>251.8</ele><time>2026-04-11T03:15:41.989Z</time></trkpt><trkpt lat="43.2568" lon="11.5536633"><ele>251.6</ele><time>2026-04-11T03:15:43.989Z</time></trkpt><trkpt lat="43.2568617" lon="11.5536867"><ele>251.40000000000003</ele><time>2026-04-11T03:15:44.989Z</time></trkpt><trkpt lat="43.25697" lon="11.553715"><ele>251.20000000000002</ele><time>2026-04-11T03:15:46.989Z</time></trkpt><trkpt lat="43.2570767" lon="11.5536983"><ele>251.0</ele><time>2026-04-11T03:15:48.989Z</time></trkpt><trkpt lat="43.257175" lon="11.5536783"><ele>251.0</ele><time>2026-04-11T03:15:50.989Z</time></trkpt><trkpt lat="43.2572683" lon="11.5536583"><ele>251.00000000000003</ele><time>2026-04-11T03:15:52.989Z</time></trkpt><trkpt lat="43.257365" lon="11.55362"><ele>251.00000000000003</ele><time>2026-04-11T03:15:54.989Z</time></trkpt><trkpt lat="43.2574517" lon="11.5535917"><ele>251.0</ele><time>2026-04-11T03:15:56.989Z</time></trkpt><trkpt lat="43.2575467" lon="11.5535383"><ele>251.0</ele><time>2026-04-11T03:15:58.989Z</time></trkpt><trkpt lat="43.2576417" lon="11.553495"><ele>251.20000000000002</ele><time>2026-04-11T03:16:00.989Z</time></trkpt><trkpt lat="43.2577267" lon="11.553445"><ele>251.40000000000003</ele><time>2026-04-11T03:16:02.989Z</time></trkpt><trkpt lat="43.2578133" lon="11.5534033"><ele>251.6</ele><time>2026-04-11T03:16:04.989Z</time></trkpt><trkpt lat="43.2579033" lon="11.5533667"><ele>251.8</ele><time>2026-04-11T03:16:06.989Z</time></trkpt><trkpt lat="43.257995" lon="11.55333"><ele>252.0</ele><time>2026-04-11T03:16:08.989Z</time></trkpt><trkpt lat="43.2580967" lon="11.553295"><ele>252.0</ele><time>2026-04-11T03:16:10.99Z</time></trkpt><trkpt lat="43.2582183" lon="11.5532567"><ele>252.0</ele><time>2026-04-11T03:16:12.99Z</time></trkpt><trkpt lat="43.258285" lon="11.5532383"><ele>252.0</ele><time>2026-04-11T03:16:13.989Z</time></trkpt><trkpt lat="43.258355" lon="11.5532183"><ele>252.0</ele><time>2026-04-11T03:16:14.99Z</time></trkpt><trkpt lat="43.2584283" lon="11.5532"><ele>252.0</ele><time>2026-04-11T03:16:15.989Z</time></trkpt><trkpt lat="43.258505" lon="11.5531833"><ele>252.0</ele><time>2026-04-11T03:16:16.989Z</time></trkpt><trkpt lat="43.2585833" lon="11.5531667"><ele>252.0</ele><time>2026-04-11T03:16:17.989Z</time></trkpt><trkpt lat="43.2586633" lon="11.55315"><ele>252.0</ele><time>2026-04-11T03:16:18.989Z</time></trkpt><trkpt lat="43.2587417" lon="11.5531317"><ele>252.0</ele><time>2026-04-11T03:16:19.989Z</time></trkpt><trkpt lat="43.2588233" lon="11.553105"><ele>252.0</ele><time>2026-04-11T03:16:20.989Z</time></trkpt><trkpt lat="43.2589" lon="11.5530633"><ele>252.0</ele><time>2026-04-11T03:16:21.989Z</time></trkpt><trkpt lat="43.2589667" lon="11.553015"><ele>252.0</ele><time>2026-04-11T03:16:22.989Z</time></trkpt><trkpt lat="43.2590283" lon="11.5529533"><ele>251.0</ele><time>2026-04-11T03:16:23.989Z</time></trkpt><trkpt lat="43.25909" lon="11.552895"><ele>250.0</ele><time>2026-04-11T03:16:24.99Z</time></trkpt><trkpt lat="43.2591417" lon="11.5528317"><ele>249.0</ele><time>2026-04-11T03:16:25.989Z</time></trkpt><trkpt lat="43.2591917" lon="11.5527667"><ele>248.0</ele><time>2026-04-11T03:16:26.989Z</time></trkpt><trkpt lat="43.2592367" lon="11.5527017"><ele>247.0</ele><time>2026-04-11T03:16:27.989Z</time></trkpt><trkpt lat="43.2592867" lon="11.552645"><ele>246.0</ele><time>2026-04-11T03:16:28.989Z</time></trkpt><trkpt lat="43.2593733" lon="11.5525367"><ele>246.0</ele><time>2026-04-11T03:16:30.99Z</time></trkpt><trkpt lat="43.2594317" lon="11.5524183"><ele>246.0</ele><time>2026-04-11T03:16:32.989Z</time></trkpt><trkpt lat="43.2594833" lon="11.5523017"><ele>246.0</ele><time>2026-04-11T03:16:34.989Z</time></trkpt><trkpt lat="43.25952" lon="11.5521817"><ele>246.0</ele><time>2026-04-11T03:16:36.989Z</time></trkpt><trkpt lat="43.2595483" lon="11.5520783"><ele>246.0</ele><time>2026-04-11T03:16:38.99Z</time></trkpt><trkpt lat="43.25958" lon="11.5519967"><ele>246.0</ele><time>2026-04-11T03:16:40.989Z</time></trkpt><trkpt lat="43.2595983" lon="11.5519117"><ele>246.0</ele><time>2026-04-11T03:16:42.989Z</time></trkpt><trkpt lat="43.2596267" lon="11.5518133"><ele>246.0</ele><time>2026-04-11T03:16:44.989Z</time></trkpt><trkpt lat="43.25965" lon="11.551725"><ele>246.0</ele><time>2026-04-11T03:16:46.989Z</time></trkpt><trkpt lat="43.25968" lon="11.5516033"><ele>246.0</ele><time>2026-04-11T03:16:49.989Z</time></trkpt><trkpt lat="43.2597067" lon="11.55148"><ele>246.0</ele><time>2026-04-11T03:16:52.989Z</time></trkpt><trkpt lat="43.25973" lon="11.5513883"><ele>246.0</ele><time>2026-04-11T03:16:54.99Z</time></trkpt><trkpt lat="43.2597667" lon="11.5512683"><ele>246.33333333333334</ele><time>2026-04-11T03:16:56.989Z</time></trkpt><trkpt lat="43.2598117" lon="11.5511083"><ele>246.66666666666669</ele><time>2026-04-11T03:16:58.989Z</time></trkpt><trkpt lat="43.2598467" lon="11.5510317"><ele>247.0</ele><time>2026-04-11T03:16:59.99Z</time></trkpt><trkpt lat="43.2598833" lon="11.5509583"><ele>247.33333333333334</ele><time>2026-04-11T03:17:00.989Z</time></trkpt><trkpt lat="43.2599583" lon="11.5508217"><ele>247.66666666666669</ele><time>2026-04-11T03:17:02.989Z</time></trkpt><trkpt lat="43.26" lon="11.5507567"><ele>248.0</ele><time>2026-04-11T03:17:03.99Z</time></trkpt><trkpt lat="43.2600783" lon="11.55062"><ele>248.0</ele><time>2026-04-11T03:17:05.989Z</time></trkpt><trkpt lat="43.2601483" lon="11.5504833"><ele>248.0</ele><time>2026-04-11T03:17:07.989Z</time></trkpt><trkpt lat="43.2602317" lon="11.5503317"><ele>248.0</ele><time>2026-04-11T03:17:09.989Z</time></trkpt><trkpt lat="43.2602817" lon="11.5502567"><ele>248.0</ele><time>2026-04-11T03:17:10.989Z</time></trkpt><trkpt lat="43.2603417" lon="11.5501833"><ele>248.0</ele><time>2026-04-11T03:17:11.989Z</time></trkpt><trkpt lat="43.26042" lon="11.5501167"><ele>246.83333333333334</ele><time>2026-04-11T03:17:12.99Z</time></trkpt><trkpt lat="43.2604983" lon="11.5500583"><ele>245.66666666666669</ele><time>2026-04-11T03:17:13.989Z</time></trkpt><trkpt lat="43.260575" lon="11.5500067"><ele>244.5</ele><time>2026-04-11T03:17:14.989Z</time></trkpt><trkpt lat="43.2606483" lon="11.549965"><ele>243.33333333333331</ele><time>2026-04-11T03:17:15.989Z</time></trkpt><trkpt lat="43.2607267" lon="11.5499333"><ele>242.16666666666666</ele><time>2026-04-11T03:17:16.989Z</time></trkpt><trkpt lat="43.2608017" lon="11.5499183"><ele>241.0</ele><time>2026-04-11T03:17:17.99Z</time></trkpt><trkpt lat="43.2608833" lon="11.5499033"><ele>239.66666666666666</ele><time>2026-04-11T03:17:18.989Z</time></trkpt><trkpt lat="43.2609517" lon="11.5499067"><ele>238.33333333333331</ele><time>2026-04-11T03:17:19.989Z</time></trkpt><trkpt lat="43.26102" lon="11.54992"><ele>237.0</ele><time>2026-04-11T03:17:20.99Z</time></trkpt><trkpt lat="43.261135" lon="11.54995"><ele>235.66666666666669</ele><time>2026-04-11T03:17:22.99Z</time></trkpt><trkpt lat="43.2612333" lon="11.5499817"><ele>234.33333333333334</ele><time>2026-04-11T03:17:24.989Z</time></trkpt><trkpt lat="43.2613167" lon="11.55"><ele>233.0</ele><time>2026-04-11T03:17:26.989Z</time></trkpt><trkpt lat="43.261385" lon="11.5499883"><ele>233.00000000000003</ele><time>2026-04-11T03:17:28.99Z</time></trkpt><trkpt lat="43.2614483" lon="11.549975"><ele>233.0</ele><time>2026-04-11T03:17:30.989Z</time></trkpt><trkpt lat="43.2615183" lon="11.5499467"><ele>233.0</ele><time>2026-04-11T03:17:32.989Z</time></trkpt><trkpt lat="43.2615817" lon="11.5499167"><ele>233.0</ele><time>2026-04-11T03:17:34.989Z</time></trkpt><trkpt lat="43.261665" lon="11.5498617"><ele>233.00000000000003</ele><time>2026-04-11T03:17:37.989Z</time></trkpt><trkpt lat="43.261745" lon="11.5498233"><ele>233.0</ele><time>2026-04-11T03:17:40.99Z</time></trkpt><trkpt lat="43.261835" lon="11.54978"><ele>233.33333333333334</ele><time>2026-04-11T03:17:43.989Z</time></trkpt><trkpt lat="43.2618917" lon="11.54974"><ele>233.66666666666669</ele><time>2026-04-11T03:17:45.989Z</time></trkpt><trkpt lat="43.2619583" lon="11.5497"><ele>234.0</ele><time>2026-04-11T03:17:47.989Z</time></trkpt><trkpt lat="43.262035" lon="11.5496317"><ele>234.33333333333331</ele><time>2026-04-11T03:17:50.989Z</time></trkpt><trkpt lat="43.2620817" lon="11.5495717"><ele>234.66666666666666</ele><time>2026-04-11T03:17:52.989Z</time></trkpt><trkpt lat="43.2621483" lon="11.549495"><ele>235.0</ele><time>2026-04-11T03:17:55.989Z</time></trkpt><trkpt lat="43.2622183" lon="11.549405"><ele>235.33333333333331</ele><time>2026-04-11T03:17:58.989Z</time></trkpt><trkpt lat="43.262275" lon="11.5493283"><ele>235.66666666666666</ele><time>2026-04-11T03:18:01.989Z</time></trkpt><trkpt lat="43.26233" lon="11.54925"><ele>236.0</ele><time>2026-04-11T03:18:04.989Z</time></trkpt><trkpt lat="43.2623783" lon="11.5491833"><ele>236.33333333333331</ele><time>2026-04-11T03:18:07.989Z</time></trkpt><trkpt lat="43.2624383" lon="11.5491017"><ele>236.66666666666666</ele><time>2026-04-11T03:18:11.989Z</time></trkpt><trkpt lat="43.2624883" lon="11.5490367"><ele>237.0</ele><time>2026-04-11T03:18:15.989Z</time></trkpt><trkpt lat="43.26254" lon="11.5489633"><ele>238.28571428571425</ele><time>2026-04-11T03:18:19.989Z</time></trkpt><trkpt lat="43.2625783" lon="11.5488783"><ele>239.57142857142856</ele><time>2026-04-11T03:18:23.99Z</time></trkpt><trkpt lat="43.2626183" lon="11.5487883"><ele>240.85714285714286</ele><time>2026-04-11T03:18:27.989Z</time></trkpt><trkpt lat="43.262665" lon="11.5487217"><ele>242.14285714285714</ele><time>2026-04-11T03:18:30.989Z</time></trkpt><trkpt lat="43.2627017" lon="11.5486317"><ele>243.42857142857144</ele><time>2026-04-11T03:18:34.989Z</time></trkpt><trkpt lat="43.2627417" lon="11.5485483"><ele>244.71428571428575</ele><time>2026-04-11T03:18:38.989Z</time></trkpt><trkpt lat="43.2627783" lon="11.5484683"><ele>246.00000000000003</ele><time>2026-04-11T03:18:42.989Z</time></trkpt><trkpt lat="43.2628217" lon="11.5484"><ele>247.33333333333334</ele><time>2026-04-11T03:18:46.989Z</time></trkpt><trkpt lat="43.26286" lon="11.5483283"><ele>248.66666666666669</ele><time>2026-04-11T03:18:50.989Z</time></trkpt><trkpt lat="43.262905" lon="11.54826"><ele>250.0</ele><time>2026-04-11T03:18:54.989Z</time></trkpt><trkpt lat="43.2629517" lon="11.548175"><ele>251.33333333333334</ele><time>2026-04-11T03:18:59.989Z</time></trkpt><trkpt lat="43.2629917" lon="11.5480867"><ele>252.66666666666669</ele><time>2026-04-11T03:19:03.989Z</time></trkpt><trkpt lat="43.2630367" lon="11.5479717"><ele>254.0</ele><time>2026-04-11T03:19:09.989Z</time></trkpt><trkpt lat="43.2630733" lon="11.5478883"><ele>254.00000000000003</ele><time>2026-04-11T03:19:13.989Z</time></trkpt><trkpt lat="43.263105" lon="11.54779"><ele>254.0</ele><time>2026-04-11T03:19:17.989Z</time></trkpt><trkpt lat="43.2631383" lon="11.54769"><ele>254.0</ele><time>2026-04-11T03:19:21.99Z</time></trkpt><trkpt lat="43.2631767" lon="11.5475917"><ele>254.0</ele><time>2026-04-11T03:19:25.989Z</time></trkpt><trkpt lat="43.2632267" lon="11.547505"><ele>254.00000000000003</ele><time>2026-04-11T03:19:29.989Z</time></trkpt><trkpt lat="43.26328" lon="11.5474283"><ele>254.0</ele><time>2026-04-11T03:19:32.989Z</time></trkpt><trkpt lat="43.2633267" lon="11.5473617"><ele>255.66666666666669</ele><time>2026-04-11T03:19:35.989Z</time></trkpt><trkpt lat="43.26339" lon="11.547285"><ele>257.33333333333337</ele><time>2026-04-11T03:19:39.989Z</time></trkpt><trkpt lat="43.2634417" lon="11.547225"><ele>259.0</ele><time>2026-04-11T03:19:42.99Z</time></trkpt><trkpt lat="43.2635067" lon="11.5471633"><ele>260.6666666666667</ele><time>2026-04-11T03:19:45.989Z</time></trkpt><trkpt lat="43.2635817" lon="11.5471083"><ele>262.3333333333333</ele><time>2026-04-11T03:19:48.989Z</time></trkpt><trkpt lat="43.2636517" lon="11.5470367"><ele>264.0</ele><time>2026-04-11T03:19:50.989Z</time></trkpt><trkpt lat="43.2637267" lon="11.5469583"><ele>264.0</ele><time>2026-04-11T03:19:52.99Z</time></trkpt><trkpt lat="43.2638267" lon="11.5468783"><ele>264.0</ele><time>2026-04-11T03:19:54.989Z</time></trkpt><trkpt lat="43.2639283" lon="11.5467767"><ele>264.0</ele><time>2026-04-11T03:19:56.989Z</time></trkpt><trkpt lat="43.2639833" lon="11.546715"><ele>264.0</ele><time>2026-04-11T03:19:57.99Z</time></trkpt><trkpt lat="43.2640383" lon="11.5466583"><ele>264.0</ele><time>2026-04-11T03:19:58.989Z</time></trkpt><trkpt lat="43.2640867" lon="11.5465967"><ele>264.0</ele><time>2026-04-11T03:19:59.99Z</time></trkpt><trkpt lat="43.2641367" lon="11.5465367"><ele>264.0</ele><time>2026-04-11T03:20:00.989Z</time></trkpt><trkpt lat="43.2641817" lon="11.54647"><ele>264.0</ele><time>2026-04-11T03:20:01.989Z</time></trkpt><trkpt lat="43.264275" lon="11.5463583"><ele>264.0</ele><time>2026-04-11T03:20:03.989Z</time></trkpt><trkpt lat="43.2643517" lon="11.5462417"><ele>264.0</ele><time>2026-04-11T03:20:05.989Z</time></trkpt><trkpt lat="43.2644017" lon="11.5461067"><ele>264.0</ele><time>2026-04-11T03:20:07.989Z</time></trkpt><trkpt lat="43.2644433" lon="11.5459567"><ele>266.4</ele><time>2026-04-11T03:20:09.989Z</time></trkpt><trkpt lat="43.264485" lon="11.5458183"><ele>268.79999999999995</ele><time>2026-04-11T03:20:11.99Z</time></trkpt><trkpt lat="43.264505" lon="11.54568"><ele>271.20000000000005</ele><time>2026-04-11T03:20:13.989Z</time></trkpt><trkpt lat="43.2645233" lon="11.5455617"><ele>273.6</ele><time>2026-04-11T03:20:15.989Z</time></trkpt><trkpt lat="43.2645483" lon="11.54546"><ele>276.0</ele><time>2026-04-11T03:20:17.989Z</time></trkpt><trkpt lat="43.2645667" lon="11.545345"><ele>276.2</ele><time>2026-04-11T03:20:19.989Z</time></trkpt><trkpt lat="43.2645917" lon="11.5452133"><ele>276.40000000000003</ele><time>2026-04-11T03:20:21.989Z</time></trkpt><trkpt lat="43.2646117" lon="11.5450817"><ele>276.6</ele><time>2026-04-11T03:20:23.99Z</time></trkpt><trkpt lat="43.2646283" lon="11.5449483"><ele>276.8</ele><time>2026-04-11T03:20:25.989Z</time></trkpt><trkpt lat="43.2646467" lon="11.5448067"><ele>277.0</ele><time>2026-04-11T03:20:27.989Z</time></trkpt><trkpt lat="43.26468" lon="11.5446617"><ele>275.16666666666663</ele><time>2026-04-11T03:20:29.989Z</time></trkpt><trkpt lat="43.264745" lon="11.5445083"><ele>273.3333333333333</ele><time>2026-04-11T03:20:31.989Z</time></trkpt><trkpt lat="43.26478" lon="11.544435"><ele>271.5</ele><time>2026-04-11T03:20:32.99Z</time></trkpt><trkpt lat="43.2648267" lon="11.5443583"><ele>269.6666666666667</ele><time>2026-04-11T03:20:33.989Z</time></trkpt><trkpt lat="43.2648817" lon="11.5442883"><ele>267.83333333333337</ele><time>2026-04-11T03:20:34.989Z</time></trkpt><trkpt lat="43.2649333" lon="11.544215"><ele>266.0</ele><time>2026-04-11T03:20:35.99Z</time></trkpt><trkpt lat="43.2649783" lon="11.5441283"><ele>263.83333333333337</ele><time>2026-04-11T03:20:36.989Z</time></trkpt><trkpt lat="43.2650233" lon="11.5440317"><ele>261.6666666666667</ele><time>2026-04-11T03:20:37.989Z</time></trkpt><trkpt lat="43.2650567" lon="11.543935"><ele>259.5</ele><time>2026-04-11T03:20:38.989Z</time></trkpt><trkpt lat="43.265095" lon="11.5438333"><ele>257.3333333333333</ele><time>2026-04-11T03:20:39.989Z</time></trkpt><trkpt lat="43.2651317" lon="11.54373"><ele>255.16666666666666</ele><time>2026-04-11T03:20:40.989Z</time></trkpt><trkpt lat="43.265165" lon="11.5436317"><ele>253.0</ele><time>2026-04-11T03:20:41.989Z</time></trkpt><trkpt lat="43.2651917" lon="11.5435283"><ele>251.49999999999997</ele><time>2026-04-11T03:20:42.989Z</time></trkpt><trkpt lat="43.2652117" lon="11.543415"><ele>250.0</ele><time>2026-04-11T03:20:43.989Z</time></trkpt><trkpt lat="43.2652217" lon="11.543295"><ele>248.5</ele><time>2026-04-11T03:20:44.989Z</time></trkpt><trkpt lat="43.2652183" lon="11.5431717"><ele>247.0</ele><time>2026-04-11T03:20:45.989Z</time></trkpt><trkpt lat="43.2652167" lon="11.5430517"><ele>245.49999999999997</ele><time>2026-04-11T03:20:46.989Z</time></trkpt><trkpt lat="43.2652067" lon="11.54294"><ele>244.0</ele><time>2026-04-11T03:20:47.99Z</time></trkpt><trkpt lat="43.2651967" lon="11.5428367"><ele>242.83333333333331</ele><time>2026-04-11T03:20:48.989Z</time></trkpt><trkpt lat="43.2651933" lon="11.5427267"><ele>241.66666666666666</ele><time>2026-04-11T03:20:49.989Z</time></trkpt><trkpt lat="43.2651933" lon="11.5426267"><ele>240.5</ele><time>2026-04-11T03:20:50.989Z</time></trkpt><trkpt lat="43.2652" lon="11.5425317"><ele>239.33333333333331</ele><time>2026-04-11T03:20:51.989Z</time></trkpt><trkpt lat="43.265215" lon="11.542435"><ele>238.16666666666666</ele><time>2026-04-11T03:20:52.99Z</time></trkpt><trkpt lat="43.2652367" lon="11.5423483"><ele>237.0</ele><time>2026-04-11T03:20:53.989Z</time></trkpt><trkpt lat="43.265285" lon="11.542205"><ele>237.0</ele><time>2026-04-11T03:20:55.989Z</time></trkpt><trkpt lat="43.2653283" lon="11.5420817"><ele>237.0</ele><time>2026-04-11T03:20:57.989Z</time></trkpt><trkpt lat="43.2653733" lon="11.5419583"><ele>237.0</ele><time>2026-04-11T03:20:59.989Z</time></trkpt><trkpt lat="43.2654117" lon="11.541835"><ele>237.0</ele><time>2026-04-11T03:21:01.989Z</time></trkpt><trkpt lat="43.2654383" lon="11.54171"><ele>237.0</ele><time>2026-04-11T03:21:03.989Z</time></trkpt><trkpt lat="43.2654617" lon="11.5415833"><ele>237.16666666666666</ele><time>2026-04-11T03:21:05.99Z</time></trkpt><trkpt lat="43.2654833" lon="11.5414617"><ele>237.33333333333331</ele><time>2026-04-11T03:21:07.989Z</time></trkpt><trkpt lat="43.265495" lon="11.5413483"><ele>237.5</ele><time>2026-04-11T03:21:09.989Z</time></trkpt><trkpt lat="43.2655" lon="11.5412217"><ele>237.66666666666666</ele><time>2026-04-11T03:21:11.989Z</time></trkpt><trkpt lat="43.2655033" lon="11.5411"><ele>237.83333333333331</ele><time>2026-04-11T03:21:13.99Z</time></trkpt><trkpt lat="43.2655233" lon="11.5409833"><ele>238.0</ele><time>2026-04-11T03:21:15.989Z</time></trkpt><trkpt lat="43.2655467" lon="11.540875"><ele>237.99999999999997</ele><time>2026-04-11T03:21:17.989Z</time></trkpt><trkpt lat="43.2655683" lon="11.5407683"><ele>238.0</ele><time>2026-04-11T03:21:19.989Z</time></trkpt><trkpt lat="43.26559" lon="11.54065"><ele>238.0</ele><time>2026-04-11T03:21:21.989Z</time></trkpt><trkpt lat="43.26562" lon="11.5405533"><ele>238.0</ele><time>2026-04-11T03:21:23.989Z</time></trkpt><trkpt lat="43.26567" lon="11.540455"><ele>237.99999999999997</ele><time>2026-04-11T03:21:25.989Z</time></trkpt><trkpt lat="43.2657267" lon="11.5403733"><ele>238.0</ele><time>2026-04-11T03:21:27.989Z</time></trkpt><trkpt lat="43.2657983" lon="11.5402683"><ele>239.8</ele><time>2026-04-11T03:21:29.989Z</time></trkpt><trkpt lat="43.26589" lon="11.540135"><ele>241.60000000000002</ele><time>2026-04-11T03:21:31.989Z</time></trkpt><trkpt lat="43.2659483" lon="11.54005"><ele>243.39999999999998</ele><time>2026-04-11T03:21:32.99Z</time></trkpt><trkpt lat="43.2660033" lon="11.5399617"><ele>245.2</ele><time>2026-04-11T03:21:33.989Z</time></trkpt><trkpt lat="43.2660533" lon="11.539875"><ele>247.0</ele><time>2026-04-11T03:21:34.989Z</time></trkpt><trkpt lat="43.266105" lon="11.5397833"><ele>246.99999999999997</ele><time>2026-04-11T03:21:35.989Z</time></trkpt><trkpt lat="43.2661617" lon="11.539695"><ele>247.0</ele><time>2026-04-11T03:21:36.989Z</time></trkpt><trkpt lat="43.26622" lon="11.5395967"><ele>247.0</ele><time>2026-04-11T03:21:37.989Z</time></trkpt><trkpt lat="43.2662817" lon="11.5395067"><ele>247.0</ele><time>2026-04-11T03:21:38.989Z</time></trkpt><trkpt lat="43.266335" lon="11.5394183"><ele>246.99999999999997</ele><time>2026-04-11T03:21:39.989Z</time></trkpt><trkpt lat="43.2663767" lon="11.5393317"><ele>247.0</ele><time>2026-04-11T03:21:40.989Z</time></trkpt><trkpt lat="43.2664167" lon="11.5392517"><ele>245.49999999999997</ele><time>2026-04-11T03:21:41.989Z</time></trkpt><trkpt lat="43.26645" lon="11.5391633"><ele>244.0</ele><time>2026-04-11T03:21:42.989Z</time></trkpt><trkpt lat="43.26649" lon="11.5390933"><ele>242.5</ele><time>2026-04-11T03:21:43.989Z</time></trkpt><trkpt lat="43.2665767" lon="11.5389983"><ele>241.0</ele><time>2026-04-11T03:21:45.989Z</time></trkpt><trkpt lat="43.266675" lon="11.53894"><ele>239.49999999999997</ele><time>2026-04-11T03:21:47.989Z</time></trkpt><trkpt lat="43.2667383" lon="11.53892"><ele>238.0</ele><time>2026-04-11T03:21:48.99Z</time></trkpt><trkpt lat="43.2668067" lon="11.538885"><ele>237.99999999999997</ele><time>2026-04-11T03:21:49.989Z</time></trkpt><trkpt lat="43.266885" lon="11.5388483"><ele>238.0</ele><time>2026-04-11T03:21:50.99Z</time></trkpt><trkpt lat="43.2669633" lon="11.538795"><ele>238.0</ele><time>2026-04-11T03:21:51.989Z</time></trkpt><trkpt lat="43.2670433" lon="11.5387433"><ele>238.0</ele><time>2026-04-11T03:21:52.989Z</time></trkpt><trkpt lat="43.2671217" lon="11.5386933"><ele>237.99999999999997</ele><time>2026-04-11T03:21:53.99Z</time></trkpt><trkpt lat="43.2671983" lon="11.538635"><ele>238.0</ele><time>2026-04-11T03:21:54.989Z</time></trkpt><trkpt lat="43.2672717" lon="11.5385717"><ele>237.0</ele><time>2026-04-11T03:21:55.989Z</time></trkpt><trkpt lat="43.26735" lon="11.5385083"><ele>236.0</ele><time>2026-04-11T03:21:56.989Z</time></trkpt><trkpt lat="43.26743" lon="11.5384467"><ele>235.0</ele><time>2026-04-11T03:21:57.989Z</time></trkpt><trkpt lat="43.2675067" lon="11.538385"><ele>234.0</ele><time>2026-04-11T03:21:58.989Z</time></trkpt><trkpt lat="43.267585" lon="11.5383283"><ele>233.0</ele><time>2026-04-11T03:21:59.989Z</time></trkpt><trkpt lat="43.2676683" lon="11.53828"><ele>233.0</ele><time>2026-04-11T03:22:00.989Z</time></trkpt><trkpt lat="43.26775" lon="11.538225"><ele>233.0</ele><time>2026-04-11T03:22:01.989Z</time></trkpt><trkpt lat="43.2678333" lon="11.53818"><ele>233.0</ele><time>2026-04-11T03:22:02.989Z</time></trkpt><trkpt lat="43.2679267" lon="11.53814"><ele>233.0</ele><time>2026-04-11T03:22:03.99Z</time></trkpt><trkpt lat="43.2680167" lon="11.5380833"><ele>233.0</ele><time>2026-04-11T03:22:04.989Z</time></trkpt><trkpt lat="43.2680967" lon="11.5380317"><ele>230.83333333333334</ele><time>2026-04-11T03:22:05.989Z</time></trkpt><trkpt lat="43.268175" lon="11.5379683"><ele>228.66666666666669</ele><time>2026-04-11T03:22:06.989Z</time></trkpt><trkpt lat="43.268245" lon="11.5379083"><ele>226.5</ele><time>2026-04-11T03:22:07.99Z</time></trkpt><trkpt lat="43.2683267" lon="11.5378683"><ele>224.33333333333331</ele><time>2026-04-11T03:22:08.989Z</time></trkpt><trkpt lat="43.268405" lon="11.5378233"><ele>222.16666666666666</ele><time>2026-04-11T03:22:09.989Z</time></trkpt><trkpt lat="43.2684833" lon="11.5377767"><ele>220.0</ele><time>2026-04-11T03:22:10.989Z</time></trkpt><trkpt lat="43.26856" lon="11.5377433"><ele>219.49999999999997</ele><time>2026-04-11T03:22:11.989Z</time></trkpt><trkpt lat="43.26864" lon="11.53772"><ele>219.0</ele><time>2026-04-11T03:22:12.989Z</time></trkpt><trkpt lat="43.26872" lon="11.5377033"><ele>218.5</ele><time>2026-04-11T03:22:13.989Z</time></trkpt><trkpt lat="43.2688067" lon="11.5377017"><ele>218.0</ele><time>2026-04-11T03:22:14.99Z</time></trkpt><trkpt lat="43.2689067" lon="11.5377133"><ele>217.49999999999997</ele><time>2026-04-11T03:22:15.989Z</time></trkpt><trkpt lat="43.2689867" lon="11.5377483"><ele>217.0</ele><time>2026-04-11T03:22:16.99Z</time></trkpt><trkpt lat="43.26906" lon="11.5377783"><ele>214.66666666666666</ele><time>2026-04-11T03:22:17.989Z</time></trkpt><trkpt lat="43.2691317" lon="11.537795"><ele>212.33333333333331</ele><time>2026-04-11T03:22:18.989Z</time></trkpt><trkpt lat="43.26921" lon="11.5378017"><ele>210.0</ele><time>2026-04-11T03:22:19.989Z</time></trkpt><trkpt lat="43.2692867" lon="11.537805"><ele>207.66666666666669</ele><time>2026-04-11T03:22:20.99Z</time></trkpt><trkpt lat="43.269365" lon="11.5378017"><ele>205.33333333333334</ele><time>2026-04-11T03:22:21.989Z</time></trkpt><trkpt lat="43.269445" lon="11.5377833"><ele>203.0</ele><time>2026-04-11T03:22:22.989Z</time></trkpt><trkpt lat="43.2695283" lon="11.5377567"><ele>203.00000000000003</ele><time>2026-04-11T03:22:23.989Z</time></trkpt><trkpt lat="43.269615" lon="11.5377283"><ele>203.0</ele><time>2026-04-11T03:22:24.99Z</time></trkpt><trkpt lat="43.26969" lon="11.537695"><ele>203.0</ele><time>2026-04-11T03:22:25.989Z</time></trkpt><trkpt lat="43.26976" lon="11.5376617"><ele>203.0</ele><time>2026-04-11T03:22:26.989Z</time></trkpt><trkpt lat="43.2698333" lon="11.5376267"><ele>203.00000000000003</ele><time>2026-04-11T03:22:27.99Z</time></trkpt><trkpt lat="43.2699083" lon="11.5375917"><ele>203.0</ele><time>2026-04-11T03:22:28.989Z</time></trkpt><trkpt lat="43.27" lon="11.5375717"><ele>200.83333333333334</ele><time>2026-04-11T03:22:29.99Z</time></trkpt><trkpt lat="43.2700917" lon="11.537565"><ele>198.66666666666669</ele><time>2026-04-11T03:22:30.989Z</time></trkpt><trkpt lat="43.2701783" lon="11.5375667"><ele>196.5</ele><time>2026-04-11T03:22:31.989Z</time></trkpt><trkpt lat="43.2702617" lon="11.537595"><ele>194.33333333333334</ele><time>2026-04-11T03:22:32.989Z</time></trkpt><trkpt lat="43.270345" lon="11.5376333"><ele>192.16666666666669</ele><time>2026-04-11T03:22:33.989Z</time></trkpt><trkpt lat="43.27043" lon="11.5376617"><ele>190.0</ele><time>2026-04-11T03:22:34.989Z</time></trkpt><trkpt lat="43.2705117" lon="11.5376833"><ele>190.0</ele><time>2026-04-11T03:22:35.989Z</time></trkpt><trkpt lat="43.2705867" lon="11.53769"><ele>190.0</ele><time>2026-04-11T03:22:36.989Z</time></trkpt><trkpt lat="43.2706517" lon="11.5377033"><ele>190.0</ele><time>2026-04-11T03:22:37.99Z</time></trkpt><trkpt lat="43.2707217" lon="11.5377233"><ele>190.0</ele><time>2026-04-11T03:22:38.989Z</time></trkpt><trkpt lat="43.2707917" lon="11.5377633"><ele>190.0</ele><time>2026-04-11T03:22:39.989Z</time></trkpt><trkpt lat="43.2708683" lon="11.5378217"><ele>190.0</ele><time>2026-04-11T03:22:40.989Z</time></trkpt><trkpt lat="43.2709467" lon="11.5378783"><ele>188.83333333333334</ele><time>2026-04-11T03:22:41.989Z</time></trkpt><trkpt lat="43.2710183" lon="11.5379467"><ele>187.66666666666669</ele><time>2026-04-11T03:22:42.989Z</time></trkpt><trkpt lat="43.2710783" lon="11.5380267"><ele>186.5</ele><time>2026-04-11T03:22:43.989Z</time></trkpt><trkpt lat="43.2711383" lon="11.538115"><ele>185.33333333333334</ele><time>2026-04-11T03:22:44.989Z</time></trkpt><trkpt lat="43.2711933" lon="11.538205"><ele>184.16666666666666</ele><time>2026-04-11T03:22:45.989Z</time></trkpt><trkpt lat="43.27124" lon="11.5382917"><ele>183.0</ele><time>2026-04-11T03:22:46.989Z</time></trkpt><trkpt lat="43.27128" lon="11.5383733"><ele>183.0</ele><time>2026-04-11T03:22:47.989Z</time></trkpt><trkpt lat="43.2713117" lon="11.5384517"><ele>183.0</ele><time>2026-04-11T03:22:48.989Z</time></trkpt><trkpt lat="43.2713717" lon="11.538585"><ele>183.0</ele><time>2026-04-11T03:22:50.989Z</time></trkpt><trkpt lat="43.2714233" lon="11.5386967"><ele>183.0</ele><time>2026-04-11T03:22:52.989Z</time></trkpt><trkpt lat="43.2714667" lon="11.53878"><ele>183.0</ele><time>2026-04-11T03:22:54.989Z</time></trkpt><trkpt lat="43.2715133" lon="11.5388717"><ele>183.0</ele><time>2026-04-11T03:22:57.989Z</time></trkpt><trkpt lat="43.2715567" lon="11.5389633"><ele>183.66666666666666</ele><time>2026-04-11T03:23:00.989Z</time></trkpt><trkpt lat="43.271605" lon="11.5390717"><ele>184.33333333333334</ele><time>2026-04-11T03:23:03.989Z</time></trkpt><trkpt lat="43.2716517" lon="11.5391683"><ele>185.0</ele><time>2026-04-11T03:23:06.99Z</time></trkpt><trkpt lat="43.2716967" lon="11.5392583"><ele>185.66666666666669</ele><time>2026-04-11T03:23:09.989Z</time></trkpt><trkpt lat="43.271735" lon="11.5393583"><ele>186.33333333333334</ele><time>2026-04-11T03:23:12.99Z</time></trkpt><trkpt lat="43.27177" lon="11.5394383"><ele>187.0</ele><time>2026-04-11T03:23:14.989Z</time></trkpt><trkpt lat="43.2718117" lon="11.5395333"><ele>187.33333333333334</ele><time>2026-04-11T03:23:16.989Z</time></trkpt><trkpt lat="43.271855" lon="11.5396567"><ele>187.66666666666669</ele><time>2026-04-11T03:23:18.989Z</time></trkpt><trkpt lat="43.27189" lon="11.53976"><ele>188.0</ele><time>2026-04-11T03:23:20.989Z</time></trkpt><trkpt lat="43.27192" lon="11.5398417"><ele>188.33333333333334</ele><time>2026-04-11T03:23:22.989Z</time></trkpt><trkpt lat="43.2719567" lon="11.5399283"><ele>188.66666666666666</ele><time>2026-04-11T03:23:24.989Z</time></trkpt><trkpt lat="43.2719883" lon="11.5400117"><ele>189.0</ele><time>2026-04-11T03:23:26.989Z</time></trkpt><trkpt lat="43.2720217" lon="11.5400867"><ele>189.0</ele><time>2026-04-11T03:23:28.989Z</time></trkpt><trkpt lat="43.272055" lon="11.5401683"><ele>189.0</ele><time>2026-04-11T03:23:30.99Z</time></trkpt><trkpt lat="43.272085" lon="11.54025"><ele>189.0</ele><time>2026-04-11T03:23:32.989Z</time></trkpt><trkpt lat="43.2721133" lon="11.540345"><ele>189.0</ele><time>2026-04-11T03:23:34.989Z</time></trkpt><trkpt lat="43.2721533" lon="11.5404467"><ele>189.0</ele><time>2026-04-11T03:23:37.989Z</time></trkpt><trkpt lat="43.272195" lon="11.5405233"><ele>189.0</ele><time>2026-04-11T03:23:40.989Z</time></trkpt><trkpt lat="43.27224" lon="11.5406067"><ele>189.0</ele><time>2026-04-11T03:23:43.989Z</time></trkpt><trkpt lat="43.2722683" lon="11.5406983"><ele>190.16666666666666</ele><time>2026-04-11T03:23:46.989Z</time></trkpt><trkpt lat="43.2722967" lon="11.5407983"><ele>191.33333333333331</ele><time>2026-04-11T03:23:49.989Z</time></trkpt><trkpt lat="43.2723383" lon="11.54089"><ele>192.5</ele><time>2026-04-11T03:23:52.989Z</time></trkpt><trkpt lat="43.2723767" lon="11.5409833"><ele>193.66666666666666</ele><time>2026-04-11T03:23:55.99Z</time></trkpt><trkpt lat="43.2724" lon="11.5410967"><ele>194.83333333333331</ele><time>2026-04-11T03:23:58.99Z</time></trkpt><trkpt lat="43.2724267" lon="11.5411917"><ele>196.0</ele><time>2026-04-11T03:24:01.99Z</time></trkpt><trkpt lat="43.2724517" lon="11.5413017"><ele>197.16666666666666</ele><time>2026-04-11T03:24:05.989Z</time></trkpt><trkpt lat="43.2724783" lon="11.5414"><ele>198.33333333333331</ele><time>2026-04-11T03:24:09.989Z</time></trkpt><trkpt lat="43.2724867" lon="11.5414983"><ele>199.5</ele><time>2026-04-11T03:24:13.989Z</time></trkpt><trkpt lat="43.27251" lon="11.5416167"><ele>200.66666666666669</ele><time>2026-04-11T03:24:17.989Z</time></trkpt><trkpt lat="43.2725167" lon="11.5417267"><ele>201.83333333333334</ele><time>2026-04-11T03:24:20.989Z</time></trkpt><trkpt lat="43.2725183" lon="11.5418333"><ele>203.0</ele><time>2026-04-11T03:24:24.989Z</time></trkpt><trkpt lat="43.2725317" lon="11.5419233"><ele>203.0</ele><time>2026-04-11T03:24:28.989Z</time></trkpt><trkpt lat="43.2725517" lon="11.5420117"><ele>203.0</ele><time>2026-04-11T03:24:33.99Z</time></trkpt><trkpt lat="43.2725483" lon="11.542115"><ele>203.0</ele><time>2026-04-11T03:24:38.99Z</time></trkpt><trkpt lat="43.2725633" lon="11.542215"><ele>203.0</ele><time>2026-04-11T03:24:43.989Z</time></trkpt><trkpt lat="43.2725617" lon="11.54231"><ele>203.0</ele><time>2026-04-11T03:24:47.989Z</time></trkpt><trkpt lat="43.2725733" lon="11.54241"><ele>203.0</ele><time>2026-04-11T03:24:52.989Z</time></trkpt><trkpt lat="43.272585" lon="11.5425033"><ele>203.0</ele><time>2026-04-11T03:24:56.989Z</time></trkpt><trkpt lat="43.2725933" lon="11.542595"><ele>204.14285714285714</ele><time>2026-04-11T03:25:00.989Z</time></trkpt><trkpt lat="43.2726333" lon="11.5426883"><ele>205.28571428571428</ele><time>2026-04-11T03:25:05.989Z</time></trkpt><trkpt lat="43.2726367" lon="11.5427783"><ele>206.42857142857144</ele><time>2026-04-11T03:25:09.989Z</time></trkpt><trkpt lat="43.2726883" lon="11.5428483"><ele>207.57142857142856</ele><time>2026-04-11T03:25:15.989Z</time></trkpt><trkpt lat="43.2727317" lon="11.542925"><ele>208.71428571428572</ele><time>2026-04-11T03:25:21.989Z</time></trkpt><trkpt lat="43.2727933" lon="11.5429717"><ele>209.85714285714286</ele><time>2026-04-11T03:25:26.989Z</time></trkpt><trkpt lat="43.2728583" lon="11.5429533"><ele>211.0</ele><time>2026-04-11T03:25:30.99Z</time></trkpt><trkpt lat="43.2729217" lon="11.54294"><ele>211.0</ele><time>2026-04-11T03:25:34.99Z</time></trkpt><trkpt lat="43.2729917" lon="11.542915"><ele>211.0</ele><time>2026-04-11T03:25:40.989Z</time></trkpt><trkpt lat="43.2730633" lon="11.5428717"><ele>211.0</ele><time>2026-04-11T03:25:46.989Z</time></trkpt><trkpt lat="43.273135" lon="11.5428867"><ele>211.0</ele><time>2026-04-11T03:25:51.99Z</time></trkpt><trkpt lat="43.2732033" lon="11.5429133"><ele>211.0</ele><time>2026-04-11T03:25:55.989Z</time></trkpt><trkpt lat="43.2732617" lon="11.5429583"><ele>211.0</ele><time>2026-04-11T03:25:59.989Z</time></trkpt><trkpt lat="43.2733217" lon="11.5430217"><ele>211.0</ele><time>2026-04-11T03:26:04.989Z</time></trkpt><trkpt lat="43.2733883" lon="11.5430633"><ele>214.0</ele><time>2026-04-11T03:26:10.989Z</time></trkpt><trkpt lat="43.27344" lon="11.5431183"><ele>217.0</ele><time>2026-04-11T03:26:15.989Z</time></trkpt><trkpt lat="43.2734933" lon="11.5431867"><ele>220.0</ele><time>2026-04-11T03:26:21.989Z</time></trkpt><trkpt lat="43.273545" lon="11.5432383"><ele>223.0</ele><time>2026-04-11T03:26:25.99Z</time></trkpt><trkpt lat="43.2735867" lon="11.5433083"><ele>226.0</ele><time>2026-04-11T03:26:30.989Z</time></trkpt><trkpt lat="43.2736117" lon="11.543405"><ele>229.00000000000003</ele><time>2026-04-11T03:26:35.989Z</time></trkpt><trkpt lat="43.273635" lon="11.5434883"><ele>232.00000000000003</ele><time>2026-04-11T03:26:39.989Z</time></trkpt><trkpt lat="43.27364" lon="11.5435933"><ele>232.00000000000003</ele><time>2026-04-11T03:26:43.99Z</time></trkpt><trkpt lat="43.27363" lon="11.5436867"><ele>232.0</ele><time>2026-04-11T03:26:46.989Z</time></trkpt><trkpt lat="43.2736017" lon="11.543785"><ele>232.00000000000003</ele><time>2026-04-11T03:26:50.99Z</time></trkpt><trkpt lat="43.273565" lon="11.5438633"><ele>232.00000000000003</ele><time>2026-04-11T03:26:54.989Z</time></trkpt><trkpt lat="43.273525" lon="11.5439383"><ele>232.0</ele><time>2026-04-11T03:26:58.989Z</time></trkpt><trkpt lat="43.2734817" lon="11.5440033"><ele>232.00000000000003</ele><time>2026-04-11T03:27:03.99Z</time></trkpt><trkpt lat="43.2734417" lon="11.5440733"><ele>232.00000000000003</ele><time>2026-04-11T03:27:08.99Z</time></trkpt><trkpt lat="43.27341" lon="11.5441583"><ele>233.14285714285717</ele><time>2026-04-11T03:27:14.99Z</time></trkpt><trkpt lat="43.2733767" lon="11.54424"><ele>234.28571428571428</ele><time>2026-04-11T03:27:18.99Z</time></trkpt><trkpt lat="43.2733367" lon="11.5443167"><ele>235.42857142857144</ele><time>2026-04-11T03:27:22.99Z</time></trkpt><trkpt lat="43.2733033" lon="11.5443933"><ele>236.57142857142858</ele><time>2026-04-11T03:27:25.99Z</time></trkpt><trkpt lat="43.27327" lon="11.54447"><ele>237.71428571428572</ele><time>2026-04-11T03:27:28.99Z</time></trkpt><trkpt lat="43.273235" lon="11.5445533"><ele>238.85714285714286</ele><time>2026-04-11T03:27:31.991Z</time></trkpt><trkpt lat="43.27321" lon="11.544635"><ele>240.0</ele><time>2026-04-11T03:27:34.99Z</time></trkpt><trkpt lat="43.2731917" lon="11.54474"><ele>240.71428571428572</ele><time>2026-04-11T03:27:38.99Z</time></trkpt><trkpt lat="43.2731917" lon="11.54483"><ele>241.42857142857142</ele><time>2026-04-11T03:27:41.99Z</time></trkpt><trkpt lat="43.2731933" lon="11.5449367"><ele>242.14285714285714</ele><time>2026-04-11T03:27:45.991Z</time></trkpt><trkpt lat="43.2731933" lon="11.5450317"><ele>242.85714285714286</ele><time>2026-04-11T03:27:48.99Z</time></trkpt><trkpt lat="43.27319" lon="11.5451283"><ele>243.57142857142856</ele><time>2026-04-11T03:27:51.991Z</time></trkpt><trkpt lat="43.273185" lon="11.5452167"><ele>244.28571428571428</ele><time>2026-04-11T03:27:54.991Z</time></trkpt><trkpt lat="43.2731817" lon="11.545315"><ele>245.0</ele><time>2026-04-11T03:27:57.991Z</time></trkpt><trkpt lat="43.2731783" lon="11.5454083"><ele>246.0</ele><time>2026-04-11T03:28:00.99Z</time></trkpt><trkpt lat="43.2731733" lon="11.5455033"><ele>247.0</ele><time>2026-04-11T03:28:03.99Z</time></trkpt><trkpt lat="43.2731733" lon="11.5456033"><ele>248.0</ele><time>2026-04-11T03:28:06.99Z</time></trkpt><trkpt lat="43.2731883" lon="11.54572"><ele>249.0</ele><time>2026-04-11T03:28:10.99Z</time></trkpt><trkpt lat="43.27319" lon="11.5458217"><ele>250.0</ele><time>2026-04-11T03:28:13.99Z</time></trkpt><trkpt lat="43.2732017" lon="11.5459183"><ele>251.0</ele><time>2026-04-11T03:28:16.99Z</time></trkpt><trkpt lat="43.273215" lon="11.5460067"><ele>252.0</ele><time>2026-04-11T03:28:19.99Z</time></trkpt><trkpt lat="43.27323" lon="11.5460983"><ele>252.0</ele><time>2026-04-11T03:28:22.99Z</time></trkpt><trkpt lat="43.27325" lon="11.5462017"><ele>252.0</ele><time>2026-04-11T03:28:25.99Z</time></trkpt><trkpt lat="43.2732817" lon="11.5462867"><ele>252.0</ele><time>2026-04-11T03:28:28.991Z</time></trkpt><trkpt lat="43.27331" lon="11.5463667"><ele>252.0</ele><time>2026-04-11T03:28:31.99Z</time></trkpt><trkpt lat="43.273335" lon="11.5464467"><ele>252.0</ele><time>2026-04-11T03:28:34.991Z</time></trkpt><trkpt lat="43.273355" lon="11.5465517"><ele>252.0</ele><time>2026-04-11T03:28:38.991Z</time></trkpt><trkpt lat="43.27339" lon="11.5466367"><ele>252.0</ele><time>2026-04-11T03:28:42.99Z</time></trkpt><trkpt lat="43.2734333" lon="11.5467083"><ele>253.5</ele><time>2026-04-11T03:28:46.99Z</time></trkpt><trkpt lat="43.273465" lon="11.546785"><ele>255.0</ele><time>2026-04-11T03:28:49.99Z</time></trkpt><trkpt lat="43.2735067" lon="11.546865"><ele>256.5</ele><time>2026-04-11T03:28:53.99Z</time></trkpt><trkpt lat="43.2735667" lon="11.546945"><ele>258.0</ele><time>2026-04-11T03:28:57.99Z</time></trkpt><trkpt lat="43.2736333" lon="11.5469867"><ele>259.5</ele><time>2026-04-11T03:29:01.991Z</time></trkpt><trkpt lat="43.2737033" lon="11.5470367"><ele>261.0</ele><time>2026-04-11T03:29:06.991Z</time></trkpt><trkpt lat="43.2737833" lon="11.5470717"><ele>262.0</ele><time>2026-04-11T03:29:10.99Z</time></trkpt><trkpt lat="43.27385" lon="11.5471033"><ele>263.0</ele><time>2026-04-11T03:29:14.99Z</time></trkpt><trkpt lat="43.2739133" lon="11.5470933"><ele>264.0</ele><time>2026-04-11T03:29:18.99Z</time></trkpt><trkpt lat="43.273985" lon="11.54708"><ele>265.0</ele><time>2026-04-11T03:29:22.99Z</time></trkpt><trkpt lat="43.2740633" lon="11.5470817"><ele>266.0</ele><time>2026-04-11T03:29:26.99Z</time></trkpt><trkpt lat="43.2741267" lon="11.5470767"><ele>267.0</ele><time>2026-04-11T03:29:30.99Z</time></trkpt><trkpt lat="43.2741967" lon="11.5470767"><ele>268.0</ele><time>2026-04-11T03:29:34.99Z</time></trkpt><trkpt lat="43.2742683" lon="11.5470667"><ele>269.57142857142856</ele><time>2026-04-11T03:29:38.99Z</time></trkpt><trkpt lat="43.2743367" lon="11.5470467"><ele>271.1428571428571</ele><time>2026-04-11T03:29:43.99Z</time></trkpt><trkpt lat="43.27441" lon="11.547045"><ele>272.71428571428567</ele><time>2026-04-11T03:29:47.99Z</time></trkpt><trkpt lat="43.2744783" lon="11.54705"><ele>274.2857142857143</ele><time>2026-04-11T03:29:51.99Z</time></trkpt><trkpt lat="43.2745567" lon="11.5470733"><ele>275.85714285714283</ele><time>2026-04-11T03:29:55.99Z</time></trkpt><trkpt lat="43.27462" lon="11.5470783"><ele>277.4285714285714</ele><time>2026-04-11T03:29:59.99Z</time></trkpt><trkpt lat="43.2746917" lon="11.5471217"><ele>279.0</ele><time>2026-04-11T03:30:04.99Z</time></trkpt><trkpt lat="43.2747567" lon="11.5471467"><ele>279.99999999999994</ele><time>2026-04-11T03:30:09.99Z</time></trkpt><trkpt lat="43.27482" lon="11.54719"><ele>281.0</ele><time>2026-04-11T03:30:13.991Z</time></trkpt><trkpt lat="43.27488" lon="11.5472367"><ele>282.0</ele><time>2026-04-11T03:30:18.99Z</time></trkpt><trkpt lat="43.2749333" lon="11.5472833"><ele>283.0</ele><time>2026-04-11T03:30:22.99Z</time></trkpt><trkpt lat="43.2749817" lon="11.54734"><ele>284.0</ele><time>2026-04-11T03:30:26.99Z</time></trkpt><trkpt lat="43.2750467" lon="11.5473867"><ele>284.99999999999994</ele><time>2026-04-11T03:30:31.99Z</time></trkpt><trkpt lat="43.2751117" lon="11.54745"><ele>286.0</ele><time>2026-04-11T03:30:35.99Z</time></trkpt><trkpt lat="43.2751733" lon="11.5474917"><ele>285.99999999999994</ele><time>2026-04-11T03:30:39.99Z</time></trkpt><trkpt lat="43.2752267" lon="11.5475417"><ele>286.0</ele><time>2026-04-11T03:30:43.991Z</time></trkpt><trkpt lat="43.2752767" lon="11.5476"><ele>286.0</ele><time>2026-04-11T03:30:47.99Z</time></trkpt><trkpt lat="43.2753483" lon="11.547655"><ele>286.0</ele><time>2026-04-11T03:30:52.99Z</time></trkpt><trkpt lat="43.2754117" lon="11.547705"><ele>286.0</ele><time>2026-04-11T03:30:57.991Z</time></trkpt><trkpt lat="43.2754767" lon="11.54777"><ele>285.99999999999994</ele><time>2026-04-11T03:31:02.99Z</time></trkpt><trkpt lat="43.275535" lon="11.547815"><ele>286.0</ele><time>2026-04-11T03:31:06.99Z</time></trkpt><trkpt lat="43.2755933" lon="11.5478517"><ele>288.1428571428571</ele><time>2026-04-11T03:31:10.99Z</time></trkpt><trkpt lat="43.275665" lon="11.5479083"><ele>290.2857142857143</ele><time>2026-04-11T03:31:14.99Z</time></trkpt><trkpt lat="43.2757283" lon="11.547955"><ele>292.42857142857144</ele><time>2026-04-11T03:31:18.991Z</time></trkpt><trkpt lat="43.275795" lon="11.548"><ele>294.57142857142856</ele><time>2026-04-11T03:31:22.99Z</time></trkpt><trkpt lat="43.2758617" lon="11.5480317"><ele>296.7142857142857</ele><time>2026-04-11T03:31:25.99Z</time></trkpt><trkpt lat="43.2759267" lon="11.54807"><ele>298.85714285714283</ele><time>2026-04-11T03:31:28.99Z</time></trkpt><trkpt lat="43.27599" lon="11.54809"><ele>301.0</ele><time>2026-04-11T03:31:31.99Z</time></trkpt><trkpt lat="43.27606" lon="11.5481283"><ele>301.0</ele><time>2026-04-11T03:31:34.99Z</time></trkpt><trkpt lat="43.27614" lon="11.548155"><ele>301.0</ele><time>2026-04-11T03:31:37.99Z</time></trkpt><trkpt lat="43.2762217" lon="11.548165"><ele>301.0</ele><time>2026-04-11T03:31:40.99Z</time></trkpt><trkpt lat="43.2762933" lon="11.54817"><ele>301.0</ele><time>2026-04-11T03:31:43.991Z</time></trkpt><trkpt lat="43.2763633" lon="11.5481867"><ele>301.0</ele><time>2026-04-11T03:31:46.99Z</time></trkpt><trkpt lat="43.2764233" lon="11.54822"><ele>301.0</ele><time>2026-04-11T03:31:48.99Z</time></trkpt><trkpt lat="43.2764967" lon="11.5482583"><ele>299.6</ele><time>2026-04-11T03:31:50.99Z</time></trkpt><trkpt lat="43.2765717" lon="11.5482967"><ele>298.20000000000005</ele><time>2026-04-11T03:31:52.99Z</time></trkpt><trkpt lat="43.2766633" lon="11.5483567"><ele>296.79999999999995</ele><time>2026-04-11T03:31:54.99Z</time></trkpt><trkpt lat="43.2767667" lon="11.54843"><ele>295.4</ele><time>2026-04-11T03:31:56.99Z</time></trkpt><trkpt lat="43.2768733" lon="11.548525"><ele>294.0</ele><time>2026-04-11T03:31:58.99Z</time></trkpt><trkpt lat="43.2769283" lon="11.5485767"><ele>294.0</ele><time>2026-04-11T03:31:59.991Z</time></trkpt><trkpt lat="43.2769883" lon="11.5486417"><ele>294.0</ele><time>2026-04-11T03:32:00.99Z</time></trkpt><trkpt lat="43.27705" lon="11.54871"><ele>294.0</ele><time>2026-04-11T03:32:01.99Z</time></trkpt><trkpt lat="43.2771133" lon="11.548775"><ele>294.0</ele><time>2026-04-11T03:32:02.991Z</time></trkpt><trkpt lat="43.27718" lon="11.548835"><ele>294.0</ele><time>2026-04-11T03:32:03.99Z</time></trkpt><trkpt lat="43.277245" lon="11.54889"><ele>294.0</ele><time>2026-04-11T03:32:04.99Z</time></trkpt><trkpt lat="43.277315" lon="11.5489583"><ele>293.1666666666667</ele><time>2026-04-11T03:32:05.99Z</time></trkpt><trkpt lat="43.2773817" lon="11.5490117"><ele>292.3333333333333</ele><time>2026-04-11T03:32:06.99Z</time></trkpt><trkpt lat="43.277455" lon="11.5490817"><ele>291.5</ele><time>2026-04-11T03:32:07.99Z</time></trkpt><trkpt lat="43.2775283" lon="11.549155"><ele>290.66666666666663</ele><time>2026-04-11T03:32:08.99Z</time></trkpt><trkpt lat="43.2775983" lon="11.5492217"><ele>289.8333333333333</ele><time>2026-04-11T03:32:09.99Z</time></trkpt><trkpt lat="43.2776683" lon="11.5492833"><ele>289.0</ele><time>2026-04-11T03:32:10.99Z</time></trkpt><trkpt lat="43.277745" lon="11.5493417"><ele>289.0</ele><time>2026-04-11T03:32:11.99Z</time></trkpt><trkpt lat="43.2778267" lon="11.549385"><ele>289.0</ele><time>2026-04-11T03:32:12.99Z</time></trkpt><trkpt lat="43.2779183" lon="11.5494183"><ele>289.0</ele><time>2026-04-11T03:32:13.99Z</time></trkpt><trkpt lat="43.278005" lon="11.5494283"><ele>289.0</ele><time>2026-04-11T03:32:14.99Z</time></trkpt><trkpt lat="43.2780883" lon="11.549425"><ele>289.0</ele><time>2026-04-11T03:32:15.991Z</time></trkpt><trkpt lat="43.2781867" lon="11.5494317"><ele>286.0</ele><time>2026-04-11T03:32:16.99Z</time></trkpt><trkpt lat="43.2782817" lon="11.5494333"><ele>283.0</ele><time>2026-04-11T03:32:17.99Z</time></trkpt><trkpt lat="43.2783767" lon="11.5494367"><ele>280.0</ele><time>2026-04-11T03:32:18.99Z</time></trkpt><trkpt lat="43.2784733" lon="11.5494517"><ele>277.0</ele><time>2026-04-11T03:32:19.99Z</time></trkpt><trkpt lat="43.278575" lon="11.5494583"><ele>274.0</ele><time>2026-04-11T03:32:20.99Z</time></trkpt><trkpt lat="43.278675" lon="11.5494617"><ele>274.0</ele><time>2026-04-11T03:32:21.99Z</time></trkpt><trkpt lat="43.2787733" lon="11.5494683"><ele>274.0</ele><time>2026-04-11T03:32:22.99Z</time></trkpt><trkpt lat="43.2788633" lon="11.5494817"><ele>274.0</ele><time>2026-04-11T03:32:23.99Z</time></trkpt><trkpt lat="43.278945" lon="11.54951"><ele>274.0</ele><time>2026-04-11T03:32:24.99Z</time></trkpt><trkpt lat="43.27903" lon="11.5495467"><ele>274.0</ele><time>2026-04-11T03:32:25.99Z</time></trkpt><trkpt lat="43.27911" lon="11.5496033"><ele>273.66666666666663</ele><time>2026-04-11T03:32:26.99Z</time></trkpt><trkpt lat="43.27919" lon="11.5496617"><ele>273.3333333333333</ele><time>2026-04-11T03:32:27.99Z</time></trkpt><trkpt lat="43.2792683" lon="11.549715"><ele>273.0</ele><time>2026-04-11T03:32:28.99Z</time></trkpt><trkpt lat="43.2793483" lon="11.5497717"><ele>272.6666666666667</ele><time>2026-04-11T03:32:29.991Z</time></trkpt><trkpt lat="43.2794283" lon="11.5498217"><ele>272.33333333333337</ele><time>2026-04-11T03:32:30.99Z</time></trkpt><trkpt lat="43.2795183" lon="11.549855"><ele>272.0</ele><time>2026-04-11T03:32:31.99Z</time></trkpt><trkpt lat="43.2796117" lon="11.5498933"><ele>272.0</ele><time>2026-04-11T03:32:32.99Z</time></trkpt><trkpt lat="43.2797" lon="11.5499133"><ele>272.0</ele><time>2026-04-11T03:32:33.99Z</time></trkpt><trkpt lat="43.27978" lon="11.5499167"><ele>272.0</ele><time>2026-04-11T03:32:34.99Z</time></trkpt><trkpt lat="43.2798517" lon="11.5499133"><ele>272.0</ele><time>2026-04-11T03:32:35.99Z</time></trkpt><trkpt lat="43.2799167" lon="11.5499067"><ele>272.0</ele><time>2026-04-11T03:32:36.99Z</time></trkpt><trkpt lat="43.280035" lon="11.5498633"><ele>272.0</ele><time>2026-04-11T03:32:38.99Z</time></trkpt><trkpt lat="43.2800983" lon="11.5498367"><ele>271.5</ele><time>2026-04-11T03:32:39.991Z</time></trkpt><trkpt lat="43.280165" lon="11.549805"><ele>271.0</ele><time>2026-04-11T03:32:40.99Z</time></trkpt><trkpt lat="43.2802317" lon="11.54977"><ele>270.5</ele><time>2026-04-11T03:32:41.991Z</time></trkpt><trkpt lat="43.2803117" lon="11.5497"><ele>270.0</ele><time>2026-04-11T03:32:43.991Z</time></trkpt><trkpt lat="43.2803667" lon="11.5496533"><ele>269.5</ele><time>2026-04-11T03:32:45.99Z</time></trkpt><trkpt lat="43.28044" lon="11.5496133"><ele>269.0</ele><time>2026-04-11T03:32:48.99Z</time></trkpt><trkpt lat="43.280505" lon="11.5495533"><ele>268.5</ele><time>2026-04-11T03:32:51.99Z</time></trkpt><trkpt lat="43.2805633" lon="11.5494983"><ele>268.0</ele><time>2026-04-11T03:32:54.99Z</time></trkpt><trkpt lat="43.2806217" lon="11.54943"><ele>267.5</ele><time>2026-04-11T03:32:58.99Z</time></trkpt><trkpt lat="43.2806833" lon="11.549365"><ele>267.0</ele><time>2026-04-11T03:33:02.99Z</time></trkpt><trkpt lat="43.2807433" lon="11.5493"><ele>266.5</ele><time>2026-04-11T03:33:06.99Z</time></trkpt><trkpt lat="43.280785" lon="11.5492083"><ele>266.0</ele><time>2026-04-11T03:33:10.99Z</time></trkpt><trkpt lat="43.2808367" lon="11.5491283"><ele>268.0</ele><time>2026-04-11T03:33:15.991Z</time></trkpt><trkpt lat="43.2808767" lon="11.5490483"><ele>270.0</ele><time>2026-04-11T03:33:19.99Z</time></trkpt><trkpt lat="43.280925" lon="11.5489733"><ele>272.0</ele><time>2026-04-11T03:33:25.99Z</time></trkpt><trkpt lat="43.280965" lon="11.5488867"><ele>274.0</ele><time>2026-04-11T03:33:30.99Z</time></trkpt><trkpt lat="43.2810217" lon="11.54882"><ele>276.0</ele><time>2026-04-11T03:33:35.99Z</time></trkpt><trkpt lat="43.2810767" lon="11.5487583"><ele>278.0</ele><time>2026-04-11T03:33:39.99Z</time></trkpt><trkpt lat="43.2811283" lon="11.5486967"><ele>280.0</ele><time>2026-04-11T03:33:43.99Z</time></trkpt><trkpt lat="43.2811933" lon="11.5486333"><ele>280.0</ele><time>2026-04-11T03:33:48.99Z</time></trkpt><trkpt lat="43.2812567" lon="11.5485667"><ele>280.0</ele><time>2026-04-11T03:33:53.99Z</time></trkpt><trkpt lat="43.2813067" lon="11.5485083"><ele>280.0</ele><time>2026-04-11T03:33:57.99Z</time></trkpt><trkpt lat="43.2813617" lon="11.5484533"><ele>280.0</ele><time>2026-04-11T03:34:00.99Z</time></trkpt><trkpt lat="43.281415" lon="11.5483967"><ele>280.0</ele><time>2026-04-11T03:34:03.99Z</time></trkpt><trkpt lat="43.2814683" lon="11.548325"><ele>280.0</ele><time>2026-04-11T03:34:07.99Z</time></trkpt><trkpt lat="43.2815217" lon="11.5482667"><ele>280.0</ele><time>2026-04-11T03:34:11.99Z</time></trkpt><trkpt lat="43.281595" lon="11.54823"><ele>283.0</ele><time>2026-04-11T03:34:15.99Z</time></trkpt><trkpt lat="43.281665" lon="11.548185"><ele>286.0</ele><time>2026-04-11T03:34:19.99Z</time></trkpt><trkpt lat="43.2817267" lon="11.5481583"><ele>289.0</ele><time>2026-04-11T03:34:22.99Z</time></trkpt><trkpt lat="43.2817933" lon="11.5481283"><ele>292.0</ele><time>2026-04-11T03:34:25.991Z</time></trkpt><trkpt lat="43.281855" lon="11.5480967"><ele>295.0</ele><time>2026-04-11T03:34:28.99Z</time></trkpt><trkpt lat="43.2819217" lon="11.5480917"><ele>298.0</ele><time>2026-04-11T03:34:31.991Z</time></trkpt><trkpt lat="43.2819967" lon="11.54808"><ele>301.0</ele><time>2026-04-11T03:34:34.991Z</time></trkpt><trkpt lat="43.2820817" lon="11.54807"><ele>301.0</ele><time>2026-04-11T03:34:37.99Z</time></trkpt><trkpt lat="43.2821567" lon="11.54806"><ele>301.0</ele><time>2026-04-11T03:34:39.99Z</time></trkpt><trkpt lat="43.2822483" lon="11.5480467"><ele>301.0</ele><time>2026-04-11T03:34:41.99Z</time></trkpt><trkpt lat="43.2823617" lon="11.5480533"><ele>301.0</ele><time>2026-04-11T03:34:43.99Z</time></trkpt><trkpt lat="43.28248" lon="11.54807"><ele>301.0</ele><time>2026-04-11T03:34:45.991Z</time></trkpt><trkpt lat="43.2825933" lon="11.5480917"><ele>302.16666666666663</ele><time>2026-04-11T03:34:47.99Z</time></trkpt><trkpt lat="43.282655" lon="11.54811"><ele>303.3333333333333</ele><time>2026-04-11T03:34:48.99Z</time></trkpt><trkpt lat="43.2827767" lon="11.5481567"><ele>304.5</ele><time>2026-04-11T03:34:50.991Z</time></trkpt><trkpt lat="43.2828383" lon="11.548185"><ele>305.6666666666667</ele><time>2026-04-11T03:34:51.99Z</time></trkpt><trkpt lat="43.28295" lon="11.5482433"><ele>306.83333333333337</ele><time>2026-04-11T03:34:53.99Z</time></trkpt><trkpt lat="43.2830067" lon="11.5482833"><ele>308.0</ele><time>2026-04-11T03:34:54.99Z</time></trkpt><trkpt lat="43.2830633" lon="11.5483283"><ele>306.5</ele><time>2026-04-11T03:34:55.991Z</time></trkpt><trkpt lat="43.2831217" lon="11.5483717"><ele>305.0</ele><time>2026-04-11T03:34:56.99Z</time></trkpt><trkpt lat="43.2831833" lon="11.548415"><ele>303.5</ele><time>2026-04-11T03:34:57.99Z</time></trkpt><trkpt lat="43.2832433" lon="11.5484683"><ele>302.0</ele><time>2026-04-11T03:34:58.991Z</time></trkpt><trkpt lat="43.2833067" lon="11.5485367"><ele>300.5</ele><time>2026-04-11T03:34:59.99Z</time></trkpt><trkpt lat="43.2834167" lon="11.54861"><ele>299.0</ele><time>2026-04-11T03:35:01.99Z</time></trkpt><trkpt lat="43.2834783" lon="11.548635"><ele>299.0</ele><time>2026-04-11T03:35:02.99Z</time></trkpt><trkpt lat="43.28354" lon="11.5486717"><ele>299.0</ele><time>2026-04-11T03:35:03.99Z</time></trkpt><trkpt lat="43.2836083" lon="11.5487"><ele>299.0</ele><time>2026-04-11T03:35:04.99Z</time></trkpt><trkpt lat="43.2836767" lon="11.5487233"><ele>299.0</ele><time>2026-04-11T03:35:05.99Z</time></trkpt><trkpt lat="43.283745" lon="11.5487467"><ele>299.0</ele><time>2026-04-11T03:35:06.99Z</time></trkpt><trkpt lat="43.283815" lon="11.548755"><ele>299.0</ele><time>2026-04-11T03:35:07.99Z</time></trkpt><trkpt lat="43.2838883" lon="11.5487583"><ele>299.0</ele><time>2026-04-11T03:35:08.99Z</time></trkpt><trkpt lat="43.2839583" lon="11.5487617"><ele>298.59999999999997</ele><time>2026-04-11T03:35:09.99Z</time></trkpt><trkpt lat="43.2840217" lon="11.5487533"><ele>298.2</ele><time>2026-04-11T03:35:10.99Z</time></trkpt><trkpt lat="43.2840917" lon="11.548755"><ele>297.79999999999995</ele><time>2026-04-11T03:35:11.99Z</time></trkpt><trkpt lat="43.2842017" lon="11.54869"><ele>297.4</ele><time>2026-04-11T03:35:13.99Z</time></trkpt><trkpt lat="43.28429" lon="11.5485967"><ele>297.0</ele><time>2026-04-11T03:35:15.99Z</time></trkpt><trkpt lat="43.2843683" lon="11.5484733"><ele>296.6</ele><time>2026-04-11T03:35:17.99Z</time></trkpt><trkpt lat="43.2844283" lon="11.548345"><ele>296.2</ele><time>2026-04-11T03:35:19.99Z</time></trkpt><trkpt lat="43.284475" lon="11.548215"><ele>295.8</ele><time>2026-04-11T03:35:21.99Z</time></trkpt><trkpt lat="43.2845217" lon="11.54808"><ele>295.4</ele><time>2026-04-11T03:35:23.99Z</time></trkpt><trkpt lat="43.2845583" lon="11.5479783"><ele>295.0</ele><time>2026-04-11T03:35:25.99Z</time></trkpt><trkpt lat="43.28459" lon="11.547895"><ele>293.5714285714286</ele><time>2026-04-11T03:35:27.99Z</time></trkpt><trkpt lat="43.2846133" lon="11.5478117"><ele>292.14285714285717</ele><time>2026-04-11T03:35:29.99Z</time></trkpt><trkpt lat="43.284645" lon="11.5477267"><ele>290.7142857142857</ele><time>2026-04-11T03:35:31.99Z</time></trkpt><trkpt lat="43.2846733" lon="11.54764"><ele>289.28571428571433</ele><time>2026-04-11T03:35:33.99Z</time></trkpt><trkpt lat="43.2846883" lon="11.5475533"><ele>287.8571428571429</ele><time>2026-04-11T03:35:35.99Z</time></trkpt><trkpt lat="43.2847" lon="11.547465"><ele>286.42857142857144</ele><time>2026-04-11T03:35:37.99Z</time></trkpt><trkpt lat="43.2847067" lon="11.5473433"><ele>285.0</ele><time>2026-04-11T03:35:40.99Z</time></trkpt><trkpt lat="43.2847183" lon="11.5472583"><ele>285.0</ele><time>2026-04-11T03:35:42.99Z</time></trkpt><trkpt lat="43.2847467" lon="11.5471383"><ele>285.0</ele><time>2026-04-11T03:35:45.99Z</time></trkpt><trkpt lat="43.2847767" lon="11.54706"><ele>285.0</ele><time>2026-04-11T03:35:47.99Z</time></trkpt><trkpt lat="43.2848183" lon="11.5469533"><ele>285.0</ele><time>2026-04-11T03:35:50.99Z</time></trkpt><trkpt lat="43.2848533" lon="11.54688"><ele>285.0</ele><time>2026-04-11T03:35:53.99Z</time></trkpt><trkpt lat="43.2848933" lon="11.5467983"><ele>285.0</ele><time>2026-04-11T03:35:57.99Z</time></trkpt><trkpt lat="43.2849533" lon="11.5467233"><ele>288.57142857142856</ele><time>2026-04-11T03:36:01.99Z</time></trkpt><trkpt lat="43.2850033" lon="11.5466667"><ele>292.14285714285717</ele><time>2026-04-11T03:36:04.99Z</time></trkpt><trkpt lat="43.2850667" lon="11.546595"><ele>295.7142857142857</ele><time>2026-04-11T03:36:08.99Z</time></trkpt><trkpt lat="43.28513" lon="11.54657"><ele>299.2857142857143</ele><time>2026-04-11T03:36:11.99Z</time></trkpt><trkpt lat="43.2852017" lon="11.546515"><ele>302.85714285714283</ele><time>2026-04-11T03:36:15.991Z</time></trkpt><trkpt lat="43.28526" lon="11.546455"><ele>306.42857142857144</ele><time>2026-04-11T03:36:17.99Z</time></trkpt><trkpt lat="43.2853317" lon="11.54641"><ele>310.0</ele><time>2026-04-11T03:36:20.99Z</time></trkpt><trkpt lat="43.285395" lon="11.5463667"><ele>310.0</ele><time>2026-04-11T03:36:23.99Z</time></trkpt><trkpt lat="43.2854817" lon="11.5463183"><ele>310.0</ele><time>2026-04-11T03:36:26.99Z</time></trkpt><trkpt lat="43.2855467" lon="11.54627"><ele>310.0</ele><time>2026-04-11T03:36:28.99Z</time></trkpt><trkpt lat="43.2856217" lon="11.5462183"><ele>310.0</ele><time>2026-04-11T03:36:30.99Z</time></trkpt><trkpt lat="43.2856983" lon="11.5461483"><ele>310.0</ele><time>2026-04-11T03:36:32.991Z</time></trkpt><trkpt lat="43.2857983" lon="11.5460517"><ele>310.8</ele><time>2026-04-11T03:36:34.99Z</time></trkpt><trkpt lat="43.2859017" lon="11.5459617"><ele>311.6</ele><time>2026-04-11T03:36:36.99Z</time></trkpt><trkpt lat="43.2860167" lon="11.545875"><ele>312.4</ele><time>2026-04-11T03:36:38.99Z</time></trkpt><trkpt lat="43.28609" lon="11.5458367"><ele>313.2</ele><time>2026-04-11T03:36:39.99Z</time></trkpt><trkpt lat="43.286155" lon="11.5458167"><ele>314.0</ele><time>2026-04-11T03:36:40.991Z</time></trkpt><trkpt lat="43.2862183" lon="11.5458067"><ele>313.99999999999994</ele><time>2026-04-11T03:36:41.99Z</time></trkpt><trkpt lat="43.2862833" lon="11.54582"><ele>314.0</ele><time>2026-04-11T03:36:42.99Z</time></trkpt><trkpt lat="43.2863483" lon="11.5458433"><ele>314.0</ele><time>2026-04-11T03:36:43.99Z</time></trkpt><trkpt lat="43.2864133" lon="11.5458767"><ele>314.0</ele><time>2026-04-11T03:36:44.991Z</time></trkpt><trkpt lat="43.286475" lon="11.5459183"><ele>314.0</ele><time>2026-04-11T03:36:45.99Z</time></trkpt><trkpt lat="43.286535" lon="11.545975"><ele>313.99999999999994</ele><time>2026-04-11T03:36:46.99Z</time></trkpt><trkpt lat="43.286595" lon="11.5460133"><ele>314.0</ele><time>2026-04-11T03:36:47.99Z</time></trkpt><trkpt lat="43.2866617" lon="11.5460467"><ele>313.71428571428567</ele><time>2026-04-11T03:36:48.99Z</time></trkpt><trkpt lat="43.2867283" lon="11.5460633"><ele>313.42857142857144</ele><time>2026-04-11T03:36:49.99Z</time></trkpt><trkpt lat="43.2868067" lon="11.5460933"><ele>313.1428571428571</ele><time>2026-04-11T03:36:50.99Z</time></trkpt><trkpt lat="43.2868817" lon="11.5461033"><ele>312.85714285714283</ele><time>2026-04-11T03:36:51.99Z</time></trkpt><trkpt lat="43.286955" lon="11.5461033"><ele>312.57142857142856</ele><time>2026-04-11T03:36:52.99Z</time></trkpt><trkpt lat="43.2870217" lon="11.5460867"><ele>312.2857142857143</ele><time>2026-04-11T03:36:53.99Z</time></trkpt><trkpt lat="43.28709" lon="11.5460633"><ele>312.0</ele><time>2026-04-11T03:36:54.991Z</time></trkpt><trkpt lat="43.2871633" lon="11.5460267"><ele>312.0</ele><time>2026-04-11T03:36:55.991Z</time></trkpt><trkpt lat="43.2872167" lon="11.5459617"><ele>312.0</ele><time>2026-04-11T03:36:56.99Z</time></trkpt><trkpt lat="43.2872533" lon="11.5458733"><ele>312.0</ele><time>2026-04-11T03:36:57.99Z</time></trkpt><trkpt lat="43.287275" lon="11.5457667"><ele>312.0</ele><time>2026-04-11T03:36:58.99Z</time></trkpt><trkpt lat="43.2872933" lon="11.5456367"><ele>312.0</ele><time>2026-04-11T03:36:59.99Z</time></trkpt><trkpt lat="43.2873083" lon="11.545515"><ele>312.0</ele><time>2026-04-11T03:37:00.99Z</time></trkpt><trkpt lat="43.2873183" lon="11.545395"><ele>310.1666666666667</ele><time>2026-04-11T03:37:01.99Z</time></trkpt><trkpt lat="43.287325" lon="11.54528"><ele>308.3333333333333</ele><time>2026-04-11T03:37:02.99Z</time></trkpt><trkpt lat="43.2873267" lon="11.5451783"><ele>306.5</ele><time>2026-04-11T03:37:03.99Z</time></trkpt><trkpt lat="43.2873333" lon="11.5450833"><ele>304.66666666666663</ele><time>2026-04-11T03:37:04.991Z</time></trkpt><trkpt lat="43.2873417" lon="11.544985"><ele>302.8333333333333</ele><time>2026-04-11T03:37:05.99Z</time></trkpt><trkpt lat="43.287355" lon="11.5448817"><ele>301.0</ele><time>2026-04-11T03:37:06.99Z</time></trkpt><trkpt lat="43.28737" lon="11.5447817"><ele>301.0</ele><time>2026-04-11T03:37:07.99Z</time></trkpt><trkpt lat="43.2873883" lon="11.54468"><ele>301.0</ele><time>2026-04-11T03:37:08.99Z</time></trkpt><trkpt lat="43.287405" lon="11.5445833"><ele>301.0</ele><time>2026-04-11T03:37:09.991Z</time></trkpt><trkpt lat="43.287425" lon="11.5444917"><ele>301.0</ele><time>2026-04-11T03:37:10.99Z</time></trkpt><trkpt lat="43.2874517" lon="11.5444033"><ele>301.0</ele><time>2026-04-11T03:37:11.991Z</time></trkpt><trkpt lat="43.28748" lon="11.544315"><ele>301.0</ele><time>2026-04-11T03:37:12.99Z</time></trkpt><trkpt lat="43.2875133" lon="11.5442267"><ele>301.0</ele><time>2026-04-11T03:37:13.99Z</time></trkpt><trkpt lat="43.2875467" lon="11.5441483"><ele>300.66666666666663</ele><time>2026-04-11T03:37:14.991Z</time></trkpt><trkpt lat="43.2875667" lon="11.54406"><ele>300.3333333333333</ele><time>2026-04-11T03:37:15.99Z</time></trkpt><trkpt lat="43.2875867" lon="11.5439617"><ele>300.0</ele><time>2026-04-11T03:37:16.99Z</time></trkpt><trkpt lat="43.2876" lon="11.5438633"><ele>299.6666666666667</ele><time>2026-04-11T03:37:17.99Z</time></trkpt><trkpt lat="43.28761" lon="11.54376"><ele>299.33333333333337</ele><time>2026-04-11T03:37:18.99Z</time></trkpt><trkpt lat="43.28761" lon="11.5436383"><ele>299.0</ele><time>2026-04-11T03:37:19.99Z</time></trkpt><trkpt lat="43.2876117" lon="11.5435233"><ele>298.1666666666667</ele><time>2026-04-11T03:37:20.99Z</time></trkpt><trkpt lat="43.287625" lon="11.5433883"><ele>297.33333333333337</ele><time>2026-04-11T03:37:21.99Z</time></trkpt><trkpt lat="43.2876317" lon="11.5432767"><ele>296.5</ele><time>2026-04-11T03:37:22.99Z</time></trkpt><trkpt lat="43.287645" lon="11.5431667"><ele>295.6666666666667</ele><time>2026-04-11T03:37:23.99Z</time></trkpt><trkpt lat="43.2876683" lon="11.5430583"><ele>294.8333333333333</ele><time>2026-04-11T03:37:24.99Z</time></trkpt><trkpt lat="43.2877" lon="11.542965"><ele>294.0</ele><time>2026-04-11T03:37:25.99Z</time></trkpt><trkpt lat="43.287725" lon="11.5428767"><ele>291.59999999999997</ele><time>2026-04-11T03:37:26.99Z</time></trkpt><trkpt lat="43.28777" lon="11.5427233"><ele>289.2</ele><time>2026-04-11T03:37:28.99Z</time></trkpt><trkpt lat="43.287815" lon="11.5425917"><ele>286.79999999999995</ele><time>2026-04-11T03:37:30.99Z</time></trkpt><trkpt lat="43.2878733" lon="11.54248"><ele>284.4</ele><time>2026-04-11T03:37:32.99Z</time></trkpt><trkpt lat="43.2879233" lon="11.5423667"><ele>282.0</ele><time>2026-04-11T03:37:34.991Z</time></trkpt><trkpt lat="43.2879767" lon="11.5422667"><ele>282.0</ele><time>2026-04-11T03:37:36.991Z</time></trkpt><trkpt lat="43.288035" lon="11.54218"><ele>282.0</ele><time>2026-04-11T03:37:38.99Z</time></trkpt><trkpt lat="43.2880883" lon="11.5420917"><ele>282.0</ele><time>2026-04-11T03:37:40.99Z</time></trkpt><trkpt lat="43.288125" lon="11.541995"><ele>282.0</ele><time>2026-04-11T03:37:42.99Z</time></trkpt><trkpt lat="43.288165" lon="11.5419"><ele>282.0</ele><time>2026-04-11T03:37:44.99Z</time></trkpt><trkpt lat="43.2882133" lon="11.5418"><ele>282.0</ele><time>2026-04-11T03:37:46.99Z</time></trkpt><trkpt lat="43.2882467" lon="11.541685"><ele>286.0</ele><time>2026-04-11T03:37:48.99Z</time></trkpt><trkpt lat="43.28829" lon="11.5415633"><ele>290.0</ele><time>2026-04-11T03:37:50.99Z</time></trkpt><trkpt lat="43.28835" lon="11.5414617"><ele>294.0</ele><time>2026-04-11T03:37:52.99Z</time></trkpt><trkpt lat="43.2884233" lon="11.5413833"><ele>298.0</ele><time>2026-04-11T03:37:54.99Z</time></trkpt><trkpt lat="43.2885" lon="11.5413233"><ele>302.0</ele><time>2026-04-11T03:37:56.99Z</time></trkpt><trkpt lat="43.28858" lon="11.5412617"><ele>302.0</ele><time>2026-04-11T03:37:58.99Z</time></trkpt><trkpt lat="43.2886767" lon="11.5412217"><ele>302.0</ele><time>2026-04-11T03:38:00.99Z</time></trkpt><trkpt lat="43.2887583" lon="11.5411917"><ele>302.0</ele><time>2026-04-11T03:38:02.991Z</time></trkpt><trkpt lat="43.28883" lon="11.54117"><ele>302.0</ele><time>2026-04-11T03:38:04.991Z</time></trkpt><trkpt lat="43.2889033" lon="11.5411517"><ele>302.0</ele><time>2026-04-11T03:38:06.99Z</time></trkpt><trkpt lat="43.2889617" lon="11.541115"><ele>302.0</ele><time>2026-04-11T03:38:08.99Z</time></trkpt><trkpt lat="43.2890483" lon="11.5410717"><ele>302.0</ele><time>2026-04-11T03:38:11.99Z</time></trkpt><trkpt lat="43.2891117" lon="11.5410417"><ele>302.0</ele><time>2026-04-11T03:38:13.99Z</time></trkpt><trkpt lat="43.2891883" lon="11.541035"><ele>302.0</ele><time>2026-04-11T03:38:15.99Z</time></trkpt><trkpt lat="43.289265" lon="11.5410233"><ele>302.0</ele><time>2026-04-11T03:38:17.99Z</time></trkpt><trkpt lat="43.2893467" lon="11.541025"><ele>302.0</ele><time>2026-04-11T03:38:19.99Z</time></trkpt><trkpt lat="43.28942" lon="11.54104"><ele>302.0</ele><time>2026-04-11T03:38:21.99Z</time></trkpt><trkpt lat="43.289495" lon="11.5410533"><ele>302.0</ele><time>2026-04-11T03:38:23.99Z</time></trkpt><trkpt lat="43.289565" lon="11.54106"><ele>302.0</ele><time>2026-04-11T03:38:25.99Z</time></trkpt><trkpt lat="43.289645" lon="11.54109"><ele>302.0</ele><time>2026-04-11T03:38:27.99Z</time></trkpt><trkpt lat="43.2897367" lon="11.54111"><ele>302.0</ele><time>2026-04-11T03:38:29.99Z</time></trkpt><trkpt lat="43.28982" lon="11.5411233"><ele>302.0</ele><time>2026-04-11T03:38:31.99Z</time></trkpt><trkpt lat="43.2898917" lon="11.54114"><ele>302.0</ele><time>2026-04-11T03:38:33.99Z</time></trkpt><trkpt lat="43.2899633" lon="11.5411433"><ele>302.0</ele><time>2026-04-11T03:38:35.99Z</time></trkpt><trkpt lat="43.2900367" lon="11.54113"><ele>302.0</ele><time>2026-04-11T03:38:37.99Z</time></trkpt><trkpt lat="43.290125" lon="11.5411183"><ele>302.0</ele><time>2026-04-11T03:38:39.99Z</time></trkpt><trkpt lat="43.2902217" lon="11.5411317"><ele>302.0</ele><time>2026-04-11T03:38:41.99Z</time></trkpt><trkpt lat="43.2903117" lon="11.541155"><ele>302.0</ele><time>2026-04-11T03:38:43.99Z</time></trkpt><trkpt lat="43.2904083" lon="11.54119"><ele>303.6</ele><time>2026-04-11T03:38:45.99Z</time></trkpt><trkpt lat="43.2905217" lon="11.5412217"><ele>305.2</ele><time>2026-04-11T03:38:47.99Z</time></trkpt><trkpt lat="43.2906433" lon="11.5412883"><ele>306.8</ele><time>2026-04-11T03:38:49.99Z</time></trkpt><trkpt lat="43.2907117" lon="11.5413183"><ele>308.4</ele><time>2026-04-11T03:38:50.99Z</time></trkpt><trkpt lat="43.29078" lon="11.5413417"><ele>310.0</ele><time>2026-04-11T03:38:51.99Z</time></trkpt><trkpt lat="43.290845" lon="11.541355"><ele>310.0</ele><time>2026-04-11T03:38:52.99Z</time></trkpt><trkpt lat="43.290915" lon="11.54136"><ele>310.0</ele><time>2026-04-11T03:38:53.99Z</time></trkpt><trkpt lat="43.2909833" lon="11.541345"><ele>310.0</ele><time>2026-04-11T03:38:54.99Z</time></trkpt><trkpt lat="43.29105" lon="11.5413183"><ele>310.0</ele><time>2026-04-11T03:38:55.991Z</time></trkpt><trkpt lat="43.2911083" lon="11.5412783"><ele>310.0</ele><time>2026-04-11T03:38:56.99Z</time></trkpt><trkpt lat="43.2911917" lon="11.5411833"><ele>310.0</ele><time>2026-04-11T03:38:58.991Z</time></trkpt><trkpt lat="43.2912467" lon="11.5410767"><ele>309.14285714285717</ele><time>2026-04-11T03:39:00.99Z</time></trkpt><trkpt lat="43.2912983" lon="11.5409917"><ele>308.2857142857143</ele><time>2026-04-11T03:39:02.99Z</time></trkpt><trkpt lat="43.2913233" lon="11.5409017"><ele>307.42857142857144</ele><time>2026-04-11T03:39:04.991Z</time></trkpt><trkpt lat="43.291325" lon="11.5408067"><ele>306.57142857142856</ele><time>2026-04-11T03:39:06.99Z</time></trkpt><trkpt lat="43.291325" lon="11.5407117"><ele>305.7142857142857</ele><time>2026-04-11T03:39:08.99Z</time></trkpt><trkpt lat="43.2913133" lon="11.5406183"><ele>304.85714285714283</ele><time>2026-04-11T03:39:10.99Z</time></trkpt><trkpt lat="43.291305" lon="11.540495"><ele>304.0</ele><time>2026-04-11T03:39:13.99Z</time></trkpt><trkpt lat="43.2912883" lon="11.5403783"><ele>303.66666666666663</ele><time>2026-04-11T03:39:16.99Z</time></trkpt><trkpt lat="43.29129" lon="11.5402867"><ele>303.3333333333333</ele><time>2026-04-11T03:39:18.99Z</time></trkpt><trkpt lat="43.2912983" lon="11.5401917"><ele>303.0</ele><time>2026-04-11T03:39:20.99Z</time></trkpt><trkpt lat="43.2913217" lon="11.5400717"><ele>302.6666666666667</ele><time>2026-04-11T03:39:23.99Z</time></trkpt><trkpt lat="43.2913483" lon="11.5399533"><ele>302.33333333333337</ele><time>2026-04-11T03:39:26.99Z</time></trkpt><trkpt lat="43.291375" lon="11.5398583"><ele>302.0</ele><time>2026-04-11T03:39:28.99Z</time></trkpt><trkpt lat="43.2914117" lon="11.5397767"><ele>302.83333333333337</ele><time>2026-04-11T03:39:30.99Z</time></trkpt><trkpt lat="43.291435" lon="11.53969"><ele>303.6666666666667</ele><time>2026-04-11T03:39:32.99Z</time></trkpt><trkpt lat="43.2914717" lon="11.539595"><ele>304.5</ele><time>2026-04-11T03:39:34.99Z</time></trkpt><trkpt lat="43.2915083" lon="11.5395083"><ele>305.3333333333333</ele><time>2026-04-11T03:39:36.99Z</time></trkpt><trkpt lat="43.2915367" lon="11.5393967"><ele>306.16666666666663</ele><time>2026-04-11T03:39:38.99Z</time></trkpt><trkpt lat="43.29157" lon="11.539305"><ele>307.0</ele><time>2026-04-11T03:39:40.99Z</time></trkpt><trkpt lat="43.291605" lon="11.5391967"><ele>308.4285714285714</ele><time>2026-04-11T03:39:42.991Z</time></trkpt><trkpt lat="43.291645" lon="11.5391083"><ele>309.85714285714283</ele><time>2026-04-11T03:39:44.991Z</time></trkpt><trkpt lat="43.2916817" lon="11.5390217"><ele>311.2857142857143</ele><time>2026-04-11T03:39:46.991Z</time></trkpt><trkpt lat="43.29172" lon="11.538945"><ele>312.71428571428567</ele><time>2026-04-11T03:39:48.99Z</time></trkpt><trkpt lat="43.2917667" lon="11.5388783"><ele>314.1428571428571</ele><time>2026-04-11T03:39:50.99Z</time></trkpt><trkpt lat="43.2918317" lon="11.538815"><ele>315.57142857142856</ele><time>2026-04-11T03:39:52.99Z</time></trkpt><trkpt lat="43.2918883" lon="11.53877"><ele>317.0</ele><time>2026-04-11T03:39:54.99Z</time></trkpt><trkpt lat="43.2919533" lon="11.5387533"><ele>317.0</ele><time>2026-04-11T03:39:56.99Z</time></trkpt><trkpt lat="43.292025" lon="11.538755"><ele>317.0</ele><time>2026-04-11T03:39:58.99Z</time></trkpt><trkpt lat="43.2921083" lon="11.538775"><ele>317.0</ele><time>2026-04-11T03:40:01.99Z</time></trkpt><trkpt lat="43.2921967" lon="11.5388"><ele>317.0</ele><time>2026-04-11T03:40:04.99Z</time></trkpt><trkpt lat="43.292265" lon="11.5388133"><ele>317.0</ele><time>2026-04-11T03:40:06.991Z</time></trkpt><trkpt lat="43.2923333" lon="11.5388233"><ele>317.0</ele><time>2026-04-11T03:40:08.99Z</time></trkpt><trkpt lat="43.292405" lon="11.5388433"><ele>317.0</ele><time>2026-04-11T03:40:10.991Z</time></trkpt><trkpt lat="43.2924883" lon="11.538845"><ele>317.0</ele><time>2026-04-11T03:40:12.99Z</time></trkpt><trkpt lat="43.2925717" lon="11.5388567"><ele>317.0</ele><time>2026-04-11T03:40:14.99Z</time></trkpt><trkpt lat="43.292645" lon="11.53885"><ele>317.0</ele><time>2026-04-11T03:40:16.99Z</time></trkpt><trkpt lat="43.2927267" lon="11.53878"><ele>317.0</ele><time>2026-04-11T03:40:19.99Z</time></trkpt><trkpt lat="43.292795" lon="11.5387183"><ele>317.0</ele><time>2026-04-11T03:40:21.99Z</time></trkpt><trkpt lat="43.292885" lon="11.5386483"><ele>316.1666666666667</ele><time>2026-04-11T03:40:23.991Z</time></trkpt><trkpt lat="43.2929883" lon="11.53855"><ele>315.33333333333337</ele><time>2026-04-11T03:40:25.99Z</time></trkpt><trkpt lat="43.2930433" lon="11.5384933"><ele>314.5</ele><time>2026-04-11T03:40:26.991Z</time></trkpt><trkpt lat="43.2931017" lon="11.5384433"><ele>313.6666666666667</ele><time>2026-04-11T03:40:27.99Z</time></trkpt><trkpt lat="43.2931617" lon="11.5383933"><ele>312.8333333333333</ele><time>2026-04-11T03:40:28.99Z</time></trkpt><trkpt lat="43.2932283" lon="11.5383433"><ele>312.0</ele><time>2026-04-11T03:40:29.99Z</time></trkpt><trkpt lat="43.2933017" lon="11.5382883"><ele>312.0</ele><time>2026-04-11T03:40:30.99Z</time></trkpt><trkpt lat="43.2933733" lon="11.5382267"><ele>312.0</ele><time>2026-04-11T03:40:31.991Z</time></trkpt><trkpt lat="43.2934483" lon="11.5381667"><ele>312.0</ele><time>2026-04-11T03:40:32.99Z</time></trkpt><trkpt lat="43.2935233" lon="11.5381033"><ele>312.0</ele><time>2026-04-11T03:40:33.991Z</time></trkpt><trkpt lat="43.2935967" lon="11.5380383"><ele>312.0</ele><time>2026-04-11T03:40:34.99Z</time></trkpt><trkpt lat="43.2936683" lon="11.5379717"><ele>312.0</ele><time>2026-04-11T03:40:35.99Z</time></trkpt><trkpt lat="43.29374" lon="11.537905"><ele>312.1666666666667</ele><time>2026-04-11T03:40:36.99Z</time></trkpt><trkpt lat="43.29381" lon="11.537845"><ele>312.3333333333333</ele><time>2026-04-11T03:40:37.99Z</time></trkpt><trkpt lat="43.2938783" lon="11.5377833"><ele>312.5</ele><time>2026-04-11T03:40:38.99Z</time></trkpt><trkpt lat="43.2939367" lon="11.5377167"><ele>312.66666666666663</ele><time>2026-04-11T03:40:39.99Z</time></trkpt><trkpt lat="43.2939967" lon="11.5376533"><ele>312.8333333333333</ele><time>2026-04-11T03:40:40.99Z</time></trkpt><trkpt lat="43.2940483" lon="11.53759"><ele>313.0</ele><time>2026-04-11T03:40:41.99Z</time></trkpt><trkpt lat="43.2941367" lon="11.537475"><ele>313.0</ele><time>2026-04-11T03:40:43.99Z</time></trkpt><trkpt lat="43.29423" lon="11.5374"><ele>313.0</ele><time>2026-04-11T03:40:45.99Z</time></trkpt><trkpt lat="43.2943" lon="11.537315"><ele>313.0</ele><time>2026-04-11T03:40:47.991Z</time></trkpt><trkpt lat="43.2943517" lon="11.5372383"><ele>313.0</ele><time>2026-04-11T03:40:49.99Z</time></trkpt><trkpt lat="43.2944017" lon="11.5371633"><ele>313.0</ele><time>2026-04-11T03:40:51.99Z</time></trkpt><trkpt lat="43.2944583" lon="11.5371067"><ele>313.0</ele><time>2026-04-11T03:40:53.99Z</time></trkpt><trkpt lat="43.2945167" lon="11.5370483"><ele>312.0</ele><time>2026-04-11T03:40:55.99Z</time></trkpt><trkpt lat="43.2945883" lon="11.5370067"><ele>311.0</ele><time>2026-04-11T03:40:57.991Z</time></trkpt><trkpt lat="43.2946633" lon="11.5369667"><ele>310.0</ele><time>2026-04-11T03:40:59.99Z</time></trkpt><trkpt lat="43.29473" lon="11.5369233"><ele>309.0</ele><time>2026-04-11T03:41:01.99Z</time></trkpt><trkpt lat="43.294805" lon="11.536875"><ele>308.0</ele><time>2026-04-11T03:41:03.99Z</time></trkpt><trkpt lat="43.294905" lon="11.5368117"><ele>307.0</ele><time>2026-04-11T03:41:05.99Z</time></trkpt><trkpt lat="43.294965" lon="11.5367833"><ele>306.99999999999994</ele><time>2026-04-11T03:41:06.99Z</time></trkpt><trkpt lat="43.2950333" lon="11.53677"><ele>307.0</ele><time>2026-04-11T03:41:07.99Z</time></trkpt><trkpt lat="43.2951067" lon="11.5367617"><ele>307.0</ele><time>2026-04-11T03:41:08.99Z</time></trkpt><trkpt lat="43.29518" lon="11.53675"><ele>307.0</ele><time>2026-04-11T03:41:09.99Z</time></trkpt><trkpt lat="43.295255" lon="11.53673"><ele>307.0</ele><time>2026-04-11T03:41:10.991Z</time></trkpt><trkpt lat="43.2953267" lon="11.5367067"><ele>306.99999999999994</ele><time>2026-04-11T03:41:11.99Z</time></trkpt><trkpt lat="43.2953867" lon="11.5366483"><ele>307.0</ele><time>2026-04-11T03:41:12.99Z</time></trkpt><trkpt lat="43.295435" lon="11.536575"><ele>307.0</ele><time>2026-04-11T03:41:13.991Z</time></trkpt><trkpt lat="43.2954817" lon="11.5365017"><ele>307.0</ele><time>2026-04-11T03:41:14.991Z</time></trkpt><trkpt lat="43.295525" lon="11.5364317"><ele>307.0</ele><time>2026-04-11T03:41:15.991Z</time></trkpt><trkpt lat="43.2955883" lon="11.5362883"><ele>307.0</ele><time>2026-04-11T03:41:17.99Z</time></trkpt><trkpt lat="43.2956383" lon="11.5361633"><ele>307.0</ele><time>2026-04-11T03:41:19.99Z</time></trkpt><trkpt lat="43.2956767" lon="11.5360467"><ele>309.66666666666663</ele><time>2026-04-11T03:41:21.99Z</time></trkpt><trkpt lat="43.2957067" lon="11.535945"><ele>312.3333333333333</ele><time>2026-04-11T03:41:23.99Z</time></trkpt><trkpt lat="43.2957467" lon="11.5358517"><ele>315.0</ele><time>2026-04-11T03:41:25.991Z</time></trkpt><trkpt lat="43.29577" lon="11.5357433"><ele>317.6666666666667</ele><time>2026-04-11T03:41:28.99Z</time></trkpt><trkpt lat="43.2957817" lon="11.5356517"><ele>320.33333333333337</ele><time>2026-04-11T03:41:31.99Z</time></trkpt><trkpt lat="43.2957833" lon="11.5355633"><ele>323.0</ele><time>2026-04-11T03:41:34.99Z</time></trkpt><trkpt lat="43.2957967" lon="11.5354533"><ele>323.5714285714286</ele><time>2026-04-11T03:41:37.99Z</time></trkpt><trkpt lat="43.2958" lon="11.5353633"><ele>324.14285714285717</ele><time>2026-04-11T03:41:40.99Z</time></trkpt><trkpt lat="43.29582" lon="11.53527"><ele>324.7142857142857</ele><time>2026-04-11T03:41:43.99Z</time></trkpt><trkpt lat="43.2958367" lon="11.5351683"><ele>325.28571428571433</ele><time>2026-04-11T03:41:46.99Z</time></trkpt><trkpt lat="43.2958433" lon="11.535065"><ele>325.8571428571429</ele><time>2026-04-11T03:41:49.99Z</time></trkpt><trkpt lat="43.295825" lon="11.5349483"><ele>326.42857142857144</ele><time>2026-04-11T03:41:53.99Z</time></trkpt><trkpt lat="43.2957983" lon="11.5348583"><ele>327.0</ele><time>2026-04-11T03:41:56.99Z</time></trkpt><trkpt lat="43.2957383" lon="11.5347933"><ele>327.0</ele><time>2026-04-11T03:42:00.99Z</time></trkpt><trkpt lat="43.2957067" lon="11.5347133"><ele>327.0</ele><time>2026-04-11T03:42:03.99Z</time></trkpt><trkpt lat="43.2956433" lon="11.5346333"><ele>327.0</ele><time>2026-04-11T03:42:07.99Z</time></trkpt><trkpt lat="43.295595" lon="11.5345733"><ele>327.0</ele><time>2026-04-11T03:42:09.991Z</time></trkpt><trkpt lat="43.295525" lon="11.53452"><ele>327.0</ele><time>2026-04-11T03:42:12.991Z</time></trkpt><trkpt lat="43.2954533" lon="11.5344717"><ele>327.0</ele><time>2026-04-11T03:42:16.99Z</time></trkpt><trkpt lat="43.29539" lon="11.5343917"><ele>327.6</ele><time>2026-04-11T03:42:19.99Z</time></trkpt><trkpt lat="43.2953167" lon="11.5343183"><ele>328.20000000000005</ele><time>2026-04-11T03:42:22.99Z</time></trkpt><trkpt lat="43.2952483" lon="11.53423"><ele>328.8</ele><time>2026-04-11T03:42:25.99Z</time></trkpt><trkpt lat="43.2952017" lon="11.5341333"><ele>329.4</ele><time>2026-04-11T03:42:27.99Z</time></trkpt><trkpt lat="43.29513" lon="11.5340367"><ele>330.0</ele><time>2026-04-11T03:42:29.99Z</time></trkpt><trkpt lat="43.295045" lon="11.5339517"><ele>330.0</ele><time>2026-04-11T03:42:31.99Z</time></trkpt><trkpt lat="43.2949367" lon="11.5338917"><ele>330.0</ele><time>2026-04-11T03:42:33.99Z</time></trkpt><trkpt lat="43.2948233" lon="11.5338517"><ele>330.0</ele><time>2026-04-11T03:42:35.99Z</time></trkpt><trkpt lat="43.2947117" lon="11.5337933"><ele>330.0</ele><time>2026-04-11T03:42:37.99Z</time></trkpt><trkpt lat="43.2946533" lon="11.5337583"><ele>330.0</ele><time>2026-04-11T03:42:38.99Z</time></trkpt><trkpt lat="43.2946" lon="11.5337067"><ele>329.00000000000006</ele><time>2026-04-11T03:42:39.991Z</time></trkpt><trkpt lat="43.2945517" lon="11.5336367"><ele>328.0</ele><time>2026-04-11T03:42:40.99Z</time></trkpt><trkpt lat="43.2945083" lon="11.5335633"><ele>327.0</ele><time>2026-04-11T03:42:41.99Z</time></trkpt><trkpt lat="43.294485" lon="11.5334767"><ele>326.0</ele><time>2026-04-11T03:42:42.99Z</time></trkpt><trkpt lat="43.2944783" lon="11.5333817"><ele>325.0</ele><time>2026-04-11T03:42:43.991Z</time></trkpt><trkpt lat="43.294475" lon="11.5332717"><ele>324.00000000000006</ele><time>2026-04-11T03:42:44.99Z</time></trkpt><trkpt lat="43.2944717" lon="11.5331633"><ele>323.0</ele><time>2026-04-11T03:42:45.99Z</time></trkpt><trkpt lat="43.2944683" lon="11.5330533"><ele>323.00000000000006</ele><time>2026-04-11T03:42:46.99Z</time></trkpt><trkpt lat="43.294465" lon="11.532945"><ele>323.0</ele><time>2026-04-11T03:42:47.99Z</time></trkpt><trkpt lat="43.294465" lon="11.5328383"><ele>323.0</ele><time>2026-04-11T03:42:48.99Z</time></trkpt><trkpt lat="43.2944683" lon="11.5327383"><ele>323.0</ele><time>2026-04-11T03:42:49.99Z</time></trkpt><trkpt lat="43.2944767" lon="11.532635"><ele>323.0</ele><time>2026-04-11T03:42:50.99Z</time></trkpt><trkpt lat="43.294485" lon="11.53254"><ele>323.00000000000006</ele><time>2026-04-11T03:42:51.99Z</time></trkpt><trkpt lat="43.2945033" lon="11.5324483"><ele>323.0</ele><time>2026-04-11T03:42:52.99Z</time></trkpt><trkpt lat="43.2945267" lon="11.5323583"><ele>323.28571428571433</ele><time>2026-04-11T03:42:53.991Z</time></trkpt><trkpt lat="43.2945467" lon="11.53227"><ele>323.57142857142856</ele><time>2026-04-11T03:42:54.99Z</time></trkpt><trkpt lat="43.2945717" lon="11.532185"><ele>323.8571428571429</ele><time>2026-04-11T03:42:55.99Z</time></trkpt><trkpt lat="43.2945967" lon="11.5320967"><ele>324.14285714285717</ele><time>2026-04-11T03:42:56.99Z</time></trkpt><trkpt lat="43.294625" lon="11.5320017"><ele>324.42857142857144</ele><time>2026-04-11T03:42:57.99Z</time></trkpt><trkpt lat="43.294655" lon="11.5319167"><ele>324.7142857142857</ele><time>2026-04-11T03:42:58.991Z</time></trkpt><trkpt lat="43.294685" lon="11.53184"><ele>325.0</ele><time>2026-04-11T03:42:59.991Z</time></trkpt><trkpt lat="43.2947217" lon="11.5317617"><ele>323.5</ele><time>2026-04-11T03:43:00.99Z</time></trkpt><trkpt lat="43.29476" lon="11.531685"><ele>322.0</ele><time>2026-04-11T03:43:01.99Z</time></trkpt><trkpt lat="43.2947983" lon="11.5316033"><ele>320.5</ele><time>2026-04-11T03:43:02.99Z</time></trkpt><trkpt lat="43.2948417" lon="11.531515"><ele>319.0</ele><time>2026-04-11T03:43:03.99Z</time></trkpt><trkpt lat="43.2948917" lon="11.5314283"><ele>317.5</ele><time>2026-04-11T03:43:04.991Z</time></trkpt><trkpt lat="43.2949367" lon="11.5313367"><ele>316.0</ele><time>2026-04-11T03:43:05.99Z</time></trkpt><trkpt lat="43.2949883" lon="11.5312467"><ele>316.66666666666663</ele><time>2026-04-11T03:43:06.99Z</time></trkpt><trkpt lat="43.2950383" lon="11.5311617"><ele>317.3333333333333</ele><time>2026-04-11T03:43:07.99Z</time></trkpt><trkpt lat="43.2950867" lon="11.5310767"><ele>318.0</ele><time>2026-04-11T03:43:08.99Z</time></trkpt><trkpt lat="43.2951367" lon="11.5310017"><ele>318.6666666666667</ele><time>2026-04-11T03:43:09.99Z</time></trkpt><trkpt lat="43.295195" lon="11.5309167"><ele>319.33333333333337</ele><time>2026-04-11T03:43:10.99Z</time></trkpt><trkpt lat="43.2952583" lon="11.5308533"><ele>320.0</ele><time>2026-04-11T03:43:11.99Z</time></trkpt><trkpt lat="43.2953367" lon="11.53079"><ele>320.0</ele><time>2026-04-11T03:43:12.99Z</time></trkpt><trkpt lat="43.2954167" lon="11.5307367"><ele>320.0</ele><time>2026-04-11T03:43:13.99Z</time></trkpt><trkpt lat="43.2954883" lon="11.53068"><ele>320.0</ele><time>2026-04-11T03:43:14.99Z</time></trkpt><trkpt lat="43.295565" lon="11.5306333"><ele>320.0</ele><time>2026-04-11T03:43:15.991Z</time></trkpt><trkpt lat="43.2956433" lon="11.530585"><ele>320.0</ele><time>2026-04-11T03:43:16.99Z</time></trkpt><trkpt lat="43.2957333" lon="11.530545"><ele>320.0</ele><time>2026-04-11T03:43:17.99Z</time></trkpt><trkpt lat="43.295825" lon="11.530505"><ele>317.6</ele><time>2026-04-11T03:43:18.99Z</time></trkpt><trkpt lat="43.2959133" lon="11.5304767"><ele>315.2</ele><time>2026-04-11T03:43:19.99Z</time></trkpt><trkpt lat="43.2960033" lon="11.53045"><ele>312.8</ele><time>2026-04-11T03:43:20.99Z</time></trkpt><trkpt lat="43.2960933" lon="11.5304233"><ele>310.4</ele><time>2026-04-11T03:43:21.99Z</time></trkpt><trkpt lat="43.2961883" lon="11.5304"><ele>308.0</ele><time>2026-04-11T03:43:22.99Z</time></trkpt><trkpt lat="43.296285" lon="11.5303533"><ele>308.0</ele><time>2026-04-11T03:43:23.99Z</time></trkpt><trkpt lat="43.2963767" lon="11.5303117"><ele>308.0</ele><time>2026-04-11T03:43:24.99Z</time></trkpt><trkpt lat="43.29646" lon="11.530275"><ele>308.0</ele><time>2026-04-11T03:43:25.991Z</time></trkpt><trkpt lat="43.2965383" lon="11.5302267"><ele>308.0</ele><time>2026-04-11T03:43:26.991Z</time></trkpt><trkpt lat="43.2965983" lon="11.5301717"><ele>308.0</ele><time>2026-04-11T03:43:27.99Z</time></trkpt><trkpt lat="43.2966433" lon="11.5301067"><ele>308.0</ele><time>2026-04-11T03:43:28.99Z</time></trkpt><trkpt lat="43.2966633" lon="11.5300217"><ele>308.0</ele><time>2026-04-11T03:43:29.991Z</time></trkpt><trkpt lat="43.2966667" lon="11.5299333"><ele>308.0</ele><time>2026-04-11T03:43:30.99Z</time></trkpt><trkpt lat="43.2966383" lon="11.52985"><ele>308.0</ele><time>2026-04-11T03:43:31.99Z</time></trkpt><trkpt lat="43.2965933" lon="11.5297833"><ele>308.0</ele><time>2026-04-11T03:43:32.99Z</time></trkpt><trkpt lat="43.2965233" lon="11.5297367"><ele>308.0</ele><time>2026-04-11T03:43:33.99Z</time></trkpt><trkpt lat="43.2964383" lon="11.5296967"><ele>308.0</ele><time>2026-04-11T03:43:34.99Z</time></trkpt><trkpt lat="43.296355" lon="11.529665"><ele>308.0</ele><time>2026-04-11T03:43:35.991Z</time></trkpt><trkpt lat="43.2962717" lon="11.5296417"><ele>308.0</ele><time>2026-04-11T03:43:36.99Z</time></trkpt><trkpt lat="43.2961867" lon="11.5296267"><ele>308.0</ele><time>2026-04-11T03:43:37.99Z</time></trkpt><trkpt lat="43.2961033" lon="11.5296217"><ele>308.0</ele><time>2026-04-11T03:43:38.99Z</time></trkpt><trkpt lat="43.2960283" lon="11.5296167"><ele>308.0</ele><time>2026-04-11T03:43:39.99Z</time></trkpt><trkpt lat="43.295955" lon="11.5296067"><ele>308.0</ele><time>2026-04-11T03:43:40.99Z</time></trkpt><trkpt lat="43.2958883" lon="11.529575"><ele>306.1666666666667</ele><time>2026-04-11T03:43:41.99Z</time></trkpt><trkpt lat="43.2958133" lon="11.5295367"><ele>304.33333333333337</ele><time>2026-04-11T03:43:42.99Z</time></trkpt><trkpt lat="43.29575" lon="11.529485"><ele>302.5</ele><time>2026-04-11T03:43:43.991Z</time></trkpt><trkpt lat="43.2956783" lon="11.52944"><ele>300.6666666666667</ele><time>2026-04-11T03:43:44.991Z</time></trkpt><trkpt lat="43.2956017" lon="11.5294017"><ele>298.8333333333333</ele><time>2026-04-11T03:43:45.991Z</time></trkpt><trkpt lat="43.29553" lon="11.5293633"><ele>297.0</ele><time>2026-04-11T03:43:46.991Z</time></trkpt><trkpt lat="43.295465" lon="11.5293317"><ele>297.0</ele><time>2026-04-11T03:43:47.99Z</time></trkpt><trkpt lat="43.2953517" lon="11.5292667"><ele>297.0</ele><time>2026-04-11T03:43:49.99Z</time></trkpt><trkpt lat="43.2953033" lon="11.5292067"><ele>297.0</ele><time>2026-04-11T03:43:50.99Z</time></trkpt><trkpt lat="43.295285" lon="11.5291217"><ele>297.0</ele><time>2026-04-11T03:43:51.99Z</time></trkpt><trkpt lat="43.2952967" lon="11.5290283"><ele>297.0</ele><time>2026-04-11T03:43:52.991Z</time></trkpt><trkpt lat="43.2953233" lon="11.5289483"><ele>297.0</ele><time>2026-04-11T03:43:53.99Z</time></trkpt><trkpt lat="43.2953667" lon="11.5288833"><ele>297.0</ele><time>2026-04-11T03:43:54.99Z</time></trkpt><trkpt lat="43.2954233" lon="11.5288317"><ele>297.0</ele><time>2026-04-11T03:43:55.99Z</time></trkpt><trkpt lat="43.2955383" lon="11.5287683"><ele>297.0</ele><time>2026-04-11T03:43:57.991Z</time></trkpt><trkpt lat="43.295595" lon="11.52873"><ele>297.0</ele><time>2026-04-11T03:43:58.991Z</time></trkpt><trkpt lat="43.2956967" lon="11.528645"><ele>297.0</ele><time>2026-04-11T03:44:00.991Z</time></trkpt><trkpt lat="43.2958017" lon="11.5285433"><ele>296.1666666666667</ele><time>2026-04-11T03:44:02.991Z</time></trkpt><trkpt lat="43.2958433" lon="11.528465"><ele>295.3333333333333</ele><time>2026-04-11T03:44:03.99Z</time></trkpt><trkpt lat="43.2958883" lon="11.52837"><ele>294.5</ele><time>2026-04-11T03:44:04.99Z</time></trkpt><trkpt lat="43.295915" lon="11.5282683"><ele>293.66666666666663</ele><time>2026-04-11T03:44:05.99Z</time></trkpt><trkpt lat="43.29593" lon="11.528155"><ele>292.8333333333333</ele><time>2026-04-11T03:44:06.99Z</time></trkpt><trkpt lat="43.29594" lon="11.5280467"><ele>292.0</ele><time>2026-04-11T03:44:07.99Z</time></trkpt><trkpt lat="43.2959467" lon="11.5279367"><ele>292.0</ele><time>2026-04-11T03:44:08.99Z</time></trkpt><trkpt lat="43.29595" lon="11.5278267"><ele>292.0</ele><time>2026-04-11T03:44:09.99Z</time></trkpt><trkpt lat="43.2959583" lon="11.5277183"><ele>292.0</ele><time>2026-04-11T03:44:10.99Z</time></trkpt><trkpt lat="43.29597" lon="11.527615"><ele>292.0</ele><time>2026-04-11T03:44:11.99Z</time></trkpt><trkpt lat="43.29598" lon="11.5275267"><ele>292.0</ele><time>2026-04-11T03:44:12.99Z</time></trkpt><trkpt lat="43.296" lon="11.527435"><ele>292.0</ele><time>2026-04-11T03:44:13.99Z</time></trkpt><trkpt lat="43.2960167" lon="11.52733"><ele>292.0</ele><time>2026-04-11T03:44:14.99Z</time></trkpt><trkpt lat="43.2960383" lon="11.5272333"><ele>292.0</ele><time>2026-04-11T03:44:15.99Z</time></trkpt><trkpt lat="43.29606" lon="11.5271383"><ele>292.0</ele><time>2026-04-11T03:44:16.99Z</time></trkpt><trkpt lat="43.2960833" lon="11.52705"><ele>292.0</ele><time>2026-04-11T03:44:17.99Z</time></trkpt><trkpt lat="43.296145" lon="11.5269017"><ele>292.0</ele><time>2026-04-11T03:44:19.99Z</time></trkpt><trkpt lat="43.2961867" lon="11.526835"><ele>292.0</ele><time>2026-04-11T03:44:20.99Z</time></trkpt><trkpt lat="43.29623" lon="11.52677"><ele>292.0</ele><time>2026-04-11T03:44:21.99Z</time></trkpt><trkpt lat="43.296275" lon="11.5267067"><ele>291.4</ele><time>2026-04-11T03:44:22.99Z</time></trkpt><trkpt lat="43.29632" lon="11.52664"><ele>290.79999999999995</ele><time>2026-04-11T03:44:23.99Z</time></trkpt><trkpt lat="43.2963867" lon="11.526515"><ele>290.2</ele><time>2026-04-11T03:44:25.99Z</time></trkpt><trkpt lat="43.296455" lon="11.5264133"><ele>289.59999999999997</ele><time>2026-04-11T03:44:27.99Z</time></trkpt><trkpt lat="43.2965217" lon="11.5263033"><ele>289.0</ele><time>2026-04-11T03:44:29.991Z</time></trkpt><trkpt lat="43.2965983" lon="11.5262233"><ele>289.0</ele><time>2026-04-11T03:44:31.99Z</time></trkpt><trkpt lat="43.2966817" lon="11.5261467"><ele>289.0</ele><time>2026-04-11T03:44:33.991Z</time></trkpt><trkpt lat="43.2967567" lon="11.526065"><ele>289.0</ele><time>2026-04-11T03:44:35.99Z</time></trkpt><trkpt lat="43.2967917" lon="11.52595"><ele>289.0</ele><time>2026-04-11T03:44:37.99Z</time></trkpt><trkpt lat="43.2967967" lon="11.5258483"><ele>289.0</ele><time>2026-04-11T03:44:39.99Z</time></trkpt><trkpt lat="43.2967833" lon="11.525735"><ele>289.0</ele><time>2026-04-11T03:44:41.99Z</time></trkpt><trkpt lat="43.2967617" lon="11.5256167"><ele>289.0</ele><time>2026-04-11T03:44:43.99Z</time></trkpt><trkpt lat="43.296755" lon="11.5255117"><ele>289.0</ele><time>2026-04-11T03:44:45.99Z</time></trkpt><trkpt lat="43.29676" lon="11.5253967"><ele>289.0</ele><time>2026-04-11T03:44:47.991Z</time></trkpt><trkpt lat="43.29677" lon="11.52529"><ele>289.0</ele><time>2026-04-11T03:44:49.99Z</time></trkpt><trkpt lat="43.2967783" lon="11.5252017"><ele>289.0</ele><time>2026-04-11T03:44:51.99Z</time></trkpt><trkpt lat="43.2967867" lon="11.5250917"><ele>289.0</ele><time>2026-04-11T03:44:54.99Z</time></trkpt><trkpt lat="43.2967717" lon="11.525"><ele>289.5</ele><time>2026-04-11T03:44:56.99Z</time></trkpt><trkpt lat="43.2967533" lon="11.5249167"><ele>290.0</ele><time>2026-04-11T03:44:58.99Z</time></trkpt><trkpt lat="43.2967133" lon="11.5248"><ele>290.5</ele><time>2026-04-11T03:45:01.99Z</time></trkpt><trkpt lat="43.2966783" lon="11.5247167"><ele>291.0</ele><time>2026-04-11T03:45:03.991Z</time></trkpt><trkpt lat="43.29664" lon="11.5246383"><ele>291.5</ele><time>2026-04-11T03:45:05.99Z</time></trkpt><trkpt lat="43.2965983" lon="11.5245367"><ele>292.0</ele><time>2026-04-11T03:45:08.99Z</time></trkpt><trkpt lat="43.2965833" lon="11.5244133"><ele>293.66666666666663</ele><time>2026-04-11T03:45:11.99Z</time></trkpt><trkpt lat="43.2965667" lon="11.5242967"><ele>295.3333333333333</ele><time>2026-04-11T03:45:14.99Z</time></trkpt><trkpt lat="43.296565" lon="11.5241783"><ele>297.0</ele><time>2026-04-11T03:45:17.99Z</time></trkpt><trkpt lat="43.2965467" lon="11.5240733"><ele>298.6666666666667</ele><time>2026-04-11T03:45:20.99Z</time></trkpt><trkpt lat="43.2965333" lon="11.5239633"><ele>300.33333333333337</ele><time>2026-04-11T03:45:23.99Z</time></trkpt><trkpt lat="43.2965183" lon="11.5238633"><ele>302.0</ele><time>2026-04-11T03:45:26.99Z</time></trkpt><trkpt lat="43.2964967" lon="11.523755"><ele>302.83333333333337</ele><time>2026-04-11T03:45:29.99Z</time></trkpt><trkpt lat="43.2964767" lon="11.52367"><ele>303.6666666666667</ele><time>2026-04-11T03:45:31.99Z</time></trkpt><trkpt lat="43.2964633" lon="11.523585"><ele>304.5</ele><time>2026-04-11T03:45:33.991Z</time></trkpt><trkpt lat="43.2964467" lon="11.5234583"><ele>305.3333333333333</ele><time>2026-04-11T03:45:36.99Z</time></trkpt><trkpt lat="43.2964417" lon="11.5233317"><ele>306.16666666666663</ele><time>2026-04-11T03:45:39.99Z</time></trkpt><trkpt lat="43.2964367" lon="11.5232317"><ele>307.0</ele><time>2026-04-11T03:45:41.99Z</time></trkpt><trkpt lat="43.2964333" lon="11.523115"><ele>307.0</ele><time>2026-04-11T03:45:43.99Z</time></trkpt><trkpt lat="43.2964333" lon="11.5230117"><ele>307.0</ele><time>2026-04-11T03:45:45.99Z</time></trkpt><trkpt lat="43.2964283" lon="11.5228933"><ele>307.0</ele><time>2026-04-11T03:45:47.99Z</time></trkpt><trkpt lat="43.2964283" lon="11.5227733"><ele>307.0</ele><time>2026-04-11T03:45:49.99Z</time></trkpt><trkpt lat="43.2964533" lon="11.52264"><ele>307.0</ele><time>2026-04-11T03:45:51.99Z</time></trkpt><trkpt lat="43.296505" lon="11.5224883"><ele>306.8</ele><time>2026-04-11T03:45:53.99Z</time></trkpt><trkpt lat="43.2965717" lon="11.5223467"><ele>306.6</ele><time>2026-04-11T03:45:55.99Z</time></trkpt><trkpt lat="43.2966467" lon="11.5222183"><ele>306.40000000000003</ele><time>2026-04-11T03:45:57.991Z</time></trkpt><trkpt lat="43.296685" lon="11.5220633"><ele>306.2</ele><time>2026-04-11T03:45:59.99Z</time></trkpt><trkpt lat="43.2967017" lon="11.5219717"><ele>306.0</ele><time>2026-04-11T03:46:00.99Z</time></trkpt><trkpt lat="43.2967233" lon="11.5217967"><ele>304.0</ele><time>2026-04-11T03:46:02.99Z</time></trkpt><trkpt lat="43.29674" lon="11.5217133"><ele>302.0</ele><time>2026-04-11T03:46:03.99Z</time></trkpt><trkpt lat="43.2968" lon="11.5215817"><ele>300.0</ele><time>2026-04-11T03:46:05.99Z</time></trkpt><trkpt lat="43.2968983" lon="11.521485"><ele>298.0</ele><time>2026-04-11T03:46:07.99Z</time></trkpt><trkpt lat="43.2969583" lon="11.5214517"><ele>296.0</ele><time>2026-04-11T03:46:08.99Z</time></trkpt><trkpt lat="43.2970667" lon="11.521395"><ele>296.0</ele><time>2026-04-11T03:46:10.99Z</time></trkpt><trkpt lat="43.2971867" lon="11.5213483"><ele>296.0</ele><time>2026-04-11T03:46:12.991Z</time></trkpt><trkpt lat="43.29726" lon="11.521345"><ele>296.0</ele><time>2026-04-11T03:46:13.99Z</time></trkpt><trkpt lat="43.2973367" lon="11.52134"><ele>296.0</ele><time>2026-04-11T03:46:14.991Z</time></trkpt><trkpt lat="43.2974117" lon="11.5213417"><ele>296.0</ele><time>2026-04-11T03:46:15.99Z</time></trkpt><trkpt lat="43.2974883" lon="11.521355"><ele>296.0</ele><time>2026-04-11T03:46:16.99Z</time></trkpt><trkpt lat="43.2975583" lon="11.5213783"><ele>297.14285714285717</ele><time>2026-04-11T03:46:17.991Z</time></trkpt><trkpt lat="43.2976217" lon="11.521415"><ele>298.2857142857143</ele><time>2026-04-11T03:46:18.99Z</time></trkpt><trkpt lat="43.2976833" lon="11.5214667"><ele>299.42857142857144</ele><time>2026-04-11T03:46:19.99Z</time></trkpt><trkpt lat="43.2977383" lon="11.521515"><ele>300.57142857142856</ele><time>2026-04-11T03:46:20.99Z</time></trkpt><trkpt lat="43.29779" lon="11.5215667"><ele>301.7142857142857</ele><time>2026-04-11T03:46:21.991Z</time></trkpt><trkpt lat="43.29784" lon="11.5216267"><ele>302.85714285714283</ele><time>2026-04-11T03:46:22.99Z</time></trkpt><trkpt lat="43.2978917" lon="11.52169"><ele>304.0</ele><time>2026-04-11T03:46:23.99Z</time></trkpt><trkpt lat="43.29794" lon="11.5217583"><ele>304.0</ele><time>2026-04-11T03:46:24.99Z</time></trkpt><trkpt lat="43.29799" lon="11.5218367"><ele>304.0</ele><time>2026-04-11T03:46:25.99Z</time></trkpt><trkpt lat="43.298035" lon="11.5219217"><ele>304.0</ele><time>2026-04-11T03:46:26.99Z</time></trkpt><trkpt lat="43.2980767" lon="11.5220083"><ele>304.0</ele><time>2026-04-11T03:46:27.99Z</time></trkpt><trkpt lat="43.2981117" lon="11.522085"><ele>304.0</ele><time>2026-04-11T03:46:28.99Z</time></trkpt><trkpt lat="43.29815" lon="11.52216"><ele>304.0</ele><time>2026-04-11T03:46:29.991Z</time></trkpt><trkpt lat="43.2981983" lon="11.522225"><ele>304.0</ele><time>2026-04-11T03:46:30.991Z</time></trkpt><trkpt lat="43.2982583" lon="11.522275"><ele>304.16666666666663</ele><time>2026-04-11T03:46:31.99Z</time></trkpt><trkpt lat="43.2983217" lon="11.5223117"><ele>304.3333333333333</ele><time>2026-04-11T03:46:32.991Z</time></trkpt><trkpt lat="43.2983883" lon="11.52233"><ele>304.5</ele><time>2026-04-11T03:46:33.992Z</time></trkpt><trkpt lat="43.298455" lon="11.5223183"><ele>304.6666666666667</ele><time>2026-04-11T03:46:34.991Z</time></trkpt><trkpt lat="43.2985217" lon="11.5222933"><ele>304.83333333333337</ele><time>2026-04-11T03:46:35.991Z</time></trkpt><trkpt lat="43.2985883" lon="11.5222683"><ele>305.0</ele><time>2026-04-11T03:46:36.991Z</time></trkpt><trkpt lat="43.29871" lon="11.52228"><ele>305.0</ele><time>2026-04-11T03:46:38.992Z</time></trkpt><trkpt lat="43.2987717" lon="11.522325"><ele>305.0</ele><time>2026-04-11T03:46:39.992Z</time></trkpt><trkpt lat="43.2988283" lon="11.5223833"><ele>305.0</ele><time>2026-04-11T03:46:40.991Z</time></trkpt><trkpt lat="43.2988917" lon="11.522445"><ele>305.0</ele><time>2026-04-11T03:46:41.992Z</time></trkpt><trkpt lat="43.2989633" lon="11.5224867"><ele>305.0</ele><time>2026-04-11T03:46:42.992Z</time></trkpt><trkpt lat="43.29904" lon="11.5225083"><ele>305.0</ele><time>2026-04-11T03:46:43.991Z</time></trkpt><trkpt lat="43.299115" lon="11.5225083"><ele>305.0</ele><time>2026-04-11T03:46:44.991Z</time></trkpt><trkpt lat="43.29919" lon="11.5224967"><ele>303.83333333333337</ele><time>2026-04-11T03:46:45.991Z</time></trkpt><trkpt lat="43.29927" lon="11.5224833"><ele>302.6666666666667</ele><time>2026-04-11T03:46:46.991Z</time></trkpt><trkpt lat="43.2993517" lon="11.52247"><ele>301.5</ele><time>2026-04-11T03:46:47.991Z</time></trkpt><trkpt lat="43.2994267" lon="11.52245"><ele>300.3333333333333</ele><time>2026-04-11T03:46:48.991Z</time></trkpt><trkpt lat="43.2994967" lon="11.52242"><ele>299.16666666666663</ele><time>2026-04-11T03:46:49.991Z</time></trkpt><trkpt lat="43.2995617" lon="11.522375"><ele>298.0</ele><time>2026-04-11T03:46:50.991Z</time></trkpt><trkpt lat="43.2996217" lon="11.5223267"><ele>298.0</ele><time>2026-04-11T03:46:51.991Z</time></trkpt><trkpt lat="43.2996833" lon="11.522285"><ele>298.0</ele><time>2026-04-11T03:46:52.991Z</time></trkpt><trkpt lat="43.299755" lon="11.5222533"><ele>298.0</ele><time>2026-04-11T03:46:53.992Z</time></trkpt><trkpt lat="43.2998333" lon="11.5222333"><ele>298.0</ele><time>2026-04-11T03:46:54.991Z</time></trkpt><trkpt lat="43.2999167" lon="11.5222167"><ele>298.0</ele><time>2026-04-11T03:46:55.992Z</time></trkpt><trkpt lat="43.3000033" lon="11.52221"><ele>298.0</ele><time>2026-04-11T03:46:56.991Z</time></trkpt><trkpt lat="43.3000867" lon="11.5222033"><ele>298.16666666666663</ele><time>2026-04-11T03:46:57.992Z</time></trkpt><trkpt lat="43.3001733" lon="11.5222183"><ele>298.3333333333333</ele><time>2026-04-11T03:46:58.991Z</time></trkpt><trkpt lat="43.3002467" lon="11.52223"><ele>298.5</ele><time>2026-04-11T03:46:59.991Z</time></trkpt><trkpt lat="43.3003067" lon="11.5222583"><ele>298.6666666666667</ele><time>2026-04-11T03:47:00.991Z</time></trkpt><trkpt lat="43.30039" lon="11.522325"><ele>298.83333333333337</ele><time>2026-04-11T03:47:02.991Z</time></trkpt><trkpt lat="43.3004533" lon="11.5223583"><ele>299.0</ele><time>2026-04-11T03:47:04.992Z</time></trkpt><trkpt lat="43.300535" lon="11.522405"><ele>298.1666666666667</ele><time>2026-04-11T03:47:07.991Z</time></trkpt><trkpt lat="43.3006017" lon="11.522445"><ele>297.33333333333337</ele><time>2026-04-11T03:47:11.991Z</time></trkpt><trkpt lat="43.300665" lon="11.5224333"><ele>296.5</ele><time>2026-04-11T03:47:15.991Z</time></trkpt><trkpt lat="43.3007417" lon="11.5224667"><ele>295.6666666666667</ele><time>2026-04-11T03:47:18.991Z</time></trkpt><trkpt lat="43.30082" lon="11.5224867"><ele>294.8333333333333</ele><time>2026-04-11T03:47:21.991Z</time></trkpt><trkpt lat="43.300885" lon="11.5224967"><ele>294.0</ele><time>2026-04-11T03:47:23.992Z</time></trkpt><trkpt lat="43.3009717" lon="11.5225217"><ele>294.0</ele><time>2026-04-11T03:47:26.991Z</time></trkpt><trkpt lat="43.3010583" lon="11.5225533"><ele>294.0</ele><time>2026-04-11T03:47:29.991Z</time></trkpt><trkpt lat="43.3011317" lon="11.5225667"><ele>294.0</ele><time>2026-04-11T03:47:32.991Z</time></trkpt><trkpt lat="43.3011967" lon="11.5226133"><ele>294.0</ele><time>2026-04-11T03:47:34.991Z</time></trkpt><trkpt lat="43.3012567" lon="11.5226567"><ele>294.0</ele><time>2026-04-11T03:47:36.992Z</time></trkpt><trkpt lat="43.3013183" lon="11.5227017"><ele>294.0</ele><time>2026-04-11T03:47:38.991Z</time></trkpt><trkpt lat="43.3013883" lon="11.522735"><ele>294.0</ele><time>2026-04-11T03:47:40.991Z</time></trkpt><trkpt lat="43.30146" lon="11.5227767"><ele>293.3333333333333</ele><time>2026-04-11T03:47:42.991Z</time></trkpt><trkpt lat="43.30153" lon="11.5227933"><ele>292.6666666666667</ele><time>2026-04-11T03:47:44.992Z</time></trkpt><trkpt lat="43.3016117" lon="11.522815"><ele>292.0</ele><time>2026-04-11T03:47:46.992Z</time></trkpt><trkpt lat="43.3017017" lon="11.52285"><ele>291.33333333333337</ele><time>2026-04-11T03:47:48.991Z</time></trkpt><trkpt lat="43.3017967" lon="11.52287"><ele>290.6666666666667</ele><time>2026-04-11T03:47:50.991Z</time></trkpt><trkpt lat="43.3018967" lon="11.522885"><ele>290.0</ele><time>2026-04-11T03:47:52.991Z</time></trkpt><trkpt lat="43.3020033" lon="11.522895"><ele>290.0</ele><time>2026-04-11T03:47:54.991Z</time></trkpt><trkpt lat="43.3021033" lon="11.5228967"><ele>290.0</ele><time>2026-04-11T03:47:56.991Z</time></trkpt><trkpt lat="43.3022017" lon="11.5228917"><ele>290.0</ele><time>2026-04-11T03:47:58.992Z</time></trkpt><trkpt lat="43.3022883" lon="11.5228733"><ele>290.0</ele><time>2026-04-11T03:48:00.991Z</time></trkpt><trkpt lat="43.3023867" lon="11.5228183"><ele>290.0</ele><time>2026-04-11T03:48:02.991Z</time></trkpt><trkpt lat="43.3024983" lon="11.52277"><ele>290.4</ele><time>2026-04-11T03:48:04.992Z</time></trkpt><trkpt lat="43.30262" lon="11.52273"><ele>290.8</ele><time>2026-04-11T03:48:06.992Z</time></trkpt><trkpt lat="43.3026817" lon="11.52271"><ele>291.2</ele><time>2026-04-11T03:48:07.991Z</time></trkpt><trkpt lat="43.3028" lon="11.5226733"><ele>291.6</ele><time>2026-04-11T03:48:09.991Z</time></trkpt><trkpt lat="43.3028633" lon="11.5226667"><ele>292.0</ele><time>2026-04-11T03:48:10.991Z</time></trkpt><trkpt lat="43.30297" lon="11.522655"><ele>292.0</ele><time>2026-04-11T03:48:12.991Z</time></trkpt><trkpt lat="43.3030767" lon="11.52265"><ele>292.0</ele><time>2026-04-11T03:48:14.992Z</time></trkpt><trkpt lat="43.303195" lon="11.5226833"><ele>292.0</ele><time>2026-04-11T03:48:16.991Z</time></trkpt><trkpt lat="43.3033017" lon="11.52275"><ele>292.0</ele><time>2026-04-11T03:48:18.991Z</time></trkpt><trkpt lat="43.3033983" lon="11.5228333"><ele>296.0</ele><time>2026-04-11T03:48:20.991Z</time></trkpt><trkpt lat="43.3034783" lon="11.5229417"><ele>300.0</ele><time>2026-04-11T03:48:22.991Z</time></trkpt><trkpt lat="43.3035533" lon="11.5230733"><ele>304.0</ele><time>2026-04-11T03:48:24.991Z</time></trkpt><trkpt lat="43.3036233" lon="11.5231933"><ele>308.0</ele><time>2026-04-11T03:48:26.991Z</time></trkpt><trkpt lat="43.3036883" lon="11.523305"><ele>308.0</ele><time>2026-04-11T03:48:28.991Z</time></trkpt><trkpt lat="43.3037567" lon="11.52343"><ele>308.0</ele><time>2026-04-11T03:48:30.991Z</time></trkpt><trkpt lat="43.3038217" lon="11.5235567"><ele>308.0</ele><time>2026-04-11T03:48:32.991Z</time></trkpt><trkpt lat="43.3039033" lon="11.523675"><ele>308.0</ele><time>2026-04-11T03:48:34.991Z</time></trkpt><trkpt lat="43.3039883" lon="11.52378"><ele>305.2</ele><time>2026-04-11T03:48:36.991Z</time></trkpt><trkpt lat="43.304095" lon="11.5238233"><ele>302.4</ele><time>2026-04-11T03:48:38.991Z</time></trkpt><trkpt lat="43.304205" lon="11.5238133"><ele>299.59999999999997</ele><time>2026-04-11T03:48:40.991Z</time></trkpt><trkpt lat="43.3042933" lon="11.5237533"><ele>296.8</ele><time>2026-04-11T03:48:42.991Z</time></trkpt><trkpt lat="43.3043433" lon="11.5236567"><ele>294.0</ele><time>2026-04-11T03:48:45.991Z</time></trkpt><trkpt lat="43.30439" lon="11.5235583"><ele>294.0</ele><time>2026-04-11T03:48:48.991Z</time></trkpt><trkpt lat="43.3044333" lon="11.5234783"><ele>294.0</ele><time>2026-04-11T03:48:51.991Z</time></trkpt><trkpt lat="43.3044933" lon="11.523395"><ele>294.0</ele><time>2026-04-11T03:48:56.991Z</time></trkpt><trkpt lat="43.3045417" lon="11.5233367"><ele>294.0</ele><time>2026-04-11T03:48:58.992Z</time></trkpt><trkpt lat="43.3046233" lon="11.5232833"><ele>294.0</ele><time>2026-04-11T03:49:01.991Z</time></trkpt><trkpt lat="43.3046983" lon="11.523215"><ele>294.0</ele><time>2026-04-11T03:49:04.991Z</time></trkpt><trkpt lat="43.304775" lon="11.5231583"><ele>295.3333333333333</ele><time>2026-04-11T03:49:07.991Z</time></trkpt><trkpt lat="43.3048467" lon="11.523095"><ele>296.6666666666667</ele><time>2026-04-11T03:49:10.991Z</time></trkpt><trkpt lat="43.3049133" lon="11.523035"><ele>298.0</ele><time>2026-04-11T03:49:13.991Z</time></trkpt><trkpt lat="43.3049767" lon="11.5229817"><ele>299.33333333333337</ele><time>2026-04-11T03:49:16.991Z</time></trkpt><trkpt lat="43.3050483" lon="11.5229383"><ele>300.6666666666667</ele><time>2026-04-11T03:49:20.991Z</time></trkpt><trkpt lat="43.305115" lon="11.5229017"><ele>302.0</ele><time>2026-04-11T03:49:24.991Z</time></trkpt><trkpt lat="43.3051933" lon="11.5228633"><ele>302.0</ele><time>2026-04-11T03:49:29.991Z</time></trkpt><trkpt lat="43.3052683" lon="11.5228433"><ele>302.0</ele><time>2026-04-11T03:49:33.992Z</time></trkpt><trkpt lat="43.3053717" lon="11.522805"><ele>302.0</ele><time>2026-04-11T03:49:39.991Z</time></trkpt><trkpt lat="43.305455" lon="11.52278"><ele>302.0</ele><time>2026-04-11T03:49:43.991Z</time></trkpt><trkpt lat="43.3055467" lon="11.52275"><ele>302.0</ele><time>2026-04-11T03:49:48.991Z</time></trkpt><trkpt lat="43.305615" lon="11.5227383"><ele>302.0</ele><time>2026-04-11T03:49:51.991Z</time></trkpt><trkpt lat="43.30568" lon="11.52272"><ele>304.0</ele><time>2026-04-11T03:49:54.991Z</time></trkpt><trkpt lat="43.3057467" lon="11.5227083"><ele>306.0</ele><time>2026-04-11T03:49:57.991Z</time></trkpt><trkpt lat="43.3058167" lon="11.52274"><ele>308.0</ele><time>2026-04-11T03:50:00.991Z</time></trkpt><trkpt lat="43.305885" lon="11.5227817"><ele>310.0</ele><time>2026-04-11T03:50:05.991Z</time></trkpt><trkpt lat="43.3059517" lon="11.5228567"><ele>312.0</ele><time>2026-04-11T03:50:08.991Z</time></trkpt><trkpt lat="43.3060283" lon="11.5228883"><ele>314.0</ele><time>2026-04-11T03:50:11.991Z</time></trkpt><trkpt lat="43.306115" lon="11.522925"><ele>314.8</ele><time>2026-04-11T03:50:14.991Z</time></trkpt><trkpt lat="43.3061833" lon="11.5229267"><ele>315.59999999999997</ele><time>2026-04-11T03:50:17.991Z</time></trkpt><trkpt lat="43.3062583" lon="11.52294"><ele>316.4</ele><time>2026-04-11T03:50:21.991Z</time></trkpt><trkpt lat="43.3063833" lon="11.5230233"><ele>317.2</ele><time>2026-04-11T03:50:29.991Z</time></trkpt><trkpt lat="43.3064733" lon="11.52302"><ele>318.0</ele><time>2026-04-11T03:50:34.991Z</time></trkpt><trkpt lat="43.3065567" lon="11.5229967"><ele>319.1666666666667</ele><time>2026-04-11T03:50:37.991Z</time></trkpt><trkpt lat="43.3066317" lon="11.5229833"><ele>320.3333333333333</ele><time>2026-04-11T03:50:41.991Z</time></trkpt><trkpt lat="43.3067117" lon="11.5229633"><ele>321.5</ele><time>2026-04-11T03:50:45.991Z</time></trkpt><trkpt lat="43.3068133" lon="11.5229367"><ele>322.66666666666663</ele><time>2026-04-11T03:50:51.991Z</time></trkpt><trkpt lat="43.30688" lon="11.5229233"><ele>323.8333333333333</ele><time>2026-04-11T03:50:54.992Z</time></trkpt><trkpt lat="43.30695" lon="11.522925"><ele>325.0</ele><time>2026-04-11T03:50:56.991Z</time></trkpt><trkpt lat="43.3070183" lon="11.5229383"><ele>325.0</ele><time>2026-04-11T03:50:58.991Z</time></trkpt><trkpt lat="43.30709" lon="11.52295"><ele>325.0</ele><time>2026-04-11T03:51:00.992Z</time></trkpt><trkpt lat="43.3071733" lon="11.5229417"><ele>325.0</ele><time>2026-04-11T03:51:03.991Z</time></trkpt><trkpt lat="43.3072383" lon="11.5229567"><ele>325.0</ele><time>2026-04-11T03:51:06.991Z</time></trkpt><trkpt lat="43.3073117" lon="11.523005"><ele>325.0</ele><time>2026-04-11T03:51:09.991Z</time></trkpt><trkpt lat="43.3073717" lon="11.52306"><ele>325.0</ele><time>2026-04-11T03:51:11.991Z</time></trkpt><trkpt lat="43.3074333" lon="11.5231133"><ele>325.0</ele><time>2026-04-11T03:51:13.991Z</time></trkpt><trkpt lat="43.3074967" lon="11.5231667"><ele>325.16666666666663</ele><time>2026-04-11T03:51:15.992Z</time></trkpt><trkpt lat="43.3075517" lon="11.5232167"><ele>325.3333333333333</ele><time>2026-04-11T03:51:17.991Z</time></trkpt><trkpt lat="43.3076183" lon="11.5232767"><ele>325.5</ele><time>2026-04-11T03:51:20.991Z</time></trkpt><trkpt lat="43.3076883" lon="11.5233417"><ele>325.6666666666667</ele><time>2026-04-11T03:51:22.991Z</time></trkpt><trkpt lat="43.307755" lon="11.523405"><ele>325.83333333333337</ele><time>2026-04-11T03:51:24.991Z</time></trkpt><trkpt lat="43.3078067" lon="11.5234583"><ele>326.0</ele><time>2026-04-11T03:51:26.991Z</time></trkpt><trkpt lat="43.3078717" lon="11.5235217"><ele>326.0</ele><time>2026-04-11T03:51:28.992Z</time></trkpt><trkpt lat="43.3079433" lon="11.5235883"><ele>326.0</ele><time>2026-04-11T03:51:30.991Z</time></trkpt><trkpt lat="43.3080083" lon="11.5236433"><ele>326.0</ele><time>2026-04-11T03:51:32.991Z</time></trkpt><trkpt lat="43.3080933" lon="11.5236867"><ele>326.0</ele><time>2026-04-11T03:51:35.992Z</time></trkpt><trkpt lat="43.3081617" lon="11.5237133"><ele>326.0</ele><time>2026-04-11T03:51:37.991Z</time></trkpt><trkpt lat="43.3082233" lon="11.52376"><ele>326.0</ele><time>2026-04-11T03:51:39.991Z</time></trkpt><trkpt lat="43.308295" lon="11.523825"><ele>326.0</ele><time>2026-04-11T03:51:41.991Z</time></trkpt><trkpt lat="43.3083817" lon="11.5239183"><ele>326.0</ele><time>2026-04-11T03:51:43.991Z</time></trkpt><trkpt lat="43.3084633" lon="11.5240433"><ele>326.0</ele><time>2026-04-11T03:51:45.992Z</time></trkpt><trkpt lat="43.3085083" lon="11.52411"><ele>326.0</ele><time>2026-04-11T03:51:46.991Z</time></trkpt><trkpt lat="43.3085583" lon="11.5241817"><ele>326.0</ele><time>2026-04-11T03:51:47.991Z</time></trkpt><trkpt lat="43.3086383" lon="11.5242883"><ele>326.0</ele><time>2026-04-11T03:51:49.991Z</time></trkpt><trkpt lat="43.3087033" lon="11.52437"><ele>326.0</ele><time>2026-04-11T03:51:51.991Z</time></trkpt><trkpt lat="43.3087833" lon="11.5244633"><ele>326.0</ele><time>2026-04-11T03:52:27.991Z</time></trkpt><trkpt lat="43.3088233" lon="11.5245383"><ele>326.0</ele><time>2026-04-11T03:52:32.991Z</time></trkpt><trkpt lat="43.308785" lon="11.5244517"><ele>326.0</ele><time>2026-04-11T03:54:29.991Z</time></trkpt><trkpt lat="43.3088083" lon="11.524315"><ele>326.0</ele><time>2026-04-11T03:54:31.991Z</time></trkpt><trkpt lat="43.30884" lon="11.5241817"><ele>326.0</ele><time>2026-04-11T03:54:33.991Z</time></trkpt><trkpt lat="43.3088733" lon="11.52404"><ele>326.0</ele><time>2026-04-11T03:54:35.991Z</time></trkpt><trkpt lat="43.3088783" lon="11.52388"><ele>326.0</ele><time>2026-04-11T03:54:37.991Z</time></trkpt><trkpt lat="43.308875" lon="11.5237917"><ele>326.0</ele><time>2026-04-11T03:54:38.991Z</time></trkpt><trkpt lat="43.308845" lon="11.5236233"><ele>326.0</ele><time>2026-04-11T03:54:40.991Z</time></trkpt><trkpt lat="43.3088333" lon="11.5235367"><ele>326.14285714285717</ele><time>2026-04-11T03:54:41.991Z</time></trkpt><trkpt lat="43.3088283" lon="11.5234483"><ele>326.2857142857143</ele><time>2026-04-11T03:54:42.991Z</time></trkpt><trkpt lat="43.3088333" lon="11.52336"><ele>326.42857142857144</ele><time>2026-04-11T03:54:43.991Z</time></trkpt><trkpt lat="43.3088533" lon="11.52326"><ele>326.57142857142856</ele><time>2026-04-11T03:54:44.992Z</time></trkpt><trkpt lat="43.30888" lon="11.5231533"><ele>326.7142857142857</ele><time>2026-04-11T03:54:45.991Z</time></trkpt><trkpt lat="43.30891" lon="11.5230567"><ele>326.85714285714283</ele><time>2026-04-11T03:54:46.991Z</time></trkpt><trkpt lat="43.3089483" lon="11.5229717"><ele>327.0</ele><time>2026-04-11T03:54:47.991Z</time></trkpt><trkpt lat="43.3090017" lon="11.5228817"><ele>323.6</ele><time>2026-04-11T03:54:48.991Z</time></trkpt><trkpt lat="43.3090583" lon="11.5228"><ele>320.20000000000005</ele><time>2026-04-11T03:54:49.991Z</time></trkpt><trkpt lat="43.3091317" lon="11.5227233"><ele>316.8</ele><time>2026-04-11T03:54:50.991Z</time></trkpt><trkpt lat="43.30921" lon="11.5226617"><ele>313.4</ele><time>2026-04-11T03:54:51.991Z</time></trkpt><trkpt lat="43.3093" lon="11.5226183"><ele>310.0</ele><time>2026-04-11T03:54:52.991Z</time></trkpt><trkpt lat="43.309395" lon="11.5225783"><ele>310.0</ele><time>2026-04-11T03:54:53.991Z</time></trkpt><trkpt lat="43.3094783" lon="11.52253"><ele>310.0</ele><time>2026-04-11T03:54:54.991Z</time></trkpt><trkpt lat="43.3095567" lon="11.52247"><ele>310.0</ele><time>2026-04-11T03:54:55.991Z</time></trkpt><trkpt lat="43.3096333" lon="11.5224"><ele>310.0</ele><time>2026-04-11T03:54:56.991Z</time></trkpt><trkpt lat="43.3097033" lon="11.5223233"><ele>310.0</ele><time>2026-04-11T03:54:57.991Z</time></trkpt><trkpt lat="43.3097633" lon="11.52224"><ele>310.0</ele><time>2026-04-11T03:54:58.992Z</time></trkpt><trkpt lat="43.3098183" lon="11.5221433"><ele>309.16666666666663</ele><time>2026-04-11T03:54:59.991Z</time></trkpt><trkpt lat="43.309845" lon="11.5220467"><ele>308.3333333333333</ele><time>2026-04-11T03:55:00.991Z</time></trkpt><trkpt lat="43.309865" lon="11.52193"><ele>307.5</ele><time>2026-04-11T03:55:01.991Z</time></trkpt><trkpt lat="43.3098783" lon="11.5218183"><ele>306.6666666666667</ele><time>2026-04-11T03:55:02.992Z</time></trkpt><trkpt lat="43.3098717" lon="11.5217017"><ele>305.83333333333337</ele><time>2026-04-11T03:55:03.992Z</time></trkpt><trkpt lat="43.309855" lon="11.5215917"><ele>305.0</ele><time>2026-04-11T03:55:04.992Z</time></trkpt><trkpt lat="43.309835" lon="11.5214817"><ele>305.0</ele><time>2026-04-11T03:55:05.991Z</time></trkpt><trkpt lat="43.3098083" lon="11.5213733"><ele>305.0</ele><time>2026-04-11T03:55:06.991Z</time></trkpt><trkpt lat="43.3097833" lon="11.5212583"><ele>305.0</ele><time>2026-04-11T03:55:07.991Z</time></trkpt><trkpt lat="43.30976" lon="11.5211367"><ele>305.0</ele><time>2026-04-11T03:55:08.991Z</time></trkpt><trkpt lat="43.3097417" lon="11.5210083"><ele>305.0</ele><time>2026-04-11T03:55:09.991Z</time></trkpt><trkpt lat="43.30973" lon="11.5208783"><ele>303.2</ele><time>2026-04-11T03:55:10.991Z</time></trkpt><trkpt lat="43.30972" lon="11.52075"><ele>301.4</ele><time>2026-04-11T03:55:11.991Z</time></trkpt><trkpt lat="43.3097117" lon="11.5206183"><ele>299.6</ele><time>2026-04-11T03:55:12.991Z</time></trkpt><trkpt lat="43.3097083" lon="11.5204867"><ele>297.8</ele><time>2026-04-11T03:55:13.991Z</time></trkpt><trkpt lat="43.309695" lon="11.52035"><ele>296.0</ele><time>2026-04-11T03:55:14.991Z</time></trkpt><trkpt lat="43.3096667" lon="11.520225"><ele>296.0</ele><time>2026-04-11T03:55:15.992Z</time></trkpt><trkpt lat="43.30965" lon="11.5200933"><ele>296.0</ele><time>2026-04-11T03:55:16.991Z</time></trkpt><trkpt lat="43.3096483" lon="11.519965"><ele>296.0</ele><time>2026-04-11T03:55:17.991Z</time></trkpt><trkpt lat="43.3096583" lon="11.5198417"><ele>296.0</ele><time>2026-04-11T03:55:18.991Z</time></trkpt><trkpt lat="43.309675" lon="11.5197333"><ele>296.0</ele><time>2026-04-11T03:55:19.991Z</time></trkpt><trkpt lat="43.309705" lon="11.5196217"><ele>296.0</ele><time>2026-04-11T03:55:20.991Z</time></trkpt><trkpt lat="43.30974" lon="11.5195017"><ele>296.0</ele><time>2026-04-11T03:55:21.991Z</time></trkpt><trkpt lat="43.30978" lon="11.5193783"><ele>296.0</ele><time>2026-04-11T03:55:22.991Z</time></trkpt><trkpt lat="43.309815" lon="11.5192683"><ele>296.0</ele><time>2026-04-11T03:55:23.991Z</time></trkpt><trkpt lat="43.309845" lon="11.5191617"><ele>296.0</ele><time>2026-04-11T03:55:24.991Z</time></trkpt><trkpt lat="43.3098767" lon="11.5190683"><ele>296.0</ele><time>2026-04-11T03:55:25.991Z</time></trkpt><trkpt lat="43.309905" lon="11.51897"><ele>296.0</ele><time>2026-04-11T03:55:26.991Z</time></trkpt><trkpt lat="43.3099283" lon="11.5188717"><ele>296.0</ele><time>2026-04-11T03:55:27.988Z</time></trkpt><trkpt lat="43.3099467" lon="11.5187783"><ele>296.0</ele><time>2026-04-11T03:55:28.992Z</time></trkpt><trkpt lat="43.30995" lon="11.51869"><ele>296.0</ele><time>2026-04-11T03:55:29.991Z</time></trkpt><trkpt lat="43.30995" lon="11.5185983"><ele>296.0</ele><time>2026-04-11T03:55:30.991Z</time></trkpt><trkpt lat="43.3099367" lon="11.5185083"><ele>296.0</ele><time>2026-04-11T03:55:31.991Z</time></trkpt><trkpt lat="43.30992" lon="11.51841"><ele>296.0</ele><time>2026-04-11T03:55:32.992Z</time></trkpt><trkpt lat="43.3099017" lon="11.518315"><ele>296.0</ele><time>2026-04-11T03:55:33.991Z</time></trkpt><trkpt lat="43.30988" lon="11.5182267"><ele>295.83333333333337</ele><time>2026-04-11T03:55:34.991Z</time></trkpt><trkpt lat="43.3098533" lon="11.5181383"><ele>295.6666666666667</ele><time>2026-04-11T03:55:35.991Z</time></trkpt><trkpt lat="43.3098233" lon="11.5180483"><ele>295.5</ele><time>2026-04-11T03:55:36.991Z</time></trkpt><trkpt lat="43.3097917" lon="11.5179517"><ele>295.3333333333333</ele><time>2026-04-11T03:55:37.991Z</time></trkpt><trkpt lat="43.3097517" lon="11.5178583"><ele>295.16666666666663</ele><time>2026-04-11T03:55:38.991Z</time></trkpt><trkpt lat="43.3097033" lon="11.5177717"><ele>295.0</ele><time>2026-04-11T03:55:39.991Z</time></trkpt><trkpt lat="43.30965" lon="11.5176967"><ele>294.16666666666663</ele><time>2026-04-11T03:55:40.992Z</time></trkpt><trkpt lat="43.3095967" lon="11.5176117"><ele>293.3333333333333</ele><time>2026-04-11T03:55:41.991Z</time></trkpt><trkpt lat="43.309535" lon="11.5175367"><ele>292.5</ele><time>2026-04-11T03:55:42.991Z</time></trkpt><trkpt lat="43.309475" lon="11.5174633"><ele>291.6666666666667</ele><time>2026-04-11T03:55:43.991Z</time></trkpt><trkpt lat="43.30941" lon="11.5173983"><ele>290.83333333333337</ele><time>2026-04-11T03:55:44.991Z</time></trkpt><trkpt lat="43.30935" lon="11.517335"><ele>290.0</ele><time>2026-04-11T03:55:45.991Z</time></trkpt><trkpt lat="43.3092967" lon="11.5172667"><ele>290.0</ele><time>2026-04-11T03:55:46.992Z</time></trkpt><trkpt lat="43.3092533" lon="11.517195"><ele>290.0</ele><time>2026-04-11T03:55:47.991Z</time></trkpt><trkpt lat="43.309225" lon="11.51711"><ele>290.0</ele><time>2026-04-11T03:55:48.991Z</time></trkpt><trkpt lat="43.3092033" lon="11.5170267"><ele>290.0</ele><time>2026-04-11T03:55:49.991Z</time></trkpt><trkpt lat="43.3091883" lon="11.5169383"><ele>290.0</ele><time>2026-04-11T03:55:50.991Z</time></trkpt><trkpt lat="43.309185" lon="11.51678"><ele>290.0</ele><time>2026-04-11T03:55:52.991Z</time></trkpt><trkpt lat="43.30922" lon="11.5166317"><ele>290.8</ele><time>2026-04-11T03:55:54.992Z</time></trkpt><trkpt lat="43.30929" lon="11.5165017"><ele>291.6</ele><time>2026-04-11T03:55:56.991Z</time></trkpt><trkpt lat="43.3093767" lon="11.51639"><ele>292.4</ele><time>2026-04-11T03:55:58.992Z</time></trkpt><trkpt lat="43.3094683" lon="11.51628"><ele>293.2</ele><time>2026-04-11T03:56:00.991Z</time></trkpt><trkpt lat="43.309515" lon="11.51622"><ele>294.0</ele><time>2026-04-11T03:56:01.992Z</time></trkpt><trkpt lat="43.3095667" lon="11.5161533"><ele>294.6666666666667</ele><time>2026-04-11T03:56:02.991Z</time></trkpt><trkpt lat="43.3096183" lon="11.5160833"><ele>295.3333333333333</ele><time>2026-04-11T03:56:03.991Z</time></trkpt><trkpt lat="43.3096817" lon="11.5160167"><ele>296.0</ele><time>2026-04-11T03:56:04.991Z</time></trkpt><trkpt lat="43.30974" lon="11.5159467"><ele>296.66666666666663</ele><time>2026-04-11T03:56:05.991Z</time></trkpt><trkpt lat="43.3097983" lon="11.5158767"><ele>297.3333333333333</ele><time>2026-04-11T03:56:06.991Z</time></trkpt><trkpt lat="43.3098583" lon="11.5158033"><ele>298.0</ele><time>2026-04-11T03:56:07.991Z</time></trkpt><trkpt lat="43.3099167" lon="11.51573"><ele>296.5</ele><time>2026-04-11T03:56:08.991Z</time></trkpt><trkpt lat="43.3099767" lon="11.5156583"><ele>295.0</ele><time>2026-04-11T03:56:09.992Z</time></trkpt><trkpt lat="43.31004" lon="11.5155867"><ele>293.5</ele><time>2026-04-11T03:56:10.991Z</time></trkpt><trkpt lat="43.3101083" lon="11.5155167"><ele>292.0</ele><time>2026-04-11T03:56:11.991Z</time></trkpt><trkpt lat="43.3101883" lon="11.5154467"><ele>290.5</ele><time>2026-04-11T03:56:12.992Z</time></trkpt><trkpt lat="43.3102667" lon="11.51538"><ele>289.0</ele><time>2026-04-11T03:56:13.991Z</time></trkpt><trkpt lat="43.31035" lon="11.51533"><ele>287.8</ele><time>2026-04-11T03:56:14.991Z</time></trkpt><trkpt lat="43.3104367" lon="11.5152883"><ele>286.59999999999997</ele><time>2026-04-11T03:56:15.991Z</time></trkpt><trkpt lat="43.3105283" lon="11.51526"><ele>285.4</ele><time>2026-04-11T03:56:16.991Z</time></trkpt><trkpt lat="43.310625" lon="11.5152367"><ele>284.2</ele><time>2026-04-11T03:56:17.991Z</time></trkpt><trkpt lat="43.310725" lon="11.5152133"><ele>283.0</ele><time>2026-04-11T03:56:18.991Z</time></trkpt><trkpt lat="43.3108217" lon="11.51519"><ele>283.0</ele><time>2026-04-11T03:56:19.991Z</time></trkpt><trkpt lat="43.310915" lon="11.515165"><ele>283.0</ele><time>2026-04-11T03:56:20.991Z</time></trkpt><trkpt lat="43.311005" lon="11.515145"><ele>283.0</ele><time>2026-04-11T03:56:21.991Z</time></trkpt><trkpt lat="43.3110883" lon="11.5151433"><ele>283.0</ele><time>2026-04-11T03:56:22.991Z</time></trkpt><trkpt lat="43.311165" lon="11.5151433"><ele>283.0</ele><time>2026-04-11T03:56:23.992Z</time></trkpt><trkpt lat="43.3112433" lon="11.5151383"><ele>283.0</ele><time>2026-04-11T03:56:24.991Z</time></trkpt><trkpt lat="43.3113117" lon="11.51514"><ele>283.0</ele><time>2026-04-11T03:56:25.991Z</time></trkpt><trkpt lat="43.3113783" lon="11.5151433"><ele>283.0</ele><time>2026-04-11T03:56:26.991Z</time></trkpt><trkpt lat="43.3115" lon="11.5151483"><ele>283.0</ele><time>2026-04-11T03:56:28.991Z</time></trkpt><trkpt lat="43.31162" lon="11.5151483"><ele>283.0</ele><time>2026-04-11T03:56:30.991Z</time></trkpt><trkpt lat="43.3117333" lon="11.5151417"><ele>283.0</ele><time>2026-04-11T03:56:32.991Z</time></trkpt><trkpt lat="43.3118283" lon="11.5151267"><ele>284.3333333333333</ele><time>2026-04-11T03:56:34.991Z</time></trkpt><trkpt lat="43.3119067" lon="11.5150883"><ele>285.66666666666663</ele><time>2026-04-11T03:56:36.991Z</time></trkpt><trkpt lat="43.3119717" lon="11.515025"><ele>287.0</ele><time>2026-04-11T03:56:38.991Z</time></trkpt><trkpt lat="43.312035" lon="11.51496"><ele>288.3333333333333</ele><time>2026-04-11T03:56:40.992Z</time></trkpt><trkpt lat="43.312085" lon="11.5148817"><ele>289.6666666666667</ele><time>2026-04-11T03:56:42.991Z</time></trkpt><trkpt lat="43.3121367" lon="11.5147967"><ele>291.0</ele><time>2026-04-11T03:56:44.992Z</time></trkpt><trkpt lat="43.312185" lon="11.514705"><ele>291.0</ele><time>2026-04-11T03:56:46.992Z</time></trkpt><trkpt lat="43.3122383" lon="11.5146183"><ele>291.0</ele><time>2026-04-11T03:56:48.991Z</time></trkpt><trkpt lat="43.3122833" lon="11.51453"><ele>291.0</ele><time>2026-04-11T03:56:50.991Z</time></trkpt><trkpt lat="43.312325" lon="11.5144467"><ele>291.0</ele><time>2026-04-11T03:56:52.992Z</time></trkpt><trkpt lat="43.3123617" lon="11.5143667"><ele>291.0</ele><time>2026-04-11T03:56:54.991Z</time></trkpt><trkpt lat="43.312405" lon="11.5142967"><ele>291.0</ele><time>2026-04-11T03:56:56.991Z</time></trkpt><trkpt lat="43.3124517" lon="11.5142317"><ele>291.0</ele><time>2026-04-11T03:56:58.991Z</time></trkpt><trkpt lat="43.3125083" lon="11.5141683"><ele>292.0</ele><time>2026-04-11T03:57:00.991Z</time></trkpt><trkpt lat="43.3125733" lon="11.5140933"><ele>293.0</ele><time>2026-04-11T03:57:02.991Z</time></trkpt><trkpt lat="43.3126367" lon="11.5140317"><ele>294.0</ele><time>2026-04-11T03:57:04.992Z</time></trkpt><trkpt lat="43.3127067" lon="11.5139683"><ele>295.0</ele><time>2026-04-11T03:57:06.991Z</time></trkpt><trkpt lat="43.3127833" lon="11.5139267"><ele>296.0</ele><time>2026-04-11T03:57:08.991Z</time></trkpt><trkpt lat="43.31286" lon="11.513885"><ele>297.0</ele><time>2026-04-11T03:57:10.991Z</time></trkpt><trkpt lat="43.3129283" lon="11.5138533"><ele>297.0</ele><time>2026-04-11T03:57:12.991Z</time></trkpt><trkpt lat="43.312995" lon="11.5138267"><ele>297.0</ele><time>2026-04-11T03:57:14.991Z</time></trkpt><trkpt lat="43.3130633" lon="11.51382"><ele>297.0</ele><time>2026-04-11T03:57:16.991Z</time></trkpt><trkpt lat="43.3131367" lon="11.5138183"><ele>297.0</ele><time>2026-04-11T03:57:18.991Z</time></trkpt><trkpt lat="43.3132017" lon="11.51382"><ele>297.0</ele><time>2026-04-11T03:57:20.991Z</time></trkpt><trkpt lat="43.3132683" lon="11.5138433"><ele>297.0</ele><time>2026-04-11T03:57:22.991Z</time></trkpt><trkpt lat="43.3133383" lon="11.5138583"><ele>297.0</ele><time>2026-04-11T03:57:24.991Z</time></trkpt><trkpt lat="43.3134183" lon="11.51391"><ele>297.3333333333333</ele><time>2026-04-11T03:57:27.991Z</time></trkpt><trkpt lat="43.3134983" lon="11.5139517"><ele>297.6666666666667</ele><time>2026-04-11T03:57:30.991Z</time></trkpt><trkpt lat="43.31358" lon="11.5139983"><ele>298.0</ele><time>2026-04-11T03:57:33.991Z</time></trkpt><trkpt lat="43.3136417" lon="11.5140417"><ele>298.33333333333337</ele><time>2026-04-11T03:57:35.991Z</time></trkpt><trkpt lat="43.313695" lon="11.5141133"><ele>298.6666666666667</ele><time>2026-04-11T03:57:37.991Z</time></trkpt><trkpt lat="43.3137533" lon="11.5141817"><ele>299.0</ele><time>2026-04-11T03:57:39.992Z</time></trkpt><trkpt lat="43.31381" lon="11.5142383"><ele>299.0</ele><time>2026-04-11T03:57:41.991Z</time></trkpt><trkpt lat="43.3138817" lon="11.5143183"><ele>299.0</ele><time>2026-04-11T03:57:43.991Z</time></trkpt><trkpt lat="43.31394" lon="11.514395"><ele>299.0</ele><time>2026-04-11T03:57:45.991Z</time></trkpt><trkpt lat="43.314" lon="11.51448"><ele>299.0</ele><time>2026-04-11T03:57:47.992Z</time></trkpt><trkpt lat="43.3140617" lon="11.5145467"><ele>299.0</ele><time>2026-04-11T03:57:49.991Z</time></trkpt><trkpt lat="43.3141267" lon="11.51459"><ele>299.0</ele><time>2026-04-11T03:57:51.991Z</time></trkpt><trkpt lat="43.3142167" lon="11.5146233"><ele>299.0</ele><time>2026-04-11T03:57:53.991Z</time></trkpt><trkpt lat="43.3143217" lon="11.5146217"><ele>299.0</ele><time>2026-04-11T03:57:55.991Z</time></trkpt><trkpt lat="43.314425" lon="11.5145767"><ele>299.0</ele><time>2026-04-11T03:57:57.991Z</time></trkpt><trkpt lat="43.3145167" lon="11.5144917"><ele>299.0</ele><time>2026-04-11T03:57:59.992Z</time></trkpt><trkpt lat="43.3145933" lon="11.5143867"><ele>299.0</ele><time>2026-04-11T03:58:01.991Z</time></trkpt><trkpt lat="43.314665" lon="11.514255"><ele>299.1666666666667</ele><time>2026-04-11T03:58:03.991Z</time></trkpt><trkpt lat="43.3147233" lon="11.5140933"><ele>299.33333333333337</ele><time>2026-04-11T03:58:05.991Z</time></trkpt><trkpt lat="43.31477" lon="11.5140117"><ele>299.5</ele><time>2026-04-11T03:58:06.991Z</time></trkpt><trkpt lat="43.3148283" lon="11.5139317"><ele>299.6666666666667</ele><time>2026-04-11T03:58:07.992Z</time></trkpt><trkpt lat="43.3148917" lon="11.51388"><ele>299.8333333333333</ele><time>2026-04-11T03:58:08.991Z</time></trkpt><trkpt lat="43.314965" lon="11.5138517"><ele>300.0</ele><time>2026-04-11T03:58:09.992Z</time></trkpt><trkpt lat="43.3150567" lon="11.51384"><ele>300.6666666666667</ele><time>2026-04-11T03:58:10.991Z</time></trkpt><trkpt lat="43.31515" lon="11.5138433"><ele>301.3333333333333</ele><time>2026-04-11T03:58:11.991Z</time></trkpt><trkpt lat="43.31524" lon="11.5138483"><ele>302.0</ele><time>2026-04-11T03:58:12.991Z</time></trkpt><trkpt lat="43.3153267" lon="11.5138533"><ele>302.66666666666663</ele><time>2026-04-11T03:58:13.991Z</time></trkpt><trkpt lat="43.31541" lon="11.5138767"><ele>303.3333333333333</ele><time>2026-04-11T03:58:14.991Z</time></trkpt><trkpt lat="43.3154833" lon="11.51392"><ele>304.0</ele><time>2026-04-11T03:58:15.991Z</time></trkpt><trkpt lat="43.31555" lon="11.5140017"><ele>303.0</ele><time>2026-04-11T03:58:16.991Z</time></trkpt><trkpt lat="43.3155883" lon="11.5141033"><ele>302.0</ele><time>2026-04-11T03:58:17.991Z</time></trkpt><trkpt lat="43.3156033" lon="11.5142033"><ele>301.0</ele><time>2026-04-11T03:58:18.991Z</time></trkpt><trkpt lat="43.3156133" lon="11.5142933"><ele>300.0</ele><time>2026-04-11T03:58:19.991Z</time></trkpt><trkpt lat="43.31562" lon="11.5144583"><ele>299.0</ele><time>2026-04-11T03:58:21.991Z</time></trkpt><trkpt lat="43.315625" lon="11.5146083"><ele>299.0</ele><time>2026-04-11T03:58:23.991Z</time></trkpt><trkpt lat="43.3156533" lon="11.5147433"><ele>299.0</ele><time>2026-04-11T03:58:25.991Z</time></trkpt><trkpt lat="43.3156983" lon="11.5148733"><ele>299.0</ele><time>2026-04-11T03:58:27.991Z</time></trkpt><trkpt lat="43.315735" lon="11.515"><ele>299.0</ele><time>2026-04-11T03:58:29.991Z</time></trkpt><trkpt lat="43.3157967" lon="11.5150967"><ele>299.0</ele><time>2026-04-11T03:58:31.991Z</time></trkpt><trkpt lat="43.3158683" lon="11.515175"><ele>299.0</ele><time>2026-04-11T03:58:33.991Z</time></trkpt><trkpt lat="43.31596" lon="11.5152467"><ele>299.0</ele><time>2026-04-11T03:58:35.991Z</time></trkpt><trkpt lat="43.3160617" lon="11.5152833"><ele>299.0</ele><time>2026-04-11T03:58:37.992Z</time></trkpt><trkpt lat="43.3161683" lon="11.5152983"><ele>299.0</ele><time>2026-04-11T03:58:39.991Z</time></trkpt><trkpt lat="43.316275" lon="11.5152917"><ele>299.0</ele><time>2026-04-11T03:58:41.992Z</time></trkpt><trkpt lat="43.316385" lon="11.5152567"><ele>299.25</ele><time>2026-04-11T03:58:43.991Z</time></trkpt><trkpt lat="43.31649" lon="11.5152183"><ele>299.5</ele><time>2026-04-11T03:58:45.991Z</time></trkpt><trkpt lat="43.3165983" lon="11.5151767"><ele>299.75</ele><time>2026-04-11T03:58:47.991Z</time></trkpt><trkpt lat="43.316705" lon="11.5151233"><ele>300.0</ele><time>2026-04-11T03:58:49.991Z</time></trkpt><trkpt lat="43.3168167" lon="11.5150667"><ele>300.0</ele><time>2026-04-11T03:58:51.991Z</time></trkpt><trkpt lat="43.316925" lon="11.51502"><ele>300.0</ele><time>2026-04-11T03:58:53.991Z</time></trkpt><trkpt lat="43.3170367" lon="11.5149683"><ele>300.0</ele><time>2026-04-11T03:58:55.991Z</time></trkpt><trkpt lat="43.3171417" lon="11.5149133"><ele>300.0</ele><time>2026-04-11T03:58:57.991Z</time></trkpt><trkpt lat="43.3172517" lon="11.5148633"><ele>300.2</ele><time>2026-04-11T03:58:59.991Z</time></trkpt><trkpt lat="43.317365" lon="11.5148133"><ele>300.4</ele><time>2026-04-11T03:59:01.991Z</time></trkpt><trkpt lat="43.31746" lon="11.514735"><ele>300.6</ele><time>2026-04-11T03:59:03.991Z</time></trkpt><trkpt lat="43.3175367" lon="11.5146133"><ele>300.8</ele><time>2026-04-11T03:59:05.992Z</time></trkpt><trkpt lat="43.3175717" lon="11.514535"><ele>301.0</ele><time>2026-04-11T03:59:06.991Z</time></trkpt><trkpt lat="43.3176033" lon="11.5144483"><ele>301.0</ele><time>2026-04-11T03:59:07.992Z</time></trkpt><trkpt lat="43.3176283" lon="11.51436"><ele>301.0</ele><time>2026-04-11T03:59:08.991Z</time></trkpt><trkpt lat="43.3176533" lon="11.5142717"><ele>301.0</ele><time>2026-04-11T03:59:09.991Z</time></trkpt><trkpt lat="43.3176767" lon="11.5141783"><ele>301.0</ele><time>2026-04-11T03:59:10.991Z</time></trkpt><trkpt lat="43.3176917" lon="11.5140883"><ele>301.0</ele><time>2026-04-11T03:59:11.991Z</time></trkpt><trkpt lat="43.317715" lon="11.5139917"><ele>301.0</ele><time>2026-04-11T03:59:12.991Z</time></trkpt><trkpt lat="43.3177317" lon="11.5139017"><ele>301.0</ele><time>2026-04-11T03:59:13.992Z</time></trkpt><trkpt lat="43.3177483" lon="11.5138083"><ele>300.57142857142856</ele><time>2026-04-11T03:59:14.992Z</time></trkpt><trkpt lat="43.3177683" lon="11.5137183"><ele>300.1428571428571</ele><time>2026-04-11T03:59:15.991Z</time></trkpt><trkpt lat="43.3178017" lon="11.5136367"><ele>299.7142857142857</ele><time>2026-04-11T03:59:16.991Z</time></trkpt><trkpt lat="43.3178533" lon="11.5135567"><ele>299.2857142857143</ele><time>2026-04-11T03:59:17.991Z</time></trkpt><trkpt lat="43.3179133" lon="11.5134917"><ele>298.85714285714283</ele><time>2026-04-11T03:59:18.991Z</time></trkpt><trkpt lat="43.3179767" lon="11.5134383"><ele>298.42857142857144</ele><time>2026-04-11T03:59:19.991Z</time></trkpt><trkpt lat="43.318045" lon="11.5134083"><ele>298.0</ele><time>2026-04-11T03:59:20.991Z</time></trkpt><trkpt lat="43.31812" lon="11.5133917"><ele>298.0</ele><time>2026-04-11T03:59:21.991Z</time></trkpt><trkpt lat="43.3182067" lon="11.5133783"><ele>298.0</ele><time>2026-04-11T03:59:22.991Z</time></trkpt><trkpt lat="43.3182917" lon="11.5133667"><ele>298.0</ele><time>2026-04-11T03:59:23.991Z</time></trkpt><trkpt lat="43.3183717" lon="11.5133683"><ele>298.0</ele><time>2026-04-11T03:59:24.991Z</time></trkpt><trkpt lat="43.3184533" lon="11.5133867"><ele>298.0</ele><time>2026-04-11T03:59:25.991Z</time></trkpt><trkpt lat="43.3185333" lon="11.5134167"><ele>298.0</ele><time>2026-04-11T03:59:26.991Z</time></trkpt><trkpt lat="43.3185983" lon="11.5134533"><ele>298.0</ele><time>2026-04-11T03:59:27.991Z</time></trkpt><trkpt lat="43.31866" lon="11.5135167"><ele>298.0</ele><time>2026-04-11T03:59:28.992Z</time></trkpt><trkpt lat="43.3187033" lon="11.5135883"><ele>298.0</ele><time>2026-04-11T03:59:29.991Z</time></trkpt><trkpt lat="43.3187417" lon="11.5136867"><ele>298.0</ele><time>2026-04-11T03:59:30.991Z</time></trkpt><trkpt lat="43.318765" lon="11.5137917"><ele>298.0</ele><time>2026-04-11T03:59:31.991Z</time></trkpt><trkpt lat="43.3187733" lon="11.5138883"><ele>298.0</ele><time>2026-04-11T03:59:32.991Z</time></trkpt><trkpt lat="43.3187767" lon="11.5139933"><ele>298.3333333333333</ele><time>2026-04-11T03:59:33.991Z</time></trkpt><trkpt lat="43.3187717" lon="11.5141017"><ele>298.66666666666663</ele><time>2026-04-11T03:59:34.991Z</time></trkpt><trkpt lat="43.318755" lon="11.5142017"><ele>299.0</ele><time>2026-04-11T03:59:35.991Z</time></trkpt><trkpt lat="43.31872" lon="11.514295"><ele>299.3333333333333</ele><time>2026-04-11T03:59:36.991Z</time></trkpt><trkpt lat="43.3186667" lon="11.5143817"><ele>299.6666666666667</ele><time>2026-04-11T03:59:37.991Z</time></trkpt><trkpt lat="43.3186083" lon="11.514455"><ele>300.0</ele><time>2026-04-11T03:59:38.991Z</time></trkpt><trkpt lat="43.3185467" lon="11.51452"><ele>299.6666666666667</ele><time>2026-04-11T03:59:39.992Z</time></trkpt><trkpt lat="43.3184883" lon="11.514585"><ele>299.3333333333333</ele><time>2026-04-11T03:59:40.992Z</time></trkpt><trkpt lat="43.3184333" lon="11.51466"><ele>299.0</ele><time>2026-04-11T03:59:41.991Z</time></trkpt><trkpt lat="43.3183933" lon="11.5147367"><ele>298.66666666666663</ele><time>2026-04-11T03:59:42.991Z</time></trkpt><trkpt lat="43.318355" lon="11.51482"><ele>298.3333333333333</ele><time>2026-04-11T03:59:43.992Z</time></trkpt><trkpt lat="43.31834" lon="11.5149167"><ele>298.0</ele><time>2026-04-11T03:59:44.991Z</time></trkpt><trkpt lat="43.3183817" lon="11.5150383"><ele>298.0</ele><time>2026-04-11T03:59:46.991Z</time></trkpt><trkpt lat="43.3184883" lon="11.51505"><ele>298.0</ele><time>2026-04-11T03:59:48.991Z</time></trkpt><trkpt lat="43.3185467" lon="11.51501"><ele>298.0</ele><time>2026-04-11T03:59:49.991Z</time></trkpt><trkpt lat="43.31859" lon="11.514945"><ele>298.0</ele><time>2026-04-11T03:59:50.991Z</time></trkpt><trkpt lat="43.3186317" lon="11.5148667"><ele>298.0</ele><time>2026-04-11T03:59:51.991Z</time></trkpt><trkpt lat="43.3186717" lon="11.5147883"><ele>298.0</ele><time>2026-04-11T03:59:52.991Z</time></trkpt><trkpt lat="43.3187133" lon="11.5147067"><ele>298.0</ele><time>2026-04-11T03:59:53.991Z</time></trkpt><trkpt lat="43.3187517" lon="11.5146317"><ele>298.4</ele><time>2026-04-11T03:59:54.991Z</time></trkpt><trkpt lat="43.3188267" lon="11.5145"><ele>298.8</ele><time>2026-04-11T03:59:56.991Z</time></trkpt><trkpt lat="43.3188717" lon="11.5144367"><ele>299.2</ele><time>2026-04-11T03:59:57.991Z</time></trkpt><trkpt lat="43.3189383" lon="11.5142883"><ele>299.6</ele><time>2026-04-11T03:59:59.991Z</time></trkpt><trkpt lat="43.3189667" lon="11.5142"><ele>300.0</ele><time>2026-04-11T04:00:00.991Z</time></trkpt><trkpt lat="43.31899" lon="11.51411"><ele>298.8333333333333</ele><time>2026-04-11T04:00:01.991Z</time></trkpt><trkpt lat="43.319005" lon="11.5140067"><ele>297.6666666666667</ele><time>2026-04-11T04:00:02.992Z</time></trkpt><trkpt lat="43.3190133" lon="11.5139083"><ele>296.5</ele><time>2026-04-11T04:00:03.991Z</time></trkpt><trkpt lat="43.3190117" lon="11.5138083"><ele>295.33333333333337</ele><time>2026-04-11T04:00:04.991Z</time></trkpt><trkpt lat="43.319005" lon="11.51371"><ele>294.1666666666667</ele><time>2026-04-11T04:00:05.991Z</time></trkpt><trkpt lat="43.3189983" lon="11.5136067"><ele>293.0</ele><time>2026-04-11T04:00:06.991Z</time></trkpt><trkpt lat="43.3189983" lon="11.513495"><ele>292.5</ele><time>2026-04-11T04:00:07.991Z</time></trkpt><trkpt lat="43.3190017" lon="11.51338"><ele>292.0</ele><time>2026-04-11T04:00:08.992Z</time></trkpt><trkpt lat="43.319015" lon="11.513265"><ele>291.5</ele><time>2026-04-11T04:00:09.991Z</time></trkpt><trkpt lat="43.3190433" lon="11.5131517"><ele>291.0</ele><time>2026-04-11T04:00:10.992Z</time></trkpt><trkpt lat="43.3190933" lon="11.5130433"><ele>290.5</ele><time>2026-04-11T04:00:11.991Z</time></trkpt><trkpt lat="43.31915" lon="11.51293"><ele>290.0</ele><time>2026-04-11T04:00:12.991Z</time></trkpt><trkpt lat="43.3192" lon="11.5127967"><ele>287.75</ele><time>2026-04-11T04:00:13.991Z</time></trkpt><trkpt lat="43.31923" lon="11.5126483"><ele>285.5</ele><time>2026-04-11T04:00:14.991Z</time></trkpt><trkpt lat="43.31924" lon="11.5124867"><ele>283.25</ele><time>2026-04-11T04:00:15.991Z</time></trkpt><trkpt lat="43.31924" lon="11.5123233"><ele>281.0</ele><time>2026-04-11T04:00:16.991Z</time></trkpt><trkpt lat="43.3192367" lon="11.51215"><ele>279.0</ele><time>2026-04-11T04:00:17.991Z</time></trkpt><trkpt lat="43.3192217" lon="11.51197"><ele>277.0</ele><time>2026-04-11T04:00:18.991Z</time></trkpt><trkpt lat="43.3191967" lon="11.5118067"><ele>275.0</ele><time>2026-04-11T04:00:19.991Z</time></trkpt><trkpt lat="43.319165" lon="11.511655"><ele>273.0</ele><time>2026-04-11T04:00:20.991Z</time></trkpt><trkpt lat="43.31915" lon="11.5115"><ele>273.0</ele><time>2026-04-11T04:00:21.991Z</time></trkpt><trkpt lat="43.3191317" lon="11.51134"><ele>273.0</ele><time>2026-04-11T04:00:22.991Z</time></trkpt><trkpt lat="43.31911" lon="11.5111867"><ele>273.0</ele><time>2026-04-11T04:00:23.992Z</time></trkpt><trkpt lat="43.319105" lon="11.51102"><ele>273.0</ele><time>2026-04-11T04:00:24.991Z</time></trkpt><trkpt lat="43.3191183" lon="11.51085"><ele>270.75</ele><time>2026-04-11T04:00:25.991Z</time></trkpt><trkpt lat="43.31915" lon="11.5106883"><ele>268.5</ele><time>2026-04-11T04:00:26.991Z</time></trkpt><trkpt lat="43.3191967" lon="11.5105417"><ele>266.25</ele><time>2026-04-11T04:00:27.991Z</time></trkpt><trkpt lat="43.3192617" lon="11.5104083"><ele>264.0</ele><time>2026-04-11T04:00:28.991Z</time></trkpt><trkpt lat="43.319335" lon="11.510285"><ele>261.5</ele><time>2026-04-11T04:00:29.991Z</time></trkpt><trkpt lat="43.319415" lon="11.5101617"><ele>259.0</ele><time>2026-04-11T04:00:30.991Z</time></trkpt><trkpt lat="43.3194917" lon="11.5100283"><ele>256.5</ele><time>2026-04-11T04:00:31.991Z</time></trkpt><trkpt lat="43.319565" lon="11.5099017"><ele>254.0</ele><time>2026-04-11T04:00:32.991Z</time></trkpt><trkpt lat="43.3196283" lon="11.5097867"><ele>254.0</ele><time>2026-04-11T04:00:33.992Z</time></trkpt><trkpt lat="43.3196933" lon="11.50967"><ele>253.99999999999997</ele><time>2026-04-11T04:00:34.991Z</time></trkpt><trkpt lat="43.3197467" lon="11.509545"><ele>253.99999999999997</ele><time>2026-04-11T04:00:35.991Z</time></trkpt><trkpt lat="43.3197817" lon="11.5094233"><ele>254.0</ele><time>2026-04-11T04:00:36.992Z</time></trkpt><trkpt lat="43.3198033" lon="11.509295"><ele>254.0</ele><time>2026-04-11T04:00:37.991Z</time></trkpt><trkpt lat="43.319825" lon="11.5091517"><ele>252.83333333333334</ele><time>2026-04-11T04:00:38.991Z</time></trkpt><trkpt lat="43.3198417" lon="11.5090217"><ele>251.66666666666669</ele><time>2026-04-11T04:00:39.992Z</time></trkpt><trkpt lat="43.31985" lon="11.508905"><ele>250.5</ele><time>2026-04-11T04:00:40.991Z</time></trkpt><trkpt lat="43.3198583" lon="11.5087867"><ele>249.33333333333331</ele><time>2026-04-11T04:00:41.991Z</time></trkpt><trkpt lat="43.31986" lon="11.508685"><ele>248.16666666666666</ele><time>2026-04-11T04:00:42.991Z</time></trkpt><trkpt lat="43.3198617" lon="11.508585"><ele>247.0</ele><time>2026-04-11T04:00:43.991Z</time></trkpt><trkpt lat="43.3198567" lon="11.50848"><ele>246.99999999999997</ele><time>2026-04-11T04:00:44.991Z</time></trkpt><trkpt lat="43.3198517" lon="11.508375"><ele>247.0</ele><time>2026-04-11T04:00:45.991Z</time></trkpt><trkpt lat="43.3198417" lon="11.508265"><ele>247.0</ele><time>2026-04-11T04:00:46.991Z</time></trkpt><trkpt lat="43.3198383" lon="11.5081383"><ele>247.0</ele><time>2026-04-11T04:00:47.991Z</time></trkpt><trkpt lat="43.3198317" lon="11.5080267"><ele>246.99999999999997</ele><time>2026-04-11T04:00:48.991Z</time></trkpt><trkpt lat="43.319825" lon="11.5079167"><ele>247.0</ele><time>2026-04-11T04:00:49.991Z</time></trkpt><trkpt lat="43.3198183" lon="11.5078033"><ele>246.66666666666666</ele><time>2026-04-11T04:00:50.991Z</time></trkpt><trkpt lat="43.31981" lon="11.5076767"><ele>246.33333333333331</ele><time>2026-04-11T04:00:51.991Z</time></trkpt><trkpt lat="43.3198067" lon="11.5075533"><ele>246.0</ele><time>2026-04-11T04:00:52.991Z</time></trkpt><trkpt lat="43.3197983" lon="11.5074333"><ele>245.66666666666669</ele><time>2026-04-11T04:00:53.991Z</time></trkpt><trkpt lat="43.3197867" lon="11.5073133"><ele>245.33333333333334</ele><time>2026-04-11T04:00:54.992Z</time></trkpt><trkpt lat="43.3197733" lon="11.5071983"><ele>245.0</ele><time>2026-04-11T04:00:55.991Z</time></trkpt><trkpt lat="43.31976" lon="11.50709"><ele>245.16666666666669</ele><time>2026-04-11T04:00:56.992Z</time></trkpt><trkpt lat="43.3197517" lon="11.5069867"><ele>245.33333333333334</ele><time>2026-04-11T04:00:57.992Z</time></trkpt><trkpt lat="43.3197333" lon="11.5068917"><ele>245.5</ele><time>2026-04-11T04:00:58.991Z</time></trkpt><trkpt lat="43.3197183" lon="11.5068"><ele>245.66666666666669</ele><time>2026-04-11T04:00:59.992Z</time></trkpt><trkpt lat="43.3196983" lon="11.5067067"><ele>245.83333333333334</ele><time>2026-04-11T04:01:00.991Z</time></trkpt><trkpt lat="43.3196867" lon="11.506615"><ele>246.0</ele><time>2026-04-11T04:01:01.991Z</time></trkpt><trkpt lat="43.31967" lon="11.5064567"><ele>245.60000000000002</ele><time>2026-04-11T04:01:03.991Z</time></trkpt><trkpt lat="43.3196817" lon="11.5063117"><ele>245.20000000000002</ele><time>2026-04-11T04:01:05.991Z</time></trkpt><trkpt lat="43.3197233" lon="11.5061867"><ele>244.79999999999998</ele><time>2026-04-11T04:01:07.991Z</time></trkpt><trkpt lat="43.3197933" lon="11.5060833"><ele>244.39999999999998</ele><time>2026-04-11T04:01:09.991Z</time></trkpt><trkpt lat="43.3198617" lon="11.5060283"><ele>244.0</ele><time>2026-04-11T04:01:11.991Z</time></trkpt><trkpt lat="43.3199317" lon="11.5059983"><ele>243.99999999999997</ele><time>2026-04-11T04:01:13.991Z</time></trkpt><trkpt lat="43.3200117" lon="11.505985"><ele>244.0</ele><time>2026-04-11T04:01:15.991Z</time></trkpt><trkpt lat="43.3200867" lon="11.50596"><ele>244.0</ele><time>2026-04-11T04:01:17.992Z</time></trkpt><trkpt lat="43.32016" lon="11.505925"><ele>244.0</ele><time>2026-04-11T04:01:19.991Z</time></trkpt><trkpt lat="43.3202417" lon="11.5058817"><ele>243.99999999999997</ele><time>2026-04-11T04:01:21.991Z</time></trkpt><trkpt lat="43.3203383" lon="11.5058367"><ele>244.0</ele><time>2026-04-11T04:01:23.991Z</time></trkpt><trkpt lat="43.3204417" lon="11.5058033"><ele>244.0</ele><time>2026-04-11T04:01:25.991Z</time></trkpt><trkpt lat="43.3205433" lon="11.5057683"><ele>243.99999999999997</ele><time>2026-04-11T04:01:27.991Z</time></trkpt><trkpt lat="43.32065" lon="11.5057333"><ele>243.99999999999997</ele><time>2026-04-11T04:01:29.991Z</time></trkpt><trkpt lat="43.3207683" lon="11.505695"><ele>244.0</ele><time>2026-04-11T04:01:31.991Z</time></trkpt><trkpt lat="43.3208317" lon="11.5056767"><ele>244.0</ele><time>2026-04-11T04:01:32.991Z</time></trkpt><trkpt lat="43.3209483" lon="11.50567"><ele>244.49999999999997</ele><time>2026-04-11T04:01:34.991Z</time></trkpt><trkpt lat="43.321055" lon="11.5056717"><ele>245.0</ele><time>2026-04-11T04:01:36.992Z</time></trkpt><trkpt lat="43.3211483" lon="11.505685"><ele>245.5</ele><time>2026-04-11T04:01:38.991Z</time></trkpt><trkpt lat="43.321235" lon="11.5057183"><ele>246.0</ele><time>2026-04-11T04:01:40.991Z</time></trkpt><trkpt lat="43.32131" lon="11.5057617"><ele>246.49999999999997</ele><time>2026-04-11T04:01:42.991Z</time></trkpt><trkpt lat="43.3213717" lon="11.50581"><ele>247.0</ele><time>2026-04-11T04:01:44.991Z</time></trkpt><trkpt lat="43.3214283" lon="11.50586"><ele>248.33333333333331</ele><time>2026-04-11T04:01:46.991Z</time></trkpt><trkpt lat="43.3214833" lon="11.50592"><ele>249.66666666666666</ele><time>2026-04-11T04:01:48.991Z</time></trkpt><trkpt lat="43.3215383" lon="11.5059817"><ele>251.0</ele><time>2026-04-11T04:01:50.992Z</time></trkpt><trkpt lat="43.321585" lon="11.5060433"><ele>252.33333333333331</ele><time>2026-04-11T04:01:52.991Z</time></trkpt><trkpt lat="43.3216383" lon="11.50612"><ele>253.66666666666666</ele><time>2026-04-11T04:01:55.991Z</time></trkpt><trkpt lat="43.321695" lon="11.5061933"><ele>255.0</ele><time>2026-04-11T04:01:58.992Z</time></trkpt><trkpt lat="43.3217583" lon="11.5062917"><ele>255.0</ele><time>2026-04-11T04:02:01.991Z</time></trkpt><trkpt lat="43.3218233" lon="11.5063817"><ele>255.0</ele><time>2026-04-11T04:02:04.992Z</time></trkpt><trkpt lat="43.32187" lon="11.5064433"><ele>255.0</ele><time>2026-04-11T04:02:06.991Z</time></trkpt><trkpt lat="43.3219117" lon="11.5065133"><ele>255.0</ele><time>2026-04-11T04:02:08.991Z</time></trkpt><trkpt lat="43.3219683" lon="11.5066067"><ele>255.0</ele><time>2026-04-11T04:02:11.991Z</time></trkpt><trkpt lat="43.3220117" lon="11.50667"><ele>255.0</ele><time>2026-04-11T04:02:13.991Z</time></trkpt><trkpt lat="43.3220667" lon="11.506745"><ele>255.0</ele><time>2026-04-11T04:02:16.991Z</time></trkpt><trkpt lat="43.322125" lon="11.506815"><ele>255.0</ele><time>2026-04-11T04:02:19.991Z</time></trkpt><trkpt lat="43.3221833" lon="11.5069033"><ele>255.0</ele><time>2026-04-11T04:02:22.991Z</time></trkpt><trkpt lat="43.3222417" lon="11.5069967"><ele>255.0</ele><time>2026-04-11T04:02:25.991Z</time></trkpt><trkpt lat="43.322305" lon="11.50707"><ele>255.0</ele><time>2026-04-11T04:02:28.991Z</time></trkpt><trkpt lat="43.3223617" lon="11.50716"><ele>255.0</ele><time>2026-04-11T04:02:31.991Z</time></trkpt><trkpt lat="43.322415" lon="11.5072417"><ele>257.3333333333333</ele><time>2026-04-11T04:02:34.991Z</time></trkpt><trkpt lat="43.3224683" lon="11.5073217"><ele>259.6666666666667</ele><time>2026-04-11T04:02:37.992Z</time></trkpt><trkpt lat="43.322525" lon="11.5073917"><ele>262.0</ele><time>2026-04-11T04:02:40.991Z</time></trkpt><trkpt lat="43.322575" lon="11.5074633"><ele>264.33333333333337</ele><time>2026-04-11T04:02:43.991Z</time></trkpt><trkpt lat="43.322645" lon="11.5075283"><ele>266.6666666666667</ele><time>2026-04-11T04:02:47.992Z</time></trkpt><trkpt lat="43.3227167" lon="11.5075767"><ele>269.0</ele><time>2026-04-11T04:02:50.991Z</time></trkpt><trkpt lat="43.3227933" lon="11.5075983"><ele>269.0</ele><time>2026-04-11T04:02:53.992Z</time></trkpt><trkpt lat="43.3228717" lon="11.507615"><ele>269.0</ele><time>2026-04-11T04:02:56.991Z</time></trkpt><trkpt lat="43.3229467" lon="11.507645"><ele>269.0</ele><time>2026-04-11T04:02:59.992Z</time></trkpt><trkpt lat="43.32302" lon="11.5076633"><ele>269.0</ele><time>2026-04-11T04:03:02.991Z</time></trkpt><trkpt lat="43.3230933" lon="11.5076733"><ele>269.0</ele><time>2026-04-11T04:03:05.991Z</time></trkpt><trkpt lat="43.32317" lon="11.5076683"><ele>269.0</ele><time>2026-04-11T04:03:08.991Z</time></trkpt><trkpt lat="43.3232433" lon="11.5076617"><ele>270.0</ele><time>2026-04-11T04:03:11.991Z</time></trkpt><trkpt lat="43.3233233" lon="11.507665"><ele>271.0</ele><time>2026-04-11T04:03:14.991Z</time></trkpt><trkpt lat="43.323405" lon="11.5076683"><ele>272.0</ele><time>2026-04-11T04:03:17.991Z</time></trkpt><trkpt lat="43.3234867" lon="11.50768"><ele>273.0</ele><time>2026-04-11T04:03:20.991Z</time></trkpt><trkpt lat="43.3235667" lon="11.5076983"><ele>274.0</ele><time>2026-04-11T04:03:23.991Z</time></trkpt><trkpt lat="43.3236533" lon="11.5077167"><ele>275.0</ele><time>2026-04-11T04:03:26.991Z</time></trkpt><trkpt lat="43.32373" lon="11.507735"><ele>275.0</ele><time>2026-04-11T04:03:29.991Z</time></trkpt><trkpt lat="43.3238033" lon="11.507765"><ele>275.0</ele><time>2026-04-11T04:03:32.991Z</time></trkpt><trkpt lat="43.32387" lon="11.507805"><ele>275.0</ele><time>2026-04-11T04:03:35.991Z</time></trkpt><trkpt lat="43.3239267" lon="11.5078733"><ele>275.0</ele><time>2026-04-11T04:03:38.992Z</time></trkpt><trkpt lat="43.32398" lon="11.5079433"><ele>275.0</ele><time>2026-04-11T04:03:41.991Z</time></trkpt><trkpt lat="43.324045" lon="11.508015"><ele>275.0</ele><time>2026-04-11T04:03:44.992Z</time></trkpt><trkpt lat="43.3241033" lon="11.508115"><ele>276.5</ele><time>2026-04-11T04:03:47.991Z</time></trkpt><trkpt lat="43.324145" lon="11.5082067"><ele>278.0</ele><time>2026-04-11T04:03:50.991Z</time></trkpt><trkpt lat="43.324185" lon="11.508295"><ele>279.5</ele><time>2026-04-11T04:03:53.991Z</time></trkpt><trkpt lat="43.3242283" lon="11.5083917"><ele>281.0</ele><time>2026-04-11T04:03:56.991Z</time></trkpt><trkpt lat="43.32427" lon="11.5084883"><ele>282.5</ele><time>2026-04-11T04:03:59.991Z</time></trkpt><trkpt lat="43.324315" lon="11.5085917"><ele>284.0</ele><time>2026-04-11T04:04:02.991Z</time></trkpt><trkpt lat="43.3243617" lon="11.50869"><ele>285.33333333333337</ele><time>2026-04-11T04:04:05.991Z</time></trkpt><trkpt lat="43.3244083" lon="11.508785"><ele>286.6666666666667</ele><time>2026-04-11T04:04:08.991Z</time></trkpt><trkpt lat="43.32444" lon="11.50886"><ele>288.0</ele><time>2026-04-11T04:04:10.991Z</time></trkpt><trkpt lat="43.32448" lon="11.5089733"><ele>289.3333333333333</ele><time>2026-04-11T04:04:13.991Z</time></trkpt><trkpt lat="43.3245283" lon="11.5090817"><ele>290.66666666666663</ele><time>2026-04-11T04:04:16.992Z</time></trkpt><trkpt lat="43.324575" lon="11.509175"><ele>292.0</ele><time>2026-04-11T04:04:19.991Z</time></trkpt><trkpt lat="43.3246117" lon="11.5092483"><ele>292.0</ele><time>2026-04-11T04:04:21.991Z</time></trkpt><trkpt lat="43.3246467" lon="11.5093217"><ele>292.0</ele><time>2026-04-11T04:04:23.991Z</time></trkpt><trkpt lat="43.3246967" lon="11.5093867"><ele>292.0</ele><time>2026-04-11T04:04:25.991Z</time></trkpt><trkpt lat="43.3247767" lon="11.5094567"><ele>292.0</ele><time>2026-04-11T04:04:28.991Z</time></trkpt><trkpt lat="43.3248567" lon="11.5094933"><ele>292.0</ele><time>2026-04-11T04:04:31.991Z</time></trkpt><trkpt lat="43.3249217" lon="11.50951"><ele>292.0</ele><time>2026-04-11T04:04:33.991Z</time></trkpt><trkpt lat="43.324985" lon="11.509515"><ele>292.0</ele><time>2026-04-11T04:04:35.991Z</time></trkpt><trkpt lat="43.3250517" lon="11.5095183"><ele>291.57142857142856</ele><time>2026-04-11T04:04:37.991Z</time></trkpt><trkpt lat="43.3251183" lon="11.5095183"><ele>291.14285714285717</ele><time>2026-04-11T04:04:39.991Z</time></trkpt><trkpt lat="43.3251867" lon="11.509505"><ele>290.7142857142857</ele><time>2026-04-11T04:04:41.991Z</time></trkpt><trkpt lat="43.3252767" lon="11.5094717"><ele>290.2857142857143</ele><time>2026-04-11T04:04:44.991Z</time></trkpt><trkpt lat="43.3253383" lon="11.5094467"><ele>289.85714285714283</ele><time>2026-04-11T04:04:46.991Z</time></trkpt><trkpt lat="43.3254083" lon="11.5094267"><ele>289.42857142857144</ele><time>2026-04-11T04:04:48.991Z</time></trkpt><trkpt lat="43.3254783" lon="11.509395"><ele>289.0</ele><time>2026-04-11T04:04:50.991Z</time></trkpt><trkpt lat="43.3255583" lon="11.5093583"><ele>289.16666666666663</ele><time>2026-04-11T04:04:52.991Z</time></trkpt><trkpt lat="43.3256333" lon="11.5093233"><ele>289.3333333333333</ele><time>2026-04-11T04:04:54.991Z</time></trkpt><trkpt lat="43.325705" lon="11.5092817"><ele>289.5</ele><time>2026-04-11T04:04:56.991Z</time></trkpt><trkpt lat="43.3257833" lon="11.509245"><ele>289.6666666666667</ele><time>2026-04-11T04:04:58.991Z</time></trkpt><trkpt lat="43.3258583" lon="11.509195"><ele>289.83333333333337</ele><time>2026-04-11T04:05:00.992Z</time></trkpt><trkpt lat="43.3259367" lon="11.5091583"><ele>290.0</ele><time>2026-04-11T04:05:02.991Z</time></trkpt><trkpt lat="43.3260217" lon="11.5091233"><ele>290.0</ele><time>2026-04-11T04:05:04.991Z</time></trkpt><trkpt lat="43.326105" lon="11.5090867"><ele>290.0</ele><time>2026-04-11T04:05:06.992Z</time></trkpt><trkpt lat="43.326185" lon="11.5090483"><ele>290.0</ele><time>2026-04-11T04:05:08.991Z</time></trkpt><trkpt lat="43.326275" lon="11.509015"><ele>290.0</ele><time>2026-04-11T04:05:10.991Z</time></trkpt><trkpt lat="43.3263667" lon="11.508975"><ele>290.0</ele><time>2026-04-11T04:05:12.991Z</time></trkpt><trkpt lat="43.326455" lon="11.50893"><ele>290.6</ele><time>2026-04-11T04:05:14.991Z</time></trkpt><trkpt lat="43.32654" lon="11.5088783"><ele>291.2</ele><time>2026-04-11T04:05:16.991Z</time></trkpt><trkpt lat="43.3266233" lon="11.5088333"><ele>291.8</ele><time>2026-04-11T04:05:18.991Z</time></trkpt><trkpt lat="43.3267133" lon="11.5087883"><ele>292.4</ele><time>2026-04-11T04:05:20.991Z</time></trkpt><trkpt lat="43.3268033" lon="11.5087433"><ele>293.0</ele><time>2026-04-11T04:05:22.991Z</time></trkpt><trkpt lat="43.3268967" lon="11.5087"><ele>293.4</ele><time>2026-04-11T04:05:24.991Z</time></trkpt><trkpt lat="43.3269833" lon="11.5086467"><ele>293.8</ele><time>2026-04-11T04:05:26.991Z</time></trkpt><trkpt lat="43.327075" lon="11.5085983"><ele>294.2</ele><time>2026-04-11T04:05:28.991Z</time></trkpt><trkpt lat="43.3271683" lon="11.5085417"><ele>294.6</ele><time>2026-04-11T04:05:30.991Z</time></trkpt><trkpt lat="43.3272617" lon="11.50849"><ele>295.0</ele><time>2026-04-11T04:05:32.991Z</time></trkpt><trkpt lat="43.3273483" lon="11.508425"><ele>295.66666666666663</ele><time>2026-04-11T04:05:34.992Z</time></trkpt><trkpt lat="43.32743" lon="11.508365"><ele>296.3333333333333</ele><time>2026-04-11T04:05:36.991Z</time></trkpt><trkpt lat="43.32751" lon="11.508305"><ele>297.0</ele><time>2026-04-11T04:05:38.991Z</time></trkpt><trkpt lat="43.3275917" lon="11.5082583"><ele>297.6666666666667</ele><time>2026-04-11T04:05:40.991Z</time></trkpt><trkpt lat="43.3276717" lon="11.5082033"><ele>298.33333333333337</ele><time>2026-04-11T04:05:42.991Z</time></trkpt><trkpt lat="43.3277467" lon="11.5081417"><ele>299.0</ele><time>2026-04-11T04:05:44.992Z</time></trkpt><trkpt lat="43.327825" lon="11.5080833"><ele>299.0</ele><time>2026-04-11T04:05:46.991Z</time></trkpt><trkpt lat="43.3279167" lon="11.5080333"><ele>299.0</ele><time>2026-04-11T04:05:48.991Z</time></trkpt><trkpt lat="43.3280067" lon="11.5079783"><ele>299.0</ele><time>2026-04-11T04:05:50.991Z</time></trkpt><trkpt lat="43.32809" lon="11.507915"><ele>299.0</ele><time>2026-04-11T04:05:52.991Z</time></trkpt><trkpt lat="43.328165" lon="11.5078517"><ele>299.0</ele><time>2026-04-11T04:05:54.992Z</time></trkpt><trkpt lat="43.3282417" lon="11.5077967"><ele>299.6666666666667</ele><time>2026-04-11T04:05:56.991Z</time></trkpt><trkpt lat="43.3283217" lon="11.5077533"><ele>300.33333333333337</ele><time>2026-04-11T04:05:58.991Z</time></trkpt><trkpt lat="43.3284033" lon="11.507705"><ele>301.0</ele><time>2026-04-11T04:06:00.991Z</time></trkpt><trkpt lat="43.3284817" lon="11.50765"><ele>301.6666666666667</ele><time>2026-04-11T04:06:02.992Z</time></trkpt><trkpt lat="43.3285583" lon="11.5075883"><ele>302.3333333333333</ele><time>2026-04-11T04:06:04.991Z</time></trkpt><trkpt lat="43.3286417" lon="11.50754"><ele>303.0</ele><time>2026-04-11T04:06:06.991Z</time></trkpt><trkpt lat="43.328715" lon="11.50748"><ele>303.0</ele><time>2026-04-11T04:06:08.991Z</time></trkpt><trkpt lat="43.3288017" lon="11.5074267"><ele>303.0</ele><time>2026-04-11T04:06:10.991Z</time></trkpt><trkpt lat="43.3288883" lon="11.5073733"><ele>303.0</ele><time>2026-04-11T04:06:12.991Z</time></trkpt><trkpt lat="43.32897" lon="11.5073283"><ele>303.0</ele><time>2026-04-11T04:06:14.991Z</time></trkpt><trkpt lat="43.3290433" lon="11.507285"><ele>303.0</ele><time>2026-04-11T04:06:16.991Z</time></trkpt><trkpt lat="43.3291283" lon="11.5072533"><ele>303.0</ele><time>2026-04-11T04:06:18.991Z</time></trkpt><trkpt lat="43.3292133" lon="11.5072233"><ele>303.8</ele><time>2026-04-11T04:06:20.991Z</time></trkpt><trkpt lat="43.329305" lon="11.5071883"><ele>304.6</ele><time>2026-04-11T04:06:22.991Z</time></trkpt><trkpt lat="43.3294067" lon="11.50716"><ele>305.4</ele><time>2026-04-11T04:06:24.991Z</time></trkpt><trkpt lat="43.3295067" lon="11.507145"><ele>306.2</ele><time>2026-04-11T04:06:26.991Z</time></trkpt><trkpt lat="43.3296117" lon="11.5071267"><ele>307.0</ele><time>2026-04-11T04:06:28.991Z</time></trkpt><trkpt lat="43.3297133" lon="11.5071067"><ele>307.0</ele><time>2026-04-11T04:06:30.991Z</time></trkpt><trkpt lat="43.329815" lon="11.5070883"><ele>307.0</ele><time>2026-04-11T04:06:32.991Z</time></trkpt><trkpt lat="43.3299183" lon="11.507075"><ele>307.0</ele><time>2026-04-11T04:06:34.991Z</time></trkpt><trkpt lat="43.3300183" lon="11.507055"><ele>307.0</ele><time>2026-04-11T04:06:36.992Z</time></trkpt><trkpt lat="43.3301183" lon="11.5070333"><ele>307.0</ele><time>2026-04-11T04:06:38.991Z</time></trkpt><trkpt lat="43.3302183" lon="11.50701"><ele>307.0</ele><time>2026-04-11T04:06:40.991Z</time></trkpt><trkpt lat="43.3303167" lon="11.507"><ele>307.0</ele><time>2026-04-11T04:06:42.991Z</time></trkpt><trkpt lat="43.3304167" lon="11.5069783"><ele>307.0</ele><time>2026-04-11T04:06:44.991Z</time></trkpt><trkpt lat="43.3305167" lon="11.5069583"><ele>307.0</ele><time>2026-04-11T04:06:46.991Z</time></trkpt><trkpt lat="43.3306233" lon="11.506945"><ele>307.0</ele><time>2026-04-11T04:06:48.991Z</time></trkpt><trkpt lat="43.330725" lon="11.506925"><ele>307.8</ele><time>2026-04-11T04:06:50.991Z</time></trkpt><trkpt lat="43.3308233" lon="11.50691"><ele>308.6</ele><time>2026-04-11T04:06:52.992Z</time></trkpt><trkpt lat="43.3309233" lon="11.5068917"><ele>309.40000000000003</ele><time>2026-04-11T04:06:54.991Z</time></trkpt><trkpt lat="43.3310183" lon="11.5068617"><ele>310.2</ele><time>2026-04-11T04:06:56.991Z</time></trkpt><trkpt lat="43.3311233" lon="11.5068267"><ele>311.0</ele><time>2026-04-11T04:06:58.991Z</time></trkpt><trkpt lat="43.33122" lon="11.5067983"><ele>311.0</ele><time>2026-04-11T04:07:00.991Z</time></trkpt><trkpt lat="43.33132" lon="11.506755"><ele>311.0</ele><time>2026-04-11T04:07:02.991Z</time></trkpt><trkpt lat="43.3314167" lon="11.5067067"><ele>311.0</ele><time>2026-04-11T04:07:04.991Z</time></trkpt><trkpt lat="43.3315067" lon="11.5066567"><ele>311.0</ele><time>2026-04-11T04:07:06.992Z</time></trkpt><trkpt lat="43.3316" lon="11.506605"><ele>311.0</ele><time>2026-04-11T04:07:08.991Z</time></trkpt><trkpt lat="43.3316917" lon="11.5065583"><ele>311.6</ele><time>2026-04-11T04:07:10.992Z</time></trkpt><trkpt lat="43.331785" lon="11.506505"><ele>312.20000000000005</ele><time>2026-04-11T04:07:12.991Z</time></trkpt><trkpt lat="43.3318733" lon="11.506445"><ele>312.79999999999995</ele><time>2026-04-11T04:07:14.991Z</time></trkpt><trkpt lat="43.331955" lon="11.5063767"><ele>313.4</ele><time>2026-04-11T04:07:16.991Z</time></trkpt><trkpt lat="43.3320367" lon="11.5063183"><ele>314.0</ele><time>2026-04-11T04:07:18.991Z</time></trkpt><trkpt lat="43.33212" lon="11.5062567"><ele>314.4</ele><time>2026-04-11T04:07:20.991Z</time></trkpt><trkpt lat="43.3322083" lon="11.5061967"><ele>314.79999999999995</ele><time>2026-04-11T04:07:22.991Z</time></trkpt><trkpt lat="43.3322867" lon="11.5061233"><ele>315.20000000000005</ele><time>2026-04-11T04:07:24.992Z</time></trkpt><trkpt lat="43.332385" lon="11.5060633"><ele>315.6</ele><time>2026-04-11T04:07:26.991Z</time></trkpt><trkpt lat="43.3324833" lon="11.50601"><ele>316.0</ele><time>2026-04-11T04:07:28.991Z</time></trkpt><trkpt lat="43.3325767" lon="11.505965"><ele>316.0</ele><time>2026-04-11T04:07:30.991Z</time></trkpt><trkpt lat="43.33268" lon="11.5059217"><ele>316.0</ele><time>2026-04-11T04:07:32.992Z</time></trkpt><trkpt lat="43.332795" lon="11.50589"><ele>316.0</ele><time>2026-04-11T04:07:34.991Z</time></trkpt><trkpt lat="43.3329083" lon="11.5058583"><ele>316.0</ele><time>2026-04-11T04:07:36.991Z</time></trkpt><trkpt lat="43.3330167" lon="11.505835"><ele>316.0</ele><time>2026-04-11T04:07:38.991Z</time></trkpt><trkpt lat="43.3331267" lon="11.505815"><ele>316.0</ele><time>2026-04-11T04:07:40.992Z</time></trkpt><trkpt lat="43.33324" lon="11.50579"><ele>316.0</ele><time>2026-04-11T04:07:42.991Z</time></trkpt><trkpt lat="43.3333433" lon="11.5057617"><ele>316.0</ele><time>2026-04-11T04:07:44.991Z</time></trkpt><trkpt lat="43.3334517" lon="11.5057367"><ele>316.0</ele><time>2026-04-11T04:07:46.991Z</time></trkpt><trkpt lat="43.333555" lon="11.50573"><ele>316.0</ele><time>2026-04-11T04:07:48.991Z</time></trkpt><trkpt lat="43.33366" lon="11.5057033"><ele>316.0</ele><time>2026-04-11T04:07:50.991Z</time></trkpt><trkpt lat="43.3337633" lon="11.5056733"><ele>316.0</ele><time>2026-04-11T04:07:52.991Z</time></trkpt><trkpt lat="43.3338633" lon="11.5056467"><ele>316.0</ele><time>2026-04-11T04:07:54.991Z</time></trkpt><trkpt lat="43.3339633" lon="11.5056283"><ele>316.0</ele><time>2026-04-11T04:07:56.991Z</time></trkpt><trkpt lat="43.3340667" lon="11.50561"><ele>315.8</ele><time>2026-04-11T04:07:58.991Z</time></trkpt><trkpt lat="43.3341617" lon="11.50558"><ele>315.6</ele><time>2026-04-11T04:08:00.991Z</time></trkpt><trkpt lat="43.3342733" lon="11.50555"><ele>315.4</ele><time>2026-04-11T04:08:02.991Z</time></trkpt><trkpt lat="43.33438" lon="11.5055267"><ele>315.2</ele><time>2026-04-11T04:08:04.991Z</time></trkpt><trkpt lat="43.3345017" lon="11.505515"><ele>315.0</ele><time>2026-04-11T04:08:06.991Z</time></trkpt><trkpt lat="43.3346083" lon="11.5054933"><ele>315.0</ele><time>2026-04-11T04:08:08.991Z</time></trkpt><trkpt lat="43.3347133" lon="11.5054683"><ele>315.0</ele><time>2026-04-11T04:08:10.991Z</time></trkpt><trkpt lat="43.334815" lon="11.5054367"><ele>315.0</ele><time>2026-04-11T04:08:12.991Z</time></trkpt><trkpt lat="43.3349233" lon="11.5054183"><ele>315.0</ele><time>2026-04-11T04:08:14.991Z</time></trkpt><trkpt lat="43.3350283" lon="11.5053917"><ele>315.0</ele><time>2026-04-11T04:08:16.991Z</time></trkpt><trkpt lat="43.3351317" lon="11.5053667"><ele>315.6</ele><time>2026-04-11T04:08:18.991Z</time></trkpt><trkpt lat="43.3352317" lon="11.505335"><ele>316.2</ele><time>2026-04-11T04:08:20.991Z</time></trkpt><trkpt lat="43.3353417" lon="11.5053183"><ele>316.8</ele><time>2026-04-11T04:08:22.992Z</time></trkpt><trkpt lat="43.33545" lon="11.5053017"><ele>317.4</ele><time>2026-04-11T04:08:24.991Z</time></trkpt><trkpt lat="43.33556" lon="11.505275"><ele>318.0</ele><time>2026-04-11T04:08:26.991Z</time></trkpt><trkpt lat="43.3356567" lon="11.505255"><ele>318.0</ele><time>2026-04-11T04:08:28.991Z</time></trkpt><trkpt lat="43.3357633" lon="11.50523"><ele>318.0</ele><time>2026-04-11T04:08:30.991Z</time></trkpt><trkpt lat="43.3358617" lon="11.5052117"><ele>318.0</ele><time>2026-04-11T04:08:32.991Z</time></trkpt><trkpt lat="43.3359683" lon="11.5051917"><ele>318.0</ele><time>2026-04-11T04:08:34.991Z</time></trkpt><trkpt lat="43.3360633" lon="11.5051717"><ele>318.0</ele><time>2026-04-11T04:08:36.991Z</time></trkpt><trkpt lat="43.3361667" lon="11.5051583"><ele>318.0</ele><time>2026-04-11T04:08:38.991Z</time></trkpt><trkpt lat="43.33627" lon="11.5051417"><ele>318.0</ele><time>2026-04-11T04:08:40.991Z</time></trkpt><trkpt lat="43.33637" lon="11.5051233"><ele>318.0</ele><time>2026-04-11T04:08:42.992Z</time></trkpt><trkpt lat="43.33647" lon="11.5051017"><ele>318.0</ele><time>2026-04-11T04:08:44.991Z</time></trkpt><trkpt lat="43.3365667" lon="11.50509"><ele>318.0</ele><time>2026-04-11T04:08:46.991Z</time></trkpt><trkpt lat="43.3366583" lon="11.50508"><ele>319.2</ele><time>2026-04-11T04:08:48.991Z</time></trkpt><trkpt lat="43.3367517" lon="11.50508"><ele>320.4</ele><time>2026-04-11T04:08:50.991Z</time></trkpt><trkpt lat="43.3368433" lon="11.50508"><ele>321.59999999999997</ele><time>2026-04-11T04:08:52.991Z</time></trkpt><trkpt lat="43.336935" lon="11.5050733"><ele>322.8</ele><time>2026-04-11T04:08:54.991Z</time></trkpt><trkpt lat="43.3370317" lon="11.505095"><ele>324.0</ele><time>2026-04-11T04:08:56.991Z</time></trkpt><trkpt lat="43.3371217" lon="11.5051267"><ele>324.0</ele><time>2026-04-11T04:08:58.991Z</time></trkpt><trkpt lat="43.337215" lon="11.5051567"><ele>324.0</ele><time>2026-04-11T04:09:00.992Z</time></trkpt><trkpt lat="43.3373" lon="11.50519"><ele>324.0</ele><time>2026-04-11T04:09:02.991Z</time></trkpt><trkpt lat="43.33738" lon="11.5052367"><ele>324.0</ele><time>2026-04-11T04:09:04.992Z</time></trkpt><trkpt lat="43.3374783" lon="11.5052833"><ele>324.0</ele><time>2026-04-11T04:09:06.992Z</time></trkpt><trkpt lat="43.3375667" lon="11.5053317"><ele>324.1666666666667</ele><time>2026-04-11T04:09:08.991Z</time></trkpt><trkpt lat="43.3376483" lon="11.5053833"><ele>324.3333333333333</ele><time>2026-04-11T04:09:10.992Z</time></trkpt><trkpt lat="43.337725" lon="11.5054383"><ele>324.5</ele><time>2026-04-11T04:09:12.991Z</time></trkpt><trkpt lat="43.3378" lon="11.5054867"><ele>324.66666666666663</ele><time>2026-04-11T04:09:14.991Z</time></trkpt><trkpt lat="43.33788" lon="11.5055417"><ele>324.8333333333333</ele><time>2026-04-11T04:09:16.991Z</time></trkpt><trkpt lat="43.3379617" lon="11.5056"><ele>325.0</ele><time>2026-04-11T04:09:18.991Z</time></trkpt><trkpt lat="43.3380417" lon="11.5056467"><ele>326.16666666666663</ele><time>2026-04-11T04:09:20.992Z</time></trkpt><trkpt lat="43.3381167" lon="11.5056967"><ele>327.3333333333333</ele><time>2026-04-11T04:09:22.991Z</time></trkpt><trkpt lat="43.338195" lon="11.5057517"><ele>328.5</ele><time>2026-04-11T04:09:24.991Z</time></trkpt><trkpt lat="43.3382733" lon="11.50581"><ele>329.6666666666667</ele><time>2026-04-11T04:09:26.992Z</time></trkpt><trkpt lat="43.3383433" lon="11.5058467"><ele>330.83333333333337</ele><time>2026-04-11T04:09:28.991Z</time></trkpt><trkpt lat="43.33842" lon="11.5058633"><ele>332.0</ele><time>2026-04-11T04:09:30.992Z</time></trkpt><trkpt lat="43.3385017" lon="11.505885"><ele>332.0</ele><time>2026-04-11T04:09:32.992Z</time></trkpt><trkpt lat="43.3385783" lon="11.5059017"><ele>332.0</ele><time>2026-04-11T04:09:34.991Z</time></trkpt><trkpt lat="43.3386583" lon="11.50591"><ele>332.0</ele><time>2026-04-11T04:09:36.991Z</time></trkpt><trkpt lat="43.3387333" lon="11.5059117"><ele>332.0</ele><time>2026-04-11T04:09:38.992Z</time></trkpt><trkpt lat="43.33881" lon="11.5059"><ele>332.0</ele><time>2026-04-11T04:09:40.993Z</time></trkpt><trkpt lat="43.3388817" lon="11.5058917"><ele>332.0</ele><time>2026-04-11T04:09:42.992Z</time></trkpt><trkpt lat="43.338955" lon="11.5058817"><ele>332.83333333333337</ele><time>2026-04-11T04:09:44.993Z</time></trkpt><trkpt lat="43.3390317" lon="11.50587"><ele>333.6666666666667</ele><time>2026-04-11T04:09:46.992Z</time></trkpt><trkpt lat="43.3391" lon="11.50585"><ele>334.5</ele><time>2026-04-11T04:09:48.992Z</time></trkpt><trkpt lat="43.339175" lon="11.5058317"><ele>335.3333333333333</ele><time>2026-04-11T04:09:50.992Z</time></trkpt><trkpt lat="43.33925" lon="11.5058017"><ele>336.16666666666663</ele><time>2026-04-11T04:09:52.992Z</time></trkpt><trkpt lat="43.33933" lon="11.505765"><ele>337.0</ele><time>2026-04-11T04:09:54.992Z</time></trkpt><trkpt lat="43.33941" lon="11.5057317"><ele>337.0</ele><time>2026-04-11T04:09:56.992Z</time></trkpt><trkpt lat="43.3394867" lon="11.5057017"><ele>337.0</ele><time>2026-04-11T04:09:58.993Z</time></trkpt><trkpt lat="43.3395683" lon="11.50567"><ele>337.0</ele><time>2026-04-11T04:10:00.992Z</time></trkpt><trkpt lat="43.339655" lon="11.5056433"><ele>337.0</ele><time>2026-04-11T04:10:02.992Z</time></trkpt><trkpt lat="43.3397467" lon="11.5056083"><ele>337.0</ele><time>2026-04-11T04:10:04.992Z</time></trkpt><trkpt lat="43.3398383" lon="11.5055817"><ele>337.0</ele><time>2026-04-11T04:10:06.993Z</time></trkpt><trkpt lat="43.3399283" lon="11.50556"><ele>336.75</ele><time>2026-04-11T04:10:08.992Z</time></trkpt><trkpt lat="43.3400367" lon="11.5055217"><ele>336.5</ele><time>2026-04-11T04:10:10.992Z</time></trkpt><trkpt lat="43.3401483" lon="11.5054867"><ele>336.25</ele><time>2026-04-11T04:10:12.992Z</time></trkpt><trkpt lat="43.3402617" lon="11.50545"><ele>336.0</ele><time>2026-04-11T04:10:14.992Z</time></trkpt><trkpt lat="43.34037" lon="11.5054067"><ele>335.8</ele><time>2026-04-11T04:10:16.992Z</time></trkpt><trkpt lat="43.340485" lon="11.5053683"><ele>335.6</ele><time>2026-04-11T04:10:18.992Z</time></trkpt><trkpt lat="43.3405967" lon="11.5053567"><ele>335.4</ele><time>2026-04-11T04:10:20.992Z</time></trkpt><trkpt lat="43.34072" lon="11.505375"><ele>335.2</ele><time>2026-04-11T04:10:22.992Z</time></trkpt><trkpt lat="43.3407833" lon="11.5053667"><ele>335.0</ele><time>2026-04-11T04:10:23.992Z</time></trkpt><trkpt lat="43.3408517" lon="11.5053483"><ele>335.0</ele><time>2026-04-11T04:10:24.992Z</time></trkpt><trkpt lat="43.3409083" lon="11.5053067"><ele>335.0</ele><time>2026-04-11T04:10:25.992Z</time></trkpt><trkpt lat="43.3409633" lon="11.5052633"><ele>335.0</ele><time>2026-04-11T04:10:26.993Z</time></trkpt><trkpt lat="43.3410767" lon="11.5051867"><ele>335.0</ele><time>2026-04-11T04:10:28.992Z</time></trkpt><trkpt lat="43.3411367" lon="11.5051567"><ele>335.0</ele><time>2026-04-11T04:10:29.992Z</time></trkpt><trkpt lat="43.3412583" lon="11.505105"><ele>335.0</ele><time>2026-04-11T04:10:31.992Z</time></trkpt><trkpt lat="43.3413767" lon="11.5050717"><ele>335.0</ele><time>2026-04-11T04:10:33.991Z</time></trkpt><trkpt lat="43.3414883" lon="11.50505"><ele>335.0</ele><time>2026-04-11T04:10:35.992Z</time></trkpt><trkpt lat="43.3416067" lon="11.5050217"><ele>335.0</ele><time>2026-04-11T04:10:37.992Z</time></trkpt><trkpt lat="43.34171" lon="11.5050133"><ele>335.0</ele><time>2026-04-11T04:10:39.992Z</time></trkpt><trkpt lat="43.34181" lon="11.5049917"><ele>335.0</ele><time>2026-04-11T04:10:41.992Z</time></trkpt><trkpt lat="43.3419183" lon="11.504975"><ele>335.0</ele><time>2026-04-11T04:10:43.993Z</time></trkpt><trkpt lat="43.3420283" lon="11.504945"><ele>335.0</ele><time>2026-04-11T04:10:45.992Z</time></trkpt><trkpt lat="43.3421317" lon="11.5049117"><ele>335.0</ele><time>2026-04-11T04:10:47.992Z</time></trkpt><trkpt lat="43.34224" lon="11.5048967"><ele>335.0</ele><time>2026-04-11T04:10:49.992Z</time></trkpt><trkpt lat="43.3423617" lon="11.5048717"><ele>335.75</ele><time>2026-04-11T04:10:51.992Z</time></trkpt><trkpt lat="43.34248" lon="11.50484"><ele>336.5</ele><time>2026-04-11T04:10:53.992Z</time></trkpt><trkpt lat="43.342595" lon="11.5048167"><ele>337.25</ele><time>2026-04-11T04:10:55.992Z</time></trkpt><trkpt lat="43.3427133" lon="11.504795"><ele>338.0</ele><time>2026-04-11T04:10:57.993Z</time></trkpt><trkpt lat="43.34283" lon="11.50477"><ele>338.0</ele><time>2026-04-11T04:10:59.993Z</time></trkpt><trkpt lat="43.342945" lon="11.5047417"><ele>338.0</ele><time>2026-04-11T04:11:01.992Z</time></trkpt><trkpt lat="43.3430617" lon="11.504715"><ele>338.0</ele><time>2026-04-11T04:11:03.992Z</time></trkpt><trkpt lat="43.34318" lon="11.5046983"><ele>338.0</ele><time>2026-04-11T04:11:05.992Z</time></trkpt><trkpt lat="43.3432967" lon="11.504685"><ele>338.0</ele><time>2026-04-11T04:11:07.992Z</time></trkpt><trkpt lat="43.3434133" lon="11.5046667"><ele>338.0</ele><time>2026-04-11T04:11:09.992Z</time></trkpt><trkpt lat="43.3435317" lon="11.50465"><ele>338.0</ele><time>2026-04-11T04:11:11.992Z</time></trkpt><trkpt lat="43.3435967" lon="11.5046417"><ele>338.0</ele><time>2026-04-11T04:11:12.992Z</time></trkpt><trkpt lat="43.3436633" lon="11.50464"><ele>338.0</ele><time>2026-04-11T04:11:13.992Z</time></trkpt><trkpt lat="43.3437867" lon="11.5046117"><ele>337.59999999999997</ele><time>2026-04-11T04:11:15.992Z</time></trkpt><trkpt lat="43.3439083" lon="11.5045783"><ele>337.2</ele><time>2026-04-11T04:11:17.991Z</time></trkpt><trkpt lat="43.3440283" lon="11.5045617"><ele>336.8</ele><time>2026-04-11T04:11:19.993Z</time></trkpt><trkpt lat="43.3441483" lon="11.5045333"><ele>336.4</ele><time>2026-04-11T04:11:21.992Z</time></trkpt><trkpt lat="43.3442117" lon="11.5045183"><ele>336.0</ele><time>2026-04-11T04:11:22.992Z</time></trkpt><trkpt lat="43.3442783" lon="11.504505"><ele>336.0</ele><time>2026-04-11T04:11:23.993Z</time></trkpt><trkpt lat="43.344345" lon="11.5044933"><ele>336.0</ele><time>2026-04-11T04:11:24.992Z</time></trkpt><trkpt lat="43.3444083" lon="11.50448"><ele>336.0</ele><time>2026-04-11T04:11:25.992Z</time></trkpt><trkpt lat="43.344475" lon="11.504465"><ele>336.0</ele><time>2026-04-11T04:11:26.992Z</time></trkpt><trkpt lat="43.344545" lon="11.5044633"><ele>336.0</ele><time>2026-04-11T04:11:27.992Z</time></trkpt><trkpt lat="43.3446083" lon="11.5044467"><ele>336.0</ele><time>2026-04-11T04:11:28.992Z</time></trkpt><trkpt lat="43.3447" lon="11.50438"><ele>336.0</ele><time>2026-04-11T04:11:30.992Z</time></trkpt><trkpt lat="43.344755" lon="11.5042833"><ele>337.1666666666667</ele><time>2026-04-11T04:11:32.992Z</time></trkpt><trkpt lat="43.3448167" lon="11.5041617"><ele>338.3333333333333</ele><time>2026-04-11T04:11:34.992Z</time></trkpt><trkpt lat="43.3448767" lon="11.5040317"><ele>339.5</ele><time>2026-04-11T04:11:36.992Z</time></trkpt><trkpt lat="43.3449033" lon="11.5039367"><ele>340.66666666666663</ele><time>2026-04-11T04:11:37.992Z</time></trkpt><trkpt lat="43.3449383" lon="11.5038417"><ele>341.8333333333333</ele><time>2026-04-11T04:11:38.992Z</time></trkpt><trkpt lat="43.3449517" lon="11.5037533"><ele>343.0</ele><time>2026-04-11T04:11:39.992Z</time></trkpt><trkpt lat="43.344995" lon="11.50363"><ele>343.0</ele><time>2026-04-11T04:11:41.992Z</time></trkpt><trkpt lat="43.3449883" lon="11.5035"><ele>343.0</ele><time>2026-04-11T04:11:43.992Z</time></trkpt><trkpt lat="43.3449617" lon="11.5033567"><ele>343.0</ele><time>2026-04-11T04:11:45.992Z</time></trkpt><trkpt lat="43.3449267" lon="11.5032167"><ele>343.0</ele><time>2026-04-11T04:11:47.992Z</time></trkpt><trkpt lat="43.3449" lon="11.5030683"><ele>343.0</ele><time>2026-04-11T04:11:49.992Z</time></trkpt><trkpt lat="43.3449017" lon="11.5029217"><ele>343.2</ele><time>2026-04-11T04:11:51.993Z</time></trkpt><trkpt lat="43.3449283" lon="11.502765"><ele>343.4</ele><time>2026-04-11T04:11:53.992Z</time></trkpt><trkpt lat="43.3449567" lon="11.5026"><ele>343.59999999999997</ele><time>2026-04-11T04:11:55.992Z</time></trkpt><trkpt lat="43.34498" lon="11.50251"><ele>343.79999999999995</ele><time>2026-04-11T04:11:56.992Z</time></trkpt><trkpt lat="43.3450067" lon="11.5024167"><ele>344.0</ele><time>2026-04-11T04:11:57.992Z</time></trkpt><trkpt lat="43.3450317" lon="11.50232"><ele>344.0</ele><time>2026-04-11T04:11:58.992Z</time></trkpt><trkpt lat="43.3450717" lon="11.5022133"><ele>344.0</ele><time>2026-04-11T04:11:59.992Z</time></trkpt><trkpt lat="43.3451067" lon="11.502105"><ele>344.0</ele><time>2026-04-11T04:12:00.993Z</time></trkpt><trkpt lat="43.3451367" lon="11.5019983"><ele>344.0</ele><time>2026-04-11T04:12:01.993Z</time></trkpt><trkpt lat="43.34516" lon="11.5018867"><ele>344.0</ele><time>2026-04-11T04:12:02.992Z</time></trkpt><trkpt lat="43.34518" lon="11.5017717"><ele>344.0</ele><time>2026-04-11T04:12:03.992Z</time></trkpt><trkpt lat="43.3451883" lon="11.5016583"><ele>342.6666666666667</ele><time>2026-04-11T04:12:04.992Z</time></trkpt><trkpt lat="43.34518" lon="11.501545"><ele>341.33333333333337</ele><time>2026-04-11T04:12:05.992Z</time></trkpt><trkpt lat="43.34517" lon="11.5014433"><ele>340.0</ele><time>2026-04-11T04:12:06.992Z</time></trkpt><trkpt lat="43.345175" lon="11.5013317"><ele>338.6666666666667</ele><time>2026-04-11T04:12:08.992Z</time></trkpt><trkpt lat="43.3451183" lon="11.5012783"><ele>337.3333333333333</ele><time>2026-04-11T04:12:10.992Z</time></trkpt><trkpt lat="43.3450467" lon="11.5011833"><ele>336.0</ele><time>2026-04-11T04:12:12.992Z</time></trkpt><trkpt lat="43.3449883" lon="11.5011367"><ele>335.85714285714283</ele><time>2026-04-11T04:12:15.993Z</time></trkpt><trkpt lat="43.3450267" lon="11.5012183"><ele>335.7142857142857</ele><time>2026-04-11T04:12:25.992Z</time></trkpt><trkpt lat="43.3450917" lon="11.5012183"><ele>335.57142857142856</ele><time>2026-04-11T04:12:29.992Z</time></trkpt><trkpt lat="43.3450383" lon="11.5011183"><ele>335.42857142857144</ele><time>2026-04-11T04:12:34.992Z</time></trkpt><trkpt lat="43.3449883" lon="11.5010533"><ele>335.2857142857143</ele><time>2026-04-11T04:12:36.993Z</time></trkpt><trkpt lat="43.3449567" lon="11.5009767"><ele>335.1428571428571</ele><time>2026-04-11T04:12:38.992Z</time></trkpt><trkpt lat="43.344945" lon="11.500885"><ele>335.0</ele><time>2026-04-11T04:12:40.992Z</time></trkpt><trkpt lat="43.3449533" lon="11.5007967"><ele>335.0</ele><time>2026-04-11T04:12:42.992Z</time></trkpt><trkpt lat="43.34499" lon="11.500705"><ele>335.0</ele><time>2026-04-11T04:12:45.993Z</time></trkpt><trkpt lat="43.3450067" lon="11.5006"><ele>335.0</ele><time>2026-04-11T04:12:49.992Z</time></trkpt><trkpt lat="43.3449667" lon="11.5004833"><ele>335.0</ele><time>2026-04-11T04:12:52.992Z</time></trkpt><trkpt lat="43.34493" lon="11.5003767"><ele>335.0</ele><time>2026-04-11T04:12:54.992Z</time></trkpt><trkpt lat="43.3448967" lon="11.5002683"><ele>335.0</ele><time>2026-04-11T04:12:56.993Z</time></trkpt><trkpt lat="43.3448517" lon="11.500125"><ele>334.99999999999994</ele><time>2026-04-11T04:12:58.992Z</time></trkpt><trkpt lat="43.34482" lon="11.5000383"><ele>335.0</ele><time>2026-04-11T04:12:59.992Z</time></trkpt><trkpt lat="43.34479" lon="11.4999533"><ele>335.0</ele><time>2026-04-11T04:13:00.992Z</time></trkpt><trkpt lat="43.34476" lon="11.499865"><ele>335.0</ele><time>2026-04-11T04:13:01.993Z</time></trkpt><trkpt lat="43.3447283" lon="11.499775"><ele>335.0</ele><time>2026-04-11T04:13:02.992Z</time></trkpt><trkpt lat="43.3446983" lon="11.4996817"><ele>334.99999999999994</ele><time>2026-04-11T04:13:03.992Z</time></trkpt><trkpt lat="43.34467" lon="11.4995883"><ele>335.0</ele><time>2026-04-11T04:13:04.992Z</time></trkpt><trkpt lat="43.344635" lon="11.4995"><ele>335.1428571428571</ele><time>2026-04-11T04:13:05.992Z</time></trkpt><trkpt lat="43.3446033" lon="11.4994133"><ele>335.2857142857143</ele><time>2026-04-11T04:13:06.992Z</time></trkpt><trkpt lat="43.3445633" lon="11.499335"><ele>335.42857142857144</ele><time>2026-04-11T04:13:07.992Z</time></trkpt><trkpt lat="43.34453" lon="11.4992567"><ele>335.57142857142856</ele><time>2026-04-11T04:13:08.992Z</time></trkpt><trkpt lat="43.344495" lon="11.4991817"><ele>335.7142857142857</ele><time>2026-04-11T04:13:09.992Z</time></trkpt><trkpt lat="43.34446" lon="11.4991033"><ele>335.85714285714283</ele><time>2026-04-11T04:13:10.992Z</time></trkpt><trkpt lat="43.3444283" lon="11.4990183"><ele>336.0</ele><time>2026-04-11T04:13:11.992Z</time></trkpt><trkpt lat="43.3443967" lon="11.4989333"><ele>336.0</ele><time>2026-04-11T04:13:12.992Z</time></trkpt><trkpt lat="43.3443717" lon="11.4988433"><ele>336.0</ele><time>2026-04-11T04:13:13.992Z</time></trkpt><trkpt lat="43.3443517" lon="11.4987567"><ele>336.0</ele><time>2026-04-11T04:13:14.992Z</time></trkpt><trkpt lat="43.3443317" lon="11.498665"><ele>336.0</ele><time>2026-04-11T04:13:15.993Z</time></trkpt><trkpt lat="43.3443133" lon="11.4985783"><ele>336.0</ele><time>2026-04-11T04:13:16.992Z</time></trkpt><trkpt lat="43.3442867" lon="11.4984917"><ele>336.0</ele><time>2026-04-11T04:13:17.992Z</time></trkpt><trkpt lat="43.34426" lon="11.4984033"><ele>336.0</ele><time>2026-04-11T04:13:18.993Z</time></trkpt><trkpt lat="43.3442283" lon="11.4983117"><ele>336.14285714285717</ele><time>2026-04-11T04:13:19.993Z</time></trkpt><trkpt lat="43.3442017" lon="11.498225"><ele>336.2857142857143</ele><time>2026-04-11T04:13:20.992Z</time></trkpt><trkpt lat="43.3441717" lon="11.4981417"><ele>336.42857142857144</ele><time>2026-04-11T04:13:21.993Z</time></trkpt><trkpt lat="43.34414" lon="11.4980633"><ele>336.57142857142856</ele><time>2026-04-11T04:13:22.992Z</time></trkpt><trkpt lat="43.34411" lon="11.497985"><ele>336.7142857142857</ele><time>2026-04-11T04:13:23.992Z</time></trkpt><trkpt lat="43.3440783" lon="11.497905"><ele>336.8571428571429</ele><time>2026-04-11T04:13:24.992Z</time></trkpt><trkpt lat="43.34405" lon="11.4978117"><ele>337.0</ele><time>2026-04-11T04:13:25.992Z</time></trkpt><trkpt lat="43.3440183" lon="11.4977117"><ele>337.0</ele><time>2026-04-11T04:13:26.992Z</time></trkpt><trkpt lat="43.343985" lon="11.497625"><ele>337.0</ele><time>2026-04-11T04:13:27.993Z</time></trkpt><trkpt lat="43.3439517" lon="11.497545"><ele>337.0</ele><time>2026-04-11T04:13:28.992Z</time></trkpt><trkpt lat="43.34392" lon="11.49747"><ele>337.0</ele><time>2026-04-11T04:13:29.992Z</time></trkpt><trkpt lat="43.34389" lon="11.4973933"><ele>337.0</ele><time>2026-04-11T04:13:30.992Z</time></trkpt><trkpt lat="43.34384" lon="11.4972367"><ele>337.0</ele><time>2026-04-11T04:13:32.992Z</time></trkpt><trkpt lat="43.3437783" lon="11.497105"><ele>336.40000000000003</ele><time>2026-04-11T04:13:34.992Z</time></trkpt><trkpt lat="43.3437017" lon="11.496985"><ele>335.8</ele><time>2026-04-11T04:13:36.992Z</time></trkpt><trkpt lat="43.343625" lon="11.496885"><ele>335.2</ele><time>2026-04-11T04:13:38.993Z</time></trkpt><trkpt lat="43.3435483" lon="11.4968017"><ele>334.6</ele><time>2026-04-11T04:13:40.992Z</time></trkpt><trkpt lat="43.3434567" lon="11.4967183"><ele>334.0</ele><time>2026-04-11T04:13:42.993Z</time></trkpt><trkpt lat="43.3433867" lon="11.4965883"><ele>334.0</ele><time>2026-04-11T04:13:44.993Z</time></trkpt><trkpt lat="43.3433483" lon="11.4965167"><ele>334.0</ele><time>2026-04-11T04:13:45.992Z</time></trkpt><trkpt lat="43.343305" lon="11.4964533"><ele>334.0</ele><time>2026-04-11T04:13:46.992Z</time></trkpt><trkpt lat="43.3432517" lon="11.4963967"><ele>334.0</ele><time>2026-04-11T04:13:47.992Z</time></trkpt><trkpt lat="43.3431967" lon="11.496335"><ele>334.0</ele><time>2026-04-11T04:13:48.993Z</time></trkpt><trkpt lat="43.34314" lon="11.49627"><ele>334.0</ele><time>2026-04-11T04:13:49.992Z</time></trkpt><trkpt lat="43.343085" lon="11.4962033"><ele>334.0</ele><time>2026-04-11T04:13:50.992Z</time></trkpt><trkpt lat="43.343025" lon="11.4961367"><ele>333.5</ele><time>2026-04-11T04:13:51.992Z</time></trkpt><trkpt lat="43.342965" lon="11.49607"><ele>333.0</ele><time>2026-04-11T04:13:52.992Z</time></trkpt><trkpt lat="43.3429067" lon="11.496"><ele>332.5</ele><time>2026-04-11T04:13:53.992Z</time></trkpt><trkpt lat="43.342845" lon="11.4959267"><ele>332.0</ele><time>2026-04-11T04:13:54.992Z</time></trkpt><trkpt lat="43.3427817" lon="11.4958567"><ele>331.5</ele><time>2026-04-11T04:13:55.992Z</time></trkpt><trkpt lat="43.3427167" lon="11.49578"><ele>331.0</ele><time>2026-04-11T04:13:56.992Z</time></trkpt><trkpt lat="43.3426517" lon="11.4956933"><ele>331.0</ele><time>2026-04-11T04:13:57.992Z</time></trkpt><trkpt lat="43.3425867" lon="11.4956"><ele>331.0</ele><time>2026-04-11T04:13:58.992Z</time></trkpt><trkpt lat="43.3425167" lon="11.4955083"><ele>331.0</ele><time>2026-04-11T04:13:59.992Z</time></trkpt><trkpt lat="43.3424433" lon="11.495425"><ele>331.0</ele><time>2026-04-11T04:14:00.992Z</time></trkpt><trkpt lat="43.3423667" lon="11.4953283"><ele>331.0</ele><time>2026-04-11T04:14:01.992Z</time></trkpt><trkpt lat="43.3422867" lon="11.4952367"><ele>328.0</ele><time>2026-04-11T04:14:02.992Z</time></trkpt><trkpt lat="43.3422017" lon="11.4951383"><ele>325.0</ele><time>2026-04-11T04:14:03.992Z</time></trkpt><trkpt lat="43.3421167" lon="11.4950383"><ele>322.0</ele><time>2026-04-11T04:14:04.992Z</time></trkpt><trkpt lat="43.3420333" lon="11.494935"><ele>319.0</ele><time>2026-04-11T04:14:05.992Z</time></trkpt><trkpt lat="43.34195" lon="11.4948283"><ele>316.0</ele><time>2026-04-11T04:14:06.992Z</time></trkpt><trkpt lat="43.3418667" lon="11.4947283"><ele>316.0</ele><time>2026-04-11T04:14:07.992Z</time></trkpt><trkpt lat="43.3417833" lon="11.4946283"><ele>316.0</ele><time>2026-04-11T04:14:08.992Z</time></trkpt><trkpt lat="43.3416967" lon="11.4945217"><ele>316.0</ele><time>2026-04-11T04:14:09.992Z</time></trkpt><trkpt lat="43.3416133" lon="11.4944183"><ele>316.0</ele><time>2026-04-11T04:14:10.992Z</time></trkpt><trkpt lat="43.341525" lon="11.4943133"><ele>315.40000000000003</ele><time>2026-04-11T04:14:11.992Z</time></trkpt><trkpt lat="43.3414367" lon="11.49421"><ele>314.8</ele><time>2026-04-11T04:14:12.992Z</time></trkpt><trkpt lat="43.3413533" lon="11.4941117"><ele>314.20000000000005</ele><time>2026-04-11T04:14:13.993Z</time></trkpt><trkpt lat="43.3412717" lon="11.4940167"><ele>313.6</ele><time>2026-04-11T04:14:14.992Z</time></trkpt><trkpt lat="43.3411933" lon="11.493915"><ele>313.0</ele><time>2026-04-11T04:14:15.992Z</time></trkpt><trkpt lat="43.3411133" lon="11.4938217"><ele>312.4</ele><time>2026-04-11T04:14:16.992Z</time></trkpt><trkpt lat="43.3410317" lon="11.4937267"><ele>311.8</ele><time>2026-04-11T04:14:17.992Z</time></trkpt><trkpt lat="43.340955" lon="11.49363"><ele>311.2</ele><time>2026-04-11T04:14:18.992Z</time></trkpt><trkpt lat="43.3408767" lon="11.4935417"><ele>310.6</ele><time>2026-04-11T04:14:19.993Z</time></trkpt><trkpt lat="43.3408017" lon="11.4934583"><ele>310.0</ele><time>2026-04-11T04:14:20.992Z</time></trkpt><trkpt lat="43.3407283" lon="11.4933833"><ele>310.0</ele><time>2026-04-11T04:14:21.992Z</time></trkpt><trkpt lat="43.3406583" lon="11.4932983"><ele>310.0</ele><time>2026-04-11T04:14:22.992Z</time></trkpt><trkpt lat="43.3405917" lon="11.493215"><ele>310.0</ele><time>2026-04-11T04:14:23.992Z</time></trkpt><trkpt lat="43.340525" lon="11.4931283"><ele>310.0</ele><time>2026-04-11T04:14:24.992Z</time></trkpt><trkpt lat="43.34046" lon="11.49304"><ele>310.0</ele><time>2026-04-11T04:14:25.993Z</time></trkpt><trkpt lat="43.3403917" lon="11.4929483"><ele>310.2</ele><time>2026-04-11T04:14:26.992Z</time></trkpt><trkpt lat="43.3403217" lon="11.4928583"><ele>310.4</ele><time>2026-04-11T04:14:27.992Z</time></trkpt><trkpt lat="43.340255" lon="11.4927617"><ele>310.6</ele><time>2026-04-11T04:14:28.992Z</time></trkpt><trkpt lat="43.3401783" lon="11.4926717"><ele>310.8</ele><time>2026-04-11T04:14:29.992Z</time></trkpt><trkpt lat="43.3401017" lon="11.4925783"><ele>311.0</ele><time>2026-04-11T04:14:30.992Z</time></trkpt><trkpt lat="43.3400333" lon="11.4924867"><ele>311.0</ele><time>2026-04-11T04:14:31.992Z</time></trkpt><trkpt lat="43.33996" lon="11.4923883"><ele>311.0</ele><time>2026-04-11T04:14:32.992Z</time></trkpt><trkpt lat="43.3398967" lon="11.4922867"><ele>311.0</ele><time>2026-04-11T04:14:33.992Z</time></trkpt><trkpt lat="43.33983" lon="11.4921683"><ele>311.0</ele><time>2026-04-11T04:14:34.992Z</time></trkpt><trkpt lat="43.3397583" lon="11.4920483"><ele>311.0</ele><time>2026-04-11T04:14:35.993Z</time></trkpt><trkpt lat="43.3396883" lon="11.491935"><ele>310.2</ele><time>2026-04-11T04:14:36.992Z</time></trkpt><trkpt lat="43.3396133" lon="11.4918283"><ele>309.40000000000003</ele><time>2026-04-11T04:14:37.992Z</time></trkpt><trkpt lat="43.3395317" lon="11.491725"><ele>308.6</ele><time>2026-04-11T04:14:38.992Z</time></trkpt><trkpt lat="43.3394517" lon="11.4916067"><ele>307.8</ele><time>2026-04-11T04:14:39.992Z</time></trkpt><trkpt lat="43.33938" lon="11.4915033"><ele>307.0</ele><time>2026-04-11T04:14:40.992Z</time></trkpt><trkpt lat="43.3393167" lon="11.4913933"><ele>307.0</ele><time>2026-04-11T04:14:41.992Z</time></trkpt><trkpt lat="43.3392433" lon="11.4912833"><ele>307.0</ele><time>2026-04-11T04:14:42.992Z</time></trkpt><trkpt lat="43.3391717" lon="11.491185"><ele>307.0</ele><time>2026-04-11T04:14:43.992Z</time></trkpt><trkpt lat="43.3391033" lon="11.4910883"><ele>307.0</ele><time>2026-04-11T04:14:44.992Z</time></trkpt><trkpt lat="43.3390267" lon="11.4909867"><ele>307.0</ele><time>2026-04-11T04:14:45.993Z</time></trkpt><trkpt lat="43.33895" lon="11.49089"><ele>305.8</ele><time>2026-04-11T04:14:46.993Z</time></trkpt><trkpt lat="43.3388667" lon="11.4907967"><ele>304.6</ele><time>2026-04-11T04:14:47.992Z</time></trkpt><trkpt lat="43.3387833" lon="11.4907133"><ele>303.40000000000003</ele><time>2026-04-11T04:14:48.992Z</time></trkpt><trkpt lat="43.3386983" lon="11.49063"><ele>302.2</ele><time>2026-04-11T04:14:49.992Z</time></trkpt><trkpt lat="43.338615" lon="11.4905483"><ele>301.0</ele><time>2026-04-11T04:14:50.993Z</time></trkpt><trkpt lat="43.3385317" lon="11.4904683"><ele>301.40000000000003</ele><time>2026-04-11T04:14:51.992Z</time></trkpt><trkpt lat="43.3384583" lon="11.490375"><ele>301.8</ele><time>2026-04-11T04:14:52.992Z</time></trkpt><trkpt lat="43.3383733" lon="11.490295"><ele>302.20000000000005</ele><time>2026-04-11T04:14:53.992Z</time></trkpt><trkpt lat="43.3382983" lon="11.4902133"><ele>302.6</ele><time>2026-04-11T04:14:54.992Z</time></trkpt><trkpt lat="43.3382167" lon="11.4901267"><ele>303.0</ele><time>2026-04-11T04:14:55.992Z</time></trkpt><trkpt lat="43.3381333" lon="11.4900417"><ele>302.0</ele><time>2026-04-11T04:14:56.992Z</time></trkpt><trkpt lat="43.33805" lon="11.4899583"><ele>301.0</ele><time>2026-04-11T04:14:57.992Z</time></trkpt><trkpt lat="43.3379667" lon="11.4898733"><ele>300.0</ele><time>2026-04-11T04:14:58.992Z</time></trkpt><trkpt lat="43.33788" lon="11.489785"><ele>299.0</ele><time>2026-04-11T04:14:59.992Z</time></trkpt><trkpt lat="43.3378" lon="11.4896917"><ele>298.0</ele><time>2026-04-11T04:15:00.992Z</time></trkpt><trkpt lat="43.3377233" lon="11.4896017"><ele>297.8</ele><time>2026-04-11T04:15:01.992Z</time></trkpt><trkpt lat="43.33765" lon="11.48951"><ele>297.6</ele><time>2026-04-11T04:15:02.992Z</time></trkpt><trkpt lat="43.33757" lon="11.4894233"><ele>297.4</ele><time>2026-04-11T04:15:03.992Z</time></trkpt><trkpt lat="43.3374883" lon="11.4893383"><ele>297.2</ele><time>2026-04-11T04:15:04.992Z</time></trkpt><trkpt lat="43.337405" lon="11.4892667"><ele>297.0</ele><time>2026-04-11T04:15:05.992Z</time></trkpt><trkpt lat="43.3373233" lon="11.4891867"><ele>297.0</ele><time>2026-04-11T04:15:06.992Z</time></trkpt><trkpt lat="43.3372433" lon="11.48911"><ele>297.0</ele><time>2026-04-11T04:15:07.992Z</time></trkpt><trkpt lat="43.3371617" lon="11.4890367"><ele>297.0</ele><time>2026-04-11T04:15:08.993Z</time></trkpt><trkpt lat="43.3370867" lon="11.48897"><ele>297.0</ele><time>2026-04-11T04:15:09.992Z</time></trkpt><trkpt lat="43.337005" lon="11.48891"><ele>297.0</ele><time>2026-04-11T04:15:10.992Z</time></trkpt><trkpt lat="43.3369267" lon="11.4888567"><ele>297.4</ele><time>2026-04-11T04:15:11.992Z</time></trkpt><trkpt lat="43.3368433" lon="11.48881"><ele>297.79999999999995</ele><time>2026-04-11T04:15:12.992Z</time></trkpt><trkpt lat="43.3367517" lon="11.488765"><ele>298.2</ele><time>2026-04-11T04:15:13.992Z</time></trkpt><trkpt lat="43.3366583" lon="11.4887183"><ele>298.59999999999997</ele><time>2026-04-11T04:15:14.992Z</time></trkpt><trkpt lat="43.336575" lon="11.488655"><ele>299.0</ele><time>2026-04-11T04:15:15.992Z</time></trkpt><trkpt lat="43.3364917" lon="11.4885917"><ele>299.0</ele><time>2026-04-11T04:15:16.992Z</time></trkpt><trkpt lat="43.3364083" lon="11.4885117"><ele>299.0</ele><time>2026-04-11T04:15:17.992Z</time></trkpt><trkpt lat="43.3363383" lon="11.4884183"><ele>299.0</ele><time>2026-04-11T04:15:18.992Z</time></trkpt><trkpt lat="43.3362883" lon="11.4883217"><ele>299.0</ele><time>2026-04-11T04:15:19.992Z</time></trkpt><trkpt lat="43.3362233" lon="11.4882167"><ele>299.0</ele><time>2026-04-11T04:15:20.992Z</time></trkpt><trkpt lat="43.33617" lon="11.488115"><ele>299.0</ele><time>2026-04-11T04:15:21.993Z</time></trkpt><trkpt lat="43.3361167" lon="11.4880167"><ele>299.0</ele><time>2026-04-11T04:15:22.992Z</time></trkpt><trkpt lat="43.336055" lon="11.4879267"><ele>299.0</ele><time>2026-04-11T04:15:23.992Z</time></trkpt><trkpt lat="43.3359817" lon="11.487835"><ele>299.0</ele><time>2026-04-11T04:15:24.993Z</time></trkpt><trkpt lat="43.3359067" lon="11.487755"><ele>299.0</ele><time>2026-04-11T04:15:25.993Z</time></trkpt><trkpt lat="43.3358217" lon="11.4876717"><ele>298.59999999999997</ele><time>2026-04-11T04:15:26.993Z</time></trkpt><trkpt lat="43.335745" lon="11.487565"><ele>298.2</ele><time>2026-04-11T04:15:27.993Z</time></trkpt><trkpt lat="43.3356767" lon="11.48746"><ele>297.79999999999995</ele><time>2026-04-11T04:15:28.992Z</time></trkpt><trkpt lat="43.3356083" lon="11.487345"><ele>297.4</ele><time>2026-04-11T04:15:29.992Z</time></trkpt><trkpt lat="43.3355433" lon="11.4872167"><ele>297.0</ele><time>2026-04-11T04:15:30.992Z</time></trkpt><trkpt lat="43.3354833" lon="11.4870867"><ele>296.25</ele><time>2026-04-11T04:15:31.992Z</time></trkpt><trkpt lat="43.3354267" lon="11.4869533"><ele>295.5</ele><time>2026-04-11T04:15:32.992Z</time></trkpt><trkpt lat="43.3353717" lon="11.4868267"><ele>294.75</ele><time>2026-04-11T04:15:33.992Z</time></trkpt><trkpt lat="43.3353117" lon="11.486685"><ele>294.0</ele><time>2026-04-11T04:15:34.992Z</time></trkpt><trkpt lat="43.3352567" lon="11.4865467"><ele>294.0</ele><time>2026-04-11T04:15:35.992Z</time></trkpt><trkpt lat="43.3351967" lon="11.4864033"><ele>294.0</ele><time>2026-04-11T04:15:36.993Z</time></trkpt><trkpt lat="43.3351367" lon="11.4862617"><ele>294.0</ele><time>2026-04-11T04:15:37.992Z</time></trkpt><trkpt lat="43.3350833" lon="11.4861183"><ele>294.0</ele><time>2026-04-11T04:15:38.992Z</time></trkpt><trkpt lat="43.33503" lon="11.4859683"><ele>291.75</ele><time>2026-04-11T04:15:39.992Z</time></trkpt><trkpt lat="43.334985" lon="11.4858117"><ele>289.5</ele><time>2026-04-11T04:15:40.993Z</time></trkpt><trkpt lat="43.3349483" lon="11.4856533"><ele>287.25</ele><time>2026-04-11T04:15:41.992Z</time></trkpt><trkpt lat="43.3349167" lon="11.4854883"><ele>285.0</ele><time>2026-04-11T04:15:42.992Z</time></trkpt><trkpt lat="43.3348917" lon="11.48532"><ele>283.5</ele><time>2026-04-11T04:15:43.993Z</time></trkpt><trkpt lat="43.3348783" lon="11.4851533"><ele>282.0</ele><time>2026-04-11T04:15:44.993Z</time></trkpt><trkpt lat="43.334845" lon="11.48497"><ele>280.5</ele><time>2026-04-11T04:15:45.992Z</time></trkpt><trkpt lat="43.3348233" lon="11.4848067"><ele>279.0</ele><time>2026-04-11T04:15:46.992Z</time></trkpt><trkpt lat="43.3348067" lon="11.48464"><ele>278.0</ele><time>2026-04-11T04:15:47.992Z</time></trkpt><trkpt lat="43.3347967" lon="11.4844717"><ele>277.0</ele><time>2026-04-11T04:15:48.992Z</time></trkpt><trkpt lat="43.3347817" lon="11.4843"><ele>276.0</ele><time>2026-04-11T04:15:49.992Z</time></trkpt><trkpt lat="43.3347683" lon="11.4841333"><ele>275.0</ele><time>2026-04-11T04:15:50.992Z</time></trkpt><trkpt lat="43.3347533" lon="11.483975"><ele>275.0</ele><time>2026-04-11T04:15:51.992Z</time></trkpt><trkpt lat="43.33474" lon="11.4838183"><ele>275.0</ele><time>2026-04-11T04:15:52.992Z</time></trkpt><trkpt lat="43.334725" lon="11.48366"><ele>275.0</ele><time>2026-04-11T04:15:53.992Z</time></trkpt><trkpt lat="43.334715" lon="11.4835083"><ele>275.0</ele><time>2026-04-11T04:15:54.992Z</time></trkpt><trkpt lat="43.3347033" lon="11.48336"><ele>276.2</ele><time>2026-04-11T04:15:55.992Z</time></trkpt><trkpt lat="43.33469" lon="11.4832117"><ele>277.4</ele><time>2026-04-11T04:15:56.992Z</time></trkpt><trkpt lat="43.33467" lon="11.4830567"><ele>278.6</ele><time>2026-04-11T04:15:57.992Z</time></trkpt><trkpt lat="43.334645" lon="11.482915"><ele>279.8</ele><time>2026-04-11T04:15:58.992Z</time></trkpt><trkpt lat="43.3346183" lon="11.4827767"><ele>281.0</ele><time>2026-04-11T04:15:59.992Z</time></trkpt><trkpt lat="43.3345983" lon="11.48262"><ele>281.0</ele><time>2026-04-11T04:16:00.992Z</time></trkpt><trkpt lat="43.3345817" lon="11.48246"><ele>281.0</ele><time>2026-04-11T04:16:01.992Z</time></trkpt><trkpt lat="43.3345683" lon="11.482305"><ele>281.0</ele><time>2026-04-11T04:16:02.992Z</time></trkpt><trkpt lat="43.334565" lon="11.4821617"><ele>281.0</ele><time>2026-04-11T04:16:03.992Z</time></trkpt><trkpt lat="43.334585" lon="11.4820267"><ele>281.0</ele><time>2026-04-11T04:16:04.993Z</time></trkpt><trkpt lat="43.3346217" lon="11.4819"><ele>279.6</ele><time>2026-04-11T04:16:05.992Z</time></trkpt><trkpt lat="43.334675" lon="11.4817817"><ele>278.20000000000005</ele><time>2026-04-11T04:16:06.993Z</time></trkpt><trkpt lat="43.3347367" lon="11.4816717"><ele>276.79999999999995</ele><time>2026-04-11T04:16:07.992Z</time></trkpt><trkpt lat="43.334795" lon="11.481575"><ele>275.4</ele><time>2026-04-11T04:16:08.992Z</time></trkpt><trkpt lat="43.3348517" lon="11.481475"><ele>274.0</ele><time>2026-04-11T04:16:09.992Z</time></trkpt><trkpt lat="43.3349083" lon="11.481375"><ele>273.59999999999997</ele><time>2026-04-11T04:16:10.992Z</time></trkpt><trkpt lat="43.3349633" lon="11.4812817"><ele>273.2</ele><time>2026-04-11T04:16:11.992Z</time></trkpt><trkpt lat="43.335025" lon="11.4811783"><ele>272.79999999999995</ele><time>2026-04-11T04:16:12.992Z</time></trkpt><trkpt lat="43.335085" lon="11.4810633"><ele>272.4</ele><time>2026-04-11T04:16:13.993Z</time></trkpt><trkpt lat="43.3351417" lon="11.48097"><ele>272.0</ele><time>2026-04-11T04:16:14.992Z</time></trkpt><trkpt lat="43.3352033" lon="11.480875"><ele>273.1666666666667</ele><time>2026-04-11T04:16:15.992Z</time></trkpt><trkpt lat="43.3352533" lon="11.480785"><ele>274.33333333333337</ele><time>2026-04-11T04:16:16.992Z</time></trkpt><trkpt lat="43.3353017" lon="11.4806933"><ele>275.5</ele><time>2026-04-11T04:16:17.993Z</time></trkpt><trkpt lat="43.3353417" lon="11.4806017"><ele>276.6666666666667</ele><time>2026-04-11T04:16:18.992Z</time></trkpt><trkpt lat="43.3353767" lon="11.4805067"><ele>277.8333333333333</ele><time>2026-04-11T04:16:19.992Z</time></trkpt><trkpt lat="43.3354033" lon="11.4804017"><ele>279.0</ele><time>2026-04-11T04:16:20.992Z</time></trkpt><trkpt lat="43.335425" lon="11.4803033"><ele>279.1428571428571</ele><time>2026-04-11T04:16:21.992Z</time></trkpt><trkpt lat="43.3354433" lon="11.4802133"><ele>279.2857142857143</ele><time>2026-04-11T04:16:22.992Z</time></trkpt><trkpt lat="43.335465" lon="11.48012"><ele>279.42857142857144</ele><time>2026-04-11T04:16:23.993Z</time></trkpt><trkpt lat="43.3354833" lon="11.480025"><ele>279.57142857142856</ele><time>2026-04-11T04:16:24.993Z</time></trkpt><trkpt lat="43.3355" lon="11.4799367"><ele>279.7142857142857</ele><time>2026-04-11T04:16:25.992Z</time></trkpt><trkpt lat="43.3355183" lon="11.4798467"><ele>279.85714285714283</ele><time>2026-04-11T04:16:26.992Z</time></trkpt><trkpt lat="43.3355367" lon="11.4797533"><ele>280.0</ele><time>2026-04-11T04:16:27.992Z</time></trkpt><trkpt lat="43.3355567" lon="11.4796533"><ele>279.66666666666663</ele><time>2026-04-11T04:16:28.993Z</time></trkpt><trkpt lat="43.3355833" lon="11.4795583"><ele>279.3333333333333</ele><time>2026-04-11T04:16:29.992Z</time></trkpt><trkpt lat="43.3356183" lon="11.47946"><ele>279.0</ele><time>2026-04-11T04:16:30.992Z</time></trkpt><trkpt lat="43.33565" lon="11.4793683"><ele>278.6666666666667</ele><time>2026-04-11T04:16:31.992Z</time></trkpt><trkpt lat="43.33568" lon="11.4792717"><ele>278.33333333333337</ele><time>2026-04-11T04:16:32.993Z</time></trkpt><trkpt lat="43.33571" lon="11.4791767"><ele>278.0</ele><time>2026-04-11T04:16:33.992Z</time></trkpt><trkpt lat="43.335745" lon="11.4790733"><ele>278.0</ele><time>2026-04-11T04:16:34.992Z</time></trkpt><trkpt lat="43.3357817" lon="11.478975"><ele>278.0</ele><time>2026-04-11T04:16:35.992Z</time></trkpt><trkpt lat="43.33581" lon="11.4788767"><ele>278.0</ele><time>2026-04-11T04:16:36.992Z</time></trkpt><trkpt lat="43.3358367" lon="11.478775"><ele>278.0</ele><time>2026-04-11T04:16:37.992Z</time></trkpt><trkpt lat="43.335865" lon="11.478675"><ele>278.0</ele><time>2026-04-11T04:16:38.992Z</time></trkpt><trkpt lat="43.3358983" lon="11.47859"><ele>278.0</ele><time>2026-04-11T04:16:39.992Z</time></trkpt><trkpt lat="43.3359267" lon="11.4784883"><ele>277.33333333333337</ele><time>2026-04-11T04:16:40.992Z</time></trkpt><trkpt lat="43.3359583" lon="11.4783883"><ele>276.6666666666667</ele><time>2026-04-11T04:16:41.992Z</time></trkpt><trkpt lat="43.3359867" lon="11.478285"><ele>276.0</ele><time>2026-04-11T04:16:42.992Z</time></trkpt><trkpt lat="43.3360167" lon="11.4781967"><ele>275.3333333333333</ele><time>2026-04-11T04:16:43.993Z</time></trkpt><trkpt lat="43.3360317" lon="11.4781"><ele>274.66666666666663</ele><time>2026-04-11T04:16:44.992Z</time></trkpt><trkpt lat="43.33603" lon="11.477995"><ele>274.0</ele><time>2026-04-11T04:16:45.992Z</time></trkpt><trkpt lat="43.3360167" lon="11.4778933"><ele>274.00000000000006</ele><time>2026-04-11T04:16:46.992Z</time></trkpt><trkpt lat="43.336" lon="11.477795"><ele>274.0</ele><time>2026-04-11T04:16:47.992Z</time></trkpt><trkpt lat="43.335985" lon="11.4776933"><ele>274.0</ele><time>2026-04-11T04:16:48.992Z</time></trkpt><trkpt lat="43.3359683" lon="11.4775967"><ele>274.0</ele><time>2026-04-11T04:16:49.992Z</time></trkpt><trkpt lat="43.3359433" lon="11.4775067"><ele>274.0</ele><time>2026-04-11T04:16:50.993Z</time></trkpt><trkpt lat="43.3359167" lon="11.4774183"><ele>274.00000000000006</ele><time>2026-04-11T04:16:51.993Z</time></trkpt><trkpt lat="43.3358917" lon="11.47733"><ele>274.0</ele><time>2026-04-11T04:16:52.992Z</time></trkpt><trkpt lat="43.3358633" lon="11.4772433"><ele>274.0</ele><time>2026-04-11T04:16:53.993Z</time></trkpt><trkpt lat="43.33584" lon="11.477155"><ele>274.0</ele><time>2026-04-11T04:16:54.992Z</time></trkpt><trkpt lat="43.335815" lon="11.4770683"><ele>274.0</ele><time>2026-04-11T04:16:55.993Z</time></trkpt><trkpt lat="43.3357917" lon="11.4769783"><ele>274.0</ele><time>2026-04-11T04:16:56.992Z</time></trkpt><trkpt lat="43.335765" lon="11.4768967"><ele>274.0</ele><time>2026-04-11T04:16:57.992Z</time></trkpt><trkpt lat="43.33572" lon="11.4767267"><ele>274.0</ele><time>2026-04-11T04:16:59.992Z</time></trkpt><trkpt lat="43.335675" lon="11.476615"><ele>274.16666666666663</ele><time>2026-04-11T04:17:01.992Z</time></trkpt><trkpt lat="43.3356317" lon="11.4765133"><ele>274.3333333333333</ele><time>2026-04-11T04:17:03.992Z</time></trkpt><trkpt lat="43.335595" lon="11.4764233"><ele>274.5</ele><time>2026-04-11T04:17:05.992Z</time></trkpt><trkpt lat="43.3355533" lon="11.47634"><ele>274.6666666666667</ele><time>2026-04-11T04:17:07.992Z</time></trkpt><trkpt lat="43.3355083" lon="11.476245"><ele>274.83333333333337</ele><time>2026-04-11T04:17:09.992Z</time></trkpt><trkpt lat="43.3354483" lon="11.47613"><ele>275.0</ele><time>2026-04-11T04:17:11.993Z</time></trkpt><trkpt lat="43.335385" lon="11.475995"><ele>275.0</ele><time>2026-04-11T04:17:13.992Z</time></trkpt><trkpt lat="43.3353517" lon="11.4759167"><ele>275.0</ele><time>2026-04-11T04:17:14.992Z</time></trkpt><trkpt lat="43.335315" lon="11.47584"><ele>275.0</ele><time>2026-04-11T04:17:15.992Z</time></trkpt><trkpt lat="43.3352783" lon="11.47576"><ele>275.0</ele><time>2026-04-11T04:17:16.992Z</time></trkpt><trkpt lat="43.3352417" lon="11.4756783"><ele>275.0</ele><time>2026-04-11T04:17:17.992Z</time></trkpt><trkpt lat="43.3352067" lon="11.475595"><ele>275.0</ele><time>2026-04-11T04:17:18.993Z</time></trkpt><trkpt lat="43.335175" lon="11.475505"><ele>275.0</ele><time>2026-04-11T04:17:19.992Z</time></trkpt><trkpt lat="43.3351467" lon="11.4754183"><ele>274.7142857142857</ele><time>2026-04-11T04:17:20.992Z</time></trkpt><trkpt lat="43.33512" lon="11.4753333"><ele>274.42857142857144</ele><time>2026-04-11T04:17:21.992Z</time></trkpt><trkpt lat="43.3350917" lon="11.47525"><ele>274.1428571428571</ele><time>2026-04-11T04:17:22.993Z</time></trkpt><trkpt lat="43.3350683" lon="11.4751617"><ele>273.8571428571429</ele><time>2026-04-11T04:17:23.993Z</time></trkpt><trkpt lat="43.3350483" lon="11.47507"><ele>273.57142857142856</ele><time>2026-04-11T04:17:24.992Z</time></trkpt><trkpt lat="43.335025" lon="11.4749883"><ele>273.2857142857143</ele><time>2026-04-11T04:17:25.992Z</time></trkpt><trkpt lat="43.33501" lon="11.4749"><ele>273.0</ele><time>2026-04-11T04:17:26.992Z</time></trkpt><trkpt lat="43.33498" lon="11.4747333"><ele>272.75</ele><time>2026-04-11T04:17:28.992Z</time></trkpt><trkpt lat="43.3349533" lon="11.4745817"><ele>272.5</ele><time>2026-04-11T04:17:30.992Z</time></trkpt><trkpt lat="43.3349317" lon="11.47441"><ele>272.25</ele><time>2026-04-11T04:17:32.992Z</time></trkpt><trkpt lat="43.3349083" lon="11.47424"><ele>272.0</ele><time>2026-04-11T04:17:34.992Z</time></trkpt><trkpt lat="43.3348883" lon="11.4740667"><ele>271.99999999999994</ele><time>2026-04-11T04:17:36.992Z</time></trkpt><trkpt lat="43.3348817" lon="11.473975"><ele>272.0</ele><time>2026-04-11T04:17:37.992Z</time></trkpt><trkpt lat="43.3348767" lon="11.4738817"><ele>272.0</ele><time>2026-04-11T04:17:38.992Z</time></trkpt><trkpt lat="43.3348717" lon="11.47379"><ele>272.0</ele><time>2026-04-11T04:17:39.992Z</time></trkpt><trkpt lat="43.3348633" lon="11.4736917"><ele>272.0</ele><time>2026-04-11T04:17:40.992Z</time></trkpt><trkpt lat="43.3348517" lon="11.4735967"><ele>271.99999999999994</ele><time>2026-04-11T04:17:41.992Z</time></trkpt><trkpt lat="43.3348417" lon="11.4735017"><ele>272.0</ele><time>2026-04-11T04:17:42.992Z</time></trkpt><trkpt lat="43.3348367" lon="11.4734067"><ele>271.83333333333337</ele><time>2026-04-11T04:17:43.992Z</time></trkpt><trkpt lat="43.33483" lon="11.47331"><ele>271.6666666666667</ele><time>2026-04-11T04:17:44.992Z</time></trkpt><trkpt lat="43.3348267" lon="11.4732183"><ele>271.5</ele><time>2026-04-11T04:17:45.992Z</time></trkpt><trkpt lat="43.3348317" lon="11.4731167"><ele>271.3333333333333</ele><time>2026-04-11T04:17:46.992Z</time></trkpt><trkpt lat="43.3348417" lon="11.4730133"><ele>271.16666666666663</ele><time>2026-04-11T04:17:47.992Z</time></trkpt><trkpt lat="43.3348567" lon="11.4729"><ele>271.0</ele><time>2026-04-11T04:17:48.993Z</time></trkpt><trkpt lat="43.33488" lon="11.472795"><ele>271.0</ele><time>2026-04-11T04:17:49.992Z</time></trkpt><trkpt lat="43.3349033" lon="11.4726967"><ele>271.0</ele><time>2026-04-11T04:17:50.992Z</time></trkpt><trkpt lat="43.3349283" lon="11.4726033"><ele>271.0</ele><time>2026-04-11T04:17:51.993Z</time></trkpt><trkpt lat="43.3349517" lon="11.47252"><ele>271.0</ele><time>2026-04-11T04:17:52.992Z</time></trkpt><trkpt lat="43.3349783" lon="11.4724233"><ele>271.0</ele><time>2026-04-11T04:17:53.992Z</time></trkpt><trkpt lat="43.3350033" lon="11.4723183"><ele>271.0</ele><time>2026-04-11T04:17:54.992Z</time></trkpt><trkpt lat="43.3350367" lon="11.4722133"><ele>270.2</ele><time>2026-04-11T04:17:55.992Z</time></trkpt><trkpt lat="43.3350783" lon="11.472095"><ele>269.40000000000003</ele><time>2026-04-11T04:17:56.992Z</time></trkpt><trkpt lat="43.335115" lon="11.4719833"><ele>268.6</ele><time>2026-04-11T04:17:57.992Z</time></trkpt><trkpt lat="43.33514" lon="11.4718717"><ele>267.8</ele><time>2026-04-11T04:17:58.992Z</time></trkpt><trkpt lat="43.3351717" lon="11.4717467"><ele>267.0</ele><time>2026-04-11T04:17:59.992Z</time></trkpt><trkpt lat="43.335215" lon="11.47162"><ele>267.0</ele><time>2026-04-11T04:18:00.992Z</time></trkpt><trkpt lat="43.3352767" lon="11.471485"><ele>267.0</ele><time>2026-04-11T04:18:01.993Z</time></trkpt><trkpt lat="43.335345" lon="11.4713467"><ele>267.0</ele><time>2026-04-11T04:18:02.992Z</time></trkpt><trkpt lat="43.3354083" lon="11.4712"><ele>267.0</ele><time>2026-04-11T04:18:03.992Z</time></trkpt><trkpt lat="43.3354767" lon="11.4710533"><ele>265.75</ele><time>2026-04-11T04:18:04.992Z</time></trkpt><trkpt lat="43.3355433" lon="11.4709017"><ele>264.5</ele><time>2026-04-11T04:18:05.992Z</time></trkpt><trkpt lat="43.3356033" lon="11.4707583"><ele>263.25</ele><time>2026-04-11T04:18:06.992Z</time></trkpt><trkpt lat="43.335655" lon="11.470615"><ele>262.0</ele><time>2026-04-11T04:18:07.992Z</time></trkpt><trkpt lat="43.3356983" lon="11.4704717"><ele>261.2</ele><time>2026-04-11T04:18:08.992Z</time></trkpt><trkpt lat="43.3357383" lon="11.470325"><ele>260.4</ele><time>2026-04-11T04:18:09.992Z</time></trkpt><trkpt lat="43.3357517" lon="11.47018"><ele>259.6</ele><time>2026-04-11T04:18:10.993Z</time></trkpt><trkpt lat="43.3357617" lon="11.47004"><ele>258.8</ele><time>2026-04-11T04:18:11.992Z</time></trkpt><trkpt lat="43.3357517" lon="11.4699083"><ele>258.0</ele><time>2026-04-11T04:18:12.993Z</time></trkpt><trkpt lat="43.3357267" lon="11.4697883"><ele>258.0</ele><time>2026-04-11T04:18:13.992Z</time></trkpt><trkpt lat="43.3357083" lon="11.4696817"><ele>258.0</ele><time>2026-04-11T04:18:14.992Z</time></trkpt><trkpt lat="43.3356867" lon="11.4695717"><ele>258.0</ele><time>2026-04-11T04:18:15.992Z</time></trkpt><trkpt lat="43.33566" lon="11.469465"><ele>258.0</ele><time>2026-04-11T04:18:16.993Z</time></trkpt><trkpt lat="43.3356333" lon="11.4693533"><ele>258.0</ele><time>2026-04-11T04:18:17.992Z</time></trkpt><trkpt lat="43.3355983" lon="11.4692567"><ele>258.0</ele><time>2026-04-11T04:18:18.992Z</time></trkpt><trkpt lat="43.3355617" lon="11.4691667"><ele>257.6666666666667</ele><time>2026-04-11T04:18:19.992Z</time></trkpt><trkpt lat="43.335535" lon="11.4690567"><ele>257.3333333333333</ele><time>2026-04-11T04:18:20.992Z</time></trkpt><trkpt lat="43.3355033" lon="11.4689633"><ele>257.0</ele><time>2026-04-11T04:18:21.992Z</time></trkpt><trkpt lat="43.3354567" lon="11.4688817"><ele>256.66666666666663</ele><time>2026-04-11T04:18:22.992Z</time></trkpt><trkpt lat="43.3354067" lon="11.4688033"><ele>256.3333333333333</ele><time>2026-04-11T04:18:23.992Z</time></trkpt><trkpt lat="43.3353483" lon="11.4687317"><ele>256.0</ele><time>2026-04-11T04:18:24.993Z</time></trkpt><trkpt lat="43.3352833" lon="11.46866"><ele>255.99999999999997</ele><time>2026-04-11T04:18:25.992Z</time></trkpt><trkpt lat="43.33522" lon="11.4685817"><ele>256.0</ele><time>2026-04-11T04:18:26.992Z</time></trkpt><trkpt lat="43.3351617" lon="11.4685033"><ele>256.0</ele><time>2026-04-11T04:18:27.992Z</time></trkpt><trkpt lat="43.3351017" lon="11.4684267"><ele>256.0</ele><time>2026-04-11T04:18:28.992Z</time></trkpt><trkpt lat="43.3350467" lon="11.46833"><ele>255.99999999999997</ele><time>2026-04-11T04:18:29.992Z</time></trkpt><trkpt lat="43.3349917" lon="11.4682333"><ele>256.0</ele><time>2026-04-11T04:18:30.993Z</time></trkpt><trkpt lat="43.334945" lon="11.4681367"><ele>255.99999999999997</ele><time>2026-04-11T04:18:31.993Z</time></trkpt><trkpt lat="43.3349017" lon="11.4680433"><ele>256.0</ele><time>2026-04-11T04:18:32.992Z</time></trkpt><trkpt lat="43.3348633" lon="11.46794"><ele>256.0</ele><time>2026-04-11T04:18:33.992Z</time></trkpt><trkpt lat="43.3348267" lon="11.4678333"><ele>256.0</ele><time>2026-04-11T04:18:34.992Z</time></trkpt><trkpt lat="43.3347983" lon="11.4677283"><ele>255.99999999999997</ele><time>2026-04-11T04:18:35.992Z</time></trkpt><trkpt lat="43.334775" lon="11.4676183"><ele>256.0</ele><time>2026-04-11T04:18:36.992Z</time></trkpt><trkpt lat="43.3347583" lon="11.4675167"><ele>256.16666666666663</ele><time>2026-04-11T04:18:37.992Z</time></trkpt><trkpt lat="43.3347467" lon="11.4674117"><ele>256.3333333333333</ele><time>2026-04-11T04:18:38.992Z</time></trkpt><trkpt lat="43.3347383" lon="11.4673117"><ele>256.5</ele><time>2026-04-11T04:18:39.992Z</time></trkpt><trkpt lat="43.3347283" lon="11.467205"><ele>256.6666666666667</ele><time>2026-04-11T04:18:40.992Z</time></trkpt><trkpt lat="43.334715" lon="11.467075"><ele>256.83333333333337</ele><time>2026-04-11T04:18:41.993Z</time></trkpt><trkpt lat="43.334705" lon="11.4669517"><ele>257.0</ele><time>2026-04-11T04:18:42.992Z</time></trkpt><trkpt lat="43.3346983" lon="11.46683"><ele>255.39999999999998</ele><time>2026-04-11T04:18:43.992Z</time></trkpt><trkpt lat="43.334695" lon="11.4667067"><ele>253.79999999999998</ele><time>2026-04-11T04:18:44.992Z</time></trkpt><trkpt lat="43.3347033" lon="11.4665783"><ele>252.2</ele><time>2026-04-11T04:18:45.992Z</time></trkpt><trkpt lat="43.334715" lon="11.4664433"><ele>250.6</ele><time>2026-04-11T04:18:46.993Z</time></trkpt><trkpt lat="43.334735" lon="11.4663117"><ele>249.0</ele><time>2026-04-11T04:18:47.992Z</time></trkpt><trkpt lat="43.3347583" lon="11.4661783"><ele>248.5</ele><time>2026-04-11T04:18:48.992Z</time></trkpt><trkpt lat="43.3347867" lon="11.4660617"><ele>248.0</ele><time>2026-04-11T04:18:49.992Z</time></trkpt><trkpt lat="43.334815" lon="11.465945"><ele>247.5</ele><time>2026-04-11T04:18:50.992Z</time></trkpt><trkpt lat="43.3348483" lon="11.465835"><ele>247.0</ele><time>2026-04-11T04:18:51.992Z</time></trkpt><trkpt lat="43.3348767" lon="11.465725"><ele>246.5</ele><time>2026-04-11T04:18:52.992Z</time></trkpt><trkpt lat="43.3349067" lon="11.4656083"><ele>246.0</ele><time>2026-04-11T04:18:53.992Z</time></trkpt><trkpt lat="43.334935" lon="11.4654883"><ele>245.83333333333334</ele><time>2026-04-11T04:18:54.993Z</time></trkpt><trkpt lat="43.334965" lon="11.46537"><ele>245.66666666666669</ele><time>2026-04-11T04:18:55.992Z</time></trkpt><trkpt lat="43.334995" lon="11.4652533"><ele>245.5</ele><time>2026-04-11T04:18:56.992Z</time></trkpt><trkpt lat="43.3350183" lon="11.46514"><ele>245.33333333333334</ele><time>2026-04-11T04:18:57.992Z</time></trkpt><trkpt lat="43.3350433" lon="11.465025"><ele>245.16666666666669</ele><time>2026-04-11T04:18:58.992Z</time></trkpt><trkpt lat="43.33507" lon="11.4649067"><ele>245.0</ele><time>2026-04-11T04:18:59.993Z</time></trkpt><trkpt lat="43.3350967" lon="11.464785"><ele>245.0</ele><time>2026-04-11T04:19:00.992Z</time></trkpt><trkpt lat="43.3351267" lon="11.4646667"><ele>245.0</ele><time>2026-04-11T04:19:01.992Z</time></trkpt><trkpt lat="43.3351617" lon="11.464545"><ele>245.0</ele><time>2026-04-11T04:19:02.992Z</time></trkpt><trkpt lat="43.335195" lon="11.4644233"><ele>245.0</ele><time>2026-04-11T04:19:03.992Z</time></trkpt><trkpt lat="43.3352267" lon="11.464305"><ele>245.0</ele><time>2026-04-11T04:19:04.992Z</time></trkpt><trkpt lat="43.3352583" lon="11.4641867"><ele>244.33333333333334</ele><time>2026-04-11T04:19:05.993Z</time></trkpt><trkpt lat="43.335285" lon="11.464075"><ele>243.66666666666669</ele><time>2026-04-11T04:19:06.992Z</time></trkpt><trkpt lat="43.3353133" lon="11.4639633"><ele>243.0</ele><time>2026-04-11T04:19:07.992Z</time></trkpt><trkpt lat="43.33534" lon="11.463855"><ele>242.33333333333331</ele><time>2026-04-11T04:19:08.992Z</time></trkpt><trkpt lat="43.3353767" lon="11.4637517"><ele>241.66666666666666</ele><time>2026-04-11T04:19:09.992Z</time></trkpt><trkpt lat="43.3354067" lon="11.463655"><ele>241.0</ele><time>2026-04-11T04:19:10.992Z</time></trkpt><trkpt lat="43.3354383" lon="11.46356"><ele>240.99999999999997</ele><time>2026-04-11T04:19:11.992Z</time></trkpt><trkpt lat="43.3354783" lon="11.4634667"><ele>241.0</ele><time>2026-04-11T04:19:12.993Z</time></trkpt><trkpt lat="43.3355117" lon="11.4633733"><ele>241.0</ele><time>2026-04-11T04:19:13.992Z</time></trkpt><trkpt lat="43.3355517" lon="11.4632833"><ele>241.0</ele><time>2026-04-11T04:19:14.992Z</time></trkpt><trkpt lat="43.3355867" lon="11.463205"><ele>240.99999999999997</ele><time>2026-04-11T04:19:15.993Z</time></trkpt><trkpt lat="43.33565" lon="11.4630633"><ele>241.0</ele><time>2026-04-11T04:19:17.992Z</time></trkpt><trkpt lat="43.3356967" lon="11.4629333"><ele>241.99999999999997</ele><time>2026-04-11T04:19:19.992Z</time></trkpt><trkpt lat="43.33573" lon="11.4628317"><ele>243.0</ele><time>2026-04-11T04:19:21.992Z</time></trkpt><trkpt lat="43.3357567" lon="11.4627433"><ele>244.0</ele><time>2026-04-11T04:19:23.992Z</time></trkpt><trkpt lat="43.33578" lon="11.4626333"><ele>245.0</ele><time>2026-04-11T04:19:26.992Z</time></trkpt><trkpt lat="43.335815" lon="11.462525"><ele>245.99999999999997</ele><time>2026-04-11T04:19:29.992Z</time></trkpt><trkpt lat="43.3358367" lon="11.4624083"><ele>247.0</ele><time>2026-04-11T04:19:33.992Z</time></trkpt><trkpt lat="43.33585" lon="11.4622867"><ele>246.99999999999997</ele><time>2026-04-11T04:19:35.992Z</time></trkpt><trkpt lat="43.3358717" lon="11.4621333"><ele>247.0</ele><time>2026-04-11T04:19:37.992Z</time></trkpt><trkpt lat="43.3358833" lon="11.46204"><ele>247.0</ele><time>2026-04-11T04:19:38.992Z</time></trkpt><trkpt lat="43.3358917" lon="11.461935"><ele>247.0</ele><time>2026-04-11T04:19:39.992Z</time></trkpt><trkpt lat="43.3358967" lon="11.461825"><ele>246.99999999999997</ele><time>2026-04-11T04:19:40.992Z</time></trkpt><trkpt lat="43.3358983" lon="11.4617083"><ele>247.0</ele><time>2026-04-11T04:19:41.993Z</time></trkpt><trkpt lat="43.335895" lon="11.4615883"><ele>247.33333333333331</ele><time>2026-04-11T04:19:42.992Z</time></trkpt><trkpt lat="43.3358933" lon="11.4614633"><ele>247.66666666666666</ele><time>2026-04-11T04:19:43.992Z</time></trkpt><trkpt lat="43.335895" lon="11.4613433"><ele>248.0</ele><time>2026-04-11T04:19:44.992Z</time></trkpt><trkpt lat="43.3358967" lon="11.4612283"><ele>248.33333333333331</ele><time>2026-04-11T04:19:45.992Z</time></trkpt><trkpt lat="43.3358967" lon="11.4611117"><ele>248.66666666666666</ele><time>2026-04-11T04:19:46.992Z</time></trkpt><trkpt lat="43.3358967" lon="11.4609917"><ele>249.0</ele><time>2026-04-11T04:19:47.992Z</time></trkpt><trkpt lat="43.3359033" lon="11.46088"><ele>248.33333333333334</ele><time>2026-04-11T04:19:48.992Z</time></trkpt><trkpt lat="43.3359133" lon="11.4607683"><ele>247.66666666666669</ele><time>2026-04-11T04:19:49.993Z</time></trkpt><trkpt lat="43.33593" lon="11.4606583"><ele>247.0</ele><time>2026-04-11T04:19:50.992Z</time></trkpt><trkpt lat="43.33594" lon="11.4605367"><ele>246.33333333333334</ele><time>2026-04-11T04:19:51.992Z</time></trkpt><trkpt lat="43.335955" lon="11.460415"><ele>245.66666666666669</ele><time>2026-04-11T04:19:52.992Z</time></trkpt><trkpt lat="43.335975" lon="11.4602933"><ele>245.0</ele><time>2026-04-11T04:19:53.992Z</time></trkpt><trkpt lat="43.3359967" lon="11.4601683"><ele>244.4</ele><time>2026-04-11T04:19:54.992Z</time></trkpt><trkpt lat="43.3360117" lon="11.46004"><ele>243.8</ele><time>2026-04-11T04:19:55.992Z</time></trkpt><trkpt lat="43.3360217" lon="11.4599117"><ele>243.2</ele><time>2026-04-11T04:19:56.992Z</time></trkpt><trkpt lat="43.3360317" lon="11.4597817"><ele>242.6</ele><time>2026-04-11T04:19:57.992Z</time></trkpt><trkpt lat="43.3360367" lon="11.4596567"><ele>242.0</ele><time>2026-04-11T04:19:58.992Z</time></trkpt><trkpt lat="43.3360367" lon="11.4595433"><ele>242.00000000000003</ele><time>2026-04-11T04:19:59.993Z</time></trkpt><trkpt lat="43.3360317" lon="11.4594317"><ele>242.0</ele><time>2026-04-11T04:20:00.992Z</time></trkpt><trkpt lat="43.3360167" lon="11.4593183"><ele>242.0</ele><time>2026-04-11T04:20:01.992Z</time></trkpt><trkpt lat="43.3359983" lon="11.4592067"><ele>242.0</ele><time>2026-04-11T04:20:02.992Z</time></trkpt><trkpt lat="43.33598" lon="11.459105"><ele>242.00000000000003</ele><time>2026-04-11T04:20:03.992Z</time></trkpt><trkpt lat="43.3359667" lon="11.4589917"><ele>242.0</ele><time>2026-04-11T04:20:04.993Z</time></trkpt><trkpt lat="43.335965" lon="11.458875"><ele>242.00000000000003</ele><time>2026-04-11T04:20:05.992Z</time></trkpt><trkpt lat="43.3359783" lon="11.4587567"><ele>242.0</ele><time>2026-04-11T04:20:06.992Z</time></trkpt><trkpt lat="43.336005" lon="11.45865"><ele>242.0</ele><time>2026-04-11T04:20:07.992Z</time></trkpt><trkpt lat="43.336045" lon="11.458555"><ele>242.0</ele><time>2026-04-11T04:20:08.992Z</time></trkpt><trkpt lat="43.33609" lon="11.4584633"><ele>242.00000000000003</ele><time>2026-04-11T04:20:09.992Z</time></trkpt><trkpt lat="43.3361233" lon="11.458375"><ele>242.0</ele><time>2026-04-11T04:20:10.993Z</time></trkpt><trkpt lat="43.336145" lon="11.4582867"><ele>242.0</ele><time>2026-04-11T04:20:11.992Z</time></trkpt><trkpt lat="43.3361717" lon="11.458125"><ele>242.0</ele><time>2026-04-11T04:20:13.992Z</time></trkpt><trkpt lat="43.3362017" lon="11.45796"><ele>242.0</ele><time>2026-04-11T04:20:15.992Z</time></trkpt><trkpt lat="43.3362183" lon="11.4578667"><ele>242.0</ele><time>2026-04-11T04:20:16.992Z</time></trkpt><trkpt lat="43.3362317" lon="11.457775"><ele>242.0</ele><time>2026-04-11T04:20:17.992Z</time></trkpt><trkpt lat="43.3362717" lon="11.4575967"><ele>242.00000000000003</ele><time>2026-04-11T04:20:19.992Z</time></trkpt><trkpt lat="43.3362883" lon="11.4575067"><ele>242.0</ele><time>2026-04-11T04:20:20.992Z</time></trkpt><trkpt lat="43.33631" lon="11.45741"><ele>242.0</ele><time>2026-04-11T04:20:21.992Z</time></trkpt><trkpt lat="43.3363267" lon="11.4573117"><ele>242.0</ele><time>2026-04-11T04:20:22.993Z</time></trkpt><trkpt lat="43.336335" lon="11.4572133"><ele>242.00000000000003</ele><time>2026-04-11T04:20:23.992Z</time></trkpt><trkpt lat="43.336335" lon="11.4571017"><ele>242.0</ele><time>2026-04-11T04:20:24.992Z</time></trkpt><trkpt lat="43.3363333" lon="11.456985"><ele>241.00000000000003</ele><time>2026-04-11T04:20:25.992Z</time></trkpt><trkpt lat="43.33633" lon="11.456855"><ele>240.0</ele><time>2026-04-11T04:20:26.992Z</time></trkpt><trkpt lat="43.3363217" lon="11.456745"><ele>239.0</ele><time>2026-04-11T04:20:27.992Z</time></trkpt><trkpt lat="43.336315" lon="11.456615"><ele>238.0</ele><time>2026-04-11T04:20:28.992Z</time></trkpt><trkpt lat="43.3363083" lon="11.4564933"><ele>237.00000000000003</ele><time>2026-04-11T04:20:29.992Z</time></trkpt><trkpt lat="43.3363033" lon="11.4563767"><ele>236.0</ele><time>2026-04-11T04:20:30.992Z</time></trkpt><trkpt lat="43.3363117" lon="11.45626"><ele>235.83333333333334</ele><time>2026-04-11T04:20:31.992Z</time></trkpt><trkpt lat="43.3363267" lon="11.4561517"><ele>235.66666666666669</ele><time>2026-04-11T04:20:32.992Z</time></trkpt><trkpt lat="43.336345" lon="11.4560567"><ele>235.5</ele><time>2026-04-11T04:20:33.992Z</time></trkpt><trkpt lat="43.3363717" lon="11.45596"><ele>235.33333333333331</ele><time>2026-04-11T04:20:34.992Z</time></trkpt><trkpt lat="43.3364083" lon="11.45584"><ele>235.16666666666666</ele><time>2026-04-11T04:20:35.992Z</time></trkpt><trkpt lat="43.336455" lon="11.4557233"><ele>235.0</ele><time>2026-04-11T04:20:36.992Z</time></trkpt><trkpt lat="43.336495" lon="11.4556083"><ele>234.6</ele><time>2026-04-11T04:20:37.993Z</time></trkpt><trkpt lat="43.3365317" lon="11.4554883"><ele>234.2</ele><time>2026-04-11T04:20:38.993Z</time></trkpt><trkpt lat="43.3365667" lon="11.45537"><ele>233.8</ele><time>2026-04-11T04:20:39.993Z</time></trkpt><trkpt lat="43.3366017" lon="11.455255"><ele>233.4</ele><time>2026-04-11T04:20:40.992Z</time></trkpt><trkpt lat="43.3366367" lon="11.455145"><ele>233.0</ele><time>2026-04-11T04:20:41.992Z</time></trkpt><trkpt lat="43.336675" lon="11.4550283"><ele>232.66666666666669</ele><time>2026-04-11T04:20:42.992Z</time></trkpt><trkpt lat="43.33671" lon="11.454915"><ele>232.33333333333334</ele><time>2026-04-11T04:20:43.992Z</time></trkpt><trkpt lat="43.3367433" lon="11.4548133"><ele>232.0</ele><time>2026-04-11T04:20:44.992Z</time></trkpt><trkpt lat="43.336775" lon="11.4547067"><ele>231.66666666666669</ele><time>2026-04-11T04:20:45.992Z</time></trkpt><trkpt lat="43.3367933" lon="11.454605"><ele>231.33333333333334</ele><time>2026-04-11T04:20:46.992Z</time></trkpt><trkpt lat="43.3368017" lon="11.4545067"><ele>231.0</ele><time>2026-04-11T04:20:47.992Z</time></trkpt><trkpt lat="43.3368" lon="11.4544133"><ele>231.0</ele><time>2026-04-11T04:20:48.992Z</time></trkpt><trkpt lat="43.3368" lon="11.4543217"><ele>231.0</ele><time>2026-04-11T04:20:49.992Z</time></trkpt><trkpt lat="43.3368033" lon="11.4542317"><ele>231.0</ele><time>2026-04-11T04:20:50.992Z</time></trkpt><trkpt lat="43.3368067" lon="11.4541333"><ele>231.0</ele><time>2026-04-11T04:20:51.992Z</time></trkpt><trkpt lat="43.336815" lon="11.45404"><ele>231.0</ele><time>2026-04-11T04:20:52.992Z</time></trkpt><trkpt lat="43.336825" lon="11.453945"><ele>231.0</ele><time>2026-04-11T04:20:53.992Z</time></trkpt><trkpt lat="43.3368283" lon="11.4538483"><ele>231.0</ele><time>2026-04-11T04:20:54.992Z</time></trkpt><trkpt lat="43.3368317" lon="11.4537517"><ele>231.0</ele><time>2026-04-11T04:20:55.992Z</time></trkpt><trkpt lat="43.3368283" lon="11.4536567"><ele>231.0</ele><time>2026-04-11T04:20:56.992Z</time></trkpt><trkpt lat="43.3368233" lon="11.4535633"><ele>231.0</ele><time>2026-04-11T04:20:57.992Z</time></trkpt><trkpt lat="43.3368117" lon="11.4534683"><ele>231.0</ele><time>2026-04-11T04:20:58.992Z</time></trkpt><trkpt lat="43.33679" lon="11.45337"><ele>231.0</ele><time>2026-04-11T04:20:59.992Z</time></trkpt><trkpt lat="43.3367583" lon="11.453265"><ele>231.0</ele><time>2026-04-11T04:21:00.992Z</time></trkpt><trkpt lat="43.3367217" lon="11.4531517"><ele>231.0</ele><time>2026-04-11T04:21:01.992Z</time></trkpt><trkpt lat="43.3366867" lon="11.4530367"><ele>231.0</ele><time>2026-04-11T04:21:02.992Z</time></trkpt><trkpt lat="43.3366517" lon="11.4529233"><ele>231.0</ele><time>2026-04-11T04:21:03.992Z</time></trkpt><trkpt lat="43.336615" lon="11.4528117"><ele>231.0</ele><time>2026-04-11T04:21:04.992Z</time></trkpt><trkpt lat="43.3365733" lon="11.452705"><ele>231.0</ele><time>2026-04-11T04:21:05.993Z</time></trkpt><trkpt lat="43.3365317" lon="11.452595"><ele>231.0</ele><time>2026-04-11T04:21:06.992Z</time></trkpt><trkpt lat="43.3364867" lon="11.4524833"><ele>230.60000000000002</ele><time>2026-04-11T04:21:07.993Z</time></trkpt><trkpt lat="43.3364433" lon="11.4523667"><ele>230.20000000000002</ele><time>2026-04-11T04:21:08.992Z</time></trkpt><trkpt lat="43.3363967" lon="11.4522533"><ele>229.79999999999998</ele><time>2026-04-11T04:21:09.992Z</time></trkpt><trkpt lat="43.3363483" lon="11.4521333"><ele>229.39999999999998</ele><time>2026-04-11T04:21:10.992Z</time></trkpt><trkpt lat="43.336305" lon="11.4520117"><ele>229.0</ele><time>2026-04-11T04:21:11.992Z</time></trkpt><trkpt lat="43.33626" lon="11.4518767"><ele>227.0</ele><time>2026-04-11T04:21:12.993Z</time></trkpt><trkpt lat="43.33621" lon="11.4517433"><ele>225.0</ele><time>2026-04-11T04:21:13.992Z</time></trkpt><trkpt lat="43.3361617" lon="11.451605"><ele>223.0</ele><time>2026-04-11T04:21:14.992Z</time></trkpt><trkpt lat="43.336105" lon="11.45146"><ele>221.0</ele><time>2026-04-11T04:21:15.992Z</time></trkpt><trkpt lat="43.3360333" lon="11.451325"><ele>220.75</ele><time>2026-04-11T04:21:16.993Z</time></trkpt><trkpt lat="43.3359467" lon="11.4512183"><ele>220.5</ele><time>2026-04-11T04:21:17.992Z</time></trkpt><trkpt lat="43.3358383" lon="11.4511317"><ele>220.25</ele><time>2026-04-11T04:21:18.992Z</time></trkpt><trkpt lat="43.3357333" lon="11.45106"><ele>220.0</ele><time>2026-04-11T04:21:19.992Z</time></trkpt><trkpt lat="43.3356367" lon="11.451"><ele>218.49999999999997</ele><time>2026-04-11T04:21:20.992Z</time></trkpt><trkpt lat="43.3355517" lon="11.4509317"><ele>217.0</ele><time>2026-04-11T04:21:21.993Z</time></trkpt><trkpt lat="43.33548" lon="11.4508467"><ele>215.5</ele><time>2026-04-11T04:21:22.992Z</time></trkpt><trkpt lat="43.3354283" lon="11.4507583"><ele>214.0</ele><time>2026-04-11T04:21:23.992Z</time></trkpt><trkpt lat="43.3354" lon="11.4506567"><ele>212.49999999999997</ele><time>2026-04-11T04:21:24.992Z</time></trkpt><trkpt lat="43.3354133" lon="11.4505517"><ele>211.0</ele><time>2026-04-11T04:21:25.992Z</time></trkpt><trkpt lat="43.3354633" lon="11.450435"><ele>211.20000000000002</ele><time>2026-04-11T04:21:26.992Z</time></trkpt><trkpt lat="43.335535" lon="11.45032"><ele>211.4</ele><time>2026-04-11T04:21:27.992Z</time></trkpt><trkpt lat="43.33561" lon="11.450215"><ele>211.6</ele><time>2026-04-11T04:21:28.992Z</time></trkpt><trkpt lat="43.3356867" lon="11.4501083"><ele>211.8</ele><time>2026-04-11T04:21:29.992Z</time></trkpt><trkpt lat="43.335765" lon="11.4500117"><ele>212.0</ele><time>2026-04-11T04:21:30.993Z</time></trkpt><trkpt lat="43.3358467" lon="11.449925"><ele>212.0</ele><time>2026-04-11T04:21:31.992Z</time></trkpt><trkpt lat="43.3359383" lon="11.4498633"><ele>212.0</ele><time>2026-04-11T04:21:32.992Z</time></trkpt><trkpt lat="43.3360283" lon="11.44984"><ele>212.0</ele><time>2026-04-11T04:21:33.992Z</time></trkpt><trkpt lat="43.3361183" lon="11.4498417"><ele>212.0</ele><time>2026-04-11T04:21:34.992Z</time></trkpt><trkpt lat="43.336215" lon="11.449855"><ele>212.0</ele><time>2026-04-11T04:21:35.992Z</time></trkpt><trkpt lat="43.3362967" lon="11.4498483"><ele>212.00000000000003</ele><time>2026-04-11T04:21:36.993Z</time></trkpt><trkpt lat="43.3363717" lon="11.4498017"><ele>212.0</ele><time>2026-04-11T04:21:37.992Z</time></trkpt><trkpt lat="43.336435" lon="11.4497367"><ele>212.0</ele><time>2026-04-11T04:21:38.992Z</time></trkpt><trkpt lat="43.336465" lon="11.449635"><ele>212.0</ele><time>2026-04-11T04:21:39.992Z</time></trkpt><trkpt lat="43.33648" lon="11.449525"><ele>212.00000000000003</ele><time>2026-04-11T04:21:40.992Z</time></trkpt><trkpt lat="43.3364767" lon="11.4494083"><ele>212.0</ele><time>2026-04-11T04:21:41.992Z</time></trkpt><trkpt lat="43.336485" lon="11.4493"><ele>211.66666666666669</ele><time>2026-04-11T04:21:42.992Z</time></trkpt><trkpt lat="43.336495" lon="11.4491883"><ele>211.33333333333334</ele><time>2026-04-11T04:21:43.993Z</time></trkpt><trkpt lat="43.3365" lon="11.4490717"><ele>211.0</ele><time>2026-04-11T04:21:44.992Z</time></trkpt><trkpt lat="43.3364917" lon="11.448955"><ele>210.66666666666669</ele><time>2026-04-11T04:21:45.992Z</time></trkpt><trkpt lat="43.33647" lon="11.44884"><ele>210.33333333333334</ele><time>2026-04-11T04:21:46.992Z</time></trkpt><trkpt lat="43.336435" lon="11.44874"><ele>210.0</ele><time>2026-04-11T04:21:47.992Z</time></trkpt><trkpt lat="43.336395" lon="11.448645"><ele>209.5</ele><time>2026-04-11T04:21:48.992Z</time></trkpt><trkpt lat="43.336355" lon="11.4485567"><ele>209.0</ele><time>2026-04-11T04:21:49.992Z</time></trkpt><trkpt lat="43.336315" lon="11.44848"><ele>208.5</ele><time>2026-04-11T04:21:50.992Z</time></trkpt><trkpt lat="43.3362767" lon="11.4484017"><ele>208.0</ele><time>2026-04-11T04:21:51.992Z</time></trkpt><trkpt lat="43.3362483" lon="11.4483233"><ele>207.5</ele><time>2026-04-11T04:21:52.992Z</time></trkpt><trkpt lat="43.3362017" lon="11.4482033"><ele>207.0</ele><time>2026-04-11T04:21:54.992Z</time></trkpt><trkpt lat="43.3361517" lon="11.44808"><ele>207.0</ele><time>2026-04-11T04:21:56.992Z</time></trkpt><trkpt lat="43.336135" lon="11.4479267"><ele>207.0</ele><time>2026-04-11T04:21:58.992Z</time></trkpt><trkpt lat="43.3361833" lon="11.447765"><ele>207.0</ele><time>2026-04-11T04:22:00.992Z</time></trkpt><trkpt lat="43.33622" lon="11.4476883"><ele>207.0</ele><time>2026-04-11T04:22:01.992Z</time></trkpt><trkpt lat="43.3362567" lon="11.44761"><ele>207.0</ele><time>2026-04-11T04:22:02.992Z</time></trkpt><trkpt lat="43.3362917" lon="11.44753"><ele>207.0</ele><time>2026-04-11T04:22:03.992Z</time></trkpt><trkpt lat="43.33632" lon="11.44745"><ele>207.0</ele><time>2026-04-11T04:22:04.992Z</time></trkpt><trkpt lat="43.33635" lon="11.44737"><ele>207.0</ele><time>2026-04-11T04:22:05.993Z</time></trkpt><trkpt lat="43.33638" lon="11.4472883"><ele>207.0</ele><time>2026-04-11T04:22:06.992Z</time></trkpt><trkpt lat="43.33642" lon="11.447135"><ele>207.0</ele><time>2026-04-11T04:22:08.992Z</time></trkpt><trkpt lat="43.336435" lon="11.446975"><ele>207.0</ele><time>2026-04-11T04:22:10.992Z</time></trkpt><trkpt lat="43.3364517" lon="11.44682"><ele>207.16666666666666</ele><time>2026-04-11T04:22:12.992Z</time></trkpt><trkpt lat="43.3364317" lon="11.446675"><ele>207.33333333333331</ele><time>2026-04-11T04:22:14.992Z</time></trkpt><trkpt lat="43.3364083" lon="11.4465567"><ele>207.5</ele><time>2026-04-11T04:22:16.992Z</time></trkpt><trkpt lat="43.3363867" lon="11.44646"><ele>207.66666666666666</ele><time>2026-04-11T04:22:18.992Z</time></trkpt><trkpt lat="43.33637" lon="11.44636"><ele>207.83333333333331</ele><time>2026-04-11T04:22:20.992Z</time></trkpt><trkpt lat="43.3363383" lon="11.4462583"><ele>208.0</ele><time>2026-04-11T04:22:22.993Z</time></trkpt><trkpt lat="43.3363083" lon="11.4461517"><ele>208.99999999999997</ele><time>2026-04-11T04:22:24.992Z</time></trkpt><trkpt lat="43.3362817" lon="11.4460533"><ele>210.0</ele><time>2026-04-11T04:22:26.992Z</time></trkpt><trkpt lat="43.33627" lon="11.4459383"><ele>211.0</ele><time>2026-04-11T04:22:28.992Z</time></trkpt><trkpt lat="43.336245" lon="11.4458383"><ele>212.0</ele><time>2026-04-11T04:22:30.992Z</time></trkpt><trkpt lat="43.3362233" lon="11.4457567"><ele>212.99999999999997</ele><time>2026-04-11T04:22:32.992Z</time></trkpt><trkpt lat="43.336195" lon="11.4456483"><ele>214.0</ele><time>2026-04-11T04:22:35.992Z</time></trkpt><trkpt lat="43.33617" lon="11.445545"><ele>215.16666666666666</ele><time>2026-04-11T04:22:38.992Z</time></trkpt><trkpt lat="43.336135" lon="11.4454533"><ele>216.33333333333331</ele><time>2026-04-11T04:22:41.993Z</time></trkpt><trkpt lat="43.3360967" lon="11.4453517"><ele>217.5</ele><time>2026-04-11T04:22:44.992Z</time></trkpt><trkpt lat="43.336055" lon="11.4452533"><ele>218.66666666666669</ele><time>2026-04-11T04:22:47.992Z</time></trkpt><trkpt lat="43.3360067" lon="11.4451667"><ele>219.83333333333334</ele><time>2026-04-11T04:22:50.992Z</time></trkpt><trkpt lat="43.3359617" lon="11.4450783"><ele>221.0</ele><time>2026-04-11T04:22:53.992Z</time></trkpt><trkpt lat="43.3359217" lon="11.44497"><ele>221.00000000000003</ele><time>2026-04-11T04:22:56.992Z</time></trkpt><trkpt lat="43.33587" lon="11.44487"><ele>221.0</ele><time>2026-04-11T04:22:59.993Z</time></trkpt><trkpt lat="43.33583" lon="11.4448017"><ele>221.0</ele><time>2026-04-11T04:23:01.992Z</time></trkpt><trkpt lat="43.3357783" lon="11.444715"><ele>221.0</ele><time>2026-04-11T04:23:04.993Z</time></trkpt><trkpt lat="43.335735" lon="11.444625"><ele>221.00000000000003</ele><time>2026-04-11T04:23:07.992Z</time></trkpt><trkpt lat="43.33569" lon="11.444555"><ele>221.0</ele><time>2026-04-11T04:23:10.992Z</time></trkpt><trkpt lat="43.3356417" lon="11.44447"><ele>221.14285714285717</ele><time>2026-04-11T04:23:13.992Z</time></trkpt><trkpt lat="43.3355917" lon="11.4443917"><ele>221.28571428571428</ele><time>2026-04-11T04:23:16.993Z</time></trkpt><trkpt lat="43.3355483" lon="11.44431"><ele>221.42857142857144</ele><time>2026-04-11T04:23:19.992Z</time></trkpt><trkpt lat="43.3354917" lon="11.444215"><ele>221.57142857142858</ele><time>2026-04-11T04:23:22.993Z</time></trkpt><trkpt lat="43.3354583" lon="11.4441367"><ele>221.71428571428572</ele><time>2026-04-11T04:23:24.992Z</time></trkpt><trkpt lat="43.3354233" lon="11.4440567"><ele>221.85714285714286</ele><time>2026-04-11T04:23:26.992Z</time></trkpt><trkpt lat="43.3353883" lon="11.4439833"><ele>222.0</ele><time>2026-04-11T04:23:28.992Z</time></trkpt><trkpt lat="43.335345" lon="11.443905"><ele>222.0</ele><time>2026-04-11T04:23:30.992Z</time></trkpt><trkpt lat="43.335295" lon="11.4438283"><ele>222.0</ele><time>2026-04-11T04:23:32.992Z</time></trkpt><trkpt lat="43.33524" lon="11.4437217"><ele>222.0</ele><time>2026-04-11T04:23:35.992Z</time></trkpt><trkpt lat="43.3352" lon="11.4436467"><ele>222.0</ele><time>2026-04-11T04:23:37.992Z</time></trkpt><trkpt lat="43.3351567" lon="11.44353"><ele>222.0</ele><time>2026-04-11T04:23:39.992Z</time></trkpt><trkpt lat="43.3351233" lon="11.4433767"><ele>222.0</ele><time>2026-04-11T04:23:41.992Z</time></trkpt><trkpt lat="43.3351033" lon="11.4432167"><ele>221.83333333333334</ele><time>2026-04-11T04:23:43.992Z</time></trkpt><trkpt lat="43.3351" lon="11.4430917"><ele>221.66666666666669</ele><time>2026-04-11T04:23:45.992Z</time></trkpt><trkpt lat="43.3351" lon="11.4429783"><ele>221.5</ele><time>2026-04-11T04:23:47.992Z</time></trkpt><trkpt lat="43.3351183" lon="11.4428483"><ele>221.33333333333334</ele><time>2026-04-11T04:23:49.992Z</time></trkpt><trkpt lat="43.3351417" lon="11.4427067"><ele>221.16666666666669</ele><time>2026-04-11T04:23:51.992Z</time></trkpt><trkpt lat="43.3351633" lon="11.442625"><ele>221.0</ele><time>2026-04-11T04:23:52.992Z</time></trkpt><trkpt lat="43.33519" lon="11.4425317"><ele>219.50000000000003</ele><time>2026-04-11T04:23:53.992Z</time></trkpt><trkpt lat="43.335215" lon="11.44243"><ele>218.0</ele><time>2026-04-11T04:23:54.992Z</time></trkpt><trkpt lat="43.3352383" lon="11.4423233"><ele>216.5</ele><time>2026-04-11T04:23:55.992Z</time></trkpt><trkpt lat="43.3352583" lon="11.442215"><ele>215.0</ele><time>2026-04-11T04:23:56.992Z</time></trkpt><trkpt lat="43.335275" lon="11.442105"><ele>213.50000000000003</ele><time>2026-04-11T04:23:57.992Z</time></trkpt><trkpt lat="43.335285" lon="11.441995"><ele>212.0</ele><time>2026-04-11T04:23:58.993Z</time></trkpt><trkpt lat="43.335285" lon="11.4418933"><ele>212.00000000000003</ele><time>2026-04-11T04:23:59.992Z</time></trkpt><trkpt lat="43.3352733" lon="11.4417883"><ele>212.0</ele><time>2026-04-11T04:24:00.992Z</time></trkpt><trkpt lat="43.3352533" lon="11.4416983"><ele>212.0</ele><time>2026-04-11T04:24:01.993Z</time></trkpt><trkpt lat="43.3352267" lon="11.441615"><ele>212.0</ele><time>2026-04-11T04:24:02.992Z</time></trkpt><trkpt lat="43.3352017" lon="11.441515"><ele>212.00000000000003</ele><time>2026-04-11T04:24:03.993Z</time></trkpt><trkpt lat="43.3351783" lon="11.4414283"><ele>212.0</ele><time>2026-04-11T04:24:04.993Z</time></trkpt><trkpt lat="43.3351433" lon="11.4412817"><ele>213.16666666666669</ele><time>2026-04-11T04:24:06.992Z</time></trkpt><trkpt lat="43.3351333" lon="11.4411783"><ele>214.33333333333334</ele><time>2026-04-11T04:24:08.992Z</time></trkpt><trkpt lat="43.3351417" lon="11.44109"><ele>215.5</ele><time>2026-04-11T04:24:10.992Z</time></trkpt><trkpt lat="43.3351517" lon="11.4409817"><ele>216.66666666666669</ele><time>2026-04-11T04:24:13.993Z</time></trkpt><trkpt lat="43.3351533" lon="11.440895"><ele>217.83333333333334</ele><time>2026-04-11T04:24:15.993Z</time></trkpt><trkpt lat="43.335155" lon="11.44078"><ele>219.0</ele><time>2026-04-11T04:24:18.992Z</time></trkpt><trkpt lat="43.3351467" lon="11.4406617"><ele>219.0</ele><time>2026-04-11T04:24:21.993Z</time></trkpt><trkpt lat="43.3351317" lon="11.440565"><ele>219.0</ele><time>2026-04-11T04:24:24.992Z</time></trkpt><trkpt lat="43.33511" lon="11.4404833"><ele>219.0</ele><time>2026-04-11T04:24:28.992Z</time></trkpt><trkpt lat="43.33508" lon="11.4403983"><ele>219.0</ele><time>2026-04-11T04:24:33.992Z</time></trkpt><trkpt lat="43.3350583" lon="11.4403167"><ele>219.0</ele><time>2026-04-11T04:24:36.992Z</time></trkpt><trkpt lat="43.3350133" lon="11.440255"><ele>219.0</ele><time>2026-04-11T04:24:40.993Z</time></trkpt><trkpt lat="43.3349917" lon="11.4401533"><ele>219.0</ele><time>2026-04-11T04:24:44.992Z</time></trkpt><trkpt lat="43.3349683" lon="11.4400517"><ele>219.71428571428572</ele><time>2026-04-11T04:24:49.992Z</time></trkpt><trkpt lat="43.3349333" lon="11.43996"><ele>220.42857142857142</ele><time>2026-04-11T04:24:54.993Z</time></trkpt><trkpt lat="43.3349117" lon="11.4398633"><ele>221.14285714285714</ele><time>2026-04-11T04:24:59.992Z</time></trkpt><trkpt lat="43.3348667" lon="11.4397967"><ele>221.85714285714286</ele><time>2026-04-11T04:25:02.993Z</time></trkpt><trkpt lat="43.3348383" lon="11.4397033"><ele>222.57142857142856</ele><time>2026-04-11T04:25:06.992Z</time></trkpt><trkpt lat="43.3348017" lon="11.4395983"><ele>223.28571428571428</ele><time>2026-04-11T04:25:10.993Z</time></trkpt><trkpt lat="43.3347633" lon="11.43951"><ele>224.0</ele><time>2026-04-11T04:25:14.992Z</time></trkpt><trkpt lat="43.334715" lon="11.4394517"><ele>225.66666666666669</ele><time>2026-04-11T04:25:16.992Z</time></trkpt><trkpt lat="43.33466" lon="11.439375"><ele>227.33333333333334</ele><time>2026-04-11T04:25:19.992Z</time></trkpt><trkpt lat="43.3345933" lon="11.4393083"><ele>229.0</ele><time>2026-04-11T04:25:22.992Z</time></trkpt><trkpt lat="43.3345367" lon="11.4392283"><ele>230.66666666666669</ele><time>2026-04-11T04:25:26.992Z</time></trkpt><trkpt lat="43.3344917" lon="11.4391533"><ele>232.33333333333334</ele><time>2026-04-11T04:25:29.992Z</time></trkpt><trkpt lat="43.334445" lon="11.439085"><ele>234.0</ele><time>2026-04-11T04:25:32.992Z</time></trkpt><trkpt lat="43.3343733" lon="11.4390133"><ele>234.0</ele><time>2026-04-11T04:25:35.992Z</time></trkpt><trkpt lat="43.3343067" lon="11.43898"><ele>234.0</ele><time>2026-04-11T04:25:38.992Z</time></trkpt><trkpt lat="43.3342417" lon="11.4389417"><ele>234.0</ele><time>2026-04-11T04:25:41.992Z</time></trkpt><trkpt lat="43.3341633" lon="11.43889"><ele>234.0</ele><time>2026-04-11T04:25:45.993Z</time></trkpt><trkpt lat="43.3340917" lon="11.4388317"><ele>234.0</ele><time>2026-04-11T04:25:48.992Z</time></trkpt><trkpt lat="43.3340317" lon="11.4387433"><ele>234.0</ele><time>2026-04-11T04:25:51.992Z</time></trkpt><trkpt lat="43.3339867" lon="11.4386733"><ele>233.71428571428572</ele><time>2026-04-11T04:25:53.992Z</time></trkpt><trkpt lat="43.3339433" lon="11.438605"><ele>233.42857142857144</ele><time>2026-04-11T04:25:55.992Z</time></trkpt><trkpt lat="43.333895" lon="11.4385333"><ele>233.14285714285717</ele><time>2026-04-11T04:25:57.992Z</time></trkpt><trkpt lat="43.3338467" lon="11.4384583"><ele>232.8571428571429</ele><time>2026-04-11T04:25:59.993Z</time></trkpt><trkpt lat="43.3338033" lon="11.438395"><ele>232.57142857142858</ele><time>2026-04-11T04:26:01.992Z</time></trkpt><trkpt lat="43.3337733" lon="11.438315"><ele>232.28571428571433</ele><time>2026-04-11T04:26:03.992Z</time></trkpt><trkpt lat="43.333745" lon="11.4382367"><ele>232.00000000000003</ele><time>2026-04-11T04:26:05.992Z</time></trkpt><trkpt lat="43.333715" lon="11.4381333"><ele>232.5714285714286</ele><time>2026-04-11T04:26:08.992Z</time></trkpt><trkpt lat="43.333685" lon="11.4380267"><ele>233.14285714285717</ele><time>2026-04-11T04:26:12.992Z</time></trkpt><trkpt lat="43.3336717" lon="11.437935"><ele>233.71428571428572</ele><time>2026-04-11T04:26:15.993Z</time></trkpt><trkpt lat="43.3336633" lon="11.4378467"><ele>234.2857142857143</ele><time>2026-04-11T04:26:18.992Z</time></trkpt><trkpt lat="43.33365" lon="11.43774"><ele>234.8571428571429</ele><time>2026-04-11T04:26:22.992Z</time></trkpt><trkpt lat="43.333645" lon="11.43764"><ele>235.42857142857142</ele><time>2026-04-11T04:26:26.992Z</time></trkpt><trkpt lat="43.3336417" lon="11.4375467"><ele>236.0</ele><time>2026-04-11T04:26:29.992Z</time></trkpt><trkpt lat="43.3336433" lon="11.4374483"><ele>236.66666666666669</ele><time>2026-04-11T04:26:32.992Z</time></trkpt><trkpt lat="43.3336417" lon="11.4373617"><ele>237.33333333333334</ele><time>2026-04-11T04:26:35.992Z</time></trkpt><trkpt lat="43.33363" lon="11.437245"><ele>238.0</ele><time>2026-04-11T04:26:39.992Z</time></trkpt><trkpt lat="43.33362" lon="11.4371517"><ele>238.66666666666669</ele><time>2026-04-11T04:26:42.992Z</time></trkpt><trkpt lat="43.3335967" lon="11.4370683"><ele>239.33333333333334</ele><time>2026-04-11T04:26:45.993Z</time></trkpt><trkpt lat="43.3335833" lon="11.4369533"><ele>240.0</ele><time>2026-04-11T04:26:49.992Z</time></trkpt><trkpt lat="43.3335733" lon="11.4368367"><ele>240.33333333333334</ele><time>2026-04-11T04:26:59.992Z</time></trkpt><trkpt lat="43.3335517" lon="11.436725"><ele>240.66666666666669</ele><time>2026-04-11T04:27:02.992Z</time></trkpt><trkpt lat="43.33354" lon="11.436625"><ele>241.0</ele><time>2026-04-11T04:27:04.992Z</time></trkpt><trkpt lat="43.3335383" lon="11.43653"><ele>241.33333333333334</ele><time>2026-04-11T04:27:06.992Z</time></trkpt><trkpt lat="43.3335167" lon="11.4364383"><ele>241.66666666666669</ele><time>2026-04-11T04:27:08.992Z</time></trkpt><trkpt lat="43.33351" lon="11.436335"><ele>242.0</ele><time>2026-04-11T04:27:10.992Z</time></trkpt><trkpt lat="43.3335067" lon="11.4362083"><ele>242.00000000000003</ele><time>2026-04-11T04:27:12.992Z</time></trkpt><trkpt lat="43.3335017" lon="11.4360767"><ele>242.0</ele><time>2026-04-11T04:27:14.992Z</time></trkpt><trkpt lat="43.3334917" lon="11.4359517"><ele>242.0</ele><time>2026-04-11T04:27:16.992Z</time></trkpt><trkpt lat="43.3334817" lon="11.435835"><ele>242.0</ele><time>2026-04-11T04:27:18.992Z</time></trkpt><trkpt lat="43.3334867" lon="11.43572"><ele>242.00000000000003</ele><time>2026-04-11T04:27:20.992Z</time></trkpt><trkpt lat="43.3335067" lon="11.4355983"><ele>242.0</ele><time>2026-04-11T04:27:22.992Z</time></trkpt><trkpt lat="43.3335283" lon="11.4354883"><ele>241.50000000000003</ele><time>2026-04-11T04:27:24.993Z</time></trkpt><trkpt lat="43.3335567" lon="11.4353933"><ele>241.0</ele><time>2026-04-11T04:27:26.992Z</time></trkpt><trkpt lat="43.333595" lon="11.4352883"><ele>240.5</ele><time>2026-04-11T04:27:28.992Z</time></trkpt><trkpt lat="43.3336417" lon="11.4351817"><ele>240.0</ele><time>2026-04-11T04:27:30.992Z</time></trkpt><trkpt lat="43.3336833" lon="11.4350667"><ele>239.50000000000003</ele><time>2026-04-11T04:27:32.992Z</time></trkpt><trkpt lat="43.3337133" lon="11.4349467"><ele>239.0</ele><time>2026-04-11T04:27:34.992Z</time></trkpt><trkpt lat="43.3337467" lon="11.4348217"><ele>239.00000000000003</ele><time>2026-04-11T04:27:36.992Z</time></trkpt><trkpt lat="43.33379" lon="11.4347"><ele>239.0</ele><time>2026-04-11T04:27:38.992Z</time></trkpt><trkpt lat="43.3338167" lon="11.43458"><ele>239.0</ele><time>2026-04-11T04:27:40.992Z</time></trkpt><trkpt lat="43.3338433" lon="11.434465"><ele>239.0</ele><time>2026-04-11T04:27:42.992Z</time></trkpt><trkpt lat="43.33386" lon="11.4343583"><ele>239.00000000000003</ele><time>2026-04-11T04:27:44.992Z</time></trkpt><trkpt lat="43.33387" lon="11.4342583"><ele>239.0</ele><time>2026-04-11T04:27:46.992Z</time></trkpt><trkpt lat="43.3338667" lon="11.4341633"><ele>239.66666666666669</ele><time>2026-04-11T04:27:48.993Z</time></trkpt><trkpt lat="43.3338683" lon="11.4340517"><ele>240.33333333333334</ele><time>2026-04-11T04:27:50.992Z</time></trkpt><trkpt lat="43.33385" lon="11.433945"><ele>241.0</ele><time>2026-04-11T04:27:52.992Z</time></trkpt><trkpt lat="43.3338233" lon="11.433855"><ele>241.66666666666669</ele><time>2026-04-11T04:27:54.992Z</time></trkpt><trkpt lat="43.3337683" lon="11.4337567"><ele>242.33333333333334</ele><time>2026-04-11T04:27:57.992Z</time></trkpt><trkpt lat="43.333725" lon="11.4336883"><ele>243.0</ele><time>2026-04-11T04:27:59.993Z</time></trkpt><trkpt lat="43.3336833" lon="11.4336133"><ele>244.16666666666666</ele><time>2026-04-11T04:28:01.992Z</time></trkpt><trkpt lat="43.333625" lon="11.4335117"><ele>245.33333333333331</ele><time>2026-04-11T04:28:04.993Z</time></trkpt><trkpt lat="43.3335817" lon="11.4334"><ele>246.5</ele><time>2026-04-11T04:28:07.992Z</time></trkpt><trkpt lat="43.3335683" lon="11.4333017"><ele>247.66666666666666</ele><time>2026-04-11T04:28:09.992Z</time></trkpt><trkpt lat="43.3336133" lon="11.4332167"><ele>248.83333333333331</ele><time>2026-04-11T04:28:11.993Z</time></trkpt><trkpt lat="43.3336767" lon="11.4331683"><ele>250.0</ele><time>2026-04-11T04:28:13.992Z</time></trkpt><trkpt lat="43.3337433" lon="11.4331333"><ele>249.99999999999997</ele><time>2026-04-11T04:28:15.992Z</time></trkpt><trkpt lat="43.3338217" lon="11.4330967"><ele>250.0</ele><time>2026-04-11T04:28:17.992Z</time></trkpt><trkpt lat="43.3339033" lon="11.43306"><ele>250.0</ele><time>2026-04-11T04:28:19.993Z</time></trkpt><trkpt lat="43.333975" lon="11.43301"><ele>250.0</ele><time>2026-04-11T04:28:21.993Z</time></trkpt><trkpt lat="43.3340633" lon="11.4329617"><ele>249.99999999999997</ele><time>2026-04-11T04:28:23.993Z</time></trkpt><trkpt lat="43.3341517" lon="11.4329133"><ele>250.0</ele><time>2026-04-11T04:28:25.993Z</time></trkpt><trkpt lat="43.3342383" lon="11.4328667"><ele>250.16666666666666</ele><time>2026-04-11T04:28:27.993Z</time></trkpt><trkpt lat="43.33432" lon="11.4328267"><ele>250.33333333333331</ele><time>2026-04-11T04:28:29.993Z</time></trkpt><trkpt lat="43.3343967" lon="11.4327667"><ele>250.5</ele><time>2026-04-11T04:28:31.993Z</time></trkpt><trkpt lat="43.3344733" lon="11.43272"><ele>250.66666666666669</ele><time>2026-04-11T04:28:33.993Z</time></trkpt><trkpt lat="43.3345583" lon="11.4326867"><ele>250.83333333333334</ele><time>2026-04-11T04:28:35.993Z</time></trkpt><trkpt lat="43.33463" lon="11.4326333"><ele>251.0</ele><time>2026-04-11T04:28:37.994Z</time></trkpt><trkpt lat="43.334715" lon="11.4325767"><ele>251.20000000000002</ele><time>2026-04-11T04:28:39.993Z</time></trkpt><trkpt lat="43.3348033" lon="11.43254"><ele>251.40000000000003</ele><time>2026-04-11T04:28:41.994Z</time></trkpt><trkpt lat="43.33489" lon="11.4325033"><ele>251.6</ele><time>2026-04-11T04:28:43.994Z</time></trkpt><trkpt lat="43.3349783" lon="11.432465"><ele>251.8</ele><time>2026-04-11T04:28:45.993Z</time></trkpt><trkpt lat="43.335055" lon="11.432415"><ele>252.0</ele><time>2026-04-11T04:28:47.993Z</time></trkpt><trkpt lat="43.3351433" lon="11.43238"><ele>252.0</ele><time>2026-04-11T04:28:49.993Z</time></trkpt><trkpt lat="43.3352183" lon="11.4323317"><ele>252.0</ele><time>2026-04-11T04:28:51.993Z</time></trkpt><trkpt lat="43.3353017" lon="11.4323017"><ele>252.0</ele><time>2026-04-11T04:28:53.993Z</time></trkpt><trkpt lat="43.335385" lon="11.432265"><ele>252.0</ele><time>2026-04-11T04:28:55.994Z</time></trkpt><trkpt lat="43.3354517" lon="11.4322067"><ele>252.0</ele><time>2026-04-11T04:28:57.993Z</time></trkpt><trkpt lat="43.335525" lon="11.4321633"><ele>252.0</ele><time>2026-04-11T04:28:59.993Z</time></trkpt><trkpt lat="43.33559" lon="11.432105"><ele>252.66666666666666</ele><time>2026-04-11T04:29:01.993Z</time></trkpt><trkpt lat="43.335655" lon="11.432035"><ele>253.33333333333331</ele><time>2026-04-11T04:29:03.993Z</time></trkpt><trkpt lat="43.33575" lon="11.4320283"><ele>254.0</ele><time>2026-04-11T04:36:44.993Z</time></trkpt><trkpt lat="43.3358233" lon="11.432035"><ele>254.66666666666666</ele><time>2026-04-11T04:36:47.993Z</time></trkpt><trkpt lat="43.3358933" lon="11.43199"><ele>255.33333333333331</ele><time>2026-04-11T04:36:49.993Z</time></trkpt><trkpt lat="43.3359717" lon="11.4319333"><ele>256.0</ele><time>2026-04-11T04:36:51.993Z</time></trkpt><trkpt lat="43.3360583" lon="11.4318733"><ele>256.0</ele><time>2026-04-11T04:36:53.994Z</time></trkpt><trkpt lat="43.3361567" lon="11.431825"><ele>256.0</ele><time>2026-04-11T04:36:55.993Z</time></trkpt><trkpt lat="43.3362533" lon="11.43176"><ele>256.0</ele><time>2026-04-11T04:36:57.993Z</time></trkpt><trkpt lat="43.3363617" lon="11.4316933"><ele>256.0</ele><time>2026-04-11T04:36:59.993Z</time></trkpt><trkpt lat="43.3364233" lon="11.4316583"><ele>256.0</ele><time>2026-04-11T04:37:00.993Z</time></trkpt><trkpt lat="43.3364917" lon="11.4316183"><ele>255.42857142857142</ele><time>2026-04-11T04:37:01.993Z</time></trkpt><trkpt lat="43.33656" lon="11.4315867"><ele>254.85714285714283</ele><time>2026-04-11T04:37:02.993Z</time></trkpt><trkpt lat="43.33663" lon="11.4315583"><ele>254.28571428571428</ele><time>2026-04-11T04:37:03.994Z</time></trkpt><trkpt lat="43.336695" lon="11.4315267"><ele>253.71428571428572</ele><time>2026-04-11T04:37:04.993Z</time></trkpt><trkpt lat="43.336765" lon="11.4314917"><ele>253.14285714285714</ele><time>2026-04-11T04:37:05.993Z</time></trkpt><trkpt lat="43.3368417" lon="11.4314583"><ele>252.57142857142856</ele><time>2026-04-11T04:37:06.994Z</time></trkpt><trkpt lat="43.33691" lon="11.43143"><ele>252.0</ele><time>2026-04-11T04:37:07.993Z</time></trkpt><trkpt lat="43.336985" lon="11.43141"><ele>252.0</ele><time>2026-04-11T04:37:08.993Z</time></trkpt><trkpt lat="43.337065" lon="11.4313883"><ele>252.0</ele><time>2026-04-11T04:37:09.993Z</time></trkpt><trkpt lat="43.3371433" lon="11.4313717"><ele>252.0</ele><time>2026-04-11T04:37:10.993Z</time></trkpt><trkpt lat="43.33722" lon="11.4313617"><ele>252.0</ele><time>2026-04-11T04:37:11.993Z</time></trkpt><trkpt lat="43.33729" lon="11.4313617"><ele>252.0</ele><time>2026-04-11T04:37:12.993Z</time></trkpt><trkpt lat="43.3373583" lon="11.4313667"><ele>252.0</ele><time>2026-04-11T04:37:13.994Z</time></trkpt><trkpt lat="43.3374767" lon="11.4313733"><ele>251.33333333333334</ele><time>2026-04-11T04:37:15.993Z</time></trkpt><trkpt lat="43.337595" lon="11.4313767"><ele>250.66666666666669</ele><time>2026-04-11T04:37:17.993Z</time></trkpt><trkpt lat="43.3377167" lon="11.43138"><ele>250.0</ele><time>2026-04-11T04:37:19.993Z</time></trkpt><trkpt lat="43.3377833" lon="11.431385"><ele>249.33333333333334</ele><time>2026-04-11T04:37:20.994Z</time></trkpt><trkpt lat="43.33785" lon="11.43139"><ele>248.66666666666669</ele><time>2026-04-11T04:37:21.993Z</time></trkpt><trkpt lat="43.3379133" lon="11.4313917"><ele>248.0</ele><time>2026-04-11T04:37:22.993Z</time></trkpt><trkpt lat="43.33798" lon="11.431395"><ele>248.33333333333334</ele><time>2026-04-11T04:37:23.994Z</time></trkpt><trkpt lat="43.3381033" lon="11.431395"><ele>248.66666666666669</ele><time>2026-04-11T04:37:25.994Z</time></trkpt><trkpt lat="43.3382267" lon="11.4314067"><ele>249.0</ele><time>2026-04-11T04:37:27.993Z</time></trkpt><trkpt lat="43.33829" lon="11.4314283"><ele>249.33333333333331</ele><time>2026-04-11T04:37:28.993Z</time></trkpt><trkpt lat="43.3383517" lon="11.4314533"><ele>249.66666666666666</ele><time>2026-04-11T04:37:29.993Z</time></trkpt><trkpt lat="43.33841" lon="11.4314883"><ele>250.0</ele><time>2026-04-11T04:37:30.993Z</time></trkpt><trkpt lat="43.338465" lon="11.4315317"><ele>250.0</ele><time>2026-04-11T04:37:31.994Z</time></trkpt><trkpt lat="43.3385217" lon="11.43158"><ele>250.0</ele><time>2026-04-11T04:37:32.993Z</time></trkpt><trkpt lat="43.33862" lon="11.4316867"><ele>250.0</ele><time>2026-04-11T04:37:34.993Z</time></trkpt><trkpt lat="43.33871" lon="11.431795"><ele>250.0</ele><time>2026-04-11T04:37:36.993Z</time></trkpt><trkpt lat="43.338805" lon="11.4319"><ele>250.0</ele><time>2026-04-11T04:37:38.993Z</time></trkpt><trkpt lat="43.338895" lon="11.4320067"><ele>250.0</ele><time>2026-04-11T04:37:40.993Z</time></trkpt><trkpt lat="43.338985" lon="11.4321183"><ele>250.0</ele><time>2026-04-11T04:37:42.994Z</time></trkpt><trkpt lat="43.339035" lon="11.432175"><ele>250.0</ele><time>2026-04-11T04:37:43.993Z</time></trkpt><trkpt lat="43.3391317" lon="11.4322767"><ele>250.0</ele><time>2026-04-11T04:37:45.993Z</time></trkpt><trkpt lat="43.3392283" lon="11.4323883"><ele>250.0</ele><time>2026-04-11T04:37:47.994Z</time></trkpt><trkpt lat="43.3393233" lon="11.4325117"><ele>250.0</ele><time>2026-04-11T04:37:49.993Z</time></trkpt><trkpt lat="43.3393667" lon="11.4325817"><ele>250.0</ele><time>2026-04-11T04:37:50.993Z</time></trkpt><trkpt lat="43.3394117" lon="11.4326567"><ele>250.0</ele><time>2026-04-11T04:37:51.993Z</time></trkpt><trkpt lat="43.3394467" lon="11.432735"><ele>250.0</ele><time>2026-04-11T04:37:52.993Z</time></trkpt><trkpt lat="43.3394883" lon="11.4328133"><ele>250.0</ele><time>2026-04-11T04:37:53.993Z</time></trkpt><trkpt lat="43.3395283" lon="11.4328833"><ele>250.0</ele><time>2026-04-11T04:37:54.993Z</time></trkpt><trkpt lat="43.3395633" lon="11.4329583"><ele>250.0</ele><time>2026-04-11T04:37:55.993Z</time></trkpt><trkpt lat="43.3396" lon="11.4330417"><ele>249.85714285714283</ele><time>2026-04-11T04:37:56.994Z</time></trkpt><trkpt lat="43.339635" lon="11.4331283"><ele>249.71428571428572</ele><time>2026-04-11T04:37:57.993Z</time></trkpt><trkpt lat="43.33967" lon="11.4332067"><ele>249.57142857142856</ele><time>2026-04-11T04:37:58.993Z</time></trkpt><trkpt lat="43.3397017" lon="11.433285"><ele>249.42857142857142</ele><time>2026-04-11T04:37:59.993Z</time></trkpt><trkpt lat="43.3397283" lon="11.433365"><ele>249.28571428571428</ele><time>2026-04-11T04:38:00.993Z</time></trkpt><trkpt lat="43.33976" lon="11.4334483"><ele>249.14285714285714</ele><time>2026-04-11T04:38:01.993Z</time></trkpt><trkpt lat="43.3397967" lon="11.4335333"><ele>249.0</ele><time>2026-04-11T04:38:02.993Z</time></trkpt><trkpt lat="43.3398367" lon="11.4336117"><ele>249.0</ele><time>2026-04-11T04:38:03.993Z</time></trkpt><trkpt lat="43.339875" lon="11.4336983"><ele>249.0</ele><time>2026-04-11T04:38:04.993Z</time></trkpt><trkpt lat="43.3399117" lon="11.4337817"><ele>249.0</ele><time>2026-04-11T04:38:05.993Z</time></trkpt><trkpt lat="43.3399467" lon="11.4338667"><ele>249.0</ele><time>2026-04-11T04:38:06.994Z</time></trkpt><trkpt lat="43.33998" lon="11.4339633"><ele>249.0</ele><time>2026-04-11T04:38:07.993Z</time></trkpt><trkpt lat="43.3400167" lon="11.4340617"><ele>249.0</ele><time>2026-04-11T04:38:08.993Z</time></trkpt><trkpt lat="43.340055" lon="11.4341583"><ele>249.0</ele><time>2026-04-11T04:38:09.993Z</time></trkpt><trkpt lat="43.3400933" lon="11.4342333"><ele>249.0</ele><time>2026-04-11T04:38:10.993Z</time></trkpt><trkpt lat="43.340135" lon="11.434315"><ele>249.0</ele><time>2026-04-11T04:38:11.994Z</time></trkpt><trkpt lat="43.34018" lon="11.434395"><ele>249.0</ele><time>2026-04-11T04:38:12.994Z</time></trkpt><trkpt lat="43.3402283" lon="11.434465"><ele>249.0</ele><time>2026-04-11T04:38:13.993Z</time></trkpt><trkpt lat="43.3402833" lon="11.4345383"><ele>249.0</ele><time>2026-04-11T04:38:14.994Z</time></trkpt><trkpt lat="43.3403917" lon="11.4345967"><ele>249.0</ele><time>2026-04-11T04:38:16.993Z</time></trkpt><trkpt lat="43.3404533" lon="11.43462"><ele>248.99999999999997</ele><time>2026-04-11T04:38:17.993Z</time></trkpt><trkpt lat="43.3405267" lon="11.434645"><ele>249.0</ele><time>2026-04-11T04:38:18.993Z</time></trkpt><trkpt lat="43.3406017" lon="11.4346517"><ele>249.0</ele><time>2026-04-11T04:38:19.993Z</time></trkpt><trkpt lat="43.3406767" lon="11.43464"><ele>248.99999999999997</ele><time>2026-04-11T04:38:20.994Z</time></trkpt><trkpt lat="43.34075" lon="11.4346183"><ele>249.0</ele><time>2026-04-11T04:38:21.993Z</time></trkpt><trkpt lat="43.3408283" lon="11.4346017"><ele>249.0</ele><time>2026-04-11T04:38:22.993Z</time></trkpt><trkpt lat="43.3409033" lon="11.43458"><ele>248.42857142857142</ele><time>2026-04-11T04:38:23.993Z</time></trkpt><trkpt lat="43.340975" lon="11.43455"><ele>247.85714285714283</ele><time>2026-04-11T04:38:24.993Z</time></trkpt><trkpt lat="43.3410433" lon="11.434525"><ele>247.28571428571428</ele><time>2026-04-11T04:38:25.993Z</time></trkpt><trkpt lat="43.3411083" lon="11.4345"><ele>246.71428571428572</ele><time>2026-04-11T04:38:26.993Z</time></trkpt><trkpt lat="43.341175" lon="11.434475"><ele>246.14285714285714</ele><time>2026-04-11T04:38:27.994Z</time></trkpt><trkpt lat="43.3412467" lon="11.4344517"><ele>245.57142857142856</ele><time>2026-04-11T04:38:28.993Z</time></trkpt><trkpt lat="43.341315" lon="11.4344283"><ele>245.0</ele><time>2026-04-11T04:38:29.993Z</time></trkpt><trkpt lat="43.3413817" lon="11.4344067"><ele>245.2</ele><time>2026-04-11T04:38:30.993Z</time></trkpt><trkpt lat="43.3414483" lon="11.4343817"><ele>245.4</ele><time>2026-04-11T04:38:31.993Z</time></trkpt><trkpt lat="43.3415133" lon="11.4343633"><ele>245.60000000000002</ele><time>2026-04-11T04:38:32.993Z</time></trkpt><trkpt lat="43.3416367" lon="11.4343267"><ele>245.8</ele><time>2026-04-11T04:38:34.993Z</time></trkpt><trkpt lat="43.3417533" lon="11.434285"><ele>246.0</ele><time>2026-04-11T04:38:36.994Z</time></trkpt><trkpt lat="43.341865" lon="11.4342367"><ele>246.0</ele><time>2026-04-11T04:38:38.993Z</time></trkpt><trkpt lat="43.3419717" lon="11.4342083"><ele>246.0</ele><time>2026-04-11T04:38:40.993Z</time></trkpt><trkpt lat="43.3420483" lon="11.4341867"><ele>246.0</ele><time>2026-04-11T04:38:42.994Z</time></trkpt><trkpt lat="43.342125" lon="11.434155"><ele>246.0</ele><time>2026-04-11T04:39:36.994Z</time></trkpt><trkpt lat="43.3422167" lon="11.4341283"><ele>246.0</ele><time>2026-04-11T04:39:39.993Z</time></trkpt><trkpt lat="43.342295" lon="11.4340867"><ele>246.0</ele><time>2026-04-11T04:39:41.993Z</time></trkpt><trkpt lat="43.34238" lon="11.4340417"><ele>246.16666666666666</ele><time>2026-04-11T04:39:43.993Z</time></trkpt><trkpt lat="43.342465" lon="11.43401"><ele>246.33333333333331</ele><time>2026-04-11T04:39:45.993Z</time></trkpt><trkpt lat="43.3425483" lon="11.4339783"><ele>246.5</ele><time>2026-04-11T04:39:47.993Z</time></trkpt><trkpt lat="43.34263" lon="11.4339533"><ele>246.66666666666666</ele><time>2026-04-11T04:39:49.993Z</time></trkpt><trkpt lat="43.3427033" lon="11.4339217"><ele>246.83333333333331</ele><time>2026-04-11T04:39:51.993Z</time></trkpt><trkpt lat="43.342775" lon="11.4339"><ele>247.0</ele><time>2026-04-11T04:39:53.993Z</time></trkpt><trkpt lat="43.3428383" lon="11.4338833"><ele>246.99999999999997</ele><time>2026-04-11T04:39:55.994Z</time></trkpt><trkpt lat="43.3429183" lon="11.4338683"><ele>247.0</ele><time>2026-04-11T04:39:58.993Z</time></trkpt><trkpt lat="43.3429817" lon="11.433865"><ele>247.0</ele><time>2026-04-11T04:40:00.993Z</time></trkpt><trkpt lat="43.3430567" lon="11.4338683"><ele>247.0</ele><time>2026-04-11T04:40:02.993Z</time></trkpt><trkpt lat="43.34314" lon="11.433875"><ele>246.99999999999997</ele><time>2026-04-11T04:40:04.993Z</time></trkpt><trkpt lat="43.343225" lon="11.4338933"><ele>247.0</ele><time>2026-04-11T04:40:06.993Z</time></trkpt><trkpt lat="43.3433083" lon="11.4339317"><ele>247.83333333333331</ele><time>2026-04-11T04:40:08.993Z</time></trkpt><trkpt lat="43.3433783" lon="11.4339833"><ele>248.66666666666666</ele><time>2026-04-11T04:40:10.993Z</time></trkpt><trkpt lat="43.343445" lon="11.4340567"><ele>249.5</ele><time>2026-04-11T04:40:12.993Z</time></trkpt><trkpt lat="43.343505" lon="11.434145"><ele>250.33333333333331</ele><time>2026-04-11T04:40:14.993Z</time></trkpt><trkpt lat="43.343555" lon="11.4342367"><ele>251.16666666666666</ele><time>2026-04-11T04:40:16.994Z</time></trkpt><trkpt lat="43.3435967" lon="11.4343067"><ele>252.0</ele><time>2026-04-11T04:40:18.993Z</time></trkpt><trkpt lat="43.34365" lon="11.4343817"><ele>252.0</ele><time>2026-04-11T04:40:20.993Z</time></trkpt><trkpt lat="43.34369" lon="11.4344617"><ele>252.0</ele><time>2026-04-11T04:40:22.993Z</time></trkpt><trkpt lat="43.3437317" lon="11.43453"><ele>252.0</ele><time>2026-04-11T04:40:24.993Z</time></trkpt><trkpt lat="43.343775" lon="11.4346017"><ele>252.0</ele><time>2026-04-11T04:40:26.993Z</time></trkpt><trkpt lat="43.34382" lon="11.4346683"><ele>252.0</ele><time>2026-04-11T04:40:28.993Z</time></trkpt><trkpt lat="43.343875" lon="11.4347267"><ele>252.0</ele><time>2026-04-11T04:40:30.993Z</time></trkpt><trkpt lat="43.3439383" lon="11.43481"><ele>252.0</ele><time>2026-04-11T04:40:33.994Z</time></trkpt><trkpt lat="43.3439817" lon="11.4348783"><ele>253.0</ele><time>2026-04-11T04:40:35.993Z</time></trkpt><trkpt lat="43.3440267" lon="11.43496"><ele>254.0</ele><time>2026-04-11T04:40:37.993Z</time></trkpt><trkpt lat="43.3440833" lon="11.4350283"><ele>255.0</ele><time>2026-04-11T04:40:39.994Z</time></trkpt><trkpt lat="43.344135" lon="11.4350867"><ele>256.0</ele><time>2026-04-11T04:40:41.993Z</time></trkpt><trkpt lat="43.3441983" lon="11.435155"><ele>257.0</ele><time>2026-04-11T04:40:43.993Z</time></trkpt><trkpt lat="43.3442617" lon="11.43523"><ele>258.0</ele><time>2026-04-11T04:40:45.993Z</time></trkpt><trkpt lat="43.3443217" lon="11.4352933"><ele>258.0</ele><time>2026-04-11T04:40:47.993Z</time></trkpt><trkpt lat="43.3444" lon="11.4353633"><ele>258.0</ele><time>2026-04-11T04:40:50.993Z</time></trkpt><trkpt lat="43.3444717" lon="11.4354133"><ele>258.0</ele><time>2026-04-11T04:40:52.993Z</time></trkpt><trkpt lat="43.344535" lon="11.4354667"><ele>258.0</ele><time>2026-04-11T04:40:54.993Z</time></trkpt><trkpt lat="43.34461" lon="11.43551"><ele>258.0</ele><time>2026-04-11T04:40:56.993Z</time></trkpt><trkpt lat="43.34468" lon="11.4355417"><ele>258.0</ele><time>2026-04-11T04:40:58.993Z</time></trkpt><trkpt lat="43.3447583" lon="11.4355767"><ele>258.5</ele><time>2026-04-11T04:41:00.993Z</time></trkpt><trkpt lat="43.3448367" lon="11.4355967"><ele>259.0</ele><time>2026-04-11T04:41:02.993Z</time></trkpt><trkpt lat="43.34491" lon="11.4356133"><ele>259.5</ele><time>2026-04-11T04:41:04.993Z</time></trkpt><trkpt lat="43.3449783" lon="11.4356183"><ele>260.0</ele><time>2026-04-11T04:41:06.993Z</time></trkpt><trkpt lat="43.3450567" lon="11.4356183"><ele>260.5</ele><time>2026-04-11T04:41:08.993Z</time></trkpt><trkpt lat="43.3451367" lon="11.4356183"><ele>261.0</ele><time>2026-04-11T04:41:10.993Z</time></trkpt><trkpt lat="43.3452233" lon="11.4356183"><ele>261.0</ele><time>2026-04-11T04:41:12.993Z</time></trkpt><trkpt lat="43.345305" lon="11.435625"><ele>261.0</ele><time>2026-04-11T04:41:14.994Z</time></trkpt><trkpt lat="43.3453783" lon="11.4356267"><ele>261.0</ele><time>2026-04-11T04:41:16.993Z</time></trkpt><trkpt lat="43.3454467" lon="11.43562"><ele>261.0</ele><time>2026-04-11T04:41:18.993Z</time></trkpt><trkpt lat="43.3455217" lon="11.4356067"><ele>261.0</ele><time>2026-04-11T04:41:20.993Z</time></trkpt><trkpt lat="43.3456167" lon="11.43561"><ele>261.0</ele><time>2026-04-11T04:41:22.993Z</time></trkpt><trkpt lat="43.345725" lon="11.4356283"><ele>262.0</ele><time>2026-04-11T04:41:24.993Z</time></trkpt><trkpt lat="43.3458117" lon="11.4356783"><ele>263.0</ele><time>2026-04-11T04:41:26.993Z</time></trkpt><trkpt lat="43.34589" lon="11.4357383"><ele>264.0</ele><time>2026-04-11T04:41:28.993Z</time></trkpt><trkpt lat="43.345975" lon="11.4358083"><ele>265.0</ele><time>2026-04-11T04:41:30.993Z</time></trkpt><trkpt lat="43.3460667" lon="11.4358983"><ele>266.0</ele><time>2026-04-11T04:41:32.993Z</time></trkpt><trkpt lat="43.346165" lon="11.4359783"><ele>266.0</ele><time>2026-04-11T04:41:34.993Z</time></trkpt><trkpt lat="43.3462467" lon="11.4360567"><ele>266.0</ele><time>2026-04-11T04:41:36.993Z</time></trkpt><trkpt lat="43.3463367" lon="11.4361317"><ele>266.0</ele><time>2026-04-11T04:41:38.993Z</time></trkpt><trkpt lat="43.346435" lon="11.4362083"><ele>266.0</ele><time>2026-04-11T04:41:40.993Z</time></trkpt><trkpt lat="43.3465383" lon="11.4363183"><ele>266.0</ele><time>2026-04-11T04:41:42.993Z</time></trkpt><trkpt lat="43.3465883" lon="11.43638"><ele>265.7142857142857</ele><time>2026-04-11T04:41:43.994Z</time></trkpt><trkpt lat="43.3466417" lon="11.4364433"><ele>265.42857142857144</ele><time>2026-04-11T04:41:44.993Z</time></trkpt><trkpt lat="43.3466933" lon="11.4365083"><ele>265.1428571428571</ele><time>2026-04-11T04:41:45.993Z</time></trkpt><trkpt lat="43.3467417" lon="11.4365767"><ele>264.8571428571429</ele><time>2026-04-11T04:41:46.993Z</time></trkpt><trkpt lat="43.3467883" lon="11.436655"><ele>264.57142857142856</ele><time>2026-04-11T04:41:47.993Z</time></trkpt><trkpt lat="43.34684" lon="11.4367383"><ele>264.2857142857143</ele><time>2026-04-11T04:41:48.993Z</time></trkpt><trkpt lat="43.34689" lon="11.4368217"><ele>264.0</ele><time>2026-04-11T04:41:49.993Z</time></trkpt><trkpt lat="43.34694" lon="11.4368933"><ele>264.0</ele><time>2026-04-11T04:41:50.994Z</time></trkpt><trkpt lat="43.34699" lon="11.43697"><ele>264.0</ele><time>2026-04-11T04:41:51.994Z</time></trkpt><trkpt lat="43.347035" lon="11.4370533"><ele>264.0</ele><time>2026-04-11T04:41:52.993Z</time></trkpt><trkpt lat="43.347085" lon="11.437125"><ele>264.0</ele><time>2026-04-11T04:41:53.993Z</time></trkpt><trkpt lat="43.347135" lon="11.4372017"><ele>264.0</ele><time>2026-04-11T04:41:54.993Z</time></trkpt><trkpt lat="43.3471833" lon="11.4372867"><ele>264.0</ele><time>2026-04-11T04:41:55.993Z</time></trkpt><trkpt lat="43.3472517" lon="11.4373617"><ele>263.2857142857143</ele><time>2026-04-11T04:41:56.993Z</time></trkpt><trkpt lat="43.34729" lon="11.4374333"><ele>262.57142857142856</ele><time>2026-04-11T04:41:57.993Z</time></trkpt><trkpt lat="43.34733" lon="11.43751"><ele>261.8571428571429</ele><time>2026-04-11T04:41:58.993Z</time></trkpt><trkpt lat="43.3473683" lon="11.4375917"><ele>261.1428571428571</ele><time>2026-04-11T04:41:59.993Z</time></trkpt><trkpt lat="43.347415" lon="11.43766"><ele>260.42857142857144</ele><time>2026-04-11T04:42:00.993Z</time></trkpt><trkpt lat="43.3474517" lon="11.4377367"><ele>259.7142857142857</ele><time>2026-04-11T04:42:01.993Z</time></trkpt><trkpt lat="43.34749" lon="11.43781"><ele>259.0</ele><time>2026-04-11T04:42:02.994Z</time></trkpt><trkpt lat="43.3475283" lon="11.4378867"><ele>259.0</ele><time>2026-04-11T04:42:03.993Z</time></trkpt><trkpt lat="43.3475717" lon="11.4379583"><ele>259.0</ele><time>2026-04-11T04:42:04.993Z</time></trkpt><trkpt lat="43.3476167" lon="11.4380333"><ele>259.0</ele><time>2026-04-11T04:42:05.993Z</time></trkpt><trkpt lat="43.347665" lon="11.4381083"><ele>259.0</ele><time>2026-04-11T04:42:06.993Z</time></trkpt><trkpt lat="43.347715" lon="11.43818"><ele>259.0</ele><time>2026-04-11T04:42:07.993Z</time></trkpt><trkpt lat="43.3477683" lon="11.4382483"><ele>259.0</ele><time>2026-04-11T04:42:08.993Z</time></trkpt><trkpt lat="43.3478217" lon="11.4383117"><ele>259.0</ele><time>2026-04-11T04:42:09.993Z</time></trkpt><trkpt lat="43.3478767" lon="11.438365"><ele>259.0</ele><time>2026-04-11T04:42:10.993Z</time></trkpt><trkpt lat="43.3479383" lon="11.438405"><ele>259.0</ele><time>2026-04-11T04:42:11.993Z</time></trkpt><trkpt lat="43.3480083" lon="11.4384283"><ele>259.0</ele><time>2026-04-11T04:42:12.993Z</time></trkpt><trkpt lat="43.3480917" lon="11.4384383"><ele>259.0</ele><time>2026-04-11T04:42:13.993Z</time></trkpt><trkpt lat="43.3481767" lon="11.438445"><ele>259.0</ele><time>2026-04-11T04:42:14.993Z</time></trkpt><trkpt lat="43.3482567" lon="11.4384533"><ele>259.0</ele><time>2026-04-11T04:42:15.993Z</time></trkpt><trkpt lat="43.348335" lon="11.4384633"><ele>258.42857142857144</ele><time>2026-04-11T04:42:16.993Z</time></trkpt><trkpt lat="43.3484133" lon="11.43848"><ele>257.8571428571429</ele><time>2026-04-11T04:42:17.993Z</time></trkpt><trkpt lat="43.348485" lon="11.4384933"><ele>257.2857142857143</ele><time>2026-04-11T04:42:18.993Z</time></trkpt><trkpt lat="43.34856" lon="11.4385067"><ele>256.7142857142857</ele><time>2026-04-11T04:42:19.993Z</time></trkpt><trkpt lat="43.34863" lon="11.43852"><ele>256.14285714285717</ele><time>2026-04-11T04:42:20.993Z</time></trkpt><trkpt lat="43.3487017" lon="11.438535"><ele>255.57142857142858</ele><time>2026-04-11T04:42:21.993Z</time></trkpt><trkpt lat="43.3487717" lon="11.4385467"><ele>255.0</ele><time>2026-04-11T04:42:22.994Z</time></trkpt><trkpt lat="43.3488433" lon="11.43856"><ele>255.0</ele><time>2026-04-11T04:42:23.993Z</time></trkpt><trkpt lat="43.3489133" lon="11.438575"><ele>255.00000000000003</ele><time>2026-04-11T04:42:24.994Z</time></trkpt><trkpt lat="43.3489767" lon="11.4385883"><ele>255.0</ele><time>2026-04-11T04:42:25.993Z</time></trkpt><trkpt lat="43.3490417" lon="11.4386083"><ele>255.0</ele><time>2026-04-11T04:42:26.993Z</time></trkpt><trkpt lat="43.34911" lon="11.4386267"><ele>255.00000000000003</ele><time>2026-04-11T04:42:27.993Z</time></trkpt><trkpt lat="43.34918" lon="11.4386467"><ele>255.0</ele><time>2026-04-11T04:42:28.994Z</time></trkpt><trkpt lat="43.3492517" lon="11.4386717"><ele>255.0</ele><time>2026-04-11T04:42:29.993Z</time></trkpt><trkpt lat="43.3493233" lon="11.4386983"><ele>255.0</ele><time>2026-04-11T04:42:30.993Z</time></trkpt><trkpt lat="43.3493967" lon="11.4387417"><ele>255.0</ele><time>2026-04-11T04:42:31.993Z</time></trkpt><trkpt lat="43.3494567" lon="11.4387983"><ele>255.0</ele><time>2026-04-11T04:42:32.993Z</time></trkpt><trkpt lat="43.34951" lon="11.4388633"><ele>255.0</ele><time>2026-04-11T04:42:33.993Z</time></trkpt><trkpt lat="43.3495633" lon="11.4389433"><ele>255.0</ele><time>2026-04-11T04:42:34.993Z</time></trkpt><trkpt lat="43.3496133" lon="11.4390267"><ele>255.0</ele><time>2026-04-11T04:42:35.993Z</time></trkpt><trkpt lat="43.34966" lon="11.43912"><ele>254.33333333333334</ele><time>2026-04-11T04:42:36.993Z</time></trkpt><trkpt lat="43.3497067" lon="11.43921"><ele>253.66666666666669</ele><time>2026-04-11T04:42:37.993Z</time></trkpt><trkpt lat="43.3497567" lon="11.4393"><ele>253.0</ele><time>2026-04-11T04:42:38.993Z</time></trkpt><trkpt lat="43.3498017" lon="11.4393933"><ele>252.33333333333334</ele><time>2026-04-11T04:42:39.993Z</time></trkpt><trkpt lat="43.3498417" lon="11.4394817"><ele>251.66666666666669</ele><time>2026-04-11T04:42:40.993Z</time></trkpt><trkpt lat="43.349885" lon="11.4395733"><ele>251.0</ele><time>2026-04-11T04:42:41.993Z</time></trkpt><trkpt lat="43.3499433" lon="11.4396583"><ele>250.33333333333334</ele><time>2026-04-11T04:42:42.994Z</time></trkpt><trkpt lat="43.350005" lon="11.43974"><ele>249.66666666666669</ele><time>2026-04-11T04:42:43.993Z</time></trkpt><trkpt lat="43.350065" lon="11.4397983"><ele>249.0</ele><time>2026-04-11T04:42:44.993Z</time></trkpt><trkpt lat="43.3501383" lon="11.439845"><ele>248.33333333333331</ele><time>2026-04-11T04:42:45.993Z</time></trkpt><trkpt lat="43.3502" lon="11.4399017"><ele>247.66666666666666</ele><time>2026-04-11T04:42:46.993Z</time></trkpt><trkpt lat="43.3502617" lon="11.439955"><ele>247.0</ele><time>2026-04-11T04:42:47.993Z</time></trkpt><trkpt lat="43.350325" lon="11.440005"><ele>246.99999999999997</ele><time>2026-04-11T04:42:48.993Z</time></trkpt><trkpt lat="43.350395" lon="11.440035"><ele>247.0</ele><time>2026-04-11T04:42:49.994Z</time></trkpt><trkpt lat="43.3504783" lon="11.44008"><ele>247.0</ele><time>2026-04-11T04:42:50.993Z</time></trkpt><trkpt lat="43.350555" lon="11.4401067"><ele>247.0</ele><time>2026-04-11T04:42:51.994Z</time></trkpt><trkpt lat="43.35063" lon="11.4401217"><ele>246.99999999999997</ele><time>2026-04-11T04:42:52.993Z</time></trkpt><trkpt lat="43.350705" lon="11.4401217"><ele>247.0</ele><time>2026-04-11T04:42:53.993Z</time></trkpt><trkpt lat="43.3507867" lon="11.4401167"><ele>247.14285714285717</ele><time>2026-04-11T04:42:54.993Z</time></trkpt><trkpt lat="43.3508667" lon="11.4401017"><ele>247.28571428571428</ele><time>2026-04-11T04:42:55.993Z</time></trkpt><trkpt lat="43.3509433" lon="11.4400867"><ele>247.42857142857144</ele><time>2026-04-11T04:42:56.993Z</time></trkpt><trkpt lat="43.351015" lon="11.4400667"><ele>247.57142857142858</ele><time>2026-04-11T04:42:57.993Z</time></trkpt><trkpt lat="43.35108" lon="11.4400383"><ele>247.71428571428572</ele><time>2026-04-11T04:42:58.993Z</time></trkpt><trkpt lat="43.351145" lon="11.44"><ele>247.85714285714286</ele><time>2026-04-11T04:42:59.993Z</time></trkpt><trkpt lat="43.3512117" lon="11.4399583"><ele>248.0</ele><time>2026-04-11T04:43:00.993Z</time></trkpt><trkpt lat="43.3512733" lon="11.43992"><ele>248.0</ele><time>2026-04-11T04:43:01.993Z</time></trkpt><trkpt lat="43.35133" lon="11.43987"><ele>248.0</ele><time>2026-04-11T04:43:02.994Z</time></trkpt><trkpt lat="43.3514333" lon="11.4397683"><ele>248.0</ele><time>2026-04-11T04:43:04.993Z</time></trkpt><trkpt lat="43.35153" lon="11.4396817"><ele>248.0</ele><time>2026-04-11T04:43:06.993Z</time></trkpt><trkpt lat="43.351625" lon="11.439615"><ele>248.0</ele><time>2026-04-11T04:43:08.993Z</time></trkpt><trkpt lat="43.35171" lon="11.43955"><ele>248.50000000000003</ele><time>2026-04-11T04:43:10.993Z</time></trkpt><trkpt lat="43.3517933" lon="11.43948"><ele>249.0</ele><time>2026-04-11T04:43:12.993Z</time></trkpt><trkpt lat="43.351885" lon="11.43943"><ele>249.5</ele><time>2026-04-11T04:43:14.994Z</time></trkpt><trkpt lat="43.3519633" lon="11.4394"><ele>250.0</ele><time>2026-04-11T04:43:16.993Z</time></trkpt><trkpt lat="43.3520417" lon="11.4393733"><ele>250.50000000000003</ele><time>2026-04-11T04:43:18.993Z</time></trkpt><trkpt lat="43.3521217" lon="11.4393483"><ele>251.0</ele><time>2026-04-11T04:43:20.993Z</time></trkpt><trkpt lat="43.35219" lon="11.439315"><ele>252.16666666666669</ele><time>2026-04-11T04:43:22.993Z</time></trkpt><trkpt lat="43.3522617" lon="11.439275"><ele>253.33333333333334</ele><time>2026-04-11T04:43:24.993Z</time></trkpt><trkpt lat="43.352325" lon="11.4392317"><ele>254.5</ele><time>2026-04-11T04:43:26.993Z</time></trkpt><trkpt lat="43.352385" lon="11.4391667"><ele>255.66666666666669</ele><time>2026-04-11T04:43:28.993Z</time></trkpt><trkpt lat="43.3524433" lon="11.4390867"><ele>256.8333333333333</ele><time>2026-04-11T04:43:30.993Z</time></trkpt><trkpt lat="43.3524983" lon="11.4390117"><ele>258.0</ele><time>2026-04-11T04:43:32.993Z</time></trkpt><trkpt lat="43.352565" lon="11.43894"><ele>258.0</ele><time>2026-04-11T04:43:34.993Z</time></trkpt><trkpt lat="43.3526367" lon="11.43887"><ele>258.0</ele><time>2026-04-11T04:43:36.993Z</time></trkpt><trkpt lat="43.3527167" lon="11.4388067"><ele>258.0</ele><time>2026-04-11T04:43:38.993Z</time></trkpt><trkpt lat="43.3527833" lon="11.4387317"><ele>258.0</ele><time>2026-04-11T04:43:40.993Z</time></trkpt><trkpt lat="43.3528533" lon="11.4386633"><ele>258.0</ele><time>2026-04-11T04:43:42.993Z</time></trkpt><trkpt lat="43.35293" lon="11.4385983"><ele>258.0</ele><time>2026-04-11T04:43:44.993Z</time></trkpt><trkpt lat="43.3530033" lon="11.4385417"><ele>258.99999999999994</ele><time>2026-04-11T04:43:46.993Z</time></trkpt><trkpt lat="43.3530683" lon="11.4384833"><ele>260.0</ele><time>2026-04-11T04:43:48.993Z</time></trkpt><trkpt lat="43.3531417" lon="11.4384333"><ele>261.0</ele><time>2026-04-11T04:43:50.993Z</time></trkpt><trkpt lat="43.3532067" lon="11.4383883"><ele>262.0</ele><time>2026-04-11T04:43:52.993Z</time></trkpt><trkpt lat="43.353275" lon="11.4383333"><ele>263.0</ele><time>2026-04-11T04:43:54.993Z</time></trkpt><trkpt lat="43.3533367" lon="11.438305"><ele>263.99999999999994</ele><time>2026-04-11T04:43:56.993Z</time></trkpt><trkpt lat="43.3534017" lon="11.438285"><ele>265.0</ele><time>2026-04-11T04:43:58.993Z</time></trkpt><trkpt lat="43.3534817" lon="11.4382567"><ele>265.0</ele><time>2026-04-11T04:44:00.994Z</time></trkpt><trkpt lat="43.3535717" lon="11.4382433"><ele>265.0</ele><time>2026-04-11T04:44:02.993Z</time></trkpt><trkpt lat="43.353665" lon="11.43824"><ele>265.0</ele><time>2026-04-11T04:44:04.993Z</time></trkpt><trkpt lat="43.35375" lon="11.4382267"><ele>265.0</ele><time>2026-04-11T04:44:06.993Z</time></trkpt><trkpt lat="43.3538217" lon="11.4382033"><ele>265.0</ele><time>2026-04-11T04:44:08.993Z</time></trkpt><trkpt lat="43.353895" lon="11.43817"><ele>265.0</ele><time>2026-04-11T04:44:10.993Z</time></trkpt><trkpt lat="43.3539667" lon="11.438135"><ele>265.2</ele><time>2026-04-11T04:44:12.993Z</time></trkpt><trkpt lat="43.3540367" lon="11.438105"><ele>265.4</ele><time>2026-04-11T04:44:14.993Z</time></trkpt><trkpt lat="43.3541383" lon="11.4380667"><ele>265.6</ele><time>2026-04-11T04:44:17.993Z</time></trkpt><trkpt lat="43.35421" lon="11.43804"><ele>265.8</ele><time>2026-04-11T04:44:19.993Z</time></trkpt><trkpt lat="43.3543017" lon="11.4380017"><ele>266.0</ele><time>2026-04-11T04:44:21.993Z</time></trkpt><trkpt lat="43.354405" lon="11.4379867"><ele>266.0</ele><time>2026-04-11T04:44:23.994Z</time></trkpt><trkpt lat="43.3545217" lon="11.4379917"><ele>266.0</ele><time>2026-04-11T04:44:25.993Z</time></trkpt><trkpt lat="43.3546217" lon="11.4380083"><ele>266.0</ele><time>2026-04-11T04:44:27.994Z</time></trkpt><trkpt lat="43.3547117" lon="11.4380133"><ele>266.0</ele><time>2026-04-11T04:44:29.993Z</time></trkpt><trkpt lat="43.3548017" lon="11.4380217"><ele>266.0</ele><time>2026-04-11T04:44:31.993Z</time></trkpt><trkpt lat="43.3549017" lon="11.4380517"><ele>266.40000000000003</ele><time>2026-04-11T04:44:33.993Z</time></trkpt><trkpt lat="43.355" lon="11.4380783"><ele>266.8</ele><time>2026-04-11T04:44:35.993Z</time></trkpt><trkpt lat="43.3551017" lon="11.438105"><ele>267.20000000000005</ele><time>2026-04-11T04:44:37.993Z</time></trkpt><trkpt lat="43.3552067" lon="11.43813"><ele>267.6</ele><time>2026-04-11T04:44:39.993Z</time></trkpt><trkpt lat="43.3553317" lon="11.4381683"><ele>268.0</ele><time>2026-04-11T04:44:41.993Z</time></trkpt><trkpt lat="43.355395" lon="11.43819"><ele>268.0</ele><time>2026-04-11T04:44:42.993Z</time></trkpt><trkpt lat="43.35546" lon="11.4382067"><ele>268.0</ele><time>2026-04-11T04:44:43.993Z</time></trkpt><trkpt lat="43.3555233" lon="11.4382283"><ele>268.0</ele><time>2026-04-11T04:44:44.993Z</time></trkpt><trkpt lat="43.35559" lon="11.4382483"><ele>268.0</ele><time>2026-04-11T04:44:45.993Z</time></trkpt><trkpt lat="43.3556567" lon="11.43827"><ele>268.0</ele><time>2026-04-11T04:44:46.993Z</time></trkpt><trkpt lat="43.355725" lon="11.4382917"><ele>268.0</ele><time>2026-04-11T04:44:47.993Z</time></trkpt><trkpt lat="43.35579" lon="11.4383083"><ele>268.0</ele><time>2026-04-11T04:44:48.993Z</time></trkpt><trkpt lat="43.3559083" lon="11.4383433"><ele>267.7142857142857</ele><time>2026-04-11T04:44:50.993Z</time></trkpt><trkpt lat="43.355975" lon="11.4383633"><ele>267.42857142857144</ele><time>2026-04-11T04:44:51.994Z</time></trkpt><trkpt lat="43.3560383" lon="11.43838"><ele>267.1428571428571</ele><time>2026-04-11T04:44:52.993Z</time></trkpt><trkpt lat="43.3561033" lon="11.4383917"><ele>266.8571428571429</ele><time>2026-04-11T04:44:53.993Z</time></trkpt><trkpt lat="43.35617" lon="11.4384017"><ele>266.57142857142856</ele><time>2026-04-11T04:44:54.994Z</time></trkpt><trkpt lat="43.35624" lon="11.438415"><ele>266.2857142857143</ele><time>2026-04-11T04:44:55.993Z</time></trkpt><trkpt lat="43.3563033" lon="11.4384383"><ele>266.0</ele><time>2026-04-11T04:44:56.993Z</time></trkpt><trkpt lat="43.3563667" lon="11.4384567"><ele>265.83333333333337</ele><time>2026-04-11T04:44:57.993Z</time></trkpt><trkpt lat="43.3564317" lon="11.43847"><ele>265.6666666666667</ele><time>2026-04-11T04:44:58.994Z</time></trkpt><trkpt lat="43.356495" lon="11.438485"><ele>265.5</ele><time>2026-04-11T04:44:59.993Z</time></trkpt><trkpt lat="43.35656" lon="11.4385017"><ele>265.3333333333333</ele><time>2026-04-11T04:45:00.993Z</time></trkpt><trkpt lat="43.3566233" lon="11.4385183"><ele>265.16666666666663</ele><time>2026-04-11T04:45:01.993Z</time></trkpt><trkpt lat="43.3567433" lon="11.4385483"><ele>265.0</ele><time>2026-04-11T04:45:03.993Z</time></trkpt><trkpt lat="43.356865" lon="11.43856"><ele>265.0</ele><time>2026-04-11T04:45:05.993Z</time></trkpt><trkpt lat="43.3569733" lon="11.438555"><ele>265.0</ele><time>2026-04-11T04:45:07.993Z</time></trkpt><trkpt lat="43.357075" lon="11.43853"><ele>265.0</ele><time>2026-04-11T04:45:09.993Z</time></trkpt><trkpt lat="43.35717" lon="11.4384967"><ele>265.0</ele><time>2026-04-11T04:45:11.993Z</time></trkpt><trkpt lat="43.35728" lon="11.4385"><ele>265.0</ele><time>2026-04-11T04:45:13.993Z</time></trkpt><trkpt lat="43.357385" lon="11.4384983"><ele>265.0</ele><time>2026-04-11T04:45:15.993Z</time></trkpt><trkpt lat="43.35749" lon="11.4384683"><ele>265.0</ele><time>2026-04-11T04:45:17.993Z</time></trkpt><trkpt lat="43.35759" lon="11.438425"><ele>265.0</ele><time>2026-04-11T04:45:19.994Z</time></trkpt><trkpt lat="43.357695" lon="11.4383917"><ele>265.0</ele><time>2026-04-11T04:45:21.993Z</time></trkpt><trkpt lat="43.35781" lon="11.4383617"><ele>265.0</ele><time>2026-04-11T04:45:23.993Z</time></trkpt><trkpt lat="43.3579217" lon="11.4383283"><ele>265.5</ele><time>2026-04-11T04:45:25.993Z</time></trkpt><trkpt lat="43.358035" lon="11.438285"><ele>266.0</ele><time>2026-04-11T04:45:27.993Z</time></trkpt><trkpt lat="43.3581367" lon="11.4382067"><ele>266.5</ele><time>2026-04-11T04:45:29.993Z</time></trkpt><trkpt lat="43.3582333" lon="11.4381083"><ele>267.0</ele><time>2026-04-11T04:45:31.993Z</time></trkpt><trkpt lat="43.3583133" lon="11.4380033"><ele>267.4</ele><time>2026-04-11T04:45:33.993Z</time></trkpt><trkpt lat="43.3583533" lon="11.4378733"><ele>267.79999999999995</ele><time>2026-04-11T04:45:35.993Z</time></trkpt><trkpt lat="43.3583933" lon="11.437755"><ele>268.2</ele><time>2026-04-11T04:45:37.993Z</time></trkpt><trkpt lat="43.358415" lon="11.43762"><ele>268.59999999999997</ele><time>2026-04-11T04:45:39.993Z</time></trkpt><trkpt lat="43.358425" lon="11.4374833"><ele>269.0</ele><time>2026-04-11T04:45:41.993Z</time></trkpt><trkpt lat="43.3584317" lon="11.4373317"><ele>269.0</ele><time>2026-04-11T04:45:43.993Z</time></trkpt><trkpt lat="43.3584233" lon="11.4371733"><ele>269.0</ele><time>2026-04-11T04:45:45.994Z</time></trkpt><trkpt lat="43.3584033" lon="11.43702"><ele>269.0</ele><time>2026-04-11T04:45:47.995Z</time></trkpt><trkpt lat="43.3583883" lon="11.43687"><ele>269.0</ele><time>2026-04-11T04:45:49.994Z</time></trkpt><trkpt lat="43.3583767" lon="11.4367067"><ele>269.0</ele><time>2026-04-11T04:45:51.994Z</time></trkpt><trkpt lat="43.3583917" lon="11.4365383"><ele>269.0</ele><time>2026-04-11T04:45:53.994Z</time></trkpt><trkpt lat="43.3584267" lon="11.4363917"><ele>269.0</ele><time>2026-04-11T04:45:55.994Z</time></trkpt><trkpt lat="43.358455" lon="11.4362533"><ele>269.0</ele><time>2026-04-11T04:45:57.994Z</time></trkpt><trkpt lat="43.3584833" lon="11.436095"><ele>269.0</ele><time>2026-04-11T04:45:59.994Z</time></trkpt><trkpt lat="43.3585117" lon="11.4359233"><ele>269.0</ele><time>2026-04-11T04:46:01.995Z</time></trkpt><trkpt lat="43.3585417" lon="11.4357617"><ele>269.0</ele><time>2026-04-11T04:46:03.994Z</time></trkpt><trkpt lat="43.3585617" lon="11.435675"><ele>269.0</ele><time>2026-04-11T04:46:04.994Z</time></trkpt><trkpt lat="43.3585867" lon="11.4355933"><ele>269.0</ele><time>2026-04-11T04:46:05.995Z</time></trkpt><trkpt lat="43.35861" lon="11.4355117"><ele>269.0</ele><time>2026-04-11T04:46:06.994Z</time></trkpt><trkpt lat="43.3586333" lon="11.43543"><ele>269.2857142857143</ele><time>2026-04-11T04:46:07.994Z</time></trkpt><trkpt lat="43.3586583" lon="11.43535"><ele>269.5714285714286</ele><time>2026-04-11T04:46:08.994Z</time></trkpt><trkpt lat="43.358685" lon="11.4352683"><ele>269.8571428571429</ele><time>2026-04-11T04:46:09.994Z</time></trkpt><trkpt lat="43.3587133" lon="11.43519"><ele>270.14285714285717</ele><time>2026-04-11T04:46:10.994Z</time></trkpt><trkpt lat="43.3587417" lon="11.4351117"><ele>270.42857142857144</ele><time>2026-04-11T04:46:11.994Z</time></trkpt><trkpt lat="43.3587717" lon="11.4350317"><ele>270.7142857142857</ele><time>2026-04-11T04:46:12.994Z</time></trkpt><trkpt lat="43.3587983" lon="11.4349467"><ele>271.0</ele><time>2026-04-11T04:46:13.994Z</time></trkpt><trkpt lat="43.3588233" lon="11.4348633"><ele>271.0</ele><time>2026-04-11T04:46:14.994Z</time></trkpt><trkpt lat="43.3588467" lon="11.4347817"><ele>271.0</ele><time>2026-04-11T04:46:15.995Z</time></trkpt><trkpt lat="43.3588817" lon="11.4347033"><ele>271.0</ele><time>2026-04-11T04:46:16.994Z</time></trkpt><trkpt lat="43.35891" lon="11.43462"><ele>271.0</ele><time>2026-04-11T04:46:17.994Z</time></trkpt><trkpt lat="43.3589283" lon="11.4345333"><ele>271.0</ele><time>2026-04-11T04:46:18.995Z</time></trkpt><trkpt lat="43.3589433" lon="11.43444"><ele>271.0</ele><time>2026-04-11T04:46:19.994Z</time></trkpt><trkpt lat="43.3589517" lon="11.4343467"><ele>271.0</ele><time>2026-04-11T04:46:20.994Z</time></trkpt><trkpt lat="43.3589567" lon="11.4342583"><ele>269.66666666666663</ele><time>2026-04-11T04:46:21.994Z</time></trkpt><trkpt lat="43.35896" lon="11.4341583"><ele>268.3333333333333</ele><time>2026-04-11T04:46:22.994Z</time></trkpt><trkpt lat="43.3589667" lon="11.4340567"><ele>267.0</ele><time>2026-04-11T04:46:23.994Z</time></trkpt><trkpt lat="43.3589717" lon="11.4339533"><ele>265.6666666666667</ele><time>2026-04-11T04:46:24.994Z</time></trkpt><trkpt lat="43.358965" lon="11.433845"><ele>264.33333333333337</ele><time>2026-04-11T04:46:25.994Z</time></trkpt><trkpt lat="43.358955" lon="11.4337433"><ele>263.0</ele><time>2026-04-11T04:46:26.994Z</time></trkpt><trkpt lat="43.35894" lon="11.43364"><ele>262.5</ele><time>2026-04-11T04:46:27.994Z</time></trkpt><trkpt lat="43.3589267" lon="11.4335317"><ele>262.0</ele><time>2026-04-11T04:46:28.994Z</time></trkpt><trkpt lat="43.3589183" lon="11.43342"><ele>261.5</ele><time>2026-04-11T04:46:29.995Z</time></trkpt><trkpt lat="43.3589083" lon="11.4333083"><ele>261.0</ele><time>2026-04-11T04:46:30.994Z</time></trkpt><trkpt lat="43.358895" lon="11.433195"><ele>260.5</ele><time>2026-04-11T04:46:31.994Z</time></trkpt><trkpt lat="43.358885" lon="11.4330883"><ele>260.0</ele><time>2026-04-11T04:46:32.994Z</time></trkpt><trkpt lat="43.358875" lon="11.432975"><ele>260.0</ele><time>2026-04-11T04:46:33.994Z</time></trkpt><trkpt lat="43.35887" lon="11.432865"><ele>260.0</ele><time>2026-04-11T04:46:34.994Z</time></trkpt><trkpt lat="43.3588617" lon="11.4327533"><ele>260.0</ele><time>2026-04-11T04:46:35.994Z</time></trkpt><trkpt lat="43.358855" lon="11.43264"><ele>260.0</ele><time>2026-04-11T04:46:36.994Z</time></trkpt><trkpt lat="43.35885" lon="11.4325217"><ele>260.0</ele><time>2026-04-11T04:46:37.995Z</time></trkpt><trkpt lat="43.3588533" lon="11.4324017"><ele>260.0</ele><time>2026-04-11T04:46:38.994Z</time></trkpt><trkpt lat="43.35886" lon="11.4322833"><ele>260.1666666666667</ele><time>2026-04-11T04:46:39.994Z</time></trkpt><trkpt lat="43.3588667" lon="11.4321667"><ele>260.33333333333337</ele><time>2026-04-11T04:46:40.994Z</time></trkpt><trkpt lat="43.3588783" lon="11.4320517"><ele>260.5</ele><time>2026-04-11T04:46:41.994Z</time></trkpt><trkpt lat="43.3588967" lon="11.4319417"><ele>260.6666666666667</ele><time>2026-04-11T04:46:42.995Z</time></trkpt><trkpt lat="43.3589167" lon="11.4318283"><ele>260.8333333333333</ele><time>2026-04-11T04:46:43.995Z</time></trkpt><trkpt lat="43.35894" lon="11.431715"><ele>261.0</ele><time>2026-04-11T04:46:44.995Z</time></trkpt><trkpt lat="43.358965" lon="11.431605"><ele>261.0</ele><time>2026-04-11T04:46:45.995Z</time></trkpt><trkpt lat="43.3589833" lon="11.4314933"><ele>261.0</ele><time>2026-04-11T04:46:46.994Z</time></trkpt><trkpt lat="43.3590033" lon="11.4313783"><ele>261.0</ele><time>2026-04-11T04:46:47.994Z</time></trkpt><trkpt lat="43.3590233" lon="11.4312617"><ele>261.0</ele><time>2026-04-11T04:46:48.994Z</time></trkpt><trkpt lat="43.35904" lon="11.431155"><ele>261.0</ele><time>2026-04-11T04:46:49.994Z</time></trkpt><trkpt lat="43.359065" lon="11.431045"><ele>261.0</ele><time>2026-04-11T04:46:50.994Z</time></trkpt><trkpt lat="43.3590883" lon="11.43094"><ele>261.5</ele><time>2026-04-11T04:46:51.995Z</time></trkpt><trkpt lat="43.3591033" lon="11.4308333"><ele>262.0</ele><time>2026-04-11T04:46:52.994Z</time></trkpt><trkpt lat="43.35912" lon="11.430725"><ele>262.5</ele><time>2026-04-11T04:46:53.994Z</time></trkpt><trkpt lat="43.3591333" lon="11.4306217"><ele>263.0</ele><time>2026-04-11T04:46:54.994Z</time></trkpt><trkpt lat="43.3591533" lon="11.4305033"><ele>263.5</ele><time>2026-04-11T04:46:55.994Z</time></trkpt><trkpt lat="43.3591633" lon="11.43039"><ele>264.0</ele><time>2026-04-11T04:46:56.995Z</time></trkpt><trkpt lat="43.359165" lon="11.430275"><ele>264.1666666666667</ele><time>2026-04-11T04:46:57.994Z</time></trkpt><trkpt lat="43.35916" lon="11.4301667"><ele>264.3333333333333</ele><time>2026-04-11T04:46:58.994Z</time></trkpt><trkpt lat="43.3591533" lon="11.4300567"><ele>264.5</ele><time>2026-04-11T04:46:59.994Z</time></trkpt><trkpt lat="43.3591383" lon="11.4299517"><ele>264.66666666666663</ele><time>2026-04-11T04:47:00.994Z</time></trkpt><trkpt lat="43.3591267" lon="11.4298383"><ele>264.8333333333333</ele><time>2026-04-11T04:47:01.994Z</time></trkpt><trkpt lat="43.3591133" lon="11.429725"><ele>265.0</ele><time>2026-04-11T04:47:02.994Z</time></trkpt><trkpt lat="43.3591083" lon="11.4296017"><ele>264.0</ele><time>2026-04-11T04:47:03.995Z</time></trkpt><trkpt lat="43.359095" lon="11.4294817"><ele>263.0</ele><time>2026-04-11T04:47:04.994Z</time></trkpt><trkpt lat="43.3590767" lon="11.4293667"><ele>262.0</ele><time>2026-04-11T04:47:05.995Z</time></trkpt><trkpt lat="43.3590617" lon="11.4292517"><ele>261.0</ele><time>2026-04-11T04:47:06.995Z</time></trkpt><trkpt lat="43.35904" lon="11.429145"><ele>260.0</ele><time>2026-04-11T04:47:07.994Z</time></trkpt><trkpt lat="43.3590117" lon="11.4290483"><ele>259.0</ele><time>2026-04-11T04:47:08.995Z</time></trkpt><trkpt lat="43.35898" lon="11.4289583"><ele>259.0</ele><time>2026-04-11T04:47:09.994Z</time></trkpt><trkpt lat="43.3589433" lon="11.4288733"><ele>259.0</ele><time>2026-04-11T04:47:10.994Z</time></trkpt><trkpt lat="43.3588967" lon="11.4288033"><ele>259.0</ele><time>2026-04-11T04:47:11.994Z</time></trkpt><trkpt lat="43.3588417" lon="11.42874"><ele>259.0</ele><time>2026-04-11T04:47:12.994Z</time></trkpt><trkpt lat="43.358785" lon="11.4286717"><ele>259.0</ele><time>2026-04-11T04:47:13.994Z</time></trkpt><trkpt lat="43.3587233" lon="11.4286017"><ele>259.0</ele><time>2026-04-11T04:47:14.994Z</time></trkpt><trkpt lat="43.3586667" lon="11.42852"><ele>260.3333333333333</ele><time>2026-04-11T04:47:15.994Z</time></trkpt><trkpt lat="43.35861" lon="11.42845"><ele>261.66666666666663</ele><time>2026-04-11T04:47:16.995Z</time></trkpt><trkpt lat="43.3585567" lon="11.4283783"><ele>263.0</ele><time>2026-04-11T04:47:17.994Z</time></trkpt><trkpt lat="43.3585033" lon="11.4283033"><ele>264.3333333333333</ele><time>2026-04-11T04:47:18.994Z</time></trkpt><trkpt lat="43.3584467" lon="11.4282217"><ele>265.6666666666667</ele><time>2026-04-11T04:47:19.994Z</time></trkpt><trkpt lat="43.358395" lon="11.4281433"><ele>267.0</ele><time>2026-04-11T04:47:20.994Z</time></trkpt><trkpt lat="43.3583483" lon="11.428055"><ele>265.1666666666667</ele><time>2026-04-11T04:47:21.994Z</time></trkpt><trkpt lat="43.3583" lon="11.4279667"><ele>263.3333333333333</ele><time>2026-04-11T04:47:22.993Z</time></trkpt><trkpt lat="43.358255" lon="11.4278733"><ele>261.5</ele><time>2026-04-11T04:47:23.994Z</time></trkpt><trkpt lat="43.3582117" lon="11.4277783"><ele>259.66666666666663</ele><time>2026-04-11T04:47:24.994Z</time></trkpt><trkpt lat="43.358165" lon="11.42769"><ele>257.8333333333333</ele><time>2026-04-11T04:47:25.994Z</time></trkpt><trkpt lat="43.358115" lon="11.4276"><ele>256.0</ele><time>2026-04-11T04:47:26.994Z</time></trkpt><trkpt lat="43.3580633" lon="11.42751"><ele>255.49999999999997</ele><time>2026-04-11T04:47:27.995Z</time></trkpt><trkpt lat="43.3580083" lon="11.4274233"><ele>255.0</ele><time>2026-04-11T04:47:28.994Z</time></trkpt><trkpt lat="43.3579567" lon="11.4273433"><ele>254.5</ele><time>2026-04-11T04:47:29.994Z</time></trkpt><trkpt lat="43.3579" lon="11.4272683"><ele>254.0</ele><time>2026-04-11T04:47:30.994Z</time></trkpt><trkpt lat="43.3578417" lon="11.4272"><ele>253.49999999999997</ele><time>2026-04-11T04:47:31.994Z</time></trkpt><trkpt lat="43.3577833" lon="11.4271333"><ele>253.0</ele><time>2026-04-11T04:47:32.994Z</time></trkpt><trkpt lat="43.357725" lon="11.4270733"><ele>252.99999999999997</ele><time>2026-04-11T04:47:33.994Z</time></trkpt><trkpt lat="43.3576567" lon="11.427005"><ele>253.0</ele><time>2026-04-11T04:47:34.994Z</time></trkpt><trkpt lat="43.357585" lon="11.426945"><ele>253.0</ele><time>2026-04-11T04:47:35.994Z</time></trkpt><trkpt lat="43.3575167" lon="11.4268983"><ele>253.0</ele><time>2026-04-11T04:47:36.994Z</time></trkpt><trkpt lat="43.3574417" lon="11.426855"><ele>252.99999999999997</ele><time>2026-04-11T04:47:37.994Z</time></trkpt><trkpt lat="43.3573633" lon="11.4268183"><ele>253.0</ele><time>2026-04-11T04:47:38.995Z</time></trkpt><trkpt lat="43.35728" lon="11.42678"><ele>253.60000000000002</ele><time>2026-04-11T04:47:39.994Z</time></trkpt><trkpt lat="43.3571983" lon="11.4267383"><ele>254.20000000000002</ele><time>2026-04-11T04:47:40.994Z</time></trkpt><trkpt lat="43.357115" lon="11.426695"><ele>254.8</ele><time>2026-04-11T04:47:41.995Z</time></trkpt><trkpt lat="43.357035" lon="11.4266533"><ele>255.4</ele><time>2026-04-11T04:47:42.994Z</time></trkpt><trkpt lat="43.3569467" lon="11.4266033"><ele>256.0</ele><time>2026-04-11T04:47:43.994Z</time></trkpt><trkpt lat="43.3568517" lon="11.42655"><ele>256.0</ele><time>2026-04-11T04:47:44.995Z</time></trkpt><trkpt lat="43.3567567" lon="11.426495"><ele>256.0</ele><time>2026-04-11T04:47:45.994Z</time></trkpt><trkpt lat="43.3566633" lon="11.426425"><ele>256.0</ele><time>2026-04-11T04:47:46.994Z</time></trkpt><trkpt lat="43.3565717" lon="11.4263433"><ele>256.0</ele><time>2026-04-11T04:47:47.994Z</time></trkpt><trkpt lat="43.35648" lon="11.4262533"><ele>256.0</ele><time>2026-04-11T04:47:48.994Z</time></trkpt><trkpt lat="43.3563917" lon="11.4261467"><ele>253.5</ele><time>2026-04-11T04:47:49.995Z</time></trkpt><trkpt lat="43.3563033" lon="11.426035"><ele>251.0</ele><time>2026-04-11T04:47:50.994Z</time></trkpt><trkpt lat="43.356215" lon="11.425925"><ele>248.5</ele><time>2026-04-11T04:47:51.994Z</time></trkpt><trkpt lat="43.3561283" lon="11.4258133"><ele>246.0</ele><time>2026-04-11T04:47:52.994Z</time></trkpt><trkpt lat="43.3560417" lon="11.4256983"><ele>246.0</ele><time>2026-04-11T04:47:53.994Z</time></trkpt><trkpt lat="43.35595" lon="11.4255783"><ele>246.0</ele><time>2026-04-11T04:47:54.995Z</time></trkpt><trkpt lat="43.3558567" lon="11.4254567"><ele>246.0</ele><time>2026-04-11T04:47:55.994Z</time></trkpt><trkpt lat="43.3557583" lon="11.4253417"><ele>246.0</ele><time>2026-04-11T04:47:56.994Z</time></trkpt><trkpt lat="43.355665" lon="11.4252183"><ele>244.5</ele><time>2026-04-11T04:47:57.994Z</time></trkpt><trkpt lat="43.355575" lon="11.42511"><ele>243.0</ele><time>2026-04-11T04:47:58.994Z</time></trkpt><trkpt lat="43.3554833" lon="11.4250017"><ele>241.5</ele><time>2026-04-11T04:47:59.995Z</time></trkpt><trkpt lat="43.3553933" lon="11.4248817"><ele>240.0</ele><time>2026-04-11T04:48:00.994Z</time></trkpt><trkpt lat="43.355305" lon="11.4247633"><ele>239.0</ele><time>2026-04-11T04:48:01.994Z</time></trkpt><trkpt lat="43.3552217" lon="11.4246417"><ele>238.0</ele><time>2026-04-11T04:48:02.994Z</time></trkpt><trkpt lat="43.3551467" lon="11.4245267"><ele>237.0</ele><time>2026-04-11T04:48:03.994Z</time></trkpt><trkpt lat="43.3550717" lon="11.4244117"><ele>236.0</ele><time>2026-04-11T04:48:04.994Z</time></trkpt><trkpt lat="43.3550017" lon="11.42429"><ele>236.0</ele><time>2026-04-11T04:48:05.994Z</time></trkpt><trkpt lat="43.3549583" lon="11.4241283"><ele>236.0</ele><time>2026-04-11T04:48:06.994Z</time></trkpt><trkpt lat="43.3549233" lon="11.4239733"><ele>236.0</ele><time>2026-04-11T04:48:07.994Z</time></trkpt><trkpt lat="43.354935" lon="11.423795"><ele>236.0</ele><time>2026-04-11T04:48:08.994Z</time></trkpt><trkpt lat="43.3549617" lon="11.423625"><ele>235.0</ele><time>2026-04-11T04:48:09.994Z</time></trkpt><trkpt lat="43.3550117" lon="11.4234567"><ele>234.0</ele><time>2026-04-11T04:48:10.994Z</time></trkpt><trkpt lat="43.355055" lon="11.4232883"><ele>233.0</ele><time>2026-04-11T04:48:11.994Z</time></trkpt><trkpt lat="43.3550833" lon="11.4231233"><ele>232.0</ele><time>2026-04-11T04:48:12.995Z</time></trkpt><trkpt lat="43.355125" lon="11.4229583"><ele>230.25</ele><time>2026-04-11T04:48:13.995Z</time></trkpt><trkpt lat="43.3551583" lon="11.4227967"><ele>228.5</ele><time>2026-04-11T04:48:14.995Z</time></trkpt><trkpt lat="43.3551917" lon="11.4226333"><ele>226.75</ele><time>2026-04-11T04:48:15.994Z</time></trkpt><trkpt lat="43.3552267" lon="11.4224717"><ele>225.0</ele><time>2026-04-11T04:48:16.994Z</time></trkpt><trkpt lat="43.3552583" lon="11.4223067"><ele>223.25</ele><time>2026-04-11T04:48:17.994Z</time></trkpt><trkpt lat="43.355275" lon="11.4221267"><ele>221.5</ele><time>2026-04-11T04:48:18.994Z</time></trkpt><trkpt lat="43.3552917" lon="11.4219583"><ele>219.75</ele><time>2026-04-11T04:48:19.994Z</time></trkpt><trkpt lat="43.3553133" lon="11.42179"><ele>218.0</ele><time>2026-04-11T04:48:20.994Z</time></trkpt><trkpt lat="43.3553167" lon="11.42162"><ele>218.0</ele><time>2026-04-11T04:48:21.994Z</time></trkpt><trkpt lat="43.355335" lon="11.421455"><ele>218.0</ele><time>2026-04-11T04:48:22.994Z</time></trkpt><trkpt lat="43.3553533" lon="11.4212867"><ele>218.0</ele><time>2026-04-11T04:48:23.994Z</time></trkpt><trkpt lat="43.355385" lon="11.42113"><ele>218.0</ele><time>2026-04-11T04:48:24.994Z</time></trkpt><trkpt lat="43.35541" lon="11.420975"><ele>217.8</ele><time>2026-04-11T04:48:25.995Z</time></trkpt><trkpt lat="43.35544" lon="11.4208117"><ele>217.60000000000002</ele><time>2026-04-11T04:48:26.994Z</time></trkpt><trkpt lat="43.355465" lon="11.4206667"><ele>217.39999999999998</ele><time>2026-04-11T04:48:27.994Z</time></trkpt><trkpt lat="43.3554967" lon="11.4205267"><ele>217.2</ele><time>2026-04-11T04:48:28.994Z</time></trkpt><trkpt lat="43.3555267" lon="11.4203917"><ele>217.0</ele><time>2026-04-11T04:48:29.995Z</time></trkpt><trkpt lat="43.355555" lon="11.4202667"><ele>217.0</ele><time>2026-04-11T04:48:30.994Z</time></trkpt><trkpt lat="43.3555833" lon="11.4201467"><ele>217.0</ele><time>2026-04-11T04:48:31.994Z</time></trkpt><trkpt lat="43.35561" lon="11.4200167"><ele>217.0</ele><time>2026-04-11T04:48:32.994Z</time></trkpt><trkpt lat="43.3556333" lon="11.4198917"><ele>217.0</ele><time>2026-04-11T04:48:33.994Z</time></trkpt><trkpt lat="43.3556633" lon="11.4197783"><ele>217.0</ele><time>2026-04-11T04:48:34.994Z</time></trkpt><trkpt lat="43.3556933" lon="11.4196633"><ele>216.8</ele><time>2026-04-11T04:48:35.994Z</time></trkpt><trkpt lat="43.355725" lon="11.4195517"><ele>216.6</ele><time>2026-04-11T04:48:36.994Z</time></trkpt><trkpt lat="43.355765" lon="11.4194383"><ele>216.40000000000003</ele><time>2026-04-11T04:48:37.994Z</time></trkpt><trkpt lat="43.355805" lon="11.419325"><ele>216.20000000000002</ele><time>2026-04-11T04:48:38.994Z</time></trkpt><trkpt lat="43.355855" lon="11.4192217"><ele>216.0</ele><time>2026-04-11T04:48:39.994Z</time></trkpt><trkpt lat="43.355905" lon="11.4191183"><ele>216.0</ele><time>2026-04-11T04:48:40.994Z</time></trkpt><trkpt lat="43.3559533" lon="11.4190217"><ele>216.0</ele><time>2026-04-11T04:48:41.994Z</time></trkpt><trkpt lat="43.3559983" lon="11.41893"><ele>216.0</ele><time>2026-04-11T04:48:42.994Z</time></trkpt><trkpt lat="43.3560417" lon="11.4188467"><ele>216.0</ele><time>2026-04-11T04:48:43.994Z</time></trkpt><trkpt lat="43.3560883" lon="11.418765"><ele>216.0</ele><time>2026-04-11T04:48:44.994Z</time></trkpt><trkpt lat="43.3561333" lon="11.4186783"><ele>216.0</ele><time>2026-04-11T04:48:45.994Z</time></trkpt><trkpt lat="43.356175" lon="11.41859"><ele>216.16666666666666</ele><time>2026-04-11T04:48:46.995Z</time></trkpt><trkpt lat="43.3562183" lon="11.4184933"><ele>216.33333333333331</ele><time>2026-04-11T04:48:47.994Z</time></trkpt><trkpt lat="43.3562533" lon="11.4184"><ele>216.5</ele><time>2026-04-11T04:48:48.994Z</time></trkpt><trkpt lat="43.3562917" lon="11.418315"><ele>216.66666666666666</ele><time>2026-04-11T04:48:49.994Z</time></trkpt><trkpt lat="43.356325" lon="11.4182317"><ele>216.83333333333331</ele><time>2026-04-11T04:48:50.994Z</time></trkpt><trkpt lat="43.3563617" lon="11.418155"><ele>217.0</ele><time>2026-04-11T04:48:51.994Z</time></trkpt><trkpt lat="43.3564333" lon="11.4180117"><ele>217.5</ele><time>2026-04-11T04:48:53.994Z</time></trkpt><trkpt lat="43.3565017" lon="11.417875"><ele>218.0</ele><time>2026-04-11T04:48:55.994Z</time></trkpt><trkpt lat="43.3565683" lon="11.4177333"><ele>218.5</ele><time>2026-04-11T04:48:57.995Z</time></trkpt><trkpt lat="43.3566267" lon="11.4175917"><ele>219.0</ele><time>2026-04-11T04:48:59.994Z</time></trkpt><trkpt lat="43.3566817" lon="11.4174533"><ele>219.0</ele><time>2026-04-11T04:49:01.994Z</time></trkpt><trkpt lat="43.3567283" lon="11.4173333"><ele>218.99999999999997</ele><time>2026-04-11T04:49:03.994Z</time></trkpt><trkpt lat="43.3567783" lon="11.417225"><ele>218.99999999999997</ele><time>2026-04-11T04:49:05.994Z</time></trkpt><trkpt lat="43.35681" lon="11.4171033"><ele>219.0</ele><time>2026-04-11T04:49:07.994Z</time></trkpt><trkpt lat="43.3568383" lon="11.4169767"><ele>219.0</ele><time>2026-04-11T04:49:09.994Z</time></trkpt><trkpt lat="43.356855" lon="11.416875"><ele>219.0</ele><time>2026-04-11T04:49:11.994Z</time></trkpt><trkpt lat="43.3568833" lon="11.4167617"><ele>219.0</ele><time>2026-04-11T04:49:14.994Z</time></trkpt><trkpt lat="43.356845" lon="11.4166367"><ele>219.0</ele><time>2026-04-11T04:49:17.995Z</time></trkpt><trkpt lat="43.3567883" lon="11.41655"><ele>219.0</ele><time>2026-04-11T04:49:19.994Z</time></trkpt><trkpt lat="43.3567383" lon="11.4164483"><ele>219.0</ele><time>2026-04-11T04:49:21.994Z</time></trkpt><trkpt lat="43.3566783" lon="11.4163833"><ele>219.0</ele><time>2026-04-11T04:49:23.994Z</time></trkpt><trkpt lat="43.356615" lon="11.4162883"><ele>219.33333333333334</ele><time>2026-04-11T04:49:25.994Z</time></trkpt><trkpt lat="43.356555" lon="11.4161917"><ele>219.66666666666669</ele><time>2026-04-11T04:49:27.994Z</time></trkpt><trkpt lat="43.3564967" lon="11.4161017"><ele>220.0</ele><time>2026-04-11T04:49:29.994Z</time></trkpt><trkpt lat="43.3564417" lon="11.41602"><ele>220.33333333333334</ele><time>2026-04-11T04:49:31.995Z</time></trkpt><trkpt lat="43.3563867" lon="11.4159433"><ele>220.66666666666669</ele><time>2026-04-11T04:49:33.994Z</time></trkpt><trkpt lat="43.3563633" lon="11.415855"><ele>221.0</ele><time>2026-04-11T04:49:35.994Z</time></trkpt><trkpt lat="43.35636" lon="11.4157383"><ele>221.00000000000003</ele><time>2026-04-11T04:49:37.994Z</time></trkpt><trkpt lat="43.3563617" lon="11.415645"><ele>221.0</ele><time>2026-04-11T04:49:39.994Z</time></trkpt><trkpt lat="43.3563717" lon="11.4155267"><ele>221.0</ele><time>2026-04-11T04:49:42.994Z</time></trkpt><trkpt lat="43.3563833" lon="11.4153933"><ele>221.0</ele><time>2026-04-11T04:49:45.994Z</time></trkpt><trkpt lat="43.3564" lon="11.415295"><ele>221.00000000000003</ele><time>2026-04-11T04:49:47.995Z</time></trkpt><trkpt lat="43.3564183" lon="11.4151967"><ele>221.0</ele><time>2026-04-11T04:49:49.994Z</time></trkpt><trkpt lat="43.3564383" lon="11.41511"><ele>221.8571428571429</ele><time>2026-04-11T04:49:51.994Z</time></trkpt><trkpt lat="43.356455" lon="11.4150117"><ele>222.71428571428572</ele><time>2026-04-11T04:49:53.994Z</time></trkpt><trkpt lat="43.3564683" lon="11.41492"><ele>223.57142857142858</ele><time>2026-04-11T04:49:55.995Z</time></trkpt><trkpt lat="43.356485" lon="11.414835"><ele>224.42857142857144</ele><time>2026-04-11T04:49:57.994Z</time></trkpt><trkpt lat="43.3565" lon="11.414745"><ele>225.2857142857143</ele><time>2026-04-11T04:49:59.994Z</time></trkpt><trkpt lat="43.35652" lon="11.4146483"><ele>226.14285714285717</ele><time>2026-04-11T04:50:01.995Z</time></trkpt><trkpt lat="43.3565517" lon="11.41453"><ele>227.0</ele><time>2026-04-11T04:50:04.994Z</time></trkpt><trkpt lat="43.356585" lon="11.4144067"><ele>227.57142857142858</ele><time>2026-04-11T04:50:07.994Z</time></trkpt><trkpt lat="43.3566033" lon="11.4143233"><ele>228.14285714285717</ele><time>2026-04-11T04:50:09.994Z</time></trkpt><trkpt lat="43.3566217" lon="11.4142383"><ele>228.71428571428572</ele><time>2026-04-11T04:50:11.994Z</time></trkpt><trkpt lat="43.3566417" lon="11.4141533"><ele>229.28571428571428</ele><time>2026-04-11T04:50:13.995Z</time></trkpt><trkpt lat="43.356665" lon="11.41407"><ele>229.85714285714286</ele><time>2026-04-11T04:50:15.994Z</time></trkpt><trkpt lat="43.3567067" lon="11.4139417"><ele>230.42857142857144</ele><time>2026-04-11T04:50:18.994Z</time></trkpt><trkpt lat="43.3567333" lon="11.4138533"><ele>231.0</ele><time>2026-04-11T04:50:20.994Z</time></trkpt><trkpt lat="43.3567583" lon="11.4137383"><ele>231.5</ele><time>2026-04-11T04:50:23.994Z</time></trkpt><trkpt lat="43.3567867" lon="11.4136583"><ele>232.0</ele><time>2026-04-11T04:50:25.994Z</time></trkpt><trkpt lat="43.3568133" lon="11.4135783"><ele>232.5</ele><time>2026-04-11T04:50:27.994Z</time></trkpt><trkpt lat="43.35685" lon="11.41347"><ele>233.0</ele><time>2026-04-11T04:50:30.994Z</time></trkpt><trkpt lat="43.3568767" lon="11.4133667"><ele>233.5</ele><time>2026-04-11T04:50:33.994Z</time></trkpt><trkpt lat="43.3569" lon="11.413255"><ele>234.0</ele><time>2026-04-11T04:50:36.994Z</time></trkpt><trkpt lat="43.3569333" lon="11.413145"><ele>234.0</ele><time>2026-04-11T04:50:39.994Z</time></trkpt><trkpt lat="43.35697" lon="11.4130417"><ele>234.0</ele><time>2026-04-11T04:50:42.994Z</time></trkpt><trkpt lat="43.35701" lon="11.4129333"><ele>234.0</ele><time>2026-04-11T04:50:45.994Z</time></trkpt><trkpt lat="43.35705" lon="11.4128317"><ele>234.0</ele><time>2026-04-11T04:50:48.994Z</time></trkpt><trkpt lat="43.3570783" lon="11.41273"><ele>234.0</ele><time>2026-04-11T04:50:51.994Z</time></trkpt><trkpt lat="43.3571167" lon="11.4126367"><ele>234.0</ele><time>2026-04-11T04:50:54.994Z</time></trkpt><trkpt lat="43.357155" lon="11.4125567"><ele>235.33333333333334</ele><time>2026-04-11T04:50:57.995Z</time></trkpt><trkpt lat="43.3572167" lon="11.4124683"><ele>236.66666666666669</ele><time>2026-04-11T04:51:00.994Z</time></trkpt><trkpt lat="43.3572717" lon="11.4123883"><ele>238.0</ele><time>2026-04-11T04:51:03.994Z</time></trkpt><trkpt lat="43.3573283" lon="11.4123167"><ele>239.33333333333334</ele><time>2026-04-11T04:51:06.994Z</time></trkpt><trkpt lat="43.3574" lon="11.4122633"><ele>240.66666666666669</ele><time>2026-04-11T04:51:09.994Z</time></trkpt><trkpt lat="43.357485" lon="11.4122283"><ele>242.0</ele><time>2026-04-11T04:51:12.994Z</time></trkpt><trkpt lat="43.3575617" lon="11.4122117"><ele>242.00000000000003</ele><time>2026-04-11T04:51:15.994Z</time></trkpt><trkpt lat="43.357645" lon="11.41221"><ele>242.0</ele><time>2026-04-11T04:51:18.994Z</time></trkpt><trkpt lat="43.3577083" lon="11.4122133"><ele>242.0</ele><time>2026-04-11T04:51:21.994Z</time></trkpt><trkpt lat="43.3577733" lon="11.4122317"><ele>242.0</ele><time>2026-04-11T04:51:24.994Z</time></trkpt><trkpt lat="43.357855" lon="11.412265"><ele>242.00000000000003</ele><time>2026-04-11T04:51:27.994Z</time></trkpt><trkpt lat="43.3579333" lon="11.412305"><ele>242.0</ele><time>2026-04-11T04:51:30.994Z</time></trkpt><trkpt lat="43.3580017" lon="11.4123133"><ele>242.83333333333334</ele><time>2026-04-11T04:51:33.994Z</time></trkpt><trkpt lat="43.3580883" lon="11.4123267"><ele>243.66666666666669</ele><time>2026-04-11T04:51:36.994Z</time></trkpt><trkpt lat="43.3581633" lon="11.41232"><ele>244.5</ele><time>2026-04-11T04:51:39.995Z</time></trkpt><trkpt lat="43.358235" lon="11.4122933"><ele>245.33333333333331</ele><time>2026-04-11T04:51:42.994Z</time></trkpt><trkpt lat="43.3583033" lon="11.412275"><ele>246.16666666666666</ele><time>2026-04-11T04:51:45.995Z</time></trkpt><trkpt lat="43.3583783" lon="11.412295"><ele>247.0</ele><time>2026-04-11T04:51:48.994Z</time></trkpt><trkpt lat="43.3584533" lon="11.4122917"><ele>246.99999999999997</ele><time>2026-04-11T04:51:51.994Z</time></trkpt><trkpt lat="43.3585333" lon="11.412305"><ele>247.0</ele><time>2026-04-11T04:51:54.994Z</time></trkpt><trkpt lat="43.358605" lon="11.4123"><ele>247.0</ele><time>2026-04-11T04:51:57.994Z</time></trkpt><trkpt lat="43.35869" lon="11.4122883"><ele>247.0</ele><time>2026-04-11T04:52:01.994Z</time></trkpt><trkpt lat="43.3587717" lon="11.4122633"><ele>246.99999999999997</ele><time>2026-04-11T04:52:05.994Z</time></trkpt><trkpt lat="43.3588267" lon="11.4122067"><ele>247.0</ele><time>2026-04-11T04:52:09.994Z</time></trkpt><trkpt lat="43.3588633" lon="11.4121217"><ele>248.57142857142858</ele><time>2026-04-11T04:52:13.994Z</time></trkpt><trkpt lat="43.3588917" lon="11.41202"><ele>250.1428571428571</ele><time>2026-04-11T04:52:17.994Z</time></trkpt><trkpt lat="43.35891" lon="11.4119233"><ele>251.7142857142857</ele><time>2026-04-11T04:52:20.994Z</time></trkpt><trkpt lat="43.35892" lon="11.4118233"><ele>253.28571428571428</ele><time>2026-04-11T04:52:24.994Z</time></trkpt><trkpt lat="43.3589417" lon="11.41173"><ele>254.85714285714283</ele><time>2026-04-11T04:52:27.994Z</time></trkpt><trkpt lat="43.3589617" lon="11.4116283"><ele>256.4285714285714</ele><time>2026-04-11T04:52:30.994Z</time></trkpt><trkpt lat="43.3589767" lon="11.4115283"><ele>258.0</ele><time>2026-04-11T04:52:33.994Z</time></trkpt><trkpt lat="43.35899" lon="11.4114233"><ele>258.0</ele><time>2026-04-11T04:52:36.994Z</time></trkpt><trkpt lat="43.3590133" lon="11.4113267"><ele>258.0</ele><time>2026-04-11T04:52:39.994Z</time></trkpt><trkpt lat="43.359055" lon="11.4112433"><ele>258.0</ele><time>2026-04-11T04:52:42.994Z</time></trkpt><trkpt lat="43.3591033" lon="11.4111383"><ele>258.0</ele><time>2026-04-11T04:52:45.994Z</time></trkpt><trkpt lat="43.3591583" lon="11.4110533"><ele>258.0</ele><time>2026-04-11T04:52:47.994Z</time></trkpt><trkpt lat="43.359245" lon="11.4109933"><ele>258.0</ele><time>2026-04-11T04:52:50.994Z</time></trkpt><trkpt lat="43.35932" lon="11.410935"><ele>258.0</ele><time>2026-04-11T04:52:53.994Z</time></trkpt><trkpt lat="43.3593983" lon="11.41094"><ele>258.0</ele><time>2026-04-11T04:52:57.994Z</time></trkpt><trkpt lat="43.35946" lon="11.411"><ele>258.0</ele><time>2026-04-11T04:53:00.994Z</time></trkpt><trkpt lat="43.3595017" lon="11.411085"><ele>258.0</ele><time>2026-04-11T04:53:03.994Z</time></trkpt><trkpt lat="43.3595433" lon="11.411175"><ele>258.0</ele><time>2026-04-11T04:53:06.994Z</time></trkpt><trkpt lat="43.3595683" lon="11.4112817"><ele>258.0</ele><time>2026-04-11T04:53:09.994Z</time></trkpt><trkpt lat="43.3595883" lon="11.4113867"><ele>257.99999999999994</ele><time>2026-04-11T04:53:12.995Z</time></trkpt><trkpt lat="43.3595917" lon="11.4114833"><ele>258.0</ele><time>2026-04-11T04:53:15.994Z</time></trkpt><trkpt lat="43.3596133" lon="11.4115683"><ele>258.0</ele><time>2026-04-11T04:53:17.994Z</time></trkpt><trkpt lat="43.3596433" lon="11.4116517"><ele>258.0</ele><time>2026-04-11T04:53:19.995Z</time></trkpt><trkpt lat="43.3596817" lon="11.4117267"><ele>258.0</ele><time>2026-04-11T04:53:21.994Z</time></trkpt><trkpt lat="43.3597233" lon="11.4117983"><ele>257.99999999999994</ele><time>2026-04-11T04:53:24.994Z</time></trkpt><trkpt lat="43.3597583" lon="11.4118733"><ele>258.0</ele><time>2026-04-11T04:53:27.994Z</time></trkpt><trkpt lat="43.3598283" lon="11.411915"><ele>259.71428571428567</ele><time>2026-04-11T04:53:33.994Z</time></trkpt><trkpt lat="43.359895" lon="11.4118817"><ele>261.42857142857144</ele><time>2026-04-11T04:53:37.995Z</time></trkpt><trkpt lat="43.3599" lon="11.4117867"><ele>263.1428571428571</ele><time>2026-04-11T04:53:42.994Z</time></trkpt><trkpt lat="43.359885" lon="11.4116867"><ele>264.85714285714283</ele><time>2026-04-11T04:53:47.995Z</time></trkpt><trkpt lat="43.35988" lon="11.4115983"><ele>266.57142857142856</ele><time>2026-04-11T04:53:51.994Z</time></trkpt><trkpt lat="43.3599" lon="11.4115067"><ele>268.2857142857143</ele><time>2026-04-11T04:53:54.995Z</time></trkpt><trkpt lat="43.35993" lon="11.4114033"><ele>270.0</ele><time>2026-04-11T04:53:57.995Z</time></trkpt><trkpt lat="43.3599633" lon="11.411325"><ele>270.0</ele><time>2026-04-11T04:54:00.994Z</time></trkpt><trkpt lat="43.359985" lon="11.4112367"><ele>270.0</ele><time>2026-04-11T04:54:03.994Z</time></trkpt><trkpt lat="43.3600167" lon="11.4111383"><ele>270.0</ele><time>2026-04-11T04:54:06.994Z</time></trkpt><trkpt lat="43.3600783" lon="11.411045"><ele>270.0</ele><time>2026-04-11T04:54:09.994Z</time></trkpt><trkpt lat="43.3601567" lon="11.410975"><ele>270.0</ele><time>2026-04-11T04:54:12.995Z</time></trkpt><trkpt lat="43.3602383" lon="11.4109283"><ele>270.0</ele><time>2026-04-11T04:54:15.994Z</time></trkpt><trkpt lat="43.3603133" lon="11.4108833"><ele>270.0</ele><time>2026-04-11T04:54:18.994Z</time></trkpt><trkpt lat="43.3603783" lon="11.4108317"><ele>270.0</ele><time>2026-04-11T04:54:21.995Z</time></trkpt><trkpt lat="43.36045" lon="11.4107783"><ele>270.0</ele><time>2026-04-11T04:54:25.994Z</time></trkpt><trkpt lat="43.360515" lon="11.4107583"><ele>270.0</ele><time>2026-04-11T04:54:28.994Z</time></trkpt><trkpt lat="43.3605883" lon="11.4107167"><ele>270.0</ele><time>2026-04-11T04:54:31.994Z</time></trkpt><trkpt lat="43.3606467" lon="11.41067"><ele>270.0</ele><time>2026-04-11T04:54:34.995Z</time></trkpt><trkpt lat="43.3607033" lon="11.41063"><ele>270.0</ele><time>2026-04-11T04:54:37.995Z</time></trkpt><trkpt lat="43.36076" lon="11.4105667"><ele>271.57142857142856</ele><time>2026-04-11T04:54:41.995Z</time></trkpt><trkpt lat="43.3607933" lon="11.4104683"><ele>273.1428571428571</ele><time>2026-04-11T04:54:45.994Z</time></trkpt><trkpt lat="43.3608117" lon="11.4103667"><ele>274.7142857142857</ele><time>2026-04-11T04:54:48.995Z</time></trkpt><trkpt lat="43.36082" lon="11.4102683"><ele>276.2857142857143</ele><time>2026-04-11T04:54:51.995Z</time></trkpt><trkpt lat="43.36083" lon="11.4101617"><ele>277.8571428571429</ele><time>2026-04-11T04:54:54.994Z</time></trkpt><trkpt lat="43.3608083" lon="11.410075"><ele>279.42857142857144</ele><time>2026-04-11T04:54:57.994Z</time></trkpt><trkpt lat="43.3607683" lon="11.4099867"><ele>281.0</ele><time>2026-04-11T04:55:00.994Z</time></trkpt><trkpt lat="43.3607333" lon="11.4098967"><ele>281.0</ele><time>2026-04-11T04:55:03.994Z</time></trkpt><trkpt lat="43.3607067" lon="11.4098167"><ele>281.0</ele><time>2026-04-11T04:55:05.994Z</time></trkpt><trkpt lat="43.3606767" lon="11.4097067"><ele>281.0</ele><time>2026-04-11T04:55:08.994Z</time></trkpt><trkpt lat="43.3606433" lon="11.4096167"><ele>281.0</ele><time>2026-04-11T04:55:11.994Z</time></trkpt><trkpt lat="43.3606017" lon="11.4095083"><ele>281.0</ele><time>2026-04-11T04:55:14.995Z</time></trkpt><trkpt lat="43.3605483" lon="11.4094133"><ele>281.0</ele><time>2026-04-11T04:55:17.994Z</time></trkpt><trkpt lat="43.3605033" lon="11.40931"><ele>280.8571428571429</ele><time>2026-04-11T04:55:20.994Z</time></trkpt><trkpt lat="43.3604583" lon="11.4092233"><ele>280.7142857142857</ele><time>2026-04-11T04:55:23.994Z</time></trkpt><trkpt lat="43.3604083" lon="11.4091467"><ele>280.57142857142856</ele><time>2026-04-11T04:55:26.995Z</time></trkpt><trkpt lat="43.3603633" lon="11.4090617"><ele>280.42857142857144</ele><time>2026-04-11T04:55:29.994Z</time></trkpt><trkpt lat="43.360305" lon="11.409005"><ele>280.2857142857143</ele><time>2026-04-11T04:55:32.994Z</time></trkpt><trkpt lat="43.360255" lon="11.4089333"><ele>280.14285714285717</ele><time>2026-04-11T04:55:35.994Z</time></trkpt><trkpt lat="43.3601967" lon="11.408875"><ele>280.0</ele><time>2026-04-11T04:55:38.994Z</time></trkpt><trkpt lat="43.360125" lon="11.4088317"><ele>281.5</ele><time>2026-04-11T04:55:41.994Z</time></trkpt><trkpt lat="43.36006" lon="11.4087783"><ele>283.0</ele><time>2026-04-11T04:55:44.994Z</time></trkpt><trkpt lat="43.359995" lon="11.4087317"><ele>284.5</ele><time>2026-04-11T04:55:47.994Z</time></trkpt><trkpt lat="43.359925" lon="11.408655"><ele>286.0</ele><time>2026-04-11T04:55:50.994Z</time></trkpt><trkpt lat="43.3598683" lon="11.4086133"><ele>287.5</ele><time>2026-04-11T04:55:52.994Z</time></trkpt><trkpt lat="43.3597967" lon="11.40855"><ele>289.0</ele><time>2026-04-11T04:55:55.994Z</time></trkpt><trkpt lat="43.3597267" lon="11.4084867"><ele>289.0</ele><time>2026-04-11T04:55:58.994Z</time></trkpt><trkpt lat="43.3596683" lon="11.4084283"><ele>289.0</ele><time>2026-04-11T04:56:01.994Z</time></trkpt><trkpt lat="43.359605" lon="11.4083717"><ele>289.0</ele><time>2026-04-11T04:56:04.994Z</time></trkpt><trkpt lat="43.3595467" lon="11.4082883"><ele>289.0</ele><time>2026-04-11T04:56:07.994Z</time></trkpt><trkpt lat="43.3595" lon="11.4082083"><ele>289.0</ele><time>2026-04-11T04:56:10.995Z</time></trkpt><trkpt lat="43.35949" lon="11.4081183"><ele>289.0</ele><time>2026-04-11T04:56:12.994Z</time></trkpt><trkpt lat="43.3594717" lon="11.4080067"><ele>290.0</ele><time>2026-04-11T04:56:15.994Z</time></trkpt><trkpt lat="43.35948" lon="11.4078883"><ele>291.0</ele><time>2026-04-11T04:56:18.994Z</time></trkpt><trkpt lat="43.359505" lon="11.4077683"><ele>292.0</ele><time>2026-04-11T04:56:21.994Z</time></trkpt><trkpt lat="43.359535" lon="11.4076667"><ele>293.0</ele><time>2026-04-11T04:56:24.994Z</time></trkpt><trkpt lat="43.359575" lon="11.4075783"><ele>294.0</ele><time>2026-04-11T04:56:27.994Z</time></trkpt><trkpt lat="43.359635" lon="11.4075033"><ele>295.0</ele><time>2026-04-11T04:56:30.994Z</time></trkpt><trkpt lat="43.3597083" lon="11.4074467"><ele>295.0</ele><time>2026-04-11T04:56:33.994Z</time></trkpt><trkpt lat="43.35978" lon="11.4074017"><ele>295.0</ele><time>2026-04-11T04:56:36.994Z</time></trkpt><trkpt lat="43.359845" lon="11.4073683"><ele>295.0</ele><time>2026-04-11T04:56:40.994Z</time></trkpt><trkpt lat="43.3599067" lon="11.4073933"><ele>295.0</ele><time>2026-04-11T04:56:46.994Z</time></trkpt><trkpt lat="43.35983" lon="11.4073517"><ele>295.0</ele><time>2026-04-11T04:56:52.994Z</time></trkpt><trkpt lat="43.3597617" lon="11.4074033"><ele>295.0</ele><time>2026-04-11T04:57:14.994Z</time></trkpt><trkpt lat="43.3598367" lon="11.4073617"><ele>295.0</ele><time>2026-04-11T04:57:21.994Z</time></trkpt><trkpt lat="43.3599067" lon="11.407355"><ele>295.0</ele><time>2026-04-11T04:57:23.994Z</time></trkpt><trkpt lat="43.3600033" lon="11.40737"><ele>295.0</ele><time>2026-04-11T04:57:26.994Z</time></trkpt><trkpt lat="43.3600683" lon="11.4073867"><ele>295.0</ele><time>2026-04-11T04:57:28.994Z</time></trkpt><trkpt lat="43.360135" lon="11.40741"><ele>295.0</ele><time>2026-04-11T04:57:31.994Z</time></trkpt><trkpt lat="43.3602167" lon="11.4074383"><ele>295.0</ele><time>2026-04-11T04:57:34.994Z</time></trkpt><trkpt lat="43.3603033" lon="11.40748"><ele>295.00000000000006</ele><time>2026-04-11T04:57:37.995Z</time></trkpt><trkpt lat="43.360385" lon="11.40749"><ele>295.0</ele><time>2026-04-11T04:57:40.994Z</time></trkpt><trkpt lat="43.3604633" lon="11.4074967"><ele>295.0</ele><time>2026-04-11T04:57:43.994Z</time></trkpt><trkpt lat="43.3605317" lon="11.4075017"><ele>295.0</ele><time>2026-04-11T04:57:46.994Z</time></trkpt><trkpt lat="43.3605983" lon="11.4075233"><ele>295.0</ele><time>2026-04-11T04:57:49.995Z</time></trkpt><trkpt lat="43.3606717" lon="11.4075383"><ele>295.00000000000006</ele><time>2026-04-11T04:57:52.995Z</time></trkpt><trkpt lat="43.3607367" lon="11.4075383"><ele>295.0</ele><time>2026-04-11T04:57:55.995Z</time></trkpt><trkpt lat="43.3608133" lon="11.4075567"><ele>295.42857142857144</ele><time>2026-04-11T04:57:58.995Z</time></trkpt><trkpt lat="43.360885" lon="11.407565"><ele>295.8571428571429</ele><time>2026-04-11T04:58:01.994Z</time></trkpt><trkpt lat="43.3609567" lon="11.4075617"><ele>296.2857142857143</ele><time>2026-04-11T04:58:04.994Z</time></trkpt><trkpt lat="43.361025" lon="11.40754"><ele>296.7142857142857</ele><time>2026-04-11T04:58:07.994Z</time></trkpt><trkpt lat="43.3611" lon="11.4075367"><ele>297.1428571428571</ele><time>2026-04-11T04:58:10.994Z</time></trkpt><trkpt lat="43.36117" lon="11.40752"><ele>297.57142857142856</ele><time>2026-04-11T04:58:13.994Z</time></trkpt><trkpt lat="43.3612433" lon="11.4075133"><ele>298.0</ele><time>2026-04-11T04:58:16.994Z</time></trkpt><trkpt lat="43.3613183" lon="11.4075"><ele>299.3333333333333</ele><time>2026-04-11T04:58:19.994Z</time></trkpt><trkpt lat="43.3613883" lon="11.4074667"><ele>300.66666666666663</ele><time>2026-04-11T04:58:22.994Z</time></trkpt><trkpt lat="43.3614717" lon="11.40744"><ele>302.0</ele><time>2026-04-11T04:58:26.994Z</time></trkpt><trkpt lat="43.3615367" lon="11.4074117"><ele>303.3333333333333</ele><time>2026-04-11T04:58:29.995Z</time></trkpt><trkpt lat="43.361615" lon="11.4073917"><ele>304.6666666666667</ele><time>2026-04-11T04:58:32.994Z</time></trkpt><trkpt lat="43.3617067" lon="11.4073983"><ele>306.0</ele><time>2026-04-11T04:58:35.994Z</time></trkpt><trkpt lat="43.3617917" lon="11.4073917"><ele>306.0</ele><time>2026-04-11T04:58:38.994Z</time></trkpt><trkpt lat="43.361865" lon="11.40738"><ele>306.0</ele><time>2026-04-11T04:58:41.994Z</time></trkpt><trkpt lat="43.3619383" lon="11.407355"><ele>306.0</ele><time>2026-04-11T04:58:44.994Z</time></trkpt><trkpt lat="43.362005" lon="11.4073317"><ele>306.0</ele><time>2026-04-11T04:58:47.994Z</time></trkpt><trkpt lat="43.3620683" lon="11.4073033"><ele>306.0</ele><time>2026-04-11T04:58:50.994Z</time></trkpt><trkpt lat="43.362135" lon="11.407285"><ele>306.0</ele><time>2026-04-11T04:58:53.994Z</time></trkpt><trkpt lat="43.3622033" lon="11.4072683"><ele>306.0</ele><time>2026-04-11T04:58:56.995Z</time></trkpt><trkpt lat="43.3622683" lon="11.4072483"><ele>306.8333333333333</ele><time>2026-04-11T04:58:59.994Z</time></trkpt><trkpt lat="43.3623433" lon="11.4072083"><ele>307.6666666666667</ele><time>2026-04-11T04:59:03.994Z</time></trkpt><trkpt lat="43.3624067" lon="11.4071867"><ele>308.5</ele><time>2026-04-11T04:59:06.994Z</time></trkpt><trkpt lat="43.3624967" lon="11.4071617"><ele>309.33333333333337</ele><time>2026-04-11T04:59:09.994Z</time></trkpt><trkpt lat="43.3625717" lon="11.4071483"><ele>310.1666666666667</ele><time>2026-04-11T04:59:11.994Z</time></trkpt><trkpt lat="43.36264" lon="11.4071367"><ele>311.0</ele><time>2026-04-11T04:59:13.994Z</time></trkpt><trkpt lat="43.3627167" lon="11.4071117"><ele>311.0</ele><time>2026-04-11T04:59:16.994Z</time></trkpt><trkpt lat="43.3627917" lon="11.4070667"><ele>311.0</ele><time>2026-04-11T04:59:19.994Z</time></trkpt><trkpt lat="43.3628617" lon="11.4070383"><ele>311.0</ele><time>2026-04-11T04:59:22.994Z</time></trkpt><trkpt lat="43.36293" lon="11.40701"><ele>311.0</ele><time>2026-04-11T04:59:25.994Z</time></trkpt><trkpt lat="43.3630017" lon="11.4069867"><ele>311.0</ele><time>2026-04-11T04:59:28.994Z</time></trkpt><trkpt lat="43.3630633" lon="11.40694"><ele>311.0</ele><time>2026-04-11T04:59:31.995Z</time></trkpt><trkpt lat="43.3631267" lon="11.4068983"><ele>311.0</ele><time>2026-04-11T04:59:34.994Z</time></trkpt><trkpt lat="43.3631983" lon="11.406845"><ele>312.33333333333337</ele><time>2026-04-11T04:59:37.994Z</time></trkpt><trkpt lat="43.3632633" lon="11.4068083"><ele>313.6666666666667</ele><time>2026-04-11T04:59:40.994Z</time></trkpt><trkpt lat="43.363335" lon="11.4067567"><ele>315.0</ele><time>2026-04-11T04:59:43.994Z</time></trkpt><trkpt lat="43.3634" lon="11.4067167"><ele>316.3333333333333</ele><time>2026-04-11T04:59:46.994Z</time></trkpt><trkpt lat="43.3634683" lon="11.40668"><ele>317.66666666666663</ele><time>2026-04-11T04:59:49.995Z</time></trkpt><trkpt lat="43.3635333" lon="11.4066367"><ele>319.0</ele><time>2026-04-11T04:59:52.994Z</time></trkpt><trkpt lat="43.36361" lon="11.4065867"><ele>319.0</ele><time>2026-04-11T04:59:55.994Z</time></trkpt><trkpt lat="43.36368" lon="11.406545"><ele>319.0</ele><time>2026-04-11T04:59:58.994Z</time></trkpt><trkpt lat="43.3637417" lon="11.4064983"><ele>319.0</ele><time>2026-04-11T05:00:01.994Z</time></trkpt><trkpt lat="43.363815" lon="11.4064467"><ele>319.0</ele><time>2026-04-11T05:00:05.995Z</time></trkpt><trkpt lat="43.3638733" lon="11.406395"><ele>319.0</ele><time>2026-04-11T05:00:08.994Z</time></trkpt><trkpt lat="43.3639383" lon="11.406345"><ele>319.0</ele><time>2026-04-11T05:00:11.994Z</time></trkpt><trkpt lat="43.364005" lon="11.4063067"><ele>319.0</ele><time>2026-04-11T05:00:14.994Z</time></trkpt><trkpt lat="43.3640733" lon="11.4062667"><ele>320.42857142857144</ele><time>2026-04-11T05:00:17.994Z</time></trkpt><trkpt lat="43.3641367" lon="11.4062217"><ele>321.85714285714283</ele><time>2026-04-11T05:00:20.994Z</time></trkpt><trkpt lat="43.3641983" lon="11.4061717"><ele>323.2857142857143</ele><time>2026-04-11T05:00:23.994Z</time></trkpt><trkpt lat="43.36426" lon="11.4061183"><ele>324.7142857142857</ele><time>2026-04-11T05:00:26.995Z</time></trkpt><trkpt lat="43.3643283" lon="11.4060683"><ele>326.1428571428571</ele><time>2026-04-11T05:00:29.995Z</time></trkpt><trkpt lat="43.3643883" lon="11.4060317"><ele>327.57142857142856</ele><time>2026-04-11T05:00:32.994Z</time></trkpt><trkpt lat="43.3644633" lon="11.4059867"><ele>329.0</ele><time>2026-04-11T05:00:36.994Z</time></trkpt><trkpt lat="43.3645533" lon="11.405995"><ele>329.0</ele><time>2026-04-11T05:00:39.994Z</time></trkpt><trkpt lat="43.3646367" lon="11.40602"><ele>329.0</ele><time>2026-04-11T05:00:42.994Z</time></trkpt><trkpt lat="43.3646983" lon="11.4060833"><ele>329.0</ele><time>2026-04-11T05:00:45.994Z</time></trkpt><trkpt lat="43.36476" lon="11.406145"><ele>329.0</ele><time>2026-04-11T05:00:49.994Z</time></trkpt><trkpt lat="43.3648133" lon="11.4062"><ele>329.0</ele><time>2026-04-11T05:00:53.994Z</time></trkpt><trkpt lat="43.3648767" lon="11.4062567"><ele>329.0</ele><time>2026-04-11T05:00:57.994Z</time></trkpt><trkpt lat="43.3649567" lon="11.406285"><ele>330.6666666666667</ele><time>2026-04-11T05:01:01.994Z</time></trkpt><trkpt lat="43.365025" lon="11.4063167"><ele>332.33333333333337</ele><time>2026-04-11T05:01:04.994Z</time></trkpt><trkpt lat="43.3651" lon="11.406345"><ele>334.0</ele><time>2026-04-11T05:01:07.994Z</time></trkpt><trkpt lat="43.3651733" lon="11.4063567"><ele>335.6666666666667</ele><time>2026-04-11T05:01:10.994Z</time></trkpt><trkpt lat="43.3652617" lon="11.406355"><ele>337.3333333333333</ele><time>2026-04-11T05:01:14.994Z</time></trkpt><trkpt lat="43.36534" lon="11.4063317"><ele>339.0</ele><time>2026-04-11T05:01:17.995Z</time></trkpt><trkpt lat="43.3654117" lon="11.4062917"><ele>339.1666666666667</ele><time>2026-04-11T05:01:20.994Z</time></trkpt><trkpt lat="43.36548" lon="11.406245"><ele>339.3333333333333</ele><time>2026-04-11T05:01:23.994Z</time></trkpt><trkpt lat="43.3655467" lon="11.4062333"><ele>339.5</ele><time>2026-04-11T05:01:25.994Z</time></trkpt><trkpt lat="43.3656383" lon="11.40621"><ele>339.66666666666663</ele><time>2026-04-11T05:01:28.995Z</time></trkpt><trkpt lat="43.36573" lon="11.406185"><ele>339.8333333333333</ele><time>2026-04-11T05:01:31.994Z</time></trkpt><trkpt lat="43.3658183" lon="11.40615"><ele>340.0</ele><time>2026-04-11T05:01:34.994Z</time></trkpt><trkpt lat="43.36588" lon="11.4060733"><ele>340.5714285714286</ele><time>2026-04-11T05:01:37.994Z</time></trkpt><trkpt lat="43.3659317" lon="11.4059983"><ele>341.1428571428571</ele><time>2026-04-11T05:01:40.994Z</time></trkpt><trkpt lat="43.36597" lon="11.405905"><ele>341.7142857142857</ele><time>2026-04-11T05:01:43.994Z</time></trkpt><trkpt lat="43.36602" lon="11.4058"><ele>342.28571428571433</ele><time>2026-04-11T05:01:46.994Z</time></trkpt><trkpt lat="43.36607" lon="11.4057283"><ele>342.8571428571429</ele><time>2026-04-11T05:01:48.994Z</time></trkpt><trkpt lat="43.3661167" lon="11.4056617"><ele>343.42857142857144</ele><time>2026-04-11T05:01:50.995Z</time></trkpt><trkpt lat="43.3661567" lon="11.40559"><ele>344.0</ele><time>2026-04-11T05:01:52.994Z</time></trkpt><trkpt lat="43.3661933" lon="11.405515"><ele>344.0</ele><time>2026-04-11T05:01:54.994Z</time></trkpt><trkpt lat="43.36623" lon="11.4054433"><ele>344.0</ele><time>2026-04-11T05:01:56.994Z</time></trkpt><trkpt lat="43.3662767" lon="11.4053683"><ele>344.0</ele><time>2026-04-11T05:01:58.994Z</time></trkpt><trkpt lat="43.366325" lon="11.405265"><ele>344.0</ele><time>2026-04-11T05:02:01.995Z</time></trkpt><trkpt lat="43.3663617" lon="11.4051517"><ele>344.0</ele><time>2026-04-11T05:02:04.994Z</time></trkpt><trkpt lat="43.3663917" lon="11.40505"><ele>344.0</ele><time>2026-04-11T05:02:07.996Z</time></trkpt><trkpt lat="43.3664267" lon="11.404945"><ele>344.0</ele><time>2026-04-11T05:02:10.995Z</time></trkpt><trkpt lat="43.3664683" lon="11.404835"><ele>344.0</ele><time>2026-04-11T05:02:13.995Z</time></trkpt><trkpt lat="43.3665167" lon="11.40473"><ele>344.0</ele><time>2026-04-11T05:02:16.995Z</time></trkpt><trkpt lat="43.3665733" lon="11.4046333"><ele>344.0</ele><time>2026-04-11T05:02:19.995Z</time></trkpt><trkpt lat="43.366645" lon="11.4045517"><ele>344.0</ele><time>2026-04-11T05:02:22.995Z</time></trkpt><trkpt lat="43.3667067" lon="11.4044767"><ele>344.0</ele><time>2026-04-11T05:02:25.995Z</time></trkpt><trkpt lat="43.3667883" lon="11.4044167"><ele>344.83333333333337</ele><time>2026-04-11T05:02:28.995Z</time></trkpt><trkpt lat="43.3668667" lon="11.4043583"><ele>345.6666666666667</ele><time>2026-04-11T05:02:31.995Z</time></trkpt><trkpt lat="43.3669483" lon="11.4043117"><ele>346.5</ele><time>2026-04-11T05:02:34.996Z</time></trkpt><trkpt lat="43.3670317" lon="11.404285"><ele>347.3333333333333</ele><time>2026-04-11T05:02:37.995Z</time></trkpt><trkpt lat="43.367095" lon="11.404275"><ele>348.16666666666663</ele><time>2026-04-11T05:02:39.996Z</time></trkpt><trkpt lat="43.3671833" lon="11.4042633"><ele>349.0</ele><time>2026-04-11T05:02:42.995Z</time></trkpt><trkpt lat="43.3672617" lon="11.404245"><ele>349.0</ele><time>2026-04-11T05:02:45.996Z</time></trkpt><trkpt lat="43.36735" lon="11.404245"><ele>349.0</ele><time>2026-04-11T05:02:48.995Z</time></trkpt><trkpt lat="43.367415" lon="11.4042433"><ele>349.0</ele><time>2026-04-11T05:02:50.995Z</time></trkpt><trkpt lat="43.3674817" lon="11.4042433"><ele>349.0</ele><time>2026-04-11T05:02:52.995Z</time></trkpt><trkpt lat="43.3675683" lon="11.4042467"><ele>349.0</ele><time>2026-04-11T05:02:55.995Z</time></trkpt><trkpt lat="43.3676567" lon="11.404235"><ele>349.0</ele><time>2026-04-11T05:02:58.995Z</time></trkpt><trkpt lat="43.3677417" lon="11.4042383"><ele>348.99999999999994</ele><time>2026-04-11T05:03:01.995Z</time></trkpt><trkpt lat="43.36781" lon="11.4042517"><ele>349.0</ele><time>2026-04-11T05:03:03.995Z</time></trkpt><trkpt lat="43.367885" lon="11.40425"><ele>349.0</ele><time>2026-04-11T05:03:06.995Z</time></trkpt><trkpt lat="43.3679683" lon="11.40425"><ele>349.0</ele><time>2026-04-11T05:03:09.995Z</time></trkpt><trkpt lat="43.3680317" lon="11.4042417"><ele>349.0</ele><time>2026-04-11T05:03:11.995Z</time></trkpt><trkpt lat="43.3680967" lon="11.404235"><ele>348.99999999999994</ele><time>2026-04-11T05:03:13.995Z</time></trkpt><trkpt lat="43.3681633" lon="11.4042383"><ele>349.0</ele><time>2026-04-11T05:03:15.995Z</time></trkpt><trkpt lat="43.3682267" lon="11.404255"><ele>349.4285714285714</ele><time>2026-04-11T05:03:17.995Z</time></trkpt><trkpt lat="43.3682917" lon="11.40427"><ele>349.85714285714283</ele><time>2026-04-11T05:03:19.995Z</time></trkpt><trkpt lat="43.3683767" lon="11.4042817"><ele>350.2857142857143</ele><time>2026-04-11T05:03:22.995Z</time></trkpt><trkpt lat="43.3684633" lon="11.4043017"><ele>350.71428571428567</ele><time>2026-04-11T05:03:25.995Z</time></trkpt><trkpt lat="43.368535" lon="11.404335"><ele>351.1428571428571</ele><time>2026-04-11T05:03:27.995Z</time></trkpt><trkpt lat="43.3685967" lon="11.40436"><ele>351.57142857142856</ele><time>2026-04-11T05:03:29.995Z</time></trkpt><trkpt lat="43.3686633" lon="11.404385"><ele>352.0</ele><time>2026-04-11T05:03:31.996Z</time></trkpt><trkpt lat="43.3687317" lon="11.40441"><ele>352.0</ele><time>2026-04-11T05:03:33.995Z</time></trkpt><trkpt lat="43.3688067" lon="11.4044417"><ele>352.0</ele><time>2026-04-11T05:03:35.995Z</time></trkpt><trkpt lat="43.3688733" lon="11.4044617"><ele>352.0</ele><time>2026-04-11T05:03:37.995Z</time></trkpt><trkpt lat="43.3689683" lon="11.404465"><ele>352.0</ele><time>2026-04-11T05:03:40.995Z</time></trkpt><trkpt lat="43.36904" lon="11.4044717"><ele>352.0</ele><time>2026-04-11T05:03:42.995Z</time></trkpt><trkpt lat="43.3691083" lon="11.404465"><ele>352.0</ele><time>2026-04-11T05:03:44.995Z</time></trkpt><trkpt lat="43.36918" lon="11.4044633"><ele>352.5</ele><time>2026-04-11T05:03:46.995Z</time></trkpt><trkpt lat="43.3692517" lon="11.40446"><ele>353.0</ele><time>2026-04-11T05:03:48.995Z</time></trkpt><trkpt lat="43.3693167" lon="11.4044483"><ele>353.5</ele><time>2026-04-11T05:03:50.995Z</time></trkpt><trkpt lat="43.36941" lon="11.4044517"><ele>354.0</ele><time>2026-04-11T05:03:53.995Z</time></trkpt><trkpt lat="43.3694767" lon="11.4044683"><ele>354.5</ele><time>2026-04-11T05:03:55.995Z</time></trkpt><trkpt lat="43.36956" lon="11.4044617"><ele>355.0</ele><time>2026-04-11T05:03:58.995Z</time></trkpt><trkpt lat="43.3696517" lon="11.4044733"><ele>356.0</ele><time>2026-04-11T05:04:01.995Z</time></trkpt><trkpt lat="43.369735" lon="11.4044667"><ele>357.0</ele><time>2026-04-11T05:04:04.995Z</time></trkpt><trkpt lat="43.369805" lon="11.404465"><ele>358.0</ele><time>2026-04-11T05:04:07.995Z</time></trkpt><trkpt lat="43.3698817" lon="11.404455"><ele>359.0</ele><time>2026-04-11T05:04:10.995Z</time></trkpt><trkpt lat="43.3699617" lon="11.40445"><ele>360.0</ele><time>2026-04-11T05:04:13.995Z</time></trkpt><trkpt lat="43.3700433" lon="11.4044433"><ele>361.0</ele><time>2026-04-11T05:04:16.995Z</time></trkpt><trkpt lat="43.3701217" lon="11.4044517"><ele>361.0</ele><time>2026-04-11T05:04:19.995Z</time></trkpt><trkpt lat="43.3702017" lon="11.4044733"><ele>361.0</ele><time>2026-04-11T05:04:22.995Z</time></trkpt><trkpt lat="43.3702833" lon="11.4044833"><ele>361.0</ele><time>2026-04-11T05:04:25.995Z</time></trkpt><trkpt lat="43.3703617" lon="11.40449"><ele>361.0</ele><time>2026-04-11T05:04:28.995Z</time></trkpt><trkpt lat="43.3704467" lon="11.4044983"><ele>361.0</ele><time>2026-04-11T05:04:31.995Z</time></trkpt><trkpt lat="43.3705267" lon="11.4044967"><ele>361.0</ele><time>2026-04-11T05:04:34.995Z</time></trkpt><trkpt lat="43.370605" lon="11.40448"><ele>361.7142857142857</ele><time>2026-04-11T05:04:37.996Z</time></trkpt><trkpt lat="43.3706683" lon="11.4044383"><ele>362.4285714285714</ele><time>2026-04-11T05:04:40.995Z</time></trkpt><trkpt lat="43.3707233" lon="11.404385"><ele>363.1428571428571</ele><time>2026-04-11T05:04:43.995Z</time></trkpt><trkpt lat="43.370785" lon="11.4043317"><ele>363.8571428571429</ele><time>2026-04-11T05:04:46.995Z</time></trkpt><trkpt lat="43.3708517" lon="11.4042983"><ele>364.57142857142856</ele><time>2026-04-11T05:04:49.995Z</time></trkpt><trkpt lat="43.37091" lon="11.4042567"><ele>365.2857142857143</ele><time>2026-04-11T05:04:52.995Z</time></trkpt><trkpt lat="43.3709667" lon="11.404205"><ele>366.0</ele><time>2026-04-11T05:04:55.995Z</time></trkpt><trkpt lat="43.3710083" lon="11.40412"><ele>366.0</ele><time>2026-04-11T05:04:58.995Z</time></trkpt><trkpt lat="43.3710517" lon="11.4040283"><ele>366.0</ele><time>2026-04-11T05:05:01.995Z</time></trkpt><trkpt lat="43.37109" lon="11.4039433"><ele>366.0</ele><time>2026-04-11T05:05:04.996Z</time></trkpt><trkpt lat="43.3711317" lon="11.403845"><ele>366.0</ele><time>2026-04-11T05:05:07.995Z</time></trkpt><trkpt lat="43.37117" lon="11.403765"><ele>366.0</ele><time>2026-04-11T05:05:10.996Z</time></trkpt><trkpt lat="43.37121" lon="11.4036783"><ele>366.0</ele><time>2026-04-11T05:05:13.995Z</time></trkpt><trkpt lat="43.3712533" lon="11.4035667"><ele>366.3333333333333</ele><time>2026-04-11T05:05:16.995Z</time></trkpt><trkpt lat="43.3712867" lon="11.4034733"><ele>366.6666666666667</ele><time>2026-04-11T05:05:19.995Z</time></trkpt><trkpt lat="43.3713383" lon="11.4033733"><ele>367.0</ele><time>2026-04-11T05:05:22.995Z</time></trkpt><trkpt lat="43.371385" lon="11.4032767"><ele>367.33333333333337</ele><time>2026-04-11T05:05:25.995Z</time></trkpt><trkpt lat="43.3714217" lon="11.4031983"><ele>367.6666666666667</ele><time>2026-04-11T05:05:28.995Z</time></trkpt><trkpt lat="43.3714667" lon="11.4031217"><ele>368.0</ele><time>2026-04-11T05:05:31.995Z</time></trkpt><trkpt lat="43.37152" lon="11.40302"><ele>369.83333333333337</ele><time>2026-04-11T05:05:34.996Z</time></trkpt><trkpt lat="43.3715567" lon="11.402935"><ele>371.6666666666667</ele><time>2026-04-11T05:05:37.995Z</time></trkpt><trkpt lat="43.3715967" lon="11.402845"><ele>373.5</ele><time>2026-04-11T05:05:41.995Z</time></trkpt><trkpt lat="43.3716333" lon="11.4027667"><ele>375.3333333333333</ele><time>2026-04-11T05:05:44.995Z</time></trkpt><trkpt lat="43.3716617" lon="11.4026783"><ele>377.16666666666663</ele><time>2026-04-11T05:05:47.995Z</time></trkpt><trkpt lat="43.3716917" lon="11.40257"><ele>379.0</ele><time>2026-04-11T05:05:50.995Z</time></trkpt><trkpt lat="43.37173" lon="11.4024567"><ele>379.0</ele><time>2026-04-11T05:05:53.996Z</time></trkpt><trkpt lat="43.3717567" lon="11.4023583"><ele>379.0</ele><time>2026-04-11T05:05:56.995Z</time></trkpt><trkpt lat="43.371795" lon="11.402245"><ele>379.0</ele><time>2026-04-11T05:06:00.995Z</time></trkpt><trkpt lat="43.371825" lon="11.4021417"><ele>379.0</ele><time>2026-04-11T05:06:03.995Z</time></trkpt><trkpt lat="43.3718483" lon="11.4020483"><ele>379.0</ele><time>2026-04-11T05:06:06.996Z</time></trkpt><trkpt lat="43.3718483" lon="11.401945"><ele>379.0</ele><time>2026-04-11T05:06:09.995Z</time></trkpt><trkpt lat="43.3718767" lon="11.4018617"><ele>379.28571428571433</ele><time>2026-04-11T05:06:11.995Z</time></trkpt><trkpt lat="43.3719067" lon="11.4017483"><ele>379.57142857142856</ele><time>2026-04-11T05:06:14.995Z</time></trkpt><trkpt lat="43.3719317" lon="11.4016517"><ele>379.8571428571429</ele><time>2026-04-11T05:06:17.995Z</time></trkpt><trkpt lat="43.371975" lon="11.4015783"><ele>380.14285714285717</ele><time>2026-04-11T05:06:20.996Z</time></trkpt><trkpt lat="43.37202" lon="11.401515"><ele>380.42857142857144</ele><time>2026-04-11T05:06:23.995Z</time></trkpt><trkpt lat="43.3720883" lon="11.40146"><ele>380.7142857142857</ele><time>2026-04-11T05:06:28.995Z</time></trkpt><trkpt lat="43.37214" lon="11.4014083"><ele>381.0</ele><time>2026-04-11T05:06:31.995Z</time></trkpt><trkpt lat="43.3722017" lon="11.4013483"><ele>381.8333333333333</ele><time>2026-04-11T05:06:34.995Z</time></trkpt><trkpt lat="43.37225" lon="11.4012817"><ele>382.66666666666663</ele><time>2026-04-11T05:06:37.995Z</time></trkpt><trkpt lat="43.372305" lon="11.4012333"><ele>383.5</ele><time>2026-04-11T05:06:39.995Z</time></trkpt><trkpt lat="43.372375" lon="11.4011667"><ele>384.3333333333333</ele><time>2026-04-11T05:06:41.995Z</time></trkpt><trkpt lat="43.3724517" lon="11.401075"><ele>385.16666666666663</ele><time>2026-04-11T05:06:43.995Z</time></trkpt><trkpt lat="43.37252" lon="11.40096"><ele>386.0</ele><time>2026-04-11T05:06:45.995Z</time></trkpt><trkpt lat="43.3725883" lon="11.400855"><ele>385.99999999999994</ele><time>2026-04-11T05:06:47.995Z</time></trkpt><trkpt lat="43.372665" lon="11.4007717"><ele>386.0</ele><time>2026-04-11T05:06:49.995Z</time></trkpt><trkpt lat="43.3727367" lon="11.4006917"><ele>386.0</ele><time>2026-04-11T05:06:51.995Z</time></trkpt><trkpt lat="43.3727983" lon="11.4006183"><ele>386.0</ele><time>2026-04-11T05:06:53.995Z</time></trkpt><trkpt lat="43.372865" lon="11.4005467"><ele>385.99999999999994</ele><time>2026-04-11T05:06:55.995Z</time></trkpt><trkpt lat="43.3729367" lon="11.4004783"><ele>386.0</ele><time>2026-04-11T05:06:57.995Z</time></trkpt><trkpt lat="43.3730083" lon="11.400415"><ele>385.49999999999994</ele><time>2026-04-11T05:06:59.995Z</time></trkpt><trkpt lat="43.3730767" lon="11.4003517"><ele>385.0</ele><time>2026-04-11T05:07:01.995Z</time></trkpt><trkpt lat="43.373145" lon="11.400295"><ele>384.5</ele><time>2026-04-11T05:07:03.995Z</time></trkpt><trkpt lat="43.3732133" lon="11.400245"><ele>384.0</ele><time>2026-04-11T05:07:05.995Z</time></trkpt><trkpt lat="43.37328" lon="11.4002"><ele>383.5</ele><time>2026-04-11T05:07:07.995Z</time></trkpt><trkpt lat="43.3733533" lon="11.400165"><ele>383.0</ele><time>2026-04-11T05:07:09.995Z</time></trkpt><trkpt lat="43.37343" lon="11.4001283"><ele>383.0</ele><time>2026-04-11T05:07:11.995Z</time></trkpt><trkpt lat="43.3735033" lon="11.4000917"><ele>383.0</ele><time>2026-04-11T05:07:13.995Z</time></trkpt><trkpt lat="43.3735717" lon="11.4000617"><ele>383.0</ele><time>2026-04-11T05:07:15.995Z</time></trkpt><trkpt lat="43.373645" lon="11.4000333"><ele>383.0</ele><time>2026-04-11T05:07:17.995Z</time></trkpt><trkpt lat="43.3737267" lon="11.4000117"><ele>383.0</ele><time>2026-04-11T05:07:19.995Z</time></trkpt><trkpt lat="43.3738033" lon="11.3999833"><ele>383.0</ele><time>2026-04-11T05:07:21.995Z</time></trkpt><trkpt lat="43.3738683" lon="11.399955"><ele>383.0</ele><time>2026-04-11T05:07:23.996Z</time></trkpt><trkpt lat="43.373935" lon="11.3999183"><ele>383.0</ele><time>2026-04-11T05:07:25.995Z</time></trkpt><trkpt lat="43.3739967" lon="11.3998833"><ele>383.0</ele><time>2026-04-11T05:07:27.995Z</time></trkpt><trkpt lat="43.3740583" lon="11.39984"><ele>383.0</ele><time>2026-04-11T05:07:29.995Z</time></trkpt><trkpt lat="43.3741233" lon="11.3997883"><ele>383.0</ele><time>2026-04-11T05:07:31.995Z</time></trkpt><trkpt lat="43.3741933" lon="11.3997317"><ele>383.0</ele><time>2026-04-11T05:07:33.996Z</time></trkpt><trkpt lat="43.3742633" lon="11.3996833"><ele>383.0</ele><time>2026-04-11T05:07:35.995Z</time></trkpt><trkpt lat="43.3743283" lon="11.39962"><ele>382.83333333333337</ele><time>2026-04-11T05:07:37.995Z</time></trkpt><trkpt lat="43.3743967" lon="11.3995533"><ele>382.6666666666667</ele><time>2026-04-11T05:07:39.995Z</time></trkpt><trkpt lat="43.3744717" lon="11.399485"><ele>382.5</ele><time>2026-04-11T05:07:41.995Z</time></trkpt><trkpt lat="43.3745333" lon="11.3994067"><ele>382.3333333333333</ele><time>2026-04-11T05:07:43.995Z</time></trkpt><trkpt lat="43.3745933" lon="11.399335"><ele>382.16666666666663</ele><time>2026-04-11T05:07:45.995Z</time></trkpt><trkpt lat="43.3746617" lon="11.3992667"><ele>382.0</ele><time>2026-04-11T05:07:47.995Z</time></trkpt><trkpt lat="43.3747233" lon="11.399195"><ele>382.0</ele><time>2026-04-11T05:07:49.995Z</time></trkpt><trkpt lat="43.37478" lon="11.3991217"><ele>382.0</ele><time>2026-04-11T05:07:51.995Z</time></trkpt><trkpt lat="43.3748483" lon="11.3990617"><ele>382.0</ele><time>2026-04-11T05:07:53.995Z</time></trkpt><trkpt lat="43.3749267" lon="11.399"><ele>382.0</ele><time>2026-04-11T05:07:55.994Z</time></trkpt><trkpt lat="43.37499" lon="11.3989283"><ele>382.0</ele><time>2026-04-11T05:07:57.995Z</time></trkpt><trkpt lat="43.3750517" lon="11.3988517"><ele>382.0</ele><time>2026-04-11T05:07:59.995Z</time></trkpt><trkpt lat="43.375115" lon="11.398775"><ele>382.16666666666663</ele><time>2026-04-11T05:08:01.995Z</time></trkpt><trkpt lat="43.3751817" lon="11.3987033"><ele>382.3333333333333</ele><time>2026-04-11T05:08:03.995Z</time></trkpt><trkpt lat="43.3752567" lon="11.398635"><ele>382.5</ele><time>2026-04-11T05:08:05.995Z</time></trkpt><trkpt lat="43.3753317" lon="11.3985733"><ele>382.6666666666667</ele><time>2026-04-11T05:08:07.995Z</time></trkpt><trkpt lat="43.3754117" lon="11.3985317"><ele>382.83333333333337</ele><time>2026-04-11T05:08:09.995Z</time></trkpt><trkpt lat="43.375485" lon="11.39848"><ele>383.0</ele><time>2026-04-11T05:08:11.996Z</time></trkpt><trkpt lat="43.3755567" lon="11.3984417"><ele>383.0</ele><time>2026-04-11T05:08:13.995Z</time></trkpt><trkpt lat="43.3756283" lon="11.3984033"><ele>383.0</ele><time>2026-04-11T05:08:15.995Z</time></trkpt><trkpt lat="43.3757" lon="11.39837"><ele>383.0</ele><time>2026-04-11T05:08:17.995Z</time></trkpt><trkpt lat="43.3757683" lon="11.39833"><ele>383.0</ele><time>2026-04-11T05:08:19.995Z</time></trkpt><trkpt lat="43.3758383" lon="11.3983017"><ele>383.0</ele><time>2026-04-11T05:08:21.995Z</time></trkpt><trkpt lat="43.37592" lon="11.39827"><ele>383.0</ele><time>2026-04-11T05:08:23.996Z</time></trkpt><trkpt lat="43.3759967" lon="11.3982417"><ele>383.0</ele><time>2026-04-11T05:08:25.995Z</time></trkpt><trkpt lat="43.3760733" lon="11.3982133"><ele>383.0</ele><time>2026-04-11T05:08:27.995Z</time></trkpt><trkpt lat="43.376155" lon="11.3981933"><ele>383.0</ele><time>2026-04-11T05:08:29.995Z</time></trkpt><trkpt lat="43.3762233" lon="11.398155"><ele>383.0</ele><time>2026-04-11T05:08:31.995Z</time></trkpt><trkpt lat="43.3763" lon="11.3981267"><ele>383.0</ele><time>2026-04-11T05:08:33.995Z</time></trkpt><trkpt lat="43.3763817" lon="11.3981083"><ele>383.0</ele><time>2026-04-11T05:08:35.995Z</time></trkpt><trkpt lat="43.3764617" lon="11.398085"><ele>382.6666666666667</ele><time>2026-04-11T05:08:37.995Z</time></trkpt><trkpt lat="43.3765317" lon="11.39804"><ele>382.33333333333337</ele><time>2026-04-11T05:08:39.995Z</time></trkpt><trkpt lat="43.3766067" lon="11.397985"><ele>382.0</ele><time>2026-04-11T05:08:41.995Z</time></trkpt><trkpt lat="43.3766717" lon="11.3979367"><ele>381.6666666666667</ele><time>2026-04-11T05:08:43.995Z</time></trkpt><trkpt lat="43.3767417" lon="11.3978667"><ele>381.3333333333333</ele><time>2026-04-11T05:08:45.995Z</time></trkpt><trkpt lat="43.3768117" lon="11.3977967"><ele>381.0</ele><time>2026-04-11T05:08:47.996Z</time></trkpt><trkpt lat="43.3768783" lon="11.397725"><ele>381.8333333333333</ele><time>2026-04-11T05:08:49.996Z</time></trkpt><trkpt lat="43.376945" lon="11.3976617"><ele>382.66666666666663</ele><time>2026-04-11T05:08:51.996Z</time></trkpt><trkpt lat="43.3770083" lon="11.3975917"><ele>383.5</ele><time>2026-04-11T05:08:53.995Z</time></trkpt><trkpt lat="43.37706" lon="11.3975233"><ele>384.3333333333333</ele><time>2026-04-11T05:08:55.996Z</time></trkpt><trkpt lat="43.3771183" lon="11.3974667"><ele>385.16666666666663</ele><time>2026-04-11T05:08:57.995Z</time></trkpt><trkpt lat="43.37719" lon="11.3974017"><ele>386.0</ele><time>2026-04-11T05:09:00.995Z</time></trkpt><trkpt lat="43.3772667" lon="11.3973417"><ele>386.00000000000006</ele><time>2026-04-11T05:09:03.995Z</time></trkpt><trkpt lat="43.377325" lon="11.3973"><ele>386.0</ele><time>2026-04-11T05:09:06.995Z</time></trkpt><trkpt lat="43.3773917" lon="11.3972583"><ele>386.0</ele><time>2026-04-11T05:09:09.995Z</time></trkpt><trkpt lat="43.377455" lon="11.397235"><ele>386.0</ele><time>2026-04-11T05:09:11.996Z</time></trkpt><trkpt lat="43.3775217" lon="11.397195"><ele>386.0</ele><time>2026-04-11T05:09:13.995Z</time></trkpt><trkpt lat="43.3775983" lon="11.397155"><ele>386.00000000000006</ele><time>2026-04-11T05:09:15.996Z</time></trkpt><trkpt lat="43.377665" lon="11.39713"><ele>386.0</ele><time>2026-04-11T05:09:17.995Z</time></trkpt><trkpt lat="43.3777467" lon="11.39712"><ele>386.49999999999994</ele><time>2026-04-11T05:09:19.995Z</time></trkpt><trkpt lat="43.3778367" lon="11.39712"><ele>387.0</ele><time>2026-04-11T05:09:21.995Z</time></trkpt><trkpt lat="43.377915" lon="11.3971133"><ele>387.5</ele><time>2026-04-11T05:09:23.995Z</time></trkpt><trkpt lat="43.378005" lon="11.39709"><ele>388.0</ele><time>2026-04-11T05:09:26.995Z</time></trkpt><trkpt lat="43.378075" lon="11.3970667"><ele>388.49999999999994</ele><time>2026-04-11T05:09:28.995Z</time></trkpt><trkpt lat="43.37815" lon="11.397045"><ele>389.0</ele><time>2026-04-11T05:09:30.995Z</time></trkpt><trkpt lat="43.3782283" lon="11.3970167"><ele>389.7142857142857</ele><time>2026-04-11T05:09:32.995Z</time></trkpt><trkpt lat="43.3783083" lon="11.3969883"><ele>390.4285714285714</ele><time>2026-04-11T05:09:34.995Z</time></trkpt><trkpt lat="43.378375" lon="11.3969633"><ele>391.1428571428571</ele><time>2026-04-11T05:09:36.995Z</time></trkpt><trkpt lat="43.378445" lon="11.3969417"><ele>391.8571428571429</ele><time>2026-04-11T05:09:38.995Z</time></trkpt><trkpt lat="43.3785167" lon="11.3969167"><ele>392.57142857142856</ele><time>2026-04-11T05:09:40.996Z</time></trkpt><trkpt lat="43.3785833" lon="11.3968917"><ele>393.2857142857143</ele><time>2026-04-11T05:09:42.995Z</time></trkpt><trkpt lat="43.378645" lon="11.3968667"><ele>394.0</ele><time>2026-04-11T05:09:44.995Z</time></trkpt><trkpt lat="43.3787067" lon="11.39683"><ele>394.00000000000006</ele><time>2026-04-11T05:09:46.996Z</time></trkpt><trkpt lat="43.3787933" lon="11.396805"><ele>394.0</ele><time>2026-04-11T05:09:49.995Z</time></trkpt><trkpt lat="43.3788617" lon="11.3967817"><ele>394.0</ele><time>2026-04-11T05:09:51.995Z</time></trkpt><trkpt lat="43.3789283" lon="11.39676"><ele>394.0</ele><time>2026-04-11T05:09:53.995Z</time></trkpt><trkpt lat="43.379015" lon="11.39673"><ele>394.00000000000006</ele><time>2026-04-11T05:09:56.995Z</time></trkpt><trkpt lat="43.37908" lon="11.396725"><ele>394.0</ele><time>2026-04-11T05:09:58.995Z</time></trkpt><trkpt lat="43.3791717" lon="11.3967033"><ele>394.8571428571429</ele><time>2026-04-11T05:10:01.995Z</time></trkpt><trkpt lat="43.379235" lon="11.3966917"><ele>395.7142857142857</ele><time>2026-04-11T05:10:03.995Z</time></trkpt><trkpt lat="43.3792983" lon="11.3966717"><ele>396.57142857142856</ele><time>2026-04-11T05:10:05.995Z</time></trkpt><trkpt lat="43.37938" lon="11.3966383"><ele>397.42857142857144</ele><time>2026-04-11T05:10:08.995Z</time></trkpt><trkpt lat="43.37946" lon="11.39661"><ele>398.2857142857143</ele><time>2026-04-11T05:10:11.996Z</time></trkpt><trkpt lat="43.3795233" lon="11.396595"><ele>399.14285714285717</ele><time>2026-04-11T05:10:13.995Z</time></trkpt><trkpt lat="43.3795883" lon="11.39658"><ele>400.0</ele><time>2026-04-11T05:10:15.995Z</time></trkpt><trkpt lat="43.379655" lon="11.3965617"><ele>400.5714285714286</ele><time>2026-04-11T05:10:17.995Z</time></trkpt><trkpt lat="43.379725" lon="11.39655"><ele>401.14285714285717</ele><time>2026-04-11T05:10:19.995Z</time></trkpt><trkpt lat="43.3797883" lon="11.3965367"><ele>401.7142857142857</ele><time>2026-04-11T05:10:21.995Z</time></trkpt><trkpt lat="43.3798517" lon="11.3965217"><ele>402.28571428571433</ele><time>2026-04-11T05:10:23.995Z</time></trkpt><trkpt lat="43.3799233" lon="11.3964867"><ele>402.85714285714283</ele><time>2026-04-11T05:10:26.995Z</time></trkpt><trkpt lat="43.379985" lon="11.3964617"><ele>403.42857142857144</ele><time>2026-04-11T05:10:28.995Z</time></trkpt><trkpt lat="43.38005" lon="11.39645"><ele>404.0</ele><time>2026-04-11T05:10:30.995Z</time></trkpt><trkpt lat="43.380135" lon="11.3964267"><ele>403.99999999999994</ele><time>2026-04-11T05:10:33.996Z</time></trkpt><trkpt lat="43.3802267" lon="11.3964083"><ele>404.0</ele><time>2026-04-11T05:10:36.995Z</time></trkpt><trkpt lat="43.3803183" lon="11.3963867"><ele>404.0</ele><time>2026-04-11T05:10:39.995Z</time></trkpt><trkpt lat="43.3804083" lon="11.39636"><ele>404.0</ele><time>2026-04-11T05:10:42.995Z</time></trkpt><trkpt lat="43.3804717" lon="11.3963467"><ele>403.99999999999994</ele><time>2026-04-11T05:10:44.995Z</time></trkpt><trkpt lat="43.3805617" lon="11.3963183"><ele>404.0</ele><time>2026-04-11T05:10:47.995Z</time></trkpt><trkpt lat="43.380625" lon="11.3963"><ele>404.66666666666663</ele><time>2026-04-11T05:10:49.995Z</time></trkpt><trkpt lat="43.3807183" lon="11.3962833"><ele>405.3333333333333</ele><time>2026-04-11T05:10:52.995Z</time></trkpt><trkpt lat="43.3808067" lon="11.3962533"><ele>406.0</ele><time>2026-04-11T05:10:55.995Z</time></trkpt><trkpt lat="43.38087" lon="11.396245"><ele>406.66666666666663</ele><time>2026-04-11T05:10:57.995Z</time></trkpt><trkpt lat="43.3809383" lon="11.3962433"><ele>407.3333333333333</ele><time>2026-04-11T05:10:59.995Z</time></trkpt><trkpt lat="43.38101" lon="11.396235"><ele>408.0</ele><time>2026-04-11T05:11:01.995Z</time></trkpt><trkpt lat="43.3810917" lon="11.396235"><ele>408.0</ele><time>2026-04-11T05:11:03.995Z</time></trkpt><trkpt lat="43.3811583" lon="11.3962367"><ele>408.0</ele><time>2026-04-11T05:11:05.995Z</time></trkpt><trkpt lat="43.38123" lon="11.3962433"><ele>408.0</ele><time>2026-04-11T05:11:07.995Z</time></trkpt><trkpt lat="43.38132" lon="11.39624"><ele>408.0</ele><time>2026-04-11T05:11:10.995Z</time></trkpt><trkpt lat="43.381385" lon="11.3962367"><ele>408.0</ele><time>2026-04-11T05:11:12.995Z</time></trkpt><trkpt lat="43.3814583" lon="11.3962367"><ele>408.0</ele><time>2026-04-11T05:11:14.995Z</time></trkpt><trkpt lat="43.3815267" lon="11.39623"><ele>408.0</ele><time>2026-04-11T05:11:16.995Z</time></trkpt><trkpt lat="43.3815967" lon="11.39623"><ele>408.2857142857143</ele><time>2026-04-11T05:11:18.996Z</time></trkpt><trkpt lat="43.3816667" lon="11.3962217"><ele>408.57142857142856</ele><time>2026-04-11T05:11:20.995Z</time></trkpt><trkpt lat="43.3817433" lon="11.3962117"><ele>408.8571428571429</ele><time>2026-04-11T05:11:22.995Z</time></trkpt><trkpt lat="43.38181" lon="11.396195"><ele>409.1428571428571</ele><time>2026-04-11T05:11:24.995Z</time></trkpt><trkpt lat="43.3818717" lon="11.3961683"><ele>409.4285714285714</ele><time>2026-04-11T05:11:26.995Z</time></trkpt><trkpt lat="43.3819417" lon="11.396155"><ele>409.7142857142857</ele><time>2026-04-11T05:11:28.995Z</time></trkpt><trkpt lat="43.3820133" lon="11.396145"><ele>410.0</ele><time>2026-04-11T05:11:30.995Z</time></trkpt><trkpt lat="43.3820933" lon="11.3961417"><ele>410.0</ele><time>2026-04-11T05:11:32.995Z</time></trkpt><trkpt lat="43.382165" lon="11.3961117"><ele>410.0</ele><time>2026-04-11T05:11:34.995Z</time></trkpt><trkpt lat="43.382235" lon="11.3961033"><ele>410.0</ele><time>2026-04-11T05:11:36.995Z</time></trkpt><trkpt lat="43.38231" lon="11.3960783"><ele>410.0</ele><time>2026-04-11T05:11:38.995Z</time></trkpt><trkpt lat="43.3823767" lon="11.3960583"><ele>410.0</ele><time>2026-04-11T05:11:40.995Z</time></trkpt><trkpt lat="43.3824467" lon="11.3960533"><ele>410.0</ele><time>2026-04-11T05:11:42.995Z</time></trkpt><trkpt lat="43.38251" lon="11.39604"><ele>410.0</ele><time>2026-04-11T05:11:44.996Z</time></trkpt><trkpt lat="43.3825717" lon="11.396015"><ele>410.5714285714286</ele><time>2026-04-11T05:11:46.995Z</time></trkpt><trkpt lat="43.3826367" lon="11.395995"><ele>411.1428571428571</ele><time>2026-04-11T05:11:48.995Z</time></trkpt><trkpt lat="43.3827033" lon="11.39598"><ele>411.7142857142857</ele><time>2026-04-11T05:11:50.995Z</time></trkpt><trkpt lat="43.38277" lon="11.3959567"><ele>412.28571428571433</ele><time>2026-04-11T05:11:52.995Z</time></trkpt><trkpt lat="43.38283" lon="11.3959283"><ele>412.8571428571429</ele><time>2026-04-11T05:11:54.995Z</time></trkpt><trkpt lat="43.3828917" lon="11.39589"><ele>413.42857142857144</ele><time>2026-04-11T05:11:56.995Z</time></trkpt><trkpt lat="43.382965" lon="11.3958617"><ele>414.0</ele><time>2026-04-11T05:11:58.995Z</time></trkpt><trkpt lat="43.383045" lon="11.3958417"><ele>414.6666666666667</ele><time>2026-04-11T05:12:00.995Z</time></trkpt><trkpt lat="43.383125" lon="11.3958117"><ele>415.33333333333337</ele><time>2026-04-11T05:12:02.995Z</time></trkpt><trkpt lat="43.3832" lon="11.395795"><ele>416.0</ele><time>2026-04-11T05:12:04.995Z</time></trkpt><trkpt lat="43.383275" lon="11.395765"><ele>416.6666666666667</ele><time>2026-04-11T05:12:06.995Z</time></trkpt><trkpt lat="43.3833467" lon="11.3957267"><ele>417.33333333333337</ele><time>2026-04-11T05:12:08.995Z</time></trkpt><trkpt lat="43.383415" lon="11.395685"><ele>418.0</ele><time>2026-04-11T05:12:10.995Z</time></trkpt><trkpt lat="43.3835" lon="11.3956633"><ele>418.00000000000006</ele><time>2026-04-11T05:12:12.995Z</time></trkpt><trkpt lat="43.38358" lon="11.3956383"><ele>418.0</ele><time>2026-04-11T05:12:14.995Z</time></trkpt><trkpt lat="43.3836633" lon="11.3956117"><ele>418.0</ele><time>2026-04-11T05:12:16.995Z</time></trkpt><trkpt lat="43.383745" lon="11.3955867"><ele>418.0</ele><time>2026-04-11T05:12:18.995Z</time></trkpt><trkpt lat="43.383825" lon="11.3955533"><ele>418.00000000000006</ele><time>2026-04-11T05:12:20.995Z</time></trkpt><trkpt lat="43.3839" lon="11.395525"><ele>418.0</ele><time>2026-04-11T05:12:22.995Z</time></trkpt><trkpt lat="43.38398" lon="11.3954983"><ele>417.6666666666667</ele><time>2026-04-11T05:12:24.995Z</time></trkpt><trkpt lat="43.384055" lon="11.39548"><ele>417.33333333333337</ele><time>2026-04-11T05:12:26.995Z</time></trkpt><trkpt lat="43.384135" lon="11.395455"><ele>417.0</ele><time>2026-04-11T05:12:28.995Z</time></trkpt><trkpt lat="43.3842033" lon="11.3954333"><ele>416.66666666666663</ele><time>2026-04-11T05:12:30.995Z</time></trkpt><trkpt lat="43.3842783" lon="11.395405"><ele>416.3333333333333</ele><time>2026-04-11T05:12:32.995Z</time></trkpt><trkpt lat="43.384355" lon="11.3953733"><ele>416.0</ele><time>2026-04-11T05:12:34.995Z</time></trkpt><trkpt lat="43.3844283" lon="11.39533"><ele>416.0</ele><time>2026-04-11T05:12:36.995Z</time></trkpt><trkpt lat="43.3844983" lon="11.39529"><ele>416.0</ele><time>2026-04-11T05:12:38.996Z</time></trkpt><trkpt lat="43.3845667" lon="11.3952417"><ele>416.0</ele><time>2026-04-11T05:12:40.995Z</time></trkpt><trkpt lat="43.38463" lon="11.3951833"><ele>416.0</ele><time>2026-04-11T05:12:42.995Z</time></trkpt><trkpt lat="43.3846917" lon="11.395125"><ele>416.0</ele><time>2026-04-11T05:12:44.995Z</time></trkpt><trkpt lat="43.3847433" lon="11.3950567"><ele>416.0</ele><time>2026-04-11T05:12:46.995Z</time></trkpt><trkpt lat="43.3847933" lon="11.394985"><ele>416.0</ele><time>2026-04-11T05:12:48.995Z</time></trkpt><trkpt lat="43.384845" lon="11.3949133"><ele>417.16666666666663</ele><time>2026-04-11T05:12:50.995Z</time></trkpt><trkpt lat="43.3848933" lon="11.3948433"><ele>418.3333333333333</ele><time>2026-04-11T05:12:52.995Z</time></trkpt><trkpt lat="43.3849383" lon="11.394775"><ele>419.5</ele><time>2026-04-11T05:12:54.995Z</time></trkpt><trkpt lat="43.38498" lon="11.3947017"><ele>420.66666666666663</ele><time>2026-04-11T05:12:56.995Z</time></trkpt><trkpt lat="43.3850333" lon="11.39463"><ele>421.8333333333333</ele><time>2026-04-11T05:12:58.995Z</time></trkpt><trkpt lat="43.3850733" lon="11.3945517"><ele>423.0</ele><time>2026-04-11T05:13:00.995Z</time></trkpt><trkpt lat="43.385145" lon="11.3944533"><ele>423.3333333333333</ele><time>2026-04-11T05:13:03.995Z</time></trkpt><trkpt lat="43.385195" lon="11.3943833"><ele>423.66666666666663</ele><time>2026-04-11T05:13:05.995Z</time></trkpt><trkpt lat="43.385255" lon="11.39428"><ele>424.0</ele><time>2026-04-11T05:13:08.995Z</time></trkpt><trkpt lat="43.3853183" lon="11.3941817"><ele>424.3333333333333</ele><time>2026-04-11T05:13:11.995Z</time></trkpt><trkpt lat="43.3853783" lon="11.3940817"><ele>424.66666666666663</ele><time>2026-04-11T05:13:14.995Z</time></trkpt><trkpt lat="43.3854267" lon="11.3940183"><ele>425.0</ele><time>2026-04-11T05:13:16.996Z</time></trkpt><trkpt lat="43.3854767" lon="11.3939517"><ele>425.0</ele><time>2026-04-11T05:13:18.995Z</time></trkpt><trkpt lat="43.38552" lon="11.39388"><ele>425.0</ele><time>2026-04-11T05:13:20.995Z</time></trkpt><trkpt lat="43.3855833" lon="11.3937833"><ele>425.0</ele><time>2026-04-11T05:13:23.995Z</time></trkpt><trkpt lat="43.385625" lon="11.393715"><ele>425.0</ele><time>2026-04-11T05:13:25.995Z</time></trkpt><trkpt lat="43.3856733" lon="11.3936433"><ele>425.0</ele><time>2026-04-11T05:13:27.995Z</time></trkpt><trkpt lat="43.3857233" lon="11.39358"><ele>425.0</ele><time>2026-04-11T05:13:29.995Z</time></trkpt><trkpt lat="43.3857633" lon="11.3935117"><ele>425.0</ele><time>2026-04-11T05:13:31.995Z</time></trkpt><trkpt lat="43.385815" lon="11.3934167"><ele>425.49999999999994</ele><time>2026-04-11T05:13:34.995Z</time></trkpt><trkpt lat="43.3858667" lon="11.393335"><ele>426.0</ele><time>2026-04-11T05:13:37.995Z</time></trkpt><trkpt lat="43.38593" lon="11.3932483"><ele>426.5</ele><time>2026-04-11T05:13:40.995Z</time></trkpt><trkpt lat="43.385975" lon="11.3931867"><ele>427.0</ele><time>2026-04-11T05:13:42.995Z</time></trkpt><trkpt lat="43.3860267" lon="11.3931233"><ele>427.49999999999994</ele><time>2026-04-11T05:13:44.995Z</time></trkpt><trkpt lat="43.3860683" lon="11.3930533"><ele>428.0</ele><time>2026-04-11T05:13:46.995Z</time></trkpt><trkpt lat="43.3861267" lon="11.3929617"><ele>427.99999999999994</ele><time>2026-04-11T05:13:49.995Z</time></trkpt><trkpt lat="43.3862033" lon="11.3928933"><ele>428.0</ele><time>2026-04-11T05:13:52.995Z</time></trkpt><trkpt lat="43.3862467" lon="11.3928283"><ele>428.0</ele><time>2026-04-11T05:13:54.995Z</time></trkpt><trkpt lat="43.3863083" lon="11.3927367"><ele>428.0</ele><time>2026-04-11T05:13:57.995Z</time></trkpt><trkpt lat="43.38636" lon="11.3926767"><ele>427.99999999999994</ele><time>2026-04-11T05:13:59.995Z</time></trkpt><trkpt lat="43.3864083" lon="11.3926183"><ele>428.0</ele><time>2026-04-11T05:14:01.995Z</time></trkpt><trkpt lat="43.3864767" lon="11.3925433"><ele>428.49999999999994</ele><time>2026-04-11T05:14:04.995Z</time></trkpt><trkpt lat="43.38655" lon="11.3924833"><ele>429.0</ele><time>2026-04-11T05:14:07.995Z</time></trkpt><trkpt lat="43.38661" lon="11.39245"><ele>429.5</ele><time>2026-04-11T05:14:09.995Z</time></trkpt><trkpt lat="43.3866667" lon="11.3924117"><ele>430.0</ele><time>2026-04-11T05:14:11.995Z</time></trkpt><trkpt lat="43.3867433" lon="11.3923467"><ele>430.49999999999994</ele><time>2026-04-11T05:14:14.995Z</time></trkpt><trkpt lat="43.386805" lon="11.392265"><ele>431.0</ele><time>2026-04-11T05:14:17.995Z</time></trkpt><trkpt lat="43.3868767" lon="11.3921867"><ele>430.8571428571429</ele><time>2026-04-11T05:14:20.995Z</time></trkpt><trkpt lat="43.38694" lon="11.3921117"><ele>430.71428571428567</ele><time>2026-04-11T05:14:23.995Z</time></trkpt><trkpt lat="43.386985" lon="11.3920483"><ele>430.57142857142856</ele><time>2026-04-11T05:14:25.995Z</time></trkpt><trkpt lat="43.3870483" lon="11.3919617"><ele>430.42857142857144</ele><time>2026-04-11T05:14:28.995Z</time></trkpt><trkpt lat="43.3870933" lon="11.3919"><ele>430.28571428571433</ele><time>2026-04-11T05:14:30.995Z</time></trkpt><trkpt lat="43.3871467" lon="11.3918333"><ele>430.1428571428571</ele><time>2026-04-11T05:14:32.995Z</time></trkpt><trkpt lat="43.3871833" lon="11.39176"><ele>430.0</ele><time>2026-04-11T05:14:34.996Z</time></trkpt><trkpt lat="43.3872333" lon="11.3916967"><ele>430.57142857142856</ele><time>2026-04-11T05:14:36.995Z</time></trkpt><trkpt lat="43.387285" lon="11.3916333"><ele>431.14285714285717</ele><time>2026-04-11T05:14:38.995Z</time></trkpt><trkpt lat="43.38733" lon="11.3915633"><ele>431.7142857142857</ele><time>2026-04-11T05:14:40.995Z</time></trkpt><trkpt lat="43.3873817" lon="11.39148"><ele>432.2857142857143</ele><time>2026-04-11T05:14:42.996Z</time></trkpt><trkpt lat="43.38743" lon="11.3913983"><ele>432.8571428571429</ele><time>2026-04-11T05:14:44.995Z</time></trkpt><trkpt lat="43.3874767" lon="11.3913267"><ele>433.42857142857144</ele><time>2026-04-11T05:14:46.995Z</time></trkpt><trkpt lat="43.3875267" lon="11.39126"><ele>434.0</ele><time>2026-04-11T05:14:48.995Z</time></trkpt><trkpt lat="43.3875783" lon="11.3911833"><ele>434.3333333333333</ele><time>2026-04-11T05:14:50.995Z</time></trkpt><trkpt lat="43.3876317" lon="11.3911083"><ele>434.66666666666663</ele><time>2026-04-11T05:14:52.995Z</time></trkpt><trkpt lat="43.387675" lon="11.3910333"><ele>435.0</ele><time>2026-04-11T05:14:54.995Z</time></trkpt><trkpt lat="43.3877283" lon="11.3909583"><ele>435.33333333333337</ele><time>2026-04-11T05:14:56.995Z</time></trkpt><trkpt lat="43.3877817" lon="11.3908683"><ele>435.6666666666667</ele><time>2026-04-11T05:14:58.995Z</time></trkpt><trkpt lat="43.387835" lon="11.3907783"><ele>436.0</ele><time>2026-04-11T05:15:00.995Z</time></trkpt><trkpt lat="43.387885" lon="11.3906833"><ele>436.0</ele><time>2026-04-11T05:15:02.995Z</time></trkpt><trkpt lat="43.3879467" lon="11.390595"><ele>436.0</ele><time>2026-04-11T05:15:04.995Z</time></trkpt><trkpt lat="43.3880133" lon="11.3904883"><ele>436.0</ele><time>2026-04-11T05:15:06.995Z</time></trkpt><trkpt lat="43.388075" lon="11.3903683"><ele>436.0</ele><time>2026-04-11T05:15:08.995Z</time></trkpt><trkpt lat="43.3881067" lon="11.3902083"><ele>436.0</ele><time>2026-04-11T05:15:10.995Z</time></trkpt><trkpt lat="43.38812" lon="11.39011"><ele>434.6666666666667</ele><time>2026-04-11T05:15:11.995Z</time></trkpt><trkpt lat="43.3881317" lon="11.3900133"><ele>433.33333333333337</ele><time>2026-04-11T05:15:12.995Z</time></trkpt><trkpt lat="43.38815" lon="11.3899083"><ele>432.0</ele><time>2026-04-11T05:15:13.995Z</time></trkpt><trkpt lat="43.388175" lon="11.389795"><ele>430.66666666666663</ele><time>2026-04-11T05:15:14.995Z</time></trkpt><trkpt lat="43.3882017" lon="11.3896883"><ele>429.3333333333333</ele><time>2026-04-11T05:15:15.995Z</time></trkpt><trkpt lat="43.3882367" lon="11.38958"><ele>428.0</ele><time>2026-04-11T05:15:16.996Z</time></trkpt><trkpt lat="43.3882767" lon="11.3894767"><ele>427.79999999999995</ele><time>2026-04-11T05:15:17.995Z</time></trkpt><trkpt lat="43.3883183" lon="11.3893717"><ele>427.59999999999997</ele><time>2026-04-11T05:15:18.995Z</time></trkpt><trkpt lat="43.3883617" lon="11.389265"><ele>427.40000000000003</ele><time>2026-04-11T05:15:19.995Z</time></trkpt><trkpt lat="43.3884083" lon="11.3891533"><ele>427.20000000000005</ele><time>2026-04-11T05:15:20.995Z</time></trkpt><trkpt lat="43.38846" lon="11.3890417"><ele>427.0</ele><time>2026-04-11T05:15:21.995Z</time></trkpt><trkpt lat="43.3885167" lon="11.3889333"><ele>427.40000000000003</ele><time>2026-04-11T05:15:22.995Z</time></trkpt><trkpt lat="43.38857" lon="11.3888233"><ele>427.80000000000007</ele><time>2026-04-11T05:15:23.995Z</time></trkpt><trkpt lat="43.3886217" lon="11.3887083"><ele>428.2</ele><time>2026-04-11T05:15:24.995Z</time></trkpt><trkpt lat="43.38868" lon="11.3885933"><ele>428.6</ele><time>2026-04-11T05:15:25.995Z</time></trkpt><trkpt lat="43.38873" lon="11.3884783"><ele>429.0</ele><time>2026-04-11T05:15:26.995Z</time></trkpt><trkpt lat="43.38878" lon="11.3883583"><ele>429.0</ele><time>2026-04-11T05:15:27.996Z</time></trkpt><trkpt lat="43.3888317" lon="11.38824"><ele>429.0</ele><time>2026-04-11T05:15:28.995Z</time></trkpt><trkpt lat="43.3888833" lon="11.3881267"><ele>429.0</ele><time>2026-04-11T05:15:29.995Z</time></trkpt><trkpt lat="43.3889333" lon="11.3880133"><ele>429.0</ele><time>2026-04-11T05:15:30.995Z</time></trkpt><trkpt lat="43.3889817" lon="11.3879017"><ele>429.0</ele><time>2026-04-11T05:15:31.995Z</time></trkpt><trkpt lat="43.3890267" lon="11.3877867"><ele>427.8333333333333</ele><time>2026-04-11T05:15:32.995Z</time></trkpt><trkpt lat="43.38907" lon="11.3876817"><ele>426.66666666666663</ele><time>2026-04-11T05:15:33.995Z</time></trkpt><trkpt lat="43.3891067" lon="11.387575"><ele>425.5</ele><time>2026-04-11T05:15:34.995Z</time></trkpt><trkpt lat="43.3891417" lon="11.3874717"><ele>424.3333333333333</ele><time>2026-04-11T05:15:35.995Z</time></trkpt><trkpt lat="43.38918" lon="11.3873667"><ele>423.16666666666663</ele><time>2026-04-11T05:15:36.995Z</time></trkpt><trkpt lat="43.38922" lon="11.38727"><ele>422.0</ele><time>2026-04-11T05:15:37.995Z</time></trkpt><trkpt lat="43.3892617" lon="11.3871783"><ele>422.42857142857144</ele><time>2026-04-11T05:15:38.995Z</time></trkpt><trkpt lat="43.389305" lon="11.387095"><ele>422.8571428571429</ele><time>2026-04-11T05:15:39.996Z</time></trkpt><trkpt lat="43.3893467" lon="11.3870167"><ele>423.2857142857143</ele><time>2026-04-11T05:15:40.995Z</time></trkpt><trkpt lat="43.389385" lon="11.3869367"><ele>423.7142857142857</ele><time>2026-04-11T05:15:41.995Z</time></trkpt><trkpt lat="43.38942" lon="11.38685"><ele>424.1428571428571</ele><time>2026-04-11T05:15:42.995Z</time></trkpt><trkpt lat="43.389455" lon="11.3867717"><ele>424.57142857142856</ele><time>2026-04-11T05:15:43.995Z</time></trkpt><trkpt lat="43.3894867" lon="11.3866883"><ele>425.0</ele><time>2026-04-11T05:15:44.995Z</time></trkpt><trkpt lat="43.38952" lon="11.3866133"><ele>425.0</ele><time>2026-04-11T05:15:45.995Z</time></trkpt><trkpt lat="43.38955" lon="11.3865367"><ele>425.0</ele><time>2026-04-11T05:15:46.995Z</time></trkpt><trkpt lat="43.3896083" lon="11.3864"><ele>425.0</ele><time>2026-04-11T05:15:48.995Z</time></trkpt><trkpt lat="43.3896683" lon="11.3862583"><ele>425.0</ele><time>2026-04-11T05:15:50.995Z</time></trkpt><trkpt lat="43.3897017" lon="11.3861833"><ele>425.0</ele><time>2026-04-11T05:15:51.995Z</time></trkpt><trkpt lat="43.3897567" lon="11.3860383"><ele>424.66666666666663</ele><time>2026-04-11T05:15:53.995Z</time></trkpt><trkpt lat="43.3898033" lon="11.3858783"><ele>424.3333333333333</ele><time>2026-04-11T05:15:55.995Z</time></trkpt><trkpt lat="43.38983" lon="11.3857983"><ele>424.0</ele><time>2026-04-11T05:15:56.995Z</time></trkpt><trkpt lat="43.3898667" lon="11.385725"><ele>423.66666666666663</ele><time>2026-04-11T05:15:57.995Z</time></trkpt><trkpt lat="43.3899083" lon="11.38565"><ele>423.3333333333333</ele><time>2026-04-11T05:15:58.995Z</time></trkpt><trkpt lat="43.389955" lon="11.3855783"><ele>423.0</ele><time>2026-04-11T05:15:59.995Z</time></trkpt><trkpt lat="43.3900567" lon="11.3854817"><ele>423.0</ele><time>2026-04-11T05:16:01.995Z</time></trkpt><trkpt lat="43.390175" lon="11.3854217"><ele>423.0</ele><time>2026-04-11T05:16:03.995Z</time></trkpt><trkpt lat="43.3902417" lon="11.3853983"><ele>423.0</ele><time>2026-04-11T05:16:04.995Z</time></trkpt><trkpt lat="43.390305" lon="11.385375"><ele>423.0</ele><time>2026-04-11T05:16:05.995Z</time></trkpt><trkpt lat="43.3904167" lon="11.3853267"><ele>423.0</ele><time>2026-04-11T05:16:07.995Z</time></trkpt><trkpt lat="43.3905383" lon="11.3852533"><ele>423.1428571428571</ele><time>2026-04-11T05:16:09.995Z</time></trkpt><trkpt lat="43.3906" lon="11.3851983"><ele>423.28571428571433</ele><time>2026-04-11T05:16:10.995Z</time></trkpt><trkpt lat="43.3906583" lon="11.385145"><ele>423.42857142857144</ele><time>2026-04-11T05:16:11.995Z</time></trkpt><trkpt lat="43.390715" lon="11.3850933"><ele>423.57142857142856</ele><time>2026-04-11T05:16:12.995Z</time></trkpt><trkpt lat="43.3907767" lon="11.3850417"><ele>423.71428571428567</ele><time>2026-04-11T05:16:13.995Z</time></trkpt><trkpt lat="43.39084" lon="11.3849883"><ele>423.8571428571429</ele><time>2026-04-11T05:16:14.995Z</time></trkpt><trkpt lat="43.3908983" lon="11.38493"><ele>424.0</ele><time>2026-04-11T05:16:15.995Z</time></trkpt><trkpt lat="43.3909883" lon="11.3848317"><ele>424.0</ele><time>2026-04-11T05:16:17.995Z</time></trkpt><trkpt lat="43.39108" lon="11.3847517"><ele>424.0</ele><time>2026-04-11T05:16:19.995Z</time></trkpt><trkpt lat="43.3911817" lon="11.384675"><ele>424.0</ele><time>2026-04-11T05:16:21.996Z</time></trkpt><trkpt lat="43.391265" lon="11.38461"><ele>424.0</ele><time>2026-04-11T05:16:23.995Z</time></trkpt><trkpt lat="43.39136" lon="11.3845317"><ele>424.0</ele><time>2026-04-11T05:16:25.995Z</time></trkpt><trkpt lat="43.3914583" lon="11.38445"><ele>424.2</ele><time>2026-04-11T05:16:27.995Z</time></trkpt><trkpt lat="43.39155" lon="11.3843633"><ele>424.4</ele><time>2026-04-11T05:16:29.995Z</time></trkpt><trkpt lat="43.3916333" lon="11.384275"><ele>424.6</ele><time>2026-04-11T05:16:31.996Z</time></trkpt><trkpt lat="43.3917183" lon="11.3841683"><ele>424.8</ele><time>2026-04-11T05:16:33.995Z</time></trkpt><trkpt lat="43.3917933" lon="11.3840517"><ele>425.0</ele><time>2026-04-11T05:16:35.995Z</time></trkpt><trkpt lat="43.3918533" lon="11.3839167"><ele>425.2</ele><time>2026-04-11T05:16:37.996Z</time></trkpt><trkpt lat="43.3919133" lon="11.38379"><ele>425.4</ele><time>2026-04-11T05:16:39.995Z</time></trkpt><trkpt lat="43.3919367" lon="11.3836617"><ele>425.6</ele><time>2026-04-11T05:16:41.995Z</time></trkpt><trkpt lat="43.3919567" lon="11.383525"><ele>425.8</ele><time>2026-04-11T05:16:43.995Z</time></trkpt><trkpt lat="43.3919783" lon="11.38338"><ele>426.0</ele><time>2026-04-11T05:16:45.996Z</time></trkpt><trkpt lat="43.3920017" lon="11.38321"><ele>426.0</ele><time>2026-04-11T05:16:47.995Z</time></trkpt><trkpt lat="43.3920167" lon="11.38312"><ele>426.0</ele><time>2026-04-11T05:16:48.995Z</time></trkpt><trkpt lat="43.392055" lon="11.3829617"><ele>426.0</ele><time>2026-04-11T05:16:50.995Z</time></trkpt><trkpt lat="43.3921167" lon="11.3828133"><ele>426.0</ele><time>2026-04-11T05:16:52.996Z</time></trkpt><trkpt lat="43.392155" lon="11.3827433"><ele>426.0</ele><time>2026-04-11T05:16:53.995Z</time></trkpt><trkpt lat="43.3922283" lon="11.382625"><ele>425.8</ele><time>2026-04-11T05:16:55.996Z</time></trkpt><trkpt lat="43.3923233" lon="11.3825217"><ele>425.6</ele><time>2026-04-11T05:16:57.995Z</time></trkpt><trkpt lat="43.3923717" lon="11.38246"><ele>425.4</ele><time>2026-04-11T05:16:58.995Z</time></trkpt><trkpt lat="43.3924567" lon="11.3823533"><ele>425.2</ele><time>2026-04-11T05:17:00.995Z</time></trkpt><trkpt lat="43.3925533" lon="11.3822683"><ele>425.0</ele><time>2026-04-11T05:17:02.996Z</time></trkpt><trkpt lat="43.3926617" lon="11.3821817"><ele>425.1428571428571</ele><time>2026-04-11T05:17:04.995Z</time></trkpt><trkpt lat="43.3927167" lon="11.3821367"><ele>425.2857142857143</ele><time>2026-04-11T05:17:05.995Z</time></trkpt><trkpt lat="43.39278" lon="11.382095"><ele>425.42857142857144</ele><time>2026-04-11T05:17:06.995Z</time></trkpt><trkpt lat="43.3928417" lon="11.3820567"><ele>425.57142857142856</ele><time>2026-04-11T05:17:07.995Z</time></trkpt><trkpt lat="43.3929" lon="11.382015"><ele>425.7142857142857</ele><time>2026-04-11T05:17:08.995Z</time></trkpt><trkpt lat="43.39296" lon="11.38197"><ele>425.85714285714283</ele><time>2026-04-11T05:17:09.995Z</time></trkpt><trkpt lat="43.3930167" lon="11.3819217"><ele>426.0</ele><time>2026-04-11T05:17:10.995Z</time></trkpt><trkpt lat="43.3930767" lon="11.3818717"><ele>425.2857142857143</ele><time>2026-04-11T05:17:11.995Z</time></trkpt><trkpt lat="43.3931333" lon="11.3818233"><ele>424.57142857142856</ele><time>2026-04-11T05:17:12.995Z</time></trkpt><trkpt lat="43.3931867" lon="11.3817733"><ele>423.8571428571429</ele><time>2026-04-11T05:17:13.995Z</time></trkpt><trkpt lat="43.3932433" lon="11.3817217"><ele>423.1428571428571</ele><time>2026-04-11T05:17:14.995Z</time></trkpt><trkpt lat="43.3933017" lon="11.38167"><ele>422.42857142857144</ele><time>2026-04-11T05:17:15.995Z</time></trkpt><trkpt lat="43.3933617" lon="11.3816217"><ele>421.7142857142857</ele><time>2026-04-11T05:17:16.995Z</time></trkpt><trkpt lat="43.3934317" lon="11.38158"><ele>421.0</ele><time>2026-04-11T05:17:17.995Z</time></trkpt><trkpt lat="43.3934933" lon="11.3815367"><ele>421.00000000000006</ele><time>2026-04-11T05:17:18.995Z</time></trkpt><trkpt lat="43.3935567" lon="11.381495"><ele>421.0</ele><time>2026-04-11T05:17:19.996Z</time></trkpt><trkpt lat="43.39362" lon="11.3814517"><ele>421.0</ele><time>2026-04-11T05:17:20.995Z</time></trkpt><trkpt lat="43.3936817" lon="11.3814083"><ele>421.0</ele><time>2026-04-11T05:17:21.995Z</time></trkpt><trkpt lat="43.3937433" lon="11.381365"><ele>421.0</ele><time>2026-04-11T05:17:22.995Z</time></trkpt><trkpt lat="43.3938067" lon="11.3813267"><ele>421.00000000000006</ele><time>2026-04-11T05:17:23.995Z</time></trkpt><trkpt lat="43.3938733" lon="11.3812917"><ele>421.0</ele><time>2026-04-11T05:17:24.995Z</time></trkpt><trkpt lat="43.39394" lon="11.3812583"><ele>420.14285714285717</ele><time>2026-04-11T05:17:25.996Z</time></trkpt><trkpt lat="43.3940133" lon="11.3812283"><ele>419.2857142857143</ele><time>2026-04-11T05:17:26.995Z</time></trkpt><trkpt lat="43.39408" lon="11.3811933"><ele>418.42857142857144</ele><time>2026-04-11T05:17:27.995Z</time></trkpt><trkpt lat="43.3941483" lon="11.381165"><ele>417.57142857142856</ele><time>2026-04-11T05:17:28.996Z</time></trkpt><trkpt lat="43.3942167" lon="11.3811317"><ele>416.7142857142857</ele><time>2026-04-11T05:17:29.995Z</time></trkpt><trkpt lat="43.3942867" lon="11.3811033"><ele>415.8571428571429</ele><time>2026-04-11T05:17:30.995Z</time></trkpt><trkpt lat="43.3943533" lon="11.3810733"><ele>415.0</ele><time>2026-04-11T05:17:31.995Z</time></trkpt><trkpt lat="43.3944233" lon="11.3810517"><ele>415.0</ele><time>2026-04-11T05:17:32.995Z</time></trkpt><trkpt lat="43.3944983" lon="11.38103"><ele>415.0</ele><time>2026-04-11T05:17:33.995Z</time></trkpt><trkpt lat="43.39457" lon="11.3810183"><ele>415.0</ele><time>2026-04-11T05:17:34.995Z</time></trkpt><trkpt lat="43.39464" lon="11.381005"><ele>415.0</ele><time>2026-04-11T05:17:35.995Z</time></trkpt><trkpt lat="43.39471" lon="11.38099"><ele>415.0</ele><time>2026-04-11T05:17:36.995Z</time></trkpt><trkpt lat="43.3947817" lon="11.38098"><ele>415.0</ele><time>2026-04-11T05:17:37.995Z</time></trkpt><trkpt lat="43.39485" lon="11.3809633"><ele>415.0</ele><time>2026-04-11T05:17:38.995Z</time></trkpt><trkpt lat="43.39492" lon="11.38095"><ele>415.14285714285717</ele><time>2026-04-11T05:17:39.995Z</time></trkpt><trkpt lat="43.394985" lon="11.3809517"><ele>415.28571428571433</ele><time>2026-04-11T05:17:40.995Z</time></trkpt><trkpt lat="43.3950517" lon="11.38095"><ele>415.42857142857144</ele><time>2026-04-11T05:17:41.995Z</time></trkpt><trkpt lat="43.3951183" lon="11.3809483"><ele>415.57142857142856</ele><time>2026-04-11T05:17:42.995Z</time></trkpt><trkpt lat="43.3951933" lon="11.38095"><ele>415.7142857142857</ele><time>2026-04-11T05:17:43.995Z</time></trkpt><trkpt lat="43.3952633" lon="11.380955"><ele>415.85714285714283</ele><time>2026-04-11T05:17:44.995Z</time></trkpt><trkpt lat="43.3953383" lon="11.38096"><ele>416.0</ele><time>2026-04-11T05:17:45.995Z</time></trkpt><trkpt lat="43.39541" lon="11.3809733"><ele>416.0</ele><time>2026-04-11T05:17:46.995Z</time></trkpt><trkpt lat="43.3954833" lon="11.380985"><ele>416.0</ele><time>2026-04-11T05:17:47.996Z</time></trkpt><trkpt lat="43.3955567" lon="11.3809983"><ele>416.0</ele><time>2026-04-11T05:17:48.995Z</time></trkpt><trkpt lat="43.3956267" lon="11.3810067"><ele>416.0</ele><time>2026-04-11T05:17:49.996Z</time></trkpt><trkpt lat="43.3956917" lon="11.381015"><ele>416.0</ele><time>2026-04-11T05:17:50.996Z</time></trkpt><trkpt lat="43.3957633" lon="11.3810217"><ele>416.0</ele><time>2026-04-11T05:17:51.995Z</time></trkpt><trkpt lat="43.3958317" lon="11.38103"><ele>416.0</ele><time>2026-04-11T05:17:52.995Z</time></trkpt><trkpt lat="43.3959033" lon="11.3810417"><ele>415.20000000000005</ele><time>2026-04-11T05:17:53.995Z</time></trkpt><trkpt lat="43.3959717" lon="11.381045"><ele>414.40000000000003</ele><time>2026-04-11T05:17:54.996Z</time></trkpt><trkpt lat="43.3960383" lon="11.38104"><ele>413.6</ele><time>2026-04-11T05:17:55.996Z</time></trkpt><trkpt lat="43.3961583" lon="11.381005"><ele>412.8</ele><time>2026-04-11T05:17:57.996Z</time></trkpt><trkpt lat="43.3962617" lon="11.3809233"><ele>412.0</ele><time>2026-04-11T05:17:59.995Z</time></trkpt><trkpt lat="43.3963567" lon="11.3808167"><ele>411.40000000000003</ele><time>2026-04-11T05:18:01.995Z</time></trkpt><trkpt lat="43.3964017" lon="11.3807533"><ele>410.8</ele><time>2026-04-11T05:18:02.995Z</time></trkpt><trkpt lat="43.3964767" lon="11.380615"><ele>410.2</ele><time>2026-04-11T05:18:04.996Z</time></trkpt><trkpt lat="43.3965517" lon="11.380465"><ele>409.6</ele><time>2026-04-11T05:18:06.996Z</time></trkpt><trkpt lat="43.396575" lon="11.3803833"><ele>409.0</ele><time>2026-04-11T05:18:07.995Z</time></trkpt><trkpt lat="43.3965983" lon="11.3803"><ele>409.0</ele><time>2026-04-11T05:18:08.995Z</time></trkpt><trkpt lat="43.3966217" lon="11.3802183"><ele>409.0</ele><time>2026-04-11T05:18:09.995Z</time></trkpt><trkpt lat="43.3966517" lon="11.380055"><ele>409.0</ele><time>2026-04-11T05:18:11.996Z</time></trkpt><trkpt lat="43.3966833" lon="11.3799033"><ele>409.0</ele><time>2026-04-11T05:18:13.995Z</time></trkpt><trkpt lat="43.3967217" lon="11.3797617"><ele>409.0</ele><time>2026-04-11T05:18:15.995Z</time></trkpt><trkpt lat="43.3967467" lon="11.379625"><ele>410.0</ele><time>2026-04-11T05:18:17.996Z</time></trkpt><trkpt lat="43.3967667" lon="11.3794967"><ele>411.0</ele><time>2026-04-11T05:18:19.995Z</time></trkpt><trkpt lat="43.3967783" lon="11.3793683"><ele>412.0</ele><time>2026-04-11T05:18:21.995Z</time></trkpt><trkpt lat="43.3967933" lon="11.379245"><ele>413.0</ele><time>2026-04-11T05:18:23.995Z</time></trkpt><trkpt lat="43.3968067" lon="11.3791283"><ele>414.0</ele><time>2026-04-11T05:18:25.995Z</time></trkpt><trkpt lat="43.3968317" lon="11.3790117"><ele>414.0</ele><time>2026-04-11T05:18:27.995Z</time></trkpt><trkpt lat="43.3968517" lon="11.37892"><ele>414.0</ele><time>2026-04-11T05:18:29.995Z</time></trkpt><trkpt lat="43.3968783" lon="11.3788283"><ele>414.0</ele><time>2026-04-11T05:18:31.995Z</time></trkpt><trkpt lat="43.3969183" lon="11.3787167"><ele>414.0</ele><time>2026-04-11T05:18:33.995Z</time></trkpt><trkpt lat="43.396965" lon="11.3786133"><ele>414.0</ele><time>2026-04-11T05:18:35.995Z</time></trkpt><trkpt lat="43.39701" lon="11.378515"><ele>414.0</ele><time>2026-04-11T05:18:37.995Z</time></trkpt><trkpt lat="43.3970517" lon="11.3784283"><ele>414.0</ele><time>2026-04-11T05:18:39.995Z</time></trkpt><trkpt lat="43.3971033" lon="11.3783467"><ele>414.0</ele><time>2026-04-11T05:18:41.995Z</time></trkpt><trkpt lat="43.3971567" lon="11.378255"><ele>414.0</ele><time>2026-04-11T05:18:43.995Z</time></trkpt><trkpt lat="43.3972067" lon="11.3781667"><ele>414.0</ele><time>2026-04-11T05:18:45.995Z</time></trkpt><trkpt lat="43.397245" lon="11.378075"><ele>414.0</ele><time>2026-04-11T05:18:47.995Z</time></trkpt><trkpt lat="43.3972817" lon="11.378"><ele>414.0</ele><time>2026-04-11T05:18:49.995Z</time></trkpt><trkpt lat="43.3973167" lon="11.3779117"><ele>414.8333333333333</ele><time>2026-04-11T05:18:51.996Z</time></trkpt><trkpt lat="43.3973517" lon="11.377815"><ele>415.66666666666663</ele><time>2026-04-11T05:18:53.995Z</time></trkpt><trkpt lat="43.3974017" lon="11.3777133"><ele>416.5</ele><time>2026-04-11T05:18:55.995Z</time></trkpt><trkpt lat="43.397445" lon="11.3776333"><ele>417.3333333333333</ele><time>2026-04-11T05:18:57.995Z</time></trkpt><trkpt lat="43.3975033" lon="11.37755"><ele>418.16666666666663</ele><time>2026-04-11T05:18:59.995Z</time></trkpt><trkpt lat="43.3975633" lon="11.377465"><ele>419.0</ele><time>2026-04-11T05:19:01.995Z</time></trkpt><trkpt lat="43.397625" lon="11.377375"><ele>418.99999999999994</ele><time>2026-04-11T05:19:03.995Z</time></trkpt><trkpt lat="43.39768" lon="11.3772783"><ele>419.0</ele><time>2026-04-11T05:19:05.995Z</time></trkpt><trkpt lat="43.3977333" lon="11.3771983"><ele>419.0</ele><time>2026-04-11T05:19:07.996Z</time></trkpt><trkpt lat="43.3977917" lon="11.377115"><ele>419.0</ele><time>2026-04-11T05:19:09.996Z</time></trkpt><trkpt lat="43.3978533" lon="11.3770217"><ele>418.99999999999994</ele><time>2026-04-11T05:19:11.995Z</time></trkpt><trkpt lat="43.3979033" lon="11.3769367"><ele>419.0</ele><time>2026-04-11T05:19:13.995Z</time></trkpt><trkpt lat="43.3979667" lon="11.37685"><ele>419.3333333333333</ele><time>2026-04-11T05:19:15.996Z</time></trkpt><trkpt lat="43.398035" lon="11.37675"><ele>419.66666666666663</ele><time>2026-04-11T05:19:17.995Z</time></trkpt><trkpt lat="43.3980933" lon="11.3766683"><ele>420.0</ele><time>2026-04-11T05:19:19.995Z</time></trkpt><trkpt lat="43.3981583" lon="11.3765917"><ele>420.33333333333337</ele><time>2026-04-11T05:19:21.995Z</time></trkpt><trkpt lat="43.3982233" lon="11.3765167"><ele>420.6666666666667</ele><time>2026-04-11T05:19:23.995Z</time></trkpt><trkpt lat="43.3982933" lon="11.3764483"><ele>421.0</ele><time>2026-04-11T05:19:25.995Z</time></trkpt><trkpt lat="43.3983667" lon="11.376395"><ele>421.28571428571433</ele><time>2026-04-11T05:19:27.995Z</time></trkpt><trkpt lat="43.3984333" lon="11.3763383"><ele>421.57142857142856</ele><time>2026-04-11T05:19:29.996Z</time></trkpt><trkpt lat="43.3985017" lon="11.3762883"><ele>421.8571428571429</ele><time>2026-04-11T05:19:31.995Z</time></trkpt><trkpt lat="43.3985567" lon="11.3762333"><ele>422.14285714285717</ele><time>2026-04-11T05:19:33.995Z</time></trkpt><trkpt lat="43.3986133" lon="11.37617"><ele>422.42857142857144</ele><time>2026-04-11T05:19:35.995Z</time></trkpt><trkpt lat="43.398675" lon="11.3761367"><ele>422.7142857142857</ele><time>2026-04-11T05:19:37.995Z</time></trkpt><trkpt lat="43.3987533" lon="11.3761033"><ele>423.0</ele><time>2026-04-11T05:19:40.995Z</time></trkpt><trkpt lat="43.3988367" lon="11.3760683"><ele>423.7142857142857</ele><time>2026-04-11T05:19:43.995Z</time></trkpt><trkpt lat="43.398905" lon="11.3760417"><ele>424.42857142857144</ele><time>2026-04-11T05:19:45.996Z</time></trkpt><trkpt lat="43.3989717" lon="11.3760117"><ele>425.14285714285717</ele><time>2026-04-11T05:19:47.995Z</time></trkpt><trkpt lat="43.39903" lon="11.3759683"><ele>425.8571428571429</ele><time>2026-04-11T05:19:49.995Z</time></trkpt><trkpt lat="43.39909" lon="11.3759317"><ele>426.57142857142856</ele><time>2026-04-11T05:19:51.995Z</time></trkpt><trkpt lat="43.3991633" lon="11.375935"><ele>427.28571428571433</ele><time>2026-04-11T05:19:54.995Z</time></trkpt><trkpt lat="43.399235" lon="11.37592"><ele>428.0</ele><time>2026-04-11T05:19:59.995Z</time></trkpt><trkpt lat="43.399315" lon="11.37588"><ele>427.99999999999994</ele><time>2026-04-11T05:20:03.995Z</time></trkpt><trkpt lat="43.3993717" lon="11.3758317"><ele>428.0</ele><time>2026-04-11T05:20:06.996Z</time></trkpt><trkpt lat="43.3994367" lon="11.3757567"><ele>428.0</ele><time>2026-04-11T05:20:09.995Z</time></trkpt><trkpt lat="43.39948" lon="11.3756733"><ele>428.0</ele><time>2026-04-11T05:20:12.995Z</time></trkpt><trkpt lat="43.39953" lon="11.3755917"><ele>427.99999999999994</ele><time>2026-04-11T05:20:15.995Z</time></trkpt><trkpt lat="43.399585" lon="11.3754933"><ele>428.0</ele><time>2026-04-11T05:20:18.995Z</time></trkpt><trkpt lat="43.3996417" lon="11.3754133"><ele>429.3333333333333</ele><time>2026-04-11T05:20:21.995Z</time></trkpt><trkpt lat="43.399705" lon="11.37534"><ele>430.66666666666663</ele><time>2026-04-11T05:20:24.996Z</time></trkpt><trkpt lat="43.3997667" lon="11.3752733"><ele>432.0</ele><time>2026-04-11T05:20:27.995Z</time></trkpt><trkpt lat="43.39982" lon="11.3752133"><ele>433.33333333333337</ele><time>2026-04-11T05:20:31.996Z</time></trkpt><trkpt lat="43.399885" lon="11.37515"><ele>434.6666666666667</ele><time>2026-04-11T05:20:34.995Z</time></trkpt><trkpt lat="43.3999467" lon="11.3750683"><ele>436.0</ele><time>2026-04-11T05:20:37.995Z</time></trkpt><trkpt lat="43.4000133" lon="11.374985"><ele>436.00000000000006</ele><time>2026-04-11T05:20:40.995Z</time></trkpt><trkpt lat="43.4000717" lon="11.37491"><ele>436.0</ele><time>2026-04-11T05:20:43.995Z</time></trkpt><trkpt lat="43.4001233" lon="11.3748383"><ele>436.0</ele><time>2026-04-11T05:20:46.995Z</time></trkpt><trkpt lat="43.40017" lon="11.374755"><ele>436.0</ele><time>2026-04-11T05:20:48.996Z</time></trkpt><trkpt lat="43.4002283" lon="11.3746433"><ele>436.00000000000006</ele><time>2026-04-11T05:20:51.995Z</time></trkpt><trkpt lat="43.40028" lon="11.3745467"><ele>436.0</ele><time>2026-04-11T05:20:54.995Z</time></trkpt><trkpt lat="43.40032" lon="11.374465"><ele>436.50000000000006</ele><time>2026-04-11T05:20:56.996Z</time></trkpt><trkpt lat="43.400365" lon="11.374375"><ele>437.0</ele><time>2026-04-11T05:20:59.995Z</time></trkpt><trkpt lat="43.4004" lon="11.3742833"><ele>437.5</ele><time>2026-04-11T05:21:02.996Z</time></trkpt><trkpt lat="43.4004317" lon="11.37417"><ele>438.0</ele><time>2026-04-11T05:21:05.995Z</time></trkpt><trkpt lat="43.4004533" lon="11.3740617"><ele>438.50000000000006</ele><time>2026-04-11T05:21:08.995Z</time></trkpt><trkpt lat="43.4004717" lon="11.3739633"><ele>439.0</ele><time>2026-04-11T05:21:11.995Z</time></trkpt><trkpt lat="43.4004967" lon="11.373865"><ele>438.83333333333337</ele><time>2026-04-11T05:21:14.995Z</time></trkpt><trkpt lat="43.40053" lon="11.3737683"><ele>438.6666666666667</ele><time>2026-04-11T05:21:16.995Z</time></trkpt><trkpt lat="43.400565" lon="11.373675"><ele>438.5</ele><time>2026-04-11T05:21:18.995Z</time></trkpt><trkpt lat="43.4005983" lon="11.373555"><ele>438.33333333333337</ele><time>2026-04-11T05:21:20.995Z</time></trkpt><trkpt lat="43.40064" lon="11.37343"><ele>438.1666666666667</ele><time>2026-04-11T05:21:22.995Z</time></trkpt><trkpt lat="43.4006933" lon="11.37332"><ele>438.0</ele><time>2026-04-11T05:21:24.996Z</time></trkpt><trkpt lat="43.4007533" lon="11.3732117"><ele>438.0</ele><time>2026-04-11T05:21:26.995Z</time></trkpt><trkpt lat="43.400845" lon="11.3730933"><ele>438.0</ele><time>2026-04-11T05:21:28.995Z</time></trkpt><trkpt lat="43.40093" lon="11.3729867"><ele>438.0</ele><time>2026-04-11T05:21:30.995Z</time></trkpt><trkpt lat="43.4010183" lon="11.3728733"><ele>438.0</ele><time>2026-04-11T05:21:32.995Z</time></trkpt><trkpt lat="43.40111" lon="11.372755"><ele>437.7142857142857</ele><time>2026-04-11T05:21:34.995Z</time></trkpt><trkpt lat="43.4011567" lon="11.3726883"><ele>437.4285714285714</ele><time>2026-04-11T05:21:35.995Z</time></trkpt><trkpt lat="43.4011917" lon="11.372605"><ele>437.1428571428571</ele><time>2026-04-11T05:21:36.995Z</time></trkpt><trkpt lat="43.401225" lon="11.3725217"><ele>436.8571428571429</ele><time>2026-04-11T05:21:37.995Z</time></trkpt><trkpt lat="43.40125" lon="11.3724333"><ele>436.57142857142856</ele><time>2026-04-11T05:21:38.995Z</time></trkpt><trkpt lat="43.4012633" lon="11.3723483"><ele>436.2857142857143</ele><time>2026-04-11T05:21:39.995Z</time></trkpt><trkpt lat="43.40127" lon="11.37226"><ele>436.0</ele><time>2026-04-11T05:21:40.995Z</time></trkpt><trkpt lat="43.4012717" lon="11.3720833"><ele>435.7142857142857</ele><time>2026-04-11T05:21:42.996Z</time></trkpt><trkpt lat="43.4012733" lon="11.3719867"><ele>435.42857142857144</ele><time>2026-04-11T05:21:43.995Z</time></trkpt><trkpt lat="43.4012733" lon="11.3718817"><ele>435.1428571428571</ele><time>2026-04-11T05:21:44.996Z</time></trkpt><trkpt lat="43.401275" lon="11.3717767"><ele>434.8571428571429</ele><time>2026-04-11T05:21:45.995Z</time></trkpt><trkpt lat="43.4012783" lon="11.3716767"><ele>434.57142857142856</ele><time>2026-04-11T05:21:46.995Z</time></trkpt><trkpt lat="43.4012833" lon="11.37158"><ele>434.2857142857143</ele><time>2026-04-11T05:21:47.996Z</time></trkpt><trkpt lat="43.4012817" lon="11.37148"><ele>434.0</ele><time>2026-04-11T05:21:48.996Z</time></trkpt><trkpt lat="43.4012833" lon="11.3713717"><ele>433.3333333333333</ele><time>2026-04-11T05:21:49.995Z</time></trkpt><trkpt lat="43.40128" lon="11.3712733"><ele>432.66666666666663</ele><time>2026-04-11T05:21:50.995Z</time></trkpt><trkpt lat="43.4012817" lon="11.371175"><ele>432.0</ele><time>2026-04-11T05:21:51.995Z</time></trkpt><trkpt lat="43.4012867" lon="11.37106"><ele>431.33333333333337</ele><time>2026-04-11T05:21:52.995Z</time></trkpt><trkpt lat="43.4012967" lon="11.3709417"><ele>430.6666666666667</ele><time>2026-04-11T05:21:53.995Z</time></trkpt><trkpt lat="43.40131" lon="11.3708267"><ele>430.0</ele><time>2026-04-11T05:21:54.995Z</time></trkpt><trkpt lat="43.4013283" lon="11.3707067"><ele>429.85714285714283</ele><time>2026-04-11T05:21:55.995Z</time></trkpt><trkpt lat="43.40135" lon="11.3705983"><ele>429.7142857142857</ele><time>2026-04-11T05:21:56.995Z</time></trkpt><trkpt lat="43.4013733" lon="11.3704933"><ele>429.57142857142856</ele><time>2026-04-11T05:21:57.995Z</time></trkpt><trkpt lat="43.4014033" lon="11.370395"><ele>429.42857142857144</ele><time>2026-04-11T05:21:58.995Z</time></trkpt><trkpt lat="43.4014317" lon="11.3703083"><ele>429.28571428571433</ele><time>2026-04-11T05:21:59.995Z</time></trkpt><trkpt lat="43.40146" lon="11.3702217"><ele>429.14285714285717</ele><time>2026-04-11T05:22:00.995Z</time></trkpt><trkpt lat="43.4014883" lon="11.37014"><ele>429.0</ele><time>2026-04-11T05:22:01.995Z</time></trkpt><trkpt lat="43.40152" lon="11.3700583"><ele>429.0</ele><time>2026-04-11T05:22:02.995Z</time></trkpt><trkpt lat="43.4015583" lon="11.369905"><ele>429.0</ele><time>2026-04-11T05:22:04.995Z</time></trkpt><trkpt lat="43.4015933" lon="11.36975"><ele>429.0</ele><time>2026-04-11T05:22:06.996Z</time></trkpt><trkpt lat="43.4016183" lon="11.36959"><ele>429.0</ele><time>2026-04-11T05:22:08.996Z</time></trkpt><trkpt lat="43.4016383" lon="11.36943"><ele>429.25</ele><time>2026-04-11T05:22:10.995Z</time></trkpt><trkpt lat="43.4016683" lon="11.3692633"><ele>429.5</ele><time>2026-04-11T05:22:12.995Z</time></trkpt><trkpt lat="43.4016967" lon="11.3691017"><ele>429.75</ele><time>2026-04-11T05:22:14.995Z</time></trkpt><trkpt lat="43.40171" lon="11.3689333"><ele>430.0</ele><time>2026-04-11T05:22:16.995Z</time></trkpt><trkpt lat="43.401715" lon="11.36877"><ele>430.4</ele><time>2026-04-11T05:22:18.995Z</time></trkpt><trkpt lat="43.401705" lon="11.3686183"><ele>430.8</ele><time>2026-04-11T05:22:20.995Z</time></trkpt><trkpt lat="43.401685" lon="11.3684783"><ele>431.20000000000005</ele><time>2026-04-11T05:22:22.995Z</time></trkpt><trkpt lat="43.40167" lon="11.36835"><ele>431.6</ele><time>2026-04-11T05:22:24.995Z</time></trkpt><trkpt lat="43.40165" lon="11.3682267"><ele>432.0</ele><time>2026-04-11T05:22:26.995Z</time></trkpt><trkpt lat="43.4016417" lon="11.3680967"><ele>432.3333333333333</ele><time>2026-04-11T05:22:28.995Z</time></trkpt><trkpt lat="43.4016317" lon="11.367975"><ele>432.66666666666663</ele><time>2026-04-11T05:22:30.995Z</time></trkpt><trkpt lat="43.40162" lon="11.3678567"><ele>433.0</ele><time>2026-04-11T05:22:32.995Z</time></trkpt><trkpt lat="43.40161" lon="11.3677333"><ele>433.3333333333333</ele><time>2026-04-11T05:22:34.995Z</time></trkpt><trkpt lat="43.4016033" lon="11.367615"><ele>433.66666666666663</ele><time>2026-04-11T05:22:36.995Z</time></trkpt><trkpt lat="43.4015933" lon="11.3675"><ele>434.0</ele><time>2026-04-11T05:22:38.995Z</time></trkpt><trkpt lat="43.4015783" lon="11.36739"><ele>434.0</ele><time>2026-04-11T05:22:40.995Z</time></trkpt><trkpt lat="43.40157" lon="11.3672717"><ele>434.0</ele><time>2026-04-11T05:22:42.995Z</time></trkpt><trkpt lat="43.40155" lon="11.3671767"><ele>434.0</ele><time>2026-04-11T05:22:44.995Z</time></trkpt><trkpt lat="43.401525" lon="11.3670933"><ele>434.0</ele><time>2026-04-11T05:22:46.996Z</time></trkpt><trkpt lat="43.4015" lon="11.3670033"><ele>434.0</ele><time>2026-04-11T05:22:48.995Z</time></trkpt><trkpt lat="43.4014683" lon="11.366915"><ele>434.0</ele><time>2026-04-11T05:22:50.995Z</time></trkpt><trkpt lat="43.4014317" lon="11.3668333"><ele>434.0</ele><time>2026-04-11T05:22:52.995Z</time></trkpt><trkpt lat="43.4013817" lon="11.3667267"><ele>434.16666666666663</ele><time>2026-04-11T05:22:55.995Z</time></trkpt><trkpt lat="43.4013433" lon="11.36665"><ele>434.3333333333333</ele><time>2026-04-11T05:22:57.996Z</time></trkpt><trkpt lat="43.4013067" lon="11.3665733"><ele>434.5</ele><time>2026-04-11T05:22:59.995Z</time></trkpt><trkpt lat="43.4012767" lon="11.366495"><ele>434.66666666666663</ele><time>2026-04-11T05:23:01.995Z</time></trkpt><trkpt lat="43.401245" lon="11.3663783"><ele>434.8333333333333</ele><time>2026-04-11T05:23:04.995Z</time></trkpt><trkpt lat="43.4012217" lon="11.3662583"><ele>435.0</ele><time>2026-04-11T05:23:07.996Z</time></trkpt><trkpt lat="43.4011983" lon="11.3661533"><ele>435.8333333333333</ele><time>2026-04-11T05:23:10.995Z</time></trkpt><trkpt lat="43.4011883" lon="11.366055"><ele>436.66666666666663</ele><time>2026-04-11T05:23:13.995Z</time></trkpt><trkpt lat="43.4011867" lon="11.3659433"><ele>437.5</ele><time>2026-04-11T05:23:16.995Z</time></trkpt><trkpt lat="43.401165" lon="11.3658333"><ele>438.3333333333333</ele><time>2026-04-11T05:23:19.996Z</time></trkpt><trkpt lat="43.4011417" lon="11.3657217"><ele>439.16666666666663</ele><time>2026-04-11T05:23:22.995Z</time></trkpt><trkpt lat="43.40113" lon="11.3656133"><ele>440.0</ele><time>2026-04-11T05:23:25.995Z</time></trkpt><trkpt lat="43.40111" lon="11.3654867"><ele>439.99999999999994</ele><time>2026-04-11T05:23:28.995Z</time></trkpt><trkpt lat="43.4011017" lon="11.3653567"><ele>440.0</ele><time>2026-04-11T05:23:31.995Z</time></trkpt><trkpt lat="43.401095" lon="11.3652633"><ele>440.0</ele><time>2026-04-11T05:23:33.995Z</time></trkpt><trkpt lat="43.4010867" lon="11.36516"><ele>440.0</ele><time>2026-04-11T05:23:35.995Z</time></trkpt><trkpt lat="43.401085" lon="11.3650333"><ele>439.99999999999994</ele><time>2026-04-11T05:23:37.995Z</time></trkpt><trkpt lat="43.4010817" lon="11.364915"><ele>440.0</ele><time>2026-04-11T05:23:39.995Z</time></trkpt><trkpt lat="43.4010717" lon="11.3647983"><ele>440.3333333333333</ele><time>2026-04-11T05:23:41.995Z</time></trkpt><trkpt lat="43.4010417" lon="11.3646933"><ele>440.66666666666663</ele><time>2026-04-11T05:23:43.996Z</time></trkpt><trkpt lat="43.4010017" lon="11.364595"><ele>441.0</ele><time>2026-04-11T05:23:45.995Z</time></trkpt><trkpt lat="43.4009583" lon="11.364495"><ele>441.33333333333337</ele><time>2026-04-11T05:23:47.995Z</time></trkpt><trkpt lat="43.4009167" lon="11.3644083"><ele>441.6666666666667</ele><time>2026-04-11T05:23:49.995Z</time></trkpt><trkpt lat="43.4008817" lon="11.3643217"><ele>442.0</ele><time>2026-04-11T05:23:51.995Z</time></trkpt><trkpt lat="43.4008467" lon="11.364215"><ele>442.00000000000006</ele><time>2026-04-11T05:23:53.995Z</time></trkpt><trkpt lat="43.4008117" lon="11.3641133"><ele>442.0</ele><time>2026-04-11T05:23:55.995Z</time></trkpt><trkpt lat="43.4007917" lon="11.3640067"><ele>442.0</ele><time>2026-04-11T05:23:57.995Z</time></trkpt><trkpt lat="43.4007833" lon="11.3638933"><ele>442.0</ele><time>2026-04-11T05:23:59.995Z</time></trkpt><trkpt lat="43.4007917" lon="11.363785"><ele>442.00000000000006</ele><time>2026-04-11T05:24:01.995Z</time></trkpt><trkpt lat="43.4008217" lon="11.3636617"><ele>442.0</ele><time>2026-04-11T05:24:03.995Z</time></trkpt><trkpt lat="43.4008483" lon="11.3635817"><ele>441.6</ele><time>2026-04-11T05:24:04.996Z</time></trkpt><trkpt lat="43.400905" lon="11.3634483"><ele>441.20000000000005</ele><time>2026-04-11T05:24:06.996Z</time></trkpt><trkpt lat="43.4009617" lon="11.3633483"><ele>440.8</ele><time>2026-04-11T05:24:08.995Z</time></trkpt><trkpt lat="43.401035" lon="11.3632783"><ele>440.4</ele><time>2026-04-11T05:24:10.995Z</time></trkpt><trkpt lat="43.401115" lon="11.36322"><ele>440.0</ele><time>2026-04-11T05:24:12.995Z</time></trkpt><trkpt lat="43.4011883" lon="11.363175"><ele>439.99999999999994</ele><time>2026-04-11T05:24:14.995Z</time></trkpt><trkpt lat="43.4012617" lon="11.3631117"><ele>440.0</ele><time>2026-04-11T05:24:16.995Z</time></trkpt><trkpt lat="43.4013133" lon="11.3630317"><ele>440.0</ele><time>2026-04-11T05:24:18.995Z</time></trkpt><trkpt lat="43.4013517" lon="11.362935"><ele>440.0</ele><time>2026-04-11T05:24:20.995Z</time></trkpt><trkpt lat="43.40137" lon="11.362845"><ele>439.99999999999994</ele><time>2026-04-11T05:24:22.995Z</time></trkpt><trkpt lat="43.40139" lon="11.36275"><ele>440.0</ele><time>2026-04-11T05:24:24.995Z</time></trkpt><trkpt lat="43.4013867" lon="11.3626317"><ele>440.66666666666663</ele><time>2026-04-11T05:24:26.995Z</time></trkpt><trkpt lat="43.4013667" lon="11.3625183"><ele>441.3333333333333</ele><time>2026-04-11T05:24:28.995Z</time></trkpt><trkpt lat="43.4013433" lon="11.36243"><ele>442.0</ele><time>2026-04-11T05:24:30.995Z</time></trkpt><trkpt lat="43.4013083" lon="11.3623133"><ele>442.66666666666663</ele><time>2026-04-11T05:24:33.995Z</time></trkpt><trkpt lat="43.4013017" lon="11.3622067"><ele>443.3333333333333</ele><time>2026-04-11T05:24:35.996Z</time></trkpt><trkpt lat="43.401335" lon="11.3620783"><ele>444.0</ele><time>2026-04-11T05:24:37.995Z</time></trkpt><trkpt lat="43.4013817" lon="11.3619517"><ele>444.0</ele><time>2026-04-11T05:24:39.995Z</time></trkpt><trkpt lat="43.4014533" lon="11.3618233"><ele>444.0</ele><time>2026-04-11T05:24:41.995Z</time></trkpt><trkpt lat="43.4015267" lon="11.3616933"><ele>444.0</ele><time>2026-04-11T05:24:43.995Z</time></trkpt><trkpt lat="43.4016017" lon="11.361615"><ele>444.0</ele><time>2026-04-11T05:24:45.995Z</time></trkpt><trkpt lat="43.4016717" lon="11.3615483"><ele>444.0</ele><time>2026-04-11T05:24:47.995Z</time></trkpt><trkpt lat="43.40173" lon="11.3614667"><ele>444.0</ele><time>2026-04-11T05:24:49.995Z</time></trkpt><trkpt lat="43.40179" lon="11.3613783"><ele>444.0</ele><time>2026-04-11T05:24:51.995Z</time></trkpt><trkpt lat="43.4018433" lon="11.3612933"><ele>444.0</ele><time>2026-04-11T05:24:53.996Z</time></trkpt><trkpt lat="43.40189" lon="11.36121"><ele>444.0</ele><time>2026-04-11T05:24:55.996Z</time></trkpt><trkpt lat="43.4019617" lon="11.361105"><ele>444.0</ele><time>2026-04-11T05:24:57.996Z</time></trkpt><trkpt lat="43.4020367" lon="11.361"><ele>443.4</ele><time>2026-04-11T05:24:59.996Z</time></trkpt><trkpt lat="43.402115" lon="11.360905"><ele>442.79999999999995</ele><time>2026-04-11T05:25:01.996Z</time></trkpt><trkpt lat="43.4021983" lon="11.3608417"><ele>442.20000000000005</ele><time>2026-04-11T05:25:03.996Z</time></trkpt><trkpt lat="43.40229" lon="11.3608067"><ele>441.6</ele><time>2026-04-11T05:25:05.996Z</time></trkpt><trkpt lat="43.4023917" lon="11.3607783"><ele>441.0</ele><time>2026-04-11T05:25:07.996Z</time></trkpt><trkpt lat="43.4024833" lon="11.3607683"><ele>441.0</ele><time>2026-04-11T05:25:09.996Z</time></trkpt><trkpt lat="43.4025783" lon="11.3607683"><ele>441.0</ele><time>2026-04-11T05:25:11.997Z</time></trkpt><trkpt lat="43.402665" lon="11.36078"><ele>441.0</ele><time>2026-04-11T05:25:13.997Z</time></trkpt><trkpt lat="43.402755" lon="11.3607933"><ele>441.0</ele><time>2026-04-11T05:25:15.997Z</time></trkpt><trkpt lat="43.4028417" lon="11.3608017"><ele>441.0</ele><time>2026-04-11T05:25:17.996Z</time></trkpt><trkpt lat="43.4029367" lon="11.3608033"><ele>441.8333333333333</ele><time>2026-04-11T05:25:19.996Z</time></trkpt><trkpt lat="43.403015" lon="11.36079"><ele>442.66666666666663</ele><time>2026-04-11T05:25:21.997Z</time></trkpt><trkpt lat="43.4031" lon="11.3607717"><ele>443.5</ele><time>2026-04-11T05:25:23.996Z</time></trkpt><trkpt lat="43.4031817" lon="11.36075"><ele>444.3333333333333</ele><time>2026-04-11T05:25:25.996Z</time></trkpt><trkpt lat="43.4032583" lon="11.3607133"><ele>445.16666666666663</ele><time>2026-04-11T05:25:27.996Z</time></trkpt><trkpt lat="43.4033433" lon="11.360665"><ele>446.0</ele><time>2026-04-11T05:25:29.996Z</time></trkpt><trkpt lat="43.4034167" lon="11.3606"><ele>444.8333333333333</ele><time>2026-04-11T05:25:31.996Z</time></trkpt><trkpt lat="43.403445" lon="11.360515"><ele>443.66666666666663</ele><time>2026-04-11T05:25:33.996Z</time></trkpt><trkpt lat="43.403465" lon="11.3604067"><ele>442.5</ele><time>2026-04-11T05:25:35.996Z</time></trkpt><trkpt lat="43.403465" lon="11.3602917"><ele>441.33333333333337</ele><time>2026-04-11T05:25:37.996Z</time></trkpt><trkpt lat="43.4034717" lon="11.360175"><ele>440.1666666666667</ele><time>2026-04-11T05:25:39.996Z</time></trkpt><trkpt lat="43.4034833" lon="11.360045"><ele>439.0</ele><time>2026-04-11T05:25:41.996Z</time></trkpt><trkpt lat="43.403505" lon="11.35991"><ele>439.0</ele><time>2026-04-11T05:25:43.996Z</time></trkpt><trkpt lat="43.403525" lon="11.3597817"><ele>439.0</ele><time>2026-04-11T05:25:45.996Z</time></trkpt><trkpt lat="43.403555" lon="11.3596483"><ele>439.0</ele><time>2026-04-11T05:25:47.996Z</time></trkpt><trkpt lat="43.4035733" lon="11.3595183"><ele>439.0</ele><time>2026-04-11T05:25:49.996Z</time></trkpt><trkpt lat="43.4035783" lon="11.359375"><ele>439.0</ele><time>2026-04-11T05:25:51.996Z</time></trkpt><trkpt lat="43.4035533" lon="11.35925"><ele>440.00000000000006</ele><time>2026-04-11T05:25:53.996Z</time></trkpt><trkpt lat="43.4035033" lon="11.3591417"><ele>441.0</ele><time>2026-04-11T05:25:55.997Z</time></trkpt><trkpt lat="43.403425" lon="11.35907"><ele>442.0</ele><time>2026-04-11T05:25:57.996Z</time></trkpt><trkpt lat="43.4033517" lon="11.3590383"><ele>443.0</ele><time>2026-04-11T05:25:59.996Z</time></trkpt><trkpt lat="43.4032767" lon="11.3590033"><ele>444.00000000000006</ele><time>2026-04-11T05:26:01.996Z</time></trkpt><trkpt lat="43.4032067" lon="11.3589817"><ele>445.0</ele><time>2026-04-11T05:26:03.996Z</time></trkpt><trkpt lat="43.40309" lon="11.3589383"><ele>444.50000000000006</ele><time>2026-04-11T05:26:06.996Z</time></trkpt><trkpt lat="43.4030117" lon="11.3588467"><ele>444.0</ele><time>2026-04-11T05:26:08.997Z</time></trkpt><trkpt lat="43.4029583" lon="11.3587517"><ele>443.5</ele><time>2026-04-11T05:26:10.996Z</time></trkpt><trkpt lat="43.4029333" lon="11.3586583"><ele>443.0</ele><time>2026-04-11T05:26:12.996Z</time></trkpt><trkpt lat="43.4029" lon="11.3585433"><ele>442.50000000000006</ele><time>2026-04-11T05:26:15.996Z</time></trkpt><trkpt lat="43.4028833" lon="11.3584483"><ele>442.0</ele><time>2026-04-11T05:26:17.996Z</time></trkpt><trkpt lat="43.402865" lon="11.3583617"><ele>442.0</ele><time>2026-04-11T05:26:19.996Z</time></trkpt><trkpt lat="43.4028367" lon="11.3582783"><ele>442.00000000000006</ele><time>2026-04-11T05:26:21.996Z</time></trkpt><trkpt lat="43.40281" lon="11.358175"><ele>442.00000000000006</ele><time>2026-04-11T05:26:23.996Z</time></trkpt><trkpt lat="43.4027867" lon="11.3580317"><ele>442.0</ele><time>2026-04-11T05:26:25.996Z</time></trkpt><trkpt lat="43.4027617" lon="11.3578717"><ele>442.0</ele><time>2026-04-11T05:26:27.996Z</time></trkpt><trkpt lat="43.4027567" lon="11.357715"><ele>442.20000000000005</ele><time>2026-04-11T05:26:29.996Z</time></trkpt><trkpt lat="43.4027917" lon="11.3575833"><ele>442.40000000000003</ele><time>2026-04-11T05:26:31.996Z</time></trkpt><trkpt lat="43.4028433" lon="11.3574667"><ele>442.59999999999997</ele><time>2026-04-11T05:26:33.996Z</time></trkpt><trkpt lat="43.402885" lon="11.3573767"><ele>442.79999999999995</ele><time>2026-04-11T05:26:35.996Z</time></trkpt><trkpt lat="43.402955" lon="11.3572967"><ele>443.0</ele><time>2026-04-11T05:26:37.996Z</time></trkpt><trkpt lat="43.4030317" lon="11.357215"><ele>443.57142857142856</ele><time>2026-04-11T05:26:39.996Z</time></trkpt><trkpt lat="43.403105" lon="11.3571583"><ele>444.14285714285717</ele><time>2026-04-11T05:26:41.996Z</time></trkpt><trkpt lat="43.4031817" lon="11.357135"><ele>444.71428571428567</ele><time>2026-04-11T05:26:43.996Z</time></trkpt><trkpt lat="43.4032467" lon="11.35712"><ele>445.2857142857143</ele><time>2026-04-11T05:26:45.997Z</time></trkpt><trkpt lat="43.4033133" lon="11.3570983"><ele>445.85714285714283</ele><time>2026-04-11T05:26:47.996Z</time></trkpt><trkpt lat="43.4033833" lon="11.3570583"><ele>446.4285714285714</ele><time>2026-04-11T05:26:49.996Z</time></trkpt><trkpt lat="43.4034417" lon="11.3570183"><ele>447.0</ele><time>2026-04-11T05:26:51.997Z</time></trkpt><trkpt lat="43.4035317" lon="11.3569667"><ele>446.99999999999994</ele><time>2026-04-11T05:26:54.996Z</time></trkpt><trkpt lat="43.4035917" lon="11.3569117"><ele>447.0</ele><time>2026-04-11T05:26:56.996Z</time></trkpt><trkpt lat="43.4036633" lon="11.3568467"><ele>447.0</ele><time>2026-04-11T05:26:58.997Z</time></trkpt><trkpt lat="43.4037067" lon="11.3567783"><ele>447.0</ele><time>2026-04-11T05:27:00.997Z</time></trkpt><trkpt lat="43.4036917" lon="11.3566867"><ele>447.0</ele><time>2026-04-11T05:27:02.996Z</time></trkpt><trkpt lat="43.4036833" lon="11.3565783"><ele>446.99999999999994</ele><time>2026-04-11T05:27:06.996Z</time></trkpt><trkpt lat="43.4036383" lon="11.3565033"><ele>447.0</ele><time>2026-04-11T05:27:09.996Z</time></trkpt><trkpt lat="43.4036067" lon="11.3564267"><ele>446.8</ele><time>2026-04-11T05:27:11.996Z</time></trkpt><trkpt lat="43.403595" lon="11.3562783"><ele>446.6</ele><time>2026-04-11T05:27:14.996Z</time></trkpt><trkpt lat="43.4036217" lon="11.35617"><ele>446.40000000000003</ele><time>2026-04-11T05:27:16.996Z</time></trkpt><trkpt lat="43.4036833" lon="11.356075"><ele>446.20000000000005</ele><time>2026-04-11T05:27:18.996Z</time></trkpt><trkpt lat="43.4037467" lon="11.3559867"><ele>446.0</ele><time>2026-04-11T05:27:20.996Z</time></trkpt><trkpt lat="43.4038133" lon="11.3558917"><ele>446.99999999999994</ele><time>2026-04-11T05:27:22.996Z</time></trkpt><trkpt lat="43.4038667" lon="11.3558067"><ele>448.0</ele><time>2026-04-11T05:27:24.996Z</time></trkpt><trkpt lat="43.4039383" lon="11.3557367"><ele>449.0</ele><time>2026-04-11T05:27:26.996Z</time></trkpt><trkpt lat="43.4040183" lon="11.3556733"><ele>450.0</ele><time>2026-04-11T05:27:28.997Z</time></trkpt><trkpt lat="43.4041133" lon="11.3556133"><ele>450.99999999999994</ele><time>2026-04-11T05:27:30.996Z</time></trkpt><trkpt lat="43.4041867" lon="11.35559"><ele>452.0</ele><time>2026-04-11T05:27:32.996Z</time></trkpt><trkpt lat="43.4042517" lon="11.3555833"><ele>452.0</ele><time>2026-04-11T05:27:34.997Z</time></trkpt><trkpt lat="43.4043233" lon="11.3555783"><ele>452.0</ele><time>2026-04-11T05:27:36.996Z</time></trkpt><trkpt lat="43.404395" lon="11.355575"><ele>452.0</ele><time>2026-04-11T05:27:38.996Z</time></trkpt><trkpt lat="43.4044633" lon="11.3555633"><ele>452.0</ele><time>2026-04-11T05:27:40.997Z</time></trkpt><trkpt lat="43.40454" lon="11.3555783"><ele>452.0</ele><time>2026-04-11T05:27:43.996Z</time></trkpt><trkpt lat="43.4046183" lon="11.3556083"><ele>452.0</ele><time>2026-04-11T05:27:46.996Z</time></trkpt><trkpt lat="43.4046783" lon="11.355655"><ele>452.0</ele><time>2026-04-11T05:27:48.996Z</time></trkpt><trkpt lat="43.404775" lon="11.3557017"><ele>452.66666666666663</ele><time>2026-04-11T05:27:50.996Z</time></trkpt><trkpt lat="43.4048533" lon="11.35575"><ele>453.3333333333333</ele><time>2026-04-11T05:27:52.996Z</time></trkpt><trkpt lat="43.4049333" lon="11.3557933"><ele>454.0</ele><time>2026-04-11T05:27:54.996Z</time></trkpt><trkpt lat="43.40502" lon="11.3558283"><ele>454.66666666666663</ele><time>2026-04-11T05:27:56.996Z</time></trkpt><trkpt lat="43.4051033" lon="11.35585"><ele>455.3333333333333</ele><time>2026-04-11T05:27:59.996Z</time></trkpt><trkpt lat="43.40517" lon="11.3558033"><ele>456.0</ele><time>2026-04-11T05:28:02.996Z</time></trkpt><trkpt lat="43.4052433" lon="11.3557833"><ele>456.0</ele><time>2026-04-11T05:28:05.996Z</time></trkpt><trkpt lat="43.4052933" lon="11.355705"><ele>456.0</ele><time>2026-04-11T05:28:07.996Z</time></trkpt><trkpt lat="43.4053567" lon="11.355585"><ele>456.0</ele><time>2026-04-11T05:28:09.996Z</time></trkpt><trkpt lat="43.4054217" lon="11.355505"><ele>456.0</ele><time>2026-04-11T05:28:11.996Z</time></trkpt><trkpt lat="43.4055183" lon="11.3554483"><ele>456.0</ele><time>2026-04-11T05:28:13.996Z</time></trkpt><trkpt lat="43.405605" lon="11.3554133"><ele>455.5</ele><time>2026-04-11T05:28:15.996Z</time></trkpt><trkpt lat="43.405695" lon="11.3554117"><ele>455.0</ele><time>2026-04-11T05:28:17.996Z</time></trkpt><trkpt lat="43.4057783" lon="11.3554317"><ele>454.5</ele><time>2026-04-11T05:28:19.997Z</time></trkpt><trkpt lat="43.405855" lon="11.3554283"><ele>454.0</ele><time>2026-04-11T05:28:21.996Z</time></trkpt><trkpt lat="43.4059183" lon="11.355435"><ele>453.5</ele><time>2026-04-11T05:28:23.996Z</time></trkpt><trkpt lat="43.405985" lon="11.3554867"><ele>453.0</ele><time>2026-04-11T05:28:25.996Z</time></trkpt><trkpt lat="43.40605" lon="11.35554"><ele>454.42857142857133</ele><time>2026-04-11T05:28:27.996Z</time></trkpt><trkpt lat="43.406105" lon="11.3555917"><ele>455.85714285714283</ele><time>2026-04-11T05:28:29.996Z</time></trkpt><trkpt lat="43.4061667" lon="11.35565"><ele>457.2857142857142</ele><time>2026-04-11T05:28:31.996Z</time></trkpt><trkpt lat="43.406235" lon="11.355705"><ele>458.71428571428567</ele><time>2026-04-11T05:28:33.996Z</time></trkpt><trkpt lat="43.4062933" lon="11.3557517"><ele>460.1428571428571</ele><time>2026-04-11T05:28:35.996Z</time></trkpt><trkpt lat="43.4063617" lon="11.3557817"><ele>461.57142857142856</ele><time>2026-04-11T05:28:37.997Z</time></trkpt><trkpt lat="43.406435" lon="11.35582"><ele>463.0</ele><time>2026-04-11T05:28:39.996Z</time></trkpt><trkpt lat="43.4065017" lon="11.3557983"><ele>462.79999999999995</ele><time>2026-04-11T05:28:41.996Z</time></trkpt><trkpt lat="43.4065433" lon="11.355705"><ele>462.59999999999997</ele><time>2026-04-11T05:28:48.996Z</time></trkpt><trkpt lat="43.40653" lon="11.35558"><ele>462.40000000000003</ele><time>2026-04-11T05:28:52.996Z</time></trkpt><trkpt lat="43.406485" lon="11.3554683"><ele>462.20000000000005</ele><time>2026-04-11T05:28:54.996Z</time></trkpt><trkpt lat="43.4064517" lon="11.355335"><ele>462.0</ele><time>2026-04-11T05:28:56.996Z</time></trkpt><trkpt lat="43.4064567" lon="11.35516"><ele>462.0</ele><time>2026-04-11T05:28:58.996Z</time></trkpt><trkpt lat="43.4065167" lon="11.3549767"><ele>462.00000000000006</ele><time>2026-04-11T05:29:00.996Z</time></trkpt><trkpt lat="43.4065533" lon="11.3549"><ele>462.00000000000006</ele><time>2026-04-11T05:29:01.996Z</time></trkpt><trkpt lat="43.40659" lon="11.3548283"><ele>462.0</ele><time>2026-04-11T05:29:02.996Z</time></trkpt><trkpt lat="43.4066333" lon="11.35476"><ele>462.0</ele><time>2026-04-11T05:29:03.996Z</time></trkpt><trkpt lat="43.40672" lon="11.3546483"><ele>462.6</ele><time>2026-04-11T05:29:05.996Z</time></trkpt><trkpt lat="43.4068133" lon="11.354565"><ele>463.20000000000005</ele><time>2026-04-11T05:29:07.996Z</time></trkpt><trkpt lat="43.4069117" lon="11.35449"><ele>463.8</ele><time>2026-04-11T05:29:09.996Z</time></trkpt><trkpt lat="43.407005" lon="11.354415"><ele>464.4</ele><time>2026-04-11T05:29:11.996Z</time></trkpt><trkpt lat="43.4071033" lon="11.3543683"><ele>465.0</ele><time>2026-04-11T05:29:13.996Z</time></trkpt><trkpt lat="43.40719" lon="11.3543533"><ele>465.0</ele><time>2026-04-11T05:29:15.996Z</time></trkpt><trkpt lat="43.4072817" lon="11.3543533"><ele>465.0</ele><time>2026-04-11T05:29:17.996Z</time></trkpt><trkpt lat="43.40737" lon="11.3543683"><ele>465.0</ele><time>2026-04-11T05:29:19.996Z</time></trkpt><trkpt lat="43.407445" lon="11.3543817"><ele>465.0</ele><time>2026-04-11T05:29:21.997Z</time></trkpt><trkpt lat="43.4075033" lon="11.3543433"><ele>465.0</ele><time>2026-04-11T05:29:23.996Z</time></trkpt><trkpt lat="43.4075633" lon="11.354265"><ele>465.0</ele><time>2026-04-11T05:29:25.996Z</time></trkpt><trkpt lat="43.4076" lon="11.3541833"><ele>465.0</ele><time>2026-04-11T05:29:27.996Z</time></trkpt><trkpt lat="43.4076367" lon="11.35408"><ele>465.0</ele><time>2026-04-11T05:29:29.996Z</time></trkpt><trkpt lat="43.40769" lon="11.35396"><ele>465.0</ele><time>2026-04-11T05:29:31.996Z</time></trkpt><trkpt lat="43.407765" lon="11.3538683"><ele>465.0</ele><time>2026-04-11T05:29:33.997Z</time></trkpt><trkpt lat="43.4078567" lon="11.3538"><ele>465.0</ele><time>2026-04-11T05:29:35.996Z</time></trkpt><trkpt lat="43.407955" lon="11.35376"><ele>464.1666666666667</ele><time>2026-04-11T05:29:37.996Z</time></trkpt><trkpt lat="43.4080567" lon="11.3537617"><ele>463.33333333333337</ele><time>2026-04-11T05:29:39.996Z</time></trkpt><trkpt lat="43.4081367" lon="11.35378"><ele>462.5</ele><time>2026-04-11T05:29:41.997Z</time></trkpt><trkpt lat="43.4082" lon="11.35384"><ele>461.6666666666667</ele><time>2026-04-11T05:29:43.997Z</time></trkpt><trkpt lat="43.40827" lon="11.3538967"><ele>460.83333333333337</ele><time>2026-04-11T05:29:45.996Z</time></trkpt><trkpt lat="43.4083367" lon="11.3539717"><ele>460.0</ele><time>2026-04-11T05:29:47.996Z</time></trkpt><trkpt lat="43.4084017" lon="11.3540267"><ele>460.00000000000006</ele><time>2026-04-11T05:29:49.996Z</time></trkpt><trkpt lat="43.4084767" lon="11.3540483"><ele>460.0</ele><time>2026-04-11T05:29:51.996Z</time></trkpt><trkpt lat="43.4085617" lon="11.3540317"><ele>460.0</ele><time>2026-04-11T05:29:54.996Z</time></trkpt><trkpt lat="43.4086233" lon="11.35398"><ele>460.0</ele><time>2026-04-11T05:29:56.996Z</time></trkpt><trkpt lat="43.40867" lon="11.3539033"><ele>460.00000000000006</ele><time>2026-04-11T05:29:58.996Z</time></trkpt><trkpt lat="43.4086967" lon="11.3537867"><ele>460.0</ele><time>2026-04-11T05:30:01.996Z</time></trkpt><trkpt lat="43.4087217" lon="11.3536967"><ele>460.00000000000006</ele><time>2026-04-11T05:30:03.996Z</time></trkpt><trkpt lat="43.40874" lon="11.3536083"><ele>460.0</ele><time>2026-04-11T05:30:05.996Z</time></trkpt><trkpt lat="43.40876" lon="11.353485"><ele>460.0</ele><time>2026-04-11T05:30:07.997Z</time></trkpt><trkpt lat="43.4088183" lon="11.35337"><ele>460.0</ele><time>2026-04-11T05:30:09.996Z</time></trkpt><trkpt lat="43.408875" lon="11.353325"><ele>460.00000000000006</ele><time>2026-04-11T05:30:10.996Z</time></trkpt><trkpt lat="43.4089783" lon="11.3532617"><ele>460.0</ele><time>2026-04-11T05:30:12.996Z</time></trkpt><trkpt lat="43.4090883" lon="11.3532367"><ele>461.33333333333337</ele><time>2026-04-11T05:30:14.996Z</time></trkpt><trkpt lat="43.40918" lon="11.3532133"><ele>462.6666666666667</ele><time>2026-04-11T05:30:16.996Z</time></trkpt><trkpt lat="43.4092883" lon="11.3532067"><ele>464.0</ele><time>2026-04-11T05:30:18.996Z</time></trkpt><trkpt lat="43.4093683" lon="11.3531833"><ele>465.33333333333337</ele><time>2026-04-11T05:30:20.997Z</time></trkpt><trkpt lat="43.409445" lon="11.3532133"><ele>466.6666666666667</ele><time>2026-04-11T05:30:22.996Z</time></trkpt><trkpt lat="43.4095133" lon="11.3532283"><ele>468.0</ele><time>2026-04-11T05:30:24.996Z</time></trkpt><trkpt lat="43.4095867" lon="11.353245"><ele>468.0</ele><time>2026-04-11T05:30:26.996Z</time></trkpt><trkpt lat="43.4096583" lon="11.3532283"><ele>468.0</ele><time>2026-04-11T05:30:28.996Z</time></trkpt><trkpt lat="43.4097183" lon="11.3531783"><ele>468.0</ele><time>2026-04-11T05:30:31.996Z</time></trkpt><trkpt lat="43.4097067" lon="11.353085"><ele>468.0</ele><time>2026-04-11T05:30:34.996Z</time></trkpt><trkpt lat="43.4097117" lon="11.3529817"><ele>468.0</ele><time>2026-04-11T05:30:37.996Z</time></trkpt><trkpt lat="43.4097533" lon="11.3528867"><ele>468.0</ele><time>2026-04-11T05:30:39.996Z</time></trkpt><trkpt lat="43.4098167" lon="11.3528067"><ele>468.1666666666667</ele><time>2026-04-11T05:30:41.996Z</time></trkpt><trkpt lat="43.4098733" lon="11.3527433"><ele>468.33333333333337</ele><time>2026-04-11T05:30:43.996Z</time></trkpt><trkpt lat="43.4099383" lon="11.3526683"><ele>468.5</ele><time>2026-04-11T05:30:45.997Z</time></trkpt><trkpt lat="43.4099917" lon="11.35262"><ele>468.6666666666667</ele><time>2026-04-11T05:30:47.996Z</time></trkpt><trkpt lat="43.41007" lon="11.3525167"><ele>468.83333333333337</ele><time>2026-04-11T05:30:50.997Z</time></trkpt><trkpt lat="43.4101317" lon="11.3524483"><ele>469.0</ele><time>2026-04-11T05:30:53.996Z</time></trkpt><trkpt lat="43.4101833" lon="11.3523933"><ele>469.00000000000006</ele><time>2026-04-11T05:30:56.996Z</time></trkpt><trkpt lat="43.410275" lon="11.3523583"><ele>469.0</ele><time>2026-04-11T05:30:59.996Z</time></trkpt><trkpt lat="43.410345" lon="11.352335"><ele>469.0</ele><time>2026-04-11T05:31:01.996Z</time></trkpt><trkpt lat="43.410425" lon="11.3523017"><ele>469.0</ele><time>2026-04-11T05:31:04.996Z</time></trkpt><trkpt lat="43.4105083" lon="11.3522667"><ele>469.00000000000006</ele><time>2026-04-11T05:31:07.996Z</time></trkpt><trkpt lat="43.4105983" lon="11.3522183"><ele>469.0</ele><time>2026-04-11T05:31:10.996Z</time></trkpt><trkpt lat="43.410675" lon="11.3521733"><ele>469.33333333333337</ele><time>2026-04-11T05:31:12.996Z</time></trkpt><trkpt lat="43.4107567" lon="11.3521"><ele>469.6666666666667</ele><time>2026-04-11T05:31:14.996Z</time></trkpt><trkpt lat="43.4108317" lon="11.3520567"><ele>470.0</ele><time>2026-04-11T05:31:16.996Z</time></trkpt><trkpt lat="43.41091" lon="11.3520217"><ele>470.33333333333337</ele><time>2026-04-11T05:31:18.996Z</time></trkpt><trkpt lat="43.4109833" lon="11.3519983"><ele>470.6666666666667</ele><time>2026-04-11T05:31:20.997Z</time></trkpt><trkpt lat="43.4110583" lon="11.351985"><ele>471.0</ele><time>2026-04-11T05:31:22.996Z</time></trkpt><trkpt lat="43.4111383" lon="11.3519683"><ele>471.0</ele><time>2026-04-11T05:31:24.996Z</time></trkpt><trkpt lat="43.4112117" lon="11.3519583"><ele>471.0</ele><time>2026-04-11T05:31:26.996Z</time></trkpt><trkpt lat="43.411295" lon="11.351945"><ele>471.0</ele><time>2026-04-11T05:31:28.996Z</time></trkpt><trkpt lat="43.4113867" lon="11.3519333"><ele>471.0</ele><time>2026-04-11T05:31:30.996Z</time></trkpt><trkpt lat="43.4114833" lon="11.3519317"><ele>471.0</ele><time>2026-04-11T05:31:32.996Z</time></trkpt><trkpt lat="43.4115817" lon="11.3519367"><ele>471.0</ele><time>2026-04-11T05:31:34.996Z</time></trkpt><trkpt lat="43.41166" lon="11.35192"><ele>470.3333333333333</ele><time>2026-04-11T05:31:36.996Z</time></trkpt><trkpt lat="43.4117433" lon="11.351895"><ele>469.66666666666663</ele><time>2026-04-11T05:31:38.996Z</time></trkpt><trkpt lat="43.4118283" lon="11.3518733"><ele>469.0</ele><time>2026-04-11T05:31:40.996Z</time></trkpt><trkpt lat="43.4119083" lon="11.35185"><ele>468.3333333333333</ele><time>2026-04-11T05:31:42.996Z</time></trkpt><trkpt lat="43.4119833" lon="11.351825"><ele>467.66666666666663</ele><time>2026-04-11T05:31:44.996Z</time></trkpt><trkpt lat="43.4120583" lon="11.35181"><ele>467.0</ele><time>2026-04-11T05:31:46.996Z</time></trkpt><trkpt lat="43.41213" lon="11.3517867"><ele>467.71428571428567</ele><time>2026-04-11T05:31:48.996Z</time></trkpt><trkpt lat="43.4122117" lon="11.3517617"><ele>468.42857142857144</ele><time>2026-04-11T05:31:50.996Z</time></trkpt><trkpt lat="43.4122783" lon="11.3517467"><ele>469.1428571428571</ele><time>2026-04-11T05:31:52.996Z</time></trkpt><trkpt lat="43.4123483" lon="11.3517267"><ele>469.85714285714283</ele><time>2026-04-11T05:31:54.996Z</time></trkpt><trkpt lat="43.4124183" lon="11.3517033"><ele>470.57142857142856</ele><time>2026-04-11T05:31:56.996Z</time></trkpt><trkpt lat="43.4124867" lon="11.3516917"><ele>471.2857142857143</ele><time>2026-04-11T05:31:58.996Z</time></trkpt><trkpt lat="43.4125583" lon="11.3516867"><ele>472.0</ele><time>2026-04-11T05:32:00.996Z</time></trkpt><trkpt lat="43.4126383" lon="11.351645"><ele>472.0</ele><time>2026-04-11T05:32:03.996Z</time></trkpt><trkpt lat="43.412705" lon="11.35163"><ele>472.0</ele><time>2026-04-11T05:32:05.996Z</time></trkpt><trkpt lat="43.412765" lon="11.3516017"><ele>472.0</ele><time>2026-04-11T05:32:07.996Z</time></trkpt><trkpt lat="43.4128233" lon="11.3515583"><ele>472.0</ele><time>2026-04-11T05:32:09.997Z</time></trkpt><trkpt lat="43.412885" lon="11.3514767"><ele>472.0</ele><time>2026-04-11T05:32:12.996Z</time></trkpt><trkpt lat="43.4129417" lon="11.3514283"><ele>472.0</ele><time>2026-04-11T05:32:14.997Z</time></trkpt><trkpt lat="43.4130017" lon="11.3513683"><ele>472.0</ele><time>2026-04-11T05:32:16.996Z</time></trkpt><trkpt lat="43.4130567" lon="11.3513167"><ele>473.33333333333337</ele><time>2026-04-11T05:32:18.996Z</time></trkpt><trkpt lat="43.4131083" lon="11.351265"><ele>474.6666666666667</ele><time>2026-04-11T05:32:20.996Z</time></trkpt><trkpt lat="43.4131533" lon="11.3511783"><ele>476.0</ele><time>2026-04-11T05:32:23.996Z</time></trkpt><trkpt lat="43.413225" lon="11.3510933"><ele>477.33333333333337</ele><time>2026-04-11T05:32:26.996Z</time></trkpt><trkpt lat="43.413295" lon="11.3510117"><ele>478.6666666666667</ele><time>2026-04-11T05:32:29.996Z</time></trkpt><trkpt lat="43.413355" lon="11.3509233"><ele>480.0</ele><time>2026-04-11T05:32:32.996Z</time></trkpt><trkpt lat="43.4134033" lon="11.3508517"><ele>480.0</ele><time>2026-04-11T05:32:34.996Z</time></trkpt><trkpt lat="43.41346" lon="11.3507633"><ele>480.0</ele><time>2026-04-11T05:32:37.996Z</time></trkpt><trkpt lat="43.41351" lon="11.3506867"><ele>480.0</ele><time>2026-04-11T05:32:40.996Z</time></trkpt><trkpt lat="43.413555" lon="11.3506167"><ele>480.0</ele><time>2026-04-11T05:32:43.996Z</time></trkpt><trkpt lat="43.41365" lon="11.3505733"><ele>480.0</ele><time>2026-04-11T05:32:50.996Z</time></trkpt><trkpt lat="43.4137133" lon="11.3505483"><ele>480.0</ele><time>2026-04-11T05:32:52.997Z</time></trkpt><trkpt lat="43.41378" lon="11.3505183"><ele>482.3333333333333</ele><time>2026-04-11T05:32:54.997Z</time></trkpt><trkpt lat="43.4138467" lon="11.3504817"><ele>484.66666666666663</ele><time>2026-04-11T05:32:56.996Z</time></trkpt><trkpt lat="43.4139067" lon="11.3504267"><ele>487.0</ele><time>2026-04-11T05:32:58.996Z</time></trkpt><trkpt lat="43.4139817" lon="11.3503583"><ele>489.3333333333333</ele><time>2026-04-11T05:33:00.997Z</time></trkpt><trkpt lat="43.4140617" lon="11.35028"><ele>491.66666666666663</ele><time>2026-04-11T05:33:03.996Z</time></trkpt><trkpt lat="43.4141467" lon="11.3502583"><ele>494.0</ele><time>2026-04-11T05:33:05.996Z</time></trkpt><trkpt lat="43.41422" lon="11.3502683"><ele>494.0</ele><time>2026-04-11T05:33:07.996Z</time></trkpt><trkpt lat="43.4142933" lon="11.3503"><ele>494.0</ele><time>2026-04-11T05:33:10.996Z</time></trkpt><trkpt lat="43.4143867" lon="11.3503"><ele>494.0</ele><time>2026-04-11T05:33:13.996Z</time></trkpt><trkpt lat="43.4144433" lon="11.3502583"><ele>494.0</ele><time>2026-04-11T05:33:15.996Z</time></trkpt><trkpt lat="43.4145" lon="11.3502117"><ele>494.0</ele><time>2026-04-11T05:33:17.996Z</time></trkpt><trkpt lat="43.4145417" lon="11.3501333"><ele>494.0</ele><time>2026-04-11T05:33:20.996Z</time></trkpt><trkpt lat="43.414565" lon="11.3500467"><ele>494.0</ele><time>2026-04-11T05:33:23.996Z</time></trkpt><trkpt lat="43.4145967" lon="11.34994"><ele>493.99999999999994</ele><time>2026-04-11T05:33:27.996Z</time></trkpt><trkpt lat="43.4145983" lon="11.3498467"><ele>494.0</ele><time>2026-04-11T05:33:30.996Z</time></trkpt><trkpt lat="43.4146" lon="11.3497367"><ele>494.0</ele><time>2026-04-11T05:33:32.996Z</time></trkpt><trkpt lat="43.4146083" lon="11.3496117"><ele>494.0</ele><time>2026-04-11T05:33:34.996Z</time></trkpt><trkpt lat="43.4146333" lon="11.3494883"><ele>493.99999999999994</ele><time>2026-04-11T05:33:36.996Z</time></trkpt><trkpt lat="43.4146617" lon="11.34938"><ele>494.0</ele><time>2026-04-11T05:33:38.997Z</time></trkpt><trkpt lat="43.4147117" lon="11.3492733"><ele>493.57142857142856</ele><time>2026-04-11T05:33:40.997Z</time></trkpt><trkpt lat="43.4147583" lon="11.349185"><ele>493.1428571428571</ele><time>2026-04-11T05:33:42.996Z</time></trkpt><trkpt lat="43.4147983" lon="11.3491067"><ele>492.71428571428567</ele><time>2026-04-11T05:33:44.996Z</time></trkpt><trkpt lat="43.414865" lon="11.3490167"><ele>492.2857142857143</ele><time>2026-04-11T05:33:47.996Z</time></trkpt><trkpt lat="43.4149133" lon="11.3489567"><ele>491.8571428571428</ele><time>2026-04-11T05:33:49.997Z</time></trkpt><trkpt lat="43.4149733" lon="11.3489067"><ele>491.4285714285714</ele><time>2026-04-11T05:33:51.997Z</time></trkpt><trkpt lat="43.4150367" lon="11.3488617"><ele>491.0</ele><time>2026-04-11T05:33:53.996Z</time></trkpt><trkpt lat="43.415115" lon="11.3488217"><ele>492.57142857142856</ele><time>2026-04-11T05:33:55.996Z</time></trkpt><trkpt lat="43.415185" lon="11.348795"><ele>494.1428571428571</ele><time>2026-04-11T05:33:57.997Z</time></trkpt><trkpt lat="43.41526" lon="11.3487767"><ele>495.71428571428567</ele><time>2026-04-11T05:33:59.996Z</time></trkpt><trkpt lat="43.4153383" lon="11.3487717"><ele>497.2857142857142</ele><time>2026-04-11T05:34:01.996Z</time></trkpt><trkpt lat="43.4154067" lon="11.34878"><ele>498.85714285714283</ele><time>2026-04-11T05:34:03.996Z</time></trkpt><trkpt lat="43.41547" lon="11.3488"><ele>500.42857142857133</ele><time>2026-04-11T05:34:05.996Z</time></trkpt><trkpt lat="43.4155567" lon="11.348815"><ele>501.99999999999994</ele><time>2026-04-11T05:34:08.997Z</time></trkpt><trkpt lat="43.41564" lon="11.3488283"><ele>502.1666666666667</ele><time>2026-04-11T05:34:11.996Z</time></trkpt><trkpt lat="43.4157083" lon="11.3488283"><ele>502.33333333333337</ele><time>2026-04-11T05:34:13.996Z</time></trkpt><trkpt lat="43.4157833" lon="11.348825"><ele>502.5</ele><time>2026-04-11T05:34:15.996Z</time></trkpt><trkpt lat="43.4158567" lon="11.34882"><ele>502.66666666666663</ele><time>2026-04-11T05:34:17.996Z</time></trkpt><trkpt lat="43.4159283" lon="11.3487933"><ele>502.8333333333333</ele><time>2026-04-11T05:34:19.996Z</time></trkpt><trkpt lat="43.4160217" lon="11.3488033"><ele>503.0</ele><time>2026-04-11T05:34:21.996Z</time></trkpt><trkpt lat="43.4161133" lon="11.348815"><ele>502.99999999999994</ele><time>2026-04-11T05:34:23.996Z</time></trkpt><trkpt lat="43.41619" lon="11.3488117"><ele>503.0</ele><time>2026-04-11T05:34:25.996Z</time></trkpt><trkpt lat="43.4162767" lon="11.34878"><ele>503.0</ele><time>2026-04-11T05:34:28.996Z</time></trkpt><trkpt lat="43.41636" lon="11.348755"><ele>503.0</ele><time>2026-04-11T05:34:31.996Z</time></trkpt><trkpt lat="43.41646" lon="11.34877"><ele>502.99999999999994</ele><time>2026-04-11T05:34:34.996Z</time></trkpt><trkpt lat="43.41655" lon="11.3487733"><ele>503.0</ele><time>2026-04-11T05:34:37.996Z</time></trkpt><trkpt lat="43.416635" lon="11.3487633"><ele>503.3333333333333</ele><time>2026-04-11T05:34:40.996Z</time></trkpt><trkpt lat="43.4167083" lon="11.3487383"><ele>503.66666666666663</ele><time>2026-04-11T05:34:43.996Z</time></trkpt><trkpt lat="43.4167833" lon="11.34872"><ele>504.0</ele><time>2026-04-11T05:34:46.996Z</time></trkpt><trkpt lat="43.4168683" lon="11.3487183"><ele>504.33333333333337</ele><time>2026-04-11T05:34:49.996Z</time></trkpt><trkpt lat="43.41696" lon="11.3486817"><ele>504.6666666666667</ele><time>2026-04-11T05:34:52.996Z</time></trkpt><trkpt lat="43.417025" lon="11.34866"><ele>505.0</ele><time>2026-04-11T05:34:54.996Z</time></trkpt><trkpt lat="43.4170767" lon="11.3486017"><ele>505.0</ele><time>2026-04-11T05:34:56.996Z</time></trkpt><trkpt lat="43.417125" lon="11.348535"><ele>504.99999999999994</ele><time>2026-04-11T05:34:58.996Z</time></trkpt><trkpt lat="43.4171683" lon="11.348465"><ele>505.0</ele><time>2026-04-11T05:35:00.996Z</time></trkpt><trkpt lat="43.41719" lon="11.3483783"><ele>505.0</ele><time>2026-04-11T05:35:02.996Z</time></trkpt><trkpt lat="43.4171967" lon="11.3482733"><ele>504.99999999999994</ele><time>2026-04-11T05:35:05.996Z</time></trkpt><trkpt lat="43.4171783" lon="11.34816"><ele>505.0</ele><time>2026-04-11T05:35:08.996Z</time></trkpt><trkpt lat="43.41715" lon="11.3480533"><ele>505.0</ele><time>2026-04-11T05:35:10.996Z</time></trkpt><trkpt lat="43.4171333" lon="11.34794"><ele>506.2</ele><time>2026-04-11T05:35:12.996Z</time></trkpt><trkpt lat="43.41713" lon="11.3478033"><ele>507.4</ele><time>2026-04-11T05:35:14.996Z</time></trkpt><trkpt lat="43.4171283" lon="11.3476717"><ele>508.6</ele><time>2026-04-11T05:35:16.997Z</time></trkpt><trkpt lat="43.4171533" lon="11.3475317"><ele>509.8</ele><time>2026-04-11T05:35:18.996Z</time></trkpt><trkpt lat="43.417205" lon="11.3474083"><ele>511.0</ele><time>2026-04-11T05:35:20.996Z</time></trkpt><trkpt lat="43.417245" lon="11.34734"><ele>511.0</ele><time>2026-04-11T05:35:21.997Z</time></trkpt><trkpt lat="43.4173233" lon="11.3472267"><ele>511.0</ele><time>2026-04-11T05:35:23.996Z</time></trkpt><trkpt lat="43.4174017" lon="11.3471267"><ele>511.0</ele><time>2026-04-11T05:35:25.996Z</time></trkpt><trkpt lat="43.4174833" lon="11.3470433"><ele>511.0</ele><time>2026-04-11T05:35:27.996Z</time></trkpt><trkpt lat="43.4175667" lon="11.3469567"><ele>511.0</ele><time>2026-04-11T05:35:29.996Z</time></trkpt><trkpt lat="43.4176467" lon="11.34687"><ele>511.0</ele><time>2026-04-11T05:35:31.996Z</time></trkpt><trkpt lat="43.4177233" lon="11.3467933"><ele>511.0</ele><time>2026-04-11T05:35:33.996Z</time></trkpt><trkpt lat="43.4178183" lon="11.3467233"><ele>511.0</ele><time>2026-04-11T05:35:35.996Z</time></trkpt><trkpt lat="43.4179017" lon="11.3466583"><ele>511.0</ele><time>2026-04-11T05:35:37.996Z</time></trkpt><trkpt lat="43.418" lon="11.34661"><ele>511.0</ele><time>2026-04-11T05:35:39.996Z</time></trkpt><trkpt lat="43.4180933" lon="11.3465683"><ele>508.6</ele><time>2026-04-11T05:35:41.996Z</time></trkpt><trkpt lat="43.4181917" lon="11.3465283"><ele>506.20000000000005</ele><time>2026-04-11T05:35:43.997Z</time></trkpt><trkpt lat="43.4182933" lon="11.3464983"><ele>503.79999999999995</ele><time>2026-04-11T05:35:45.996Z</time></trkpt><trkpt lat="43.418395" lon="11.34647"><ele>501.4</ele><time>2026-04-11T05:35:47.996Z</time></trkpt><trkpt lat="43.4185" lon="11.34645"><ele>499.0</ele><time>2026-04-11T05:35:49.996Z</time></trkpt><trkpt lat="43.418615" lon="11.34644"><ele>499.0</ele><time>2026-04-11T05:35:51.997Z</time></trkpt><trkpt lat="43.41872" lon="11.3464283"><ele>499.0</ele><time>2026-04-11T05:35:53.996Z</time></trkpt><trkpt lat="43.4188283" lon="11.3464433"><ele>499.0</ele><time>2026-04-11T05:35:55.996Z</time></trkpt><trkpt lat="43.418935" lon="11.3464867"><ele>499.0</ele><time>2026-04-11T05:35:57.997Z</time></trkpt><trkpt lat="43.419025" lon="11.346565"><ele>499.0</ele><time>2026-04-11T05:35:59.996Z</time></trkpt><trkpt lat="43.419115" lon="11.3466633"><ele>499.4</ele><time>2026-04-11T05:36:01.996Z</time></trkpt><trkpt lat="43.4192083" lon="11.3467517"><ele>499.79999999999995</ele><time>2026-04-11T05:36:03.997Z</time></trkpt><trkpt lat="43.4193" lon="11.34682"><ele>500.20000000000005</ele><time>2026-04-11T05:36:05.997Z</time></trkpt><trkpt lat="43.4194" lon="11.3468883"><ele>500.6</ele><time>2026-04-11T05:36:07.996Z</time></trkpt><trkpt lat="43.4195" lon="11.34694"><ele>501.0</ele><time>2026-04-11T05:36:09.996Z</time></trkpt><trkpt lat="43.4196033" lon="11.3469683"><ele>502.20000000000005</ele><time>2026-04-11T05:36:11.996Z</time></trkpt><trkpt lat="43.4197083" lon="11.346955"><ele>503.40000000000003</ele><time>2026-04-11T05:36:13.996Z</time></trkpt><trkpt lat="43.4198017" lon="11.346945"><ele>504.6</ele><time>2026-04-11T05:36:15.997Z</time></trkpt><trkpt lat="43.419895" lon="11.3469283"><ele>505.8</ele><time>2026-04-11T05:36:17.996Z</time></trkpt><trkpt lat="43.4200017" lon="11.346935"><ele>507.0</ele><time>2026-04-11T05:36:19.996Z</time></trkpt><trkpt lat="43.4201067" lon="11.34696"><ele>507.0</ele><time>2026-04-11T05:36:21.996Z</time></trkpt><trkpt lat="43.4202067" lon="11.347005"><ele>507.00000000000006</ele><time>2026-04-11T05:36:23.997Z</time></trkpt><trkpt lat="43.4203" lon="11.3470667"><ele>507.00000000000006</ele><time>2026-04-11T05:36:25.996Z</time></trkpt><trkpt lat="43.4203833" lon="11.3471117"><ele>507.0</ele><time>2026-04-11T05:36:27.997Z</time></trkpt><trkpt lat="43.4204667" lon="11.3471533"><ele>507.0</ele><time>2026-04-11T05:36:29.996Z</time></trkpt><trkpt lat="43.4205517" lon="11.3471783"><ele>507.5</ele><time>2026-04-11T05:36:31.996Z</time></trkpt><trkpt lat="43.42064" lon="11.3471733"><ele>508.0</ele><time>2026-04-11T05:36:33.996Z</time></trkpt><trkpt lat="43.4207117" lon="11.347155"><ele>508.5</ele><time>2026-04-11T05:36:35.996Z</time></trkpt><trkpt lat="43.420785" lon="11.34716"><ele>509.0</ele><time>2026-04-11T05:36:37.997Z</time></trkpt><trkpt lat="43.4208767" lon="11.3471617"><ele>509.5</ele><time>2026-04-11T05:36:39.996Z</time></trkpt><trkpt lat="43.4209683" lon="11.3471733"><ele>510.0</ele><time>2026-04-11T05:36:41.996Z</time></trkpt><trkpt lat="43.42107" lon="11.3472217"><ele>508.5</ele><time>2026-04-11T05:36:43.996Z</time></trkpt><trkpt lat="43.4211567" lon="11.3472583"><ele>507.0</ele><time>2026-04-11T05:36:45.996Z</time></trkpt><trkpt lat="43.42123" lon="11.3473083"><ele>505.5</ele><time>2026-04-11T05:36:48.996Z</time></trkpt><trkpt lat="43.421275" lon="11.3473717"><ele>504.0</ele><time>2026-04-11T05:36:50.997Z</time></trkpt><trkpt lat="43.42131" lon="11.3474683"><ele>502.5</ele><time>2026-04-11T05:36:53.996Z</time></trkpt><trkpt lat="43.4213433" lon="11.34759"><ele>501.0</ele><time>2026-04-11T05:36:56.996Z</time></trkpt><trkpt lat="43.4213567" lon="11.3477133"><ele>501.0</ele><time>2026-04-11T05:36:58.996Z</time></trkpt><trkpt lat="43.42136" lon="11.3478767"><ele>501.0</ele><time>2026-04-11T05:37:00.996Z</time></trkpt><trkpt lat="43.4213633" lon="11.347965"><ele>501.0</ele><time>2026-04-11T05:37:01.996Z</time></trkpt><trkpt lat="43.4213617" lon="11.3480617"><ele>501.0</ele><time>2026-04-11T05:37:02.996Z</time></trkpt><trkpt lat="43.4213533" lon="11.3481567"><ele>501.0</ele><time>2026-04-11T05:37:03.996Z</time></trkpt><trkpt lat="43.4213433" lon="11.348255"><ele>501.0</ele><time>2026-04-11T05:37:04.996Z</time></trkpt><trkpt lat="43.4213333" lon="11.348355"><ele>501.5</ele><time>2026-04-11T05:37:05.996Z</time></trkpt><trkpt lat="43.4213233" lon="11.3484617"><ele>502.0</ele><time>2026-04-11T05:37:06.996Z</time></trkpt><trkpt lat="43.4213217" lon="11.3485767"><ele>502.5</ele><time>2026-04-11T05:37:07.996Z</time></trkpt><trkpt lat="43.4213217" lon="11.3486967"><ele>503.0</ele><time>2026-04-11T05:37:08.996Z</time></trkpt><trkpt lat="43.4213233" lon="11.3488283"><ele>503.5</ele><time>2026-04-11T05:37:09.997Z</time></trkpt><trkpt lat="43.42133" lon="11.3489567"><ele>504.0</ele><time>2026-04-11T05:37:10.996Z</time></trkpt><trkpt lat="43.42134" lon="11.34909"><ele>503.0</ele><time>2026-04-11T05:37:11.996Z</time></trkpt><trkpt lat="43.42136" lon="11.3492183"><ele>502.0</ele><time>2026-04-11T05:37:12.996Z</time></trkpt><trkpt lat="43.4213933" lon="11.3493417"><ele>501.0</ele><time>2026-04-11T05:37:13.996Z</time></trkpt><trkpt lat="43.4214283" lon="11.3494467"><ele>500.0</ele><time>2026-04-11T05:37:14.996Z</time></trkpt><trkpt lat="43.4214733" lon="11.3495333"><ele>499.0</ele><time>2026-04-11T05:37:15.996Z</time></trkpt><trkpt lat="43.42154" lon="11.34959"><ele>498.0</ele><time>2026-04-11T05:37:16.996Z</time></trkpt><trkpt lat="43.4216233" lon="11.3495933"><ele>498.0</ele><time>2026-04-11T05:37:17.996Z</time></trkpt><trkpt lat="43.4217233" lon="11.3495683"><ele>497.99999999999994</ele><time>2026-04-11T05:37:18.997Z</time></trkpt><trkpt lat="43.421815" lon="11.3495517"><ele>497.99999999999994</ele><time>2026-04-11T05:37:19.996Z</time></trkpt><trkpt lat="43.4219167" lon="11.3495667"><ele>498.0</ele><time>2026-04-11T05:37:20.996Z</time></trkpt><trkpt lat="43.42201" lon="11.3496017"><ele>498.0</ele><time>2026-04-11T05:37:21.996Z</time></trkpt><trkpt lat="43.4220933" lon="11.3496567"><ele>495.6666666666667</ele><time>2026-04-11T05:37:22.996Z</time></trkpt><trkpt lat="43.4221683" lon="11.3497183"><ele>493.33333333333337</ele><time>2026-04-11T05:37:23.996Z</time></trkpt><trkpt lat="43.4222383" lon="11.3497733"><ele>491.0</ele><time>2026-04-11T05:37:24.996Z</time></trkpt><trkpt lat="43.4223067" lon="11.3498283"><ele>488.6666666666667</ele><time>2026-04-11T05:37:25.996Z</time></trkpt><trkpt lat="43.4223767" lon="11.3498717"><ele>486.33333333333337</ele><time>2026-04-11T05:37:26.996Z</time></trkpt><trkpt lat="43.42245" lon="11.34992"><ele>484.0</ele><time>2026-04-11T05:37:27.997Z</time></trkpt><trkpt lat="43.4225183" lon="11.3499683"><ele>484.0</ele><time>2026-04-11T05:37:28.996Z</time></trkpt><trkpt lat="43.422585" lon="11.350015"><ele>484.0</ele><time>2026-04-11T05:37:29.996Z</time></trkpt><trkpt lat="43.422645" lon="11.3500617"><ele>484.0</ele><time>2026-04-11T05:37:30.996Z</time></trkpt><trkpt lat="43.422735" lon="11.3501717"><ele>484.0</ele><time>2026-04-11T05:37:32.996Z</time></trkpt><trkpt lat="43.422785" lon="11.3502917"><ele>484.0</ele><time>2026-04-11T05:37:34.996Z</time></trkpt><trkpt lat="43.4228467" lon="11.35042"><ele>484.0</ele><time>2026-04-11T05:37:36.996Z</time></trkpt><trkpt lat="43.4229083" lon="11.3505217"><ele>484.0</ele><time>2026-04-11T05:37:38.996Z</time></trkpt><trkpt lat="43.4230083" lon="11.3505617"><ele>484.0</ele><time>2026-04-11T05:37:40.996Z</time></trkpt><trkpt lat="43.4231033" lon="11.350515"><ele>484.0</ele><time>2026-04-11T05:37:42.996Z</time></trkpt><trkpt lat="43.423175" lon="11.3504767"><ele>484.0</ele><time>2026-04-11T05:37:43.996Z</time></trkpt><trkpt lat="43.4232483" lon="11.3504233"><ele>482.4</ele><time>2026-04-11T05:37:44.996Z</time></trkpt><trkpt lat="43.4233083" lon="11.3503667"><ele>480.79999999999995</ele><time>2026-04-11T05:37:45.997Z</time></trkpt><trkpt lat="43.4234167" lon="11.35029"><ele>479.20000000000005</ele><time>2026-04-11T05:37:47.997Z</time></trkpt><trkpt lat="43.4235167" lon="11.3501967"><ele>477.6</ele><time>2026-04-11T05:37:49.996Z</time></trkpt><trkpt lat="43.4236333" lon="11.35012"><ele>476.0</ele><time>2026-04-11T05:37:51.996Z</time></trkpt><trkpt lat="43.4237533" lon="11.3501033"><ele>473.99999999999994</ele><time>2026-04-11T05:37:53.996Z</time></trkpt><trkpt lat="43.4238533" lon="11.35012"><ele>472.0</ele><time>2026-04-11T05:37:55.996Z</time></trkpt><trkpt lat="43.423915" lon="11.3502"><ele>470.0</ele><time>2026-04-11T05:37:57.997Z</time></trkpt><trkpt lat="43.4239567" lon="11.350335"><ele>468.0</ele><time>2026-04-11T05:37:59.996Z</time></trkpt><trkpt lat="43.4239617" lon="11.3504217"><ele>465.99999999999994</ele><time>2026-04-11T05:38:00.996Z</time></trkpt><trkpt lat="43.4239683" lon="11.3505283"><ele>464.0</ele><time>2026-04-11T05:38:01.996Z</time></trkpt><trkpt lat="43.42398" lon="11.3506483"><ele>462.16666666666663</ele><time>2026-04-11T05:38:02.996Z</time></trkpt><trkpt lat="43.42399" lon="11.35077"><ele>460.3333333333333</ele><time>2026-04-11T05:38:03.996Z</time></trkpt><trkpt lat="43.424" lon="11.3508883"><ele>458.5</ele><time>2026-04-11T05:38:04.996Z</time></trkpt><trkpt lat="43.4240033" lon="11.3509967"><ele>456.66666666666663</ele><time>2026-04-11T05:38:05.996Z</time></trkpt><trkpt lat="43.424005" lon="11.3510967"><ele>454.8333333333333</ele><time>2026-04-11T05:38:06.997Z</time></trkpt><trkpt lat="43.4240033" lon="11.3511967"><ele>453.0</ele><time>2026-04-11T05:38:07.996Z</time></trkpt><trkpt lat="43.4239917" lon="11.3513"><ele>452.8571428571428</ele><time>2026-04-11T05:38:08.996Z</time></trkpt><trkpt lat="43.4239767" lon="11.3513967"><ele>452.71428571428567</ele><time>2026-04-11T05:38:09.997Z</time></trkpt><trkpt lat="43.4239567" lon="11.3514917"><ele>452.57142857142856</ele><time>2026-04-11T05:38:10.996Z</time></trkpt><trkpt lat="43.4239417" lon="11.3515833"><ele>452.4285714285714</ele><time>2026-04-11T05:38:11.996Z</time></trkpt><trkpt lat="43.4239167" lon="11.351685"><ele>452.2857142857142</ele><time>2026-04-11T05:38:12.996Z</time></trkpt><trkpt lat="43.4238917" lon="11.3517783"><ele>452.14285714285717</ele><time>2026-04-11T05:38:13.996Z</time></trkpt><trkpt lat="43.42386" lon="11.3518667"><ele>452.0</ele><time>2026-04-11T05:38:14.996Z</time></trkpt><trkpt lat="43.42383" lon="11.3519533"><ele>451.42857142857144</ele><time>2026-04-11T05:38:15.996Z</time></trkpt><trkpt lat="43.423805" lon="11.3520433"><ele>450.85714285714283</ele><time>2026-04-11T05:38:16.997Z</time></trkpt><trkpt lat="43.4237817" lon="11.352135"><ele>450.2857142857143</ele><time>2026-04-11T05:38:17.996Z</time></trkpt><trkpt lat="43.4237667" lon="11.3522367"><ele>449.7142857142857</ele><time>2026-04-11T05:38:18.996Z</time></trkpt><trkpt lat="43.4237583" lon="11.35234"><ele>449.1428571428571</ele><time>2026-04-11T05:38:19.996Z</time></trkpt><trkpt lat="43.4237517" lon="11.3524433"><ele>448.57142857142856</ele><time>2026-04-11T05:38:20.996Z</time></trkpt><trkpt lat="43.4237533" lon="11.3525517"><ele>448.0</ele><time>2026-04-11T05:38:21.996Z</time></trkpt><trkpt lat="43.4237517" lon="11.3526633"><ele>447.1666666666667</ele><time>2026-04-11T05:38:22.996Z</time></trkpt><trkpt lat="43.423755" lon="11.35277"><ele>446.33333333333337</ele><time>2026-04-11T05:38:23.996Z</time></trkpt><trkpt lat="43.4237633" lon="11.3528883"><ele>445.5</ele><time>2026-04-11T05:38:24.996Z</time></trkpt><trkpt lat="43.4237733" lon="11.3530017"><ele>444.66666666666663</ele><time>2026-04-11T05:38:25.996Z</time></trkpt><trkpt lat="43.4237833" lon="11.3531067"><ele>443.8333333333333</ele><time>2026-04-11T05:38:26.997Z</time></trkpt><trkpt lat="43.423795" lon="11.35321"><ele>443.0</ele><time>2026-04-11T05:38:27.996Z</time></trkpt><trkpt lat="43.4238117" lon="11.35332"><ele>443.66666666666663</ele><time>2026-04-11T05:38:28.996Z</time></trkpt><trkpt lat="43.4238233" lon="11.3534317"><ele>444.3333333333333</ele><time>2026-04-11T05:38:29.996Z</time></trkpt><trkpt lat="43.42384" lon="11.35354"><ele>445.0</ele><time>2026-04-11T05:38:30.996Z</time></trkpt><trkpt lat="43.4238517" lon="11.3536417"><ele>445.66666666666663</ele><time>2026-04-11T05:38:31.996Z</time></trkpt><trkpt lat="43.4238583" lon="11.3537467"><ele>446.3333333333333</ele><time>2026-04-11T05:38:32.996Z</time></trkpt><trkpt lat="43.4238683" lon="11.353855"><ele>447.0</ele><time>2026-04-11T05:38:33.996Z</time></trkpt><trkpt lat="43.42387" lon="11.3539417"><ele>444.6</ele><time>2026-04-11T05:38:34.996Z</time></trkpt><trkpt lat="43.4238817" lon="11.354035"><ele>442.20000000000005</ele><time>2026-04-11T05:38:35.996Z</time></trkpt><trkpt lat="43.423925" lon="11.3541783"><ele>439.8</ele><time>2026-04-11T05:38:37.996Z</time></trkpt><trkpt lat="43.4239767" lon="11.3542767"><ele>437.4</ele><time>2026-04-11T05:38:39.997Z</time></trkpt><trkpt lat="43.4240417" lon="11.3543783"><ele>435.0</ele><time>2026-04-11T05:38:41.996Z</time></trkpt><trkpt lat="43.4241117" lon="11.35449"><ele>435.0</ele><time>2026-04-11T05:38:43.996Z</time></trkpt><trkpt lat="43.4241983" lon="11.3546217"><ele>435.0</ele><time>2026-04-11T05:38:45.996Z</time></trkpt><trkpt lat="43.4242617" lon="11.3546967"><ele>435.0</ele><time>2026-04-11T05:38:46.996Z</time></trkpt><trkpt lat="43.4243317" lon="11.3547483"><ele>435.0</ele><time>2026-04-11T05:38:47.997Z</time></trkpt><trkpt lat="43.4244233" lon="11.3547717"><ele>435.0</ele><time>2026-04-11T05:38:48.996Z</time></trkpt><trkpt lat="43.4245383" lon="11.3547867"><ele>433.3333333333333</ele><time>2026-04-11T05:38:49.996Z</time></trkpt><trkpt lat="43.4246433" lon="11.354795"><ele>431.66666666666663</ele><time>2026-04-11T05:38:50.996Z</time></trkpt><trkpt lat="43.42474" lon="11.3548033"><ele>430.0</ele><time>2026-04-11T05:38:51.996Z</time></trkpt><trkpt lat="43.4248317" lon="11.3548083"><ele>428.3333333333333</ele><time>2026-04-11T05:38:52.996Z</time></trkpt><trkpt lat="43.4249083" lon="11.3547967"><ele>426.66666666666663</ele><time>2026-04-11T05:38:53.996Z</time></trkpt><trkpt lat="43.424975" lon="11.3547783"><ele>425.0</ele><time>2026-04-11T05:38:54.997Z</time></trkpt><trkpt lat="43.4250767" lon="11.35469"><ele>424.99999999999994</ele><time>2026-04-11T05:38:56.996Z</time></trkpt><trkpt lat="43.4251183" lon="11.35461"><ele>425.0</ele><time>2026-04-11T05:38:57.996Z</time></trkpt><trkpt lat="43.42516" lon="11.3545267"><ele>425.0</ele><time>2026-04-11T05:38:58.996Z</time></trkpt><trkpt lat="43.42521" lon="11.35445"><ele>425.0</ele><time>2026-04-11T05:38:59.996Z</time></trkpt><trkpt lat="43.4252783" lon="11.354395"><ele>424.99999999999994</ele><time>2026-04-11T05:39:00.996Z</time></trkpt><trkpt lat="43.42536" lon="11.3543633"><ele>425.0</ele><time>2026-04-11T05:39:01.996Z</time></trkpt><trkpt lat="43.4254483" lon="11.3543217"><ele>421.4</ele><time>2026-04-11T05:39:02.996Z</time></trkpt><trkpt lat="43.4255367" lon="11.3542717"><ele>417.8</ele><time>2026-04-11T05:39:03.996Z</time></trkpt><trkpt lat="43.425615" lon="11.3541717"><ele>414.20000000000005</ele><time>2026-04-11T05:39:04.996Z</time></trkpt><trkpt lat="43.4256817" lon="11.3540433"><ele>410.6</ele><time>2026-04-11T05:39:05.996Z</time></trkpt><trkpt lat="43.4257333" lon="11.353895"><ele>407.0</ele><time>2026-04-11T05:39:06.996Z</time></trkpt><trkpt lat="43.425765" lon="11.35374"><ele>405.66666666666663</ele><time>2026-04-11T05:39:07.996Z</time></trkpt><trkpt lat="43.4257767" lon="11.3536117"><ele>404.3333333333333</ele><time>2026-04-11T05:39:08.996Z</time></trkpt><trkpt lat="43.4257767" lon="11.3534683"><ele>403.0</ele><time>2026-04-11T05:39:09.996Z</time></trkpt><trkpt lat="43.4257667" lon="11.3533467"><ele>401.66666666666663</ele><time>2026-04-11T05:39:10.996Z</time></trkpt><trkpt lat="43.4257667" lon="11.3532417"><ele>400.3333333333333</ele><time>2026-04-11T05:39:11.997Z</time></trkpt><trkpt lat="43.4257667" lon="11.3531433"><ele>399.0</ele><time>2026-04-11T05:39:12.996Z</time></trkpt><trkpt lat="43.4257717" lon="11.35304"><ele>399.4</ele><time>2026-04-11T05:39:13.996Z</time></trkpt><trkpt lat="43.42578" lon="11.3529183"><ele>399.79999999999995</ele><time>2026-04-11T05:39:14.996Z</time></trkpt><trkpt lat="43.4258067" lon="11.35279"><ele>400.20000000000005</ele><time>2026-04-11T05:39:15.996Z</time></trkpt><trkpt lat="43.4258283" lon="11.35267"><ele>400.6</ele><time>2026-04-11T05:39:16.996Z</time></trkpt><trkpt lat="43.42586" lon="11.352545"><ele>401.0</ele><time>2026-04-11T05:39:17.996Z</time></trkpt><trkpt lat="43.4258817" lon="11.3524283"><ele>400.99999999999994</ele><time>2026-04-11T05:39:18.996Z</time></trkpt><trkpt lat="43.4259167" lon="11.3523167"><ele>401.0</ele><time>2026-04-11T05:39:19.996Z</time></trkpt><trkpt lat="43.4259633" lon="11.3522233"><ele>401.0</ele><time>2026-04-11T05:39:20.996Z</time></trkpt><trkpt lat="43.4260067" lon="11.352135"><ele>401.0</ele><time>2026-04-11T05:39:21.996Z</time></trkpt><trkpt lat="43.4260633" lon="11.35206"><ele>400.99999999999994</ele><time>2026-04-11T05:39:22.997Z</time></trkpt><trkpt lat="43.426125" lon="11.351995"><ele>401.0</ele><time>2026-04-11T05:39:23.996Z</time></trkpt><trkpt lat="43.4261867" lon="11.3519367"><ele>401.8333333333333</ele><time>2026-04-11T05:39:24.996Z</time></trkpt><trkpt lat="43.4262483" lon="11.3518783"><ele>402.66666666666663</ele><time>2026-04-11T05:39:25.996Z</time></trkpt><trkpt lat="43.42631" lon="11.351815"><ele>403.5</ele><time>2026-04-11T05:39:26.996Z</time></trkpt><trkpt lat="43.4263667" lon="11.351745"><ele>404.33333333333337</ele><time>2026-04-11T05:39:27.997Z</time></trkpt><trkpt lat="43.4264233" lon="11.35168"><ele>405.1666666666667</ele><time>2026-04-11T05:39:28.996Z</time></trkpt><trkpt lat="43.4264783" lon="11.3516083"><ele>406.0</ele><time>2026-04-11T05:39:29.996Z</time></trkpt><trkpt lat="43.4265383" lon="11.35154"><ele>404.00000000000006</ele><time>2026-04-11T05:39:30.997Z</time></trkpt><trkpt lat="43.4265917" lon="11.351455"><ele>402.0</ele><time>2026-04-11T05:39:31.997Z</time></trkpt><trkpt lat="43.426635" lon="11.3513783"><ele>400.0</ele><time>2026-04-11T05:39:32.996Z</time></trkpt><trkpt lat="43.4266733" lon="11.3512983"><ele>398.0</ele><time>2026-04-11T05:39:33.996Z</time></trkpt><trkpt lat="43.4267333" lon="11.351205"><ele>396.00000000000006</ele><time>2026-04-11T05:39:35.996Z</time></trkpt><trkpt lat="43.4267533" lon="11.3510867"><ele>394.0</ele><time>2026-04-11T05:39:37.996Z</time></trkpt><trkpt lat="43.4267517" lon="11.350995"><ele>394.0</ele><time>2026-04-11T05:39:39.996Z</time></trkpt><trkpt lat="43.4267783" lon="11.3508767"><ele>394.0</ele><time>2026-04-11T05:39:41.996Z</time></trkpt><trkpt lat="43.4268267" lon="11.350775"><ele>394.0</ele><time>2026-04-11T05:39:43.996Z</time></trkpt><trkpt lat="43.4269" lon="11.3506567"><ele>394.0</ele><time>2026-04-11T05:39:45.997Z</time></trkpt><trkpt lat="43.426965" lon="11.350565"><ele>394.0</ele><time>2026-04-11T05:39:46.996Z</time></trkpt><trkpt lat="43.4270267" lon="11.3505117"><ele>394.5</ele><time>2026-04-11T05:39:47.996Z</time></trkpt><trkpt lat="43.427115" lon="11.3504217"><ele>395.0</ele><time>2026-04-11T05:39:48.996Z</time></trkpt><trkpt lat="43.4272233" lon="11.35036"><ele>395.5</ele><time>2026-04-11T05:39:49.997Z</time></trkpt><trkpt lat="43.4273433" lon="11.3503083"><ele>396.0</ele><time>2026-04-11T05:39:50.996Z</time></trkpt><trkpt lat="43.4274733" lon="11.3502617"><ele>392.4</ele><time>2026-04-11T05:39:51.996Z</time></trkpt><trkpt lat="43.427585" lon="11.350215"><ele>388.8</ele><time>2026-04-11T05:39:52.997Z</time></trkpt><trkpt lat="43.42769" lon="11.35016"><ele>385.2</ele><time>2026-04-11T05:39:53.996Z</time></trkpt><trkpt lat="43.4277867" lon="11.3501"><ele>381.59999999999997</ele><time>2026-04-11T05:39:54.996Z</time></trkpt><trkpt lat="43.427875" lon="11.3500417"><ele>378.0</ele><time>2026-04-11T05:39:55.996Z</time></trkpt><trkpt lat="43.4279617" lon="11.3499917"><ele>377.8333333333333</ele><time>2026-04-11T05:39:56.996Z</time></trkpt><trkpt lat="43.4280567" lon="11.349965"><ele>377.6666666666667</ele><time>2026-04-11T05:39:57.996Z</time></trkpt><trkpt lat="43.428145" lon="11.3499467"><ele>377.5</ele><time>2026-04-11T05:39:58.996Z</time></trkpt><trkpt lat="43.4282217" lon="11.3499417"><ele>377.33333333333337</ele><time>2026-04-11T05:39:59.996Z</time></trkpt><trkpt lat="43.428295" lon="11.349935"><ele>377.1666666666667</ele><time>2026-04-11T05:40:00.996Z</time></trkpt><trkpt lat="43.4283583" lon="11.3499167"><ele>377.0</ele><time>2026-04-11T05:40:01.996Z</time></trkpt><trkpt lat="43.42846" lon="11.3499017"><ele>377.0</ele><time>2026-04-11T05:40:03.997Z</time></trkpt><trkpt lat="43.428545" lon="11.34997"><ele>377.0</ele><time>2026-04-11T05:40:06.997Z</time></trkpt><trkpt lat="43.42862" lon="11.350025"><ele>377.0</ele><time>2026-04-11T05:40:08.997Z</time></trkpt><trkpt lat="43.428695" lon="11.3500867"><ele>377.0</ele><time>2026-04-11T05:40:10.996Z</time></trkpt><trkpt lat="43.42877" lon="11.350145"><ele>377.0</ele><time>2026-04-11T05:40:12.996Z</time></trkpt><trkpt lat="43.42882" lon="11.35021"><ele>377.0</ele><time>2026-04-11T05:40:14.996Z</time></trkpt><trkpt lat="43.4288917" lon="11.35028"><ele>377.0</ele><time>2026-04-11T05:40:16.997Z</time></trkpt><trkpt lat="43.428965" lon="11.3503317"><ele>377.0</ele><time>2026-04-11T05:40:18.996Z</time></trkpt><trkpt lat="43.42904" lon="11.35038"><ele>377.0</ele><time>2026-04-11T05:40:20.996Z</time></trkpt><trkpt lat="43.4291083" lon="11.3504317"><ele>377.0</ele><time>2026-04-11T05:40:22.996Z</time></trkpt><trkpt lat="43.42918" lon="11.3504817"><ele>377.0</ele><time>2026-04-11T05:40:24.996Z</time></trkpt><trkpt lat="43.4292433" lon="11.3505183"><ele>377.0</ele><time>2026-04-11T05:40:26.996Z</time></trkpt><trkpt lat="43.4293067" lon="11.350555"><ele>377.2857142857143</ele><time>2026-04-11T05:40:28.996Z</time></trkpt><trkpt lat="43.4293717" lon="11.350585"><ele>377.57142857142856</ele><time>2026-04-11T05:40:30.996Z</time></trkpt><trkpt lat="43.4294333" lon="11.3506067"><ele>377.8571428571429</ele><time>2026-04-11T05:40:32.997Z</time></trkpt><trkpt lat="43.4294933" lon="11.350635"><ele>378.1428571428571</ele><time>2026-04-11T05:40:34.996Z</time></trkpt><trkpt lat="43.4295667" lon="11.35065"><ele>378.42857142857144</ele><time>2026-04-11T05:40:36.996Z</time></trkpt><trkpt lat="43.429635" lon="11.350665"><ele>378.7142857142857</ele><time>2026-04-11T05:40:38.997Z</time></trkpt><trkpt lat="43.4297017" lon="11.3506867"><ele>379.0</ele><time>2026-04-11T05:40:41.996Z</time></trkpt><trkpt lat="43.4297717" lon="11.3507117"><ele>379.0</ele><time>2026-04-11T05:40:44.996Z</time></trkpt><trkpt lat="43.4298533" lon="11.3507133"><ele>379.0</ele><time>2026-04-11T05:40:47.996Z</time></trkpt><trkpt lat="43.4299367" lon="11.3507433"><ele>379.0</ele><time>2026-04-11T05:40:50.996Z</time></trkpt><trkpt lat="43.4300167" lon="11.3507633"><ele>379.0</ele><time>2026-04-11T05:40:53.996Z</time></trkpt><trkpt lat="43.4301117" lon="11.3507783"><ele>379.0</ele><time>2026-04-11T05:40:56.996Z</time></trkpt><trkpt lat="43.430195" lon="11.3507767"><ele>379.0</ele><time>2026-04-11T05:40:58.996Z</time></trkpt><trkpt lat="43.430295" lon="11.3507817"><ele>379.0</ele><time>2026-04-11T05:41:00.996Z</time></trkpt><trkpt lat="43.4303817" lon="11.3507967"><ele>379.0</ele><time>2026-04-11T05:41:02.997Z</time></trkpt><trkpt lat="43.4304667" lon="11.350815"><ele>379.0</ele><time>2026-04-11T05:41:04.996Z</time></trkpt><trkpt lat="43.43054" lon="11.3508367"><ele>379.0</ele><time>2026-04-11T05:41:06.996Z</time></trkpt><trkpt lat="43.43061" lon="11.3508683"><ele>379.0</ele><time>2026-04-11T05:41:08.996Z</time></trkpt><trkpt lat="43.4306883" lon="11.3508933"><ele>379.0</ele><time>2026-04-11T05:41:10.996Z</time></trkpt><trkpt lat="43.4307583" lon="11.350905"><ele>379.42857142857144</ele><time>2026-04-11T05:41:12.996Z</time></trkpt><trkpt lat="43.43083" lon="11.3509133"><ele>379.8571428571429</ele><time>2026-04-11T05:41:14.996Z</time></trkpt><trkpt lat="43.4308933" lon="11.350885"><ele>380.28571428571433</ele><time>2026-04-11T05:41:16.996Z</time></trkpt><trkpt lat="43.4309583" lon="11.3508683"><ele>380.7142857142857</ele><time>2026-04-11T05:41:18.996Z</time></trkpt><trkpt lat="43.4310317" lon="11.3508267"><ele>381.1428571428571</ele><time>2026-04-11T05:41:21.996Z</time></trkpt><trkpt lat="43.4310983" lon="11.350785"><ele>381.5714285714286</ele><time>2026-04-11T05:41:24.996Z</time></trkpt><trkpt lat="43.4311617" lon="11.3507283"><ele>382.0</ele><time>2026-04-11T05:41:27.996Z</time></trkpt><trkpt lat="43.4312233" lon="11.3506867"><ele>382.0</ele><time>2026-04-11T05:41:31.996Z</time></trkpt><trkpt lat="43.4312967" lon="11.3506433"><ele>382.0</ele><time>2026-04-11T05:41:35.996Z</time></trkpt><trkpt lat="43.4313667" lon="11.35063"><ele>382.0</ele><time>2026-04-11T05:41:39.996Z</time></trkpt><trkpt lat="43.43144" lon="11.35066"><ele>382.0</ele><time>2026-04-11T05:41:44.997Z</time></trkpt><trkpt lat="43.431515" lon="11.3507067"><ele>382.0</ele><time>2026-04-11T05:41:48.996Z</time></trkpt><trkpt lat="43.4315633" lon="11.3507733"><ele>382.0</ele><time>2026-04-11T05:41:52.997Z</time></trkpt><trkpt lat="43.4316083" lon="11.3508417"><ele>382.0</ele><time>2026-04-11T05:41:57.996Z</time></trkpt><trkpt lat="43.4316617" lon="11.350905"><ele>384.3333333333333</ele><time>2026-04-11T05:42:03.997Z</time></trkpt><trkpt lat="43.4317283" lon="11.3509633"><ele>386.66666666666663</ele><time>2026-04-11T05:42:07.996Z</time></trkpt><trkpt lat="43.43178" lon="11.3510317"><ele>389.0</ele><time>2026-04-11T05:42:11.996Z</time></trkpt><trkpt lat="43.431845" lon="11.3510833"><ele>391.3333333333333</ele><time>2026-04-11T05:42:16.996Z</time></trkpt><trkpt lat="43.4319067" lon="11.3511367"><ele>393.6666666666667</ele><time>2026-04-11T05:42:20.997Z</time></trkpt><trkpt lat="43.43199" lon="11.3511683"><ele>396.0</ele><time>2026-04-11T05:42:23.996Z</time></trkpt><trkpt lat="43.4320817" lon="11.3511833"><ele>396.1666666666667</ele><time>2026-04-11T05:42:25.996Z</time></trkpt><trkpt lat="43.43215" lon="11.3512017"><ele>396.33333333333337</ele><time>2026-04-11T05:42:26.996Z</time></trkpt><trkpt lat="43.4322183" lon="11.3512017"><ele>396.5</ele><time>2026-04-11T05:42:27.996Z</time></trkpt><trkpt lat="43.43235" lon="11.3512117"><ele>396.6666666666667</ele><time>2026-04-11T05:42:29.996Z</time></trkpt><trkpt lat="43.4324217" lon="11.3512117"><ele>396.83333333333337</ele><time>2026-04-11T05:42:30.996Z</time></trkpt><trkpt lat="43.4325" lon="11.3512"><ele>397.0</ele><time>2026-04-11T05:42:31.996Z</time></trkpt><trkpt lat="43.4325917" lon="11.3512017"><ele>397.0</ele><time>2026-04-11T05:42:32.996Z</time></trkpt><trkpt lat="43.4326833" lon="11.3511833"><ele>397.0</ele><time>2026-04-11T05:42:33.996Z</time></trkpt><trkpt lat="43.4327767" lon="11.3511367"><ele>397.0</ele><time>2026-04-11T05:42:34.996Z</time></trkpt><trkpt lat="43.432875" lon="11.3510683"><ele>397.0</ele><time>2026-04-11T05:42:35.996Z</time></trkpt><trkpt lat="43.4329733" lon="11.35099"><ele>397.0</ele><time>2026-04-11T05:42:36.996Z</time></trkpt><trkpt lat="43.433065" lon="11.3509167"><ele>396.6</ele><time>2026-04-11T05:42:37.996Z</time></trkpt><trkpt lat="43.4331583" lon="11.3508417"><ele>396.20000000000005</ele><time>2026-04-11T05:42:38.996Z</time></trkpt><trkpt lat="43.4332567" lon="11.350765"><ele>395.8</ele><time>2026-04-11T05:42:39.996Z</time></trkpt><trkpt lat="43.4333467" lon="11.3506883"><ele>395.4</ele><time>2026-04-11T05:42:40.996Z</time></trkpt><trkpt lat="43.4334417" lon="11.3506167"><ele>395.0</ele><time>2026-04-11T05:42:41.996Z</time></trkpt><trkpt lat="43.4335217" lon="11.35054"><ele>395.0</ele><time>2026-04-11T05:42:42.996Z</time></trkpt><trkpt lat="43.433605" lon="11.3504667"><ele>395.0</ele><time>2026-04-11T05:42:43.996Z</time></trkpt><trkpt lat="43.4336867" lon="11.3503867"><ele>395.0</ele><time>2026-04-11T05:42:44.996Z</time></trkpt><trkpt lat="43.4337617" lon="11.3503"><ele>395.0</ele><time>2026-04-11T05:42:45.996Z</time></trkpt><trkpt lat="43.4338383" lon="11.350215"><ele>395.0</ele><time>2026-04-11T05:42:46.996Z</time></trkpt><trkpt lat="43.433915" lon="11.350125"><ele>392.4</ele><time>2026-04-11T05:42:47.996Z</time></trkpt><trkpt lat="43.4339917" lon="11.3500583"><ele>389.8</ele><time>2026-04-11T05:42:48.996Z</time></trkpt><trkpt lat="43.4340683" lon="11.349995"><ele>387.20000000000005</ele><time>2026-04-11T05:42:49.996Z</time></trkpt><trkpt lat="43.434135" lon="11.34993"><ele>384.6</ele><time>2026-04-11T05:42:50.997Z</time></trkpt><trkpt lat="43.43419" lon="11.3498583"><ele>382.0</ele><time>2026-04-11T05:42:51.997Z</time></trkpt><trkpt lat="43.434285" lon="11.349755"><ele>383.42857142857144</ele><time>2026-04-11T05:42:53.996Z</time></trkpt><trkpt lat="43.4343317" lon="11.34968"><ele>384.85714285714283</ele><time>2026-04-11T05:42:54.996Z</time></trkpt><trkpt lat="43.4343717" lon="11.3496"><ele>386.2857142857143</ele><time>2026-04-11T05:42:55.996Z</time></trkpt><trkpt lat="43.4344083" lon="11.34951"><ele>387.7142857142857</ele><time>2026-04-11T05:42:56.996Z</time></trkpt><trkpt lat="43.43444" lon="11.3494183"><ele>389.1428571428571</ele><time>2026-04-11T05:42:57.996Z</time></trkpt><trkpt lat="43.4344683" lon="11.349325"><ele>390.57142857142856</ele><time>2026-04-11T05:42:58.996Z</time></trkpt><trkpt lat="43.4345017" lon="11.3492267"><ele>392.0</ele><time>2026-04-11T05:42:59.996Z</time></trkpt><trkpt lat="43.4345317" lon="11.3491317"><ele>392.0</ele><time>2026-04-11T05:43:00.996Z</time></trkpt><trkpt lat="43.434565" lon="11.34904"><ele>392.0</ele><time>2026-04-11T05:43:01.996Z</time></trkpt><trkpt lat="43.4346017" lon="11.3489583"><ele>392.0</ele><time>2026-04-11T05:43:02.996Z</time></trkpt><trkpt lat="43.4346533" lon="11.3488867"><ele>392.0</ele><time>2026-04-11T05:43:03.996Z</time></trkpt><trkpt lat="43.434715" lon="11.3488317"><ele>392.0</ele><time>2026-04-11T05:43:04.997Z</time></trkpt><trkpt lat="43.4347783" lon="11.3487817"><ele>392.0</ele><time>2026-04-11T05:43:05.996Z</time></trkpt><trkpt lat="43.4348383" lon="11.348745"><ele>392.0</ele><time>2026-04-11T05:43:06.996Z</time></trkpt><trkpt lat="43.434905" lon="11.348705"><ele>390.40000000000003</ele><time>2026-04-11T05:43:07.996Z</time></trkpt><trkpt lat="43.4349917" lon="11.348685"><ele>388.8</ele><time>2026-04-11T05:43:09.996Z</time></trkpt><trkpt lat="43.4350683" lon="11.3487"><ele>387.2</ele><time>2026-04-11T05:43:11.996Z</time></trkpt><trkpt lat="43.435165" lon="11.3486733"><ele>385.6</ele><time>2026-04-11T05:43:13.996Z</time></trkpt><trkpt lat="43.4353017" lon="11.3486183"><ele>384.0</ele><time>2026-04-11T05:43:15.996Z</time></trkpt><trkpt lat="43.4353667" lon="11.3486083"><ele>384.0</ele><time>2026-04-11T05:43:16.996Z</time></trkpt><trkpt lat="43.4354417" lon="11.34859"><ele>384.0</ele><time>2026-04-11T05:43:17.996Z</time></trkpt><trkpt lat="43.4355067" lon="11.34857"><ele>384.0</ele><time>2026-04-11T05:43:18.996Z</time></trkpt><trkpt lat="43.4356283" lon="11.348535"><ele>384.0</ele><time>2026-04-11T05:43:20.996Z</time></trkpt><trkpt lat="43.4356933" lon="11.3485333"><ele>384.0</ele><time>2026-04-11T05:43:21.997Z</time></trkpt><trkpt lat="43.4357583" lon="11.3485367"><ele>384.0</ele><time>2026-04-11T05:43:22.996Z</time></trkpt><trkpt lat="43.43587" lon="11.3485567"><ele>383.8333333333333</ele><time>2026-04-11T05:43:24.996Z</time></trkpt><trkpt lat="43.4359683" lon="11.3486033"><ele>383.6666666666667</ele><time>2026-04-11T05:43:26.996Z</time></trkpt><trkpt lat="43.4360583" lon="11.3486617"><ele>383.5</ele><time>2026-04-11T05:43:28.996Z</time></trkpt><trkpt lat="43.4361367" lon="11.3487233"><ele>383.33333333333337</ele><time>2026-04-11T05:43:30.996Z</time></trkpt><trkpt lat="43.4362033" lon="11.3487783"><ele>383.1666666666667</ele><time>2026-04-11T05:43:32.996Z</time></trkpt><trkpt lat="43.4362717" lon="11.3488083"><ele>383.0</ele><time>2026-04-11T05:43:34.996Z</time></trkpt><trkpt lat="43.4363583" lon="11.3488683"><ele>381.0</ele><time>2026-04-11T05:43:36.996Z</time></trkpt><trkpt lat="43.436455" lon="11.348955"><ele>379.0</ele><time>2026-04-11T05:43:38.996Z</time></trkpt><trkpt lat="43.436545" lon="11.3490417"><ele>377.0</ele><time>2026-04-11T05:43:40.996Z</time></trkpt><trkpt lat="43.4366" lon="11.3490883"><ele>375.0</ele><time>2026-04-11T05:43:41.996Z</time></trkpt><trkpt lat="43.4367067" lon="11.3491683"><ele>373.0</ele><time>2026-04-11T05:43:43.996Z</time></trkpt><trkpt lat="43.4368233" lon="11.3491967"><ele>373.0</ele><time>2026-04-11T05:43:45.996Z</time></trkpt><trkpt lat="43.4369317" lon="11.3491733"><ele>373.0</ele><time>2026-04-11T05:43:47.996Z</time></trkpt><trkpt lat="43.437035" lon="11.3491033"><ele>373.0</ele><time>2026-04-11T05:43:49.996Z</time></trkpt><trkpt lat="43.4371017" lon="11.34898"><ele>373.0</ele><time>2026-04-11T05:43:51.996Z</time></trkpt><trkpt lat="43.4371467" lon="11.3488567"><ele>373.0</ele><time>2026-04-11T05:43:53.996Z</time></trkpt><trkpt lat="43.4372017" lon="11.3486967"><ele>373.66666666666663</ele><time>2026-04-11T05:43:55.996Z</time></trkpt><trkpt lat="43.437235" lon="11.3486117"><ele>374.3333333333333</ele><time>2026-04-11T05:43:56.996Z</time></trkpt><trkpt lat="43.4372767" lon="11.3485283"><ele>375.0</ele><time>2026-04-11T05:43:57.997Z</time></trkpt><trkpt lat="43.4373267" lon="11.3484533"><ele>375.6666666666667</ele><time>2026-04-11T05:43:58.996Z</time></trkpt><trkpt lat="43.4373733" lon="11.348395"><ele>376.33333333333337</ele><time>2026-04-11T05:43:59.996Z</time></trkpt><trkpt lat="43.4374283" lon="11.34835"><ele>377.0</ele><time>2026-04-11T05:44:00.996Z</time></trkpt><trkpt lat="43.4375367" lon="11.3482967"><ele>377.0</ele><time>2026-04-11T05:44:02.996Z</time></trkpt><trkpt lat="43.437625" lon="11.3482917"><ele>377.0</ele><time>2026-04-11T05:44:04.997Z</time></trkpt><trkpt lat="43.437705" lon="11.3483217"><ele>377.0</ele><time>2026-04-11T05:44:06.996Z</time></trkpt><trkpt lat="43.4377683" lon="11.3483867"><ele>377.0</ele><time>2026-04-11T05:44:08.996Z</time></trkpt><trkpt lat="43.4378183" lon="11.3484783"><ele>377.0</ele><time>2026-04-11T05:44:10.996Z</time></trkpt><trkpt lat="43.43787" lon="11.3485783"><ele>377.0</ele><time>2026-04-11T05:44:12.996Z</time></trkpt><trkpt lat="43.4379083" lon="11.34868"><ele>377.0</ele><time>2026-04-11T05:44:14.996Z</time></trkpt><trkpt lat="43.4379333" lon="11.3487917"><ele>377.0</ele><time>2026-04-11T05:44:16.997Z</time></trkpt><trkpt lat="43.437965" lon="11.34892"><ele>377.0</ele><time>2026-04-11T05:44:18.996Z</time></trkpt><trkpt lat="43.4379883" lon="11.3490333"><ele>377.0</ele><time>2026-04-11T05:44:20.996Z</time></trkpt><trkpt lat="43.4380217" lon="11.3491283"><ele>377.0</ele><time>2026-04-11T05:44:22.996Z</time></trkpt><trkpt lat="43.43805" lon="11.3492283"><ele>377.0</ele><time>2026-04-11T05:44:24.997Z</time></trkpt><trkpt lat="43.43809" lon="11.3493217"><ele>376.71428571428567</ele><time>2026-04-11T05:44:26.996Z</time></trkpt><trkpt lat="43.4381267" lon="11.3494"><ele>376.42857142857144</ele><time>2026-04-11T05:44:28.996Z</time></trkpt><trkpt lat="43.4381717" lon="11.3494833"><ele>376.1428571428571</ele><time>2026-04-11T05:44:30.997Z</time></trkpt><trkpt lat="43.438215" lon="11.3495583"><ele>375.85714285714283</ele><time>2026-04-11T05:44:32.996Z</time></trkpt><trkpt lat="43.4382683" lon="11.34964"><ele>375.57142857142856</ele><time>2026-04-11T05:44:34.997Z</time></trkpt><trkpt lat="43.4383217" lon="11.3497133"><ele>375.2857142857143</ele><time>2026-04-11T05:44:36.996Z</time></trkpt><trkpt lat="43.4383817" lon="11.3497683"><ele>375.0</ele><time>2026-04-11T05:44:38.996Z</time></trkpt><trkpt lat="43.4384367" lon="11.3498117"><ele>375.0</ele><time>2026-04-11T05:44:40.996Z</time></trkpt><trkpt lat="43.4385017" lon="11.3498567"><ele>375.0</ele><time>2026-04-11T05:44:42.996Z</time></trkpt><trkpt lat="43.4385683" lon="11.3498817"><ele>375.0</ele><time>2026-04-11T05:44:44.996Z</time></trkpt><trkpt lat="43.43864" lon="11.34991"><ele>375.0</ele><time>2026-04-11T05:44:46.996Z</time></trkpt><trkpt lat="43.4387567" lon="11.3499483"><ele>375.0</ele><time>2026-04-11T05:44:48.997Z</time></trkpt><trkpt lat="43.4388183" lon="11.34997"><ele>375.0</ele><time>2026-04-11T05:44:49.996Z</time></trkpt><trkpt lat="43.4388817" lon="11.3499933"><ele>375.3333333333333</ele><time>2026-04-11T05:44:50.996Z</time></trkpt><trkpt lat="43.4389433" lon="11.3500133"><ele>375.6666666666667</ele><time>2026-04-11T05:44:51.996Z</time></trkpt><trkpt lat="43.4390083" lon="11.3500367"><ele>376.0</ele><time>2026-04-11T05:44:52.996Z</time></trkpt><trkpt lat="43.4391233" lon="11.350065"><ele>376.33333333333337</ele><time>2026-04-11T05:44:54.996Z</time></trkpt><trkpt lat="43.4391933" lon="11.35009"><ele>376.6666666666667</ele><time>2026-04-11T05:44:55.996Z</time></trkpt><trkpt lat="43.4392683" lon="11.35012"><ele>377.0</ele><time>2026-04-11T05:44:56.996Z</time></trkpt><trkpt lat="43.43935" lon="11.350155"><ele>377.0</ele><time>2026-04-11T05:44:57.996Z</time></trkpt><trkpt lat="43.4394333" lon="11.350195"><ele>377.0</ele><time>2026-04-11T05:44:58.996Z</time></trkpt><trkpt lat="43.43952" lon="11.3502367"><ele>377.0</ele><time>2026-04-11T05:44:59.996Z</time></trkpt><trkpt lat="43.4396133" lon="11.35029"><ele>377.0</ele><time>2026-04-11T05:45:00.996Z</time></trkpt><trkpt lat="43.4397033" lon="11.3503367"><ele>377.0</ele><time>2026-04-11T05:45:01.996Z</time></trkpt><trkpt lat="43.4397917" lon="11.3503967"><ele>376.8</ele><time>2026-04-11T05:45:02.996Z</time></trkpt><trkpt lat="43.439885" lon="11.3504667"><ele>376.6</ele><time>2026-04-11T05:45:03.996Z</time></trkpt><trkpt lat="43.4399767" lon="11.350545"><ele>376.40000000000003</ele><time>2026-04-11T05:45:04.997Z</time></trkpt><trkpt lat="43.4400617" lon="11.3506267"><ele>376.20000000000005</ele><time>2026-04-11T05:45:05.996Z</time></trkpt><trkpt lat="43.4401383" lon="11.350705"><ele>376.0</ele><time>2026-04-11T05:45:06.996Z</time></trkpt><trkpt lat="43.4402133" lon="11.3507933"><ele>375.5</ele><time>2026-04-11T05:45:07.996Z</time></trkpt><trkpt lat="43.4402833" lon="11.350885"><ele>375.0</ele><time>2026-04-11T05:45:08.996Z</time></trkpt><trkpt lat="43.44034" lon="11.3509817"><ele>374.5</ele><time>2026-04-11T05:45:09.996Z</time></trkpt><trkpt lat="43.440385" lon="11.3510767"><ele>374.0</ele><time>2026-04-11T05:45:10.996Z</time></trkpt><trkpt lat="43.44042" lon="11.3511817"><ele>373.5</ele><time>2026-04-11T05:45:11.997Z</time></trkpt><trkpt lat="43.440435" lon="11.35128"><ele>373.0</ele><time>2026-04-11T05:45:12.996Z</time></trkpt><trkpt lat="43.4404517" lon="11.351385"><ele>373.0</ele><time>2026-04-11T05:45:13.996Z</time></trkpt><trkpt lat="43.440465" lon="11.3514883"><ele>373.0</ele><time>2026-04-11T05:45:14.997Z</time></trkpt><trkpt lat="43.4404967" lon="11.3515883"><ele>373.0</ele><time>2026-04-11T05:45:15.996Z</time></trkpt><trkpt lat="43.4405183" lon="11.3516833"><ele>373.0</ele><time>2026-04-11T05:45:16.996Z</time></trkpt><trkpt lat="43.4405367" lon="11.3517733"><ele>373.0</ele><time>2026-04-11T05:45:17.996Z</time></trkpt><trkpt lat="43.44056" lon="11.351935"><ele>373.0</ele><time>2026-04-11T05:45:19.996Z</time></trkpt><trkpt lat="43.44057" lon="11.3520267"><ele>373.0</ele><time>2026-04-11T05:45:20.996Z</time></trkpt><trkpt lat="43.4405917" lon="11.3521083"><ele>373.0</ele><time>2026-04-11T05:45:21.996Z</time></trkpt><trkpt lat="43.4406133" lon="11.3521933"><ele>373.0</ele><time>2026-04-11T05:45:22.996Z</time></trkpt><trkpt lat="43.4406333" lon="11.3522833"><ele>373.0</ele><time>2026-04-11T05:45:23.996Z</time></trkpt><trkpt lat="43.4406583" lon="11.3523767"><ele>373.0</ele><time>2026-04-11T05:45:24.996Z</time></trkpt><trkpt lat="43.44068" lon="11.3524733"><ele>373.0</ele><time>2026-04-11T05:45:25.997Z</time></trkpt><trkpt lat="43.4406883" lon="11.3525767"><ele>373.0</ele><time>2026-04-11T05:45:26.996Z</time></trkpt><trkpt lat="43.4407" lon="11.3526783"><ele>372.0</ele><time>2026-04-11T05:45:27.997Z</time></trkpt><trkpt lat="43.4407117" lon="11.3527917"><ele>371.0</ele><time>2026-04-11T05:45:28.996Z</time></trkpt><trkpt lat="43.4407283" lon="11.35289"><ele>370.0</ele><time>2026-04-11T05:45:29.996Z</time></trkpt><trkpt lat="43.440745" lon="11.35298"><ele>369.0</ele><time>2026-04-11T05:45:30.996Z</time></trkpt><trkpt lat="43.4407733" lon="11.3531483"><ele>368.0</ele><time>2026-04-11T05:45:32.997Z</time></trkpt><trkpt lat="43.4407817" lon="11.353235"><ele>367.0</ele><time>2026-04-11T05:45:33.996Z</time></trkpt><trkpt lat="43.4407967" lon="11.3533217"><ele>366.0</ele><time>2026-04-11T05:45:34.997Z</time></trkpt><trkpt lat="43.44081" lon="11.3534083"><ele>365.0</ele><time>2026-04-11T05:45:35.996Z</time></trkpt><trkpt lat="43.4408233" lon="11.35358"><ele>364.0</ele><time>2026-04-11T05:45:37.996Z</time></trkpt><trkpt lat="43.4408333" lon="11.3536667"><ele>363.0</ele><time>2026-04-11T05:45:38.996Z</time></trkpt><trkpt lat="43.44084" lon="11.353755"><ele>362.0</ele><time>2026-04-11T05:45:39.996Z</time></trkpt><trkpt lat="43.4408433" lon="11.35389"><ele>361.0</ele><time>2026-04-11T05:45:41.996Z</time></trkpt><trkpt lat="43.4408583" lon="11.3540083"><ele>359.8</ele><time>2026-04-11T05:45:43.996Z</time></trkpt><trkpt lat="43.440885" lon="11.3541267"><ele>358.6</ele><time>2026-04-11T05:45:45.996Z</time></trkpt><trkpt lat="43.4409167" lon="11.35428"><ele>357.4</ele><time>2026-04-11T05:45:47.996Z</time></trkpt><trkpt lat="43.440935" lon="11.3543667"><ele>356.2</ele><time>2026-04-11T05:45:48.997Z</time></trkpt><trkpt lat="43.4409683" lon="11.3545067"><ele>355.0</ele><time>2026-04-11T05:45:50.996Z</time></trkpt><trkpt lat="43.4410017" lon="11.354625"><ele>354.66666666666663</ele><time>2026-04-11T05:45:52.997Z</time></trkpt><trkpt lat="43.4410183" lon="11.3547517"><ele>354.3333333333333</ele><time>2026-04-11T05:45:54.996Z</time></trkpt><trkpt lat="43.4410417" lon="11.3548733"><ele>354.0</ele><time>2026-04-11T05:45:56.996Z</time></trkpt><trkpt lat="43.4410617" lon="11.3549883"><ele>353.6666666666667</ele><time>2026-04-11T05:45:58.996Z</time></trkpt><trkpt lat="43.4410833" lon="11.3550833"><ele>353.33333333333337</ele><time>2026-04-11T05:46:00.997Z</time></trkpt><trkpt lat="43.4411017" lon="11.3551783"><ele>353.0</ele><time>2026-04-11T05:46:02.996Z</time></trkpt><trkpt lat="43.4411133" lon="11.3552717"><ele>353.0</ele><time>2026-04-11T05:46:04.996Z</time></trkpt><trkpt lat="43.44112" lon="11.3553683"><ele>353.0</ele><time>2026-04-11T05:46:06.996Z</time></trkpt><trkpt lat="43.4411017" lon="11.3554683"><ele>353.0</ele><time>2026-04-11T05:46:08.996Z</time></trkpt><trkpt lat="43.4410833" lon="11.3555933"><ele>353.0</ele><time>2026-04-11T05:46:10.996Z</time></trkpt><trkpt lat="43.4410667" lon="11.35572"><ele>353.0</ele><time>2026-04-11T05:46:12.996Z</time></trkpt><trkpt lat="43.4411667" lon="11.3556967"><ele>353.0</ele><time>2026-04-11T05:46:15.996Z</time></trkpt><trkpt lat="43.4412717" lon="11.35566"><ele>353.4</ele><time>2026-04-11T05:46:17.997Z</time></trkpt><trkpt lat="43.4413383" lon="11.3556333"><ele>353.79999999999995</ele><time>2026-04-11T05:46:18.996Z</time></trkpt><trkpt lat="43.4413933" lon="11.3555883"><ele>354.2</ele><time>2026-04-11T05:46:19.996Z</time></trkpt><trkpt lat="43.44147" lon="11.3554967"><ele>354.6</ele><time>2026-04-11T05:46:21.996Z</time></trkpt><trkpt lat="43.4415783" lon="11.3554"><ele>355.0</ele><time>2026-04-11T05:46:23.997Z</time></trkpt><trkpt lat="43.4416533" lon="11.3553417"><ele>355.0</ele><time>2026-04-11T05:46:24.996Z</time></trkpt><trkpt lat="43.4417617" lon="11.35528"><ele>355.0</ele><time>2026-04-11T05:46:26.997Z</time></trkpt><trkpt lat="43.4418983" lon="11.35524"><ele>355.0</ele><time>2026-04-11T05:46:28.997Z</time></trkpt><trkpt lat="43.4419783" lon="11.35522"><ele>355.0</ele><time>2026-04-11T05:46:29.996Z</time></trkpt><trkpt lat="43.4420533" lon="11.3552033"><ele>355.0</ele><time>2026-04-11T05:46:30.997Z</time></trkpt><trkpt lat="43.4421233" lon="11.3551883"><ele>351.2</ele><time>2026-04-11T05:46:31.996Z</time></trkpt><trkpt lat="43.4422" lon="11.35517"><ele>347.4</ele><time>2026-04-11T05:46:32.996Z</time></trkpt><trkpt lat="43.4422733" lon="11.3551267"><ele>343.6</ele><time>2026-04-11T05:46:33.996Z</time></trkpt><trkpt lat="43.442355" lon="11.3550667"><ele>339.8</ele><time>2026-04-11T05:46:34.996Z</time></trkpt><trkpt lat="43.4424367" lon="11.354995"><ele>336.0</ele><time>2026-04-11T05:46:35.996Z</time></trkpt><trkpt lat="43.4425233" lon="11.3549133"><ele>336.0</ele><time>2026-04-11T05:46:36.996Z</time></trkpt><trkpt lat="43.4426067" lon="11.3548367"><ele>336.0</ele><time>2026-04-11T05:46:37.996Z</time></trkpt><trkpt lat="43.4426933" lon="11.3547583"><ele>336.0</ele><time>2026-04-11T05:46:38.996Z</time></trkpt><trkpt lat="43.4427783" lon="11.3546833"><ele>336.0</ele><time>2026-04-11T05:46:39.996Z</time></trkpt><trkpt lat="43.4428633" lon="11.3546233"><ele>336.0</ele><time>2026-04-11T05:46:40.996Z</time></trkpt><trkpt lat="43.442955" lon="11.35456"><ele>335.5</ele><time>2026-04-11T05:46:41.996Z</time></trkpt><trkpt lat="43.443055" lon="11.3544983"><ele>335.0</ele><time>2026-04-11T05:46:42.996Z</time></trkpt><trkpt lat="43.4431567" lon="11.35443"><ele>334.5</ele><time>2026-04-11T05:46:43.997Z</time></trkpt><trkpt lat="43.44326" lon="11.354365"><ele>334.0</ele><time>2026-04-11T05:46:44.996Z</time></trkpt><trkpt lat="43.4433717" lon="11.3542817"><ele>334.0</ele><time>2026-04-11T05:46:45.996Z</time></trkpt><trkpt lat="43.443475" lon="11.3542017"><ele>334.0</ele><time>2026-04-11T05:46:46.996Z</time></trkpt><trkpt lat="43.44358" lon="11.3541267"><ele>334.0</ele><time>2026-04-11T05:46:47.996Z</time></trkpt><trkpt lat="43.4436733" lon="11.35406"><ele>334.0</ele><time>2026-04-11T05:46:48.996Z</time></trkpt><trkpt lat="43.4437583" lon="11.3539983"><ele>334.0</ele><time>2026-04-11T05:46:49.996Z</time></trkpt><trkpt lat="43.4438383" lon="11.3539467"><ele>335.16666666666663</ele><time>2026-04-11T05:46:50.996Z</time></trkpt><trkpt lat="43.4439183" lon="11.35389"><ele>336.3333333333333</ele><time>2026-04-11T05:46:51.996Z</time></trkpt><trkpt lat="43.443995" lon="11.353845"><ele>337.5</ele><time>2026-04-11T05:46:52.996Z</time></trkpt><trkpt lat="43.4440717" lon="11.3538"><ele>338.6666666666667</ele><time>2026-04-11T05:46:53.996Z</time></trkpt><trkpt lat="43.4441533" lon="11.3537617"><ele>339.83333333333337</ele><time>2026-04-11T05:46:54.996Z</time></trkpt><trkpt lat="43.4442283" lon="11.3537417"><ele>341.0</ele><time>2026-04-11T05:46:55.996Z</time></trkpt><trkpt lat="43.4442983" lon="11.3537167"><ele>341.0</ele><time>2026-04-11T05:46:56.996Z</time></trkpt><trkpt lat="43.4443667" lon="11.3536917"><ele>341.0</ele><time>2026-04-11T05:46:57.996Z</time></trkpt><trkpt lat="43.444435" lon="11.3536667"><ele>341.0</ele><time>2026-04-11T05:46:58.996Z</time></trkpt><trkpt lat="43.4445467" lon="11.3536433"><ele>341.0</ele><time>2026-04-11T05:47:00.996Z</time></trkpt><trkpt lat="43.444635" lon="11.3536183"><ele>341.0</ele><time>2026-04-11T05:47:02.996Z</time></trkpt><trkpt lat="43.4446983" lon="11.353635"><ele>341.0</ele><time>2026-04-11T05:47:03.997Z</time></trkpt><trkpt lat="43.4447933" lon="11.353655"><ele>337.75</ele><time>2026-04-11T05:47:05.996Z</time></trkpt><trkpt lat="43.4448617" lon="11.35381"><ele>334.5</ele><time>2026-04-11T05:47:07.996Z</time></trkpt><trkpt lat="43.4449067" lon="11.3539517"><ele>331.25</ele><time>2026-04-11T05:47:09.996Z</time></trkpt><trkpt lat="43.44493" lon="11.3540983"><ele>328.0</ele><time>2026-04-11T05:47:11.996Z</time></trkpt><trkpt lat="43.4449733" lon="11.3542667"><ele>328.0</ele><time>2026-04-11T05:47:13.996Z</time></trkpt><trkpt lat="43.44503" lon="11.354415"><ele>328.0</ele><time>2026-04-11T05:47:15.996Z</time></trkpt><trkpt lat="43.4450733" lon="11.3544917"><ele>328.0</ele><time>2026-04-11T05:47:16.996Z</time></trkpt><trkpt lat="43.4451617" lon="11.3546033"><ele>328.0</ele><time>2026-04-11T05:47:18.996Z</time></trkpt><trkpt lat="43.4452167" lon="11.3546633"><ele>328.0</ele><time>2026-04-11T05:47:19.996Z</time></trkpt><trkpt lat="43.4452767" lon="11.354735"><ele>327.66666666666663</ele><time>2026-04-11T05:47:20.996Z</time></trkpt><trkpt lat="43.4453317" lon="11.3547883"><ele>327.3333333333333</ele><time>2026-04-11T05:47:21.996Z</time></trkpt><trkpt lat="43.4453883" lon="11.3548383"><ele>327.0</ele><time>2026-04-11T05:47:22.996Z</time></trkpt><trkpt lat="43.445485" lon="11.3549217"><ele>326.6666666666667</ele><time>2026-04-11T05:47:24.996Z</time></trkpt><trkpt lat="43.4455717" lon="11.3549783"><ele>326.33333333333337</ele><time>2026-04-11T05:47:26.997Z</time></trkpt><trkpt lat="43.4456633" lon="11.3550133"><ele>326.0</ele><time>2026-04-11T05:47:28.996Z</time></trkpt><trkpt lat="43.4457567" lon="11.355045"><ele>327.0</ele><time>2026-04-11T05:47:30.997Z</time></trkpt><trkpt lat="43.44584" lon="11.35507"><ele>328.0</ele><time>2026-04-11T05:47:32.996Z</time></trkpt><trkpt lat="43.445925" lon="11.3551083"><ele>329.0</ele><time>2026-04-11T05:47:34.996Z</time></trkpt><trkpt lat="43.4459983" lon="11.355145"><ele>330.0</ele><time>2026-04-11T05:47:36.996Z</time></trkpt><trkpt lat="43.4460817" lon="11.35517"><ele>331.0</ele><time>2026-04-11T05:47:38.996Z</time></trkpt><trkpt lat="43.4461667" lon="11.3552"><ele>332.0</ele><time>2026-04-11T05:47:40.996Z</time></trkpt><trkpt lat="43.44626" lon="11.3552233"><ele>332.83333333333337</ele><time>2026-04-11T05:47:42.997Z</time></trkpt><trkpt lat="43.446345" lon="11.35523"><ele>333.6666666666667</ele><time>2026-04-11T05:47:44.996Z</time></trkpt><trkpt lat="43.4464433" lon="11.3552333"><ele>334.5</ele><time>2026-04-11T05:47:46.996Z</time></trkpt><trkpt lat="43.4465367" lon="11.3552233"><ele>335.3333333333333</ele><time>2026-04-11T05:47:48.996Z</time></trkpt><trkpt lat="43.4466183" lon="11.355215"><ele>336.16666666666663</ele><time>2026-04-11T05:47:50.996Z</time></trkpt><trkpt lat="43.4467017" lon="11.355225"><ele>337.0</ele><time>2026-04-11T05:47:52.996Z</time></trkpt><trkpt lat="43.4467917" lon="11.3552367"><ele>337.0</ele><time>2026-04-11T05:47:54.996Z</time></trkpt><trkpt lat="43.44688" lon="11.35523"><ele>337.0</ele><time>2026-04-11T05:47:56.996Z</time></trkpt><trkpt lat="43.4469833" lon="11.3552533"><ele>337.0</ele><time>2026-04-11T05:47:58.996Z</time></trkpt><trkpt lat="43.44706" lon="11.3552667"><ele>337.0</ele><time>2026-04-11T05:48:00.996Z</time></trkpt><trkpt lat="43.44713" lon="11.3552817"><ele>337.0</ele><time>2026-04-11T05:48:02.996Z</time></trkpt><trkpt lat="43.4471983" lon="11.355315"><ele>337.0</ele><time>2026-04-11T05:48:04.996Z</time></trkpt><trkpt lat="43.44727" lon="11.3553367"><ele>335.8</ele><time>2026-04-11T05:48:06.996Z</time></trkpt><trkpt lat="43.4473533" lon="11.3553617"><ele>334.6</ele><time>2026-04-11T05:48:08.996Z</time></trkpt><trkpt lat="43.447445" lon="11.35541"><ele>333.40000000000003</ele><time>2026-04-11T05:48:10.996Z</time></trkpt><trkpt lat="43.44754" lon="11.3554667"><ele>332.20000000000005</ele><time>2026-04-11T05:48:12.996Z</time></trkpt><trkpt lat="43.4476183" lon="11.3555083"><ele>331.0</ele><time>2026-04-11T05:48:14.996Z</time></trkpt><trkpt lat="43.4477117" lon="11.35554"><ele>331.0</ele><time>2026-04-11T05:48:16.996Z</time></trkpt><trkpt lat="43.4478017" lon="11.3556017"><ele>331.0</ele><time>2026-04-11T05:48:18.996Z</time></trkpt><trkpt lat="43.4479083" lon="11.35567"><ele>331.0</ele><time>2026-04-11T05:48:20.997Z</time></trkpt><trkpt lat="43.447965" lon="11.3557117"><ele>331.0</ele><time>2026-04-11T05:48:21.996Z</time></trkpt><trkpt lat="43.4480833" lon="11.355785"><ele>331.0</ele><time>2026-04-11T05:48:23.996Z</time></trkpt><trkpt lat="43.4481967" lon="11.3558717"><ele>332.0</ele><time>2026-04-11T05:48:25.996Z</time></trkpt><trkpt lat="43.4482583" lon="11.355905"><ele>333.0</ele><time>2026-04-11T05:48:26.996Z</time></trkpt><trkpt lat="43.4483767" lon="11.3559683"><ele>334.0</ele><time>2026-04-11T05:48:28.996Z</time></trkpt><trkpt lat="43.448485" lon="11.35601"><ele>335.0</ele><time>2026-04-11T05:48:30.997Z</time></trkpt><trkpt lat="43.4485767" lon="11.35605"><ele>336.0</ele><time>2026-04-11T05:48:32.996Z</time></trkpt><trkpt lat="43.4486667" lon="11.3560833"><ele>336.0</ele><time>2026-04-11T05:48:34.996Z</time></trkpt><trkpt lat="43.4487367" lon="11.3561"><ele>336.0</ele><time>2026-04-11T05:48:36.996Z</time></trkpt><trkpt lat="43.44883" lon="11.3561483"><ele>336.0</ele><time>2026-04-11T05:48:39.996Z</time></trkpt><trkpt lat="43.4489083" lon="11.3562017"><ele>336.0</ele><time>2026-04-11T05:48:41.996Z</time></trkpt><trkpt lat="43.4489783" lon="11.356245"><ele>336.0</ele><time>2026-04-11T05:48:43.997Z</time></trkpt><trkpt lat="43.44904" lon="11.356275"><ele>336.0</ele><time>2026-04-11T05:48:45.996Z</time></trkpt><trkpt lat="43.4491217" lon="11.35633"><ele>335.3333333333333</ele><time>2026-04-11T05:48:48.996Z</time></trkpt><trkpt lat="43.4492117" lon="11.356385"><ele>334.6666666666667</ele><time>2026-04-11T05:48:51.996Z</time></trkpt><trkpt lat="43.4492817" lon="11.35642"><ele>334.0</ele><time>2026-04-11T05:48:53.996Z</time></trkpt><trkpt lat="43.4493483" lon="11.3564517"><ele>333.33333333333337</ele><time>2026-04-11T05:48:55.996Z</time></trkpt><trkpt lat="43.44941" lon="11.356475"><ele>332.6666666666667</ele><time>2026-04-11T05:48:57.996Z</time></trkpt><trkpt lat="43.4494767" lon="11.3564983"><ele>332.0</ele><time>2026-04-11T05:48:59.997Z</time></trkpt><trkpt lat="43.4495633" lon="11.356525"><ele>333.1428571428571</ele><time>2026-04-11T05:49:02.996Z</time></trkpt><trkpt lat="43.44963" lon="11.3565433"><ele>334.28571428571433</ele><time>2026-04-11T05:49:04.997Z</time></trkpt><trkpt lat="43.4496933" lon="11.3565667"><ele>335.42857142857144</ele><time>2026-04-11T05:49:06.996Z</time></trkpt><trkpt lat="43.4497783" lon="11.3565883"><ele>336.57142857142856</ele><time>2026-04-11T05:49:09.996Z</time></trkpt><trkpt lat="43.4498517" lon="11.3566"><ele>337.71428571428567</ele><time>2026-04-11T05:49:13.996Z</time></trkpt><trkpt lat="43.4499233" lon="11.3566033"><ele>338.8571428571429</ele><time>2026-04-11T05:49:16.996Z</time></trkpt><trkpt lat="43.450005" lon="11.356615"><ele>340.0</ele><time>2026-04-11T05:49:20.996Z</time></trkpt><trkpt lat="43.4500833" lon="11.3566"><ele>340.0</ele><time>2026-04-11T05:49:23.996Z</time></trkpt><trkpt lat="43.4501833" lon="11.3565317"><ele>340.0</ele><time>2026-04-11T05:49:26.997Z</time></trkpt><trkpt lat="43.450265" lon="11.356465"><ele>340.0</ele><time>2026-04-11T05:49:28.996Z</time></trkpt><trkpt lat="43.4503267" lon="11.3564167"><ele>340.0</ele><time>2026-04-11T05:49:30.996Z</time></trkpt><trkpt lat="43.450405" lon="11.35635"><ele>340.0</ele><time>2026-04-11T05:49:33.997Z</time></trkpt><trkpt lat="43.4504683" lon="11.3562767"><ele>341.4</ele><time>2026-04-11T05:49:36.996Z</time></trkpt><trkpt lat="43.4505483" lon="11.3561883"><ele>342.8</ele><time>2026-04-11T05:49:41.996Z</time></trkpt><trkpt lat="43.4506217" lon="11.35612"><ele>344.20000000000005</ele><time>2026-04-11T05:49:43.996Z</time></trkpt><trkpt lat="43.4507083" lon="11.3560383"><ele>345.6</ele><time>2026-04-11T05:49:45.996Z</time></trkpt><trkpt lat="43.4507983" lon="11.3559267"><ele>347.0</ele><time>2026-04-11T05:49:47.996Z</time></trkpt><trkpt lat="43.4508917" lon="11.3558283"><ele>347.0</ele><time>2026-04-11T05:49:49.996Z</time></trkpt><trkpt lat="43.4509467" lon="11.3557783"><ele>347.0</ele><time>2026-04-11T05:49:50.996Z</time></trkpt><trkpt lat="43.4510033" lon="11.35573"><ele>347.0</ele><time>2026-04-11T05:49:51.996Z</time></trkpt><trkpt lat="43.451065" lon="11.3556817"><ele>347.0</ele><time>2026-04-11T05:49:52.996Z</time></trkpt><trkpt lat="43.4511317" lon="11.3556367"><ele>347.0</ele><time>2026-04-11T05:49:53.996Z</time></trkpt><trkpt lat="43.4512" lon="11.355595"><ele>347.0</ele><time>2026-04-11T05:49:54.997Z</time></trkpt><trkpt lat="43.451265" lon="11.3555517"><ele>347.0</ele><time>2026-04-11T05:49:55.996Z</time></trkpt><trkpt lat="43.45133" lon="11.355505"><ele>347.33333333333337</ele><time>2026-04-11T05:49:56.996Z</time></trkpt><trkpt lat="43.4513917" lon="11.3554683"><ele>347.6666666666667</ele><time>2026-04-11T05:49:57.996Z</time></trkpt><trkpt lat="43.4514567" lon="11.3554333"><ele>348.0</ele><time>2026-04-11T05:49:58.996Z</time></trkpt><trkpt lat="43.4515217" lon="11.355395"><ele>348.3333333333333</ele><time>2026-04-11T05:49:59.996Z</time></trkpt><trkpt lat="43.451585" lon="11.3553667"><ele>348.66666666666663</ele><time>2026-04-11T05:50:00.996Z</time></trkpt><trkpt lat="43.4516983" lon="11.3553217"><ele>349.0</ele><time>2026-04-11T05:50:02.996Z</time></trkpt><trkpt lat="43.4517983" lon="11.3553067"><ele>349.0</ele><time>2026-04-11T05:50:04.996Z</time></trkpt><trkpt lat="43.4519017" lon="11.35528"><ele>349.0</ele><time>2026-04-11T05:50:06.996Z</time></trkpt><trkpt lat="43.4520017" lon="11.3552517"><ele>349.0</ele><time>2026-04-11T05:50:08.996Z</time></trkpt><trkpt lat="43.4521083" lon="11.3552067"><ele>349.0</ele><time>2026-04-11T05:50:10.996Z</time></trkpt><trkpt lat="43.452225" lon="11.3551517"><ele>349.0</ele><time>2026-04-11T05:50:12.996Z</time></trkpt><trkpt lat="43.4522917" lon="11.3551183"><ele>347.6</ele><time>2026-04-11T05:50:13.997Z</time></trkpt><trkpt lat="43.4524033" lon="11.3550567"><ele>346.2</ele><time>2026-04-11T05:50:15.996Z</time></trkpt><trkpt lat="43.45246" lon="11.3550167"><ele>344.8</ele><time>2026-04-11T05:50:16.996Z</time></trkpt><trkpt lat="43.45256" lon="11.35496"><ele>343.40000000000003</ele><time>2026-04-11T05:50:18.996Z</time></trkpt><trkpt lat="43.45267" lon="11.354895"><ele>342.0</ele><time>2026-04-11T05:50:20.996Z</time></trkpt><trkpt lat="43.452775" lon="11.3548383"><ele>342.0</ele><time>2026-04-11T05:50:22.997Z</time></trkpt><trkpt lat="43.4528783" lon="11.35478"><ele>342.0</ele><time>2026-04-11T05:50:24.996Z</time></trkpt><trkpt lat="43.45299" lon="11.3547117"><ele>342.0</ele><time>2026-04-11T05:50:26.997Z</time></trkpt><trkpt lat="43.453105" lon="11.3546433"><ele>342.0</ele><time>2026-04-11T05:50:28.996Z</time></trkpt><trkpt lat="43.4532167" lon="11.35457"><ele>342.40000000000003</ele><time>2026-04-11T05:50:30.996Z</time></trkpt><trkpt lat="43.4533133" lon="11.3545033"><ele>342.8</ele><time>2026-04-11T05:50:32.996Z</time></trkpt><trkpt lat="43.453385" lon="11.3544417"><ele>343.2</ele><time>2026-04-11T05:50:34.997Z</time></trkpt><trkpt lat="43.4534467" lon="11.354385"><ele>343.6</ele><time>2026-04-11T05:50:36.997Z</time></trkpt><trkpt lat="43.4535383" lon="11.3543433"><ele>344.0</ele><time>2026-04-11T05:50:38.996Z</time></trkpt><trkpt lat="43.4536283" lon="11.3543083"><ele>344.0</ele><time>2026-04-11T05:50:40.996Z</time></trkpt><trkpt lat="43.4537217" lon="11.354265"><ele>344.0</ele><time>2026-04-11T05:50:42.996Z</time></trkpt><trkpt lat="43.4537967" lon="11.3542267"><ele>344.0</ele><time>2026-04-11T05:50:44.996Z</time></trkpt><trkpt lat="43.4538817" lon="11.3542233"><ele>344.0</ele><time>2026-04-11T05:50:46.996Z</time></trkpt><trkpt lat="43.453965" lon="11.3542383"><ele>344.0</ele><time>2026-04-11T05:50:48.996Z</time></trkpt><trkpt lat="43.4540483" lon="11.354235"><ele>344.0</ele><time>2026-04-11T05:50:50.996Z</time></trkpt><trkpt lat="43.4541117" lon="11.3542267"><ele>342.6666666666667</ele><time>2026-04-11T05:50:51.996Z</time></trkpt><trkpt lat="43.4542067" lon="11.3541917"><ele>341.33333333333337</ele><time>2026-04-11T05:50:53.996Z</time></trkpt><trkpt lat="43.4542867" lon="11.3541767"><ele>340.0</ele><time>2026-04-11T05:50:55.996Z</time></trkpt><trkpt lat="43.4543767" lon="11.3541667"><ele>338.6666666666667</ele><time>2026-04-11T05:50:58.996Z</time></trkpt><trkpt lat="43.45445" lon="11.3541633"><ele>337.3333333333333</ele><time>2026-04-11T05:51:01.996Z</time></trkpt><trkpt lat="43.4545167" lon="11.3541567"><ele>336.0</ele><time>2026-04-11T05:51:04.996Z</time></trkpt><trkpt lat="43.4546" lon="11.3541483"><ele>337.1666666666667</ele><time>2026-04-11T05:51:07.996Z</time></trkpt><trkpt lat="43.454685" lon="11.354125"><ele>338.3333333333333</ele><time>2026-04-11T05:51:10.996Z</time></trkpt><trkpt lat="43.454745" lon="11.3540933"><ele>339.5</ele><time>2026-04-11T05:51:12.997Z</time></trkpt><trkpt lat="43.454835" lon="11.3540617"><ele>340.66666666666663</ele><time>2026-04-11T05:51:15.996Z</time></trkpt><trkpt lat="43.4549267" lon="11.3540483"><ele>341.8333333333333</ele><time>2026-04-11T05:51:18.996Z</time></trkpt><trkpt lat="43.455005" lon="11.3540133"><ele>343.0</ele><time>2026-04-11T05:51:21.997Z</time></trkpt><trkpt lat="43.455085" lon="11.3539783"><ele>343.0</ele><time>2026-04-11T05:51:24.996Z</time></trkpt><trkpt lat="43.45516" lon="11.3539433"><ele>343.0</ele><time>2026-04-11T05:51:27.996Z</time></trkpt><trkpt lat="43.4552483" lon="11.3539067"><ele>343.0</ele><time>2026-04-11T05:51:30.996Z</time></trkpt><trkpt lat="43.455325" lon="11.3538883"><ele>343.0</ele><time>2026-04-11T05:51:32.996Z</time></trkpt><trkpt lat="43.4554267" lon="11.3539033"><ele>343.0</ele><time>2026-04-11T05:51:34.996Z</time></trkpt><trkpt lat="43.4555433" lon="11.3539383"><ele>343.4</ele><time>2026-04-11T05:51:36.996Z</time></trkpt><trkpt lat="43.4556583" lon="11.3539817"><ele>343.79999999999995</ele><time>2026-04-11T05:51:38.997Z</time></trkpt><trkpt lat="43.4557267" lon="11.3540067"><ele>344.2</ele><time>2026-04-11T05:51:39.996Z</time></trkpt><trkpt lat="43.4558083" lon="11.354035"><ele>344.6</ele><time>2026-04-11T05:51:40.996Z</time></trkpt><trkpt lat="43.4558917" lon="11.35406"><ele>345.0</ele><time>2026-04-11T05:51:41.997Z</time></trkpt><trkpt lat="43.4559833" lon="11.354085"><ele>345.0</ele><time>2026-04-11T05:51:42.996Z</time></trkpt><trkpt lat="43.4560667" lon="11.3540933"><ele>345.0</ele><time>2026-04-11T05:51:43.996Z</time></trkpt><trkpt lat="43.4561333" lon="11.3541"><ele>345.0</ele><time>2026-04-11T05:51:44.997Z</time></trkpt><trkpt lat="43.456255" lon="11.3540783"><ele>345.0</ele><time>2026-04-11T05:51:46.996Z</time></trkpt><trkpt lat="43.456375" lon="11.35405"><ele>345.0</ele><time>2026-04-11T05:51:48.996Z</time></trkpt><trkpt lat="43.456485" lon="11.3540467"><ele>345.2</ele><time>2026-04-11T05:51:50.996Z</time></trkpt><trkpt lat="43.4565883" lon="11.3540583"><ele>345.4</ele><time>2026-04-11T05:51:52.996Z</time></trkpt><trkpt lat="43.456695" lon="11.3540617"><ele>345.6</ele><time>2026-04-11T05:51:54.996Z</time></trkpt><trkpt lat="43.456795" lon="11.3540717"><ele>345.8</ele><time>2026-04-11T05:51:56.996Z</time></trkpt><trkpt lat="43.456875" lon="11.3540683"><ele>346.0</ele><time>2026-04-11T05:51:58.996Z</time></trkpt><trkpt lat="43.4569783" lon="11.354105"><ele>346.0</ele><time>2026-04-11T05:52:00.996Z</time></trkpt><trkpt lat="43.4570933" lon="11.3541617"><ele>346.0</ele><time>2026-04-11T05:52:02.997Z</time></trkpt><trkpt lat="43.4571517" lon="11.3541967"><ele>346.0</ele><time>2026-04-11T05:52:03.996Z</time></trkpt><trkpt lat="43.4572633" lon="11.3542617"><ele>346.0</ele><time>2026-04-11T05:52:05.996Z</time></trkpt><trkpt lat="43.457365" lon="11.3543217"><ele>346.0</ele><time>2026-04-11T05:52:07.996Z</time></trkpt><trkpt lat="43.4574467" lon="11.35437"><ele>347.5</ele><time>2026-04-11T05:52:09.996Z</time></trkpt><trkpt lat="43.45753" lon="11.35439"><ele>349.0</ele><time>2026-04-11T05:52:11.997Z</time></trkpt><trkpt lat="43.4576133" lon="11.3543967"><ele>350.5</ele><time>2026-04-11T05:52:13.996Z</time></trkpt><trkpt lat="43.4576833" lon="11.35438"><ele>352.0</ele><time>2026-04-11T05:52:15.996Z</time></trkpt><trkpt lat="43.45775" lon="11.3543733"><ele>353.5</ele><time>2026-04-11T05:52:17.997Z</time></trkpt><trkpt lat="43.4578483" lon="11.354395"><ele>355.0</ele><time>2026-04-11T05:52:20.996Z</time></trkpt><trkpt lat="43.4579167" lon="11.3544383"><ele>354.0</ele><time>2026-04-11T05:52:22.996Z</time></trkpt><trkpt lat="43.4580017" lon="11.35449"><ele>353.0</ele><time>2026-04-11T05:52:24.996Z</time></trkpt><trkpt lat="43.4580867" lon="11.3545517"><ele>352.0</ele><time>2026-04-11T05:52:26.996Z</time></trkpt><trkpt lat="43.4581783" lon="11.3546533"><ele>351.0</ele><time>2026-04-11T05:52:28.996Z</time></trkpt><trkpt lat="43.45826" lon="11.3547417"><ele>350.0</ele><time>2026-04-11T05:52:30.997Z</time></trkpt><trkpt lat="43.4583367" lon="11.3548083"><ele>350.0</ele><time>2026-04-11T05:52:32.996Z</time></trkpt><trkpt lat="43.4584167" lon="11.35488"><ele>350.0</ele><time>2026-04-11T05:52:34.996Z</time></trkpt><trkpt lat="43.458505" lon="11.3549533"><ele>350.0</ele><time>2026-04-11T05:52:36.996Z</time></trkpt><trkpt lat="43.4586033" lon="11.3550283"><ele>350.0</ele><time>2026-04-11T05:52:38.996Z</time></trkpt><trkpt lat="43.4586917" lon="11.3551083"><ele>350.0</ele><time>2026-04-11T05:52:40.996Z</time></trkpt><trkpt lat="43.4587583" lon="11.3551567"><ele>351.0</ele><time>2026-04-11T05:52:42.996Z</time></trkpt><trkpt lat="43.4588233" lon="11.3551967"><ele>352.0</ele><time>2026-04-11T05:52:44.996Z</time></trkpt><trkpt lat="43.4589017" lon="11.3552333"><ele>353.0</ele><time>2026-04-11T05:52:46.996Z</time></trkpt><trkpt lat="43.4589983" lon="11.3552567"><ele>354.0</ele><time>2026-04-11T05:52:48.996Z</time></trkpt><trkpt lat="43.4590717" lon="11.35527"><ele>355.0</ele><time>2026-04-11T05:52:50.996Z</time></trkpt><trkpt lat="43.4591483" lon="11.35529"><ele>356.0</ele><time>2026-04-11T05:52:52.996Z</time></trkpt><trkpt lat="43.45922" lon="11.3553117"><ele>356.0</ele><time>2026-04-11T05:52:54.996Z</time></trkpt><trkpt lat="43.459305" lon="11.3553267"><ele>356.0</ele><time>2026-04-11T05:52:56.996Z</time></trkpt><trkpt lat="43.459375" lon="11.355335"><ele>356.0</ele><time>2026-04-11T05:52:58.996Z</time></trkpt><trkpt lat="43.45947" lon="11.35537"><ele>356.0</ele><time>2026-04-11T05:53:00.997Z</time></trkpt><trkpt lat="43.4595433" lon="11.3553883"><ele>356.0</ele><time>2026-04-11T05:53:02.997Z</time></trkpt><trkpt lat="43.4596017" lon="11.3554233"><ele>356.0</ele><time>2026-04-11T05:53:04.996Z</time></trkpt><trkpt lat="43.4596817" lon="11.35547"><ele>355.1666666666667</ele><time>2026-04-11T05:53:06.996Z</time></trkpt><trkpt lat="43.4597683" lon="11.3555133"><ele>354.33333333333337</ele><time>2026-04-11T05:53:08.996Z</time></trkpt><trkpt lat="43.45984" lon="11.3555233"><ele>353.5</ele><time>2026-04-11T05:53:10.996Z</time></trkpt><trkpt lat="43.4599083" lon="11.3555317"><ele>352.6666666666667</ele><time>2026-04-11T05:53:12.997Z</time></trkpt><trkpt lat="43.4599783" lon="11.35554"><ele>351.8333333333333</ele><time>2026-04-11T05:53:14.996Z</time></trkpt><trkpt lat="43.4600583" lon="11.3555467"><ele>351.0</ele><time>2026-04-11T05:53:16.996Z</time></trkpt><trkpt lat="43.4601433" lon="11.35555"><ele>351.0</ele><time>2026-04-11T05:53:18.996Z</time></trkpt><trkpt lat="43.4602317" lon="11.3555567"><ele>351.0</ele><time>2026-04-11T05:53:20.996Z</time></trkpt><trkpt lat="43.4603233" lon="11.355575"><ele>351.0</ele><time>2026-04-11T05:53:22.996Z</time></trkpt><trkpt lat="43.4604" lon="11.3555967"><ele>351.0</ele><time>2026-04-11T05:53:24.996Z</time></trkpt><trkpt lat="43.460475" lon="11.35562"><ele>351.0</ele><time>2026-04-11T05:53:26.996Z</time></trkpt><trkpt lat="43.46055" lon="11.35563"><ele>351.0</ele><time>2026-04-11T05:53:28.996Z</time></trkpt><trkpt lat="43.460625" lon="11.3556417"><ele>351.5</ele><time>2026-04-11T05:53:30.996Z</time></trkpt><trkpt lat="43.4606983" lon="11.35565"><ele>352.0</ele><time>2026-04-11T05:53:32.996Z</time></trkpt><trkpt lat="43.460785" lon="11.355635"><ele>352.5</ele><time>2026-04-11T05:53:35.996Z</time></trkpt><trkpt lat="43.4608667" lon="11.3555983"><ele>353.0</ele><time>2026-04-11T05:53:38.996Z</time></trkpt><trkpt lat="43.460955" lon="11.3555567"><ele>353.5</ele><time>2026-04-11T05:53:41.996Z</time></trkpt><trkpt lat="43.461035" lon="11.3555467"><ele>354.0</ele><time>2026-04-11T05:53:44.996Z</time></trkpt><trkpt lat="43.4611117" lon="11.3555267"><ele>354.0</ele><time>2026-04-11T05:53:47.996Z</time></trkpt><trkpt lat="43.461195" lon="11.355535"><ele>354.0</ele><time>2026-04-11T05:53:50.996Z</time></trkpt><trkpt lat="43.4612667" lon="11.35554"><ele>354.0</ele><time>2026-04-11T05:53:52.996Z</time></trkpt><trkpt lat="43.4613383" lon="11.3555583"><ele>354.0</ele><time>2026-04-11T05:53:54.996Z</time></trkpt><trkpt lat="43.4614167" lon="11.3555767"><ele>354.0</ele><time>2026-04-11T05:53:56.996Z</time></trkpt><trkpt lat="43.4615117" lon="11.3556067"><ele>354.0</ele><time>2026-04-11T05:53:58.996Z</time></trkpt><trkpt lat="43.461575" lon="11.3556483"><ele>354.2857142857143</ele><time>2026-04-11T05:53:59.996Z</time></trkpt><trkpt lat="43.4616383" lon="11.3556933"><ele>354.57142857142856</ele><time>2026-04-11T05:54:00.996Z</time></trkpt><trkpt lat="43.4617017" lon="11.35574"><ele>354.85714285714283</ele><time>2026-04-11T05:54:01.996Z</time></trkpt><trkpt lat="43.4617683" lon="11.3557917"><ele>355.1428571428571</ele><time>2026-04-11T05:54:02.996Z</time></trkpt><trkpt lat="43.4618367" lon="11.3558533"><ele>355.42857142857144</ele><time>2026-04-11T05:54:03.996Z</time></trkpt><trkpt lat="43.4619033" lon="11.35591"><ele>355.71428571428567</ele><time>2026-04-11T05:54:04.996Z</time></trkpt><trkpt lat="43.4619617" lon="11.3559583"><ele>356.0</ele><time>2026-04-11T05:54:05.996Z</time></trkpt><trkpt lat="43.46202" lon="11.3560017"><ele>357.6</ele><time>2026-04-11T05:54:06.996Z</time></trkpt><trkpt lat="43.4621283" lon="11.35608"><ele>359.20000000000005</ele><time>2026-04-11T05:54:08.996Z</time></trkpt><trkpt lat="43.46223" lon="11.3561517"><ele>360.79999999999995</ele><time>2026-04-11T05:54:10.996Z</time></trkpt><trkpt lat="43.4623167" lon="11.3562167"><ele>362.4</ele><time>2026-04-11T05:54:12.996Z</time></trkpt><trkpt lat="43.4624017" lon="11.35628"><ele>364.0</ele><time>2026-04-11T05:54:14.996Z</time></trkpt><trkpt lat="43.46249" lon="11.3563517"><ele>362.2</ele><time>2026-04-11T05:54:16.996Z</time></trkpt><trkpt lat="43.462575" lon="11.3564267"><ele>360.4</ele><time>2026-04-11T05:54:18.996Z</time></trkpt><trkpt lat="43.4626633" lon="11.356505"><ele>358.6</ele><time>2026-04-11T05:54:20.997Z</time></trkpt><trkpt lat="43.462765" lon="11.3566083"><ele>356.8</ele><time>2026-04-11T05:54:22.996Z</time></trkpt><trkpt lat="43.4628483" lon="11.3567067"><ele>355.0</ele><time>2026-04-11T05:54:24.996Z</time></trkpt><trkpt lat="43.4629133" lon="11.3567767"><ele>357.16666666666663</ele><time>2026-04-11T05:54:26.996Z</time></trkpt><trkpt lat="43.463005" lon="11.356805"><ele>359.3333333333333</ele><time>2026-04-11T05:54:29.996Z</time></trkpt><trkpt lat="43.46309" lon="11.3568183"><ele>361.5</ele><time>2026-04-11T05:54:31.996Z</time></trkpt><trkpt lat="43.4631683" lon="11.3568367"><ele>363.6666666666667</ele><time>2026-04-11T05:54:33.996Z</time></trkpt><trkpt lat="43.4632467" lon="11.3568317"><ele>365.83333333333337</ele><time>2026-04-11T05:54:36.996Z</time></trkpt><trkpt lat="43.463325" lon="11.3568083"><ele>368.0</ele><time>2026-04-11T05:54:39.996Z</time></trkpt><trkpt lat="43.4634067" lon="11.3567783"><ele>368.0</ele><time>2026-04-11T05:54:42.996Z</time></trkpt><trkpt lat="43.46348" lon="11.3568033"><ele>368.0</ele><time>2026-04-11T05:54:44.996Z</time></trkpt><trkpt lat="43.4635517" lon="11.3568167"><ele>368.0</ele><time>2026-04-11T05:54:46.996Z</time></trkpt><trkpt lat="43.4636283" lon="11.356815"><ele>368.0</ele><time>2026-04-11T05:54:49.996Z</time></trkpt><trkpt lat="43.463715" lon="11.3568533"><ele>368.0</ele><time>2026-04-11T05:54:52.996Z</time></trkpt><trkpt lat="43.4637833" lon="11.356895"><ele>368.0</ele><time>2026-04-11T05:54:54.996Z</time></trkpt><trkpt lat="43.463865" lon="11.3569567"><ele>367.33333333333337</ele><time>2026-04-11T05:54:56.997Z</time></trkpt><trkpt lat="43.463935" lon="11.357015"><ele>366.6666666666667</ele><time>2026-04-11T05:54:58.996Z</time></trkpt><trkpt lat="43.46402" lon="11.3570683"><ele>366.0</ele><time>2026-04-11T05:55:01.996Z</time></trkpt><trkpt lat="43.4641017" lon="11.35712"><ele>365.3333333333333</ele><time>2026-04-11T05:55:04.996Z</time></trkpt><trkpt lat="43.4641717" lon="11.3571483"><ele>364.66666666666663</ele><time>2026-04-11T05:55:06.996Z</time></trkpt><trkpt lat="43.4642533" lon="11.3571833"><ele>364.0</ele><time>2026-04-11T05:55:09.996Z</time></trkpt><trkpt lat="43.4643267" lon="11.3572583"><ele>364.0</ele><time>2026-04-11T05:55:11.996Z</time></trkpt><trkpt lat="43.4644067" lon="11.3573483"><ele>364.0</ele><time>2026-04-11T05:55:13.996Z</time></trkpt><trkpt lat="43.46448" lon="11.3574467"><ele>364.0</ele><time>2026-04-11T05:55:15.996Z</time></trkpt><trkpt lat="43.4645267" lon="11.357545"><ele>364.0</ele><time>2026-04-11T05:55:17.996Z</time></trkpt><trkpt lat="43.4645767" lon="11.357645"><ele>364.0</ele><time>2026-04-11T05:55:19.996Z</time></trkpt><trkpt lat="43.4646267" lon="11.357785"><ele>365.0</ele><time>2026-04-11T05:55:21.996Z</time></trkpt><trkpt lat="43.46466" lon="11.3578767"><ele>366.0</ele><time>2026-04-11T05:55:22.996Z</time></trkpt><trkpt lat="43.4647" lon="11.35801"><ele>367.0</ele><time>2026-04-11T05:55:24.996Z</time></trkpt><trkpt lat="43.4647417" lon="11.3581517"><ele>368.0</ele><time>2026-04-11T05:55:26.997Z</time></trkpt><trkpt lat="43.4647767" lon="11.3582783"><ele>369.0</ele><time>2026-04-11T05:55:28.996Z</time></trkpt><trkpt lat="43.4648017" lon="11.35841"><ele>369.0</ele><time>2026-04-11T05:55:30.996Z</time></trkpt><trkpt lat="43.4648367" lon="11.3585283"><ele>369.0</ele><time>2026-04-11T05:55:32.997Z</time></trkpt><trkpt lat="43.4648667" lon="11.35864"><ele>369.0</ele><time>2026-04-11T05:55:34.997Z</time></trkpt><trkpt lat="43.46488" lon="11.3587417"><ele>369.0</ele><time>2026-04-11T05:55:36.996Z</time></trkpt><trkpt lat="43.4649" lon="11.3588467"><ele>369.0</ele><time>2026-04-11T05:55:38.996Z</time></trkpt><trkpt lat="43.464925" lon="11.35896"><ele>369.0</ele><time>2026-04-11T05:55:40.996Z</time></trkpt><trkpt lat="43.4649433" lon="11.35909"><ele>368.2</ele><time>2026-04-11T05:55:42.996Z</time></trkpt><trkpt lat="43.46496" lon="11.35922"><ele>367.4</ele><time>2026-04-11T05:55:44.997Z</time></trkpt><trkpt lat="43.465" lon="11.3593583"><ele>366.6</ele><time>2026-04-11T05:55:46.996Z</time></trkpt><trkpt lat="43.465055" lon="11.3595083"><ele>365.8</ele><time>2026-04-11T05:55:48.996Z</time></trkpt><trkpt lat="43.465085" lon="11.3595917"><ele>365.0</ele><time>2026-04-11T05:55:49.997Z</time></trkpt><trkpt lat="43.4651317" lon="11.359745"><ele>364.6</ele><time>2026-04-11T05:55:51.997Z</time></trkpt><trkpt lat="43.4651967" lon="11.3598533"><ele>364.2</ele><time>2026-04-11T05:55:53.996Z</time></trkpt><trkpt lat="43.465255" lon="11.3599533"><ele>363.79999999999995</ele><time>2026-04-11T05:55:55.996Z</time></trkpt><trkpt lat="43.4653183" lon="11.36004"><ele>363.4</ele><time>2026-04-11T05:55:57.996Z</time></trkpt><trkpt lat="43.4653833" lon="11.3601433"><ele>363.0</ele><time>2026-04-11T05:55:59.996Z</time></trkpt><trkpt lat="43.4654383" lon="11.3602383"><ele>364.1666666666667</ele><time>2026-04-11T05:56:01.996Z</time></trkpt><trkpt lat="43.465495" lon="11.3603383"><ele>365.3333333333333</ele><time>2026-04-11T05:56:03.996Z</time></trkpt><trkpt lat="43.4655467" lon="11.360435"><ele>366.5</ele><time>2026-04-11T05:56:05.996Z</time></trkpt><trkpt lat="43.4655917" lon="11.3605233"><ele>367.66666666666663</ele><time>2026-04-11T05:56:07.996Z</time></trkpt><trkpt lat="43.46564" lon="11.3606083"><ele>368.8333333333333</ele><time>2026-04-11T05:56:09.996Z</time></trkpt><trkpt lat="43.4656817" lon="11.3606933"><ele>370.0</ele><time>2026-04-11T05:56:11.996Z</time></trkpt><trkpt lat="43.4657317" lon="11.3607633"><ele>370.0</ele><time>2026-04-11T05:56:13.996Z</time></trkpt><trkpt lat="43.4657717" lon="11.3608333"><ele>370.0</ele><time>2026-04-11T05:56:15.996Z</time></trkpt><trkpt lat="43.4658233" lon="11.3608933"><ele>370.0</ele><time>2026-04-11T05:56:18.997Z</time></trkpt><trkpt lat="43.465895" lon="11.36096"><ele>370.0</ele><time>2026-04-11T05:56:21.996Z</time></trkpt><trkpt lat="43.46597" lon="11.3610333"><ele>370.0</ele><time>2026-04-11T05:56:23.996Z</time></trkpt><trkpt lat="43.466035" lon="11.3610967"><ele>370.0</ele><time>2026-04-11T05:56:25.996Z</time></trkpt><trkpt lat="43.4660867" lon="11.36115"><ele>370.0</ele><time>2026-04-11T05:56:27.996Z</time></trkpt><trkpt lat="43.46613" lon="11.3612217"><ele>370.0</ele><time>2026-04-11T05:56:29.996Z</time></trkpt><trkpt lat="43.4661617" lon="11.3613"><ele>370.0</ele><time>2026-04-11T05:56:31.997Z</time></trkpt><trkpt lat="43.4662183" lon="11.3614033"><ele>370.0</ele><time>2026-04-11T05:56:34.996Z</time></trkpt><trkpt lat="43.4662583" lon="11.36148"><ele>370.0</ele><time>2026-04-11T05:56:36.997Z</time></trkpt><trkpt lat="43.4662817" lon="11.3615667"><ele>370.0</ele><time>2026-04-11T05:56:38.996Z</time></trkpt><trkpt lat="43.4663283" lon="11.361715"><ele>369.8</ele><time>2026-04-11T05:56:40.996Z</time></trkpt><trkpt lat="43.4663883" lon="11.361855"><ele>369.6</ele><time>2026-04-11T05:56:42.996Z</time></trkpt><trkpt lat="43.4664417" lon="11.3619967"><ele>369.4</ele><time>2026-04-11T05:56:44.996Z</time></trkpt><trkpt lat="43.4664683" lon="11.3620783"><ele>369.2</ele><time>2026-04-11T05:56:45.996Z</time></trkpt><trkpt lat="43.4665033" lon="11.362215"><ele>369.0</ele><time>2026-04-11T05:56:47.996Z</time></trkpt><trkpt lat="43.466555" lon="11.36235"><ele>369.0</ele><time>2026-04-11T05:56:49.996Z</time></trkpt><trkpt lat="43.46661" lon="11.3624717"><ele>369.0</ele><time>2026-04-11T05:56:51.996Z</time></trkpt><trkpt lat="43.4666783" lon="11.362595"><ele>369.0</ele><time>2026-04-11T05:56:53.996Z</time></trkpt><trkpt lat="43.466745" lon="11.3627117"><ele>369.0</ele><time>2026-04-11T05:56:55.996Z</time></trkpt><trkpt lat="43.46681" lon="11.3628417"><ele>369.0</ele><time>2026-04-11T05:56:57.996Z</time></trkpt><trkpt lat="43.4668483" lon="11.3629933"><ele>368.4</ele><time>2026-04-11T05:56:59.996Z</time></trkpt><trkpt lat="43.4668517" lon="11.36314"><ele>367.79999999999995</ele><time>2026-04-11T05:57:01.996Z</time></trkpt><trkpt lat="43.4668467" lon="11.36329"><ele>367.20000000000005</ele><time>2026-04-11T05:57:03.997Z</time></trkpt><trkpt lat="43.4668317" lon="11.3634317"><ele>366.6</ele><time>2026-04-11T05:57:05.996Z</time></trkpt><trkpt lat="43.46681" lon="11.36357"><ele>366.0</ele><time>2026-04-11T05:57:07.996Z</time></trkpt><trkpt lat="43.4667767" lon="11.363715"><ele>366.0</ele><time>2026-04-11T05:57:09.996Z</time></trkpt><trkpt lat="43.46675" lon="11.36384"><ele>366.0</ele><time>2026-04-11T05:57:11.996Z</time></trkpt><trkpt lat="43.46673" lon="11.3639583"><ele>366.0</ele><time>2026-04-11T05:57:13.996Z</time></trkpt><trkpt lat="43.4667017" lon="11.3640767"><ele>366.0</ele><time>2026-04-11T05:57:15.996Z</time></trkpt><trkpt lat="43.466665" lon="11.3641883"><ele>366.0</ele><time>2026-04-11T05:57:17.996Z</time></trkpt><trkpt lat="43.4666383" lon="11.3642983"><ele>366.0</ele><time>2026-04-11T05:57:19.996Z</time></trkpt><trkpt lat="43.4666167" lon="11.3644083"><ele>366.5</ele><time>2026-04-11T05:57:21.997Z</time></trkpt><trkpt lat="43.4665917" lon="11.364525"><ele>367.0</ele><time>2026-04-11T05:57:23.997Z</time></trkpt><trkpt lat="43.4665683" lon="11.36464"><ele>367.5</ele><time>2026-04-11T05:57:25.996Z</time></trkpt><trkpt lat="43.466545" lon="11.3647383"><ele>368.0</ele><time>2026-04-11T05:57:27.996Z</time></trkpt><trkpt lat="43.4665167" lon="11.3648467"><ele>368.5</ele><time>2026-04-11T05:57:29.996Z</time></trkpt><trkpt lat="43.4664933" lon="11.36495"><ele>369.0</ele><time>2026-04-11T05:57:31.996Z</time></trkpt><trkpt lat="43.4664717" lon="11.36506"><ele>369.1666666666667</ele><time>2026-04-11T05:57:33.996Z</time></trkpt><trkpt lat="43.4664367" lon="11.36517"><ele>369.3333333333333</ele><time>2026-04-11T05:57:35.996Z</time></trkpt><trkpt lat="43.4664167" lon="11.3652833"><ele>369.5</ele><time>2026-04-11T05:57:37.996Z</time></trkpt><trkpt lat="43.466395" lon="11.365395"><ele>369.66666666666663</ele><time>2026-04-11T05:57:39.997Z</time></trkpt><trkpt lat="43.4663767" lon="11.365495"><ele>369.8333333333333</ele><time>2026-04-11T05:57:41.996Z</time></trkpt><trkpt lat="43.4663567" lon="11.3655917"><ele>370.0</ele><time>2026-04-11T05:57:43.996Z</time></trkpt><trkpt lat="43.4663383" lon="11.3657017"><ele>369.71428571428567</ele><time>2026-04-11T05:57:45.997Z</time></trkpt><trkpt lat="43.466315" lon="11.3658017"><ele>369.42857142857144</ele><time>2026-04-11T05:57:47.996Z</time></trkpt><trkpt lat="43.4662967" lon="11.365895"><ele>369.1428571428571</ele><time>2026-04-11T05:57:49.997Z</time></trkpt><trkpt lat="43.4662617" lon="11.3659783"><ele>368.85714285714283</ele><time>2026-04-11T05:57:51.996Z</time></trkpt><trkpt lat="43.4662383" lon="11.3660667"><ele>368.57142857142856</ele><time>2026-04-11T05:57:53.996Z</time></trkpt><trkpt lat="43.46622" lon="11.3661617"><ele>368.2857142857143</ele><time>2026-04-11T05:57:55.996Z</time></trkpt><trkpt lat="43.4662067" lon="11.3662633"><ele>368.0</ele><time>2026-04-11T05:57:57.997Z</time></trkpt><trkpt lat="43.4661917" lon="11.3663533"><ele>368.14285714285717</ele><time>2026-04-11T05:57:59.996Z</time></trkpt><trkpt lat="43.4661667" lon="11.3664433"><ele>368.2857142857143</ele><time>2026-04-11T05:58:01.996Z</time></trkpt><trkpt lat="43.4661533" lon="11.36654"><ele>368.42857142857144</ele><time>2026-04-11T05:58:03.996Z</time></trkpt><trkpt lat="43.4661317" lon="11.3666317"><ele>368.57142857142856</ele><time>2026-04-11T05:58:05.996Z</time></trkpt><trkpt lat="43.4661033" lon="11.3667283"><ele>368.71428571428567</ele><time>2026-04-11T05:58:07.996Z</time></trkpt><trkpt lat="43.4660783" lon="11.3668283"><ele>368.85714285714283</ele><time>2026-04-11T05:58:09.996Z</time></trkpt><trkpt lat="43.46605" lon="11.366915"><ele>369.0</ele><time>2026-04-11T05:58:11.996Z</time></trkpt><trkpt lat="43.4660317" lon="11.367005"><ele>369.0</ele><time>2026-04-11T05:58:13.996Z</time></trkpt><trkpt lat="43.4660167" lon="11.367095"><ele>369.0</ele><time>2026-04-11T05:58:15.996Z</time></trkpt><trkpt lat="43.465995" lon="11.367185"><ele>369.0</ele><time>2026-04-11T05:58:17.996Z</time></trkpt><trkpt lat="43.4659717" lon="11.3672817"><ele>369.0</ele><time>2026-04-11T05:58:19.996Z</time></trkpt><trkpt lat="43.4659467" lon="11.3673767"><ele>369.0</ele><time>2026-04-11T05:58:21.996Z</time></trkpt><trkpt lat="43.46592" lon="11.3674733"><ele>369.0</ele><time>2026-04-11T05:58:23.996Z</time></trkpt><trkpt lat="43.4659017" lon="11.3675833"><ele>369.0</ele><time>2026-04-11T05:58:25.996Z</time></trkpt><trkpt lat="43.4658867" lon="11.3677"><ele>369.3333333333333</ele><time>2026-04-11T05:58:27.996Z</time></trkpt><trkpt lat="43.465865" lon="11.3678117"><ele>369.6666666666667</ele><time>2026-04-11T05:58:29.996Z</time></trkpt><trkpt lat="43.4658333" lon="11.3679183"><ele>370.0</ele><time>2026-04-11T05:58:31.996Z</time></trkpt><trkpt lat="43.4658067" lon="11.368025"><ele>370.33333333333337</ele><time>2026-04-11T05:58:33.996Z</time></trkpt><trkpt lat="43.4658" lon="11.3681383"><ele>370.6666666666667</ele><time>2026-04-11T05:58:35.996Z</time></trkpt><trkpt lat="43.46578" lon="11.3682533"><ele>371.0</ele><time>2026-04-11T05:58:37.997Z</time></trkpt><trkpt lat="43.46577" lon="11.3683683"><ele>371.6</ele><time>2026-04-11T05:58:39.996Z</time></trkpt><trkpt lat="43.4657633" lon="11.36849"><ele>372.20000000000005</ele><time>2026-04-11T05:58:41.996Z</time></trkpt><trkpt lat="43.4657633" lon="11.36863"><ele>372.79999999999995</ele><time>2026-04-11T05:58:43.997Z</time></trkpt><trkpt lat="43.4657883" lon="11.3687533"><ele>373.4</ele><time>2026-04-11T05:58:45.996Z</time></trkpt><trkpt lat="43.4658167" lon="11.3688717"><ele>374.0</ele><time>2026-04-11T05:58:47.996Z</time></trkpt><trkpt lat="43.4658467" lon="11.3689867"><ele>374.0</ele><time>2026-04-11T05:58:49.996Z</time></trkpt><trkpt lat="43.465875" lon="11.3690967"><ele>374.0</ele><time>2026-04-11T05:58:51.996Z</time></trkpt><trkpt lat="43.4658983" lon="11.36922"><ele>374.0</ele><time>2026-04-11T05:58:53.996Z</time></trkpt><trkpt lat="43.4659267" lon="11.3693433"><ele>374.0</ele><time>2026-04-11T05:58:55.996Z</time></trkpt><trkpt lat="43.465955" lon="11.3694583"><ele>374.0</ele><time>2026-04-11T05:58:57.996Z</time></trkpt><trkpt lat="43.4659833" lon="11.3695817"><ele>374.0</ele><time>2026-04-11T05:58:59.997Z</time></trkpt><trkpt lat="43.4660183" lon="11.3696917"><ele>374.0</ele><time>2026-04-11T05:59:01.996Z</time></trkpt><trkpt lat="43.4660533" lon="11.36981"><ele>374.0</ele><time>2026-04-11T05:59:03.996Z</time></trkpt><trkpt lat="43.4660917" lon="11.3699333"><ele>374.0</ele><time>2026-04-11T05:59:05.996Z</time></trkpt><trkpt lat="43.4661383" lon="11.370055"><ele>374.0</ele><time>2026-04-11T05:59:07.996Z</time></trkpt><trkpt lat="43.4661917" lon="11.3701583"><ele>374.33333333333337</ele><time>2026-04-11T05:59:09.997Z</time></trkpt><trkpt lat="43.4662383" lon="11.370265"><ele>374.6666666666667</ele><time>2026-04-11T05:59:11.996Z</time></trkpt><trkpt lat="43.466285" lon="11.3703533"><ele>375.0</ele><time>2026-04-11T05:59:13.996Z</time></trkpt><trkpt lat="43.466335" lon="11.3704533"><ele>375.3333333333333</ele><time>2026-04-11T05:59:15.996Z</time></trkpt><trkpt lat="43.46639" lon="11.3705517"><ele>375.66666666666663</ele><time>2026-04-11T05:59:17.996Z</time></trkpt><trkpt lat="43.4664467" lon="11.3706467"><ele>376.0</ele><time>2026-04-11T05:59:19.996Z</time></trkpt><trkpt lat="43.4665067" lon="11.370735"><ele>376.5</ele><time>2026-04-11T05:59:21.996Z</time></trkpt><trkpt lat="43.4665567" lon="11.37082"><ele>377.0</ele><time>2026-04-11T05:59:23.996Z</time></trkpt><trkpt lat="43.4666117" lon="11.3709033"><ele>377.5</ele><time>2026-04-11T05:59:25.997Z</time></trkpt><trkpt lat="43.466665" lon="11.3709767"><ele>378.0</ele><time>2026-04-11T05:59:27.996Z</time></trkpt><trkpt lat="43.46673" lon="11.3710567"><ele>378.5</ele><time>2026-04-11T05:59:29.997Z</time></trkpt><trkpt lat="43.4667917" lon="11.3710933"><ele>379.0</ele><time>2026-04-11T05:59:31.996Z</time></trkpt><trkpt lat="43.4668483" lon="11.3711367"><ele>379.0</ele><time>2026-04-11T05:59:33.996Z</time></trkpt><trkpt lat="43.46691" lon="11.37119"><ele>379.0</ele><time>2026-04-11T05:59:35.996Z</time></trkpt><trkpt lat="43.4669783" lon="11.37123"><ele>379.0</ele><time>2026-04-11T05:59:37.996Z</time></trkpt><trkpt lat="43.4670617" lon="11.3712817"><ele>379.0</ele><time>2026-04-11T05:59:39.996Z</time></trkpt><trkpt lat="43.4671417" lon="11.37133"><ele>379.0</ele><time>2026-04-11T05:59:41.996Z</time></trkpt><trkpt lat="43.4672167" lon="11.3713867"><ele>379.0</ele><time>2026-04-11T05:59:43.996Z</time></trkpt><trkpt lat="43.4672967" lon="11.37146"><ele>379.2</ele><time>2026-04-11T05:59:45.996Z</time></trkpt><trkpt lat="43.467375" lon="11.3715333"><ele>379.4</ele><time>2026-04-11T05:59:47.996Z</time></trkpt><trkpt lat="43.4674483" lon="11.3716333"><ele>379.6</ele><time>2026-04-11T05:59:49.996Z</time></trkpt><trkpt lat="43.46751" lon="11.371745"><ele>379.8</ele><time>2026-04-11T05:59:51.996Z</time></trkpt><trkpt lat="43.4675667" lon="11.3718767"><ele>380.0</ele><time>2026-04-11T05:59:53.996Z</time></trkpt><trkpt lat="43.4676167" lon="11.3719917"><ele>380.0</ele><time>2026-04-11T05:59:55.996Z</time></trkpt><trkpt lat="43.4676567" lon="11.3721083"><ele>380.0</ele><time>2026-04-11T05:59:57.996Z</time></trkpt><trkpt lat="43.4677133" lon="11.3722317"><ele>380.0</ele><time>2026-04-11T05:59:59.997Z</time></trkpt><trkpt lat="43.4677683" lon="11.3723483"><ele>380.0</ele><time>2026-04-11T06:00:01.996Z</time></trkpt><trkpt lat="43.4678" lon="11.37248"><ele>380.0</ele><time>2026-04-11T06:00:03.997Z</time></trkpt><trkpt lat="43.4678283" lon="11.3726133"><ele>379.4</ele><time>2026-04-11T06:00:05.996Z</time></trkpt><trkpt lat="43.4678483" lon="11.372725"><ele>378.8</ele><time>2026-04-11T06:00:07.997Z</time></trkpt><trkpt lat="43.4678617" lon="11.3728383"><ele>378.20000000000005</ele><time>2026-04-11T06:00:09.996Z</time></trkpt><trkpt lat="43.467865" lon="11.3729383"><ele>377.6</ele><time>2026-04-11T06:00:11.996Z</time></trkpt><trkpt lat="43.467875" lon="11.3730617"><ele>377.0</ele><time>2026-04-11T06:00:14.996Z</time></trkpt><trkpt lat="43.4679017" lon="11.37324"><ele>378.0</ele><time>2026-04-11T06:01:12.996Z</time></trkpt><trkpt lat="43.46796" lon="11.3732783"><ele>379.0</ele><time>2026-04-11T06:01:22.996Z</time></trkpt><trkpt lat="43.4680733" lon="11.3733183"><ele>380.0</ele><time>2026-04-11T06:04:09.996Z</time></trkpt><trkpt lat="43.46815" lon="11.373315"><ele>381.0</ele><time>2026-04-11T06:04:13.996Z</time></trkpt><trkpt lat="43.4682167" lon="11.3733433"><ele>382.0</ele><time>2026-04-11T06:04:16.996Z</time></trkpt><trkpt lat="43.46828" lon="11.373385"><ele>383.0</ele><time>2026-04-11T06:04:18.996Z</time></trkpt><trkpt lat="43.468355" lon="11.373415"><ele>383.0</ele><time>2026-04-11T06:04:21.996Z</time></trkpt><trkpt lat="43.468425" lon="11.3734517"><ele>383.0</ele><time>2026-04-11T06:04:24.996Z</time></trkpt><trkpt lat="43.4685017" lon="11.373525"><ele>383.0</ele><time>2026-04-11T06:04:27.996Z</time></trkpt><trkpt lat="43.4685567" lon="11.373585"><ele>383.0</ele><time>2026-04-11T06:04:29.997Z</time></trkpt><trkpt lat="43.4686133" lon="11.37366"><ele>383.0</ele><time>2026-04-11T06:04:31.996Z</time></trkpt><trkpt lat="43.4686783" lon="11.3737517"><ele>383.0</ele><time>2026-04-11T06:04:33.996Z</time></trkpt><trkpt lat="43.468745" lon="11.3738367"><ele>383.33333333333337</ele><time>2026-04-11T06:04:35.996Z</time></trkpt><trkpt lat="43.4688117" lon="11.3739183"><ele>383.6666666666667</ele><time>2026-04-11T06:04:37.996Z</time></trkpt><trkpt lat="43.4688917" lon="11.373985"><ele>384.0</ele><time>2026-04-11T06:04:39.996Z</time></trkpt><trkpt lat="43.4689667" lon="11.3740533"><ele>384.33333333333337</ele><time>2026-04-11T06:04:41.996Z</time></trkpt><trkpt lat="43.46904" lon="11.3741233"><ele>384.6666666666667</ele><time>2026-04-11T06:04:43.996Z</time></trkpt><trkpt lat="43.4691133" lon="11.3741633"><ele>385.0</ele><time>2026-04-11T06:04:45.996Z</time></trkpt><trkpt lat="43.469185" lon="11.3741783"><ele>385.00000000000006</ele><time>2026-04-11T06:04:47.996Z</time></trkpt><trkpt lat="43.469255" lon="11.3741867"><ele>385.0</ele><time>2026-04-11T06:04:49.997Z</time></trkpt><trkpt lat="43.469325" lon="11.3741967"><ele>385.0</ele><time>2026-04-11T06:04:51.996Z</time></trkpt><trkpt lat="43.46942" lon="11.3742133"><ele>385.0</ele><time>2026-04-11T06:04:54.996Z</time></trkpt><trkpt lat="43.4694983" lon="11.3742033"><ele>385.00000000000006</ele><time>2026-04-11T06:04:57.996Z</time></trkpt><trkpt lat="43.4695783" lon="11.37421"><ele>385.0</ele><time>2026-04-11T06:05:00.996Z</time></trkpt><trkpt lat="43.46966" lon="11.374205"><ele>386.0</ele><time>2026-04-11T06:05:03.996Z</time></trkpt><trkpt lat="43.4697233" lon="11.3742067"><ele>387.0</ele><time>2026-04-11T06:05:05.996Z</time></trkpt><trkpt lat="43.4698117" lon="11.37421"><ele>388.0</ele><time>2026-04-11T06:05:08.996Z</time></trkpt><trkpt lat="43.469875" lon="11.3742183"><ele>389.0</ele><time>2026-04-11T06:05:10.996Z</time></trkpt><trkpt lat="43.4699417" lon="11.3742233"><ele>390.0</ele><time>2026-04-11T06:05:12.996Z</time></trkpt><trkpt lat="43.470005" lon="11.374225"><ele>391.0</ele><time>2026-04-11T06:05:14.996Z</time></trkpt><trkpt lat="43.47009" lon="11.37423"><ele>392.0</ele><time>2026-04-11T06:05:17.996Z</time></trkpt><trkpt lat="43.47016" lon="11.3742333"><ele>392.0</ele><time>2026-04-11T06:05:20.997Z</time></trkpt><trkpt lat="43.4702283" lon="11.3742233"><ele>392.0</ele><time>2026-04-11T06:05:22.996Z</time></trkpt><trkpt lat="43.4702933" lon="11.37422"><ele>392.0</ele><time>2026-04-11T06:05:24.996Z</time></trkpt><trkpt lat="43.4703767" lon="11.3742067"><ele>392.0</ele><time>2026-04-11T06:05:27.996Z</time></trkpt><trkpt lat="43.4704417" lon="11.3742017"><ele>392.0</ele><time>2026-04-11T06:05:29.996Z</time></trkpt><trkpt lat="43.470505" lon="11.3741967"><ele>392.0</ele><time>2026-04-11T06:05:31.996Z</time></trkpt><trkpt lat="43.47059" lon="11.3741967"><ele>392.0</ele><time>2026-04-11T06:05:34.996Z</time></trkpt><trkpt lat="43.4706533" lon="11.3741867"><ele>392.49999999999994</ele><time>2026-04-11T06:05:36.996Z</time></trkpt><trkpt lat="43.470725" lon="11.374195"><ele>393.0</ele><time>2026-04-11T06:05:38.996Z</time></trkpt><trkpt lat="43.4708133" lon="11.374195"><ele>393.5</ele><time>2026-04-11T06:05:41.996Z</time></trkpt><trkpt lat="43.4709" lon="11.3742033"><ele>394.0</ele><time>2026-04-11T06:05:44.996Z</time></trkpt><trkpt lat="43.470985" lon="11.3742"><ele>394.49999999999994</ele><time>2026-04-11T06:05:47.996Z</time></trkpt><trkpt lat="43.4710717" lon="11.3741833"><ele>395.0</ele><time>2026-04-11T06:05:50.996Z</time></trkpt><trkpt lat="43.4711367" lon="11.374175"><ele>395.0</ele><time>2026-04-11T06:05:52.996Z</time></trkpt><trkpt lat="43.4712017" lon="11.374165"><ele>395.0</ele><time>2026-04-11T06:05:54.996Z</time></trkpt><trkpt lat="43.4712667" lon="11.3741517"><ele>395.0</ele><time>2026-04-11T06:05:56.996Z</time></trkpt><trkpt lat="43.4713333" lon="11.3741367"><ele>395.0</ele><time>2026-04-11T06:05:58.996Z</time></trkpt><trkpt lat="43.4714" lon="11.3741217"><ele>395.0</ele><time>2026-04-11T06:06:00.997Z</time></trkpt><trkpt lat="43.4714633" lon="11.374105"><ele>395.0</ele><time>2026-04-11T06:06:02.996Z</time></trkpt><trkpt lat="43.471525" lon="11.3740867"><ele>395.0</ele><time>2026-04-11T06:06:04.996Z</time></trkpt><trkpt lat="43.4716167" lon="11.3740633"><ele>395.3333333333333</ele><time>2026-04-11T06:06:07.997Z</time></trkpt><trkpt lat="43.4716983" lon="11.37404"><ele>395.66666666666663</ele><time>2026-04-11T06:06:10.996Z</time></trkpt><trkpt lat="43.4717833" lon="11.3740183"><ele>396.0</ele><time>2026-04-11T06:06:13.996Z</time></trkpt><trkpt lat="43.4718633" lon="11.373995"><ele>396.33333333333337</ele><time>2026-04-11T06:06:16.996Z</time></trkpt><trkpt lat="43.4719283" lon="11.373985"><ele>396.6666666666667</ele><time>2026-04-11T06:06:18.997Z</time></trkpt><trkpt lat="43.4719983" lon="11.3739783"><ele>397.0</ele><time>2026-04-11T06:06:21.996Z</time></trkpt><trkpt lat="43.4720617" lon="11.3739583"><ele>398.00000000000006</ele><time>2026-04-11T06:06:24.997Z</time></trkpt><trkpt lat="43.472125" lon="11.373935"><ele>399.0</ele><time>2026-04-11T06:06:27.996Z</time></trkpt><trkpt lat="43.47224" lon="11.373885"><ele>400.0</ele><time>2026-04-11T06:06:33.998Z</time></trkpt><trkpt lat="43.4723067" lon="11.3738833"><ele>401.0</ele><time>2026-04-11T06:06:35.997Z</time></trkpt><trkpt lat="43.4723933" lon="11.3739133"><ele>402.00000000000006</ele><time>2026-04-11T06:06:38.998Z</time></trkpt><trkpt lat="43.4724667" lon="11.3739367"><ele>403.0</ele><time>2026-04-11T06:06:41.997Z</time></trkpt><trkpt lat="43.4725333" lon="11.37397"><ele>403.00000000000006</ele><time>2026-04-11T06:06:45.997Z</time></trkpt><trkpt lat="43.4726033" lon="11.3740017"><ele>403.0</ele><time>2026-04-11T06:06:49.997Z</time></trkpt><trkpt lat="43.47268" lon="11.3740367"><ele>403.0</ele><time>2026-04-11T06:06:52.997Z</time></trkpt><trkpt lat="43.4727517" lon="11.37408"><ele>403.0</ele><time>2026-04-11T06:06:55.998Z</time></trkpt><trkpt lat="43.472825" lon="11.3741333"><ele>403.00000000000006</ele><time>2026-04-11T06:06:59.997Z</time></trkpt><trkpt lat="43.4728933" lon="11.3741733"><ele>403.0</ele><time>2026-04-11T06:07:02.997Z</time></trkpt><trkpt lat="43.4729783" lon="11.3742117"><ele>404.83333333333337</ele><time>2026-04-11T06:07:05.997Z</time></trkpt><trkpt lat="43.4730583" lon="11.3742683"><ele>406.6666666666667</ele><time>2026-04-11T06:07:08.997Z</time></trkpt><trkpt lat="43.4731367" lon="11.3743033"><ele>408.5</ele><time>2026-04-11T06:07:11.997Z</time></trkpt><trkpt lat="43.4732167" lon="11.3743283"><ele>410.33333333333337</ele><time>2026-04-11T06:07:14.997Z</time></trkpt><trkpt lat="43.4732883" lon="11.37435"><ele>412.1666666666667</ele><time>2026-04-11T06:07:17.997Z</time></trkpt><trkpt lat="43.4733617" lon="11.3743567"><ele>414.0</ele><time>2026-04-11T06:07:20.997Z</time></trkpt><trkpt lat="43.473435" lon="11.374355"><ele>414.00000000000006</ele><time>2026-04-11T06:07:23.997Z</time></trkpt><trkpt lat="43.4735017" lon="11.374345"><ele>414.0</ele><time>2026-04-11T06:07:26.998Z</time></trkpt><trkpt lat="43.4735717" lon="11.374325"><ele>414.0</ele><time>2026-04-11T06:07:29.997Z</time></trkpt><trkpt lat="43.47365" lon="11.374285"><ele>414.0</ele><time>2026-04-11T06:07:33.997Z</time></trkpt><trkpt lat="43.4737083" lon="11.37423"><ele>414.0</ele><time>2026-04-11T06:07:36.997Z</time></trkpt><trkpt lat="43.47376" lon="11.3741667"><ele>414.00000000000006</ele><time>2026-04-11T06:07:39.998Z</time></trkpt><trkpt lat="43.4738033" lon="11.37409"><ele>414.0</ele><time>2026-04-11T06:07:42.998Z</time></trkpt><trkpt lat="43.4738533" lon="11.373995"><ele>414.00000000000006</ele><time>2026-04-11T06:07:45.997Z</time></trkpt><trkpt lat="43.4739067" lon="11.373905"><ele>414.0</ele><time>2026-04-11T06:07:48.997Z</time></trkpt><trkpt lat="43.4739533" lon="11.3738333"><ele>414.0</ele><time>2026-04-11T06:07:51.997Z</time></trkpt><trkpt lat="43.4740083" lon="11.373765"><ele>414.0</ele><time>2026-04-11T06:07:54.997Z</time></trkpt><trkpt lat="43.47406" lon="11.3737067"><ele>414.0</ele><time>2026-04-11T06:07:57.997Z</time></trkpt><trkpt lat="43.4741217" lon="11.3736767"><ele>414.00000000000006</ele><time>2026-04-11T06:08:00.997Z</time></trkpt><trkpt lat="43.4741983" lon="11.3736333"><ele>414.0</ele><time>2026-04-11T06:08:04.998Z</time></trkpt><trkpt lat="43.4742667" lon="11.3735883"><ele>416.5</ele><time>2026-04-11T06:08:07.997Z</time></trkpt><trkpt lat="43.4743533" lon="11.3735483"><ele>419.0</ele><time>2026-04-11T06:08:10.998Z</time></trkpt><trkpt lat="43.4744267" lon="11.3735367"><ele>421.5</ele><time>2026-04-11T06:08:13.997Z</time></trkpt><trkpt lat="43.474495" lon="11.3735583"><ele>424.0</ele><time>2026-04-11T06:08:16.997Z</time></trkpt><trkpt lat="43.4745617" lon="11.37362"><ele>426.5</ele><time>2026-04-11T06:08:20.998Z</time></trkpt><trkpt lat="43.4746117" lon="11.3736767"><ele>429.0</ele><time>2026-04-11T06:08:23.998Z</time></trkpt><trkpt lat="43.4746733" lon="11.3737467"><ele>429.8333333333333</ele><time>2026-04-11T06:08:27.997Z</time></trkpt><trkpt lat="43.4747333" lon="11.3737917"><ele>430.66666666666663</ele><time>2026-04-11T06:08:31.997Z</time></trkpt><trkpt lat="43.4748033" lon="11.37384"><ele>431.5</ele><time>2026-04-11T06:08:35.997Z</time></trkpt><trkpt lat="43.4748733" lon="11.3738633"><ele>432.3333333333333</ele><time>2026-04-11T06:08:38.997Z</time></trkpt><trkpt lat="43.4749567" lon="11.3738833"><ele>433.16666666666663</ele><time>2026-04-11T06:08:42.997Z</time></trkpt><trkpt lat="43.47504" lon="11.373895"><ele>434.0</ele><time>2026-04-11T06:08:46.997Z</time></trkpt><trkpt lat="43.4751117" lon="11.3738967"><ele>434.99999999999994</ele><time>2026-04-11T06:08:50.997Z</time></trkpt><trkpt lat="43.4751933" lon="11.37389"><ele>436.0</ele><time>2026-04-11T06:08:54.997Z</time></trkpt><trkpt lat="43.4752667" lon="11.3738767"><ele>437.0</ele><time>2026-04-11T06:08:57.997Z</time></trkpt><trkpt lat="43.4753433" lon="11.3738767"><ele>438.0</ele><time>2026-04-11T06:09:00.997Z</time></trkpt><trkpt lat="43.47542" lon="11.3738683"><ele>438.99999999999994</ele><time>2026-04-11T06:09:04.997Z</time></trkpt><trkpt lat="43.4754883" lon="11.3738683"><ele>440.0</ele><time>2026-04-11T06:09:07.997Z</time></trkpt><trkpt lat="43.4755683" lon="11.373855"><ele>439.99999999999994</ele><time>2026-04-11T06:09:10.997Z</time></trkpt><trkpt lat="43.4756417" lon="11.3738383"><ele>440.0</ele><time>2026-04-11T06:09:13.997Z</time></trkpt><trkpt lat="43.475715" lon="11.3738267"><ele>440.0</ele><time>2026-04-11T06:09:16.997Z</time></trkpt><trkpt lat="43.4758" lon="11.3738133"><ele>440.0</ele><time>2026-04-11T06:09:20.997Z</time></trkpt><trkpt lat="43.4758767" lon="11.373805"><ele>439.99999999999994</ele><time>2026-04-11T06:09:23.997Z</time></trkpt><trkpt lat="43.475945" lon="11.3737917"><ele>440.0</ele><time>2026-04-11T06:09:26.997Z</time></trkpt><trkpt lat="43.4760133" lon="11.3737667"><ele>439.99999999999994</ele><time>2026-04-11T06:09:29.997Z</time></trkpt><trkpt lat="43.476085" lon="11.3737517"><ele>440.0</ele><time>2026-04-11T06:09:33.998Z</time></trkpt><trkpt lat="43.476155" lon="11.3737417"><ele>440.0</ele><time>2026-04-11T06:09:36.997Z</time></trkpt><trkpt lat="43.4762317" lon="11.3737367"><ele>440.0</ele><time>2026-04-11T06:09:39.997Z</time></trkpt><trkpt lat="43.476305" lon="11.3737233"><ele>440.0</ele><time>2026-04-11T06:09:42.997Z</time></trkpt><trkpt lat="43.4763783" lon="11.3737033"><ele>439.99999999999994</ele><time>2026-04-11T06:09:45.997Z</time></trkpt><trkpt lat="43.4764383" lon="11.3736667"><ele>440.0</ele><time>2026-04-11T06:09:48.997Z</time></trkpt><trkpt lat="43.4764883" lon="11.37359"><ele>438.99999999999994</ele><time>2026-04-11T06:09:52.997Z</time></trkpt><trkpt lat="43.476525" lon="11.3734917"><ele>438.0</ele><time>2026-04-11T06:09:55.997Z</time></trkpt><trkpt lat="43.476545" lon="11.3734083"><ele>437.0</ele><time>2026-04-11T06:09:57.997Z</time></trkpt><trkpt lat="43.47657" lon="11.3732917"><ele>436.0</ele><time>2026-04-11T06:10:00.997Z</time></trkpt><trkpt lat="43.4765817" lon="11.3731767"><ele>434.99999999999994</ele><time>2026-04-11T06:10:03.998Z</time></trkpt><trkpt lat="43.4765933" lon="11.3730733"><ele>434.0</ele><time>2026-04-11T06:10:06.997Z</time></trkpt><trkpt lat="43.4766033" lon="11.3729617"><ele>435.99999999999994</ele><time>2026-04-11T06:10:10.997Z</time></trkpt><trkpt lat="43.4766067" lon="11.3728717"><ele>438.0</ele><time>2026-04-11T06:10:13.997Z</time></trkpt><trkpt lat="43.476615" lon="11.372765"><ele>440.0</ele><time>2026-04-11T06:10:16.997Z</time></trkpt><trkpt lat="43.47663" lon="11.3726617"><ele>442.0</ele><time>2026-04-11T06:10:19.998Z</time></trkpt><trkpt lat="43.476645" lon="11.372555"><ele>443.99999999999994</ele><time>2026-04-11T06:10:22.997Z</time></trkpt><trkpt lat="43.4766617" lon="11.3724533"><ele>446.0</ele><time>2026-04-11T06:10:25.997Z</time></trkpt><trkpt lat="43.4766767" lon="11.37234"><ele>445.99999999999994</ele><time>2026-04-11T06:10:28.997Z</time></trkpt><trkpt lat="43.476695" lon="11.37223"><ele>446.0</ele><time>2026-04-11T06:10:31.997Z</time></trkpt><trkpt lat="43.47671" lon="11.372125"><ele>446.0</ele><time>2026-04-11T06:10:34.997Z</time></trkpt><trkpt lat="43.4767367" lon="11.3720217"><ele>446.0</ele><time>2026-04-11T06:10:37.997Z</time></trkpt><trkpt lat="43.47679" lon="11.3719367"><ele>445.99999999999994</ele><time>2026-04-11T06:10:40.997Z</time></trkpt><trkpt lat="43.47685" lon="11.3718867"><ele>446.0</ele><time>2026-04-11T06:10:43.997Z</time></trkpt><trkpt lat="43.4769183" lon="11.371845"><ele>447.2857142857143</ele><time>2026-04-11T06:10:47.997Z</time></trkpt><trkpt lat="43.4769817" lon="11.37182"><ele>448.57142857142856</ele><time>2026-04-11T06:10:50.998Z</time></trkpt><trkpt lat="43.477045" lon="11.37181"><ele>449.8571428571429</ele><time>2026-04-11T06:10:53.997Z</time></trkpt><trkpt lat="43.4771267" lon="11.3718233"><ele>451.1428571428571</ele><time>2026-04-11T06:10:57.997Z</time></trkpt><trkpt lat="43.477205" lon="11.3718667"><ele>452.42857142857144</ele><time>2026-04-11T06:11:01.997Z</time></trkpt><trkpt lat="43.4772683" lon="11.3718833"><ele>453.7142857142857</ele><time>2026-04-11T06:11:04.997Z</time></trkpt><trkpt lat="43.4773483" lon="11.371905"><ele>455.0</ele><time>2026-04-11T06:11:08.997Z</time></trkpt><trkpt lat="43.477415" lon="11.371925"><ele>455.2857142857143</ele><time>2026-04-11T06:11:11.997Z</time></trkpt><trkpt lat="43.4774817" lon="11.3719483"><ele>455.57142857142856</ele><time>2026-04-11T06:11:14.997Z</time></trkpt><trkpt lat="43.477545" lon="11.3719633"><ele>455.8571428571429</ele><time>2026-04-11T06:11:17.997Z</time></trkpt><trkpt lat="43.47761" lon="11.3719783"><ele>456.14285714285717</ele><time>2026-04-11T06:11:20.997Z</time></trkpt><trkpt lat="43.4776733" lon="11.3719917"><ele>456.42857142857144</ele><time>2026-04-11T06:11:23.997Z</time></trkpt><trkpt lat="43.4777433" lon="11.3719767"><ele>456.7142857142858</ele><time>2026-04-11T06:11:26.997Z</time></trkpt><trkpt lat="43.47782" lon="11.37196"><ele>457.00000000000006</ele><time>2026-04-11T06:11:30.997Z</time></trkpt><trkpt lat="43.4778967" lon="11.371935"><ele>456.50000000000006</ele><time>2026-04-11T06:11:34.997Z</time></trkpt><trkpt lat="43.4779817" lon="11.3718983"><ele>456.0</ele><time>2026-04-11T06:11:38.997Z</time></trkpt><trkpt lat="43.4780517" lon="11.3718433"><ele>455.5</ele><time>2026-04-11T06:11:41.997Z</time></trkpt><trkpt lat="43.4781183" lon="11.371775"><ele>455.0</ele><time>2026-04-11T06:11:45.997Z</time></trkpt><trkpt lat="43.4781567" lon="11.3716933"><ele>454.50000000000006</ele><time>2026-04-11T06:11:50.997Z</time></trkpt><trkpt lat="43.478185" lon="11.3715917"><ele>454.0</ele><time>2026-04-11T06:11:54.998Z</time></trkpt><trkpt lat="43.4782067" lon="11.3715017"><ele>454.0</ele><time>2026-04-11T06:11:57.997Z</time></trkpt><trkpt lat="43.4782167" lon="11.3714017"><ele>454.00000000000006</ele><time>2026-04-11T06:12:00.997Z</time></trkpt><trkpt lat="43.4782033" lon="11.3712917"><ele>454.0</ele><time>2026-04-11T06:12:03.997Z</time></trkpt><trkpt lat="43.4781883" lon="11.3711883"><ele>454.0</ele><time>2026-04-11T06:12:06.997Z</time></trkpt><trkpt lat="43.478175" lon="11.3710883"><ele>454.00000000000006</ele><time>2026-04-11T06:12:09.998Z</time></trkpt><trkpt lat="43.47815" lon="11.3709967"><ele>454.0</ele><time>2026-04-11T06:12:12.997Z</time></trkpt><trkpt lat="43.4781317" lon="11.3709083"><ele>454.0</ele><time>2026-04-11T06:12:15.997Z</time></trkpt><trkpt lat="43.4781033" lon="11.3708"><ele>455.28571428571433</ele><time>2026-04-11T06:12:19.997Z</time></trkpt><trkpt lat="43.4780733" lon="11.3707167"><ele>456.5714285714286</ele><time>2026-04-11T06:12:22.997Z</time></trkpt><trkpt lat="43.4780433" lon="11.3706383"><ele>457.8571428571429</ele><time>2026-04-11T06:12:25.998Z</time></trkpt><trkpt lat="43.4780233" lon="11.3705533"><ele>459.1428571428571</ele><time>2026-04-11T06:12:28.997Z</time></trkpt><trkpt lat="43.4780067" lon="11.3704667"><ele>460.4285714285714</ele><time>2026-04-11T06:12:31.997Z</time></trkpt><trkpt lat="43.4779783" lon="11.3703867"><ele>461.71428571428567</ele><time>2026-04-11T06:12:34.997Z</time></trkpt><trkpt lat="43.4779633" lon="11.3702783"><ele>463.0</ele><time>2026-04-11T06:12:38.997Z</time></trkpt><trkpt lat="43.4779483" lon="11.3701883"><ele>464.33333333333337</ele><time>2026-04-11T06:12:41.998Z</time></trkpt><trkpt lat="43.4779483" lon="11.3700967"><ele>465.6666666666667</ele><time>2026-04-11T06:12:44.997Z</time></trkpt><trkpt lat="43.477975" lon="11.3699883"><ele>467.0</ele><time>2026-04-11T06:12:48.997Z</time></trkpt><trkpt lat="43.478045" lon="11.3698933"><ele>468.33333333333337</ele><time>2026-04-11T06:12:53.997Z</time></trkpt><trkpt lat="43.4781017" lon="11.3698517"><ele>469.6666666666667</ele><time>2026-04-11T06:12:56.997Z</time></trkpt><trkpt lat="43.4781783" lon="11.3698267"><ele>471.0</ele><time>2026-04-11T06:12:59.997Z</time></trkpt><trkpt lat="43.4782633" lon="11.3698133"><ele>471.0</ele><time>2026-04-11T06:13:03.998Z</time></trkpt><trkpt lat="43.4783383" lon="11.3698033"><ele>471.0</ele><time>2026-04-11T06:13:06.998Z</time></trkpt><trkpt lat="43.4784183" lon="11.36981"><ele>471.0</ele><time>2026-04-11T06:13:09.997Z</time></trkpt><trkpt lat="43.4785" lon="11.369805"><ele>471.0</ele><time>2026-04-11T06:13:12.997Z</time></trkpt><trkpt lat="43.47858" lon="11.36979"><ele>471.0</ele><time>2026-04-11T06:13:15.997Z</time></trkpt><trkpt lat="43.4786483" lon="11.36975"><ele>471.0</ele><time>2026-04-11T06:13:18.997Z</time></trkpt><trkpt lat="43.4787167" lon="11.369705"><ele>472.4285714285715</ele><time>2026-04-11T06:13:21.997Z</time></trkpt><trkpt lat="43.47877" lon="11.369655"><ele>473.8571428571429</ele><time>2026-04-11T06:13:24.997Z</time></trkpt><trkpt lat="43.4788233" lon="11.3695983"><ele>475.2857142857143</ele><time>2026-04-11T06:13:27.997Z</time></trkpt><trkpt lat="43.478875" lon="11.3695333"><ele>476.7142857142857</ele><time>2026-04-11T06:13:30.997Z</time></trkpt><trkpt lat="43.478925" lon="11.36946"><ele>478.1428571428571</ele><time>2026-04-11T06:13:33.997Z</time></trkpt><trkpt lat="43.4789733" lon="11.3693967"><ele>479.5714285714285</ele><time>2026-04-11T06:13:36.998Z</time></trkpt><trkpt lat="43.4790267" lon="11.36933"><ele>480.99999999999994</ele><time>2026-04-11T06:13:39.997Z</time></trkpt><trkpt lat="43.4790833" lon="11.369255"><ele>480.99999999999994</ele><time>2026-04-11T06:13:43.998Z</time></trkpt><trkpt lat="43.4791283" lon="11.3691833"><ele>481.0</ele><time>2026-04-11T06:13:46.998Z</time></trkpt><trkpt lat="43.4791783" lon="11.3691133"><ele>480.99999999999994</ele><time>2026-04-11T06:13:49.997Z</time></trkpt><trkpt lat="43.4792233" lon="11.369045"><ele>480.99999999999994</ele><time>2026-04-11T06:13:52.997Z</time></trkpt><trkpt lat="43.479275" lon="11.3689717"><ele>481.0</ele><time>2026-04-11T06:13:55.998Z</time></trkpt><trkpt lat="43.4793183" lon="11.3689083"><ele>480.99999999999994</ele><time>2026-04-11T06:13:58.998Z</time></trkpt><trkpt lat="43.4793617" lon="11.3688367"><ele>480.99999999999994</ele><time>2026-04-11T06:14:01.997Z</time></trkpt><trkpt lat="43.4794133" lon="11.3687617"><ele>481.1428571428571</ele><time>2026-04-11T06:14:04.998Z</time></trkpt><trkpt lat="43.479475" lon="11.3686833"><ele>481.2857142857143</ele><time>2026-04-11T06:14:08.997Z</time></trkpt><trkpt lat="43.479525" lon="11.3686117"><ele>481.42857142857144</ele><time>2026-04-11T06:14:11.997Z</time></trkpt><trkpt lat="43.479575" lon="11.3685483"><ele>481.57142857142856</ele><time>2026-04-11T06:14:14.997Z</time></trkpt><trkpt lat="43.4796217" lon="11.368475"><ele>481.7142857142858</ele><time>2026-04-11T06:14:17.997Z</time></trkpt><trkpt lat="43.4796733" lon="11.368405"><ele>481.8571428571429</ele><time>2026-04-11T06:14:20.998Z</time></trkpt><trkpt lat="43.4797217" lon="11.3683367"><ele>482.0</ele><time>2026-04-11T06:14:23.997Z</time></trkpt><trkpt lat="43.4797767" lon="11.3682667"><ele>481.99999999999994</ele><time>2026-04-11T06:14:26.997Z</time></trkpt><trkpt lat="43.4798283" lon="11.3681867"><ele>482.0</ele><time>2026-04-11T06:14:29.997Z</time></trkpt><trkpt lat="43.4798783" lon="11.36811"><ele>482.0</ele><time>2026-04-11T06:14:32.997Z</time></trkpt><trkpt lat="43.4799317" lon="11.3680233"><ele>482.0</ele><time>2026-04-11T06:14:35.997Z</time></trkpt><trkpt lat="43.4799867" lon="11.367945"><ele>481.99999999999994</ele><time>2026-04-11T06:14:38.998Z</time></trkpt><trkpt lat="43.4800533" lon="11.3678583"><ele>482.0</ele><time>2026-04-11T06:14:41.997Z</time></trkpt><trkpt lat="43.48011" lon="11.3677917"><ele>483.14285714285717</ele><time>2026-04-11T06:14:43.997Z</time></trkpt><trkpt lat="43.4801783" lon="11.3677383"><ele>484.28571428571433</ele><time>2026-04-11T06:14:45.997Z</time></trkpt><trkpt lat="43.4802517" lon="11.3677117"><ele>485.42857142857144</ele><time>2026-04-11T06:14:47.998Z</time></trkpt><trkpt lat="43.4803233" lon="11.367705"><ele>486.57142857142856</ele><time>2026-04-11T06:14:49.997Z</time></trkpt><trkpt lat="43.48039" lon="11.3677183"><ele>487.7142857142857</ele><time>2026-04-11T06:14:51.997Z</time></trkpt><trkpt lat="43.48046" lon="11.367735"><ele>488.8571428571429</ele><time>2026-04-11T06:14:53.998Z</time></trkpt><trkpt lat="43.4805367" lon="11.3677433"><ele>490.0</ele><time>2026-04-11T06:14:55.997Z</time></trkpt><trkpt lat="43.4806167" lon="11.3677383"><ele>490.0</ele><time>2026-04-11T06:14:57.997Z</time></trkpt><trkpt lat="43.4806883" lon="11.367715"><ele>490.0</ele><time>2026-04-11T06:14:59.997Z</time></trkpt><trkpt lat="43.4807517" lon="11.3676667"><ele>490.0</ele><time>2026-04-11T06:15:01.997Z</time></trkpt><trkpt lat="43.4808117" lon="11.36761"><ele>490.0</ele><time>2026-04-11T06:15:03.997Z</time></trkpt><trkpt lat="43.4808583" lon="11.3675433"><ele>490.0</ele><time>2026-04-11T06:15:05.997Z</time></trkpt><trkpt lat="43.4808967" lon="11.3674683"><ele>490.0</ele><time>2026-04-11T06:15:07.997Z</time></trkpt><trkpt lat="43.48094" lon="11.367395"><ele>490.0</ele><time>2026-04-11T06:15:09.997Z</time></trkpt><trkpt lat="43.4809933" lon="11.36732"><ele>490.00000000000006</ele><time>2026-04-11T06:15:11.997Z</time></trkpt><trkpt lat="43.4810667" lon="11.36725"><ele>490.0</ele><time>2026-04-11T06:15:13.997Z</time></trkpt><trkpt lat="43.4811417" lon="11.3672117"><ele>490.0</ele><time>2026-04-11T06:15:15.997Z</time></trkpt><trkpt lat="43.4812217" lon="11.3671817"><ele>490.0</ele><time>2026-04-11T06:15:17.997Z</time></trkpt><trkpt lat="43.481305" lon="11.3671567"><ele>490.00000000000006</ele><time>2026-04-11T06:15:19.997Z</time></trkpt><trkpt lat="43.4813817" lon="11.3671533"><ele>490.0</ele><time>2026-04-11T06:15:21.997Z</time></trkpt><trkpt lat="43.48146" lon="11.36716"><ele>491.00000000000006</ele><time>2026-04-11T06:15:23.997Z</time></trkpt><trkpt lat="43.48153" lon="11.36714"><ele>492.0</ele><time>2026-04-11T06:15:25.997Z</time></trkpt><trkpt lat="43.4816017" lon="11.3671133"><ele>493.0</ele><time>2026-04-11T06:15:27.997Z</time></trkpt><trkpt lat="43.4816767" lon="11.3670767"><ele>494.0</ele><time>2026-04-11T06:15:29.997Z</time></trkpt><trkpt lat="43.4817483" lon="11.3670383"><ele>495.00000000000006</ele><time>2026-04-11T06:15:31.997Z</time></trkpt><trkpt lat="43.481815" lon="11.36699"><ele>496.0</ele><time>2026-04-11T06:15:33.997Z</time></trkpt><trkpt lat="43.481875" lon="11.3669333"><ele>496.00000000000006</ele><time>2026-04-11T06:15:35.997Z</time></trkpt><trkpt lat="43.4819317" lon="11.3668667"><ele>496.0</ele><time>2026-04-11T06:15:37.997Z</time></trkpt><trkpt lat="43.4819833" lon="11.3668017"><ele>496.0</ele><time>2026-04-11T06:15:39.997Z</time></trkpt><trkpt lat="43.4820283" lon="11.3667367"><ele>496.0</ele><time>2026-04-11T06:15:41.997Z</time></trkpt><trkpt lat="43.4820967" lon="11.3666483"><ele>496.00000000000006</ele><time>2026-04-11T06:15:44.997Z</time></trkpt><trkpt lat="43.4821517" lon="11.366575"><ele>496.0</ele><time>2026-04-11T06:15:46.997Z</time></trkpt><trkpt lat="43.482215" lon="11.3664933"><ele>495.33333333333337</ele><time>2026-04-11T06:15:48.997Z</time></trkpt><trkpt lat="43.4822783" lon="11.366435"><ele>494.6666666666667</ele><time>2026-04-11T06:15:50.997Z</time></trkpt><trkpt lat="43.482355" lon="11.3663967"><ele>494.0</ele><time>2026-04-11T06:15:52.997Z</time></trkpt><trkpt lat="43.4824217" lon="11.3663967"><ele>493.33333333333337</ele><time>2026-04-11T06:15:54.998Z</time></trkpt><trkpt lat="43.4825233" lon="11.3664233"><ele>492.6666666666667</ele><time>2026-04-11T06:15:56.997Z</time></trkpt><trkpt lat="43.48261" lon="11.366445"><ele>492.0</ele><time>2026-04-11T06:15:58.997Z</time></trkpt><trkpt lat="43.482685" lon="11.36646"><ele>492.00000000000006</ele><time>2026-04-11T06:16:00.997Z</time></trkpt><trkpt lat="43.482755" lon="11.36648"><ele>492.0</ele><time>2026-04-11T06:16:02.998Z</time></trkpt><trkpt lat="43.4828217" lon="11.366495"><ele>492.00000000000006</ele><time>2026-04-11T06:16:04.997Z</time></trkpt><trkpt lat="43.4828883" lon="11.3665117"><ele>492.00000000000006</ele><time>2026-04-11T06:16:06.998Z</time></trkpt><trkpt lat="43.482955" lon="11.3665233"><ele>492.0</ele><time>2026-04-11T06:16:08.997Z</time></trkpt><trkpt lat="43.4830333" lon="11.3665317"><ele>492.00000000000006</ele><time>2026-04-11T06:16:11.997Z</time></trkpt><trkpt lat="43.48312" lon="11.366505"><ele>492.00000000000006</ele><time>2026-04-11T06:16:14.998Z</time></trkpt><trkpt lat="43.48319" lon="11.3664433"><ele>492.1666666666667</ele><time>2026-04-11T06:16:17.997Z</time></trkpt><trkpt lat="43.483265" lon="11.3663633"><ele>492.33333333333337</ele><time>2026-04-11T06:16:19.997Z</time></trkpt><trkpt lat="43.4833333" lon="11.3663"><ele>492.5</ele><time>2026-04-11T06:16:21.998Z</time></trkpt><trkpt lat="43.4833967" lon="11.3662433"><ele>492.6666666666667</ele><time>2026-04-11T06:16:23.997Z</time></trkpt><trkpt lat="43.4834483" lon="11.3661733"><ele>492.83333333333337</ele><time>2026-04-11T06:16:25.997Z</time></trkpt><trkpt lat="43.4834967" lon="11.3661117"><ele>493.0</ele><time>2026-04-11T06:16:27.997Z</time></trkpt><trkpt lat="43.4835567" lon="11.36601"><ele>494.1428571428571</ele><time>2026-04-11T06:16:30.997Z</time></trkpt><trkpt lat="43.4836033" lon="11.3659483"><ele>495.28571428571433</ele><time>2026-04-11T06:16:32.997Z</time></trkpt><trkpt lat="43.4836483" lon="11.3658833"><ele>496.42857142857144</ele><time>2026-04-11T06:16:34.997Z</time></trkpt><trkpt lat="43.4836967" lon="11.365815"><ele>497.57142857142856</ele><time>2026-04-11T06:16:36.997Z</time></trkpt><trkpt lat="43.4837417" lon="11.3657517"><ele>498.71428571428567</ele><time>2026-04-11T06:16:38.997Z</time></trkpt><trkpt lat="43.4837867" lon="11.365685"><ele>499.8571428571429</ele><time>2026-04-11T06:16:40.997Z</time></trkpt><trkpt lat="43.4838417" lon="11.365625"><ele>501.0</ele><time>2026-04-11T06:16:42.998Z</time></trkpt><trkpt lat="43.4839167" lon="11.3655517"><ele>501.0</ele><time>2026-04-11T06:16:45.997Z</time></trkpt><trkpt lat="43.4840117" lon="11.36552"><ele>501.0</ele><time>2026-04-11T06:16:48.997Z</time></trkpt><trkpt lat="43.4840833" lon="11.36553"><ele>501.0</ele><time>2026-04-11T06:16:50.997Z</time></trkpt><trkpt lat="43.4841567" lon="11.3655667"><ele>501.0</ele><time>2026-04-11T06:16:52.997Z</time></trkpt><trkpt lat="43.4842383" lon="11.365635"><ele>501.0</ele><time>2026-04-11T06:16:54.998Z</time></trkpt><trkpt lat="43.4843083" lon="11.36572"><ele>501.0</ele><time>2026-04-11T06:16:56.997Z</time></trkpt><trkpt lat="43.4843667" lon="11.365815"><ele>501.0</ele><time>2026-04-11T06:16:58.997Z</time></trkpt><trkpt lat="43.4843883" lon="11.3659367"><ele>501.0</ele><time>2026-04-11T06:17:00.997Z</time></trkpt><trkpt lat="43.4843917" lon="11.36609"><ele>501.0</ele><time>2026-04-11T06:17:02.997Z</time></trkpt><trkpt lat="43.4843717" lon="11.3662433"><ele>501.0</ele><time>2026-04-11T06:17:04.997Z</time></trkpt><trkpt lat="43.4843633" lon="11.3664017"><ele>501.0</ele><time>2026-04-11T06:17:06.997Z</time></trkpt><trkpt lat="43.48436" lon="11.3665683"><ele>499.5</ele><time>2026-04-11T06:17:08.997Z</time></trkpt><trkpt lat="43.4843733" lon="11.36674"><ele>498.0</ele><time>2026-04-11T06:17:10.997Z</time></trkpt><trkpt lat="43.4844017" lon="11.3668983"><ele>496.5</ele><time>2026-04-11T06:17:12.997Z</time></trkpt><trkpt lat="43.4844417" lon="11.3670483"><ele>495.0</ele><time>2026-04-11T06:17:14.998Z</time></trkpt><trkpt lat="43.4844767" lon="11.3671933"><ele>494.8</ele><time>2026-04-11T06:17:16.998Z</time></trkpt><trkpt lat="43.48451" lon="11.3673433"><ele>494.6</ele><time>2026-04-11T06:17:18.997Z</time></trkpt><trkpt lat="43.484545" lon="11.367485"><ele>494.4</ele><time>2026-04-11T06:17:20.997Z</time></trkpt><trkpt lat="43.4845783" lon="11.367625"><ele>494.2</ele><time>2026-04-11T06:17:22.997Z</time></trkpt><trkpt lat="43.4846067" lon="11.367765"><ele>494.0</ele><time>2026-04-11T06:17:24.998Z</time></trkpt><trkpt lat="43.48462" lon="11.3679017"><ele>495.6</ele><time>2026-04-11T06:17:26.997Z</time></trkpt><trkpt lat="43.4846367" lon="11.368065"><ele>497.2</ele><time>2026-04-11T06:17:28.997Z</time></trkpt><trkpt lat="43.4846533" lon="11.3682133"><ele>498.80000000000007</ele><time>2026-04-11T06:17:30.997Z</time></trkpt><trkpt lat="43.4846733" lon="11.3683583"><ele>500.40000000000003</ele><time>2026-04-11T06:17:32.998Z</time></trkpt><trkpt lat="43.4846867" lon="11.36848"><ele>502.0</ele><time>2026-04-11T06:17:34.997Z</time></trkpt><trkpt lat="43.484705" lon="11.368595"><ele>502.00000000000006</ele><time>2026-04-11T06:17:36.997Z</time></trkpt><trkpt lat="43.484715" lon="11.36871"><ele>502.0</ele><time>2026-04-11T06:17:38.997Z</time></trkpt><trkpt lat="43.4847267" lon="11.3688183"><ele>502.0</ele><time>2026-04-11T06:17:40.997Z</time></trkpt><trkpt lat="43.4847467" lon="11.3689133"><ele>502.0</ele><time>2026-04-11T06:17:42.997Z</time></trkpt><trkpt lat="43.48476" lon="11.3690183"><ele>502.00000000000006</ele><time>2026-04-11T06:17:44.997Z</time></trkpt><trkpt lat="43.4847833" lon="11.36911"><ele>502.0</ele><time>2026-04-11T06:17:46.998Z</time></trkpt><trkpt lat="43.484805" lon="11.3692033"><ele>502.83333333333337</ele><time>2026-04-11T06:17:48.997Z</time></trkpt><trkpt lat="43.48484" lon="11.36929"><ele>503.6666666666667</ele><time>2026-04-11T06:17:50.997Z</time></trkpt><trkpt lat="43.4848883" lon="11.369385"><ele>504.5</ele><time>2026-04-11T06:17:52.997Z</time></trkpt><trkpt lat="43.4849467" lon="11.36946"><ele>505.33333333333337</ele><time>2026-04-11T06:17:54.997Z</time></trkpt><trkpt lat="43.485" lon="11.3695367"><ele>506.1666666666667</ele><time>2026-04-11T06:17:56.997Z</time></trkpt><trkpt lat="43.48505" lon="11.3696133"><ele>507.0</ele><time>2026-04-11T06:17:58.997Z</time></trkpt><trkpt lat="43.4851117" lon="11.3696717"><ele>507.8333333333333</ele><time>2026-04-11T06:18:00.998Z</time></trkpt><trkpt lat="43.485175" lon="11.36973"><ele>508.66666666666663</ele><time>2026-04-11T06:18:02.997Z</time></trkpt><trkpt lat="43.4852317" lon="11.3697717"><ele>509.5</ele><time>2026-04-11T06:18:04.997Z</time></trkpt><trkpt lat="43.485315" lon="11.369805"><ele>510.3333333333333</ele><time>2026-04-11T06:18:07.997Z</time></trkpt><trkpt lat="43.4853767" lon="11.3698267"><ele>511.16666666666663</ele><time>2026-04-11T06:18:09.997Z</time></trkpt><trkpt lat="43.485455" lon="11.3698383"><ele>512.0</ele><time>2026-04-11T06:18:12.997Z</time></trkpt><trkpt lat="43.4855517" lon="11.3698633"><ele>512.0</ele><time>2026-04-11T06:18:15.997Z</time></trkpt><trkpt lat="43.48562" lon="11.369895"><ele>511.99999999999994</ele><time>2026-04-11T06:18:17.997Z</time></trkpt><trkpt lat="43.4856833" lon="11.369935"><ele>512.0</ele><time>2026-04-11T06:18:19.997Z</time></trkpt><trkpt lat="43.48575" lon="11.3699817"><ele>512.0</ele><time>2026-04-11T06:18:22.998Z</time></trkpt><trkpt lat="43.485795" lon="11.3700467"><ele>511.99999999999994</ele><time>2026-04-11T06:18:25.997Z</time></trkpt><trkpt lat="43.485845" lon="11.3701233"><ele>512.0</ele><time>2026-04-11T06:18:28.997Z</time></trkpt><trkpt lat="43.4858883" lon="11.3701917"><ele>512.0</ele><time>2026-04-11T06:18:30.997Z</time></trkpt><trkpt lat="43.4859433" lon="11.37028"><ele>511.99999999999994</ele><time>2026-04-11T06:18:32.997Z</time></trkpt><trkpt lat="43.4859833" lon="11.370365"><ele>512.0</ele><time>2026-04-11T06:18:34.997Z</time></trkpt><trkpt lat="43.4860133" lon="11.37045"><ele>512.0</ele><time>2026-04-11T06:18:36.997Z</time></trkpt><trkpt lat="43.4860417" lon="11.3705433"><ele>512.0</ele><time>2026-04-11T06:18:38.997Z</time></trkpt><trkpt lat="43.486065" lon="11.3706267"><ele>511.99999999999994</ele><time>2026-04-11T06:18:40.998Z</time></trkpt><trkpt lat="43.486095" lon="11.3707483"><ele>512.0</ele><time>2026-04-11T06:18:43.997Z</time></trkpt><trkpt lat="43.486125" lon="11.370855"><ele>513.1666666666666</ele><time>2026-04-11T06:18:46.997Z</time></trkpt><trkpt lat="43.4861533" lon="11.3709633"><ele>514.3333333333333</ele><time>2026-04-11T06:18:49.997Z</time></trkpt><trkpt lat="43.4861817" lon="11.3710683"><ele>515.5</ele><time>2026-04-11T06:18:52.997Z</time></trkpt><trkpt lat="43.4862" lon="11.37117"><ele>516.6666666666666</ele><time>2026-04-11T06:18:55.997Z</time></trkpt><trkpt lat="43.4862183" lon="11.3712667"><ele>517.8333333333334</ele><time>2026-04-11T06:18:58.998Z</time></trkpt><trkpt lat="43.4862367" lon="11.3713667"><ele>519.0</ele><time>2026-04-11T06:19:01.997Z</time></trkpt><trkpt lat="43.4862533" lon="11.371475"><ele>516.5</ele><time>2026-04-11T06:19:04.998Z</time></trkpt><trkpt lat="43.4862717" lon="11.3715767"><ele>514.0</ele><time>2026-04-11T06:19:07.997Z</time></trkpt><trkpt lat="43.4862833" lon="11.3716833"><ele>511.5</ele><time>2026-04-11T06:19:10.997Z</time></trkpt><trkpt lat="43.4862917" lon="11.37179"><ele>509.0</ele><time>2026-04-11T06:19:13.997Z</time></trkpt><trkpt lat="43.486295" lon="11.3719017"><ele>506.5</ele><time>2026-04-11T06:19:16.997Z</time></trkpt><trkpt lat="43.4863017" lon="11.372"><ele>504.0</ele><time>2026-04-11T06:19:19.997Z</time></trkpt><trkpt lat="43.4863033" lon="11.3721083"><ele>505.57142857142856</ele><time>2026-04-11T06:19:22.997Z</time></trkpt><trkpt lat="43.4863217" lon="11.372215"><ele>507.1428571428571</ele><time>2026-04-11T06:19:25.997Z</time></trkpt><trkpt lat="43.48634" lon="11.3723133"><ele>508.7142857142857</ele><time>2026-04-11T06:19:28.998Z</time></trkpt><trkpt lat="43.486365" lon="11.3724083"><ele>510.2857142857143</ele><time>2026-04-11T06:19:31.997Z</time></trkpt><trkpt lat="43.4863867" lon="11.3724917"><ele>511.85714285714283</ele><time>2026-04-11T06:19:34.998Z</time></trkpt><trkpt lat="43.4863833" lon="11.3726067"><ele>513.4285714285714</ele><time>2026-04-11T06:19:38.997Z</time></trkpt><trkpt lat="43.48639" lon="11.3727033"><ele>515.0</ele><time>2026-04-11T06:19:41.997Z</time></trkpt><trkpt lat="43.4864" lon="11.37279"><ele>515.0</ele><time>2026-04-11T06:19:44.997Z</time></trkpt><trkpt lat="43.4864083" lon="11.37289"><ele>515.0</ele><time>2026-04-11T06:19:48.997Z</time></trkpt><trkpt lat="43.486415" lon="11.3729767"><ele>515.0</ele><time>2026-04-11T06:19:52.997Z</time></trkpt><trkpt lat="43.4864483" lon="11.3730517"><ele>515.0</ele><time>2026-04-11T06:19:56.997Z</time></trkpt><trkpt lat="43.4864733" lon="11.3731317"><ele>515.0</ele><time>2026-04-11T06:20:00.997Z</time></trkpt><trkpt lat="43.486535" lon="11.3731867"><ele>515.0</ele><time>2026-04-11T06:22:10.997Z</time></trkpt><trkpt lat="43.4866141" lon="11.3732451"><ele>515.0</ele><time>2026-04-11T06:27:46.971Z</time></trkpt><trkpt lat="43.4865517" lon="11.3731783"><ele>517.5</ele><time>2026-04-11T06:30:05.998Z</time></trkpt><trkpt lat="43.4864767" lon="11.3732167"><ele>520.0</ele><time>2026-04-11T06:30:09.997Z</time></trkpt><trkpt lat="43.4864133" lon="11.373265"><ele>522.5</ele><time>2026-04-11T06:30:14.997Z</time></trkpt><trkpt lat="43.48637" lon="11.373355"><ele>525.0</ele><time>2026-04-11T06:30:18.998Z</time></trkpt><trkpt lat="43.4863367" lon="11.3734667"><ele>527.5</ele><time>2026-04-11T06:30:21.997Z</time></trkpt><trkpt lat="43.4863083" lon="11.3735767"><ele>530.0</ele><time>2026-04-11T06:30:24.997Z</time></trkpt><trkpt lat="43.4862967" lon="11.37369"><ele>530.0</ele><time>2026-04-11T06:30:27.997Z</time></trkpt><trkpt lat="43.4862617" lon="11.3738"><ele>530.0</ele><time>2026-04-11T06:30:30.998Z</time></trkpt><trkpt lat="43.4862167" lon="11.3738983"><ele>530.0</ele><time>2026-04-11T06:30:32.997Z</time></trkpt><trkpt lat="43.4861767" lon="11.3739933"><ele>530.0</ele><time>2026-04-11T06:30:34.997Z</time></trkpt><trkpt lat="43.48615" lon="11.3740983"><ele>530.0</ele><time>2026-04-11T06:30:36.997Z</time></trkpt><trkpt lat="43.486125" lon="11.37421"><ele>530.0</ele><time>2026-04-11T06:30:38.997Z</time></trkpt><trkpt lat="43.486115" lon="11.37431"><ele>530.3333333333333</ele><time>2026-04-11T06:30:40.997Z</time></trkpt><trkpt lat="43.4861183" lon="11.374405"><ele>530.6666666666666</ele><time>2026-04-11T06:30:42.997Z</time></trkpt><trkpt lat="43.4861367" lon="11.374505"><ele>531.0</ele><time>2026-04-11T06:30:44.997Z</time></trkpt><trkpt lat="43.4861717" lon="11.3746033"><ele>531.3333333333334</ele><time>2026-04-11T06:30:46.997Z</time></trkpt><trkpt lat="43.4862233" lon="11.3747117"><ele>531.6666666666667</ele><time>2026-04-11T06:30:48.998Z</time></trkpt><trkpt lat="43.4862817" lon="11.374845"><ele>532.0</ele><time>2026-04-11T06:30:50.997Z</time></trkpt><trkpt lat="43.4863583" lon="11.3749733"><ele>532.0</ele><time>2026-04-11T06:30:52.997Z</time></trkpt><trkpt lat="43.4864" lon="11.375045"><ele>532.0</ele><time>2026-04-11T06:30:53.997Z</time></trkpt><trkpt lat="43.4864467" lon="11.375105"><ele>532.0</ele><time>2026-04-11T06:30:54.998Z</time></trkpt><trkpt lat="43.4865233" lon="11.3752267"><ele>532.0</ele><time>2026-04-11T06:30:56.997Z</time></trkpt><trkpt lat="43.4865917" lon="11.37535"><ele>532.0</ele><time>2026-04-11T06:30:58.997Z</time></trkpt><trkpt lat="43.4866617" lon="11.375475"><ele>530.0</ele><time>2026-04-11T06:31:00.997Z</time></trkpt><trkpt lat="43.4867283" lon="11.3755833"><ele>528.0</ele><time>2026-04-11T06:31:02.997Z</time></trkpt><trkpt lat="43.486785" lon="11.3756867"><ele>526.0</ele><time>2026-04-11T06:31:04.997Z</time></trkpt><trkpt lat="43.4868417" lon="11.3757867"><ele>524.0</ele><time>2026-04-11T06:31:06.998Z</time></trkpt><trkpt lat="43.4868767" lon="11.375915"><ele>522.0</ele><time>2026-04-11T06:31:08.997Z</time></trkpt><trkpt lat="43.4868917" lon="11.3760883"><ele>522.0</ele><time>2026-04-11T06:31:10.997Z</time></trkpt><trkpt lat="43.48689" lon="11.3761867"><ele>522.0</ele><time>2026-04-11T06:31:11.997Z</time></trkpt><trkpt lat="43.4868917" lon="11.3762783"><ele>522.0</ele><time>2026-04-11T06:31:12.997Z</time></trkpt><trkpt lat="43.4868917" lon="11.3763817"><ele>522.0</ele><time>2026-04-11T06:31:13.997Z</time></trkpt><trkpt lat="43.4868833" lon="11.37649"><ele>522.0</ele><time>2026-04-11T06:31:14.997Z</time></trkpt><trkpt lat="43.48687" lon="11.3766033"><ele>522.0</ele><time>2026-04-11T06:31:15.997Z</time></trkpt><trkpt lat="43.4868617" lon="11.37672"><ele>520.8333333333334</ele><time>2026-04-11T06:31:16.997Z</time></trkpt><trkpt lat="43.4868567" lon="11.376835"><ele>519.6666666666666</ele><time>2026-04-11T06:31:17.998Z</time></trkpt><trkpt lat="43.4868483" lon="11.3769517"><ele>518.5</ele><time>2026-04-11T06:31:18.997Z</time></trkpt><trkpt lat="43.48684" lon="11.37707"><ele>517.3333333333333</ele><time>2026-04-11T06:31:19.998Z</time></trkpt><trkpt lat="43.4868317" lon="11.3771933"><ele>516.1666666666666</ele><time>2026-04-11T06:31:20.997Z</time></trkpt><trkpt lat="43.48682" lon="11.377315"><ele>515.0</ele><time>2026-04-11T06:31:21.997Z</time></trkpt><trkpt lat="43.48681" lon="11.37743"><ele>515.0</ele><time>2026-04-11T06:31:22.997Z</time></trkpt><trkpt lat="43.4868117" lon="11.3775533"><ele>515.0</ele><time>2026-04-11T06:31:23.997Z</time></trkpt><trkpt lat="43.486815" lon="11.37767"><ele>515.0</ele><time>2026-04-11T06:31:24.997Z</time></trkpt><trkpt lat="43.4868133" lon="11.37778"><ele>515.0</ele><time>2026-04-11T06:31:25.997Z</time></trkpt><trkpt lat="43.4868217" lon="11.377895"><ele>515.0</ele><time>2026-04-11T06:31:26.998Z</time></trkpt><trkpt lat="43.48684" lon="11.3780083"><ele>515.0</ele><time>2026-04-11T06:31:27.997Z</time></trkpt><trkpt lat="43.486855" lon="11.378125"><ele>514.0</ele><time>2026-04-11T06:31:28.997Z</time></trkpt><trkpt lat="43.4868783" lon="11.3782217"><ele>513.0</ele><time>2026-04-11T06:31:29.998Z</time></trkpt><trkpt lat="43.4869083" lon="11.37833"><ele>512.0</ele><time>2026-04-11T06:31:30.997Z</time></trkpt><trkpt lat="43.486955" lon="11.3784383"><ele>511.0</ele><time>2026-04-11T06:31:31.997Z</time></trkpt><trkpt lat="43.487005" lon="11.3785567"><ele>510.0</ele><time>2026-04-11T06:31:32.997Z</time></trkpt><trkpt lat="43.487065" lon="11.3786717"><ele>509.2</ele><time>2026-04-11T06:31:33.997Z</time></trkpt><trkpt lat="43.4871267" lon="11.378785"><ele>508.4</ele><time>2026-04-11T06:31:34.997Z</time></trkpt><trkpt lat="43.48719" lon="11.3788983"><ele>507.6</ele><time>2026-04-11T06:31:35.997Z</time></trkpt><trkpt lat="43.4872583" lon="11.3790133"><ele>506.8</ele><time>2026-04-11T06:31:36.997Z</time></trkpt><trkpt lat="43.4873217" lon="11.3791283"><ele>506.0</ele><time>2026-04-11T06:31:37.997Z</time></trkpt><trkpt lat="43.4873817" lon="11.37924"><ele>506.0</ele><time>2026-04-11T06:31:38.997Z</time></trkpt><trkpt lat="43.487445" lon="11.3793483"><ele>506.0</ele><time>2026-04-11T06:31:39.997Z</time></trkpt><trkpt lat="43.4875167" lon="11.379445"><ele>506.0</ele><time>2026-04-11T06:31:40.998Z</time></trkpt><trkpt lat="43.4875983" lon="11.3795333"><ele>506.0</ele><time>2026-04-11T06:31:41.997Z</time></trkpt><trkpt lat="43.4876767" lon="11.3796233"><ele>506.0</ele><time>2026-04-11T06:31:42.997Z</time></trkpt><trkpt lat="43.4877517" lon="11.3797233"><ele>505.4</ele><time>2026-04-11T06:31:43.998Z</time></trkpt><trkpt lat="43.487815" lon="11.37984"><ele>504.8</ele><time>2026-04-11T06:31:44.997Z</time></trkpt><trkpt lat="43.4878533" lon="11.3799783"><ele>504.19999999999993</ele><time>2026-04-11T06:31:45.997Z</time></trkpt><trkpt lat="43.4878717" lon="11.380125"><ele>503.59999999999997</ele><time>2026-04-11T06:31:46.997Z</time></trkpt><trkpt lat="43.487885" lon="11.3802817"><ele>503.0</ele><time>2026-04-11T06:31:47.997Z</time></trkpt><trkpt lat="43.4878933" lon="11.3804433"><ele>502.5</ele><time>2026-04-11T06:31:48.997Z</time></trkpt><trkpt lat="43.487905" lon="11.3806067"><ele>502.0</ele><time>2026-04-11T06:31:49.997Z</time></trkpt><trkpt lat="43.487925" lon="11.380775"><ele>501.5</ele><time>2026-04-11T06:31:50.997Z</time></trkpt><trkpt lat="43.4879617" lon="11.38094"><ele>501.0</ele><time>2026-04-11T06:31:51.997Z</time></trkpt><trkpt lat="43.4880017" lon="11.38111"><ele>497.25</ele><time>2026-04-11T06:31:52.997Z</time></trkpt><trkpt lat="43.4880483" lon="11.3812733"><ele>493.5</ele><time>2026-04-11T06:31:53.997Z</time></trkpt><trkpt lat="43.4881017" lon="11.3814333"><ele>489.75</ele><time>2026-04-11T06:31:54.997Z</time></trkpt><trkpt lat="43.4881567" lon="11.3815833"><ele>486.0</ele><time>2026-04-11T06:31:55.997Z</time></trkpt><trkpt lat="43.4882133" lon="11.381725"><ele>486.0</ele><time>2026-04-11T06:31:56.997Z</time></trkpt><trkpt lat="43.4882533" lon="11.38187"><ele>486.0</ele><time>2026-04-11T06:31:57.997Z</time></trkpt><trkpt lat="43.4883217" lon="11.3820217"><ele>486.0</ele><time>2026-04-11T06:31:58.997Z</time></trkpt><trkpt lat="43.4883833" lon="11.382165"><ele>486.0</ele><time>2026-04-11T06:31:59.998Z</time></trkpt><trkpt lat="43.4884583" lon="11.382305"><ele>484.5</ele><time>2026-04-11T06:32:00.997Z</time></trkpt><trkpt lat="43.48854" lon="11.3824317"><ele>483.0</ele><time>2026-04-11T06:32:01.997Z</time></trkpt><trkpt lat="43.4886283" lon="11.3825517"><ele>481.5</ele><time>2026-04-11T06:32:02.997Z</time></trkpt><trkpt lat="43.4887333" lon="11.38266"><ele>480.0</ele><time>2026-04-11T06:32:03.997Z</time></trkpt><trkpt lat="43.4888517" lon="11.3827567"><ele>479.5</ele><time>2026-04-11T06:32:04.997Z</time></trkpt><trkpt lat="43.48897" lon="11.38285"><ele>479.0</ele><time>2026-04-11T06:32:05.997Z</time></trkpt><trkpt lat="43.4890833" lon="11.3829467"><ele>478.5</ele><time>2026-04-11T06:32:06.997Z</time></trkpt><trkpt lat="43.4891867" lon="11.3830533"><ele>478.0</ele><time>2026-04-11T06:32:07.997Z</time></trkpt><trkpt lat="43.4892883" lon="11.3831617"><ele>476.0</ele><time>2026-04-11T06:32:08.997Z</time></trkpt><trkpt lat="43.4893917" lon="11.3832733"><ele>474.0</ele><time>2026-04-11T06:32:09.997Z</time></trkpt><trkpt lat="43.4894967" lon="11.3833733"><ele>472.0</ele><time>2026-04-11T06:32:10.997Z</time></trkpt><trkpt lat="43.489585" lon="11.3834767"><ele>470.0</ele><time>2026-04-11T06:32:11.997Z</time></trkpt><trkpt lat="43.4896733" lon="11.3835717"><ele>468.6</ele><time>2026-04-11T06:32:12.997Z</time></trkpt><trkpt lat="43.48976" lon="11.3836583"><ele>467.2</ele><time>2026-04-11T06:32:13.997Z</time></trkpt><trkpt lat="43.4898333" lon="11.3837633"><ele>465.79999999999995</ele><time>2026-04-11T06:32:14.997Z</time></trkpt><trkpt lat="43.4899083" lon="11.3838767"><ele>464.4</ele><time>2026-04-11T06:32:15.997Z</time></trkpt><trkpt lat="43.4899683" lon="11.3839967"><ele>463.0</ele><time>2026-04-11T06:32:16.997Z</time></trkpt><trkpt lat="43.49" lon="11.3841267"><ele>463.0</ele><time>2026-04-11T06:32:17.998Z</time></trkpt><trkpt lat="43.49003" lon="11.38427"><ele>462.99999999999994</ele><time>2026-04-11T06:32:18.997Z</time></trkpt><trkpt lat="43.4900417" lon="11.384425"><ele>462.99999999999994</ele><time>2026-04-11T06:32:19.998Z</time></trkpt><trkpt lat="43.4900533" lon="11.38457"><ele>463.0</ele><time>2026-04-11T06:32:20.997Z</time></trkpt><trkpt lat="43.49008" lon="11.3847117"><ele>463.0</ele><time>2026-04-11T06:32:21.997Z</time></trkpt><trkpt lat="43.4901283" lon="11.3848517"><ele>462.0</ele><time>2026-04-11T06:32:22.997Z</time></trkpt><trkpt lat="43.4901867" lon="11.384965"><ele>460.99999999999994</ele><time>2026-04-11T06:32:23.997Z</time></trkpt><trkpt lat="43.4902367" lon="11.385065"><ele>459.99999999999994</ele><time>2026-04-11T06:32:24.998Z</time></trkpt><trkpt lat="43.4902717" lon="11.38516"><ele>459.0</ele><time>2026-04-11T06:32:25.997Z</time></trkpt><trkpt lat="43.490285" lon="11.38525"><ele>458.0</ele><time>2026-04-11T06:32:26.997Z</time></trkpt><trkpt lat="43.4902967" lon="11.38541"><ele>458.25</ele><time>2026-04-11T06:32:28.997Z</time></trkpt><trkpt lat="43.4903017" lon="11.3855783"><ele>458.5</ele><time>2026-04-11T06:32:30.997Z</time></trkpt><trkpt lat="43.4903" lon="11.3857483"><ele>458.75</ele><time>2026-04-11T06:32:32.997Z</time></trkpt><trkpt lat="43.4902783" lon="11.3859167"><ele>459.0</ele><time>2026-04-11T06:32:34.997Z</time></trkpt><trkpt lat="43.49023" lon="11.3860733"><ele>459.0</ele><time>2026-04-11T06:32:36.997Z</time></trkpt><trkpt lat="43.4901833" lon="11.386135"><ele>459.0</ele><time>2026-04-11T06:32:37.998Z</time></trkpt><trkpt lat="43.4901233" lon="11.38619"><ele>459.0</ele><time>2026-04-11T06:32:38.998Z</time></trkpt><trkpt lat="43.49007" lon="11.38624"><ele>459.0</ele><time>2026-04-11T06:32:39.997Z</time></trkpt><trkpt lat="43.4900067" lon="11.386275"><ele>459.0</ele><time>2026-04-11T06:32:40.997Z</time></trkpt><trkpt lat="43.4899417" lon="11.3862883"><ele>459.0</ele><time>2026-04-11T06:32:41.997Z</time></trkpt><trkpt lat="43.48988" lon="11.3862667"><ele>459.0</ele><time>2026-04-11T06:32:42.997Z</time></trkpt><trkpt lat="43.4898233" lon="11.3862217"><ele>459.0</ele><time>2026-04-11T06:32:43.997Z</time></trkpt><trkpt lat="43.489705" lon="11.3862117"><ele>459.0</ele><time>2026-04-11T06:32:45.998Z</time></trkpt><trkpt lat="43.489655" lon="11.386265"><ele>459.0</ele><time>2026-04-11T06:32:46.997Z</time></trkpt><trkpt lat="43.4896367" lon="11.3863567"><ele>459.0</ele><time>2026-04-11T06:32:47.997Z</time></trkpt><trkpt lat="43.4896317" lon="11.3864583"><ele>459.0</ele><time>2026-04-11T06:32:48.997Z</time></trkpt><trkpt lat="43.48962" lon="11.3865567"><ele>459.0</ele><time>2026-04-11T06:32:49.998Z</time></trkpt><trkpt lat="43.489605" lon="11.3866517"><ele>456.79999999999995</ele><time>2026-04-11T06:32:50.997Z</time></trkpt><trkpt lat="43.489585" lon="11.386745"><ele>454.59999999999997</ele><time>2026-04-11T06:32:51.997Z</time></trkpt><trkpt lat="43.4895717" lon="11.386835"><ele>452.4</ele><time>2026-04-11T06:32:52.997Z</time></trkpt><trkpt lat="43.48954" lon="11.3869883"><ele>450.2</ele><time>2026-04-11T06:32:54.998Z</time></trkpt><trkpt lat="43.489525" lon="11.3871383"><ele>448.0</ele><time>2026-04-11T06:32:56.997Z</time></trkpt><trkpt lat="43.489515" lon="11.38729"><ele>448.0</ele><time>2026-04-11T06:32:58.997Z</time></trkpt><trkpt lat="43.4895033" lon="11.3874533"><ele>448.0</ele><time>2026-04-11T06:33:00.997Z</time></trkpt><trkpt lat="43.4894783" lon="11.387605"><ele>448.0</ele><time>2026-04-11T06:33:02.997Z</time></trkpt><trkpt lat="43.48946" lon="11.3877583"><ele>448.0</ele><time>2026-04-11T06:33:04.997Z</time></trkpt><trkpt lat="43.4894483" lon="11.3879217"><ele>448.59999999999997</ele><time>2026-04-11T06:33:06.997Z</time></trkpt><trkpt lat="43.4894333" lon="11.38807"><ele>449.19999999999993</ele><time>2026-04-11T06:33:08.997Z</time></trkpt><trkpt lat="43.4894183" lon="11.3882233"><ele>449.8</ele><time>2026-04-11T06:33:10.997Z</time></trkpt><trkpt lat="43.4893983" lon="11.3883683"><ele>450.4</ele><time>2026-04-11T06:33:12.997Z</time></trkpt><trkpt lat="43.4893867" lon="11.3885133"><ele>451.0</ele><time>2026-04-11T06:33:14.997Z</time></trkpt><trkpt lat="43.4893667" lon="11.3886467"><ele>451.0</ele><time>2026-04-11T06:33:16.998Z</time></trkpt><trkpt lat="43.489335" lon="11.3887883"><ele>451.0</ele><time>2026-04-11T06:33:18.997Z</time></trkpt><trkpt lat="43.4892933" lon="11.38892"><ele>451.0</ele><time>2026-04-11T06:33:20.997Z</time></trkpt><trkpt lat="43.4892683" lon="11.3890333"><ele>451.0</ele><time>2026-04-11T06:33:22.997Z</time></trkpt><trkpt lat="43.4892483" lon="11.3891517"><ele>451.0</ele><time>2026-04-11T06:33:24.997Z</time></trkpt><trkpt lat="43.4892633" lon="11.3892633"><ele>451.4</ele><time>2026-04-11T06:33:26.997Z</time></trkpt><trkpt lat="43.4892867" lon="11.3893617"><ele>451.8</ele><time>2026-04-11T06:33:28.997Z</time></trkpt><trkpt lat="43.4893183" lon="11.389485"><ele>452.19999999999993</ele><time>2026-04-11T06:33:30.997Z</time></trkpt><trkpt lat="43.4893667" lon="11.38962"><ele>452.59999999999997</ele><time>2026-04-11T06:33:32.997Z</time></trkpt><trkpt lat="43.4894083" lon="11.3897467"><ele>453.0</ele><time>2026-04-11T06:33:34.997Z</time></trkpt><trkpt lat="43.4894583" lon="11.3898833"><ele>453.0</ele><time>2026-04-11T06:33:36.997Z</time></trkpt><trkpt lat="43.48951" lon="11.3900167"><ele>452.99999999999994</ele><time>2026-04-11T06:33:38.997Z</time></trkpt><trkpt lat="43.4895517" lon="11.3901383"><ele>452.99999999999994</ele><time>2026-04-11T06:33:40.997Z</time></trkpt><trkpt lat="43.48959" lon="11.3902617"><ele>453.0</ele><time>2026-04-11T06:33:42.997Z</time></trkpt><trkpt lat="43.4896267" lon="11.3903767"><ele>453.0</ele><time>2026-04-11T06:33:44.997Z</time></trkpt><trkpt lat="43.4896683" lon="11.3904717"><ele>454.2</ele><time>2026-04-11T06:33:46.998Z</time></trkpt><trkpt lat="43.48971" lon="11.3905783"><ele>455.4</ele><time>2026-04-11T06:33:48.998Z</time></trkpt><trkpt lat="43.48977" lon="11.3907"><ele>456.59999999999997</ele><time>2026-04-11T06:33:50.997Z</time></trkpt><trkpt lat="43.4898383" lon="11.3908283"><ele>457.79999999999995</ele><time>2026-04-11T06:33:52.997Z</time></trkpt><trkpt lat="43.4899217" lon="11.3909367"><ele>459.0</ele><time>2026-04-11T06:33:54.997Z</time></trkpt><trkpt lat="43.4899967" lon="11.3910317"><ele>459.0</ele><time>2026-04-11T06:33:56.997Z</time></trkpt><trkpt lat="43.4900867" lon="11.3911383"><ele>459.0</ele><time>2026-04-11T06:33:58.997Z</time></trkpt><trkpt lat="43.490155" lon="11.39127"><ele>459.0</ele><time>2026-04-11T06:34:00.997Z</time></trkpt><trkpt lat="43.4901783" lon="11.391415"><ele>459.0</ele><time>2026-04-11T06:34:02.997Z</time></trkpt><trkpt lat="43.49018" lon="11.3915667"><ele>458.6</ele><time>2026-04-11T06:34:04.998Z</time></trkpt><trkpt lat="43.4901717" lon="11.3917117"><ele>458.2</ele><time>2026-04-11T06:34:06.997Z</time></trkpt><trkpt lat="43.4901667" lon="11.3918417"><ele>457.80000000000007</ele><time>2026-04-11T06:34:08.998Z</time></trkpt><trkpt lat="43.4901583" lon="11.39197"><ele>457.40000000000003</ele><time>2026-04-11T06:34:10.997Z</time></trkpt><trkpt lat="43.4901633" lon="11.39209"><ele>457.0</ele><time>2026-04-11T06:34:12.997Z</time></trkpt><trkpt lat="43.4901633" lon="11.39219"><ele>457.00000000000006</ele><time>2026-04-11T06:34:14.998Z</time></trkpt><trkpt lat="43.4901717" lon="11.3922983"><ele>457.0</ele><time>2026-04-11T06:34:16.997Z</time></trkpt><trkpt lat="43.4901833" lon="11.392385"><ele>457.0</ele><time>2026-04-11T06:34:18.997Z</time></trkpt><trkpt lat="43.4902133" lon="11.39251"><ele>457.0</ele><time>2026-04-11T06:34:21.997Z</time></trkpt><trkpt lat="43.490225" lon="11.3925983"><ele>457.00000000000006</ele><time>2026-04-11T06:34:23.997Z</time></trkpt><trkpt lat="43.4902467" lon="11.3926933"><ele>457.0</ele><time>2026-04-11T06:34:25.997Z</time></trkpt><trkpt lat="43.49028" lon="11.392785"><ele>457.00000000000006</ele><time>2026-04-11T06:34:27.997Z</time></trkpt><trkpt lat="43.49031" lon="11.3928817"><ele>457.0</ele><time>2026-04-11T06:34:29.997Z</time></trkpt><trkpt lat="43.49034" lon="11.3929867"><ele>457.0</ele><time>2026-04-11T06:34:31.997Z</time></trkpt><trkpt lat="43.4903717" lon="11.3930883"><ele>457.0</ele><time>2026-04-11T06:34:33.998Z</time></trkpt><trkpt lat="43.49039" lon="11.3931833"><ele>457.00000000000006</ele><time>2026-04-11T06:34:35.997Z</time></trkpt><trkpt lat="43.4903917" lon="11.3933033"><ele>457.0</ele><time>2026-04-11T06:34:38.998Z</time></trkpt><trkpt lat="43.490395" lon="11.3934"><ele>457.4285714285715</ele><time>2026-04-11T06:34:40.997Z</time></trkpt><trkpt lat="43.4903817" lon="11.39349"><ele>457.8571428571429</ele><time>2026-04-11T06:34:42.997Z</time></trkpt><trkpt lat="43.4903667" lon="11.3935917"><ele>458.2857142857143</ele><time>2026-04-11T06:34:44.998Z</time></trkpt><trkpt lat="43.49035" lon="11.3936967"><ele>458.7142857142857</ele><time>2026-04-11T06:34:46.998Z</time></trkpt><trkpt lat="43.490325" lon="11.393785"><ele>459.1428571428571</ele><time>2026-04-11T06:34:48.997Z</time></trkpt><trkpt lat="43.4902917" lon="11.3938717"><ele>459.5714285714285</ele><time>2026-04-11T06:34:50.997Z</time></trkpt><trkpt lat="43.4902617" lon="11.39395"><ele>459.99999999999994</ele><time>2026-04-11T06:34:52.997Z</time></trkpt><trkpt lat="43.4902367" lon="11.3940417"><ele>460.5714285714285</ele><time>2026-04-11T06:34:55.997Z</time></trkpt><trkpt lat="43.490205" lon="11.3941167"><ele>461.1428571428571</ele><time>2026-04-11T06:34:57.997Z</time></trkpt><trkpt lat="43.490145" lon="11.39419"><ele>461.7142857142857</ele><time>2026-04-11T06:34:59.998Z</time></trkpt><trkpt lat="43.490105" lon="11.394275"><ele>462.2857142857143</ele><time>2026-04-11T06:35:01.997Z</time></trkpt><trkpt lat="43.4900833" lon="11.39437"><ele>462.8571428571429</ele><time>2026-04-11T06:35:03.997Z</time></trkpt><trkpt lat="43.4900733" lon="11.394465"><ele>463.4285714285715</ele><time>2026-04-11T06:35:05.998Z</time></trkpt><trkpt lat="43.4900733" lon="11.394555"><ele>464.00000000000006</ele><time>2026-04-11T06:35:07.997Z</time></trkpt><trkpt lat="43.490075" lon="11.3946483"><ele>464.8333333333333</ele><time>2026-04-11T06:35:09.997Z</time></trkpt><trkpt lat="43.4900833" lon="11.394735"><ele>465.66666666666663</ele><time>2026-04-11T06:35:11.997Z</time></trkpt><trkpt lat="43.4900967" lon="11.3948617"><ele>466.5</ele><time>2026-04-11T06:35:14.997Z</time></trkpt><trkpt lat="43.4901083" lon="11.39499"><ele>467.33333333333337</ele><time>2026-04-11T06:35:17.997Z</time></trkpt><trkpt lat="43.4901167" lon="11.3950783"><ele>468.1666666666667</ele><time>2026-04-11T06:35:19.997Z</time></trkpt><trkpt lat="43.49012" lon="11.395165"><ele>469.0</ele><time>2026-04-11T06:35:21.997Z</time></trkpt><trkpt lat="43.4901167" lon="11.39529"><ele>469.00000000000006</ele><time>2026-04-11T06:35:24.998Z</time></trkpt><trkpt lat="43.490115" lon="11.395415"><ele>469.0</ele><time>2026-04-11T06:35:27.997Z</time></trkpt><trkpt lat="43.4901133" lon="11.3955217"><ele>469.0</ele><time>2026-04-11T06:35:30.997Z</time></trkpt><trkpt lat="43.4900967" lon="11.39563"><ele>469.0</ele><time>2026-04-11T06:35:33.997Z</time></trkpt><trkpt lat="43.4900883" lon="11.3957483"><ele>469.00000000000006</ele><time>2026-04-11T06:35:36.997Z</time></trkpt><trkpt lat="43.490075" lon="11.39586"><ele>469.0</ele><time>2026-04-11T06:35:39.997Z</time></trkpt><trkpt lat="43.4900617" lon="11.39597"><ele>469.57142857142856</ele><time>2026-04-11T06:35:42.997Z</time></trkpt><trkpt lat="43.4900467" lon="11.396055"><ele>470.1428571428571</ele><time>2026-04-11T06:35:45.998Z</time></trkpt><trkpt lat="43.4900283" lon="11.3961667"><ele>470.7142857142857</ele><time>2026-04-11T06:35:48.997Z</time></trkpt><trkpt lat="43.4900083" lon="11.39627"><ele>471.2857142857143</ele><time>2026-04-11T06:35:51.997Z</time></trkpt><trkpt lat="43.48998" lon="11.3963633"><ele>471.85714285714283</ele><time>2026-04-11T06:35:54.997Z</time></trkpt><trkpt lat="43.4899433" lon="11.396455"><ele>472.42857142857144</ele><time>2026-04-11T06:35:57.997Z</time></trkpt><trkpt lat="43.4899033" lon="11.3965267"><ele>473.0</ele><time>2026-04-11T06:36:00.997Z</time></trkpt><trkpt lat="43.4898417" lon="11.3966033"><ele>473.0</ele><time>2026-04-11T06:36:04.997Z</time></trkpt><trkpt lat="43.4897933" lon="11.3966683"><ele>473.0</ele><time>2026-04-11T06:36:07.997Z</time></trkpt><trkpt lat="43.489755" lon="11.39675"><ele>473.0</ele><time>2026-04-11T06:36:10.997Z</time></trkpt><trkpt lat="43.48971" lon="11.3968267"><ele>473.0</ele><time>2026-04-11T06:36:13.997Z</time></trkpt><trkpt lat="43.48967" lon="11.3969083"><ele>473.0</ele><time>2026-04-11T06:36:16.997Z</time></trkpt><trkpt lat="43.4896133" lon="11.3969917"><ele>473.0</ele><time>2026-04-11T06:36:19.998Z</time></trkpt><trkpt lat="43.4895683" lon="11.39708"><ele>473.0</ele><time>2026-04-11T06:36:22.998Z</time></trkpt><trkpt lat="43.4895217" lon="11.39717"><ele>475.8333333333333</ele><time>2026-04-11T06:36:25.997Z</time></trkpt><trkpt lat="43.4894917" lon="11.3972683"><ele>478.66666666666663</ele><time>2026-04-11T06:36:28.997Z</time></trkpt><trkpt lat="43.4894517" lon="11.3973633"><ele>481.5</ele><time>2026-04-11T06:36:31.997Z</time></trkpt><trkpt lat="43.48942" lon="11.397455"><ele>484.33333333333337</ele><time>2026-04-11T06:36:34.997Z</time></trkpt><trkpt lat="43.4893683" lon="11.39754"><ele>487.1666666666667</ele><time>2026-04-11T06:36:37.997Z</time></trkpt><trkpt lat="43.4893233" lon="11.3976267"><ele>490.0</ele><time>2026-04-11T06:36:40.997Z</time></trkpt><trkpt lat="43.4892883" lon="11.3977117"><ele>490.00000000000006</ele><time>2026-04-11T06:36:43.997Z</time></trkpt><trkpt lat="43.4892433" lon="11.3978017"><ele>490.0</ele><time>2026-04-11T06:36:46.997Z</time></trkpt><trkpt lat="43.48919" lon="11.397895"><ele>490.0</ele><time>2026-04-11T06:36:49.997Z</time></trkpt><trkpt lat="43.489135" lon="11.3979817"><ele>490.0</ele><time>2026-04-11T06:36:52.997Z</time></trkpt><trkpt lat="43.489085" lon="11.3980667"><ele>490.00000000000006</ele><time>2026-04-11T06:36:55.997Z</time></trkpt><trkpt lat="43.489045" lon="11.3981567"><ele>490.0</ele><time>2026-04-11T06:36:58.997Z</time></trkpt><trkpt lat="43.4890083" lon="11.3982483"><ele>489.00000000000006</ele><time>2026-04-11T06:37:01.998Z</time></trkpt><trkpt lat="43.4889833" lon="11.3983317"><ele>488.0</ele><time>2026-04-11T06:37:04.998Z</time></trkpt><trkpt lat="43.4889533" lon="11.3984217"><ele>487.0</ele><time>2026-04-11T06:37:07.998Z</time></trkpt><trkpt lat="43.4888983" lon="11.3985133"><ele>486.0</ele><time>2026-04-11T06:37:10.998Z</time></trkpt><trkpt lat="43.48885" lon="11.3986133"><ele>485.00000000000006</ele><time>2026-04-11T06:37:13.998Z</time></trkpt><trkpt lat="43.48881" lon="11.3987017"><ele>484.0</ele><time>2026-04-11T06:37:16.998Z</time></trkpt><trkpt lat="43.4887667" lon="11.39879"><ele>486.6666666666667</ele><time>2026-04-11T06:37:19.998Z</time></trkpt><trkpt lat="43.4887167" lon="11.3988883"><ele>489.33333333333337</ele><time>2026-04-11T06:37:22.998Z</time></trkpt><trkpt lat="43.48867" lon="11.3989783"><ele>492.0</ele><time>2026-04-11T06:37:25.998Z</time></trkpt><trkpt lat="43.48863" lon="11.3990783"><ele>494.66666666666663</ele><time>2026-04-11T06:37:28.998Z</time></trkpt><trkpt lat="43.48858" lon="11.3991633"><ele>497.3333333333333</ele><time>2026-04-11T06:37:31.998Z</time></trkpt><trkpt lat="43.48853" lon="11.3992617"><ele>500.0</ele><time>2026-04-11T06:37:34.998Z</time></trkpt><trkpt lat="43.488505" lon="11.3993433"><ele>499.99999999999994</ele><time>2026-04-11T06:37:37.998Z</time></trkpt><trkpt lat="43.48846" lon="11.399435"><ele>500.0</ele><time>2026-04-11T06:37:41.999Z</time></trkpt><trkpt lat="43.48842" lon="11.3995033"><ele>500.0</ele><time>2026-04-11T06:37:44.999Z</time></trkpt><trkpt lat="43.4883733" lon="11.3995783"><ele>500.0</ele><time>2026-04-11T06:37:47.998Z</time></trkpt><trkpt lat="43.4883133" lon="11.3996317"><ele>499.99999999999994</ele><time>2026-04-11T06:37:50.998Z</time></trkpt><trkpt lat="43.4882483" lon="11.3996733"><ele>500.0</ele><time>2026-04-11T06:37:53.998Z</time></trkpt><trkpt lat="43.4881567" lon="11.3997017"><ele>500.16666666666663</ele><time>2026-04-11T06:37:56.998Z</time></trkpt><trkpt lat="43.48808" lon="11.3997233"><ele>500.3333333333333</ele><time>2026-04-11T06:37:59.998Z</time></trkpt><trkpt lat="43.4879983" lon="11.399735"><ele>500.5</ele><time>2026-04-11T06:38:02.998Z</time></trkpt><trkpt lat="43.4879083" lon="11.3997383"><ele>500.66666666666663</ele><time>2026-04-11T06:38:05.999Z</time></trkpt><trkpt lat="43.4878167" lon="11.399735"><ele>500.8333333333333</ele><time>2026-04-11T06:38:08.998Z</time></trkpt><trkpt lat="43.4877333" lon="11.3997617"><ele>501.0</ele><time>2026-04-11T06:38:11.998Z</time></trkpt><trkpt lat="43.487655" lon="11.3998183"><ele>501.0</ele><time>2026-04-11T06:38:14.998Z</time></trkpt><trkpt lat="43.487615" lon="11.39991"><ele>501.0</ele><time>2026-04-11T06:38:17.998Z</time></trkpt><trkpt lat="43.4875917" lon="11.3999983"><ele>501.0</ele><time>2026-04-11T06:38:20.998Z</time></trkpt><trkpt lat="43.4875867" lon="11.40009"><ele>501.0</ele><time>2026-04-11T06:38:23.998Z</time></trkpt><trkpt lat="43.487575" lon="11.40018"><ele>501.0</ele><time>2026-04-11T06:38:26.998Z</time></trkpt><trkpt lat="43.4875717" lon="11.40028"><ele>501.0</ele><time>2026-04-11T06:38:29.998Z</time></trkpt><trkpt lat="43.4875667" lon="11.4003817"><ele>501.0</ele><time>2026-04-11T06:38:32.998Z</time></trkpt><trkpt lat="43.48756" lon="11.4004717"><ele>501.6666666666667</ele><time>2026-04-11T06:38:35.998Z</time></trkpt><trkpt lat="43.487545" lon="11.4005867"><ele>502.33333333333337</ele><time>2026-04-11T06:38:39.998Z</time></trkpt><trkpt lat="43.4875417" lon="11.400715"><ele>503.0</ele><time>2026-04-11T06:38:42.998Z</time></trkpt><trkpt lat="43.4875267" lon="11.4008267"><ele>503.6666666666667</ele><time>2026-04-11T06:38:45.998Z</time></trkpt><trkpt lat="43.4875033" lon="11.40092"><ele>504.33333333333337</ele><time>2026-04-11T06:38:48.998Z</time></trkpt><trkpt lat="43.4874817" lon="11.401015"><ele>505.0</ele><time>2026-04-11T06:38:51.998Z</time></trkpt><trkpt lat="43.487495" lon="11.401125"><ele>505.0</ele><time>2026-04-11T06:38:55.998Z</time></trkpt><trkpt lat="43.4875367" lon="11.4012017"><ele>504.99999999999994</ele><time>2026-04-11T06:38:58.998Z</time></trkpt><trkpt lat="43.4876083" lon="11.4012383"><ele>505.0</ele><time>2026-04-11T06:39:02.998Z</time></trkpt><trkpt lat="43.487675" lon="11.401175"><ele>505.0</ele><time>2026-04-11T06:39:06.998Z</time></trkpt><trkpt lat="43.4877167" lon="11.4011"><ele>504.99999999999994</ele><time>2026-04-11T06:39:10.998Z</time></trkpt><trkpt lat="43.4877567" lon="11.4010167"><ele>505.0</ele><time>2026-04-11T06:39:13.999Z</time></trkpt><trkpt lat="43.487795" lon="11.4009433"><ele>505.0</ele><time>2026-04-11T06:39:16.998Z</time></trkpt><trkpt lat="43.4878483" lon="11.4008567"><ele>505.00000000000006</ele><time>2026-04-11T06:39:20.998Z</time></trkpt><trkpt lat="43.4879083" lon="11.4008017"><ele>505.0</ele><time>2026-04-11T06:39:23.998Z</time></trkpt><trkpt lat="43.487985" lon="11.4007683"><ele>505.0</ele><time>2026-04-11T06:39:26.998Z</time></trkpt><trkpt lat="43.4880733" lon="11.4007567"><ele>505.0</ele><time>2026-04-11T06:39:29.998Z</time></trkpt><trkpt lat="43.48816" lon="11.400765"><ele>505.00000000000006</ele><time>2026-04-11T06:39:32.998Z</time></trkpt><trkpt lat="43.4882433" lon="11.400795"><ele>505.0</ele><time>2026-04-11T06:39:35.998Z</time></trkpt><trkpt lat="43.4883233" lon="11.40082"><ele>506.33333333333337</ele><time>2026-04-11T06:39:38.998Z</time></trkpt><trkpt lat="43.488395" lon="11.4008683"><ele>507.6666666666667</ele><time>2026-04-11T06:39:41.998Z</time></trkpt><trkpt lat="43.4884617" lon="11.4009167"><ele>509.0</ele><time>2026-04-11T06:39:44.998Z</time></trkpt><trkpt lat="43.488525" lon="11.400965"><ele>510.33333333333337</ele><time>2026-04-11T06:39:47.998Z</time></trkpt><trkpt lat="43.4885883" lon="11.40102"><ele>511.6666666666667</ele><time>2026-04-11T06:39:50.998Z</time></trkpt><trkpt lat="43.48866" lon="11.4010733"><ele>513.0</ele><time>2026-04-11T06:39:53.998Z</time></trkpt><trkpt lat="43.4887233" lon="11.401125"><ele>512.8571428571429</ele><time>2026-04-11T06:39:56.998Z</time></trkpt><trkpt lat="43.4887817" lon="11.401185"><ele>512.7142857142858</ele><time>2026-04-11T06:39:59.999Z</time></trkpt><trkpt lat="43.4888417" lon="11.40126"><ele>512.5714285714286</ele><time>2026-04-11T06:40:02.999Z</time></trkpt><trkpt lat="43.4888767" lon="11.4013367"><ele>512.4285714285714</ele><time>2026-04-11T06:40:05.998Z</time></trkpt><trkpt lat="43.4889067" lon="11.4014167"><ele>512.2857142857142</ele><time>2026-04-11T06:40:08.998Z</time></trkpt><trkpt lat="43.4889067" lon="11.4015283"><ele>512.1428571428571</ele><time>2026-04-11T06:40:12.998Z</time></trkpt><trkpt lat="43.4889033" lon="11.4016283"><ele>512.0</ele><time>2026-04-11T06:40:15.999Z</time></trkpt><trkpt lat="43.48889" lon="11.4017483"><ele>512.0</ele><time>2026-04-11T06:40:18.998Z</time></trkpt><trkpt lat="43.488875" lon="11.4018533"><ele>511.99999999999994</ele><time>2026-04-11T06:40:21.998Z</time></trkpt><trkpt lat="43.488845" lon="11.4019417"><ele>512.0</ele><time>2026-04-11T06:40:24.998Z</time></trkpt><trkpt lat="43.4888233" lon="11.4020517"><ele>512.0</ele><time>2026-04-11T06:40:27.999Z</time></trkpt><trkpt lat="43.4888033" lon="11.4021467"><ele>511.99999999999994</ele><time>2026-04-11T06:40:30.998Z</time></trkpt><trkpt lat="43.4887967" lon="11.4022383"><ele>512.0</ele><time>2026-04-11T06:40:33.998Z</time></trkpt><trkpt lat="43.4887783" lon="11.402325"><ele>512.0</ele><time>2026-04-11T06:40:36.998Z</time></trkpt><trkpt lat="43.488775" lon="11.4024183"><ele>512.1428571428571</ele><time>2026-04-11T06:40:39.998Z</time></trkpt><trkpt lat="43.488765" lon="11.4025267"><ele>512.2857142857142</ele><time>2026-04-11T06:40:42.998Z</time></trkpt><trkpt lat="43.48877" lon="11.4026283"><ele>512.4285714285714</ele><time>2026-04-11T06:40:45.998Z</time></trkpt><trkpt lat="43.4887683" lon="11.4027283"><ele>512.5714285714286</ele><time>2026-04-11T06:40:48.998Z</time></trkpt><trkpt lat="43.4887683" lon="11.4028267"><ele>512.7142857142858</ele><time>2026-04-11T06:40:51.998Z</time></trkpt><trkpt lat="43.48876" lon="11.4029333"><ele>512.8571428571429</ele><time>2026-04-11T06:40:54.998Z</time></trkpt><trkpt lat="43.488755" lon="11.4030317"><ele>513.0</ele><time>2026-04-11T06:40:57.998Z</time></trkpt><trkpt lat="43.4887517" lon="11.40312"><ele>513.3333333333334</ele><time>2026-04-11T06:41:00.998Z</time></trkpt><trkpt lat="43.4887667" lon="11.4032117"><ele>513.6666666666666</ele><time>2026-04-11T06:41:03.999Z</time></trkpt><trkpt lat="43.488775" lon="11.4033167"><ele>514.0</ele><time>2026-04-11T06:41:06.998Z</time></trkpt><trkpt lat="43.488775" lon="11.403425"><ele>514.3333333333333</ele><time>2026-04-11T06:41:09.998Z</time></trkpt><trkpt lat="43.4887633" lon="11.40355"><ele>514.6666666666666</ele><time>2026-04-11T06:41:12.998Z</time></trkpt><trkpt lat="43.4887533" lon="11.403645"><ele>515.0</ele><time>2026-04-11T06:41:14.998Z</time></trkpt><trkpt lat="43.4887483" lon="11.4037467"><ele>519.1666666666666</ele><time>2026-04-11T06:41:16.998Z</time></trkpt><trkpt lat="43.4887367" lon="11.4038467"><ele>523.3333333333333</ele><time>2026-04-11T06:41:18.998Z</time></trkpt><trkpt lat="43.4887183" lon="11.403935"><ele>527.5</ele><time>2026-04-11T06:41:20.998Z</time></trkpt><trkpt lat="43.4887017" lon="11.4040633"><ele>531.6666666666666</ele><time>2026-04-11T06:41:23.999Z</time></trkpt><trkpt lat="43.4887" lon="11.404155"><ele>535.8333333333334</ele><time>2026-04-11T06:41:25.998Z</time></trkpt><trkpt lat="43.4887017" lon="11.4042717"><ele>540.0</ele><time>2026-04-11T06:41:28.998Z</time></trkpt><trkpt lat="43.4887083" lon="11.4043833"><ele>540.0</ele><time>2026-04-11T06:41:31.999Z</time></trkpt><trkpt lat="43.48873" lon="11.4044833"><ele>540.0</ele><time>2026-04-11T06:41:34.998Z</time></trkpt><trkpt lat="43.4887633" lon="11.4045883"><ele>540.0</ele><time>2026-04-11T06:41:38.999Z</time></trkpt><trkpt lat="43.4887917" lon="11.4046817"><ele>540.0</ele><time>2026-04-11T06:41:41.998Z</time></trkpt><trkpt lat="43.4888333" lon="11.4047933"><ele>540.0</ele><time>2026-04-11T06:41:44.999Z</time></trkpt><trkpt lat="43.4888633" lon="11.4049"><ele>540.0</ele><time>2026-04-11T06:41:47.998Z</time></trkpt><trkpt lat="43.4888917" lon="11.4049867"><ele>539.1428571428571</ele><time>2026-04-11T06:41:50.998Z</time></trkpt><trkpt lat="43.4889083" lon="11.4050817"><ele>538.2857142857142</ele><time>2026-04-11T06:41:53.998Z</time></trkpt><trkpt lat="43.4889317" lon="11.4051733"><ele>537.4285714285714</ele><time>2026-04-11T06:41:56.998Z</time></trkpt><trkpt lat="43.4889533" lon="11.4052667"><ele>536.5714285714286</ele><time>2026-04-11T06:41:59.998Z</time></trkpt><trkpt lat="43.48897" lon="11.405365"><ele>535.7142857142858</ele><time>2026-04-11T06:42:02.998Z</time></trkpt><trkpt lat="43.4889867" lon="11.405465"><ele>534.8571428571429</ele><time>2026-04-11T06:42:05.998Z</time></trkpt><trkpt lat="43.4890067" lon="11.40558"><ele>534.0</ele><time>2026-04-11T06:42:08.998Z</time></trkpt><trkpt lat="43.4890233" lon="11.40567"><ele>534.0</ele><time>2026-04-11T06:42:10.998Z</time></trkpt><trkpt lat="43.489035" lon="11.40577"><ele>534.0</ele><time>2026-04-11T06:42:12.998Z</time></trkpt><trkpt lat="43.489055" lon="11.4058783"><ele>534.0</ele><time>2026-04-11T06:42:14.999Z</time></trkpt><trkpt lat="43.4890767" lon="11.4059833"><ele>534.0</ele><time>2026-04-11T06:42:16.999Z</time></trkpt><trkpt lat="43.4891017" lon="11.4060883"><ele>534.0</ele><time>2026-04-11T06:42:18.998Z</time></trkpt><trkpt lat="43.4891317" lon="11.406185"><ele>534.0</ele><time>2026-04-11T06:42:20.998Z</time></trkpt><trkpt lat="43.48916" lon="11.40628"><ele>534.0</ele><time>2026-04-11T06:42:22.998Z</time></trkpt><trkpt lat="43.4891917" lon="11.4063633"><ele>534.0</ele><time>2026-04-11T06:42:24.998Z</time></trkpt><trkpt lat="43.4892517" lon="11.4064633"><ele>534.0</ele><time>2026-04-11T06:42:27.999Z</time></trkpt><trkpt lat="43.4893067" lon="11.4065667"><ele>534.0</ele><time>2026-04-11T06:42:30.998Z</time></trkpt><trkpt lat="43.4893483" lon="11.4066333"><ele>534.0</ele><time>2026-04-11T06:42:32.999Z</time></trkpt><trkpt lat="43.489395" lon="11.4066967"><ele>534.0</ele><time>2026-04-11T06:42:34.998Z</time></trkpt><trkpt lat="43.489455" lon="11.4067833"><ele>534.0</ele><time>2026-04-11T06:42:37.998Z</time></trkpt><trkpt lat="43.4895117" lon="11.406855"><ele>534.0</ele><time>2026-04-11T06:42:40.998Z</time></trkpt><trkpt lat="43.4895683" lon="11.4069433"><ele>534.0</ele><time>2026-04-11T06:42:43.998Z</time></trkpt><trkpt lat="43.489615" lon="11.40703"><ele>534.0</ele><time>2026-04-11T06:42:46.998Z</time></trkpt><trkpt lat="43.4896667" lon="11.4071133"><ele>534.0</ele><time>2026-04-11T06:42:49.998Z</time></trkpt><trkpt lat="43.48973" lon="11.407215"><ele>534.0</ele><time>2026-04-11T06:42:52.999Z</time></trkpt><trkpt lat="43.4897783" lon="11.4073117"><ele>535.0</ele><time>2026-04-11T06:42:55.998Z</time></trkpt><trkpt lat="43.4898367" lon="11.407395"><ele>536.0</ele><time>2026-04-11T06:42:58.998Z</time></trkpt><trkpt lat="43.4898783" lon="11.4074833"><ele>537.0</ele><time>2026-04-11T06:43:01.998Z</time></trkpt><trkpt lat="43.4899133" lon="11.4075933"><ele>538.0</ele><time>2026-04-11T06:43:04.998Z</time></trkpt><trkpt lat="43.4899233" lon="11.4076917"><ele>539.0</ele><time>2026-04-11T06:43:07.998Z</time></trkpt><trkpt lat="43.4899383" lon="11.4078"><ele>540.0</ele><time>2026-04-11T06:43:10.998Z</time></trkpt><trkpt lat="43.4899467" lon="11.4079167"><ele>540.3333333333334</ele><time>2026-04-11T06:43:13.999Z</time></trkpt><trkpt lat="43.4899583" lon="11.4080133"><ele>540.6666666666666</ele><time>2026-04-11T06:43:15.999Z</time></trkpt><trkpt lat="43.4899683" lon="11.4081033"><ele>541.0</ele><time>2026-04-11T06:43:17.998Z</time></trkpt><trkpt lat="43.4899767" lon="11.4082267"><ele>541.3333333333333</ele><time>2026-04-11T06:43:20.999Z</time></trkpt><trkpt lat="43.4899833" lon="11.4083133"><ele>541.6666666666666</ele><time>2026-04-11T06:43:22.999Z</time></trkpt><trkpt lat="43.4899933" lon="11.408435"><ele>542.0</ele><time>2026-04-11T06:43:25.998Z</time></trkpt><trkpt lat="43.49" lon="11.4085583"><ele>542.0</ele><time>2026-04-11T06:43:28.998Z</time></trkpt><trkpt lat="43.4900133" lon="11.4086433"><ele>542.0</ele><time>2026-04-11T06:43:30.998Z</time></trkpt><trkpt lat="43.4900067" lon="11.40874"><ele>542.0</ele><time>2026-04-11T06:43:33.998Z</time></trkpt><trkpt lat="43.490005" lon="11.40885"><ele>542.0</ele><time>2026-04-11T06:43:36.998Z</time></trkpt><trkpt lat="43.4900033" lon="11.4089383"><ele>542.0</ele><time>2026-04-11T06:43:38.998Z</time></trkpt><trkpt lat="43.4900017" lon="11.4090433"><ele>542.0</ele><time>2026-04-11T06:43:40.998Z</time></trkpt><trkpt lat="43.4899983" lon="11.4091683"><ele>542.0</ele><time>2026-04-11T06:43:42.998Z</time></trkpt><trkpt lat="43.48999" lon="11.40929"><ele>542.6666666666666</ele><time>2026-04-11T06:43:44.998Z</time></trkpt><trkpt lat="43.489985" lon="11.4094033"><ele>543.3333333333333</ele><time>2026-04-11T06:43:46.998Z</time></trkpt><trkpt lat="43.4899783" lon="11.4095167"><ele>544.0</ele><time>2026-04-11T06:43:48.999Z</time></trkpt><trkpt lat="43.4899633" lon="11.4096283"><ele>544.6666666666666</ele><time>2026-04-11T06:43:50.998Z</time></trkpt><trkpt lat="43.4899533" lon="11.4097467"><ele>545.3333333333334</ele><time>2026-04-11T06:43:52.998Z</time></trkpt><trkpt lat="43.4899433" lon="11.40986"><ele>546.0</ele><time>2026-04-11T06:43:54.998Z</time></trkpt><trkpt lat="43.4899217" lon="11.4099667"><ele>546.3333333333334</ele><time>2026-04-11T06:43:56.998Z</time></trkpt><trkpt lat="43.4899033" lon="11.410055"><ele>546.6666666666666</ele><time>2026-04-11T06:43:58.999Z</time></trkpt><trkpt lat="43.4898733" lon="11.4101717"><ele>547.0</ele><time>2026-04-11T06:44:01.999Z</time></trkpt><trkpt lat="43.4898333" lon="11.4102767"><ele>547.3333333333333</ele><time>2026-04-11T06:44:04.998Z</time></trkpt><trkpt lat="43.489805" lon="11.410375"><ele>547.6666666666666</ele><time>2026-04-11T06:44:07.998Z</time></trkpt><trkpt lat="43.489765" lon="11.4104617"><ele>548.0</ele><time>2026-04-11T06:44:10.998Z</time></trkpt><trkpt lat="43.4897233" lon="11.4105533"><ele>548.1428571428572</ele><time>2026-04-11T06:44:13.998Z</time></trkpt><trkpt lat="43.4896733" lon="11.4106383"><ele>548.2857142857143</ele><time>2026-04-11T06:44:16.998Z</time></trkpt><trkpt lat="43.4896333" lon="11.4107167"><ele>548.4285714285714</ele><time>2026-04-11T06:44:19.998Z</time></trkpt><trkpt lat="43.4895717" lon="11.410815"><ele>548.5714285714287</ele><time>2026-04-11T06:44:22.998Z</time></trkpt><trkpt lat="43.4895283" lon="11.410885"><ele>548.7142857142858</ele><time>2026-04-11T06:44:24.999Z</time></trkpt><trkpt lat="43.489495" lon="11.4109617"><ele>548.8571428571429</ele><time>2026-04-11T06:44:26.998Z</time></trkpt><trkpt lat="43.4894667" lon="11.41104"><ele>549.0</ele><time>2026-04-11T06:44:28.998Z</time></trkpt><trkpt lat="43.4894367" lon="11.411165"><ele>549.0</ele><time>2026-04-11T06:44:31.998Z</time></trkpt><trkpt lat="43.48943" lon="11.41128"><ele>549.0</ele><time>2026-04-11T06:44:34.999Z</time></trkpt><trkpt lat="43.4894267" lon="11.411395"><ele>549.0</ele><time>2026-04-11T06:44:38.998Z</time></trkpt><trkpt lat="43.4894417" lon="11.4114933"><ele>549.0</ele><time>2026-04-11T06:44:41.999Z</time></trkpt><trkpt lat="43.4894617" lon="11.4116083"><ele>549.0</ele><time>2026-04-11T06:44:44.998Z</time></trkpt><trkpt lat="43.4894833" lon="11.4117"><ele>549.0</ele><time>2026-04-11T06:44:46.998Z</time></trkpt><trkpt lat="43.4895183" lon="11.411805"><ele>549.5</ele><time>2026-04-11T06:44:48.998Z</time></trkpt><trkpt lat="43.4895583" lon="11.4119033"><ele>550.0</ele><time>2026-04-11T06:44:50.998Z</time></trkpt><trkpt lat="43.4896233" lon="11.4119983"><ele>550.5</ele><time>2026-04-11T06:44:52.999Z</time></trkpt><trkpt lat="43.48968" lon="11.412085"><ele>551.0</ele><time>2026-04-11T06:44:54.998Z</time></trkpt><trkpt lat="43.4897467" lon="11.4121617"><ele>551.5</ele><time>2026-04-11T06:44:56.998Z</time></trkpt><trkpt lat="43.4898167" lon="11.4122267"><ele>552.0</ele><time>2026-04-11T06:44:58.998Z</time></trkpt><trkpt lat="43.4898817" lon="11.41229"><ele>553.2</ele><time>2026-04-11T06:45:00.999Z</time></trkpt><trkpt lat="43.48996" lon="11.41237"><ele>554.4000000000001</ele><time>2026-04-11T06:45:02.998Z</time></trkpt><trkpt lat="43.490045" lon="11.41245"><ele>555.5999999999999</ele><time>2026-04-11T06:45:04.998Z</time></trkpt><trkpt lat="43.490115" lon="11.4125417"><ele>556.8</ele><time>2026-04-11T06:45:06.999Z</time></trkpt><trkpt lat="43.4901883" lon="11.4126533"><ele>558.0</ele><time>2026-04-11T06:45:08.998Z</time></trkpt><trkpt lat="43.4902367" lon="11.4127183"><ele>558.0</ele><time>2026-04-11T06:45:09.999Z</time></trkpt><trkpt lat="43.49033" lon="11.41284"><ele>558.0</ele><time>2026-04-11T06:45:11.998Z</time></trkpt><trkpt lat="43.49037" lon="11.41291"><ele>558.0</ele><time>2026-04-11T06:45:12.998Z</time></trkpt><trkpt lat="43.4904117" lon="11.4129783"><ele>558.0</ele><time>2026-04-11T06:45:13.998Z</time></trkpt><trkpt lat="43.4904567" lon="11.413045"><ele>558.0</ele><time>2026-04-11T06:45:14.999Z</time></trkpt><trkpt lat="43.4904967" lon="11.4131167"><ele>558.0</ele><time>2026-04-11T06:45:15.998Z</time></trkpt><trkpt lat="43.4905317" lon="11.413195"><ele>557.0</ele><time>2026-04-11T06:45:16.998Z</time></trkpt><trkpt lat="43.4905517" lon="11.4132783"><ele>556.0</ele><time>2026-04-11T06:45:17.998Z</time></trkpt><trkpt lat="43.4905733" lon="11.4134417"><ele>555.0</ele><time>2026-04-11T06:45:19.999Z</time></trkpt><trkpt lat="43.49056" lon="11.413605"><ele>554.0</ele><time>2026-04-11T06:45:21.998Z</time></trkpt><trkpt lat="43.490555" lon="11.4136983"><ele>553.0</ele><time>2026-04-11T06:45:22.998Z</time></trkpt><trkpt lat="43.49054" lon="11.4138517"><ele>553.0</ele><time>2026-04-11T06:45:24.998Z</time></trkpt><trkpt lat="43.4905083" lon="11.4139933"><ele>553.0</ele><time>2026-04-11T06:45:26.999Z</time></trkpt><trkpt lat="43.4904867" lon="11.414135"><ele>553.0</ele><time>2026-04-11T06:45:28.998Z</time></trkpt><trkpt lat="43.4904633" lon="11.4142733"><ele>553.0</ele><time>2026-04-11T06:45:30.998Z</time></trkpt><trkpt lat="43.49045" lon="11.4144067"><ele>553.0</ele><time>2026-04-11T06:45:32.999Z</time></trkpt><trkpt lat="43.49044" lon="11.4145383"><ele>553.1999999999999</ele><time>2026-04-11T06:45:34.998Z</time></trkpt><trkpt lat="43.4904267" lon="11.4146567"><ele>553.4</ele><time>2026-04-11T06:45:36.998Z</time></trkpt><trkpt lat="43.4904117" lon="11.414775"><ele>553.5999999999999</ele><time>2026-04-11T06:45:38.998Z</time></trkpt><trkpt lat="43.490395" lon="11.4149"><ele>553.8</ele><time>2026-04-11T06:45:40.998Z</time></trkpt><trkpt lat="43.4903733" lon="11.4150233"><ele>554.0</ele><time>2026-04-11T06:45:42.998Z</time></trkpt><trkpt lat="43.4903517" lon="11.4151483"><ele>554.0</ele><time>2026-04-11T06:45:44.998Z</time></trkpt><trkpt lat="43.4903267" lon="11.415285"><ele>554.0</ele><time>2026-04-11T06:45:46.998Z</time></trkpt><trkpt lat="43.490295" lon="11.41543"><ele>554.0</ele><time>2026-04-11T06:45:48.998Z</time></trkpt><trkpt lat="43.49026" lon="11.4155717"><ele>554.0</ele><time>2026-04-11T06:45:50.998Z</time></trkpt><trkpt lat="43.4902267" lon="11.415715"><ele>554.0</ele><time>2026-04-11T06:45:52.999Z</time></trkpt><trkpt lat="43.4901983" lon="11.415855"><ele>554.4</ele><time>2026-04-11T06:45:54.998Z</time></trkpt><trkpt lat="43.490165" lon="11.4159817"><ele>554.8</ele><time>2026-04-11T06:45:56.998Z</time></trkpt><trkpt lat="43.4901367" lon="11.4161067"><ele>555.2</ele><time>2026-04-11T06:45:58.998Z</time></trkpt><trkpt lat="43.4901117" lon="11.41623"><ele>555.6</ele><time>2026-04-11T06:46:00.998Z</time></trkpt><trkpt lat="43.4900883" lon="11.4163433"><ele>556.0</ele><time>2026-04-11T06:46:02.998Z</time></trkpt><trkpt lat="43.4900683" lon="11.4164617"><ele>556.8571428571429</ele><time>2026-04-11T06:46:04.998Z</time></trkpt><trkpt lat="43.49006" lon="11.4165667"><ele>557.7142857142858</ele><time>2026-04-11T06:46:06.998Z</time></trkpt><trkpt lat="43.4900567" lon="11.41667"><ele>558.5714285714287</ele><time>2026-04-11T06:46:08.998Z</time></trkpt><trkpt lat="43.4900633" lon="11.4167683"><ele>559.4285714285714</ele><time>2026-04-11T06:46:10.998Z</time></trkpt><trkpt lat="43.4900667" lon="11.4168567"><ele>560.2857142857143</ele><time>2026-04-11T06:46:12.998Z</time></trkpt><trkpt lat="43.4900783" lon="11.4169533"><ele>561.1428571428572</ele><time>2026-04-11T06:46:14.998Z</time></trkpt><trkpt lat="43.4900967" lon="11.4170433"><ele>562.0</ele><time>2026-04-11T06:46:16.998Z</time></trkpt><trkpt lat="43.49012" lon="11.417135"><ele>562.5714285714287</ele><time>2026-04-11T06:46:18.998Z</time></trkpt><trkpt lat="43.4901417" lon="11.4172267"><ele>563.1428571428571</ele><time>2026-04-11T06:46:20.998Z</time></trkpt><trkpt lat="43.4901583" lon="11.4173167"><ele>563.7142857142858</ele><time>2026-04-11T06:46:22.998Z</time></trkpt><trkpt lat="43.4901867" lon="11.4174117"><ele>564.2857142857143</ele><time>2026-04-11T06:46:24.998Z</time></trkpt><trkpt lat="43.4902183" lon="11.4175117"><ele>564.8571428571429</ele><time>2026-04-11T06:46:26.999Z</time></trkpt><trkpt lat="43.490255" lon="11.4176033"><ele>565.4285714285714</ele><time>2026-04-11T06:46:28.998Z</time></trkpt><trkpt lat="43.4903" lon="11.4176867"><ele>566.0</ele><time>2026-04-11T06:46:30.998Z</time></trkpt><trkpt lat="43.4903533" lon="11.4177667"><ele>566.0</ele><time>2026-04-11T06:46:32.998Z</time></trkpt><trkpt lat="43.4904183" lon="11.4178367"><ele>566.0</ele><time>2026-04-11T06:46:34.998Z</time></trkpt><trkpt lat="43.4904917" lon="11.4179"><ele>566.0</ele><time>2026-04-11T06:46:36.998Z</time></trkpt><trkpt lat="43.4905733" lon="11.4179683"><ele>566.0</ele><time>2026-04-11T06:46:38.998Z</time></trkpt><trkpt lat="43.4906517" lon="11.41801"><ele>566.0</ele><time>2026-04-11T06:46:40.998Z</time></trkpt><trkpt lat="43.490725" lon="11.4180633"><ele>566.0</ele><time>2026-04-11T06:46:42.998Z</time></trkpt><trkpt lat="43.4907933" lon="11.4181383"><ele>566.4</ele><time>2026-04-11T06:46:44.998Z</time></trkpt><trkpt lat="43.4908683" lon="11.4182233"><ele>566.8</ele><time>2026-04-11T06:46:46.998Z</time></trkpt><trkpt lat="43.49092" lon="11.418325"><ele>567.1999999999999</ele><time>2026-04-11T06:46:48.998Z</time></trkpt><trkpt lat="43.4909483" lon="11.41844"><ele>567.6</ele><time>2026-04-11T06:46:50.998Z</time></trkpt><trkpt lat="43.4909533" lon="11.4185817"><ele>568.0</ele><time>2026-04-11T06:46:52.998Z</time></trkpt><trkpt lat="43.4909567" lon="11.4187417"><ele>567.1666666666667</ele><time>2026-04-11T06:46:54.998Z</time></trkpt><trkpt lat="43.490965" lon="11.4189033"><ele>566.3333333333334</ele><time>2026-04-11T06:46:56.998Z</time></trkpt><trkpt lat="43.4909717" lon="11.4189917"><ele>565.5</ele><time>2026-04-11T06:46:57.998Z</time></trkpt><trkpt lat="43.490985" lon="11.4190783"><ele>564.6666666666666</ele><time>2026-04-11T06:46:58.998Z</time></trkpt><trkpt lat="43.4910233" lon="11.4192417"><ele>563.8333333333333</ele><time>2026-04-11T06:47:00.998Z</time></trkpt><trkpt lat="43.491045" lon="11.4193317"><ele>563.0</ele><time>2026-04-11T06:47:01.998Z</time></trkpt><trkpt lat="43.4910667" lon="11.419425"><ele>563.0</ele><time>2026-04-11T06:47:02.998Z</time></trkpt><trkpt lat="43.4910883" lon="11.4195167"><ele>563.0</ele><time>2026-04-11T06:47:03.998Z</time></trkpt><trkpt lat="43.4911067" lon="11.41961"><ele>563.0</ele><time>2026-04-11T06:47:04.998Z</time></trkpt><trkpt lat="43.4911233" lon="11.41971"><ele>563.0</ele><time>2026-04-11T06:47:05.998Z</time></trkpt><trkpt lat="43.4911317" lon="11.4198083"><ele>563.0</ele><time>2026-04-11T06:47:06.999Z</time></trkpt><trkpt lat="43.491145" lon="11.419915"><ele>563.0</ele><time>2026-04-11T06:47:07.998Z</time></trkpt><trkpt lat="43.491165" lon="11.4200317"><ele>562.5</ele><time>2026-04-11T06:47:08.998Z</time></trkpt><trkpt lat="43.4911817" lon="11.4201383"><ele>562.0</ele><time>2026-04-11T06:47:09.998Z</time></trkpt><trkpt lat="43.4911967" lon="11.4202433"><ele>561.5</ele><time>2026-04-11T06:47:10.998Z</time></trkpt><trkpt lat="43.4912183" lon="11.42035"><ele>561.0</ele><time>2026-04-11T06:47:11.998Z</time></trkpt><trkpt lat="43.491235" lon="11.420445"><ele>560.5</ele><time>2026-04-11T06:47:12.998Z</time></trkpt><trkpt lat="43.49125" lon="11.420535"><ele>560.0</ele><time>2026-04-11T06:47:13.998Z</time></trkpt><trkpt lat="43.49128" lon="11.4206917"><ele>560.0</ele><time>2026-04-11T06:47:15.998Z</time></trkpt><trkpt lat="43.4913067" lon="11.42083"><ele>560.0</ele><time>2026-04-11T06:47:17.999Z</time></trkpt><trkpt lat="43.4913083" lon="11.4209333"><ele>560.0</ele><time>2026-04-11T06:47:19.999Z</time></trkpt><trkpt lat="43.4912867" lon="11.42102"><ele>560.0</ele><time>2026-04-11T06:47:21.998Z</time></trkpt><trkpt lat="43.49126" lon="11.4211083"><ele>560.0</ele><time>2026-04-11T06:47:23.998Z</time></trkpt><trkpt lat="43.491205" lon="11.4211517"><ele>560.0</ele><time>2026-04-11T06:47:25.998Z</time></trkpt><trkpt lat="43.4911233" lon="11.421185"><ele>560.0</ele><time>2026-04-11T06:47:27.999Z</time></trkpt><trkpt lat="43.4910233" lon="11.4212183"><ele>560.0</ele><time>2026-04-11T06:47:29.998Z</time></trkpt><trkpt lat="43.4909233" lon="11.4212567"><ele>560.0</ele><time>2026-04-11T06:47:31.998Z</time></trkpt><trkpt lat="43.4908267" lon="11.4212783"><ele>560.0</ele><time>2026-04-11T06:47:33.998Z</time></trkpt><trkpt lat="43.4907333" lon="11.4212983"><ele>560.0</ele><time>2026-04-11T06:47:35.998Z</time></trkpt><trkpt lat="43.4906483" lon="11.4213267"><ele>561.6</ele><time>2026-04-11T06:47:37.998Z</time></trkpt><trkpt lat="43.490555" lon="11.4213433"><ele>563.2</ele><time>2026-04-11T06:47:39.998Z</time></trkpt><trkpt lat="43.49047" lon="11.4213633"><ele>564.8</ele><time>2026-04-11T06:47:41.998Z</time></trkpt><trkpt lat="43.4903817" lon="11.4213933"><ele>566.4</ele><time>2026-04-11T06:47:43.998Z</time></trkpt><trkpt lat="43.4902867" lon="11.4214167"><ele>568.0</ele><time>2026-04-11T06:47:45.998Z</time></trkpt><trkpt lat="43.49019" lon="11.4214467"><ele>568.0</ele><time>2026-04-11T06:47:47.998Z</time></trkpt><trkpt lat="43.4900917" lon="11.4214783"><ele>568.0</ele><time>2026-04-11T06:47:49.998Z</time></trkpt><trkpt lat="43.48998" lon="11.421515"><ele>568.0</ele><time>2026-04-11T06:47:51.998Z</time></trkpt><trkpt lat="43.4898567" lon="11.4215617"><ele>568.0</ele><time>2026-04-11T06:47:53.998Z</time></trkpt><trkpt lat="43.489785" lon="11.4215867"><ele>568.0</ele><time>2026-04-11T06:47:54.998Z</time></trkpt><trkpt lat="43.4897183" lon="11.42162"><ele>568.0</ele><time>2026-04-11T06:47:55.998Z</time></trkpt><trkpt lat="43.489645" lon="11.4216617"><ele>568.0</ele><time>2026-04-11T06:47:56.998Z</time></trkpt><trkpt lat="43.4895667" lon="11.42171"><ele>568.0</ele><time>2026-04-11T06:47:57.998Z</time></trkpt><trkpt lat="43.4894883" lon="11.42175"><ele>568.0</ele><time>2026-04-11T06:47:58.999Z</time></trkpt><trkpt lat="43.4894067" lon="11.4218033"><ele>568.0</ele><time>2026-04-11T06:47:59.998Z</time></trkpt><trkpt lat="43.489325" lon="11.4218517"><ele>568.0</ele><time>2026-04-11T06:48:00.999Z</time></trkpt><trkpt lat="43.48925" lon="11.4218817"><ele>565.3333333333334</ele><time>2026-04-11T06:48:01.998Z</time></trkpt><trkpt lat="43.4891683" lon="11.4218967"><ele>562.6666666666667</ele><time>2026-04-11T06:48:02.999Z</time></trkpt><trkpt lat="43.4890933" lon="11.4219"><ele>560.0</ele><time>2026-04-11T06:48:03.998Z</time></trkpt><trkpt lat="43.4890267" lon="11.4218983"><ele>557.3333333333334</ele><time>2026-04-11T06:48:04.999Z</time></trkpt><trkpt lat="43.4889583" lon="11.4219033"><ele>554.6666666666666</ele><time>2026-04-11T06:48:05.999Z</time></trkpt><trkpt lat="43.4888383" lon="11.4219333"><ele>552.0</ele><time>2026-04-11T06:48:07.998Z</time></trkpt><trkpt lat="43.4887233" lon="11.4219583"><ele>553.2</ele><time>2026-04-11T06:48:09.998Z</time></trkpt><trkpt lat="43.4886167" lon="11.4220067"><ele>554.4000000000001</ele><time>2026-04-11T06:48:11.998Z</time></trkpt><trkpt lat="43.488515" lon="11.4220533"><ele>555.5999999999999</ele><time>2026-04-11T06:48:13.998Z</time></trkpt><trkpt lat="43.488435" lon="11.4221283"><ele>556.8</ele><time>2026-04-11T06:48:15.998Z</time></trkpt><trkpt lat="43.4883567" lon="11.4222517"><ele>558.0</ele><time>2026-04-11T06:48:17.998Z</time></trkpt><trkpt lat="43.4883267" lon="11.42233"><ele>558.0</ele><time>2026-04-11T06:48:18.998Z</time></trkpt><trkpt lat="43.4883033" lon="11.4224133"><ele>558.0</ele><time>2026-04-11T06:48:19.998Z</time></trkpt><trkpt lat="43.488275" lon="11.4225667"><ele>558.0</ele><time>2026-04-11T06:48:21.998Z</time></trkpt><trkpt lat="43.4882417" lon="11.4227033"><ele>558.0</ele><time>2026-04-11T06:48:23.999Z</time></trkpt><trkpt lat="43.48817" lon="11.4227883"><ele>558.0</ele><time>2026-04-11T06:48:25.998Z</time></trkpt><trkpt lat="43.488075" lon="11.4227833"><ele>558.0</ele><time>2026-04-11T06:48:27.998Z</time></trkpt><trkpt lat="43.4879733" lon="11.4227283"><ele>558.0</ele><time>2026-04-11T06:48:29.998Z</time></trkpt><trkpt lat="43.4878917" lon="11.4226533"><ele>558.0</ele><time>2026-04-11T06:48:31.998Z</time></trkpt><trkpt lat="43.4878133" lon="11.4225817"><ele>558.0</ele><time>2026-04-11T06:48:33.998Z</time></trkpt><trkpt lat="43.4877367" lon="11.4225133"><ele>558.0</ele><time>2026-04-11T06:48:35.998Z</time></trkpt><trkpt lat="43.4876517" lon="11.42244"><ele>557.3333333333334</ele><time>2026-04-11T06:48:37.998Z</time></trkpt><trkpt lat="43.4875633" lon="11.4223533"><ele>556.6666666666666</ele><time>2026-04-11T06:48:39.998Z</time></trkpt><trkpt lat="43.48746" lon="11.422255"><ele>556.0</ele><time>2026-04-11T06:48:41.999Z</time></trkpt><trkpt lat="43.4874033" lon="11.422195"><ele>555.3333333333333</ele><time>2026-04-11T06:48:42.998Z</time></trkpt><trkpt lat="43.4873467" lon="11.422135"><ele>554.6666666666666</ele><time>2026-04-11T06:48:43.998Z</time></trkpt><trkpt lat="43.4872917" lon="11.42207"><ele>554.0</ele><time>2026-04-11T06:48:44.998Z</time></trkpt><trkpt lat="43.4872367" lon="11.422"><ele>552.1666666666666</ele><time>2026-04-11T06:48:45.999Z</time></trkpt><trkpt lat="43.4871883" lon="11.4219217"><ele>550.3333333333333</ele><time>2026-04-11T06:48:46.998Z</time></trkpt><trkpt lat="43.4871317" lon="11.4218417"><ele>548.5</ele><time>2026-04-11T06:48:47.998Z</time></trkpt><trkpt lat="43.48708" lon="11.4217633"><ele>546.6666666666666</ele><time>2026-04-11T06:48:48.999Z</time></trkpt><trkpt lat="43.48703" lon="11.4216817"><ele>544.8333333333334</ele><time>2026-04-11T06:48:49.998Z</time></trkpt><trkpt lat="43.48698" lon="11.4216"><ele>543.0</ele><time>2026-04-11T06:48:50.998Z</time></trkpt><trkpt lat="43.486935" lon="11.4215133"><ele>543.0</ele><time>2026-04-11T06:48:51.998Z</time></trkpt><trkpt lat="43.486895" lon="11.42143"><ele>543.0</ele><time>2026-04-11T06:48:52.998Z</time></trkpt><trkpt lat="43.4868483" lon="11.4213433"><ele>543.0</ele><time>2026-04-11T06:48:53.998Z</time></trkpt><trkpt lat="43.4868083" lon="11.4212567"><ele>543.0</ele><time>2026-04-11T06:48:54.999Z</time></trkpt><trkpt lat="43.4867633" lon="11.4211667"><ele>543.0</ele><time>2026-04-11T06:48:55.998Z</time></trkpt><trkpt lat="43.486715" lon="11.4210817"><ele>543.0</ele><time>2026-04-11T06:48:56.998Z</time></trkpt><trkpt lat="43.4866733" lon="11.4209983"><ele>542.8571428571429</ele><time>2026-04-11T06:48:57.999Z</time></trkpt><trkpt lat="43.4866283" lon="11.420915"><ele>542.7142857142857</ele><time>2026-04-11T06:48:58.998Z</time></trkpt><trkpt lat="43.4865817" lon="11.4208383"><ele>542.5714285714286</ele><time>2026-04-11T06:48:59.998Z</time></trkpt><trkpt lat="43.4865333" lon="11.420765"><ele>542.4285714285714</ele><time>2026-04-11T06:49:00.998Z</time></trkpt><trkpt lat="43.4864833" lon="11.4206917"><ele>542.2857142857143</ele><time>2026-04-11T06:49:01.998Z</time></trkpt><trkpt lat="43.486435" lon="11.420625"><ele>542.1428571428571</ele><time>2026-04-11T06:49:02.998Z</time></trkpt><trkpt lat="43.4863833" lon="11.420565"><ele>542.0</ele><time>2026-04-11T06:49:03.998Z</time></trkpt><trkpt lat="43.4862883" lon="11.4204717"><ele>543.0</ele><time>2026-04-11T06:49:05.998Z</time></trkpt><trkpt lat="43.4861933" lon="11.4203917"><ele>544.0</ele><time>2026-04-11T06:49:07.999Z</time></trkpt><trkpt lat="43.4860967" lon="11.420325"><ele>545.0</ele><time>2026-04-11T06:49:09.998Z</time></trkpt><trkpt lat="43.486" lon="11.4202633"><ele>546.0</ele><time>2026-04-11T06:49:11.999Z</time></trkpt><trkpt lat="43.4859033" lon="11.4202017"><ele>547.0</ele><time>2026-04-11T06:49:13.998Z</time></trkpt><trkpt lat="43.4858117" lon="11.420145"><ele>547.0</ele><time>2026-04-11T06:49:15.998Z</time></trkpt><trkpt lat="43.4857183" lon="11.4201"><ele>547.0</ele><time>2026-04-11T06:49:17.998Z</time></trkpt><trkpt lat="43.4856167" lon="11.4200417"><ele>547.0</ele><time>2026-04-11T06:49:19.998Z</time></trkpt><trkpt lat="43.485525" lon="11.41998"><ele>547.0</ele><time>2026-04-11T06:49:21.999Z</time></trkpt><trkpt lat="43.485435" lon="11.4199317"><ele>547.0</ele><time>2026-04-11T06:49:23.998Z</time></trkpt><trkpt lat="43.48534" lon="11.4198817"><ele>546.8000000000001</ele><time>2026-04-11T06:49:25.998Z</time></trkpt><trkpt lat="43.4852533" lon="11.4198233"><ele>546.6</ele><time>2026-04-11T06:49:27.998Z</time></trkpt><trkpt lat="43.4851667" lon="11.4197733"><ele>546.4000000000001</ele><time>2026-04-11T06:49:29.999Z</time></trkpt><trkpt lat="43.4850867" lon="11.41973"><ele>546.2</ele><time>2026-04-11T06:49:31.998Z</time></trkpt><trkpt lat="43.4850017" lon="11.419685"><ele>546.0</ele><time>2026-04-11T06:49:33.998Z</time></trkpt><trkpt lat="43.4849217" lon="11.41964"><ele>546.0</ele><time>2026-04-11T06:49:35.999Z</time></trkpt><trkpt lat="43.4848433" lon="11.4195917"><ele>546.0</ele><time>2026-04-11T06:49:37.998Z</time></trkpt><trkpt lat="43.4847717" lon="11.419555"><ele>546.0</ele><time>2026-04-11T06:49:39.998Z</time></trkpt><trkpt lat="43.4846917" lon="11.4195117"><ele>546.0</ele><time>2026-04-11T06:49:41.998Z</time></trkpt><trkpt lat="43.4846117" lon="11.4194783"><ele>546.0</ele><time>2026-04-11T06:49:43.998Z</time></trkpt><trkpt lat="43.484525" lon="11.4194483"><ele>546.0</ele><time>2026-04-11T06:49:45.998Z</time></trkpt><trkpt lat="43.48444" lon="11.4194367"><ele>546.3333333333334</ele><time>2026-04-11T06:49:47.998Z</time></trkpt><trkpt lat="43.4843483" lon="11.4194367"><ele>546.6666666666666</ele><time>2026-04-11T06:49:49.998Z</time></trkpt><trkpt lat="43.484255" lon="11.4194433"><ele>547.0</ele><time>2026-04-11T06:49:51.998Z</time></trkpt><trkpt lat="43.4841467" lon="11.4194783"><ele>547.3333333333333</ele><time>2026-04-11T06:49:53.998Z</time></trkpt><trkpt lat="43.4840867" lon="11.41951"><ele>547.6666666666666</ele><time>2026-04-11T06:49:54.998Z</time></trkpt><trkpt lat="43.4840217" lon="11.419545"><ele>548.0</ele><time>2026-04-11T06:49:55.998Z</time></trkpt><trkpt lat="43.483955" lon="11.41958"><ele>548.0000000000001</ele><time>2026-04-11T06:49:56.998Z</time></trkpt><trkpt lat="43.4838933" lon="11.4196117"><ele>548.0</ele><time>2026-04-11T06:49:57.998Z</time></trkpt><trkpt lat="43.4838267" lon="11.4196483"><ele>548.0</ele><time>2026-04-11T06:49:58.999Z</time></trkpt><trkpt lat="43.4837633" lon="11.41969"><ele>548.0</ele><time>2026-04-11T06:49:59.999Z</time></trkpt><trkpt lat="43.4836917" lon="11.41974"><ele>548.0</ele><time>2026-04-11T06:50:00.998Z</time></trkpt><trkpt lat="43.48362" lon="11.4197833"><ele>548.0000000000001</ele><time>2026-04-11T06:50:01.998Z</time></trkpt><trkpt lat="43.4835517" lon="11.4198317"><ele>548.0</ele><time>2026-04-11T06:50:02.998Z</time></trkpt><trkpt lat="43.483485" lon="11.4198783"><ele>547.5714285714287</ele><time>2026-04-11T06:50:03.998Z</time></trkpt><trkpt lat="43.4834117" lon="11.4199217"><ele>547.1428571428571</ele><time>2026-04-11T06:50:04.998Z</time></trkpt><trkpt lat="43.4833417" lon="11.4199633"><ele>546.7142857142858</ele><time>2026-04-11T06:50:05.998Z</time></trkpt><trkpt lat="43.48327" lon="11.4200033"><ele>546.2857142857143</ele><time>2026-04-11T06:50:06.998Z</time></trkpt><trkpt lat="43.4832067" lon="11.4200483"><ele>545.8571428571429</ele><time>2026-04-11T06:50:07.998Z</time></trkpt><trkpt lat="43.483145" lon="11.4200933"><ele>545.4285714285714</ele><time>2026-04-11T06:50:08.999Z</time></trkpt><trkpt lat="43.48308" lon="11.4201333"><ele>545.0</ele><time>2026-04-11T06:50:09.998Z</time></trkpt><trkpt lat="43.4830183" lon="11.420175"><ele>545.0</ele><time>2026-04-11T06:50:10.999Z</time></trkpt><trkpt lat="43.4829567" lon="11.420215"><ele>545.0</ele><time>2026-04-11T06:50:11.998Z</time></trkpt><trkpt lat="43.4828933" lon="11.4202567"><ele>545.0</ele><time>2026-04-11T06:50:12.998Z</time></trkpt><trkpt lat="43.48283" lon="11.4202983"><ele>545.0</ele><time>2026-04-11T06:50:13.998Z</time></trkpt><trkpt lat="43.482765" lon="11.42034"><ele>545.0</ele><time>2026-04-11T06:50:14.998Z</time></trkpt><trkpt lat="43.4827017" lon="11.4203817"><ele>545.0</ele><time>2026-04-11T06:50:15.998Z</time></trkpt><trkpt lat="43.4826367" lon="11.4204233"><ele>545.0</ele><time>2026-04-11T06:50:16.998Z</time></trkpt><trkpt lat="43.4825767" lon="11.420465"><ele>544.8571428571429</ele><time>2026-04-11T06:50:17.998Z</time></trkpt><trkpt lat="43.482515" lon="11.4205083"><ele>544.7142857142858</ele><time>2026-04-11T06:50:18.998Z</time></trkpt><trkpt lat="43.48245" lon="11.4205517"><ele>544.5714285714286</ele><time>2026-04-11T06:50:19.999Z</time></trkpt><trkpt lat="43.4823883" lon="11.4205883"><ele>544.4285714285714</ele><time>2026-04-11T06:50:20.998Z</time></trkpt><trkpt lat="43.48233" lon="11.420635"><ele>544.2857142857142</ele><time>2026-04-11T06:50:21.999Z</time></trkpt><trkpt lat="43.4822683" lon="11.42068"><ele>544.1428571428571</ele><time>2026-04-11T06:50:22.998Z</time></trkpt><trkpt lat="43.4822083" lon="11.42073"><ele>544.0</ele><time>2026-04-11T06:50:23.998Z</time></trkpt><trkpt lat="43.482155" lon="11.42078"><ele>542.9999999999999</ele><time>2026-04-11T06:50:24.998Z</time></trkpt><trkpt lat="43.482095" lon="11.4208333"><ele>542.0</ele><time>2026-04-11T06:50:25.998Z</time></trkpt><trkpt lat="43.4820317" lon="11.4208833"><ele>541.0</ele><time>2026-04-11T06:50:26.999Z</time></trkpt><trkpt lat="43.48197" lon="11.4209333"><ele>540.0</ele><time>2026-04-11T06:50:27.998Z</time></trkpt><trkpt lat="43.481905" lon="11.42098"><ele>539.0</ele><time>2026-04-11T06:50:28.999Z</time></trkpt><trkpt lat="43.4818383" lon="11.4210233"><ele>537.9999999999999</ele><time>2026-04-11T06:50:29.998Z</time></trkpt><trkpt lat="43.481775" lon="11.4210767"><ele>537.0</ele><time>2026-04-11T06:50:30.998Z</time></trkpt><trkpt lat="43.48171" lon="11.42113"><ele>537.0</ele><time>2026-04-11T06:50:31.999Z</time></trkpt><trkpt lat="43.4816433" lon="11.42118"><ele>537.0</ele><time>2026-04-11T06:50:32.998Z</time></trkpt><trkpt lat="43.4815717" lon="11.42123"><ele>537.0</ele><time>2026-04-11T06:50:33.999Z</time></trkpt><trkpt lat="43.4815083" lon="11.4212767"><ele>537.0</ele><time>2026-04-11T06:50:34.999Z</time></trkpt><trkpt lat="43.4814417" lon="11.42133"><ele>537.0</ele><time>2026-04-11T06:50:35.998Z</time></trkpt><trkpt lat="43.4813817" lon="11.4213817"><ele>537.0</ele><time>2026-04-11T06:50:36.998Z</time></trkpt><trkpt lat="43.481315" lon="11.42143"><ele>537.1666666666666</ele><time>2026-04-11T06:50:37.998Z</time></trkpt><trkpt lat="43.4812567" lon="11.4214867"><ele>537.3333333333334</ele><time>2026-04-11T06:50:38.998Z</time></trkpt><trkpt lat="43.4812017" lon="11.4215367"><ele>537.5</ele><time>2026-04-11T06:50:39.998Z</time></trkpt><trkpt lat="43.481145" lon="11.4215867"><ele>537.6666666666667</ele><time>2026-04-11T06:50:40.998Z</time></trkpt><trkpt lat="43.48109" lon="11.4216333"><ele>537.8333333333334</ele><time>2026-04-11T06:50:41.998Z</time></trkpt><trkpt lat="43.4810333" lon="11.42168"><ele>538.0</ele><time>2026-04-11T06:50:42.999Z</time></trkpt><trkpt lat="43.48093" lon="11.42176"><ele>538.0</ele><time>2026-04-11T06:50:44.998Z</time></trkpt><trkpt lat="43.4808767" lon="11.4218067"><ele>538.0</ele><time>2026-04-11T06:50:45.998Z</time></trkpt><trkpt lat="43.48082" lon="11.42186"><ele>538.0</ele><time>2026-04-11T06:50:46.998Z</time></trkpt><trkpt lat="43.4807617" lon="11.4219083"><ele>538.0</ele><time>2026-04-11T06:50:47.999Z</time></trkpt><trkpt lat="43.4806967" lon="11.4219583"><ele>538.0</ele><time>2026-04-11T06:50:48.998Z</time></trkpt><trkpt lat="43.48063" lon="11.42201"><ele>538.0</ele><time>2026-04-11T06:50:49.998Z</time></trkpt><trkpt lat="43.4805533" lon="11.4220567"><ele>538.0</ele><time>2026-04-11T06:50:50.998Z</time></trkpt><trkpt lat="43.48048" lon="11.4220983"><ele>537.2857142857143</ele><time>2026-04-11T06:50:51.998Z</time></trkpt><trkpt lat="43.4804083" lon="11.4221417"><ele>536.5714285714287</ele><time>2026-04-11T06:50:52.998Z</time></trkpt><trkpt lat="43.4803417" lon="11.4221917"><ele>535.8571428571429</ele><time>2026-04-11T06:50:53.998Z</time></trkpt><trkpt lat="43.480275" lon="11.4222517"><ele>535.1428571428571</ele><time>2026-04-11T06:50:54.998Z</time></trkpt><trkpt lat="43.48022" lon="11.4223067"><ele>534.4285714285713</ele><time>2026-04-11T06:50:55.998Z</time></trkpt><trkpt lat="43.480165" lon="11.42236"><ele>533.7142857142857</ele><time>2026-04-11T06:50:56.998Z</time></trkpt><trkpt lat="43.480105" lon="11.4224217"><ele>533.0</ele><time>2026-04-11T06:50:57.998Z</time></trkpt><trkpt lat="43.4800517" lon="11.4224833"><ele>533.0</ele><time>2026-04-11T06:50:58.998Z</time></trkpt><trkpt lat="43.4799883" lon="11.4225383"><ele>533.0</ele><time>2026-04-11T06:50:59.998Z</time></trkpt><trkpt lat="43.47993" lon="11.4226017"><ele>533.0</ele><time>2026-04-11T06:51:00.998Z</time></trkpt><trkpt lat="43.4798733" lon="11.4226667"><ele>533.0</ele><time>2026-04-11T06:51:01.998Z</time></trkpt><trkpt lat="43.4798217" lon="11.4227317"><ele>533.0</ele><time>2026-04-11T06:51:02.998Z</time></trkpt><trkpt lat="43.4797233" lon="11.4228483"><ele>533.0</ele><time>2026-04-11T06:51:04.998Z</time></trkpt><trkpt lat="43.479635" lon="11.42296"><ele>533.1999999999999</ele><time>2026-04-11T06:51:06.998Z</time></trkpt><trkpt lat="43.4795433" lon="11.423075"><ele>533.4</ele><time>2026-04-11T06:51:08.999Z</time></trkpt><trkpt lat="43.4795" lon="11.423145"><ele>533.5999999999999</ele><time>2026-04-11T06:51:09.998Z</time></trkpt><trkpt lat="43.4794583" lon="11.4232233"><ele>533.8</ele><time>2026-04-11T06:51:10.998Z</time></trkpt><trkpt lat="43.4794167" lon="11.4232933"><ele>534.0</ele><time>2026-04-11T06:51:11.998Z</time></trkpt><trkpt lat="43.4793483" lon="11.423435"><ele>534.0</ele><time>2026-04-11T06:51:13.999Z</time></trkpt><trkpt lat="43.4792767" lon="11.42357"><ele>534.0</ele><time>2026-04-11T06:51:15.999Z</time></trkpt><trkpt lat="43.4791967" lon="11.4237167"><ele>534.0</ele><time>2026-04-11T06:51:17.998Z</time></trkpt><trkpt lat="43.4791483" lon="11.423785"><ele>534.0</ele><time>2026-04-11T06:51:18.998Z</time></trkpt><trkpt lat="43.4790967" lon="11.4238567"><ele>534.0</ele><time>2026-04-11T06:51:19.998Z</time></trkpt><trkpt lat="43.4790483" lon="11.42393"><ele>533.0</ele><time>2026-04-11T06:51:20.998Z</time></trkpt><trkpt lat="43.479" lon="11.4240083"><ele>532.0</ele><time>2026-04-11T06:51:21.998Z</time></trkpt><trkpt lat="43.4789467" lon="11.4240783"><ele>531.0</ele><time>2026-04-11T06:51:22.998Z</time></trkpt><trkpt lat="43.47889" lon="11.4241467"><ele>530.0</ele><time>2026-04-11T06:51:23.998Z</time></trkpt><trkpt lat="43.4788283" lon="11.42421"><ele>529.0</ele><time>2026-04-11T06:51:24.998Z</time></trkpt><trkpt lat="43.4787633" lon="11.4242617"><ele>528.0</ele><time>2026-04-11T06:51:25.998Z</time></trkpt><trkpt lat="43.4786933" lon="11.4243167"><ele>527.0</ele><time>2026-04-11T06:51:26.998Z</time></trkpt><trkpt lat="43.4786167" lon="11.4243667"><ele>526.0</ele><time>2026-04-11T06:51:27.998Z</time></trkpt><trkpt lat="43.4785367" lon="11.4244183"><ele>525.0</ele><time>2026-04-11T06:51:28.998Z</time></trkpt><trkpt lat="43.4784517" lon="11.4244767"><ele>524.0</ele><time>2026-04-11T06:51:29.998Z</time></trkpt><trkpt lat="43.4783683" lon="11.424525"><ele>523.0</ele><time>2026-04-11T06:51:30.998Z</time></trkpt><trkpt lat="43.47829" lon="11.42457"><ele>522.0</ele><time>2026-04-11T06:51:31.998Z</time></trkpt><trkpt lat="43.4782183" lon="11.4246217"><ele>522.0</ele><time>2026-04-11T06:51:32.998Z</time></trkpt><trkpt lat="43.4781583" lon="11.4246567"><ele>522.0</ele><time>2026-04-11T06:51:33.998Z</time></trkpt><trkpt lat="43.4780583" lon="11.4246833"><ele>522.0</ele><time>2026-04-11T06:51:35.998Z</time></trkpt><trkpt lat="43.4779467" lon="11.4246167"><ele>522.0</ele><time>2026-04-11T06:51:37.998Z</time></trkpt><trkpt lat="43.4778967" lon="11.4245583"><ele>522.0</ele><time>2026-04-11T06:51:38.998Z</time></trkpt><trkpt lat="43.47785" lon="11.4244883"><ele>522.0</ele><time>2026-04-11T06:51:39.998Z</time></trkpt><trkpt lat="43.4778033" lon="11.424405"><ele>519.6666666666666</ele><time>2026-04-11T06:51:40.998Z</time></trkpt><trkpt lat="43.477755" lon="11.4243233"><ele>517.3333333333334</ele><time>2026-04-11T06:51:41.998Z</time></trkpt><trkpt lat="43.4777067" lon="11.4242317"><ele>515.0</ele><time>2026-04-11T06:51:42.998Z</time></trkpt><trkpt lat="43.4776483" lon="11.424135"><ele>512.6666666666667</ele><time>2026-04-11T06:51:43.998Z</time></trkpt><trkpt lat="43.4775867" lon="11.4240433"><ele>510.33333333333337</ele><time>2026-04-11T06:51:44.998Z</time></trkpt><trkpt lat="43.477525" lon="11.4239483"><ele>508.0</ele><time>2026-04-11T06:51:45.998Z</time></trkpt><trkpt lat="43.477455" lon="11.42385"><ele>508.0</ele><time>2026-04-11T06:51:46.998Z</time></trkpt><trkpt lat="43.4773817" lon="11.4237433"><ele>507.99999999999994</ele><time>2026-04-11T06:51:47.998Z</time></trkpt><trkpt lat="43.4773017" lon="11.42364"><ele>507.99999999999994</ele><time>2026-04-11T06:51:48.998Z</time></trkpt><trkpt lat="43.4772317" lon="11.4235333"><ele>508.0</ele><time>2026-04-11T06:51:49.998Z</time></trkpt><trkpt lat="43.4771583" lon="11.4234383"><ele>508.0</ele><time>2026-04-11T06:51:50.998Z</time></trkpt><trkpt lat="43.4770917" lon="11.423345"><ele>507.6666666666667</ele><time>2026-04-11T06:51:51.998Z</time></trkpt><trkpt lat="43.4770267" lon="11.42326"><ele>507.33333333333337</ele><time>2026-04-11T06:51:52.998Z</time></trkpt><trkpt lat="43.476965" lon="11.4231817"><ele>507.0</ele><time>2026-04-11T06:51:53.998Z</time></trkpt><trkpt lat="43.476905" lon="11.42311"><ele>506.66666666666663</ele><time>2026-04-11T06:51:54.998Z</time></trkpt><trkpt lat="43.47685" lon="11.4230467"><ele>506.3333333333333</ele><time>2026-04-11T06:51:55.998Z</time></trkpt><trkpt lat="43.476795" lon="11.4229883"><ele>506.0</ele><time>2026-04-11T06:51:56.998Z</time></trkpt><trkpt lat="43.47674" lon="11.4229383"><ele>505.66666666666663</ele><time>2026-04-11T06:51:57.998Z</time></trkpt><trkpt lat="43.47663" lon="11.4228467"><ele>505.3333333333333</ele><time>2026-04-11T06:51:59.998Z</time></trkpt><trkpt lat="43.4765683" lon="11.4228083"><ele>505.0</ele><time>2026-04-11T06:52:00.998Z</time></trkpt><trkpt lat="43.4765017" lon="11.42277"><ele>504.66666666666663</ele><time>2026-04-11T06:52:01.998Z</time></trkpt><trkpt lat="43.4764317" lon="11.42273"><ele>504.3333333333333</ele><time>2026-04-11T06:52:02.998Z</time></trkpt><trkpt lat="43.476355" lon="11.42268"><ele>504.0</ele><time>2026-04-11T06:52:03.998Z</time></trkpt><trkpt lat="43.4762783" lon="11.4226333"><ele>504.3333333333333</ele><time>2026-04-11T06:52:04.998Z</time></trkpt><trkpt lat="43.476205" lon="11.42259"><ele>504.66666666666663</ele><time>2026-04-11T06:52:05.998Z</time></trkpt><trkpt lat="43.4761267" lon="11.4225467"><ele>505.0</ele><time>2026-04-11T06:52:06.998Z</time></trkpt><trkpt lat="43.4760517" lon="11.4225083"><ele>505.3333333333333</ele><time>2026-04-11T06:52:07.998Z</time></trkpt><trkpt lat="43.47598" lon="11.42247"><ele>505.66666666666663</ele><time>2026-04-11T06:52:08.998Z</time></trkpt><trkpt lat="43.4759033" lon="11.4224283"><ele>506.0</ele><time>2026-04-11T06:52:09.998Z</time></trkpt><trkpt lat="43.4758267" lon="11.422395"><ele>505.99999999999994</ele><time>2026-04-11T06:52:10.999Z</time></trkpt><trkpt lat="43.47575" lon="11.4223733"><ele>506.0</ele><time>2026-04-11T06:52:11.998Z</time></trkpt><trkpt lat="43.475675" lon="11.42236"><ele>506.0</ele><time>2026-04-11T06:52:12.998Z</time></trkpt><trkpt lat="43.475605" lon="11.4223583"><ele>506.0</ele><time>2026-04-11T06:52:13.998Z</time></trkpt><trkpt lat="43.4755417" lon="11.42236"><ele>505.99999999999994</ele><time>2026-04-11T06:52:14.999Z</time></trkpt><trkpt lat="43.4754367" lon="11.4223983"><ele>506.0</ele><time>2026-04-11T06:52:16.998Z</time></trkpt><trkpt lat="43.4753617" lon="11.4224383"><ele>507.8333333333333</ele><time>2026-04-11T06:52:18.998Z</time></trkpt><trkpt lat="43.4752983" lon="11.42248"><ele>509.66666666666663</ele><time>2026-04-11T06:52:20.998Z</time></trkpt><trkpt lat="43.4752267" lon="11.422515"><ele>511.5</ele><time>2026-04-11T06:52:22.998Z</time></trkpt><trkpt lat="43.4751467" lon="11.42257"><ele>513.3333333333334</ele><time>2026-04-11T06:52:25.998Z</time></trkpt><trkpt lat="43.4750717" lon="11.422595"><ele>515.1666666666667</ele><time>2026-04-11T06:52:28.998Z</time></trkpt><trkpt lat="43.4750033" lon="11.4226333"><ele>517.0</ele><time>2026-04-11T06:52:31.999Z</time></trkpt><trkpt lat="43.4749167" lon="11.4226467"><ele>517.0</ele><time>2026-04-11T06:52:34.998Z</time></trkpt><trkpt lat="43.4748267" lon="11.4226433"><ele>517.0</ele><time>2026-04-11T06:52:37.998Z</time></trkpt><trkpt lat="43.47474" lon="11.4226383"><ele>517.0</ele><time>2026-04-11T06:52:40.998Z</time></trkpt><trkpt lat="43.47465" lon="11.422615"><ele>517.0</ele><time>2026-04-11T06:52:43.998Z</time></trkpt><trkpt lat="43.474575" lon="11.4225817"><ele>517.0</ele><time>2026-04-11T06:52:46.998Z</time></trkpt><trkpt lat="43.474515" lon="11.422545"><ele>517.0</ele><time>2026-04-11T06:52:48.998Z</time></trkpt><trkpt lat="43.47445" lon="11.4225183"><ele>517.4285714285714</ele><time>2026-04-11T06:52:50.999Z</time></trkpt><trkpt lat="43.4743817" lon="11.4224983"><ele>517.8571428571429</ele><time>2026-04-11T06:52:52.999Z</time></trkpt><trkpt lat="43.4743117" lon="11.4224833"><ele>518.2857142857143</ele><time>2026-04-11T06:52:54.998Z</time></trkpt><trkpt lat="43.474235" lon="11.4224683"><ele>518.7142857142858</ele><time>2026-04-11T06:52:56.998Z</time></trkpt><trkpt lat="43.4741683" lon="11.4224433"><ele>519.1428571428571</ele><time>2026-04-11T06:52:58.998Z</time></trkpt><trkpt lat="43.4741" lon="11.4224233"><ele>519.5714285714287</ele><time>2026-04-11T06:53:00.999Z</time></trkpt><trkpt lat="43.4740317" lon="11.4224283"><ele>520.0</ele><time>2026-04-11T06:53:02.998Z</time></trkpt><trkpt lat="43.47396" lon="11.4224267"><ele>520.0</ele><time>2026-04-11T06:53:04.998Z</time></trkpt><trkpt lat="43.47388" lon="11.42241"><ele>520.0</ele><time>2026-04-11T06:53:06.998Z</time></trkpt><trkpt lat="43.4738" lon="11.422395"><ele>520.0</ele><time>2026-04-11T06:53:08.999Z</time></trkpt><trkpt lat="43.4737067" lon="11.422365"><ele>520.0</ele><time>2026-04-11T06:53:10.998Z</time></trkpt><trkpt lat="43.4736083" lon="11.4223333"><ele>520.0</ele><time>2026-04-11T06:53:12.998Z</time></trkpt><trkpt lat="43.4734983" lon="11.4222867"><ele>519.6666666666667</ele><time>2026-04-11T06:53:14.999Z</time></trkpt><trkpt lat="43.4733833" lon="11.42223"><ele>519.3333333333334</ele><time>2026-04-11T06:53:16.998Z</time></trkpt><trkpt lat="43.4733167" lon="11.4222017"><ele>519.0</ele><time>2026-04-11T06:53:17.998Z</time></trkpt><trkpt lat="43.47325" lon="11.4221683"><ele>518.6666666666666</ele><time>2026-04-11T06:53:18.999Z</time></trkpt><trkpt lat="43.4731833" lon="11.4221267"><ele>518.3333333333333</ele><time>2026-04-11T06:53:19.999Z</time></trkpt><trkpt lat="43.4731167" lon="11.4220833"><ele>518.0</ele><time>2026-04-11T06:53:20.998Z</time></trkpt><trkpt lat="43.4730533" lon="11.4220333"><ele>517.8333333333333</ele><time>2026-04-11T06:53:21.998Z</time></trkpt><trkpt lat="43.4729983" lon="11.4219683"><ele>517.6666666666666</ele><time>2026-04-11T06:53:22.998Z</time></trkpt><trkpt lat="43.4729417" lon="11.4219017"><ele>517.5</ele><time>2026-04-11T06:53:23.998Z</time></trkpt><trkpt lat="43.4728817" lon="11.4218317"><ele>517.3333333333334</ele><time>2026-04-11T06:53:24.998Z</time></trkpt><trkpt lat="43.4728217" lon="11.4217683"><ele>517.1666666666667</ele><time>2026-04-11T06:53:25.998Z</time></trkpt><trkpt lat="43.4727733" lon="11.4217117"><ele>517.0</ele><time>2026-04-11T06:53:26.998Z</time></trkpt><trkpt lat="43.4726883" lon="11.4216283"><ele>517.0</ele><time>2026-04-11T06:53:28.998Z</time></trkpt><trkpt lat="43.4726233" lon="11.42156"><ele>517.0</ele><time>2026-04-11T06:53:30.999Z</time></trkpt><trkpt lat="43.472565" lon="11.421505"><ele>517.0</ele><time>2026-04-11T06:53:32.998Z</time></trkpt><trkpt lat="43.4724883" lon="11.4214467"><ele>517.0</ele><time>2026-04-11T06:53:35.998Z</time></trkpt><trkpt lat="43.472415" lon="11.4214"><ele>517.0</ele><time>2026-04-11T06:53:38.998Z</time></trkpt><trkpt lat="43.472355" lon="11.4213617"><ele>517.0</ele><time>2026-04-11T06:53:40.998Z</time></trkpt><trkpt lat="43.472295" lon="11.4213217"><ele>517.1666666666667</ele><time>2026-04-11T06:53:42.998Z</time></trkpt><trkpt lat="43.4722217" lon="11.4212833"><ele>517.3333333333334</ele><time>2026-04-11T06:53:44.998Z</time></trkpt><trkpt lat="43.4721483" lon="11.421245"><ele>517.5</ele><time>2026-04-11T06:53:46.998Z</time></trkpt><trkpt lat="43.472075" lon="11.42121"><ele>517.6666666666666</ele><time>2026-04-11T06:53:48.998Z</time></trkpt><trkpt lat="43.4720067" lon="11.4211783"><ele>517.8333333333333</ele><time>2026-04-11T06:53:50.998Z</time></trkpt><trkpt lat="43.4719433" lon="11.421145"><ele>518.0</ele><time>2026-04-11T06:53:52.999Z</time></trkpt><trkpt lat="43.4718767" lon="11.4210867"><ele>518.6666666666666</ele><time>2026-04-11T06:53:54.998Z</time></trkpt><trkpt lat="43.4718217" lon="11.4210233"><ele>519.3333333333333</ele><time>2026-04-11T06:53:56.999Z</time></trkpt><trkpt lat="43.47176" lon="11.4209617"><ele>520.0</ele><time>2026-04-11T06:53:58.998Z</time></trkpt><trkpt lat="43.4716983" lon="11.4208933"><ele>520.6666666666666</ele><time>2026-04-11T06:54:00.998Z</time></trkpt><trkpt lat="43.47164" lon="11.4208183"><ele>521.3333333333334</ele><time>2026-04-11T06:54:02.998Z</time></trkpt><trkpt lat="43.47158" lon="11.4207467"><ele>522.0</ele><time>2026-04-11T06:54:04.998Z</time></trkpt><trkpt lat="43.47152" lon="11.4206717"><ele>522.0</ele><time>2026-04-11T06:54:06.998Z</time></trkpt><trkpt lat="43.4714667" lon="11.4205917"><ele>522.0</ele><time>2026-04-11T06:54:08.998Z</time></trkpt><trkpt lat="43.4714167" lon="11.4204933"><ele>522.0</ele><time>2026-04-11T06:54:10.998Z</time></trkpt><trkpt lat="43.4713617" lon="11.420395"><ele>522.0</ele><time>2026-04-11T06:54:12.998Z</time></trkpt><trkpt lat="43.4713033" lon="11.4202783"><ele>522.0</ele><time>2026-04-11T06:54:14.998Z</time></trkpt><trkpt lat="43.4712317" lon="11.4201617"><ele>520.2</ele><time>2026-04-11T06:54:16.998Z</time></trkpt><trkpt lat="43.4711583" lon="11.4200267"><ele>518.4000000000001</ele><time>2026-04-11T06:54:18.998Z</time></trkpt><trkpt lat="43.4711117" lon="11.4199383"><ele>516.5999999999999</ele><time>2026-04-11T06:54:19.998Z</time></trkpt><trkpt lat="43.471065" lon="11.4198517"><ele>514.8</ele><time>2026-04-11T06:54:20.998Z</time></trkpt><trkpt lat="43.471015" lon="11.4197683"><ele>513.0</ele><time>2026-04-11T06:54:21.998Z</time></trkpt><trkpt lat="43.4709533" lon="11.419675"><ele>511.8333333333333</ele><time>2026-04-11T06:54:22.998Z</time></trkpt><trkpt lat="43.4708883" lon="11.4195867"><ele>510.66666666666663</ele><time>2026-04-11T06:54:23.998Z</time></trkpt><trkpt lat="43.470825" lon="11.4195017"><ele>509.5</ele><time>2026-04-11T06:54:24.999Z</time></trkpt><trkpt lat="43.4707667" lon="11.41942"><ele>508.3333333333333</ele><time>2026-04-11T06:54:25.998Z</time></trkpt><trkpt lat="43.4707133" lon="11.4193283"><ele>507.16666666666663</ele><time>2026-04-11T06:54:26.998Z</time></trkpt><trkpt lat="43.4706617" lon="11.41923"><ele>506.0</ele><time>2026-04-11T06:54:27.999Z</time></trkpt><trkpt lat="43.47061" lon="11.4191383"><ele>505.99999999999994</ele><time>2026-04-11T06:54:28.998Z</time></trkpt><trkpt lat="43.4705633" lon="11.4190467"><ele>506.0</ele><time>2026-04-11T06:54:29.998Z</time></trkpt><trkpt lat="43.4705183" lon="11.418965"><ele>506.0</ele><time>2026-04-11T06:54:30.998Z</time></trkpt><trkpt lat="43.4704783" lon="11.4188783"><ele>506.0</ele><time>2026-04-11T06:54:31.998Z</time></trkpt><trkpt lat="43.470435" lon="11.4187983"><ele>505.99999999999994</ele><time>2026-04-11T06:54:32.998Z</time></trkpt><trkpt lat="43.4703917" lon="11.4187283"><ele>506.0</ele><time>2026-04-11T06:54:33.998Z</time></trkpt><trkpt lat="43.4703183" lon="11.418605"><ele>505.6</ele><time>2026-04-11T06:54:35.998Z</time></trkpt><trkpt lat="43.4702433" lon="11.41853"><ele>505.20000000000005</ele><time>2026-04-11T06:54:37.998Z</time></trkpt><trkpt lat="43.47017" lon="11.4185567"><ele>504.79999999999995</ele><time>2026-04-11T06:54:39.999Z</time></trkpt><trkpt lat="43.4701117" lon="11.4186733"><ele>504.4</ele><time>2026-04-11T06:54:41.998Z</time></trkpt><trkpt lat="43.47005" lon="11.418805"><ele>504.0</ele><time>2026-04-11T06:54:43.999Z</time></trkpt><trkpt lat="43.46997" lon="11.4189367"><ele>504.0</ele><time>2026-04-11T06:54:45.998Z</time></trkpt><trkpt lat="43.4698833" lon="11.4190633"><ele>504.0</ele><time>2026-04-11T06:54:47.999Z</time></trkpt><trkpt lat="43.4698133" lon="11.419185"><ele>504.0</ele><time>2026-04-11T06:54:49.999Z</time></trkpt><trkpt lat="43.46974" lon="11.4193133"><ele>504.0</ele><time>2026-04-11T06:54:51.998Z</time></trkpt><trkpt lat="43.4697067" lon="11.419465"><ele>504.0</ele><time>2026-04-11T06:54:53.998Z</time></trkpt><trkpt lat="43.4697217" lon="11.4196217"><ele>504.0</ele><time>2026-04-11T06:54:55.998Z</time></trkpt><trkpt lat="43.4697433" lon="11.4197067"><ele>504.0</ele><time>2026-04-11T06:54:56.999Z</time></trkpt><trkpt lat="43.469775" lon="11.419795"><ele>504.0</ele><time>2026-04-11T06:54:57.998Z</time></trkpt><trkpt lat="43.4698133" lon="11.4198867"><ele>504.0</ele><time>2026-04-11T06:54:58.998Z</time></trkpt><trkpt lat="43.4698567" lon="11.4199783"><ele>504.0</ele><time>2026-04-11T06:54:59.998Z</time></trkpt><trkpt lat="43.469905" lon="11.42008"><ele>503.4</ele><time>2026-04-11T06:55:00.999Z</time></trkpt><trkpt lat="43.46995" lon="11.4201833"><ele>502.79999999999995</ele><time>2026-04-11T06:55:01.998Z</time></trkpt><trkpt lat="43.4699983" lon="11.4202833"><ele>502.20000000000005</ele><time>2026-04-11T06:55:02.998Z</time></trkpt><trkpt lat="43.4700533" lon="11.420385"><ele>501.6</ele><time>2026-04-11T06:55:03.998Z</time></trkpt><trkpt lat="43.4701033" lon="11.4204967"><ele>501.0</ele><time>2026-04-11T06:55:04.998Z</time></trkpt><trkpt lat="43.4701567" lon="11.4206067"><ele>499.1666666666667</ele><time>2026-04-11T06:55:05.999Z</time></trkpt><trkpt lat="43.4702033" lon="11.42071"><ele>497.33333333333337</ele><time>2026-04-11T06:55:06.998Z</time></trkpt><trkpt lat="43.4702517" lon="11.420815"><ele>495.5</ele><time>2026-04-11T06:55:07.998Z</time></trkpt><trkpt lat="43.4703" lon="11.4209267"><ele>493.6666666666667</ele><time>2026-04-11T06:55:08.998Z</time></trkpt><trkpt lat="43.4703367" lon="11.4210367"><ele>491.83333333333337</ele><time>2026-04-11T06:55:09.998Z</time></trkpt><trkpt lat="43.4703517" lon="11.421155"><ele>490.0</ele><time>2026-04-11T06:55:10.998Z</time></trkpt><trkpt lat="43.47034" lon="11.4212717"><ele>490.50000000000006</ele><time>2026-04-11T06:55:11.999Z</time></trkpt><trkpt lat="43.4703033" lon="11.421385"><ele>491.0</ele><time>2026-04-11T06:55:12.998Z</time></trkpt><trkpt lat="43.47025" lon="11.4214833"><ele>491.5</ele><time>2026-04-11T06:55:13.998Z</time></trkpt><trkpt lat="43.4701733" lon="11.4215533"><ele>492.0</ele><time>2026-04-11T06:55:14.999Z</time></trkpt><trkpt lat="43.4700983" lon="11.4215983"><ele>492.50000000000006</ele><time>2026-04-11T06:55:15.998Z</time></trkpt><trkpt lat="43.4700217" lon="11.421645"><ele>493.0</ele><time>2026-04-11T06:55:16.998Z</time></trkpt><trkpt lat="43.46995" lon="11.4216967"><ele>493.00000000000006</ele><time>2026-04-11T06:55:17.998Z</time></trkpt><trkpt lat="43.46988" lon="11.4217483"><ele>493.0</ele><time>2026-04-11T06:55:18.998Z</time></trkpt><trkpt lat="43.469815" lon="11.4218017"><ele>493.0</ele><time>2026-04-11T06:55:19.999Z</time></trkpt><trkpt lat="43.4697417" lon="11.4218567"><ele>493.0</ele><time>2026-04-11T06:55:20.998Z</time></trkpt><trkpt lat="43.46967" lon="11.4219067"><ele>493.00000000000006</ele><time>2026-04-11T06:55:21.998Z</time></trkpt><trkpt lat="43.4695967" lon="11.421965"><ele>493.0</ele><time>2026-04-11T06:55:22.998Z</time></trkpt><trkpt lat="43.4695283" lon="11.4220133"><ele>492.50000000000006</ele><time>2026-04-11T06:55:23.998Z</time></trkpt><trkpt lat="43.4694583" lon="11.4220617"><ele>492.0</ele><time>2026-04-11T06:55:24.998Z</time></trkpt><trkpt lat="43.4693883" lon="11.4221083"><ele>491.5</ele><time>2026-04-11T06:55:25.998Z</time></trkpt><trkpt lat="43.469315" lon="11.4221583"><ele>491.0</ele><time>2026-04-11T06:55:26.998Z</time></trkpt><trkpt lat="43.46924" lon="11.4222083"><ele>490.50000000000006</ele><time>2026-04-11T06:55:27.999Z</time></trkpt><trkpt lat="43.4691667" lon="11.42226"><ele>490.0</ele><time>2026-04-11T06:55:28.998Z</time></trkpt><trkpt lat="43.469095" lon="11.4223183"><ele>490.00000000000006</ele><time>2026-04-11T06:55:29.998Z</time></trkpt><trkpt lat="43.4690217" lon="11.4223733"><ele>490.0</ele><time>2026-04-11T06:55:30.999Z</time></trkpt><trkpt lat="43.468945" lon="11.4224283"><ele>490.0</ele><time>2026-04-11T06:55:31.998Z</time></trkpt><trkpt lat="43.4688683" lon="11.4224883"><ele>490.0</ele><time>2026-04-11T06:55:32.998Z</time></trkpt><trkpt lat="43.4687883" lon="11.4225517"><ele>490.00000000000006</ele><time>2026-04-11T06:55:33.998Z</time></trkpt><trkpt lat="43.46871" lon="11.4226117"><ele>490.0</ele><time>2026-04-11T06:55:34.998Z</time></trkpt><trkpt lat="43.468635" lon="11.4226667"><ele>488.50000000000006</ele><time>2026-04-11T06:55:35.998Z</time></trkpt><trkpt lat="43.4685567" lon="11.42273"><ele>487.0</ele><time>2026-04-11T06:55:36.998Z</time></trkpt><trkpt lat="43.4684767" lon="11.4227883"><ele>485.5</ele><time>2026-04-11T06:55:37.998Z</time></trkpt><trkpt lat="43.4683967" lon="11.422845"><ele>484.0</ele><time>2026-04-11T06:55:38.998Z</time></trkpt><trkpt lat="43.46832" lon="11.422895"><ele>482.50000000000006</ele><time>2026-04-11T06:55:39.998Z</time></trkpt><trkpt lat="43.46825" lon="11.4229367"><ele>481.0</ele><time>2026-04-11T06:55:40.998Z</time></trkpt><trkpt lat="43.4681867" lon="11.4229817"><ele>481.00000000000006</ele><time>2026-04-11T06:55:41.998Z</time></trkpt><trkpt lat="43.4681217" lon="11.4230267"><ele>481.0</ele><time>2026-04-11T06:55:42.998Z</time></trkpt><trkpt lat="43.4680533" lon="11.4230533"><ele>481.0</ele><time>2026-04-11T06:55:43.998Z</time></trkpt><trkpt lat="43.4679867" lon="11.423075"><ele>481.0</ele><time>2026-04-11T06:55:44.998Z</time></trkpt><trkpt lat="43.46786" lon="11.42309"><ele>481.00000000000006</ele><time>2026-04-11T06:55:46.998Z</time></trkpt><trkpt lat="43.4677567" lon="11.4231083"><ele>481.0</ele><time>2026-04-11T06:55:48.998Z</time></trkpt><trkpt lat="43.4676833" lon="11.4231917"><ele>480.6666666666667</ele><time>2026-04-11T06:55:50.998Z</time></trkpt><trkpt lat="43.4676483" lon="11.4233583"><ele>480.33333333333337</ele><time>2026-04-11T06:55:52.999Z</time></trkpt><trkpt lat="43.467655" lon="11.4234467"><ele>480.0</ele><time>2026-04-11T06:55:53.998Z</time></trkpt><trkpt lat="43.4676933" lon="11.4235283"><ele>479.66666666666663</ele><time>2026-04-11T06:55:54.998Z</time></trkpt><trkpt lat="43.4677567" lon="11.4236017"><ele>479.3333333333333</ele><time>2026-04-11T06:55:55.998Z</time></trkpt><trkpt lat="43.4678283" lon="11.42366"><ele>479.0</ele><time>2026-04-11T06:55:56.998Z</time></trkpt><trkpt lat="43.467915" lon="11.4237183"><ele>479.4</ele><time>2026-04-11T06:55:57.998Z</time></trkpt><trkpt lat="43.468005" lon="11.42379"><ele>479.79999999999995</ele><time>2026-04-11T06:55:58.998Z</time></trkpt><trkpt lat="43.4680967" lon="11.423875"><ele>480.20000000000005</ele><time>2026-04-11T06:55:59.998Z</time></trkpt><trkpt lat="43.4681883" lon="11.4239617"><ele>480.6</ele><time>2026-04-11T06:56:00.998Z</time></trkpt><trkpt lat="43.4682817" lon="11.4240483"><ele>481.0</ele><time>2026-04-11T06:56:01.998Z</time></trkpt><trkpt lat="43.4683633" lon="11.4241233"><ele>478.6</ele><time>2026-04-11T06:56:02.999Z</time></trkpt><trkpt lat="43.46845" lon="11.4241967"><ele>476.20000000000005</ele><time>2026-04-11T06:56:03.998Z</time></trkpt><trkpt lat="43.4685517" lon="11.424255"><ele>473.79999999999995</ele><time>2026-04-11T06:56:04.998Z</time></trkpt><trkpt lat="43.46866" lon="11.4242867"><ele>471.4</ele><time>2026-04-11T06:56:05.998Z</time></trkpt><trkpt lat="43.4687767" lon="11.424305"><ele>469.0</ele><time>2026-04-11T06:56:06.998Z</time></trkpt><trkpt lat="43.4688867" lon="11.4243183"><ele>468.5</ele><time>2026-04-11T06:56:07.999Z</time></trkpt><trkpt lat="43.4690033" lon="11.4243383"><ele>468.0</ele><time>2026-04-11T06:56:08.998Z</time></trkpt><trkpt lat="43.4691117" lon="11.4243517"><ele>467.5</ele><time>2026-04-11T06:56:09.998Z</time></trkpt><trkpt lat="43.4692233" lon="11.4243683"><ele>467.0</ele><time>2026-04-11T06:56:10.999Z</time></trkpt><trkpt lat="43.4693383" lon="11.4243983"><ele>467.0</ele><time>2026-04-11T06:56:11.998Z</time></trkpt><trkpt lat="43.4694467" lon="11.4244483"><ele>467.00000000000006</ele><time>2026-04-11T06:56:12.998Z</time></trkpt><trkpt lat="43.4695517" lon="11.4245033"><ele>467.00000000000006</ele><time>2026-04-11T06:56:13.998Z</time></trkpt><trkpt lat="43.4696383" lon="11.4245717"><ele>467.0</ele><time>2026-04-11T06:56:14.998Z</time></trkpt><trkpt lat="43.46971" lon="11.4246533"><ele>467.0</ele><time>2026-04-11T06:56:15.999Z</time></trkpt><trkpt lat="43.469765" lon="11.4247533"><ele>465.6</ele><time>2026-04-11T06:56:16.998Z</time></trkpt><trkpt lat="43.469795" lon="11.4248667"><ele>464.20000000000005</ele><time>2026-04-11T06:56:17.998Z</time></trkpt><trkpt lat="43.4698183" lon="11.425"><ele>462.8</ele><time>2026-04-11T06:56:18.998Z</time></trkpt><trkpt lat="43.4698383" lon="11.4251367"><ele>461.4</ele><time>2026-04-11T06:56:19.999Z</time></trkpt><trkpt lat="43.4698567" lon="11.425295"><ele>460.0</ele><time>2026-04-11T06:56:20.998Z</time></trkpt><trkpt lat="43.4698733" lon="11.425445"><ele>457.0</ele><time>2026-04-11T06:56:21.998Z</time></trkpt><trkpt lat="43.469885" lon="11.4256133"><ele>454.0</ele><time>2026-04-11T06:56:22.998Z</time></trkpt><trkpt lat="43.469895" lon="11.4257867"><ele>451.0</ele><time>2026-04-11T06:56:23.998Z</time></trkpt><trkpt lat="43.4699" lon="11.4259467"><ele>448.0</ele><time>2026-04-11T06:56:24.998Z</time></trkpt><trkpt lat="43.4699033" lon="11.4261"><ele>448.0</ele><time>2026-04-11T06:56:25.998Z</time></trkpt><trkpt lat="43.4699017" lon="11.4262517"><ele>448.0</ele><time>2026-04-11T06:56:26.998Z</time></trkpt><trkpt lat="43.4698883" lon="11.4264117"><ele>448.0</ele><time>2026-04-11T06:56:27.998Z</time></trkpt><trkpt lat="43.4698683" lon="11.4265733"><ele>448.0</ele><time>2026-04-11T06:56:28.998Z</time></trkpt><trkpt lat="43.4698467" lon="11.42673"><ele>446.4</ele><time>2026-04-11T06:56:29.998Z</time></trkpt><trkpt lat="43.46983" lon="11.42688"><ele>444.79999999999995</ele><time>2026-04-11T06:56:30.998Z</time></trkpt><trkpt lat="43.4698033" lon="11.4270233"><ele>443.2</ele><time>2026-04-11T06:56:31.998Z</time></trkpt><trkpt lat="43.46977" lon="11.4271567"><ele>441.6</ele><time>2026-04-11T06:56:32.998Z</time></trkpt><trkpt lat="43.4697267" lon="11.4272933"><ele>440.0</ele><time>2026-04-11T06:56:33.998Z</time></trkpt><trkpt lat="43.46966" lon="11.42744"><ele>435.5</ele><time>2026-04-11T06:56:34.998Z</time></trkpt><trkpt lat="43.4695867" lon="11.427585"><ele>431.0</ele><time>2026-04-11T06:56:35.998Z</time></trkpt><trkpt lat="43.469505" lon="11.4277367"><ele>426.5</ele><time>2026-04-11T06:56:36.999Z</time></trkpt><trkpt lat="43.4694183" lon="11.4278767"><ele>422.0</ele><time>2026-04-11T06:56:37.998Z</time></trkpt><trkpt lat="43.46933" lon="11.4280167"><ele>421.75</ele><time>2026-04-11T06:56:38.998Z</time></trkpt><trkpt lat="43.4692383" lon="11.4281617"><ele>421.5</ele><time>2026-04-11T06:56:39.998Z</time></trkpt><trkpt lat="43.4691417" lon="11.4283117"><ele>421.25</ele><time>2026-04-11T06:56:40.998Z</time></trkpt><trkpt lat="43.4690467" lon="11.4284617"><ele>421.0</ele><time>2026-04-11T06:56:41.998Z</time></trkpt><trkpt lat="43.468955" lon="11.4286133"><ele>421.0</ele><time>2026-04-11T06:56:42.998Z</time></trkpt><trkpt lat="43.4688633" lon="11.4287683"><ele>421.0</ele><time>2026-04-11T06:56:43.998Z</time></trkpt><trkpt lat="43.4687733" lon="11.4289117"><ele>421.0</ele><time>2026-04-11T06:56:44.998Z</time></trkpt><trkpt lat="43.468685" lon="11.429055"><ele>421.0</ele><time>2026-04-11T06:56:45.998Z</time></trkpt><trkpt lat="43.4685933" lon="11.42919"><ele>417.75</ele><time>2026-04-11T06:56:46.999Z</time></trkpt><trkpt lat="43.46851" lon="11.4293283"><ele>414.5</ele><time>2026-04-11T06:56:47.998Z</time></trkpt><trkpt lat="43.4684317" lon="11.4294483"><ele>411.25</ele><time>2026-04-11T06:56:48.998Z</time></trkpt><trkpt lat="43.4683517" lon="11.42956"><ele>408.0</ele><time>2026-04-11T06:56:49.998Z</time></trkpt><trkpt lat="43.4682517" lon="11.4296467"><ele>406.75</ele><time>2026-04-11T06:56:50.998Z</time></trkpt><trkpt lat="43.46814" lon="11.429735"><ele>405.5</ele><time>2026-04-11T06:56:51.998Z</time></trkpt><trkpt lat="43.46803" lon="11.4297967"><ele>404.25</ele><time>2026-04-11T06:56:52.998Z</time></trkpt><trkpt lat="43.467925" lon="11.429865"><ele>403.0</ele><time>2026-04-11T06:56:53.998Z</time></trkpt><trkpt lat="43.467825" lon="11.4299417"><ele>402.0</ele><time>2026-04-11T06:56:54.998Z</time></trkpt><trkpt lat="43.4677367" lon="11.4300133"><ele>401.0</ele><time>2026-04-11T06:56:55.998Z</time></trkpt><trkpt lat="43.4676333" lon="11.4300833"><ele>400.0</ele><time>2026-04-11T06:56:56.998Z</time></trkpt><trkpt lat="43.467535" lon="11.4301483"><ele>399.0</ele><time>2026-04-11T06:56:57.998Z</time></trkpt><trkpt lat="43.4674417" lon="11.43021"><ele>398.0</ele><time>2026-04-11T06:56:58.998Z</time></trkpt><trkpt lat="43.4673467" lon="11.4302717"><ele>398.0</ele><time>2026-04-11T06:56:59.998Z</time></trkpt><trkpt lat="43.4672617" lon="11.4303333"><ele>398.0</ele><time>2026-04-11T06:57:00.998Z</time></trkpt><trkpt lat="43.4671833" lon="11.4303817"><ele>398.0</ele><time>2026-04-11T06:57:01.998Z</time></trkpt><trkpt lat="43.4671033" lon="11.4304367"><ele>398.0</ele><time>2026-04-11T06:57:02.999Z</time></trkpt><trkpt lat="43.467015" lon="11.4304833"><ele>398.0</ele><time>2026-04-11T06:57:03.998Z</time></trkpt><trkpt lat="43.4669333" lon="11.43053"><ele>396.3333333333333</ele><time>2026-04-11T06:57:04.998Z</time></trkpt><trkpt lat="43.4668583" lon="11.4305783"><ele>394.66666666666663</ele><time>2026-04-11T06:57:05.998Z</time></trkpt><trkpt lat="43.4667967" lon="11.430625"><ele>393.0</ele><time>2026-04-11T06:57:06.999Z</time></trkpt><trkpt lat="43.46674" lon="11.4306633"><ele>391.33333333333337</ele><time>2026-04-11T06:57:07.998Z</time></trkpt><trkpt lat="43.46665" lon="11.430745"><ele>389.6666666666667</ele><time>2026-04-11T06:57:09.998Z</time></trkpt><trkpt lat="43.4666267" lon="11.430895"><ele>388.0</ele><time>2026-04-11T06:57:11.998Z</time></trkpt><trkpt lat="43.466665" lon="11.4309933"><ele>388.0</ele><time>2026-04-11T06:57:12.998Z</time></trkpt><trkpt lat="43.466725" lon="11.4310833"><ele>388.0</ele><time>2026-04-11T06:57:13.998Z</time></trkpt><trkpt lat="43.4667933" lon="11.4311683"><ele>388.0</ele><time>2026-04-11T06:57:14.998Z</time></trkpt><trkpt lat="43.4668733" lon="11.43124"><ele>388.0</ele><time>2026-04-11T06:57:15.999Z</time></trkpt><trkpt lat="43.4669617" lon="11.4312917"><ele>388.0</ele><time>2026-04-11T06:57:16.998Z</time></trkpt><trkpt lat="43.4670483" lon="11.4313267"><ele>385.59999999999997</ele><time>2026-04-11T06:57:17.999Z</time></trkpt><trkpt lat="43.4671417" lon="11.4313533"><ele>383.2</ele><time>2026-04-11T06:57:18.998Z</time></trkpt><trkpt lat="43.4672417" lon="11.43139"><ele>380.8</ele><time>2026-04-11T06:57:19.998Z</time></trkpt><trkpt lat="43.4673467" lon="11.4314317"><ele>378.4</ele><time>2026-04-11T06:57:20.998Z</time></trkpt><trkpt lat="43.467445" lon="11.4314833"><ele>376.0</ele><time>2026-04-11T06:57:21.998Z</time></trkpt><trkpt lat="43.4675383" lon="11.4315417"><ele>376.0</ele><time>2026-04-11T06:57:22.998Z</time></trkpt><trkpt lat="43.467645" lon="11.4316267"><ele>376.0</ele><time>2026-04-11T06:57:23.999Z</time></trkpt><trkpt lat="43.4677533" lon="11.4317217"><ele>376.0</ele><time>2026-04-11T06:57:24.998Z</time></trkpt><trkpt lat="43.4678533" lon="11.4318317"><ele>376.0</ele><time>2026-04-11T06:57:25.998Z</time></trkpt><trkpt lat="43.4679517" lon="11.4319383"><ele>375.75</ele><time>2026-04-11T06:57:26.998Z</time></trkpt><trkpt lat="43.4680483" lon="11.4320533"><ele>375.5</ele><time>2026-04-11T06:57:27.998Z</time></trkpt><trkpt lat="43.4681383" lon="11.4321667"><ele>375.25</ele><time>2026-04-11T06:57:28.998Z</time></trkpt><trkpt lat="43.4682233" lon="11.43228"><ele>375.0</ele><time>2026-04-11T06:57:29.998Z</time></trkpt><trkpt lat="43.468295" lon="11.4323817"><ele>372.8</ele><time>2026-04-11T06:57:30.998Z</time></trkpt><trkpt lat="43.4683733" lon="11.4324883"><ele>370.6</ele><time>2026-04-11T06:57:31.998Z</time></trkpt><trkpt lat="43.4684283" lon="11.432585"><ele>368.4</ele><time>2026-04-11T06:57:32.998Z</time></trkpt><trkpt lat="43.4684683" lon="11.432705"><ele>366.2</ele><time>2026-04-11T06:57:33.999Z</time></trkpt><trkpt lat="43.4684833" lon="11.4328283"><ele>364.0</ele><time>2026-04-11T06:57:34.998Z</time></trkpt><trkpt lat="43.468495" lon="11.432935"><ele>362.79999999999995</ele><time>2026-04-11T06:57:35.998Z</time></trkpt><trkpt lat="43.4685233" lon="11.433045"><ele>361.59999999999997</ele><time>2026-04-11T06:57:37.998Z</time></trkpt><trkpt lat="43.4685267" lon="11.4331733"><ele>360.4</ele><time>2026-04-11T06:57:41.999Z</time></trkpt><trkpt lat="43.4684783" lon="11.4332367"><ele>359.2</ele><time>2026-04-11T06:57:43.999Z</time></trkpt><trkpt lat="43.4683783" lon="11.433285"><ele>358.0</ele><time>2026-04-11T06:57:45.998Z</time></trkpt><trkpt lat="43.4682717" lon="11.4333483"><ele>358.00000000000006</ele><time>2026-04-11T06:57:47.998Z</time></trkpt><trkpt lat="43.4682133" lon="11.4333917"><ele>358.0</ele><time>2026-04-11T06:57:48.998Z</time></trkpt><trkpt lat="43.4681533" lon="11.4334433"><ele>358.0</ele><time>2026-04-11T06:57:49.998Z</time></trkpt><trkpt lat="43.4680933" lon="11.4335017"><ele>358.0</ele><time>2026-04-11T06:57:50.998Z</time></trkpt><trkpt lat="43.4680333" lon="11.4335583"><ele>358.0</ele><time>2026-04-11T06:57:51.998Z</time></trkpt><trkpt lat="43.4679767" lon="11.43362"><ele>358.00000000000006</ele><time>2026-04-11T06:57:52.998Z</time></trkpt><trkpt lat="43.4679217" lon="11.43368"><ele>358.0</ele><time>2026-04-11T06:57:53.998Z</time></trkpt><trkpt lat="43.4678667" lon="11.4337417"><ele>357.5714285714286</ele><time>2026-04-11T06:57:54.998Z</time></trkpt><trkpt lat="43.4678133" lon="11.433805"><ele>357.14285714285717</ele><time>2026-04-11T06:57:55.998Z</time></trkpt><trkpt lat="43.4677533" lon="11.4338667"><ele>356.7142857142857</ele><time>2026-04-11T06:57:56.999Z</time></trkpt><trkpt lat="43.4677" lon="11.4339233"><ele>356.28571428571433</ele><time>2026-04-11T06:57:57.998Z</time></trkpt><trkpt lat="43.4676417" lon="11.433975"><ele>355.8571428571429</ele><time>2026-04-11T06:57:58.998Z</time></trkpt><trkpt lat="43.4675767" lon="11.43403"><ele>355.42857142857144</ele><time>2026-04-11T06:57:59.999Z</time></trkpt><trkpt lat="43.4675133" lon="11.4340833"><ele>355.0</ele><time>2026-04-11T06:58:00.998Z</time></trkpt><trkpt lat="43.4674517" lon="11.4341267"><ele>354.85714285714283</ele><time>2026-04-11T06:58:01.998Z</time></trkpt><trkpt lat="43.4673867" lon="11.4341633"><ele>354.7142857142857</ele><time>2026-04-11T06:58:02.998Z</time></trkpt><trkpt lat="43.46732" lon="11.4341933"><ele>354.57142857142856</ele><time>2026-04-11T06:58:03.998Z</time></trkpt><trkpt lat="43.46725" lon="11.43422"><ele>354.42857142857144</ele><time>2026-04-11T06:58:04.998Z</time></trkpt><trkpt lat="43.46718" lon="11.434245"><ele>354.2857142857143</ele><time>2026-04-11T06:58:05.998Z</time></trkpt><trkpt lat="43.4671117" lon="11.4342667"><ele>354.14285714285717</ele><time>2026-04-11T06:58:06.998Z</time></trkpt><trkpt lat="43.467045" lon="11.43429"><ele>354.0</ele><time>2026-04-11T06:58:07.998Z</time></trkpt><trkpt lat="43.4669683" lon="11.4343133"><ele>353.5714285714286</ele><time>2026-04-11T06:58:08.998Z</time></trkpt><trkpt lat="43.466895" lon="11.43433"><ele>353.1428571428571</ele><time>2026-04-11T06:58:09.998Z</time></trkpt><trkpt lat="43.466825" lon="11.4343383"><ele>352.7142857142857</ele><time>2026-04-11T06:58:10.998Z</time></trkpt><trkpt lat="43.4667533" lon="11.4343417"><ele>352.28571428571433</ele><time>2026-04-11T06:58:11.998Z</time></trkpt><trkpt lat="43.4666817" lon="11.4343433"><ele>351.8571428571429</ele><time>2026-04-11T06:58:12.998Z</time></trkpt><trkpt lat="43.4666083" lon="11.4343433"><ele>351.42857142857144</ele><time>2026-04-11T06:58:13.998Z</time></trkpt><trkpt lat="43.46654" lon="11.4343383"><ele>351.0</ele><time>2026-04-11T06:58:14.998Z</time></trkpt><trkpt lat="43.4664717" lon="11.4343267"><ele>351.0</ele><time>2026-04-11T06:58:15.998Z</time></trkpt><trkpt lat="43.4664033" lon="11.434325"><ele>351.0</ele><time>2026-04-11T06:58:16.999Z</time></trkpt><trkpt lat="43.4663383" lon="11.434325"><ele>351.0</ele><time>2026-04-11T06:58:17.998Z</time></trkpt><trkpt lat="43.4662733" lon="11.43433"><ele>351.0</ele><time>2026-04-11T06:58:18.998Z</time></trkpt><trkpt lat="43.4661483" lon="11.4342917"><ele>351.0</ele><time>2026-04-11T06:58:20.998Z</time></trkpt><trkpt lat="43.4660817" lon="11.4342667"><ele>351.0</ele><time>2026-04-11T06:58:21.999Z</time></trkpt><trkpt lat="43.4660167" lon="11.4342467"><ele>350.5</ele><time>2026-04-11T06:58:22.998Z</time></trkpt><trkpt lat="43.4659533" lon="11.43423"><ele>350.0</ele><time>2026-04-11T06:58:23.998Z</time></trkpt><trkpt lat="43.4658367" lon="11.43419"><ele>349.5</ele><time>2026-04-11T06:58:25.998Z</time></trkpt><trkpt lat="43.465775" lon="11.4341683"><ele>349.0</ele><time>2026-04-11T06:58:26.998Z</time></trkpt><trkpt lat="43.46566" lon="11.4341067"><ele>348.5</ele><time>2026-04-11T06:58:28.998Z</time></trkpt><trkpt lat="43.4655983" lon="11.4340667"><ele>348.0</ele><time>2026-04-11T06:58:29.998Z</time></trkpt><trkpt lat="43.4655417" lon="11.4340183"><ele>348.0</ele><time>2026-04-11T06:58:30.999Z</time></trkpt><trkpt lat="43.465445" lon="11.4339067"><ele>348.0</ele><time>2026-04-11T06:58:32.998Z</time></trkpt><trkpt lat="43.4653517" lon="11.4337833"><ele>348.0</ele><time>2026-04-11T06:58:34.998Z</time></trkpt><trkpt lat="43.465305" lon="11.43372"><ele>348.0</ele><time>2026-04-11T06:58:35.999Z</time></trkpt><trkpt lat="43.4652583" lon="11.43365"><ele>348.0</ele><time>2026-04-11T06:58:36.998Z</time></trkpt><trkpt lat="43.4652083" lon="11.4335783"><ele>348.0</ele><time>2026-04-11T06:58:37.998Z</time></trkpt><trkpt lat="43.4651617" lon="11.4335083"><ele>348.0</ele><time>2026-04-11T06:58:38.998Z</time></trkpt><trkpt lat="43.465115" lon="11.43344"><ele>348.0</ele><time>2026-04-11T06:58:39.998Z</time></trkpt><trkpt lat="43.4650683" lon="11.43337"><ele>348.0</ele><time>2026-04-11T06:58:40.998Z</time></trkpt><trkpt lat="43.465015" lon="11.43331"><ele>348.0</ele><time>2026-04-11T06:58:41.998Z</time></trkpt><trkpt lat="43.464965" lon="11.433255"><ele>348.0</ele><time>2026-04-11T06:58:42.998Z</time></trkpt><trkpt lat="43.464855" lon="11.4331683"><ele>348.0</ele><time>2026-04-11T06:58:44.998Z</time></trkpt><trkpt lat="43.4647983" lon="11.4331183"><ele>348.0</ele><time>2026-04-11T06:58:45.998Z</time></trkpt><trkpt lat="43.464735" lon="11.4330833"><ele>348.0</ele><time>2026-04-11T06:58:46.999Z</time></trkpt><trkpt lat="43.464675" lon="11.4330433"><ele>348.0</ele><time>2026-04-11T06:58:47.998Z</time></trkpt><trkpt lat="43.4645633" lon="11.4329567"><ele>348.0</ele><time>2026-04-11T06:58:49.998Z</time></trkpt><trkpt lat="43.4645067" lon="11.432915"><ele>348.0</ele><time>2026-04-11T06:58:50.999Z</time></trkpt><trkpt lat="43.464455" lon="11.43286"><ele>348.1428571428571</ele><time>2026-04-11T06:58:51.998Z</time></trkpt><trkpt lat="43.4643967" lon="11.432795"><ele>348.2857142857143</ele><time>2026-04-11T06:58:52.998Z</time></trkpt><trkpt lat="43.4643433" lon="11.4327317"><ele>348.42857142857144</ele><time>2026-04-11T06:58:53.998Z</time></trkpt><trkpt lat="43.4642883" lon="11.4326617"><ele>348.57142857142856</ele><time>2026-04-11T06:58:54.998Z</time></trkpt><trkpt lat="43.4642417" lon="11.43259"><ele>348.7142857142857</ele><time>2026-04-11T06:58:55.999Z</time></trkpt><trkpt lat="43.4641983" lon="11.4325083"><ele>348.85714285714283</ele><time>2026-04-11T06:58:56.998Z</time></trkpt><trkpt lat="43.464155" lon="11.4324283"><ele>349.0</ele><time>2026-04-11T06:58:57.998Z</time></trkpt><trkpt lat="43.4641183" lon="11.43234"><ele>348.99999999999994</ele><time>2026-04-11T06:58:58.998Z</time></trkpt><trkpt lat="43.4640883" lon="11.4322483"><ele>349.0</ele><time>2026-04-11T06:58:59.998Z</time></trkpt><trkpt lat="43.4640567" lon="11.4321567"><ele>349.0</ele><time>2026-04-11T06:59:00.998Z</time></trkpt><trkpt lat="43.4640233" lon="11.4320633"><ele>349.0</ele><time>2026-04-11T06:59:01.998Z</time></trkpt><trkpt lat="43.4639917" lon="11.4319683"><ele>349.0</ele><time>2026-04-11T06:59:02.998Z</time></trkpt><trkpt lat="43.4639617" lon="11.4318767"><ele>348.99999999999994</ele><time>2026-04-11T06:59:03.998Z</time></trkpt><trkpt lat="43.46393" lon="11.4317833"><ele>349.0</ele><time>2026-04-11T06:59:04.998Z</time></trkpt><trkpt lat="43.463895" lon="11.431695"><ele>348.66666666666663</ele><time>2026-04-11T06:59:05.998Z</time></trkpt><trkpt lat="43.4638567" lon="11.4316067"><ele>348.3333333333333</ele><time>2026-04-11T06:59:06.998Z</time></trkpt><trkpt lat="43.46382" lon="11.4315217"><ele>348.0</ele><time>2026-04-11T06:59:07.998Z</time></trkpt><trkpt lat="43.4637833" lon="11.43143"><ele>347.6666666666667</ele><time>2026-04-11T06:59:08.998Z</time></trkpt><trkpt lat="43.463745" lon="11.4313333"><ele>347.33333333333337</ele><time>2026-04-11T06:59:09.998Z</time></trkpt><trkpt lat="43.4637067" lon="11.43124"><ele>347.0</ele><time>2026-04-11T06:59:10.998Z</time></trkpt><trkpt lat="43.463665" lon="11.431135"><ele>347.0</ele><time>2026-04-11T06:59:11.998Z</time></trkpt><trkpt lat="43.4636233" lon="11.43104"><ele>347.0</ele><time>2026-04-11T06:59:12.998Z</time></trkpt><trkpt lat="43.4635767" lon="11.430945"><ele>347.0</ele><time>2026-04-11T06:59:13.998Z</time></trkpt><trkpt lat="43.46353" lon="11.430855"><ele>347.0</ele><time>2026-04-11T06:59:14.998Z</time></trkpt><trkpt lat="43.463475" lon="11.4307717"><ele>347.0</ele><time>2026-04-11T06:59:15.998Z</time></trkpt><trkpt lat="43.463425" lon="11.4306967"><ele>347.0</ele><time>2026-04-11T06:59:16.998Z</time></trkpt><trkpt lat="43.46337" lon="11.430625"><ele>347.0</ele><time>2026-04-11T06:59:17.998Z</time></trkpt><trkpt lat="43.4633183" lon="11.4305533"><ele>347.0</ele><time>2026-04-11T06:59:18.999Z</time></trkpt><trkpt lat="43.463265" lon="11.4304783"><ele>347.0</ele><time>2026-04-11T06:59:19.998Z</time></trkpt><trkpt lat="43.4632183" lon="11.4304"><ele>347.0</ele><time>2026-04-11T06:59:20.999Z</time></trkpt><trkpt lat="43.4631683" lon="11.4303217"><ele>347.0</ele><time>2026-04-11T06:59:21.998Z</time></trkpt><trkpt lat="43.46312" lon="11.4302433"><ele>347.0</ele><time>2026-04-11T06:59:22.998Z</time></trkpt><trkpt lat="43.46307" lon="11.4301733"><ele>347.0</ele><time>2026-04-11T06:59:23.998Z</time></trkpt><trkpt lat="43.4630217" lon="11.430095"><ele>346.83333333333337</ele><time>2026-04-11T06:59:24.998Z</time></trkpt><trkpt lat="43.46298" lon="11.4300183"><ele>346.6666666666667</ele><time>2026-04-11T06:59:25.998Z</time></trkpt><trkpt lat="43.4629433" lon="11.4299167"><ele>346.5</ele><time>2026-04-11T06:59:26.999Z</time></trkpt><trkpt lat="43.4628933" lon="11.4298233"><ele>346.3333333333333</ele><time>2026-04-11T06:59:27.999Z</time></trkpt><trkpt lat="43.4628433" lon="11.429735"><ele>346.16666666666663</ele><time>2026-04-11T06:59:28.998Z</time></trkpt><trkpt lat="43.4627883" lon="11.429665"><ele>346.0</ele><time>2026-04-11T06:59:29.998Z</time></trkpt><trkpt lat="43.4627317" lon="11.42959"><ele>346.0</ele><time>2026-04-11T06:59:30.998Z</time></trkpt><trkpt lat="43.462675" lon="11.4295117"><ele>346.0</ele><time>2026-04-11T06:59:31.998Z</time></trkpt><trkpt lat="43.46261" lon="11.429435"><ele>346.0</ele><time>2026-04-11T06:59:32.998Z</time></trkpt><trkpt lat="43.4625533" lon="11.4293617"><ele>346.0</ele><time>2026-04-11T06:59:33.998Z</time></trkpt><trkpt lat="43.4624967" lon="11.4292833"><ele>346.0</ele><time>2026-04-11T06:59:34.998Z</time></trkpt><trkpt lat="43.4624383" lon="11.4292033"><ele>346.0</ele><time>2026-04-11T06:59:35.998Z</time></trkpt><trkpt lat="43.46238" lon="11.4291317"><ele>346.0</ele><time>2026-04-11T06:59:36.998Z</time></trkpt><trkpt lat="43.462325" lon="11.4290533"><ele>346.0</ele><time>2026-04-11T06:59:37.999Z</time></trkpt><trkpt lat="43.4622667" lon="11.4289817"><ele>346.0</ele><time>2026-04-11T06:59:38.998Z</time></trkpt><trkpt lat="43.46221" lon="11.4289067"><ele>346.0</ele><time>2026-04-11T06:59:39.998Z</time></trkpt><trkpt lat="43.4621517" lon="11.4288367"><ele>346.0</ele><time>2026-04-11T06:59:40.998Z</time></trkpt><trkpt lat="43.462095" lon="11.4287633"><ele>346.0</ele><time>2026-04-11T06:59:41.998Z</time></trkpt><trkpt lat="43.4620333" lon="11.4286867"><ele>345.3333333333333</ele><time>2026-04-11T06:59:42.998Z</time></trkpt><trkpt lat="43.461975" lon="11.4286133"><ele>344.66666666666663</ele><time>2026-04-11T06:59:43.998Z</time></trkpt><trkpt lat="43.46191" lon="11.4285433"><ele>344.0</ele><time>2026-04-11T06:59:44.998Z</time></trkpt><trkpt lat="43.4618417" lon="11.42847"><ele>343.3333333333333</ele><time>2026-04-11T06:59:45.998Z</time></trkpt><trkpt lat="43.46178" lon="11.4283983"><ele>342.6666666666667</ele><time>2026-04-11T06:59:46.999Z</time></trkpt><trkpt lat="43.4617133" lon="11.4283283"><ele>342.0</ele><time>2026-04-11T06:59:47.998Z</time></trkpt><trkpt lat="43.4616517" lon="11.428265"><ele>342.0</ele><time>2026-04-11T06:59:48.998Z</time></trkpt><trkpt lat="43.461585" lon="11.4282033"><ele>342.0</ele><time>2026-04-11T06:59:49.998Z</time></trkpt><trkpt lat="43.4615233" lon="11.4281483"><ele>342.0</ele><time>2026-04-11T06:59:50.998Z</time></trkpt><trkpt lat="43.4614617" lon="11.4280833"><ele>342.0</ele><time>2026-04-11T06:59:51.998Z</time></trkpt><trkpt lat="43.4614033" lon="11.4280117"><ele>342.0</ele><time>2026-04-11T06:59:52.998Z</time></trkpt><trkpt lat="43.4613417" lon="11.4279467"><ele>342.0</ele><time>2026-04-11T06:59:53.998Z</time></trkpt><trkpt lat="43.461275" lon="11.4278783"><ele>341.6666666666667</ele><time>2026-04-11T06:59:54.998Z</time></trkpt><trkpt lat="43.46121" lon="11.4278067"><ele>341.3333333333333</ele><time>2026-04-11T06:59:55.998Z</time></trkpt><trkpt lat="43.46115" lon="11.4277367"><ele>341.0</ele><time>2026-04-11T06:59:56.999Z</time></trkpt><trkpt lat="43.46109" lon="11.427665"><ele>340.66666666666663</ele><time>2026-04-11T06:59:57.998Z</time></trkpt><trkpt lat="43.461025" lon="11.4275967"><ele>340.3333333333333</ele><time>2026-04-11T06:59:58.998Z</time></trkpt><trkpt lat="43.46096" lon="11.4275283"><ele>340.0</ele><time>2026-04-11T06:59:59.998Z</time></trkpt><trkpt lat="43.4608967" lon="11.42746"><ele>340.0</ele><time>2026-04-11T07:00:00.998Z</time></trkpt><trkpt lat="43.4608383" lon="11.42739"><ele>340.0</ele><time>2026-04-11T07:00:01.998Z</time></trkpt><trkpt lat="43.460775" lon="11.4273167"><ele>340.0</ele><time>2026-04-11T07:00:02.998Z</time></trkpt><trkpt lat="43.4607083" lon="11.427255"><ele>340.0</ele><time>2026-04-11T07:00:03.998Z</time></trkpt><trkpt lat="43.46064" lon="11.4272033"><ele>340.0</ele><time>2026-04-11T07:00:04.999Z</time></trkpt><trkpt lat="43.4605667" lon="11.4271533"><ele>340.0</ele><time>2026-04-11T07:00:05.998Z</time></trkpt><trkpt lat="43.4604933" lon="11.42711"><ele>340.5</ele><time>2026-04-11T07:00:06.998Z</time></trkpt><trkpt lat="43.4604183" lon="11.4270683"><ele>341.0</ele><time>2026-04-11T07:00:07.999Z</time></trkpt><trkpt lat="43.4603433" lon="11.4270283"><ele>341.5</ele><time>2026-04-11T07:00:08.999Z</time></trkpt><trkpt lat="43.46027" lon="11.426995"><ele>342.0</ele><time>2026-04-11T07:00:09.998Z</time></trkpt><trkpt lat="43.4601917" lon="11.42696"><ele>342.5</ele><time>2026-04-11T07:00:10.998Z</time></trkpt><trkpt lat="43.4601083" lon="11.4269283"><ele>343.0</ele><time>2026-04-11T07:00:11.998Z</time></trkpt><trkpt lat="43.460035" lon="11.4268883"><ele>343.0</ele><time>2026-04-11T07:00:12.999Z</time></trkpt><trkpt lat="43.4599583" lon="11.4268567"><ele>343.0</ele><time>2026-04-11T07:00:13.999Z</time></trkpt><trkpt lat="43.4598817" lon="11.4268233"><ele>343.0</ele><time>2026-04-11T07:00:14.999Z</time></trkpt><trkpt lat="43.459805" lon="11.4267917"><ele>343.0</ele><time>2026-04-11T07:00:15.998Z</time></trkpt><trkpt lat="43.4597267" lon="11.426765"><ele>343.0</ele><time>2026-04-11T07:00:16.998Z</time></trkpt><trkpt lat="43.4596467" lon="11.42673"><ele>343.0</ele><time>2026-04-11T07:00:17.998Z</time></trkpt><trkpt lat="43.459565" lon="11.4266983"><ele>342.3333333333333</ele><time>2026-04-11T07:00:18.998Z</time></trkpt><trkpt lat="43.4594783" lon="11.4266617"><ele>341.66666666666663</ele><time>2026-04-11T07:00:19.998Z</time></trkpt><trkpt lat="43.4593933" lon="11.4266283"><ele>341.0</ele><time>2026-04-11T07:00:20.998Z</time></trkpt><trkpt lat="43.4593117" lon="11.4265933"><ele>340.3333333333333</ele><time>2026-04-11T07:00:21.998Z</time></trkpt><trkpt lat="43.4592233" lon="11.4265533"><ele>339.6666666666667</ele><time>2026-04-11T07:00:22.998Z</time></trkpt><trkpt lat="43.45914" lon="11.426515"><ele>339.0</ele><time>2026-04-11T07:00:23.999Z</time></trkpt><trkpt lat="43.4590567" lon="11.4264717"><ele>339.0</ele><time>2026-04-11T07:00:24.998Z</time></trkpt><trkpt lat="43.45897" lon="11.426425"><ele>339.0</ele><time>2026-04-11T07:00:25.998Z</time></trkpt><trkpt lat="43.45888" lon="11.42638"><ele>339.0</ele><time>2026-04-11T07:00:26.999Z</time></trkpt><trkpt lat="43.4587967" lon="11.42634"><ele>339.0</ele><time>2026-04-11T07:00:27.999Z</time></trkpt><trkpt lat="43.4587067" lon="11.4262967"><ele>339.0</ele><time>2026-04-11T07:00:28.998Z</time></trkpt><trkpt lat="43.4586167" lon="11.4262583"><ele>338.4</ele><time>2026-04-11T07:00:29.998Z</time></trkpt><trkpt lat="43.45853" lon="11.4262167"><ele>337.79999999999995</ele><time>2026-04-11T07:00:30.998Z</time></trkpt><trkpt lat="43.458445" lon="11.4261783"><ele>337.20000000000005</ele><time>2026-04-11T07:00:31.998Z</time></trkpt><trkpt lat="43.4583567" lon="11.4261433"><ele>336.6</ele><time>2026-04-11T07:00:32.998Z</time></trkpt><trkpt lat="43.4582717" lon="11.4261083"><ele>336.0</ele><time>2026-04-11T07:00:33.999Z</time></trkpt><trkpt lat="43.4581867" lon="11.4260717"><ele>336.0</ele><time>2026-04-11T07:00:34.999Z</time></trkpt><trkpt lat="43.4581117" lon="11.4260367"><ele>336.0</ele><time>2026-04-11T07:00:35.998Z</time></trkpt><trkpt lat="43.4580267" lon="11.4259967"><ele>336.0</ele><time>2026-04-11T07:00:36.998Z</time></trkpt><trkpt lat="43.45794" lon="11.42596"><ele>336.0</ele><time>2026-04-11T07:00:37.998Z</time></trkpt><trkpt lat="43.457855" lon="11.42592"><ele>336.0</ele><time>2026-04-11T07:00:38.998Z</time></trkpt><trkpt lat="43.4577683" lon="11.4258867"><ele>336.0</ele><time>2026-04-11T07:00:39.998Z</time></trkpt><trkpt lat="43.4576817" lon="11.4258433"><ele>336.0</ele><time>2026-04-11T07:00:40.998Z</time></trkpt><trkpt lat="43.4576017" lon="11.4258117"><ele>336.0</ele><time>2026-04-11T07:00:41.999Z</time></trkpt><trkpt lat="43.4575217" lon="11.4257817"><ele>336.0</ele><time>2026-04-11T07:00:42.998Z</time></trkpt><trkpt lat="43.45744" lon="11.42575"><ele>336.0</ele><time>2026-04-11T07:00:43.998Z</time></trkpt><trkpt lat="43.457355" lon="11.42571"><ele>336.0</ele><time>2026-04-11T07:00:44.998Z</time></trkpt><trkpt lat="43.4572783" lon="11.4256667"><ele>336.0</ele><time>2026-04-11T07:00:45.998Z</time></trkpt><trkpt lat="43.4572" lon="11.4256383"><ele>336.0</ele><time>2026-04-11T07:00:46.998Z</time></trkpt><trkpt lat="43.4571217" lon="11.42562"><ele>336.0</ele><time>2026-04-11T07:00:47.998Z</time></trkpt><trkpt lat="43.4570433" lon="11.4255983"><ele>336.0</ele><time>2026-04-11T07:00:48.998Z</time></trkpt><trkpt lat="43.456965" lon="11.4255767"><ele>336.0</ele><time>2026-04-11T07:00:49.998Z</time></trkpt><trkpt lat="43.456885" lon="11.4255567"><ele>336.0</ele><time>2026-04-11T07:00:50.998Z</time></trkpt><trkpt lat="43.45681" lon="11.4255317"><ele>336.0</ele><time>2026-04-11T07:00:51.998Z</time></trkpt><trkpt lat="43.4567317" lon="11.4255167"><ele>336.1666666666667</ele><time>2026-04-11T07:00:52.998Z</time></trkpt><trkpt lat="43.4566567" lon="11.4255083"><ele>336.3333333333333</ele><time>2026-04-11T07:00:53.998Z</time></trkpt><trkpt lat="43.4565883" lon="11.425505"><ele>336.5</ele><time>2026-04-11T07:00:54.998Z</time></trkpt><trkpt lat="43.4565167" lon="11.4255033"><ele>336.66666666666663</ele><time>2026-04-11T07:00:55.998Z</time></trkpt><trkpt lat="43.45639" lon="11.425485"><ele>336.8333333333333</ele><time>2026-04-11T07:00:57.998Z</time></trkpt><trkpt lat="43.4563217" lon="11.425465"><ele>337.0</ele><time>2026-04-11T07:00:58.998Z</time></trkpt><trkpt lat="43.45626" lon="11.4254383"><ele>337.0</ele><time>2026-04-11T07:00:59.999Z</time></trkpt><trkpt lat="43.4561983" lon="11.4254"><ele>337.0</ele><time>2026-04-11T07:01:00.998Z</time></trkpt><trkpt lat="43.4561383" lon="11.42536"><ele>337.0</ele><time>2026-04-11T07:01:01.998Z</time></trkpt><trkpt lat="43.45608" lon="11.4253217"><ele>337.0</ele><time>2026-04-11T07:01:02.998Z</time></trkpt><trkpt lat="43.4559767" lon="11.425225"><ele>337.0</ele><time>2026-04-11T07:01:04.998Z</time></trkpt><trkpt lat="43.4559233" lon="11.4251667"><ele>337.0</ele><time>2026-04-11T07:01:05.998Z</time></trkpt><trkpt lat="43.4558717" lon="11.4251167"><ele>337.0</ele><time>2026-04-11T07:01:06.999Z</time></trkpt><trkpt lat="43.4558133" lon="11.4250617"><ele>337.0</ele><time>2026-04-11T07:01:07.998Z</time></trkpt><trkpt lat="43.4557517" lon="11.4250017"><ele>337.0</ele><time>2026-04-11T07:01:08.999Z</time></trkpt><trkpt lat="43.4556933" lon="11.4249417"><ele>337.0</ele><time>2026-04-11T07:01:09.998Z</time></trkpt><trkpt lat="43.45563" lon="11.4248833"><ele>337.0</ele><time>2026-04-11T07:01:10.998Z</time></trkpt><trkpt lat="43.4555683" lon="11.42482"><ele>337.0</ele><time>2026-04-11T07:01:11.998Z</time></trkpt><trkpt lat="43.4555" lon="11.4247517"><ele>336.3333333333333</ele><time>2026-04-11T07:01:12.998Z</time></trkpt><trkpt lat="43.4554383" lon="11.4246767"><ele>335.66666666666663</ele><time>2026-04-11T07:01:13.998Z</time></trkpt><trkpt lat="43.4553717" lon="11.4246033"><ele>335.0</ele><time>2026-04-11T07:01:14.998Z</time></trkpt><trkpt lat="43.455305" lon="11.42453"><ele>334.3333333333333</ele><time>2026-04-11T07:01:15.999Z</time></trkpt><trkpt lat="43.45524" lon="11.4244583"><ele>333.6666666666667</ele><time>2026-04-11T07:01:16.998Z</time></trkpt><trkpt lat="43.455175" lon="11.424385"><ele>333.0</ele><time>2026-04-11T07:01:17.998Z</time></trkpt><trkpt lat="43.455115" lon="11.4243133"><ele>333.0</ele><time>2026-04-11T07:01:18.998Z</time></trkpt><trkpt lat="43.4550567" lon="11.42424"><ele>333.0</ele><time>2026-04-11T07:01:19.998Z</time></trkpt><trkpt lat="43.4549917" lon="11.4241717"><ele>333.0</ele><time>2026-04-11T07:01:20.998Z</time></trkpt><trkpt lat="43.4549283" lon="11.4241167"><ele>333.0</ele><time>2026-04-11T07:01:21.998Z</time></trkpt><trkpt lat="43.454865" lon="11.4240533"><ele>333.0</ele><time>2026-04-11T07:01:22.998Z</time></trkpt><trkpt lat="43.4548" lon="11.4239933"><ele>333.0</ele><time>2026-04-11T07:01:23.998Z</time></trkpt><trkpt lat="43.4547417" lon="11.4239317"><ele>333.0</ele><time>2026-04-11T07:01:24.999Z</time></trkpt><trkpt lat="43.4546867" lon="11.4238667"><ele>333.0</ele><time>2026-04-11T07:01:25.998Z</time></trkpt><trkpt lat="43.454625" lon="11.4238033"><ele>333.0</ele><time>2026-04-11T07:01:26.998Z</time></trkpt><trkpt lat="43.45456" lon="11.4237433"><ele>333.0</ele><time>2026-04-11T07:01:27.998Z</time></trkpt><trkpt lat="43.4545" lon="11.4236817"><ele>333.0</ele><time>2026-04-11T07:01:28.998Z</time></trkpt><trkpt lat="43.4544467" lon="11.42363"><ele>333.0</ele><time>2026-04-11T07:01:29.998Z</time></trkpt><trkpt lat="43.4543917" lon="11.42357"><ele>333.0</ele><time>2026-04-11T07:01:30.998Z</time></trkpt><trkpt lat="43.4543367" lon="11.4235017"><ele>332.6666666666667</ele><time>2026-04-11T07:01:31.998Z</time></trkpt><trkpt lat="43.4542817" lon="11.42342"><ele>332.3333333333333</ele><time>2026-04-11T07:01:32.998Z</time></trkpt><trkpt lat="43.4542283" lon="11.4233317"><ele>332.0</ele><time>2026-04-11T07:01:33.998Z</time></trkpt><trkpt lat="43.4541733" lon="11.4232533"><ele>331.66666666666663</ele><time>2026-04-11T07:01:34.998Z</time></trkpt><trkpt lat="43.4541183" lon="11.42317"><ele>331.3333333333333</ele><time>2026-04-11T07:01:35.999Z</time></trkpt><trkpt lat="43.45406" lon="11.4230883"><ele>331.0</ele><time>2026-04-11T07:01:36.998Z</time></trkpt><trkpt lat="43.4540017" lon="11.4229983"><ele>331.66666666666663</ele><time>2026-04-11T07:01:37.999Z</time></trkpt><trkpt lat="43.4539417" lon="11.422915"><ele>332.3333333333333</ele><time>2026-04-11T07:01:38.999Z</time></trkpt><trkpt lat="43.4538817" lon="11.4228333"><ele>333.0</ele><time>2026-04-11T07:01:39.998Z</time></trkpt><trkpt lat="43.4538217" lon="11.422745"><ele>333.6666666666667</ele><time>2026-04-11T07:01:40.998Z</time></trkpt><trkpt lat="43.4537583" lon="11.42266"><ele>334.33333333333337</ele><time>2026-04-11T07:01:41.998Z</time></trkpt><trkpt lat="43.4537017" lon="11.422575"><ele>335.0</ele><time>2026-04-11T07:01:42.998Z</time></trkpt><trkpt lat="43.4536517" lon="11.4224883"><ele>334.5</ele><time>2026-04-11T07:01:43.998Z</time></trkpt><trkpt lat="43.4536017" lon="11.422405"><ele>334.0</ele><time>2026-04-11T07:01:44.998Z</time></trkpt><trkpt lat="43.45355" lon="11.4223283"><ele>333.5</ele><time>2026-04-11T07:01:45.998Z</time></trkpt><trkpt lat="43.4535033" lon="11.4222467"><ele>333.0</ele><time>2026-04-11T07:01:46.998Z</time></trkpt><trkpt lat="43.4534517" lon="11.422165"><ele>332.5</ele><time>2026-04-11T07:01:47.998Z</time></trkpt><trkpt lat="43.4534033" lon="11.4220867"><ele>332.0</ele><time>2026-04-11T07:01:48.998Z</time></trkpt><trkpt lat="43.4533533" lon="11.422015"><ele>332.0</ele><time>2026-04-11T07:01:49.998Z</time></trkpt><trkpt lat="43.453305" lon="11.42194"><ele>332.0</ele><time>2026-04-11T07:01:50.998Z</time></trkpt><trkpt lat="43.4532583" lon="11.4218633"><ele>332.0</ele><time>2026-04-11T07:01:51.998Z</time></trkpt><trkpt lat="43.4532133" lon="11.42179"><ele>332.0</ele><time>2026-04-11T07:01:52.999Z</time></trkpt><trkpt lat="43.453165" lon="11.4217133"><ele>332.0</ele><time>2026-04-11T07:01:53.999Z</time></trkpt><trkpt lat="43.4531117" lon="11.4216483"><ele>332.0</ele><time>2026-04-11T07:01:54.998Z</time></trkpt><trkpt lat="43.4530517" lon="11.42159"><ele>332.0</ele><time>2026-04-11T07:01:55.998Z</time></trkpt><trkpt lat="43.4529883" lon="11.4215433"><ele>332.4285714285714</ele><time>2026-04-11T07:01:56.998Z</time></trkpt><trkpt lat="43.4529317" lon="11.4215"><ele>332.8571428571429</ele><time>2026-04-11T07:01:57.998Z</time></trkpt><trkpt lat="43.4528733" lon="11.42146"><ele>333.2857142857143</ele><time>2026-04-11T07:01:58.998Z</time></trkpt><trkpt lat="43.4528133" lon="11.421425"><ele>333.71428571428567</ele><time>2026-04-11T07:01:59.998Z</time></trkpt><trkpt lat="43.4527483" lon="11.4213817"><ele>334.1428571428571</ele><time>2026-04-11T07:02:00.999Z</time></trkpt><trkpt lat="43.4526867" lon="11.42133"><ele>334.57142857142856</ele><time>2026-04-11T07:02:01.998Z</time></trkpt><trkpt lat="43.4526267" lon="11.4212733"><ele>335.0</ele><time>2026-04-11T07:02:02.998Z</time></trkpt><trkpt lat="43.4525683" lon="11.4212117"><ele>335.0</ele><time>2026-04-11T07:02:03.998Z</time></trkpt><trkpt lat="43.452515" lon="11.4211483"><ele>335.0</ele><time>2026-04-11T07:02:04.999Z</time></trkpt><trkpt lat="43.4524633" lon="11.421085"><ele>335.0</ele><time>2026-04-11T07:02:05.998Z</time></trkpt><trkpt lat="43.452415" lon="11.4210217"><ele>335.0</ele><time>2026-04-11T07:02:06.999Z</time></trkpt><trkpt lat="43.45237" lon="11.4209583"><ele>335.0</ele><time>2026-04-11T07:02:07.998Z</time></trkpt><trkpt lat="43.452325" lon="11.420895"><ele>335.0</ele><time>2026-04-11T07:02:08.998Z</time></trkpt><trkpt lat="43.452245" lon="11.420775"><ele>335.0</ele><time>2026-04-11T07:02:10.998Z</time></trkpt><trkpt lat="43.452165" lon="11.4206483"><ele>335.0</ele><time>2026-04-11T07:02:12.998Z</time></trkpt><trkpt lat="43.4521167" lon="11.4205733"><ele>335.0</ele><time>2026-04-11T07:02:13.998Z</time></trkpt><trkpt lat="43.4520733" lon="11.4205083"><ele>335.0</ele><time>2026-04-11T07:02:14.998Z</time></trkpt><trkpt lat="43.4519967" lon="11.4203867"><ele>335.0</ele><time>2026-04-11T07:02:16.998Z</time></trkpt><trkpt lat="43.4519167" lon="11.4202733"><ele>334.0</ele><time>2026-04-11T07:02:18.998Z</time></trkpt><trkpt lat="43.4518433" lon="11.42016"><ele>333.0</ele><time>2026-04-11T07:02:20.998Z</time></trkpt><trkpt lat="43.4517667" lon="11.4200467"><ele>332.0</ele><time>2026-04-11T07:02:22.998Z</time></trkpt><trkpt lat="43.4516883" lon="11.4199317"><ele>331.0</ele><time>2026-04-11T07:02:24.998Z</time></trkpt><trkpt lat="43.4516233" lon="11.419805"><ele>331.0</ele><time>2026-04-11T07:02:26.998Z</time></trkpt><trkpt lat="43.4515383" lon="11.4197083"><ele>331.0</ele><time>2026-04-11T07:02:28.999Z</time></trkpt><trkpt lat="43.451485" lon="11.419655"><ele>331.0</ele><time>2026-04-11T07:02:29.998Z</time></trkpt><trkpt lat="43.45139" lon="11.4195467"><ele>331.0</ele><time>2026-04-11T07:02:31.998Z</time></trkpt><trkpt lat="43.4512967" lon="11.4194467"><ele>331.0</ele><time>2026-04-11T07:02:33.998Z</time></trkpt><trkpt lat="43.4512483" lon="11.41939"><ele>330.0</ele><time>2026-04-11T07:02:34.998Z</time></trkpt><trkpt lat="43.4511517" lon="11.419305"><ele>329.0</ele><time>2026-04-11T07:02:36.998Z</time></trkpt><trkpt lat="43.4510383" lon="11.4192117"><ele>328.0</ele><time>2026-04-11T07:02:38.998Z</time></trkpt><trkpt lat="43.450975" lon="11.4191717"><ele>327.0</ele><time>2026-04-11T07:02:39.998Z</time></trkpt><trkpt lat="43.4508933" lon="11.4191333"><ele>326.0</ele><time>2026-04-11T07:02:40.997Z</time></trkpt><trkpt lat="43.4508133" lon="11.419095"><ele>326.0</ele><time>2026-04-11T07:02:41.998Z</time></trkpt><trkpt lat="43.45073" lon="11.4190683"><ele>326.0</ele><time>2026-04-11T07:02:42.998Z</time></trkpt><trkpt lat="43.4506383" lon="11.4190367"><ele>326.0</ele><time>2026-04-11T07:02:43.998Z</time></trkpt><trkpt lat="43.4505433" lon="11.4190067"><ele>326.0</ele><time>2026-04-11T07:02:44.998Z</time></trkpt><trkpt lat="43.4504483" lon="11.4189817"><ele>326.0</ele><time>2026-04-11T07:02:45.998Z</time></trkpt><trkpt lat="43.4503533" lon="11.4189717"><ele>325.6</ele><time>2026-04-11T07:02:46.998Z</time></trkpt><trkpt lat="43.4502567" lon="11.4189567"><ele>325.20000000000005</ele><time>2026-04-11T07:02:47.998Z</time></trkpt><trkpt lat="43.4501617" lon="11.41895"><ele>324.79999999999995</ele><time>2026-04-11T07:02:48.998Z</time></trkpt><trkpt lat="43.450065" lon="11.41893"><ele>324.4</ele><time>2026-04-11T07:02:49.998Z</time></trkpt><trkpt lat="43.4499717" lon="11.4188983"><ele>324.0</ele><time>2026-04-11T07:02:50.999Z</time></trkpt><trkpt lat="43.4498883" lon="11.4188667"><ele>324.0</ele><time>2026-04-11T07:02:51.998Z</time></trkpt><trkpt lat="43.4498067" lon="11.418835"><ele>324.0</ele><time>2026-04-11T07:02:52.998Z</time></trkpt><trkpt lat="43.4497317" lon="11.4188033"><ele>324.0</ele><time>2026-04-11T07:02:53.998Z</time></trkpt><trkpt lat="43.4496583" lon="11.4187633"><ele>324.0</ele><time>2026-04-11T07:02:54.998Z</time></trkpt><trkpt lat="43.44958" lon="11.41872"><ele>324.0</ele><time>2026-04-11T07:02:55.998Z</time></trkpt><trkpt lat="43.449505" lon="11.4186817"><ele>324.0</ele><time>2026-04-11T07:02:56.998Z</time></trkpt><trkpt lat="43.4494283" lon="11.418645"><ele>325.1666666666667</ele><time>2026-04-11T07:02:57.998Z</time></trkpt><trkpt lat="43.4493517" lon="11.4186117"><ele>326.3333333333333</ele><time>2026-04-11T07:02:58.998Z</time></trkpt><trkpt lat="43.4492817" lon="11.4185917"><ele>327.5</ele><time>2026-04-11T07:02:59.998Z</time></trkpt><trkpt lat="43.449215" lon="11.4185817"><ele>328.66666666666663</ele><time>2026-04-11T07:03:00.998Z</time></trkpt><trkpt lat="43.4491517" lon="11.4185733"><ele>329.8333333333333</ele><time>2026-04-11T07:03:01.998Z</time></trkpt><trkpt lat="43.4490867" lon="11.4185617"><ele>331.0</ele><time>2026-04-11T07:03:02.998Z</time></trkpt><trkpt lat="43.44897" lon="11.4185533"><ele>331.0</ele><time>2026-04-11T07:03:04.999Z</time></trkpt><trkpt lat="43.448865" lon="11.4185483"><ele>331.0</ele><time>2026-04-11T07:03:06.999Z</time></trkpt><trkpt lat="43.4487633" lon="11.418535"><ele>331.0</ele><time>2026-04-11T07:03:08.998Z</time></trkpt><trkpt lat="43.4486583" lon="11.41853"><ele>331.0</ele><time>2026-04-11T07:03:10.998Z</time></trkpt><trkpt lat="43.4485583" lon="11.418515"><ele>331.0</ele><time>2026-04-11T07:03:12.998Z</time></trkpt><trkpt lat="43.4484667" lon="11.41849"><ele>331.0</ele><time>2026-04-11T07:03:14.998Z</time></trkpt><trkpt lat="43.44838" lon="11.418445"><ele>331.0</ele><time>2026-04-11T07:03:16.999Z</time></trkpt><trkpt lat="43.4482933" lon="11.4183967"><ele>331.0</ele><time>2026-04-11T07:03:18.998Z</time></trkpt><trkpt lat="43.4482083" lon="11.4183367"><ele>331.0</ele><time>2026-04-11T07:03:20.998Z</time></trkpt><trkpt lat="43.4481267" lon="11.4182667"><ele>331.0</ele><time>2026-04-11T07:03:22.999Z</time></trkpt><trkpt lat="43.448055" lon="11.4182017"><ele>331.0</ele><time>2026-04-11T07:03:24.998Z</time></trkpt><trkpt lat="43.4479817" lon="11.418135"><ele>331.0</ele><time>2026-04-11T07:03:26.998Z</time></trkpt><trkpt lat="43.44791" lon="11.4180617"><ele>331.0</ele><time>2026-04-11T07:03:28.998Z</time></trkpt><trkpt lat="43.4478367" lon="11.4179917"><ele>331.0</ele><time>2026-04-11T07:03:30.998Z</time></trkpt><trkpt lat="43.4477683" lon="11.41792"><ele>331.0</ele><time>2026-04-11T07:03:32.998Z</time></trkpt><trkpt lat="43.447695" lon="11.41786"><ele>331.0</ele><time>2026-04-11T07:03:34.998Z</time></trkpt><trkpt lat="43.447625" lon="11.4178117"><ele>332.16666666666663</ele><time>2026-04-11T07:03:36.998Z</time></trkpt><trkpt lat="43.4475517" lon="11.4177783"><ele>333.3333333333333</ele><time>2026-04-11T07:03:38.998Z</time></trkpt><trkpt lat="43.44748" lon="11.4177583"><ele>334.5</ele><time>2026-04-11T07:03:40.998Z</time></trkpt><trkpt lat="43.4473983" lon="11.4177317"><ele>335.6666666666667</ele><time>2026-04-11T07:03:42.998Z</time></trkpt><trkpt lat="43.4473167" lon="11.417715"><ele>336.83333333333337</ele><time>2026-04-11T07:03:44.998Z</time></trkpt><trkpt lat="43.4472333" lon="11.4176917"><ele>338.0</ele><time>2026-04-11T07:03:46.998Z</time></trkpt><trkpt lat="43.4471533" lon="11.4176767"><ele>338.2857142857143</ele><time>2026-04-11T07:03:48.998Z</time></trkpt><trkpt lat="43.4470783" lon="11.417655"><ele>338.57142857142856</ele><time>2026-04-11T07:03:50.999Z</time></trkpt><trkpt lat="43.44701" lon="11.417635"><ele>338.8571428571429</ele><time>2026-04-11T07:03:52.998Z</time></trkpt><trkpt lat="43.4469433" lon="11.4176133"><ele>339.1428571428571</ele><time>2026-04-11T07:03:54.998Z</time></trkpt><trkpt lat="43.44687" lon="11.417595"><ele>339.4285714285714</ele><time>2026-04-11T07:03:56.998Z</time></trkpt><trkpt lat="43.4468" lon="11.417575"><ele>339.7142857142857</ele><time>2026-04-11T07:03:58.998Z</time></trkpt><trkpt lat="43.44673" lon="11.4175683"><ele>340.0</ele><time>2026-04-11T07:04:00.998Z</time></trkpt><trkpt lat="43.446645" lon="11.4175533"><ele>340.0</ele><time>2026-04-11T07:04:02.998Z</time></trkpt><trkpt lat="43.446575" lon="11.4175383"><ele>340.0</ele><time>2026-04-11T07:04:04.998Z</time></trkpt><trkpt lat="43.44651" lon="11.417515"><ele>340.0</ele><time>2026-04-11T07:04:06.998Z</time></trkpt><trkpt lat="43.446435" lon="11.4174933"><ele>340.0</ele><time>2026-04-11T07:04:08.998Z</time></trkpt><trkpt lat="43.44636" lon="11.417485"><ele>340.0</ele><time>2026-04-11T07:04:10.998Z</time></trkpt><trkpt lat="43.446285" lon="11.4174833"><ele>340.0</ele><time>2026-04-11T07:04:12.998Z</time></trkpt><trkpt lat="43.4462167" lon="11.41749"><ele>340.0</ele><time>2026-04-11T07:04:14.998Z</time></trkpt><trkpt lat="43.4461433" lon="11.4175033"><ele>342.0</ele><time>2026-04-11T07:04:16.998Z</time></trkpt><trkpt lat="43.4460683" lon="11.4175367"><ele>344.0</ele><time>2026-04-11T07:04:18.998Z</time></trkpt><trkpt lat="43.4460183" lon="11.4175967"><ele>346.0</ele><time>2026-04-11T07:04:20.998Z</time></trkpt><trkpt lat="43.4459633" lon="11.4176667"><ele>348.0</ele><time>2026-04-11T07:04:22.998Z</time></trkpt><trkpt lat="43.4459233" lon="11.4177517"><ele>350.0</ele><time>2026-04-11T07:04:24.998Z</time></trkpt><trkpt lat="43.4458783" lon="11.4178533"><ele>352.0</ele><time>2026-04-11T07:04:26.998Z</time></trkpt><trkpt lat="43.4458367" lon="11.417955"><ele>350.0</ele><time>2026-04-11T07:04:28.998Z</time></trkpt><trkpt lat="43.4457967" lon="11.4180667"><ele>348.0</ele><time>2026-04-11T07:04:30.998Z</time></trkpt><trkpt lat="43.44576" lon="11.4182"><ele>346.0</ele><time>2026-04-11T07:04:32.998Z</time></trkpt><trkpt lat="43.445735" lon="11.4183317"><ele>344.0</ele><time>2026-04-11T07:04:34.998Z</time></trkpt><trkpt lat="43.4457133" lon="11.4184583"><ele>342.0</ele><time>2026-04-11T07:04:36.998Z</time></trkpt><trkpt lat="43.44569" lon="11.4185967"><ele>342.0</ele><time>2026-04-11T07:04:38.998Z</time></trkpt><trkpt lat="43.4456733" lon="11.4187333"><ele>342.0</ele><time>2026-04-11T07:04:40.998Z</time></trkpt><trkpt lat="43.445665" lon="11.4188933"><ele>342.0</ele><time>2026-04-11T07:04:42.998Z</time></trkpt><trkpt lat="43.4456583" lon="11.419055"><ele>342.0</ele><time>2026-04-11T07:04:44.998Z</time></trkpt><trkpt lat="43.4456417" lon="11.419225"><ele>341.40000000000003</ele><time>2026-04-11T07:04:46.999Z</time></trkpt><trkpt lat="43.4456333" lon="11.4193867"><ele>340.8</ele><time>2026-04-11T07:04:48.998Z</time></trkpt><trkpt lat="43.4455933" lon="11.4195417"><ele>340.2</ele><time>2026-04-11T07:04:50.998Z</time></trkpt><trkpt lat="43.44551" lon="11.41967"><ele>339.6</ele><time>2026-04-11T07:04:52.998Z</time></trkpt><trkpt lat="43.4454517" lon="11.4197167"><ele>339.0</ele><time>2026-04-11T07:04:53.998Z</time></trkpt><trkpt lat="43.44534" lon="11.4197917"><ele>339.0</ele><time>2026-04-11T07:04:55.998Z</time></trkpt><trkpt lat="43.4452767" lon="11.419825"><ele>339.0</ele><time>2026-04-11T07:04:56.998Z</time></trkpt><trkpt lat="43.4452067" lon="11.41986"><ele>339.0</ele><time>2026-04-11T07:04:57.998Z</time></trkpt><trkpt lat="43.4451417" lon="11.4198983"><ele>339.0</ele><time>2026-04-11T07:04:58.998Z</time></trkpt><trkpt lat="43.445075" lon="11.4199367"><ele>339.0</ele><time>2026-04-11T07:04:59.998Z</time></trkpt><trkpt lat="43.4450133" lon="11.419975"><ele>339.0</ele><time>2026-04-11T07:05:00.998Z</time></trkpt><trkpt lat="43.44495" lon="11.4200067"><ele>339.0</ele><time>2026-04-11T07:05:01.998Z</time></trkpt><trkpt lat="43.4448883" lon="11.4200433"><ele>339.0</ele><time>2026-04-11T07:05:02.998Z</time></trkpt><trkpt lat="43.4448233" lon="11.420085"><ele>339.0</ele><time>2026-04-11T07:05:03.998Z</time></trkpt><trkpt lat="43.44476" lon="11.4201283"><ele>339.0</ele><time>2026-04-11T07:05:04.998Z</time></trkpt><trkpt lat="43.4447017" lon="11.42018"><ele>339.0</ele><time>2026-04-11T07:05:05.999Z</time></trkpt><trkpt lat="43.4446483" lon="11.42023"><ele>339.0</ele><time>2026-04-11T07:05:06.998Z</time></trkpt><trkpt lat="43.444595" lon="11.4202883"><ele>339.0</ele><time>2026-04-11T07:05:07.999Z</time></trkpt><trkpt lat="43.4445417" lon="11.4203533"><ele>339.0</ele><time>2026-04-11T07:05:08.999Z</time></trkpt><trkpt lat="43.44449" lon="11.42042"><ele>338.6666666666667</ele><time>2026-04-11T07:05:09.999Z</time></trkpt><trkpt lat="43.4444417" lon="11.42049"><ele>338.3333333333333</ele><time>2026-04-11T07:05:10.998Z</time></trkpt><trkpt lat="43.4443567" lon="11.4206333"><ele>338.0</ele><time>2026-04-11T07:05:12.998Z</time></trkpt><trkpt lat="43.4443067" lon="11.4207017"><ele>337.66666666666663</ele><time>2026-04-11T07:05:13.998Z</time></trkpt><trkpt lat="43.4442567" lon="11.4207733"><ele>337.3333333333333</ele><time>2026-04-11T07:05:14.998Z</time></trkpt><trkpt lat="43.4441983" lon="11.42084"><ele>337.0</ele><time>2026-04-11T07:05:15.998Z</time></trkpt><trkpt lat="43.444135" lon="11.4209033"><ele>337.0</ele><time>2026-04-11T07:05:16.999Z</time></trkpt><trkpt lat="43.444065" lon="11.4209633"><ele>337.0</ele><time>2026-04-11T07:05:17.998Z</time></trkpt><trkpt lat="43.4439917" lon="11.4210167"><ele>337.0</ele><time>2026-04-11T07:05:18.998Z</time></trkpt><trkpt lat="43.4439183" lon="11.4210617"><ele>337.0</ele><time>2026-04-11T07:05:19.998Z</time></trkpt><trkpt lat="43.44385" lon="11.4211067"><ele>337.0</ele><time>2026-04-11T07:05:20.998Z</time></trkpt><trkpt lat="43.4437833" lon="11.42115"><ele>337.0</ele><time>2026-04-11T07:05:21.998Z</time></trkpt><trkpt lat="43.4437167" lon="11.4212017"><ele>338.5</ele><time>2026-04-11T07:05:22.998Z</time></trkpt><trkpt lat="43.4436433" lon="11.4212567"><ele>340.0</ele><time>2026-04-11T07:05:23.998Z</time></trkpt><trkpt lat="43.44357" lon="11.4213133"><ele>341.5</ele><time>2026-04-11T07:05:24.998Z</time></trkpt><trkpt lat="43.4434983" lon="11.421365"><ele>343.0</ele><time>2026-04-11T07:05:25.998Z</time></trkpt><trkpt lat="43.4434317" lon="11.4214117"><ele>344.5</ele><time>2026-04-11T07:05:26.998Z</time></trkpt><trkpt lat="43.44336" lon="11.4214583"><ele>346.0</ele><time>2026-04-11T07:05:27.999Z</time></trkpt><trkpt lat="43.4432867" lon="11.4214967"><ele>343.0</ele><time>2026-04-11T07:05:28.998Z</time></trkpt><trkpt lat="43.44321" lon="11.4215217"><ele>340.0</ele><time>2026-04-11T07:05:29.999Z</time></trkpt><trkpt lat="43.4431317" lon="11.4215383"><ele>337.0</ele><time>2026-04-11T07:05:30.998Z</time></trkpt><trkpt lat="43.4430567" lon="11.4215467"><ele>334.0</ele><time>2026-04-11T07:05:31.998Z</time></trkpt><trkpt lat="43.4429817" lon="11.4215533"><ele>331.0</ele><time>2026-04-11T07:05:32.998Z</time></trkpt><trkpt lat="43.442905" lon="11.4215617"><ele>328.0</ele><time>2026-04-11T07:05:33.999Z</time></trkpt><trkpt lat="43.442825" lon="11.42157"><ele>328.0</ele><time>2026-04-11T07:05:34.998Z</time></trkpt><trkpt lat="43.4427517" lon="11.4215633"><ele>328.0</ele><time>2026-04-11T07:05:35.999Z</time></trkpt><trkpt lat="43.4426767" lon="11.4215633"><ele>328.0</ele><time>2026-04-11T07:05:36.998Z</time></trkpt><trkpt lat="43.4426017" lon="11.4215567"><ele>328.0</ele><time>2026-04-11T07:05:37.998Z</time></trkpt><trkpt lat="43.442525" lon="11.4215467"><ele>328.0</ele><time>2026-04-11T07:05:38.998Z</time></trkpt><trkpt lat="43.4424483" lon="11.4215383"><ele>328.0</ele><time>2026-04-11T07:05:39.998Z</time></trkpt><trkpt lat="43.4423733" lon="11.4215267"><ele>328.0</ele><time>2026-04-11T07:05:40.998Z</time></trkpt><trkpt lat="43.4422983" lon="11.4215133"><ele>328.0</ele><time>2026-04-11T07:05:41.998Z</time></trkpt><trkpt lat="43.442225" lon="11.4215067"><ele>328.0</ele><time>2026-04-11T07:05:42.998Z</time></trkpt><trkpt lat="43.4421467" lon="11.4214983"><ele>328.0</ele><time>2026-04-11T07:05:43.998Z</time></trkpt><trkpt lat="43.4420717" lon="11.42149"><ele>328.0</ele><time>2026-04-11T07:05:44.998Z</time></trkpt><trkpt lat="43.4419933" lon="11.4214767"><ele>328.0</ele><time>2026-04-11T07:05:45.998Z</time></trkpt><trkpt lat="43.44192" lon="11.4214633"><ele>327.16666666666663</ele><time>2026-04-11T07:05:46.998Z</time></trkpt><trkpt lat="43.4418433" lon="11.421455"><ele>326.3333333333333</ele><time>2026-04-11T07:05:47.998Z</time></trkpt><trkpt lat="43.441765" lon="11.4214417"><ele>325.5</ele><time>2026-04-11T07:05:48.999Z</time></trkpt><trkpt lat="43.4416917" lon="11.4214267"><ele>324.6666666666667</ele><time>2026-04-11T07:05:49.998Z</time></trkpt><trkpt lat="43.4416183" lon="11.4214183"><ele>323.83333333333337</ele><time>2026-04-11T07:05:50.999Z</time></trkpt><trkpt lat="43.4415467" lon="11.4214067"><ele>323.0</ele><time>2026-04-11T07:05:51.998Z</time></trkpt><trkpt lat="43.4414717" lon="11.4213933"><ele>323.00000000000006</ele><time>2026-04-11T07:05:52.998Z</time></trkpt><trkpt lat="43.4413967" lon="11.4213817"><ele>323.0</ele><time>2026-04-11T07:05:53.998Z</time></trkpt><trkpt lat="43.44132" lon="11.42137"><ele>323.0</ele><time>2026-04-11T07:05:54.999Z</time></trkpt><trkpt lat="43.4412417" lon="11.4213483"><ele>323.0</ele><time>2026-04-11T07:05:55.998Z</time></trkpt><trkpt lat="43.4411733" lon="11.4213183"><ele>323.0</ele><time>2026-04-11T07:05:56.998Z</time></trkpt><trkpt lat="43.4411067" lon="11.4212833"><ele>323.00000000000006</ele><time>2026-04-11T07:05:57.998Z</time></trkpt><trkpt lat="43.4410433" lon="11.4212483"><ele>323.0</ele><time>2026-04-11T07:05:58.998Z</time></trkpt><trkpt lat="43.4409783" lon="11.4212083"><ele>324.1666666666667</ele><time>2026-04-11T07:05:59.998Z</time></trkpt><trkpt lat="43.4409133" lon="11.4211567"><ele>325.33333333333337</ele><time>2026-04-11T07:06:00.998Z</time></trkpt><trkpt lat="43.4408483" lon="11.4211017"><ele>326.5</ele><time>2026-04-11T07:06:01.998Z</time></trkpt><trkpt lat="43.4407783" lon="11.4210417"><ele>327.6666666666667</ele><time>2026-04-11T07:06:02.998Z</time></trkpt><trkpt lat="43.4407117" lon="11.4209917"><ele>328.8333333333333</ele><time>2026-04-11T07:06:03.998Z</time></trkpt><trkpt lat="43.4406517" lon="11.4209417"><ele>330.0</ele><time>2026-04-11T07:06:04.999Z</time></trkpt><trkpt lat="43.4405817" lon="11.420885"><ele>330.0</ele><time>2026-04-11T07:06:05.998Z</time></trkpt><trkpt lat="43.440515" lon="11.4208267"><ele>330.0</ele><time>2026-04-11T07:06:06.998Z</time></trkpt><trkpt lat="43.4404483" lon="11.4207717"><ele>330.0</ele><time>2026-04-11T07:06:07.999Z</time></trkpt><trkpt lat="43.44038" lon="11.42071"><ele>330.0</ele><time>2026-04-11T07:06:08.998Z</time></trkpt><trkpt lat="43.4403133" lon="11.4206533"><ele>330.0</ele><time>2026-04-11T07:06:09.998Z</time></trkpt><trkpt lat="43.440245" lon="11.4205983"><ele>330.0</ele><time>2026-04-11T07:06:10.998Z</time></trkpt><trkpt lat="43.4401783" lon="11.4205417"><ele>329.8333333333333</ele><time>2026-04-11T07:06:11.998Z</time></trkpt><trkpt lat="43.4401117" lon="11.420485"><ele>329.6666666666667</ele><time>2026-04-11T07:06:12.999Z</time></trkpt><trkpt lat="43.4400467" lon="11.42043"><ele>329.5</ele><time>2026-04-11T07:06:13.998Z</time></trkpt><trkpt lat="43.4399767" lon="11.4203717"><ele>329.33333333333337</ele><time>2026-04-11T07:06:14.998Z</time></trkpt><trkpt lat="43.4399067" lon="11.4203117"><ele>329.1666666666667</ele><time>2026-04-11T07:06:15.998Z</time></trkpt><trkpt lat="43.4398383" lon="11.42025"><ele>329.0</ele><time>2026-04-11T07:06:16.999Z</time></trkpt><trkpt lat="43.4397633" lon="11.42019"><ele>329.0</ele><time>2026-04-11T07:06:17.999Z</time></trkpt><trkpt lat="43.4396967" lon="11.4201367"><ele>329.0</ele><time>2026-04-11T07:06:18.998Z</time></trkpt><trkpt lat="43.4396317" lon="11.4200767"><ele>329.0</ele><time>2026-04-11T07:06:19.998Z</time></trkpt><trkpt lat="43.4395633" lon="11.4200233"><ele>329.0</ele><time>2026-04-11T07:06:20.999Z</time></trkpt><trkpt lat="43.4394983" lon="11.4199683"><ele>329.0</ele><time>2026-04-11T07:06:21.998Z</time></trkpt><trkpt lat="43.43943" lon="11.4199183"><ele>329.0</ele><time>2026-04-11T07:06:22.998Z</time></trkpt><trkpt lat="43.4393667" lon="11.4198733"><ele>327.1666666666667</ele><time>2026-04-11T07:06:23.998Z</time></trkpt><trkpt lat="43.4392983" lon="11.4198267"><ele>325.33333333333337</ele><time>2026-04-11T07:06:24.998Z</time></trkpt><trkpt lat="43.439225" lon="11.4197883"><ele>323.5</ele><time>2026-04-11T07:06:25.999Z</time></trkpt><trkpt lat="43.43915" lon="11.419755"><ele>321.6666666666667</ele><time>2026-04-11T07:06:26.998Z</time></trkpt><trkpt lat="43.4390733" lon="11.4197267"><ele>319.8333333333333</ele><time>2026-04-11T07:06:27.998Z</time></trkpt><trkpt lat="43.4389983" lon="11.4197"><ele>318.0</ele><time>2026-04-11T07:06:28.998Z</time></trkpt><trkpt lat="43.4389167" lon="11.4196767"><ele>318.0</ele><time>2026-04-11T07:06:29.998Z</time></trkpt><trkpt lat="43.4388417" lon="11.41966"><ele>318.0</ele><time>2026-04-11T07:06:30.998Z</time></trkpt><trkpt lat="43.4387667" lon="11.4196467"><ele>318.0</ele><time>2026-04-11T07:06:31.998Z</time></trkpt><trkpt lat="43.4386833" lon="11.41964"><ele>318.0</ele><time>2026-04-11T07:06:32.998Z</time></trkpt><trkpt lat="43.4386017" lon="11.4196317"><ele>318.0</ele><time>2026-04-11T07:06:33.998Z</time></trkpt><trkpt lat="43.43852" lon="11.41962"><ele>318.0</ele><time>2026-04-11T07:06:34.998Z</time></trkpt><trkpt lat="43.438435" lon="11.41961"><ele>318.8333333333333</ele><time>2026-04-11T07:06:35.998Z</time></trkpt><trkpt lat="43.4383483" lon="11.4195983"><ele>319.6666666666667</ele><time>2026-04-11T07:06:36.998Z</time></trkpt><trkpt lat="43.4382667" lon="11.41958"><ele>320.5</ele><time>2026-04-11T07:06:37.998Z</time></trkpt><trkpt lat="43.4381833" lon="11.4195717"><ele>321.33333333333337</ele><time>2026-04-11T07:06:38.999Z</time></trkpt><trkpt lat="43.4380983" lon="11.41956"><ele>322.1666666666667</ele><time>2026-04-11T07:06:39.998Z</time></trkpt><trkpt lat="43.4380133" lon="11.4195433"><ele>323.0</ele><time>2026-04-11T07:06:40.997Z</time></trkpt><trkpt lat="43.4379267" lon="11.4195283"><ele>323.0</ele><time>2026-04-11T07:06:41.998Z</time></trkpt><trkpt lat="43.4378467" lon="11.4195167"><ele>323.0</ele><time>2026-04-11T07:06:42.998Z</time></trkpt><trkpt lat="43.4377667" lon="11.4195017"><ele>323.0</ele><time>2026-04-11T07:06:43.998Z</time></trkpt><trkpt lat="43.437685" lon="11.4194867"><ele>323.0</ele><time>2026-04-11T07:06:44.999Z</time></trkpt><trkpt lat="43.4376033" lon="11.4194683"><ele>323.0</ele><time>2026-04-11T07:06:45.998Z</time></trkpt><trkpt lat="43.437515" lon="11.41945"><ele>323.0</ele><time>2026-04-11T07:06:46.998Z</time></trkpt><trkpt lat="43.4374317" lon="11.419435"><ele>323.0</ele><time>2026-04-11T07:06:47.999Z</time></trkpt><trkpt lat="43.4373483" lon="11.419415"><ele>323.0</ele><time>2026-04-11T07:06:48.999Z</time></trkpt><trkpt lat="43.4372683" lon="11.4194"><ele>323.0</ele><time>2026-04-11T07:06:49.999Z</time></trkpt><trkpt lat="43.437185" lon="11.41939"><ele>323.0</ele><time>2026-04-11T07:06:50.998Z</time></trkpt><trkpt lat="43.4371017" lon="11.4193767"><ele>323.0</ele><time>2026-04-11T07:06:51.999Z</time></trkpt><trkpt lat="43.4370183" lon="11.4193617"><ele>323.0</ele><time>2026-04-11T07:06:52.998Z</time></trkpt><trkpt lat="43.436935" lon="11.4193433"><ele>322.5</ele><time>2026-04-11T07:06:53.998Z</time></trkpt><trkpt lat="43.436855" lon="11.41933"><ele>322.0</ele><time>2026-04-11T07:06:54.998Z</time></trkpt><trkpt lat="43.4367733" lon="11.4193117"><ele>321.5</ele><time>2026-04-11T07:06:55.998Z</time></trkpt><trkpt lat="43.4366967" lon="11.4192983"><ele>321.0</ele><time>2026-04-11T07:06:56.999Z</time></trkpt><trkpt lat="43.436615" lon="11.41928"><ele>320.5</ele><time>2026-04-11T07:06:57.998Z</time></trkpt><trkpt lat="43.436535" lon="11.4192667"><ele>320.0</ele><time>2026-04-11T07:06:58.998Z</time></trkpt><trkpt lat="43.4364583" lon="11.4192567"><ele>320.0</ele><time>2026-04-11T07:06:59.998Z</time></trkpt><trkpt lat="43.43638" lon="11.419245"><ele>320.0</ele><time>2026-04-11T07:07:00.998Z</time></trkpt><trkpt lat="43.436305" lon="11.4192283"><ele>320.0</ele><time>2026-04-11T07:07:01.998Z</time></trkpt><trkpt lat="43.4362283" lon="11.4192183"><ele>320.0</ele><time>2026-04-11T07:07:02.998Z</time></trkpt><trkpt lat="43.43615" lon="11.41921"><ele>320.0</ele><time>2026-04-11T07:07:03.998Z</time></trkpt><trkpt lat="43.43607" lon="11.4191967"><ele>320.0</ele><time>2026-04-11T07:07:04.998Z</time></trkpt><trkpt lat="43.43599" lon="11.4191767"><ele>319.33333333333337</ele><time>2026-04-11T07:07:05.998Z</time></trkpt><trkpt lat="43.4359117" lon="11.41916"><ele>318.6666666666667</ele><time>2026-04-11T07:07:06.998Z</time></trkpt><trkpt lat="43.43584" lon="11.4191433"><ele>318.0</ele><time>2026-04-11T07:07:07.998Z</time></trkpt><trkpt lat="43.4357683" lon="11.4191317"><ele>317.3333333333333</ele><time>2026-04-11T07:07:08.998Z</time></trkpt><trkpt lat="43.4356967" lon="11.4191183"><ele>316.66666666666663</ele><time>2026-04-11T07:07:09.998Z</time></trkpt><trkpt lat="43.4356183" lon="11.4191067"><ele>316.0</ele><time>2026-04-11T07:07:10.998Z</time></trkpt><trkpt lat="43.43554" lon="11.41909"><ele>316.42857142857144</ele><time>2026-04-11T07:07:11.998Z</time></trkpt><trkpt lat="43.4354683" lon="11.4190817"><ele>316.8571428571429</ele><time>2026-04-11T07:07:12.998Z</time></trkpt><trkpt lat="43.4353933" lon="11.4190833"><ele>317.28571428571433</ele><time>2026-04-11T07:07:13.999Z</time></trkpt><trkpt lat="43.4353217" lon="11.4190983"><ele>317.7142857142857</ele><time>2026-04-11T07:07:14.998Z</time></trkpt><trkpt lat="43.4352517" lon="11.41912"><ele>318.1428571428571</ele><time>2026-04-11T07:07:15.998Z</time></trkpt><trkpt lat="43.4351833" lon="11.4191467"><ele>318.5714285714286</ele><time>2026-04-11T07:07:16.998Z</time></trkpt><trkpt lat="43.4351133" lon="11.4191867"><ele>319.0</ele><time>2026-04-11T07:07:17.998Z</time></trkpt><trkpt lat="43.4350517" lon="11.4192367"><ele>319.0</ele><time>2026-04-11T07:07:18.998Z</time></trkpt><trkpt lat="43.434985" lon="11.4192867"><ele>319.0</ele><time>2026-04-11T07:07:19.999Z</time></trkpt><trkpt lat="43.4349217" lon="11.419345"><ele>319.0</ele><time>2026-04-11T07:07:20.998Z</time></trkpt><trkpt lat="43.434855" lon="11.41941"><ele>319.0</ele><time>2026-04-11T07:07:21.998Z</time></trkpt><trkpt lat="43.4347917" lon="11.41946"><ele>319.0</ele><time>2026-04-11T07:07:22.999Z</time></trkpt><trkpt lat="43.4347317" lon="11.4194983"><ele>319.0</ele><time>2026-04-11T07:07:23.998Z</time></trkpt><trkpt lat="43.4346233" lon="11.4195817"><ele>318.5</ele><time>2026-04-11T07:07:25.998Z</time></trkpt><trkpt lat="43.4345267" lon="11.419685"><ele>318.0</ele><time>2026-04-11T07:07:27.998Z</time></trkpt><trkpt lat="43.4344733" lon="11.4197467"><ele>317.5</ele><time>2026-04-11T07:07:28.998Z</time></trkpt><trkpt lat="43.4344133" lon="11.419815"><ele>317.0</ele><time>2026-04-11T07:07:29.998Z</time></trkpt><trkpt lat="43.4343467" lon="11.419895"><ele>316.5</ele><time>2026-04-11T07:07:30.998Z</time></trkpt><trkpt lat="43.4342817" lon="11.41997"><ele>316.0</ele><time>2026-04-11T07:07:31.998Z</time></trkpt><trkpt lat="43.4342183" lon="11.4200433"><ele>316.0</ele><time>2026-04-11T07:07:32.998Z</time></trkpt><trkpt lat="43.4341567" lon="11.4201167"><ele>316.0</ele><time>2026-04-11T07:07:33.998Z</time></trkpt><trkpt lat="43.434085" lon="11.4201933"><ele>316.0</ele><time>2026-04-11T07:07:34.998Z</time></trkpt><trkpt lat="43.4340217" lon="11.4202783"><ele>316.0</ele><time>2026-04-11T07:07:35.999Z</time></trkpt><trkpt lat="43.4339433" lon="11.42037"><ele>316.0</ele><time>2026-04-11T07:07:36.998Z</time></trkpt><trkpt lat="43.4338633" lon="11.4204683"><ele>313.40000000000003</ele><time>2026-04-11T07:07:37.998Z</time></trkpt><trkpt lat="43.4337933" lon="11.4205683"><ele>310.8</ele><time>2026-04-11T07:07:38.998Z</time></trkpt><trkpt lat="43.4337233" lon="11.42065"><ele>308.20000000000005</ele><time>2026-04-11T07:07:39.998Z</time></trkpt><trkpt lat="43.4336533" lon="11.4207333"><ele>305.6</ele><time>2026-04-11T07:07:40.998Z</time></trkpt><trkpt lat="43.4335817" lon="11.4208"><ele>303.0</ele><time>2026-04-11T07:07:41.999Z</time></trkpt><trkpt lat="43.4335033" lon="11.4208417"><ele>303.0</ele><time>2026-04-11T07:07:42.998Z</time></trkpt><trkpt lat="43.4334167" lon="11.420855"><ele>303.0</ele><time>2026-04-11T07:07:43.999Z</time></trkpt><trkpt lat="43.4333333" lon="11.42083"><ele>303.0</ele><time>2026-04-11T07:07:44.998Z</time></trkpt><trkpt lat="43.4332567" lon="11.42077"><ele>303.0</ele><time>2026-04-11T07:07:45.998Z</time></trkpt><trkpt lat="43.4331883" lon="11.4206967"><ele>303.0</ele><time>2026-04-11T07:07:46.999Z</time></trkpt><trkpt lat="43.4331283" lon="11.4206067"><ele>303.0</ele><time>2026-04-11T07:07:47.998Z</time></trkpt><trkpt lat="43.433075" lon="11.4205017"><ele>302.6666666666667</ele><time>2026-04-11T07:07:48.998Z</time></trkpt><trkpt lat="43.4330317" lon="11.4203983"><ele>302.3333333333333</ele><time>2026-04-11T07:07:49.998Z</time></trkpt><trkpt lat="43.43299" lon="11.420295"><ele>302.0</ele><time>2026-04-11T07:07:50.999Z</time></trkpt><trkpt lat="43.432945" lon="11.42019"><ele>301.66666666666663</ele><time>2026-04-11T07:07:51.998Z</time></trkpt><trkpt lat="43.4329017" lon="11.4200933"><ele>301.3333333333333</ele><time>2026-04-11T07:07:52.998Z</time></trkpt><trkpt lat="43.4328583" lon="11.4199967"><ele>301.0</ele><time>2026-04-11T07:07:53.998Z</time></trkpt><trkpt lat="43.4328133" lon="11.4199"><ele>301.0</ele><time>2026-04-11T07:07:54.999Z</time></trkpt><trkpt lat="43.43277" lon="11.4198033"><ele>301.0</ele><time>2026-04-11T07:07:55.999Z</time></trkpt><trkpt lat="43.432725" lon="11.419705"><ele>301.0</ele><time>2026-04-11T07:07:56.998Z</time></trkpt><trkpt lat="43.4326767" lon="11.4196183"><ele>301.0</ele><time>2026-04-11T07:07:57.998Z</time></trkpt><trkpt lat="43.432625" lon="11.4195383"><ele>301.0</ele><time>2026-04-11T07:07:58.999Z</time></trkpt><trkpt lat="43.432575" lon="11.4194533"><ele>301.0</ele><time>2026-04-11T07:07:59.998Z</time></trkpt><trkpt lat="43.4325217" lon="11.41937"><ele>301.5</ele><time>2026-04-11T07:08:00.998Z</time></trkpt><trkpt lat="43.4324667" lon="11.41928"><ele>302.0</ele><time>2026-04-11T07:08:01.998Z</time></trkpt><trkpt lat="43.4324167" lon="11.4192067"><ele>302.5</ele><time>2026-04-11T07:08:02.998Z</time></trkpt><trkpt lat="43.43236" lon="11.4191233"><ele>303.0</ele><time>2026-04-11T07:08:03.998Z</time></trkpt><trkpt lat="43.4323067" lon="11.4190433"><ele>303.5</ele><time>2026-04-11T07:08:04.999Z</time></trkpt><trkpt lat="43.4322567" lon="11.4189667"><ele>304.0</ele><time>2026-04-11T07:08:05.998Z</time></trkpt><trkpt lat="43.4322017" lon="11.418885"><ele>303.2857142857143</ele><time>2026-04-11T07:08:06.998Z</time></trkpt><trkpt lat="43.4321467" lon="11.4188133"><ele>302.5714285714286</ele><time>2026-04-11T07:08:07.998Z</time></trkpt><trkpt lat="43.4320933" lon="11.418735"><ele>301.8571428571429</ele><time>2026-04-11T07:08:08.998Z</time></trkpt><trkpt lat="43.4320417" lon="11.4186567"><ele>301.1428571428571</ele><time>2026-04-11T07:08:09.998Z</time></trkpt><trkpt lat="43.43199" lon="11.4185883"><ele>300.42857142857144</ele><time>2026-04-11T07:08:10.999Z</time></trkpt><trkpt lat="43.4319383" lon="11.418515"><ele>299.7142857142857</ele><time>2026-04-11T07:08:11.998Z</time></trkpt><trkpt lat="43.4318933" lon="11.41844"><ele>299.0</ele><time>2026-04-11T07:08:12.998Z</time></trkpt><trkpt lat="43.43185" lon="11.418375"><ele>299.0</ele><time>2026-04-11T07:08:13.998Z</time></trkpt><trkpt lat="43.4318067" lon="11.4183"><ele>299.0</ele><time>2026-04-11T07:08:14.998Z</time></trkpt><trkpt lat="43.4317633" lon="11.4182267"><ele>299.0</ele><time>2026-04-11T07:08:15.998Z</time></trkpt><trkpt lat="43.4317017" lon="11.4181367"><ele>299.0</ele><time>2026-04-11T07:08:16.998Z</time></trkpt><trkpt lat="43.4316517" lon="11.418065"><ele>299.0</ele><time>2026-04-11T07:08:17.998Z</time></trkpt><trkpt lat="43.431605" lon="11.4179917"><ele>299.0</ele><time>2026-04-11T07:08:18.998Z</time></trkpt><trkpt lat="43.4315633" lon="11.4179233"><ele>299.0</ele><time>2026-04-11T07:08:19.998Z</time></trkpt><trkpt lat="43.4315183" lon="11.4178583"><ele>299.2857142857143</ele><time>2026-04-11T07:08:20.998Z</time></trkpt><trkpt lat="43.4314667" lon="11.4177867"><ele>299.57142857142856</ele><time>2026-04-11T07:08:21.998Z</time></trkpt><trkpt lat="43.4314167" lon="11.4177267"><ele>299.8571428571429</ele><time>2026-04-11T07:08:22.998Z</time></trkpt><trkpt lat="43.4313633" lon="11.4176767"><ele>300.1428571428571</ele><time>2026-04-11T07:08:23.998Z</time></trkpt><trkpt lat="43.4312983" lon="11.4176467"><ele>300.42857142857144</ele><time>2026-04-11T07:08:24.998Z</time></trkpt><trkpt lat="43.4312283" lon="11.4176433"><ele>300.7142857142857</ele><time>2026-04-11T07:08:25.998Z</time></trkpt><trkpt lat="43.43116" lon="11.41767"><ele>301.0</ele><time>2026-04-11T07:08:26.998Z</time></trkpt><trkpt lat="43.4310883" lon="11.41771"><ele>301.0</ele><time>2026-04-11T07:08:27.999Z</time></trkpt><trkpt lat="43.431015" lon="11.4177533"><ele>301.0</ele><time>2026-04-11T07:08:28.998Z</time></trkpt><trkpt lat="43.4309517" lon="11.4178017"><ele>301.0</ele><time>2026-04-11T07:08:29.998Z</time></trkpt><trkpt lat="43.4308817" lon="11.41785"><ele>301.0</ele><time>2026-04-11T07:08:30.999Z</time></trkpt><trkpt lat="43.4308133" lon="11.4178967"><ele>301.0</ele><time>2026-04-11T07:08:31.998Z</time></trkpt><trkpt lat="43.43075" lon="11.41794"><ele>301.0</ele><time>2026-04-11T07:08:32.999Z</time></trkpt><trkpt lat="43.4306883" lon="11.41798"><ele>301.0</ele><time>2026-04-11T07:08:33.998Z</time></trkpt><trkpt lat="43.430625" lon="11.41802"><ele>301.16666666666663</ele><time>2026-04-11T07:08:34.999Z</time></trkpt><trkpt lat="43.4305667" lon="11.4180617"><ele>301.3333333333333</ele><time>2026-04-11T07:08:35.998Z</time></trkpt><trkpt lat="43.4304617" lon="11.418145"><ele>301.5</ele><time>2026-04-11T07:08:37.998Z</time></trkpt><trkpt lat="43.4303567" lon="11.4182283"><ele>301.6666666666667</ele><time>2026-04-11T07:08:39.998Z</time></trkpt><trkpt lat="43.4302967" lon="11.4182733"><ele>301.83333333333337</ele><time>2026-04-11T07:08:40.998Z</time></trkpt><trkpt lat="43.43024" lon="11.4183133"><ele>302.0</ele><time>2026-04-11T07:08:41.998Z</time></trkpt><trkpt lat="43.4301333" lon="11.4183967"><ele>302.0</ele><time>2026-04-11T07:08:43.998Z</time></trkpt><trkpt lat="43.4300267" lon="11.4184683"><ele>302.0</ele><time>2026-04-11T07:08:45.998Z</time></trkpt><trkpt lat="43.4299217" lon="11.418555"><ele>302.0</ele><time>2026-04-11T07:08:47.998Z</time></trkpt><trkpt lat="43.4298633" lon="11.4185967"><ele>302.0</ele><time>2026-04-11T07:08:48.998Z</time></trkpt><trkpt lat="43.4297583" lon="11.4186717"><ele>302.0</ele><time>2026-04-11T07:08:50.998Z</time></trkpt><trkpt lat="43.429655" lon="11.418735"><ele>302.4</ele><time>2026-04-11T07:08:52.998Z</time></trkpt><trkpt lat="43.42956" lon="11.4188083"><ele>302.79999999999995</ele><time>2026-04-11T07:08:54.998Z</time></trkpt><trkpt lat="43.4294617" lon="11.41888"><ele>303.2</ele><time>2026-04-11T07:08:56.998Z</time></trkpt><trkpt lat="43.429375" lon="11.4189317"><ele>303.59999999999997</ele><time>2026-04-11T07:08:58.998Z</time></trkpt><trkpt lat="43.4292817" lon="11.4189767"><ele>304.0</ele><time>2026-04-11T07:09:00.998Z</time></trkpt><trkpt lat="43.42919" lon="11.4190167"><ele>305.0</ele><time>2026-04-11T07:09:02.998Z</time></trkpt><trkpt lat="43.4291167" lon="11.4190533"><ele>306.0</ele><time>2026-04-11T07:09:04.998Z</time></trkpt><trkpt lat="43.429035" lon="11.4190833"><ele>307.0</ele><time>2026-04-11T07:09:06.998Z</time></trkpt><trkpt lat="43.42896" lon="11.4191083"><ele>308.0</ele><time>2026-04-11T07:09:08.998Z</time></trkpt><trkpt lat="43.4288833" lon="11.419135"><ele>309.0</ele><time>2026-04-11T07:09:10.998Z</time></trkpt><trkpt lat="43.4288033" lon="11.4191533"><ele>310.0</ele><time>2026-04-11T07:09:12.999Z</time></trkpt><trkpt lat="43.4287217" lon="11.41917"><ele>310.16666666666663</ele><time>2026-04-11T07:09:14.998Z</time></trkpt><trkpt lat="43.4286433" lon="11.419195"><ele>310.3333333333333</ele><time>2026-04-11T07:09:16.998Z</time></trkpt><trkpt lat="43.4285733" lon="11.419225"><ele>310.5</ele><time>2026-04-11T07:09:18.998Z</time></trkpt><trkpt lat="43.4284967" lon="11.4192633"><ele>310.6666666666667</ele><time>2026-04-11T07:09:20.998Z</time></trkpt><trkpt lat="43.4284167" lon="11.4193117"><ele>310.83333333333337</ele><time>2026-04-11T07:09:22.998Z</time></trkpt><trkpt lat="43.4283417" lon="11.4193767"><ele>311.0</ele><time>2026-04-11T07:09:24.998Z</time></trkpt><trkpt lat="43.42827" lon="11.4194417"><ele>311.0</ele><time>2026-04-11T07:09:26.999Z</time></trkpt><trkpt lat="43.428195" lon="11.4195083"><ele>311.0</ele><time>2026-04-11T07:09:28.998Z</time></trkpt><trkpt lat="43.42812" lon="11.4195717"><ele>311.0</ele><time>2026-04-11T07:09:30.998Z</time></trkpt><trkpt lat="43.4280567" lon="11.4196417"><ele>311.0</ele><time>2026-04-11T07:09:32.998Z</time></trkpt><trkpt lat="43.4280033" lon="11.4197217"><ele>311.0</ele><time>2026-04-11T07:09:34.998Z</time></trkpt><trkpt lat="43.4279483" lon="11.4198133"><ele>311.0</ele><time>2026-04-11T07:09:36.998Z</time></trkpt><trkpt lat="43.427895" lon="11.4199017"><ele>311.0</ele><time>2026-04-11T07:09:38.998Z</time></trkpt><trkpt lat="43.4278417" lon="11.4199817"><ele>311.0</ele><time>2026-04-11T07:09:40.998Z</time></trkpt><trkpt lat="43.4277933" lon="11.4200783"><ele>311.0</ele><time>2026-04-11T07:09:42.998Z</time></trkpt><trkpt lat="43.4277567" lon="11.4201833"><ele>311.0</ele><time>2026-04-11T07:09:44.999Z</time></trkpt><trkpt lat="43.4277417" lon="11.4202917"><ele>311.0</ele><time>2026-04-11T07:09:46.998Z</time></trkpt><trkpt lat="43.4277483" lon="11.42039"><ele>311.0</ele><time>2026-04-11T07:09:48.998Z</time></trkpt><trkpt lat="43.4277667" lon="11.4204983"><ele>311.0</ele><time>2026-04-11T07:09:50.998Z</time></trkpt><trkpt lat="43.4277817" lon="11.4206133"><ele>311.0</ele><time>2026-04-11T07:09:52.999Z</time></trkpt><trkpt lat="43.4277983" lon="11.42073"><ele>311.0</ele><time>2026-04-11T07:09:54.998Z</time></trkpt><trkpt lat="43.4278133" lon="11.4208467"><ele>311.0</ele><time>2026-04-11T07:09:56.999Z</time></trkpt><trkpt lat="43.427825" lon="11.4209617"><ele>311.0</ele><time>2026-04-11T07:09:58.998Z</time></trkpt><trkpt lat="43.4278333" lon="11.4210783"><ele>311.0</ele><time>2026-04-11T07:10:00.999Z</time></trkpt><trkpt lat="43.427835" lon="11.421195"><ele>311.0</ele><time>2026-04-11T07:10:02.998Z</time></trkpt><trkpt lat="43.42783" lon="11.421305"><ele>311.0</ele><time>2026-04-11T07:10:04.998Z</time></trkpt><trkpt lat="43.4278233" lon="11.421405"><ele>311.0</ele><time>2026-04-11T07:10:06.998Z</time></trkpt><trkpt lat="43.427815" lon="11.4215033"><ele>311.0</ele><time>2026-04-11T07:10:08.998Z</time></trkpt><trkpt lat="43.4278033" lon="11.4216083"><ele>311.0</ele><time>2026-04-11T07:10:10.998Z</time></trkpt><trkpt lat="43.4277883" lon="11.42172"><ele>311.0</ele><time>2026-04-11T07:10:12.998Z</time></trkpt><trkpt lat="43.4277733" lon="11.42184"><ele>310.83333333333337</ele><time>2026-04-11T07:10:14.998Z</time></trkpt><trkpt lat="43.4277567" lon="11.4219433"><ele>310.6666666666667</ele><time>2026-04-11T07:10:16.999Z</time></trkpt><trkpt lat="43.4277417" lon="11.422055"><ele>310.5</ele><time>2026-04-11T07:10:18.998Z</time></trkpt><trkpt lat="43.427715" lon="11.4221617"><ele>310.3333333333333</ele><time>2026-04-11T07:10:20.999Z</time></trkpt><trkpt lat="43.4276883" lon="11.4222667"><ele>310.16666666666663</ele><time>2026-04-11T07:10:22.998Z</time></trkpt><trkpt lat="43.4276567" lon="11.4223633"><ele>310.0</ele><time>2026-04-11T07:10:24.998Z</time></trkpt><trkpt lat="43.4276183" lon="11.4224367"><ele>311.3333333333333</ele><time>2026-04-11T07:10:26.998Z</time></trkpt><trkpt lat="43.427565" lon="11.422515"><ele>312.66666666666663</ele><time>2026-04-11T07:10:28.998Z</time></trkpt><trkpt lat="43.4275" lon="11.4225817"><ele>314.0</ele><time>2026-04-11T07:10:30.999Z</time></trkpt><trkpt lat="43.427425" lon="11.4226283"><ele>315.3333333333333</ele><time>2026-04-11T07:10:32.999Z</time></trkpt><trkpt lat="43.4273583" lon="11.42266"><ele>316.6666666666667</ele><time>2026-04-11T07:10:34.998Z</time></trkpt><trkpt lat="43.4272883" lon="11.4226933"><ele>318.0</ele><time>2026-04-11T07:10:36.999Z</time></trkpt><trkpt lat="43.42723" lon="11.4227383"><ele>318.0</ele><time>2026-04-11T07:10:38.999Z</time></trkpt><trkpt lat="43.4271567" lon="11.4227583"><ele>318.0</ele><time>2026-04-11T07:10:40.998Z</time></trkpt><trkpt lat="43.4270767" lon="11.4227733"><ele>318.0</ele><time>2026-04-11T07:10:42.998Z</time></trkpt><trkpt lat="43.426985" lon="11.4227867"><ele>318.0</ele><time>2026-04-11T07:10:44.998Z</time></trkpt><trkpt lat="43.4268983" lon="11.4228"><ele>318.0</ele><time>2026-04-11T07:10:46.999Z</time></trkpt><trkpt lat="43.426815" lon="11.4228167"><ele>318.0</ele><time>2026-04-11T07:10:48.998Z</time></trkpt><trkpt lat="43.426735" lon="11.42284"><ele>317.5</ele><time>2026-04-11T07:10:50.998Z</time></trkpt><trkpt lat="43.4266583" lon="11.4228617"><ele>317.0</ele><time>2026-04-11T07:10:52.998Z</time></trkpt><trkpt lat="43.4265783" lon="11.4228867"><ele>316.5</ele><time>2026-04-11T07:10:54.998Z</time></trkpt><trkpt lat="43.4264983" lon="11.4229133"><ele>316.0</ele><time>2026-04-11T07:10:56.998Z</time></trkpt><trkpt lat="43.4264167" lon="11.42295"><ele>315.5</ele><time>2026-04-11T07:10:58.998Z</time></trkpt><trkpt lat="43.4263333" lon="11.42298"><ele>315.0</ele><time>2026-04-11T07:11:00.998Z</time></trkpt><trkpt lat="43.4262633" lon="11.423025"><ele>315.0</ele><time>2026-04-11T07:11:02.998Z</time></trkpt><trkpt lat="43.426205" lon="11.4231067"><ele>315.0</ele><time>2026-04-11T07:11:04.998Z</time></trkpt><trkpt lat="43.42617" lon="11.42321"><ele>315.0</ele><time>2026-04-11T07:11:06.998Z</time></trkpt><trkpt lat="43.426155" lon="11.42331"><ele>315.0</ele><time>2026-04-11T07:11:08.998Z</time></trkpt><trkpt lat="43.4261567" lon="11.423405"><ele>315.0</ele><time>2026-04-11T07:11:10.998Z</time></trkpt><trkpt lat="43.4261717" lon="11.4235133"><ele>315.0</ele><time>2026-04-11T07:11:12.998Z</time></trkpt><trkpt lat="43.4261917" lon="11.4236217"><ele>315.0</ele><time>2026-04-11T07:11:14.999Z</time></trkpt><trkpt lat="43.4262167" lon="11.4237333"><ele>315.0</ele><time>2026-04-11T07:11:16.998Z</time></trkpt><trkpt lat="43.4262417" lon="11.4238433"><ele>315.0</ele><time>2026-04-11T07:11:18.998Z</time></trkpt><trkpt lat="43.4262583" lon="11.4239583"><ele>315.0</ele><time>2026-04-11T07:11:20.999Z</time></trkpt><trkpt lat="43.426285" lon="11.42408"><ele>315.0</ele><time>2026-04-11T07:11:22.998Z</time></trkpt><trkpt lat="43.4263167" lon="11.4242"><ele>315.0</ele><time>2026-04-11T07:11:24.998Z</time></trkpt><trkpt lat="43.42634" lon="11.42433"><ele>317.8</ele><time>2026-04-11T07:11:26.998Z</time></trkpt><trkpt lat="43.42637" lon="11.4244617"><ele>320.6</ele><time>2026-04-11T07:11:28.998Z</time></trkpt><trkpt lat="43.4264" lon="11.4246"><ele>323.4</ele><time>2026-04-11T07:11:30.998Z</time></trkpt><trkpt lat="43.42643" lon="11.4247317"><ele>326.2</ele><time>2026-04-11T07:11:32.998Z</time></trkpt><trkpt lat="43.4264583" lon="11.4248633"><ele>329.0</ele><time>2026-04-11T07:11:34.998Z</time></trkpt><trkpt lat="43.4264833" lon="11.4249967"><ele>329.0</ele><time>2026-04-11T07:11:36.998Z</time></trkpt><trkpt lat="43.42651" lon="11.4251233"><ele>329.0</ele><time>2026-04-11T07:11:38.998Z</time></trkpt><trkpt lat="43.4265333" lon="11.4252517"><ele>329.0</ele><time>2026-04-11T07:11:40.998Z</time></trkpt><trkpt lat="43.42655" lon="11.425385"><ele>329.0</ele><time>2026-04-11T07:11:42.998Z</time></trkpt><trkpt lat="43.4265533" lon="11.4255283"><ele>329.0</ele><time>2026-04-11T07:11:44.998Z</time></trkpt><trkpt lat="43.4265433" lon="11.4256567"><ele>329.2</ele><time>2026-04-11T07:11:46.998Z</time></trkpt><trkpt lat="43.4265367" lon="11.42578"><ele>329.4</ele><time>2026-04-11T07:11:48.998Z</time></trkpt><trkpt lat="43.4265233" lon="11.4259033"><ele>329.6</ele><time>2026-04-11T07:11:50.998Z</time></trkpt><trkpt lat="43.4265133" lon="11.42604"><ele>329.8</ele><time>2026-04-11T07:11:52.999Z</time></trkpt><trkpt lat="43.4265067" lon="11.42618"><ele>330.0</ele><time>2026-04-11T07:11:54.999Z</time></trkpt><trkpt lat="43.4264917" lon="11.4263133"><ele>330.2</ele><time>2026-04-11T07:11:56.998Z</time></trkpt><trkpt lat="43.42646" lon="11.4264283"><ele>330.4</ele><time>2026-04-11T07:11:58.999Z</time></trkpt><trkpt lat="43.4264133" lon="11.4265533"><ele>330.6</ele><time>2026-04-11T07:12:00.998Z</time></trkpt><trkpt lat="43.4263783" lon="11.4266717"><ele>330.8</ele><time>2026-04-11T07:12:02.998Z</time></trkpt><trkpt lat="43.4263417" lon="11.4267917"><ele>331.0</ele><time>2026-04-11T07:12:04.998Z</time></trkpt><trkpt lat="43.4262883" lon="11.4269117"><ele>331.0</ele><time>2026-04-11T07:12:06.998Z</time></trkpt><trkpt lat="43.4262267" lon="11.4270117"><ele>331.0</ele><time>2026-04-11T07:12:08.998Z</time></trkpt><trkpt lat="43.4261617" lon="11.4271083"><ele>331.0</ele><time>2026-04-11T07:12:10.998Z</time></trkpt><trkpt lat="43.4261067" lon="11.4272"><ele>331.0</ele><time>2026-04-11T07:12:12.998Z</time></trkpt><trkpt lat="43.4260467" lon="11.4272867"><ele>331.0</ele><time>2026-04-11T07:12:14.998Z</time></trkpt><trkpt lat="43.4259867" lon="11.4273733"><ele>330.4</ele><time>2026-04-11T07:12:16.998Z</time></trkpt><trkpt lat="43.425935" lon="11.4274767"><ele>329.8</ele><time>2026-04-11T07:12:18.998Z</time></trkpt><trkpt lat="43.4259067" lon="11.4275967"><ele>329.2</ele><time>2026-04-11T07:12:20.998Z</time></trkpt><trkpt lat="43.4259" lon="11.4277233"><ele>328.59999999999997</ele><time>2026-04-11T07:12:22.999Z</time></trkpt><trkpt lat="43.425895" lon="11.4278483"><ele>328.0</ele><time>2026-04-11T07:12:24.999Z</time></trkpt><trkpt lat="43.4259017" lon="11.4279783"><ele>328.0</ele><time>2026-04-11T07:12:26.998Z</time></trkpt><trkpt lat="43.4259017" lon="11.4281117"><ele>328.0</ele><time>2026-04-11T07:12:28.999Z</time></trkpt><trkpt lat="43.4259067" lon="11.428245"><ele>328.0</ele><time>2026-04-11T07:12:30.998Z</time></trkpt><trkpt lat="43.4259083" lon="11.4283867"><ele>328.0</ele><time>2026-04-11T07:12:32.998Z</time></trkpt><trkpt lat="43.4259" lon="11.4285183"><ele>328.0</ele><time>2026-04-11T07:12:34.998Z</time></trkpt><trkpt lat="43.425895" lon="11.4286417"><ele>328.0</ele><time>2026-04-11T07:12:36.998Z</time></trkpt><trkpt lat="43.4258967" lon="11.428765"><ele>328.0</ele><time>2026-04-11T07:12:38.998Z</time></trkpt><trkpt lat="43.4259017" lon="11.4288933"><ele>328.0</ele><time>2026-04-11T07:12:40.998Z</time></trkpt><trkpt lat="43.425905" lon="11.4290183"><ele>328.0</ele><time>2026-04-11T07:12:42.998Z</time></trkpt><trkpt lat="43.4259017" lon="11.429145"><ele>328.0</ele><time>2026-04-11T07:12:44.998Z</time></trkpt><trkpt lat="43.425905" lon="11.4292683"><ele>328.66666666666663</ele><time>2026-04-11T07:12:46.998Z</time></trkpt><trkpt lat="43.425905" lon="11.4293867"><ele>329.3333333333333</ele><time>2026-04-11T07:12:48.999Z</time></trkpt><trkpt lat="43.4259083" lon="11.4295133"><ele>330.0</ele><time>2026-04-11T07:12:50.999Z</time></trkpt><trkpt lat="43.42591" lon="11.42964"><ele>330.6666666666667</ele><time>2026-04-11T07:12:52.998Z</time></trkpt><trkpt lat="43.4259083" lon="11.4297633"><ele>331.33333333333337</ele><time>2026-04-11T07:12:54.998Z</time></trkpt><trkpt lat="43.4259033" lon="11.4298833"><ele>332.0</ele><time>2026-04-11T07:12:56.998Z</time></trkpt><trkpt lat="43.425905" lon="11.43"><ele>332.0</ele><time>2026-04-11T07:12:58.998Z</time></trkpt><trkpt lat="43.4259033" lon="11.4301333"><ele>332.0</ele><time>2026-04-11T07:13:00.999Z</time></trkpt><trkpt lat="43.4258917" lon="11.4302667"><ele>332.0</ele><time>2026-04-11T07:13:02.998Z</time></trkpt><trkpt lat="43.425875" lon="11.4303883"><ele>332.0</ele><time>2026-04-11T07:13:04.998Z</time></trkpt><trkpt lat="43.4258533" lon="11.430505"><ele>332.0</ele><time>2026-04-11T07:13:06.998Z</time></trkpt><trkpt lat="43.4258317" lon="11.4306167"><ele>332.40000000000003</ele><time>2026-04-11T07:13:08.998Z</time></trkpt><trkpt lat="43.4257967" lon="11.4307317"><ele>332.8</ele><time>2026-04-11T07:13:10.998Z</time></trkpt><trkpt lat="43.4257567" lon="11.4308533"><ele>333.2</ele><time>2026-04-11T07:13:12.999Z</time></trkpt><trkpt lat="43.425715" lon="11.4309583"><ele>333.6</ele><time>2026-04-11T07:13:14.998Z</time></trkpt><trkpt lat="43.4256683" lon="11.4310833"><ele>334.0</ele><time>2026-04-11T07:13:16.998Z</time></trkpt><trkpt lat="43.4256183" lon="11.4312033"><ele>335.2</ele><time>2026-04-11T07:13:18.998Z</time></trkpt><trkpt lat="43.425575" lon="11.4313217"><ele>336.4</ele><time>2026-04-11T07:13:20.998Z</time></trkpt><trkpt lat="43.425535" lon="11.4314417"><ele>337.6</ele><time>2026-04-11T07:13:22.998Z</time></trkpt><trkpt lat="43.42549" lon="11.4315583"><ele>338.8</ele><time>2026-04-11T07:13:24.998Z</time></trkpt><trkpt lat="43.4254417" lon="11.4316717"><ele>340.0</ele><time>2026-04-11T07:13:26.998Z</time></trkpt><trkpt lat="43.4254083" lon="11.43178"><ele>340.0</ele><time>2026-04-11T07:13:28.999Z</time></trkpt><trkpt lat="43.4253767" lon="11.431885"><ele>340.0</ele><time>2026-04-11T07:13:30.998Z</time></trkpt><trkpt lat="43.4253583" lon="11.4319967"><ele>340.0</ele><time>2026-04-11T07:13:32.998Z</time></trkpt><trkpt lat="43.4253283" lon="11.43211"><ele>340.0</ele><time>2026-04-11T07:13:34.998Z</time></trkpt><trkpt lat="43.4252483" lon="11.4321733"><ele>340.0</ele><time>2026-04-11T07:13:36.998Z</time></trkpt><trkpt lat="43.4251567" lon="11.43222"><ele>340.0</ele><time>2026-04-11T07:13:38.999Z</time></trkpt><trkpt lat="43.425065" lon="11.4322667"><ele>340.0</ele><time>2026-04-11T07:13:40.998Z</time></trkpt><trkpt lat="43.425" lon="11.4323417"><ele>340.0</ele><time>2026-04-11T07:13:42.998Z</time></trkpt><trkpt lat="43.4249567" lon="11.4324417"><ele>340.0</ele><time>2026-04-11T07:13:44.998Z</time></trkpt><trkpt lat="43.4249083" lon="11.4325417"><ele>340.0</ele><time>2026-04-11T07:13:46.998Z</time></trkpt><trkpt lat="43.4248717" lon="11.432655"><ele>340.0</ele><time>2026-04-11T07:13:48.998Z</time></trkpt><trkpt lat="43.424845" lon="11.4327567"><ele>340.0</ele><time>2026-04-11T07:13:50.998Z</time></trkpt><trkpt lat="43.4248183" lon="11.4328483"><ele>340.0</ele><time>2026-04-11T07:13:52.998Z</time></trkpt><trkpt lat="43.4247833" lon="11.43294"><ele>340.0</ele><time>2026-04-11T07:13:54.998Z</time></trkpt><trkpt lat="43.424745" lon="11.4330283"><ele>340.0</ele><time>2026-04-11T07:13:56.998Z</time></trkpt><trkpt lat="43.4247083" lon="11.4331117"><ele>340.0</ele><time>2026-04-11T07:13:58.998Z</time></trkpt><trkpt lat="43.4246617" lon="11.4332017"><ele>340.0</ele><time>2026-04-11T07:14:00.998Z</time></trkpt><trkpt lat="43.4246367" lon="11.4332917"><ele>340.0</ele><time>2026-04-11T07:14:02.998Z</time></trkpt><trkpt lat="43.424605" lon="11.43338"><ele>340.0</ele><time>2026-04-11T07:14:04.999Z</time></trkpt><trkpt lat="43.42458" lon="11.43347"><ele>341.8333333333333</ele><time>2026-04-11T07:14:06.999Z</time></trkpt><trkpt lat="43.4245517" lon="11.4335617"><ele>343.66666666666663</ele><time>2026-04-11T07:14:08.999Z</time></trkpt><trkpt lat="43.42451" lon="11.4336583"><ele>345.5</ele><time>2026-04-11T07:14:10.998Z</time></trkpt><trkpt lat="43.4244733" lon="11.433755"><ele>347.3333333333333</ele><time>2026-04-11T07:14:12.998Z</time></trkpt><trkpt lat="43.4244483" lon="11.43386"><ele>349.1666666666667</ele><time>2026-04-11T07:14:14.999Z</time></trkpt><trkpt lat="43.4244333" lon="11.4339533"><ele>351.0</ele><time>2026-04-11T07:14:16.999Z</time></trkpt><trkpt lat="43.4244117" lon="11.43408"><ele>351.0</ele><time>2026-04-11T07:14:19.998Z</time></trkpt><trkpt lat="43.4243967" lon="11.4341817"><ele>351.0</ele><time>2026-04-11T07:14:21.998Z</time></trkpt><trkpt lat="43.4243783" lon="11.43428"><ele>351.0</ele><time>2026-04-11T07:14:23.998Z</time></trkpt><trkpt lat="43.424365" lon="11.4343783"><ele>351.0</ele><time>2026-04-11T07:14:25.998Z</time></trkpt><trkpt lat="43.4243683" lon="11.4344783"><ele>351.0</ele><time>2026-04-11T07:14:27.998Z</time></trkpt><trkpt lat="43.4243833" lon="11.4345867"><ele>351.0</ele><time>2026-04-11T07:14:29.998Z</time></trkpt><trkpt lat="43.4244017" lon="11.4347067"><ele>350.6666666666667</ele><time>2026-04-11T07:14:31.998Z</time></trkpt><trkpt lat="43.4244367" lon="11.4348"><ele>350.3333333333333</ele><time>2026-04-11T07:14:33.999Z</time></trkpt><trkpt lat="43.4244867" lon="11.434875"><ele>350.0</ele><time>2026-04-11T07:14:35.998Z</time></trkpt><trkpt lat="43.4245467" lon="11.43494"><ele>349.66666666666663</ele><time>2026-04-11T07:14:37.998Z</time></trkpt><trkpt lat="43.42461" lon="11.434995"><ele>349.3333333333333</ele><time>2026-04-11T07:14:39.998Z</time></trkpt><trkpt lat="43.424685" lon="11.43505"><ele>349.0</ele><time>2026-04-11T07:14:41.998Z</time></trkpt><trkpt lat="43.4247567" lon="11.4351083"><ele>348.0</ele><time>2026-04-11T07:14:43.999Z</time></trkpt><trkpt lat="43.4248217" lon="11.4351533"><ele>347.0</ele><time>2026-04-11T07:14:45.998Z</time></trkpt><trkpt lat="43.4248883" lon="11.4351983"><ele>346.0</ele><time>2026-04-11T07:14:47.998Z</time></trkpt><trkpt lat="43.4249517" lon="11.435235"><ele>345.0</ele><time>2026-04-11T07:14:49.998Z</time></trkpt><trkpt lat="43.4250167" lon="11.4352617"><ele>344.0</ele><time>2026-04-11T07:14:51.998Z</time></trkpt><trkpt lat="43.4250833" lon="11.4353167"><ele>343.0</ele><time>2026-04-11T07:14:53.998Z</time></trkpt><trkpt lat="43.4251667" lon="11.4353767"><ele>343.0</ele><time>2026-04-11T07:14:56.998Z</time></trkpt><trkpt lat="43.4252283" lon="11.435435"><ele>343.0</ele><time>2026-04-11T07:14:58.998Z</time></trkpt><trkpt lat="43.4252733" lon="11.43551"><ele>343.0</ele><time>2026-04-11T07:15:00.998Z</time></trkpt><trkpt lat="43.425305" lon="11.4356033"><ele>343.0</ele><time>2026-04-11T07:15:02.998Z</time></trkpt><trkpt lat="43.4253117" lon="11.4357"><ele>343.0</ele><time>2026-04-11T07:15:04.998Z</time></trkpt><trkpt lat="43.4253017" lon="11.4358"><ele>343.0</ele><time>2026-04-11T07:15:06.998Z</time></trkpt><trkpt lat="43.4252833" lon="11.4359033"><ele>343.0</ele><time>2026-04-11T07:15:08.998Z</time></trkpt><trkpt lat="43.4252583" lon="11.4359917"><ele>344.5</ele><time>2026-04-11T07:15:10.999Z</time></trkpt><trkpt lat="43.42522" lon="11.4360667"><ele>346.0</ele><time>2026-04-11T07:15:12.998Z</time></trkpt><trkpt lat="43.4251683" lon="11.4361367"><ele>347.5</ele><time>2026-04-11T07:15:14.999Z</time></trkpt><trkpt lat="43.42512" lon="11.4362433"><ele>349.0</ele><time>2026-04-11T07:15:17.998Z</time></trkpt><trkpt lat="43.425085" lon="11.4363683"><ele>350.5</ele><time>2026-04-11T07:15:20.998Z</time></trkpt><trkpt lat="43.425055" lon="11.4364667"><ele>352.0</ele><time>2026-04-11T07:15:22.998Z</time></trkpt><trkpt lat="43.4250283" lon="11.4365583"><ele>352.5</ele><time>2026-04-11T07:15:24.998Z</time></trkpt><trkpt lat="43.42501" lon="11.4366533"><ele>353.0</ele><time>2026-04-11T07:15:26.998Z</time></trkpt><trkpt lat="43.4249933" lon="11.436745"><ele>353.5</ele><time>2026-04-11T07:15:28.999Z</time></trkpt><trkpt lat="43.4249817" lon="11.4368367"><ele>354.0</ele><time>2026-04-11T07:15:30.998Z</time></trkpt><trkpt lat="43.4249733" lon="11.4369567"><ele>354.5</ele><time>2026-04-11T07:15:33.998Z</time></trkpt><trkpt lat="43.42497" lon="11.4370783"><ele>355.0</ele><time>2026-04-11T07:15:36.998Z</time></trkpt><trkpt lat="43.4249633" lon="11.4371717"><ele>355.0</ele><time>2026-04-11T07:15:38.998Z</time></trkpt><trkpt lat="43.4249667" lon="11.4372617"><ele>355.0</ele><time>2026-04-11T07:15:40.998Z</time></trkpt><trkpt lat="43.4249667" lon="11.4373867"><ele>355.0</ele><time>2026-04-11T07:15:43.998Z</time></trkpt><trkpt lat="43.42497" lon="11.4375067"><ele>355.0</ele><time>2026-04-11T07:15:46.998Z</time></trkpt><trkpt lat="43.42497" lon="11.4376367"><ele>355.0</ele><time>2026-04-11T07:15:49.998Z</time></trkpt><trkpt lat="43.4249867" lon="11.4377617"><ele>355.0</ele><time>2026-04-11T07:15:52.999Z</time></trkpt><trkpt lat="43.4250133" lon="11.43788"><ele>355.85714285714283</ele><time>2026-04-11T07:15:55.998Z</time></trkpt><trkpt lat="43.4250383" lon="11.438"><ele>356.7142857142857</ele><time>2026-04-11T07:15:58.998Z</time></trkpt><trkpt lat="43.4250533" lon="11.4380967"><ele>357.57142857142856</ele><time>2026-04-11T07:16:00.998Z</time></trkpt><trkpt lat="43.4250717" lon="11.4381917"><ele>358.42857142857144</ele><time>2026-04-11T07:16:02.998Z</time></trkpt><trkpt lat="43.4250967" lon="11.4382867"><ele>359.2857142857143</ele><time>2026-04-11T07:16:04.998Z</time></trkpt><trkpt lat="43.425115" lon="11.43838"><ele>360.14285714285717</ele><time>2026-04-11T07:16:06.998Z</time></trkpt><trkpt lat="43.42513" lon="11.43847"><ele>361.0</ele><time>2026-04-11T07:16:08.998Z</time></trkpt><trkpt lat="43.4251467" lon="11.4385583"><ele>361.0</ele><time>2026-04-11T07:16:10.999Z</time></trkpt><trkpt lat="43.4251717" lon="11.4386467"><ele>361.0</ele><time>2026-04-11T07:16:12.998Z</time></trkpt><trkpt lat="43.425205" lon="11.4387667"><ele>361.0</ele><time>2026-04-11T07:16:15.998Z</time></trkpt><trkpt lat="43.4252233" lon="11.43885"><ele>361.0</ele><time>2026-04-11T07:16:17.999Z</time></trkpt><trkpt lat="43.4252467" lon="11.4389367"><ele>361.0</ele><time>2026-04-11T07:16:19.998Z</time></trkpt><trkpt lat="43.4252867" lon="11.4390483"><ele>361.0</ele><time>2026-04-11T07:16:22.998Z</time></trkpt><trkpt lat="43.425315" lon="11.4391267"><ele>361.0</ele><time>2026-04-11T07:16:24.998Z</time></trkpt><trkpt lat="43.42538" lon="11.4392033"><ele>360.0</ele><time>2026-04-11T07:16:27.998Z</time></trkpt><trkpt lat="43.42547" lon="11.4392433"><ele>359.0</ele><time>2026-04-11T07:16:30.998Z</time></trkpt><trkpt lat="43.42555" lon="11.4392733"><ele>358.0</ele><time>2026-04-11T07:16:32.998Z</time></trkpt><trkpt lat="43.425625" lon="11.4392917"><ele>357.0</ele><time>2026-04-11T07:16:34.998Z</time></trkpt><trkpt lat="43.4257" lon="11.4392917"><ele>356.0</ele><time>2026-04-11T07:16:36.998Z</time></trkpt><trkpt lat="43.425775" lon="11.4393017"><ele>355.0</ele><time>2026-04-11T07:16:38.998Z</time></trkpt><trkpt lat="43.4258417" lon="11.4393133"><ele>355.0</ele><time>2026-04-11T07:16:40.998Z</time></trkpt><trkpt lat="43.4259033" lon="11.4393533"><ele>355.0</ele><time>2026-04-11T07:16:42.998Z</time></trkpt><trkpt lat="43.4259867" lon="11.439415"><ele>355.0</ele><time>2026-04-11T07:16:45.998Z</time></trkpt><trkpt lat="43.4260267" lon="11.43952"><ele>355.0</ele><time>2026-04-11T07:16:48.998Z</time></trkpt><trkpt lat="43.426055" lon="11.4396083"><ele>355.0</ele><time>2026-04-11T07:16:50.998Z</time></trkpt><trkpt lat="43.4260683" lon="11.4397017"><ele>355.0</ele><time>2026-04-11T07:16:52.998Z</time></trkpt><trkpt lat="43.42608" lon="11.43982"><ele>355.85714285714283</ele><time>2026-04-11T07:16:55.998Z</time></trkpt><trkpt lat="43.4261" lon="11.439945"><ele>356.7142857142857</ele><time>2026-04-11T07:16:58.998Z</time></trkpt><trkpt lat="43.4261017" lon="11.440045"><ele>357.57142857142856</ele><time>2026-04-11T07:17:00.998Z</time></trkpt><trkpt lat="43.4261033" lon="11.44014"><ele>358.42857142857144</ele><time>2026-04-11T07:17:02.999Z</time></trkpt><trkpt lat="43.4261133" lon="11.4402367"><ele>359.2857142857143</ele><time>2026-04-11T07:17:04.998Z</time></trkpt><trkpt lat="43.4261183" lon="11.44033"><ele>360.14285714285717</ele><time>2026-04-11T07:17:06.998Z</time></trkpt><trkpt lat="43.4261317" lon="11.44042"><ele>361.0</ele><time>2026-04-11T07:17:08.998Z</time></trkpt><trkpt lat="43.4261417" lon="11.440545"><ele>361.8333333333333</ele><time>2026-04-11T07:17:11.998Z</time></trkpt><trkpt lat="43.4261433" lon="11.4406517"><ele>362.66666666666663</ele><time>2026-04-11T07:17:14.998Z</time></trkpt><trkpt lat="43.4261433" lon="11.440765"><ele>363.5</ele><time>2026-04-11T07:17:16.998Z</time></trkpt><trkpt lat="43.42614" lon="11.4408783"><ele>364.3333333333333</ele><time>2026-04-11T07:17:18.998Z</time></trkpt><trkpt lat="43.4261333" lon="11.4409917"><ele>365.1666666666667</ele><time>2026-04-11T07:17:20.998Z</time></trkpt><trkpt lat="43.426135" lon="11.4411067"><ele>366.0</ele><time>2026-04-11T07:17:22.998Z</time></trkpt><trkpt lat="43.42613" lon="11.44122"><ele>365.6</ele><time>2026-04-11T07:17:24.998Z</time></trkpt><trkpt lat="43.4260967" lon="11.4413317"><ele>365.20000000000005</ele><time>2026-04-11T07:17:26.998Z</time></trkpt><trkpt lat="43.426035" lon="11.44143"><ele>364.79999999999995</ele><time>2026-04-11T07:17:28.999Z</time></trkpt><trkpt lat="43.4259667" lon="11.4414917"><ele>364.4</ele><time>2026-04-11T07:17:30.998Z</time></trkpt><trkpt lat="43.4258767" lon="11.4415417"><ele>364.0</ele><time>2026-04-11T07:17:32.998Z</time></trkpt><trkpt lat="43.42577" lon="11.4415933"><ele>364.0</ele><time>2026-04-11T07:17:34.998Z</time></trkpt><trkpt lat="43.4256683" lon="11.441645"><ele>364.0</ele><time>2026-04-11T07:17:36.998Z</time></trkpt><trkpt lat="43.4255683" lon="11.4416917"><ele>364.0</ele><time>2026-04-11T07:17:38.998Z</time></trkpt><trkpt lat="43.4254883" lon="11.4417383"><ele>364.0</ele><time>2026-04-11T07:17:40.998Z</time></trkpt><trkpt lat="43.4253983" lon="11.44179"><ele>364.0</ele><time>2026-04-11T07:17:42.998Z</time></trkpt><trkpt lat="43.42531" lon="11.44185"><ele>364.8333333333333</ele><time>2026-04-11T07:17:44.998Z</time></trkpt><trkpt lat="43.4252317" lon="11.4419283"><ele>365.66666666666663</ele><time>2026-04-11T07:17:46.998Z</time></trkpt><trkpt lat="43.425165" lon="11.4420183"><ele>366.5</ele><time>2026-04-11T07:17:48.998Z</time></trkpt><trkpt lat="43.4251183" lon="11.4421083"><ele>367.3333333333333</ele><time>2026-04-11T07:17:50.998Z</time></trkpt><trkpt lat="43.4250767" lon="11.4422017"><ele>368.1666666666667</ele><time>2026-04-11T07:17:52.998Z</time></trkpt><trkpt lat="43.4250333" lon="11.4422967"><ele>369.0</ele><time>2026-04-11T07:17:54.999Z</time></trkpt><trkpt lat="43.42501" lon="11.4423917"><ele>369.0</ele><time>2026-04-11T07:17:56.998Z</time></trkpt><trkpt lat="43.4249817" lon="11.4424917"><ele>369.0</ele><time>2026-04-11T07:17:58.998Z</time></trkpt><trkpt lat="43.4249567" lon="11.4426067"><ele>369.0</ele><time>2026-04-11T07:18:00.998Z</time></trkpt><trkpt lat="43.424935" lon="11.4427133"><ele>369.0</ele><time>2026-04-11T07:18:02.998Z</time></trkpt><trkpt lat="43.4249133" lon="11.442815"><ele>369.0</ele><time>2026-04-11T07:18:04.998Z</time></trkpt><trkpt lat="43.424885" lon="11.4429083"><ele>369.0</ele><time>2026-04-11T07:18:06.998Z</time></trkpt><trkpt lat="43.4248683" lon="11.443005"><ele>368.85714285714283</ele><time>2026-04-11T07:18:08.999Z</time></trkpt><trkpt lat="43.4248617" lon="11.4430933"><ele>368.71428571428567</ele><time>2026-04-11T07:18:10.998Z</time></trkpt><trkpt lat="43.4248517" lon="11.4431917"><ele>368.57142857142856</ele><time>2026-04-11T07:18:12.998Z</time></trkpt><trkpt lat="43.4248417" lon="11.4432817"><ele>368.42857142857144</ele><time>2026-04-11T07:18:14.998Z</time></trkpt><trkpt lat="43.42483" lon="11.4433833"><ele>368.2857142857143</ele><time>2026-04-11T07:18:16.998Z</time></trkpt><trkpt lat="43.424825" lon="11.4434833"><ele>368.14285714285717</ele><time>2026-04-11T07:18:18.998Z</time></trkpt><trkpt lat="43.42482" lon="11.44358"><ele>368.0</ele><time>2026-04-11T07:18:20.998Z</time></trkpt><trkpt lat="43.4248083" lon="11.4436783"><ele>368.0</ele><time>2026-04-11T07:18:22.998Z</time></trkpt><trkpt lat="43.4247817" lon="11.4437783"><ele>368.0</ele><time>2026-04-11T07:18:24.998Z</time></trkpt><trkpt lat="43.424745" lon="11.4438617"><ele>368.0</ele><time>2026-04-11T07:18:26.998Z</time></trkpt><trkpt lat="43.42471" lon="11.4439667"><ele>368.0</ele><time>2026-04-11T07:18:29.998Z</time></trkpt><trkpt lat="43.4246583" lon="11.44405"><ele>368.0</ele><time>2026-04-11T07:18:32.999Z</time></trkpt><trkpt lat="43.424615" lon="11.4441167"><ele>368.0</ele><time>2026-04-11T07:18:34.998Z</time></trkpt><trkpt lat="43.4245617" lon="11.4441817"><ele>368.0</ele><time>2026-04-11T07:18:36.998Z</time></trkpt><trkpt lat="43.4244933" lon="11.444275"><ele>370.0</ele><time>2026-04-11T07:18:39.998Z</time></trkpt><trkpt lat="43.4244417" lon="11.44437"><ele>372.0</ele><time>2026-04-11T07:18:42.998Z</time></trkpt><trkpt lat="43.4243967" lon="11.4444833"><ele>374.0</ele><time>2026-04-11T07:18:45.999Z</time></trkpt><trkpt lat="43.4243483" lon="11.4445883"><ele>376.0</ele><time>2026-04-11T07:18:48.998Z</time></trkpt><trkpt lat="43.4243067" lon="11.4446917"><ele>378.0</ele><time>2026-04-11T07:18:51.998Z</time></trkpt><trkpt lat="43.42427" lon="11.44477"><ele>380.0</ele><time>2026-04-11T07:18:53.998Z</time></trkpt><trkpt lat="43.42423" lon="11.4448533"><ele>380.0</ele><time>2026-04-11T07:18:55.998Z</time></trkpt><trkpt lat="43.4241933" lon="11.4449267"><ele>380.0</ele><time>2026-04-11T07:18:57.998Z</time></trkpt><trkpt lat="43.4241417" lon="11.4450283"><ele>380.0</ele><time>2026-04-11T07:19:00.998Z</time></trkpt><trkpt lat="43.4241" lon="11.4451333"><ele>380.0</ele><time>2026-04-11T07:19:03.998Z</time></trkpt><trkpt lat="43.4240583" lon="11.44523"><ele>380.0</ele><time>2026-04-11T07:19:06.998Z</time></trkpt><trkpt lat="43.4240133" lon="11.4453333"><ele>380.0</ele><time>2026-04-11T07:19:09.998Z</time></trkpt><trkpt lat="43.42397" lon="11.4454333"><ele>380.0</ele><time>2026-04-11T07:19:12.999Z</time></trkpt><trkpt lat="43.423945" lon="11.4455483"><ele>380.0</ele><time>2026-04-11T07:19:15.998Z</time></trkpt><trkpt lat="43.42393" lon="11.4456367"><ele>380.0</ele><time>2026-04-11T07:19:17.998Z</time></trkpt><trkpt lat="43.4238967" lon="11.4457133"><ele>380.0</ele><time>2026-04-11T07:19:19.998Z</time></trkpt><trkpt lat="43.42387" lon="11.44583"><ele>380.0</ele><time>2026-04-11T07:19:22.998Z</time></trkpt><trkpt lat="43.4238983" lon="11.4459267"><ele>380.0</ele><time>2026-04-11T07:19:25.999Z</time></trkpt><trkpt lat="43.4239567" lon="11.446005"><ele>380.0</ele><time>2026-04-11T07:19:28.998Z</time></trkpt><trkpt lat="43.4240267" lon="11.4460467"><ele>380.0</ele><time>2026-04-11T07:19:31.998Z</time></trkpt><trkpt lat="43.4241" lon="11.44608"><ele>380.0</ele><time>2026-04-11T07:19:33.998Z</time></trkpt><trkpt lat="43.4241617" lon="11.4461"><ele>380.0</ele><time>2026-04-11T07:19:35.998Z</time></trkpt><trkpt lat="43.4242217" lon="11.4461383"><ele>380.0</ele><time>2026-04-11T07:19:37.998Z</time></trkpt><trkpt lat="43.42428" lon="11.4461883"><ele>380.0</ele><time>2026-04-11T07:19:39.998Z</time></trkpt><trkpt lat="43.4243317" lon="11.4462433"><ele>380.0</ele><time>2026-04-11T07:19:41.998Z</time></trkpt><trkpt lat="43.42439" lon="11.4463383"><ele>381.6666666666667</ele><time>2026-04-11T07:19:44.998Z</time></trkpt><trkpt lat="43.42443" lon="11.4464383"><ele>383.33333333333337</ele><time>2026-04-11T07:19:47.998Z</time></trkpt><trkpt lat="43.4244467" lon="11.446545"><ele>385.0</ele><time>2026-04-11T07:19:50.998Z</time></trkpt><trkpt lat="43.4244667" lon="11.44663"><ele>386.6666666666667</ele><time>2026-04-11T07:19:52.998Z</time></trkpt><trkpt lat="43.4244683" lon="11.4467367"><ele>388.3333333333333</ele><time>2026-04-11T07:19:55.999Z</time></trkpt><trkpt lat="43.4244733" lon="11.4468617"><ele>390.0</ele><time>2026-04-11T07:19:58.998Z</time></trkpt><trkpt lat="43.4244733" lon="11.446955"><ele>390.0</ele><time>2026-04-11T07:20:00.998Z</time></trkpt><trkpt lat="43.4244683" lon="11.4470417"><ele>390.0</ele><time>2026-04-11T07:20:02.998Z</time></trkpt><trkpt lat="43.4244633" lon="11.4471683"><ele>390.0</ele><time>2026-04-11T07:20:05.998Z</time></trkpt><trkpt lat="43.424445" lon="11.4472717"><ele>390.0</ele><time>2026-04-11T07:20:08.999Z</time></trkpt><trkpt lat="43.4244217" lon="11.44737"><ele>390.0</ele><time>2026-04-11T07:20:11.998Z</time></trkpt><trkpt lat="43.4243817" lon="11.4474483"><ele>390.0</ele><time>2026-04-11T07:20:13.998Z</time></trkpt><trkpt lat="43.4243283" lon="11.447535"><ele>390.6666666666667</ele><time>2026-04-11T07:20:15.998Z</time></trkpt><trkpt lat="43.4242617" lon="11.44762"><ele>391.33333333333337</ele><time>2026-04-11T07:20:17.999Z</time></trkpt><trkpt lat="43.4241933" lon="11.447685"><ele>392.0</ele><time>2026-04-11T07:20:19.998Z</time></trkpt><trkpt lat="43.4241317" lon="11.447745"><ele>392.6666666666667</ele><time>2026-04-11T07:20:21.998Z</time></trkpt><trkpt lat="43.424075" lon="11.4478017"><ele>393.33333333333337</ele><time>2026-04-11T07:20:23.999Z</time></trkpt><trkpt lat="43.424015" lon="11.4478517"><ele>394.0</ele><time>2026-04-11T07:20:25.998Z</time></trkpt><trkpt lat="43.4239533" lon="11.447925"><ele>393.6666666666667</ele><time>2026-04-11T07:20:28.998Z</time></trkpt><trkpt lat="43.4239" lon="11.448025"><ele>393.33333333333337</ele><time>2026-04-11T07:20:31.998Z</time></trkpt><trkpt lat="43.4238667" lon="11.4481033"><ele>393.0</ele><time>2026-04-11T07:20:33.998Z</time></trkpt><trkpt lat="43.4238383" lon="11.448185"><ele>392.66666666666663</ele><time>2026-04-11T07:20:35.998Z</time></trkpt><trkpt lat="43.4238333" lon="11.4483017"><ele>392.3333333333333</ele><time>2026-04-11T07:20:38.998Z</time></trkpt><trkpt lat="43.42384" lon="11.448425"><ele>392.0</ele><time>2026-04-11T07:20:41.998Z</time></trkpt><trkpt lat="43.4238583" lon="11.44851"><ele>392.0</ele><time>2026-04-11T07:20:43.999Z</time></trkpt><trkpt lat="43.42387" lon="11.448605"><ele>392.0</ele><time>2026-04-11T07:20:45.999Z</time></trkpt><trkpt lat="43.423895" lon="11.4487017"><ele>392.0</ele><time>2026-04-11T07:20:47.998Z</time></trkpt><trkpt lat="43.4239233" lon="11.4487967"><ele>392.0</ele><time>2026-04-11T07:20:49.998Z</time></trkpt><trkpt lat="43.4239483" lon="11.448895"><ele>392.0</ele><time>2026-04-11T07:20:51.998Z</time></trkpt><trkpt lat="43.423965" lon="11.4489933"><ele>392.0</ele><time>2026-04-11T07:20:53.998Z</time></trkpt><trkpt lat="43.4239783" lon="11.4491017"><ele>392.0</ele><time>2026-04-11T07:20:55.998Z</time></trkpt><trkpt lat="43.4239817" lon="11.4491983"><ele>391.99999999999994</ele><time>2026-04-11T07:20:57.998Z</time></trkpt><trkpt lat="43.42397" lon="11.4493217"><ele>392.0</ele><time>2026-04-11T07:21:00.998Z</time></trkpt><trkpt lat="43.4239583" lon="11.44943"><ele>392.0</ele><time>2026-04-11T07:21:03.999Z</time></trkpt><trkpt lat="43.42394" lon="11.4495333"><ele>392.0</ele><time>2026-04-11T07:21:05.999Z</time></trkpt><trkpt lat="43.423925" lon="11.44963"><ele>391.99999999999994</ele><time>2026-04-11T07:21:07.998Z</time></trkpt><trkpt lat="43.4239017" lon="11.4497317"><ele>392.0</ele><time>2026-04-11T07:21:09.998Z</time></trkpt><trkpt lat="43.4238767" lon="11.4498267"><ele>390.66666666666663</ele><time>2026-04-11T07:21:11.998Z</time></trkpt><trkpt lat="43.4238433" lon="11.4499017"><ele>389.3333333333333</ele><time>2026-04-11T07:21:13.998Z</time></trkpt><trkpt lat="43.4237983" lon="11.4499667"><ele>388.0</ele><time>2026-04-11T07:21:15.998Z</time></trkpt><trkpt lat="43.4237517" lon="11.4500867"><ele>386.66666666666663</ele><time>2026-04-11T07:21:18.999Z</time></trkpt><trkpt lat="43.42372" lon="11.4501667"><ele>385.3333333333333</ele><time>2026-04-11T07:21:20.998Z</time></trkpt><trkpt lat="43.4236783" lon="11.4502517"><ele>384.0</ele><time>2026-04-11T07:21:22.998Z</time></trkpt><trkpt lat="43.42362" lon="11.4503367"><ele>386.1666666666667</ele><time>2026-04-11T07:21:24.999Z</time></trkpt><trkpt lat="43.42355" lon="11.4504183"><ele>388.33333333333337</ele><time>2026-04-11T07:21:26.998Z</time></trkpt><trkpt lat="43.4234883" lon="11.4504967"><ele>390.5</ele><time>2026-04-11T07:21:28.999Z</time></trkpt><trkpt lat="43.42343" lon="11.450575"><ele>392.6666666666667</ele><time>2026-04-11T07:21:30.998Z</time></trkpt><trkpt lat="43.423355" lon="11.4506533"><ele>394.83333333333337</ele><time>2026-04-11T07:21:32.999Z</time></trkpt><trkpt lat="43.4232833" lon="11.4507167"><ele>397.0</ele><time>2026-04-11T07:21:34.998Z</time></trkpt><trkpt lat="43.4232233" lon="11.4507767"><ele>397.00000000000006</ele><time>2026-04-11T07:21:36.998Z</time></trkpt><trkpt lat="43.4231533" lon="11.4508267"><ele>397.0</ele><time>2026-04-11T07:21:38.998Z</time></trkpt><trkpt lat="43.4230817" lon="11.450905"><ele>397.0</ele><time>2026-04-11T07:21:41.998Z</time></trkpt><trkpt lat="43.423015" lon="11.4509833"><ele>397.0</ele><time>2026-04-11T07:21:44.998Z</time></trkpt><trkpt lat="43.4229667" lon="11.45104"><ele>397.00000000000006</ele><time>2026-04-11T07:21:46.998Z</time></trkpt><trkpt lat="43.422905" lon="11.4510967"><ele>397.0</ele><time>2026-04-11T07:21:48.998Z</time></trkpt><trkpt lat="43.4228233" lon="11.4511567"><ele>396.85714285714283</ele><time>2026-04-11T07:21:50.998Z</time></trkpt><trkpt lat="43.4227533" lon="11.4512033"><ele>396.71428571428567</ele><time>2026-04-11T07:21:52.998Z</time></trkpt><trkpt lat="43.4226917" lon="11.4512383"><ele>396.57142857142856</ele><time>2026-04-11T07:21:54.998Z</time></trkpt><trkpt lat="43.42263" lon="11.4512633"><ele>396.42857142857144</ele><time>2026-04-11T07:21:56.998Z</time></trkpt><trkpt lat="43.4225617" lon="11.4512833"><ele>396.2857142857143</ele><time>2026-04-11T07:21:58.998Z</time></trkpt><trkpt lat="43.4224917" lon="11.4513"><ele>396.14285714285717</ele><time>2026-04-11T07:22:00.998Z</time></trkpt><trkpt lat="43.4224217" lon="11.4513167"><ele>396.0</ele><time>2026-04-11T07:22:02.998Z</time></trkpt><trkpt lat="43.422355" lon="11.4513283"><ele>396.0</ele><time>2026-04-11T07:22:04.998Z</time></trkpt><trkpt lat="43.4222917" lon="11.4513333"><ele>396.0</ele><time>2026-04-11T07:22:06.999Z</time></trkpt><trkpt lat="43.4222167" lon="11.4513433"><ele>396.0</ele><time>2026-04-11T07:22:09.998Z</time></trkpt><trkpt lat="43.4221417" lon="11.451345"><ele>396.0</ele><time>2026-04-11T07:22:12.998Z</time></trkpt><trkpt lat="43.42206" lon="11.4513867"><ele>396.0</ele><time>2026-04-11T07:22:15.998Z</time></trkpt><trkpt lat="43.4220017" lon="11.4514367"><ele>396.0</ele><time>2026-04-11T07:22:17.998Z</time></trkpt><trkpt lat="43.42194" lon="11.4515083"><ele>401.3333333333333</ele><time>2026-04-11T07:22:20.998Z</time></trkpt><trkpt lat="43.421895" lon="11.4515983"><ele>406.66666666666663</ele><time>2026-04-11T07:22:22.998Z</time></trkpt><trkpt lat="43.4218483" lon="11.4516883"><ele>412.0</ele><time>2026-04-11T07:22:24.998Z</time></trkpt><trkpt lat="43.421825" lon="11.45177"><ele>417.3333333333333</ele><time>2026-04-11T07:22:26.998Z</time></trkpt><trkpt lat="43.4218033" lon="11.451865"><ele>422.66666666666663</ele><time>2026-04-11T07:22:28.998Z</time></trkpt><trkpt lat="43.4217883" lon="11.4519933"><ele>428.0</ele><time>2026-04-11T07:22:31.998Z</time></trkpt><trkpt lat="43.4217767" lon="11.45208"><ele>426.7142857142857</ele><time>2026-04-11T07:22:33.998Z</time></trkpt><trkpt lat="43.4217633" lon="11.45218"><ele>425.42857142857144</ele><time>2026-04-11T07:22:35.998Z</time></trkpt><trkpt lat="43.4217383" lon="11.4522817"><ele>424.1428571428571</ele><time>2026-04-11T07:22:37.998Z</time></trkpt><trkpt lat="43.4217083" lon="11.4523683"><ele>422.8571428571429</ele><time>2026-04-11T07:22:39.998Z</time></trkpt><trkpt lat="43.4216783" lon="11.4524617"><ele>421.57142857142856</ele><time>2026-04-11T07:22:41.998Z</time></trkpt><trkpt lat="43.4216567" lon="11.4525483"><ele>420.2857142857143</ele><time>2026-04-11T07:22:43.998Z</time></trkpt><trkpt lat="43.4216333" lon="11.4526367"><ele>419.0</ele><time>2026-04-11T07:22:45.998Z</time></trkpt><trkpt lat="43.42161" lon="11.4527183"><ele>418.99999999999994</ele><time>2026-04-11T07:22:47.998Z</time></trkpt><trkpt lat="43.4215917" lon="11.4528367"><ele>419.0</ele><time>2026-04-11T07:22:50.998Z</time></trkpt><trkpt lat="43.42159" lon="11.452925"><ele>419.0</ele><time>2026-04-11T07:22:52.998Z</time></trkpt><trkpt lat="43.4215967" lon="11.4530417"><ele>419.0</ele><time>2026-04-11T07:22:54.999Z</time></trkpt><trkpt lat="43.4216283" lon="11.45314"><ele>418.99999999999994</ele><time>2026-04-11T07:22:56.998Z</time></trkpt><trkpt lat="43.4216717" lon="11.4532267"><ele>419.0</ele><time>2026-04-11T07:22:58.999Z</time></trkpt><trkpt lat="43.4217117" lon="11.4533033"><ele>418.3333333333333</ele><time>2026-04-11T07:23:00.998Z</time></trkpt><trkpt lat="43.4217517" lon="11.4533933"><ele>417.66666666666663</ele><time>2026-04-11T07:23:03.998Z</time></trkpt><trkpt lat="43.4217867" lon="11.4535067"><ele>417.0</ele><time>2026-04-11T07:23:06.998Z</time></trkpt><trkpt lat="43.4217983" lon="11.4536217"><ele>416.33333333333337</ele><time>2026-04-11T07:23:09.998Z</time></trkpt><trkpt lat="43.4217883" lon="11.4537367"><ele>415.6666666666667</ele><time>2026-04-11T07:23:12.998Z</time></trkpt><trkpt lat="43.4217733" lon="11.4538417"><ele>415.0</ele><time>2026-04-11T07:23:15.998Z</time></trkpt><trkpt lat="43.42175" lon="11.453955"><ele>414.6666666666667</ele><time>2026-04-11T07:23:18.998Z</time></trkpt><trkpt lat="43.4216933" lon="11.454055"><ele>414.33333333333337</ele><time>2026-04-11T07:23:21.998Z</time></trkpt><trkpt lat="43.42165" lon="11.454135"><ele>414.0</ele><time>2026-04-11T07:23:23.998Z</time></trkpt><trkpt lat="43.4215983" lon="11.4542"><ele>413.66666666666663</ele><time>2026-04-11T07:23:25.998Z</time></trkpt><trkpt lat="43.4215467" lon="11.45425"><ele>413.3333333333333</ele><time>2026-04-11T07:23:27.998Z</time></trkpt><trkpt lat="43.4214667" lon="11.4543117"><ele>413.0</ele><time>2026-04-11T07:23:30.998Z</time></trkpt><trkpt lat="43.4214" lon="11.4543717"><ele>412.99999999999994</ele><time>2026-04-11T07:23:33.998Z</time></trkpt><trkpt lat="43.4213383" lon="11.45444"><ele>413.0</ele><time>2026-04-11T07:23:36.998Z</time></trkpt><trkpt lat="43.4212733" lon="11.45449"><ele>413.0</ele><time>2026-04-11T07:23:39.998Z</time></trkpt><trkpt lat="43.4212117" lon="11.4545333"><ele>413.0</ele><time>2026-04-11T07:23:41.998Z</time></trkpt><trkpt lat="43.4211583" lon="11.454585"><ele>412.99999999999994</ele><time>2026-04-11T07:23:43.998Z</time></trkpt><trkpt lat="43.421085" lon="11.4546483"><ele>413.0</ele><time>2026-04-11T07:23:46.998Z</time></trkpt><trkpt lat="43.4210167" lon="11.4547333"><ele>414.49999999999994</ele><time>2026-04-11T07:23:49.999Z</time></trkpt><trkpt lat="43.420965" lon="11.45482"><ele>416.0</ele><time>2026-04-11T07:23:52.998Z</time></trkpt><trkpt lat="43.420925" lon="11.4549083"><ele>417.5</ele><time>2026-04-11T07:23:55.998Z</time></trkpt><trkpt lat="43.42086" lon="11.4550083"><ele>419.0</ele><time>2026-04-11T07:23:58.998Z</time></trkpt><trkpt lat="43.4208167" lon="11.4550833"><ele>420.49999999999994</ele><time>2026-04-11T07:24:00.998Z</time></trkpt><trkpt lat="43.4207617" lon="11.455175"><ele>422.0</ele><time>2026-04-11T07:24:03.998Z</time></trkpt><trkpt lat="43.4207217" lon="11.4552467"><ele>421.99999999999994</ele><time>2026-04-11T07:24:05.998Z</time></trkpt><trkpt lat="43.4206783" lon="11.4553183"><ele>422.0</ele><time>2026-04-11T07:24:07.998Z</time></trkpt><trkpt lat="43.420605" lon="11.455395"><ele>422.0</ele><time>2026-04-11T07:24:10.998Z</time></trkpt><trkpt lat="43.420545" lon="11.4554817"><ele>422.0</ele><time>2026-04-11T07:24:13.998Z</time></trkpt><trkpt lat="43.42049" lon="11.45556"><ele>421.99999999999994</ele><time>2026-04-11T07:24:16.998Z</time></trkpt><trkpt lat="43.42043" lon="11.455625"><ele>422.0</ele><time>2026-04-11T07:24:19.998Z</time></trkpt><trkpt lat="43.4203817" lon="11.4557"><ele>422.99999999999994</ele><time>2026-04-11T07:24:22.998Z</time></trkpt><trkpt lat="43.42033" lon="11.4557817"><ele>424.0</ele><time>2026-04-11T07:24:25.998Z</time></trkpt><trkpt lat="43.42027" lon="11.4558667"><ele>425.0</ele><time>2026-04-11T07:24:28.998Z</time></trkpt><trkpt lat="43.4202217" lon="11.4559467"><ele>426.0</ele><time>2026-04-11T07:24:31.998Z</time></trkpt><trkpt lat="43.4201583" lon="11.4560317"><ele>426.99999999999994</ele><time>2026-04-11T07:24:34.998Z</time></trkpt><trkpt lat="43.4201067" lon="11.456105"><ele>428.0</ele><time>2026-04-11T07:24:36.998Z</time></trkpt><trkpt lat="43.4200567" lon="11.4561717"><ele>428.00000000000006</ele><time>2026-04-11T07:24:38.999Z</time></trkpt><trkpt lat="43.420005" lon="11.45624"><ele>428.0</ele><time>2026-04-11T07:24:40.998Z</time></trkpt><trkpt lat="43.41996" lon="11.45631"><ele>428.0</ele><time>2026-04-11T07:24:42.999Z</time></trkpt><trkpt lat="43.4199167" lon="11.4563767"><ele>428.0</ele><time>2026-04-11T07:24:44.998Z</time></trkpt><trkpt lat="43.419845" lon="11.4564617"><ele>428.0</ele><time>2026-04-11T07:24:47.998Z</time></trkpt><trkpt lat="43.4197983" lon="11.4565233"><ele>428.00000000000006</ele><time>2026-04-11T07:24:49.998Z</time></trkpt><trkpt lat="43.41975" lon="11.45658"><ele>428.0</ele><time>2026-04-11T07:24:51.999Z</time></trkpt><trkpt lat="43.4196967" lon="11.45663"><ele>429.3333333333333</ele><time>2026-04-11T07:24:53.998Z</time></trkpt><trkpt lat="43.4196383" lon="11.4566833"><ele>430.66666666666663</ele><time>2026-04-11T07:24:55.998Z</time></trkpt><trkpt lat="43.4195667" lon="11.456745"><ele>432.0</ele><time>2026-04-11T07:24:58.998Z</time></trkpt><trkpt lat="43.419495" lon="11.4567917"><ele>433.33333333333337</ele><time>2026-04-11T07:25:01.999Z</time></trkpt><trkpt lat="43.41941" lon="11.4568217"><ele>434.6666666666667</ele><time>2026-04-11T07:25:04.998Z</time></trkpt><trkpt lat="43.4193417" lon="11.4568383"><ele>436.0</ele><time>2026-04-11T07:25:06.998Z</time></trkpt><trkpt lat="43.4192433" lon="11.456875"><ele>436.0</ele><time>2026-04-11T07:25:09.998Z</time></trkpt><trkpt lat="43.4191767" lon="11.4569133"><ele>436.0</ele><time>2026-04-11T07:25:11.998Z</time></trkpt><trkpt lat="43.4191267" lon="11.4569783"><ele>436.0</ele><time>2026-04-11T07:25:13.998Z</time></trkpt><trkpt lat="43.4190783" lon="11.45705"><ele>436.0</ele><time>2026-04-11T07:25:15.998Z</time></trkpt><trkpt lat="43.4190417" lon="11.45714"><ele>436.0</ele><time>2026-04-11T07:25:17.998Z</time></trkpt><trkpt lat="43.4190117" lon="11.4572267"><ele>436.0</ele><time>2026-04-11T07:25:19.998Z</time></trkpt><trkpt lat="43.4189967" lon="11.4573133"><ele>436.0</ele><time>2026-04-11T07:25:21.998Z</time></trkpt><trkpt lat="43.4189683" lon="11.457435"><ele>435.57142857142856</ele><time>2026-04-11T07:25:24.998Z</time></trkpt><trkpt lat="43.4189467" lon="11.4575233"><ele>435.14285714285717</ele><time>2026-04-11T07:25:26.998Z</time></trkpt><trkpt lat="43.418905" lon="11.4576317"><ele>434.71428571428567</ele><time>2026-04-11T07:25:29.998Z</time></trkpt><trkpt lat="43.4188617" lon="11.4577067"><ele>434.2857142857143</ele><time>2026-04-11T07:25:32.998Z</time></trkpt><trkpt lat="43.4188133" lon="11.457765"><ele>433.85714285714283</ele><time>2026-04-11T07:25:34.998Z</time></trkpt><trkpt lat="43.4187517" lon="11.4578117"><ele>433.4285714285714</ele><time>2026-04-11T07:25:36.998Z</time></trkpt><trkpt lat="43.4186917" lon="11.4578733"><ele>433.0</ele><time>2026-04-11T07:25:38.998Z</time></trkpt><trkpt lat="43.4186233" lon="11.45793"><ele>433.00000000000006</ele><time>2026-04-11T07:25:40.999Z</time></trkpt><trkpt lat="43.418555" lon="11.457995"><ele>433.0</ele><time>2026-04-11T07:25:42.998Z</time></trkpt><trkpt lat="43.4184983" lon="11.4580433"><ele>433.0</ele><time>2026-04-11T07:25:44.998Z</time></trkpt><trkpt lat="43.4184167" lon="11.4581067"><ele>433.0</ele><time>2026-04-11T07:25:47.999Z</time></trkpt><trkpt lat="43.4183367" lon="11.458175"><ele>433.00000000000006</ele><time>2026-04-11T07:25:50.999Z</time></trkpt><trkpt lat="43.4182733" lon="11.4582217"><ele>433.0</ele><time>2026-04-11T07:25:52.998Z</time></trkpt><trkpt lat="43.4182133" lon="11.4582717"><ele>433.00000000000006</ele><time>2026-04-11T07:25:54.998Z</time></trkpt><trkpt lat="43.4181533" lon="11.4583083"><ele>433.0</ele><time>2026-04-11T07:25:56.998Z</time></trkpt><trkpt lat="43.41809" lon="11.458345"><ele>433.0</ele><time>2026-04-11T07:25:58.998Z</time></trkpt><trkpt lat="43.4180017" lon="11.458375"><ele>433.0</ele><time>2026-04-11T07:26:01.998Z</time></trkpt><trkpt lat="43.4179183" lon="11.458375"><ele>433.00000000000006</ele><time>2026-04-11T07:26:04.998Z</time></trkpt><trkpt lat="43.4178533" lon="11.4583583"><ele>433.0</ele><time>2026-04-11T07:26:06.999Z</time></trkpt><trkpt lat="43.417775" lon="11.4583383"><ele>434.00000000000006</ele><time>2026-04-11T07:26:08.998Z</time></trkpt><trkpt lat="43.4177" lon="11.45831"><ele>435.0</ele><time>2026-04-11T07:26:10.999Z</time></trkpt><trkpt lat="43.4176167" lon="11.458265"><ele>436.0</ele><time>2026-04-11T07:26:12.998Z</time></trkpt><trkpt lat="43.4175433" lon="11.458215"><ele>437.0</ele><time>2026-04-11T07:26:14.998Z</time></trkpt><trkpt lat="43.4174733" lon="11.4581633"><ele>438.00000000000006</ele><time>2026-04-11T07:26:16.998Z</time></trkpt><trkpt lat="43.4174067" lon="11.4581167"><ele>439.0</ele><time>2026-04-11T07:26:18.998Z</time></trkpt><trkpt lat="43.417345" lon="11.4580783"><ele>439.0</ele><time>2026-04-11T07:26:20.998Z</time></trkpt><trkpt lat="43.417285" lon="11.4580483"><ele>439.0</ele><time>2026-04-11T07:26:22.998Z</time></trkpt><trkpt lat="43.417225" lon="11.4580183"><ele>439.0</ele><time>2026-04-11T07:26:24.998Z</time></trkpt><trkpt lat="43.417135" lon="11.4580017"><ele>439.0</ele><time>2026-04-11T07:26:27.998Z</time></trkpt><trkpt lat="43.4170667" lon="11.457995"><ele>439.0</ele><time>2026-04-11T07:26:29.999Z</time></trkpt><trkpt lat="43.4169783" lon="11.4579817"><ele>439.0</ele><time>2026-04-11T07:26:32.998Z</time></trkpt><trkpt lat="43.4169117" lon="11.457975"><ele>439.0</ele><time>2026-04-11T07:26:34.998Z</time></trkpt><trkpt lat="43.4168117" lon="11.4579633"><ele>439.2857142857143</ele><time>2026-04-11T07:26:37.998Z</time></trkpt><trkpt lat="43.4167333" lon="11.4579467"><ele>439.57142857142856</ele><time>2026-04-11T07:26:39.998Z</time></trkpt><trkpt lat="43.416665" lon="11.45794"><ele>439.8571428571429</ele><time>2026-04-11T07:26:41.998Z</time></trkpt><trkpt lat="43.4165933" lon="11.45794"><ele>440.1428571428571</ele><time>2026-04-11T07:26:43.998Z</time></trkpt><trkpt lat="43.4165267" lon="11.45795"><ele>440.42857142857144</ele><time>2026-04-11T07:26:45.998Z</time></trkpt><trkpt lat="43.4164633" lon="11.4579767"><ele>440.7142857142857</ele><time>2026-04-11T07:26:47.998Z</time></trkpt><trkpt lat="43.416395" lon="11.4580067"><ele>441.0</ele><time>2026-04-11T07:26:49.998Z</time></trkpt><trkpt lat="43.4163333" lon="11.4580433"><ele>441.7142857142857</ele><time>2026-04-11T07:26:51.998Z</time></trkpt><trkpt lat="43.4162767" lon="11.45809"><ele>442.42857142857144</ele><time>2026-04-11T07:26:53.999Z</time></trkpt><trkpt lat="43.4162233" lon="11.4581433"><ele>443.1428571428571</ele><time>2026-04-11T07:26:55.999Z</time></trkpt><trkpt lat="43.4161683" lon="11.4581967"><ele>443.8571428571429</ele><time>2026-04-11T07:26:57.998Z</time></trkpt><trkpt lat="43.4161133" lon="11.4582483"><ele>444.57142857142856</ele><time>2026-04-11T07:26:59.999Z</time></trkpt><trkpt lat="43.416045" lon="11.4583367"><ele>445.2857142857143</ele><time>2026-04-11T07:27:02.998Z</time></trkpt><trkpt lat="43.4159967" lon="11.4583983"><ele>446.0</ele><time>2026-04-11T07:27:04.998Z</time></trkpt><trkpt lat="43.41594" lon="11.4585"><ele>446.0</ele><time>2026-04-11T07:27:07.998Z</time></trkpt><trkpt lat="43.4159167" lon="11.458585"><ele>446.0</ele><time>2026-04-11T07:27:09.998Z</time></trkpt><trkpt lat="43.415895" lon="11.4586717"><ele>446.0</ele><time>2026-04-11T07:27:11.999Z</time></trkpt><trkpt lat="43.4158817" lon="11.4587633"><ele>446.0</ele><time>2026-04-11T07:27:13.998Z</time></trkpt><trkpt lat="43.4158583" lon="11.458885"><ele>446.0</ele><time>2026-04-11T07:27:16.998Z</time></trkpt><trkpt lat="43.4158483" lon="11.45899"><ele>446.0</ele><time>2026-04-11T07:27:19.998Z</time></trkpt><trkpt lat="43.41586" lon="11.4590967"><ele>446.0</ele><time>2026-04-11T07:27:23.998Z</time></trkpt><trkpt lat="43.4158717" lon="11.45921"><ele>446.57142857142856</ele><time>2026-04-11T07:27:27.998Z</time></trkpt><trkpt lat="43.41589" lon="11.459295"><ele>447.1428571428571</ele><time>2026-04-11T07:27:30.998Z</time></trkpt><trkpt lat="43.4158733" lon="11.4593933"><ele>447.7142857142858</ele><time>2026-04-11T07:27:34.999Z</time></trkpt><trkpt lat="43.4158517" lon="11.4594917"><ele>448.28571428571433</ele><time>2026-04-11T07:27:40.998Z</time></trkpt><trkpt lat="43.415855" lon="11.4595867"><ele>448.8571428571429</ele><time>2026-04-11T07:27:43.998Z</time></trkpt><trkpt lat="43.4158667" lon="11.459695"><ele>449.4285714285715</ele><time>2026-04-11T07:27:46.998Z</time></trkpt><trkpt lat="43.41587" lon="11.4597967"><ele>450.00000000000006</ele><time>2026-04-11T07:27:50.998Z</time></trkpt><trkpt lat="43.4158683" lon="11.459885"><ele>451.1666666666667</ele><time>2026-04-11T07:27:53.999Z</time></trkpt><trkpt lat="43.4158717" lon="11.459975"><ele>452.33333333333337</ele><time>2026-04-11T07:27:56.998Z</time></trkpt><trkpt lat="43.41587" lon="11.46007"><ele>453.5</ele><time>2026-04-11T07:28:00.998Z</time></trkpt><trkpt lat="43.415855" lon="11.46021"><ele>454.6666666666667</ele><time>2026-04-11T07:28:08.998Z</time></trkpt><trkpt lat="43.41587" lon="11.4602967"><ele>455.83333333333337</ele><time>2026-04-11T07:28:11.998Z</time></trkpt><trkpt lat="43.415885" lon="11.4604117"><ele>457.0</ele><time>2026-04-11T07:28:17.998Z</time></trkpt><trkpt lat="43.4159383" lon="11.4606017"><ele>459.8</ele><time>2026-04-11T07:28:28.999Z</time></trkpt><trkpt lat="43.4159917" lon="11.4607983"><ele>462.6</ele><time>2026-04-11T07:28:36.998Z</time></trkpt><trkpt lat="43.4160383" lon="11.460905"><ele>465.40000000000003</ele><time>2026-04-11T07:28:39.999Z</time></trkpt><trkpt lat="43.4160733" lon="11.461"><ele>468.20000000000005</ele><time>2026-04-11T07:28:42.998Z</time></trkpt><trkpt lat="43.4161083" lon="11.4611067"><ele>471.0</ele><time>2026-04-11T07:28:45.998Z</time></trkpt><trkpt lat="43.4161033" lon="11.46123"><ele>471.00000000000006</ele><time>2026-04-11T07:28:50.998Z</time></trkpt><trkpt lat="43.4160733" lon="11.46131"><ele>471.0</ele><time>2026-04-11T07:28:53.998Z</time></trkpt><trkpt lat="43.41603" lon="11.461385"><ele>471.00000000000006</ele><time>2026-04-11T07:28:56.998Z</time></trkpt><trkpt lat="43.4159767" lon="11.4614317"><ele>471.00000000000006</ele><time>2026-04-11T07:28:59.999Z</time></trkpt><trkpt lat="43.4159117" lon="11.4614517"><ele>471.0</ele><time>2026-04-11T07:29:03.998Z</time></trkpt><trkpt lat="43.4158367" lon="11.461405"><ele>471.00000000000006</ele><time>2026-04-11T07:29:08.998Z</time></trkpt><trkpt lat="43.415785" lon="11.4613267"><ele>471.00000000000006</ele><time>2026-04-11T07:29:13.998Z</time></trkpt><trkpt lat="43.4157517" lon="11.4612467"><ele>471.0</ele><time>2026-04-11T07:29:17.998Z</time></trkpt><trkpt lat="43.41573" lon="11.461165"><ele>471.0</ele><time>2026-04-11T07:29:21.998Z</time></trkpt><trkpt lat="43.4157017" lon="11.4610733"><ele>471.0</ele><time>2026-04-11T07:29:24.998Z</time></trkpt><trkpt lat="43.4156667" lon="11.460985"><ele>471.0</ele><time>2026-04-11T07:29:27.998Z</time></trkpt><trkpt lat="43.4156483" lon="11.46088"><ele>471.0</ele><time>2026-04-11T07:29:30.998Z</time></trkpt><trkpt lat="43.4156167" lon="11.4608033"><ele>471.0</ele><time>2026-04-11T07:29:33.998Z</time></trkpt><trkpt lat="43.41554" lon="11.4606967"><ele>472.8</ele><time>2026-04-11T07:29:40.998Z</time></trkpt><trkpt lat="43.41544" lon="11.46061"><ele>474.6</ele><time>2026-04-11T07:29:45.998Z</time></trkpt><trkpt lat="43.4153633" lon="11.4606067"><ele>476.4</ele><time>2026-04-11T07:29:48.998Z</time></trkpt><trkpt lat="43.415355" lon="11.460755"><ele>478.2</ele><time>2026-04-11T07:30:06.998Z</time></trkpt><trkpt lat="43.41538" lon="11.46093"><ele>480.0</ele><time>2026-04-11T07:30:13.999Z</time></trkpt><trkpt lat="43.4153983" lon="11.461035"><ele>480.0</ele><time>2026-04-11T07:30:16.998Z</time></trkpt><trkpt lat="43.4154117" lon="11.4611283"><ele>480.0</ele><time>2026-04-11T07:30:19.999Z</time></trkpt><trkpt lat="43.415425" lon="11.4613067"><ele>480.0</ele><time>2026-04-11T07:30:27.998Z</time></trkpt><trkpt lat="43.4154267" lon="11.4614083"><ele>480.0</ele><time>2026-04-11T07:30:30.999Z</time></trkpt><trkpt lat="43.4153983" lon="11.4615"><ele>480.0</ele><time>2026-04-11T07:30:34.998Z</time></trkpt><trkpt lat="43.4153817" lon="11.4616083"><ele>480.0</ele><time>2026-04-11T07:30:38.999Z</time></trkpt><trkpt lat="43.41531" lon="11.461625"><ele>482.0</ele><time>2026-04-11T07:30:45.998Z</time></trkpt><trkpt lat="43.4152467" lon="11.4615367"><ele>484.0</ele><time>2026-04-11T07:30:52.999Z</time></trkpt><trkpt lat="43.4151583" lon="11.4614033"><ele>486.0</ele><time>2026-04-11T07:31:02.999Z</time></trkpt><trkpt lat="43.4150833" lon="11.4614"><ele>488.0</ele><time>2026-04-11T07:31:07.998Z</time></trkpt><trkpt lat="43.415025" lon="11.461475"><ele>490.0</ele><time>2026-04-11T07:31:13.998Z</time></trkpt><trkpt lat="43.4149833" lon="11.46156"><ele>490.0</ele><time>2026-04-11T07:31:18.998Z</time></trkpt><trkpt lat="43.4149483" lon="11.4616617"><ele>490.0</ele><time>2026-04-11T07:31:23.998Z</time></trkpt><trkpt lat="43.4149183" lon="11.4617517"><ele>490.0</ele><time>2026-04-11T07:31:27.998Z</time></trkpt><trkpt lat="43.4148783" lon="11.4618333"><ele>490.0</ele><time>2026-04-11T07:31:31.998Z</time></trkpt><trkpt lat="43.4148333" lon="11.4619183"><ele>490.0</ele><time>2026-04-11T07:31:35.998Z</time></trkpt><trkpt lat="43.414745" lon="11.462125"><ele>491.33333333333337</ele><time>2026-04-11T07:31:48.998Z</time></trkpt><trkpt lat="43.414715" lon="11.4622883"><ele>492.6666666666667</ele><time>2026-04-11T07:31:56.999Z</time></trkpt><trkpt lat="43.4146983" lon="11.4623783"><ele>494.0</ele><time>2026-04-11T07:31:59.999Z</time></trkpt><trkpt lat="43.41467" lon="11.46246"><ele>495.33333333333337</ele><time>2026-04-11T07:32:02.998Z</time></trkpt><trkpt lat="43.4146367" lon="11.4625417"><ele>496.6666666666667</ele><time>2026-04-11T07:32:05.998Z</time></trkpt><trkpt lat="43.41464" lon="11.4626483"><ele>498.0</ele><time>2026-04-11T07:32:09.998Z</time></trkpt><trkpt lat="43.4146083" lon="11.4627333"><ele>500.0</ele><time>2026-04-11T07:32:12.998Z</time></trkpt><trkpt lat="43.41457" lon="11.4628033"><ele>502.0</ele><time>2026-04-11T07:32:15.998Z</time></trkpt><trkpt lat="43.41455" lon="11.462975"><ele>504.0</ele><time>2026-04-11T07:32:24.998Z</time></trkpt><trkpt lat="43.4145517" lon="11.4630933"><ele>506.0</ele><time>2026-04-11T07:32:29.998Z</time></trkpt><trkpt lat="43.414565" lon="11.4632017"><ele>508.0</ele><time>2026-04-11T07:32:32.998Z</time></trkpt><trkpt lat="43.4145783" lon="11.4632917"><ele>510.0</ele><time>2026-04-11T07:32:35.998Z</time></trkpt><trkpt lat="43.4145967" lon="11.4633967"><ele>512.3333333333334</ele><time>2026-04-11T07:32:39.998Z</time></trkpt><trkpt lat="43.4145917" lon="11.4634967"><ele>514.6666666666666</ele><time>2026-04-11T07:32:43.998Z</time></trkpt><trkpt lat="43.41459" lon="11.4636033"><ele>517.0</ele><time>2026-04-11T07:32:46.998Z</time></trkpt><trkpt lat="43.4145817" lon="11.463695"><ele>519.3333333333333</ele><time>2026-04-11T07:32:49.998Z</time></trkpt><trkpt lat="43.4145383" lon="11.4637967"><ele>521.6666666666666</ele><time>2026-04-11T07:32:53.998Z</time></trkpt><trkpt lat="43.414515" lon="11.4638867"><ele>524.0</ele><time>2026-04-11T07:32:57.998Z</time></trkpt><trkpt lat="43.414465" lon="11.4640667"><ele>524.0</ele><time>2026-04-11T07:33:06.998Z</time></trkpt><trkpt lat="43.414415" lon="11.4641433"><ele>524.0</ele><time>2026-04-11T07:33:10.998Z</time></trkpt><trkpt lat="43.4142683" lon="11.4643233"><ele>524.0</ele><time>2026-04-11T07:33:19.998Z</time></trkpt><trkpt lat="43.414205" lon="11.464385"><ele>524.0</ele><time>2026-04-11T07:33:22.998Z</time></trkpt><trkpt lat="43.4141333" lon="11.464445"><ele>524.0</ele><time>2026-04-11T07:33:26.998Z</time></trkpt><trkpt lat="43.4140117" lon="11.464515"><ele>524.0</ele><time>2026-04-11T07:33:33.998Z</time></trkpt><trkpt lat="43.4139417" lon="11.46455"><ele>524.0</ele><time>2026-04-11T07:33:36.998Z</time></trkpt><trkpt lat="43.4138567" lon="11.46459"><ele>524.0</ele><time>2026-04-11T07:33:39.998Z</time></trkpt><trkpt lat="43.41376" lon="11.464595"><ele>524.0</ele><time>2026-04-11T07:33:44.998Z</time></trkpt><trkpt lat="43.4136867" lon="11.4646367"><ele>524.0</ele><time>2026-04-11T07:33:47.998Z</time></trkpt><trkpt lat="43.4136" lon="11.4646333"><ele>524.0</ele><time>2026-04-11T07:33:51.999Z</time></trkpt><trkpt lat="43.4134733" lon="11.464645"><ele>525.4</ele><time>2026-04-11T07:33:59.998Z</time></trkpt><trkpt lat="43.4133433" lon="11.4645967"><ele>526.8</ele><time>2026-04-11T07:34:07.998Z</time></trkpt><trkpt lat="43.4132067" lon="11.4645133"><ele>528.2</ele><time>2026-04-11T07:34:14.998Z</time></trkpt><trkpt lat="43.413125" lon="11.4644617"><ele>529.6</ele><time>2026-04-11T07:34:17.998Z</time></trkpt><trkpt lat="43.4130567" lon="11.4644233"><ele>531.0</ele><time>2026-04-11T07:34:20.998Z</time></trkpt><trkpt lat="43.4129833" lon="11.4643983"><ele>528.1666666666666</ele><time>2026-04-11T07:34:23.998Z</time></trkpt><trkpt lat="43.4128733" lon="11.4643433"><ele>525.3333333333334</ele><time>2026-04-11T07:34:46.999Z</time></trkpt><trkpt lat="43.4127867" lon="11.46435"><ele>522.5</ele><time>2026-04-11T07:34:49.999Z</time></trkpt><trkpt lat="43.412715" lon="11.4643483"><ele>519.6666666666667</ele><time>2026-04-11T07:34:51.998Z</time></trkpt><trkpt lat="43.4126367" lon="11.4643517"><ele>516.8333333333334</ele><time>2026-04-11T07:34:53.998Z</time></trkpt><trkpt lat="43.4125717" lon="11.46436"><ele>514.0</ele><time>2026-04-11T07:34:54.998Z</time></trkpt><trkpt lat="43.4125067" lon="11.4643833"><ele>514.0</ele><time>2026-04-11T07:34:55.998Z</time></trkpt><trkpt lat="43.412435" lon="11.4644117"><ele>514.0</ele><time>2026-04-11T07:34:56.998Z</time></trkpt><trkpt lat="43.4123667" lon="11.464445"><ele>514.0</ele><time>2026-04-11T07:34:57.998Z</time></trkpt><trkpt lat="43.4123067" lon="11.4644783"><ele>514.0</ele><time>2026-04-11T07:34:58.998Z</time></trkpt><trkpt lat="43.4122333" lon="11.46452"><ele>514.0</ele><time>2026-04-11T07:34:59.999Z</time></trkpt><trkpt lat="43.4121767" lon="11.464565"><ele>514.0</ele><time>2026-04-11T07:35:00.999Z</time></trkpt><trkpt lat="43.4121" lon="11.4646"><ele>514.0</ele><time>2026-04-11T07:35:01.998Z</time></trkpt><trkpt lat="43.4120317" lon="11.4646383"><ele>512.1666666666667</ele><time>2026-04-11T07:35:02.998Z</time></trkpt><trkpt lat="43.4119667" lon="11.46468"><ele>510.33333333333337</ele><time>2026-04-11T07:35:03.998Z</time></trkpt><trkpt lat="43.4119017" lon="11.4647167"><ele>508.5</ele><time>2026-04-11T07:35:04.998Z</time></trkpt><trkpt lat="43.4118417" lon="11.4647533"><ele>506.66666666666663</ele><time>2026-04-11T07:35:05.999Z</time></trkpt><trkpt lat="43.4117367" lon="11.464795"><ele>504.8333333333333</ele><time>2026-04-11T07:35:07.998Z</time></trkpt><trkpt lat="43.4116517" lon="11.4648"><ele>503.0</ele><time>2026-04-11T07:35:09.998Z</time></trkpt><trkpt lat="43.4115417" lon="11.464765"><ele>503.0</ele><time>2026-04-11T07:35:11.998Z</time></trkpt><trkpt lat="43.411425" lon="11.4647133"><ele>503.0</ele><time>2026-04-11T07:35:13.998Z</time></trkpt><trkpt lat="43.4113117" lon="11.4646433"><ele>503.0</ele><time>2026-04-11T07:35:15.998Z</time></trkpt><trkpt lat="43.4112083" lon="11.46456"><ele>503.0</ele><time>2026-04-11T07:35:17.999Z</time></trkpt><trkpt lat="43.4111283" lon="11.4645033"><ele>501.2</ele><time>2026-04-11T07:35:19.999Z</time></trkpt><trkpt lat="43.4110233" lon="11.4644783"><ele>499.4</ele><time>2026-04-11T07:35:21.998Z</time></trkpt><trkpt lat="43.4109467" lon="11.4644817"><ele>497.59999999999997</ele><time>2026-04-11T07:35:22.998Z</time></trkpt><trkpt lat="43.4108733" lon="11.464495"><ele>495.79999999999995</ele><time>2026-04-11T07:35:23.998Z</time></trkpt><trkpt lat="43.410745" lon="11.464525"><ele>494.0</ele><time>2026-04-11T07:35:25.998Z</time></trkpt><trkpt lat="43.4106817" lon="11.4645033"><ele>493.99999999999994</ele><time>2026-04-11T07:35:26.998Z</time></trkpt><trkpt lat="43.4106167" lon="11.4644867"><ele>494.0</ele><time>2026-04-11T07:35:27.998Z</time></trkpt><trkpt lat="43.41049" lon="11.4644683"><ele>494.0</ele><time>2026-04-11T07:35:28.998Z</time></trkpt><trkpt lat="43.410415" lon="11.4644583"><ele>494.0</ele><time>2026-04-11T07:35:29.998Z</time></trkpt><trkpt lat="43.4103317" lon="11.4644633"><ele>493.99999999999994</ele><time>2026-04-11T07:35:30.999Z</time></trkpt><trkpt lat="43.41025" lon="11.4644633"><ele>494.0</ele><time>2026-04-11T07:35:31.998Z</time></trkpt><trkpt lat="43.41017" lon="11.46446"><ele>493.7142857142857</ele><time>2026-04-11T07:35:32.998Z</time></trkpt><trkpt lat="43.41009" lon="11.4644567"><ele>493.42857142857144</ele><time>2026-04-11T07:35:33.998Z</time></trkpt><trkpt lat="43.4100233" lon="11.46447"><ele>493.14285714285717</ele><time>2026-04-11T07:35:34.998Z</time></trkpt><trkpt lat="43.4099467" lon="11.4644767"><ele>492.8571428571429</ele><time>2026-04-11T07:35:35.998Z</time></trkpt><trkpt lat="43.409875" lon="11.4644867"><ele>492.57142857142856</ele><time>2026-04-11T07:35:36.998Z</time></trkpt><trkpt lat="43.4098033" lon="11.4644867"><ele>492.28571428571433</ele><time>2026-04-11T07:35:37.998Z</time></trkpt><trkpt lat="43.4097333" lon="11.464485"><ele>492.00000000000006</ele><time>2026-04-11T07:35:38.999Z</time></trkpt><trkpt lat="43.4096633" lon="11.46448"><ele>492.20000000000005</ele><time>2026-04-11T07:35:39.998Z</time></trkpt><trkpt lat="43.4096" lon="11.464485"><ele>492.40000000000003</ele><time>2026-04-11T07:35:40.998Z</time></trkpt><trkpt lat="43.4094717" lon="11.464495"><ele>492.59999999999997</ele><time>2026-04-11T07:35:42.998Z</time></trkpt><trkpt lat="43.4093533" lon="11.4644983"><ele>492.79999999999995</ele><time>2026-04-11T07:35:44.998Z</time></trkpt><trkpt lat="43.4092317" lon="11.4645083"><ele>493.0</ele><time>2026-04-11T07:35:46.998Z</time></trkpt><trkpt lat="43.4091117" lon="11.4645233"><ele>493.00000000000006</ele><time>2026-04-11T07:35:48.998Z</time></trkpt><trkpt lat="43.40899" lon="11.4645367"><ele>493.0</ele><time>2026-04-11T07:35:50.998Z</time></trkpt><trkpt lat="43.40887" lon="11.4645567"><ele>493.0</ele><time>2026-04-11T07:35:52.998Z</time></trkpt><trkpt lat="43.408805" lon="11.4645617"><ele>493.0</ele><time>2026-04-11T07:35:53.999Z</time></trkpt><trkpt lat="43.40874" lon="11.464565"><ele>493.00000000000006</ele><time>2026-04-11T07:35:54.998Z</time></trkpt><trkpt lat="43.4086717" lon="11.4645717"><ele>493.0</ele><time>2026-04-11T07:35:55.998Z</time></trkpt><trkpt lat="43.4085983" lon="11.4645683"><ele>492.33333333333337</ele><time>2026-04-11T07:35:56.998Z</time></trkpt><trkpt lat="43.4085233" lon="11.4645517"><ele>491.6666666666667</ele><time>2026-04-11T07:35:57.998Z</time></trkpt><trkpt lat="43.408445" lon="11.464545"><ele>491.0</ele><time>2026-04-11T07:35:58.998Z</time></trkpt><trkpt lat="43.408365" lon="11.4645417"><ele>490.33333333333337</ele><time>2026-04-11T07:35:59.998Z</time></trkpt><trkpt lat="43.4082783" lon="11.4645317"><ele>489.6666666666667</ele><time>2026-04-11T07:36:00.998Z</time></trkpt><trkpt lat="43.408185" lon="11.464535"><ele>489.0</ele><time>2026-04-11T07:36:01.998Z</time></trkpt><trkpt lat="43.4080867" lon="11.464535"><ele>487.0</ele><time>2026-04-11T07:36:02.998Z</time></trkpt><trkpt lat="43.4079883" lon="11.464545"><ele>485.0</ele><time>2026-04-11T07:36:03.998Z</time></trkpt><trkpt lat="43.4078883" lon="11.4645517"><ele>483.0</ele><time>2026-04-11T07:36:04.998Z</time></trkpt><trkpt lat="43.4077883" lon="11.4645617"><ele>481.0</ele><time>2026-04-11T07:36:05.998Z</time></trkpt><trkpt lat="43.4076917" lon="11.4645717"><ele>479.0</ele><time>2026-04-11T07:36:06.998Z</time></trkpt><trkpt lat="43.4075883" lon="11.4645833"><ele>478.99999999999994</ele><time>2026-04-11T07:36:07.998Z</time></trkpt><trkpt lat="43.4075" lon="11.4645983"><ele>479.0</ele><time>2026-04-11T07:36:08.998Z</time></trkpt><trkpt lat="43.4074183" lon="11.4646167"><ele>479.0</ele><time>2026-04-11T07:36:09.999Z</time></trkpt><trkpt lat="43.4073367" lon="11.4646267"><ele>479.0</ele><time>2026-04-11T07:36:10.999Z</time></trkpt><trkpt lat="43.40726" lon="11.4646367"><ele>478.99999999999994</ele><time>2026-04-11T07:36:11.998Z</time></trkpt><trkpt lat="43.4071833" lon="11.46465"><ele>479.0</ele><time>2026-04-11T07:36:12.999Z</time></trkpt><trkpt lat="43.4071067" lon="11.4646633"><ele>478.8333333333333</ele><time>2026-04-11T07:36:13.998Z</time></trkpt><trkpt lat="43.4070317" lon="11.46466"><ele>478.66666666666663</ele><time>2026-04-11T07:36:14.998Z</time></trkpt><trkpt lat="43.4069617" lon="11.4646583"><ele>478.5</ele><time>2026-04-11T07:36:15.998Z</time></trkpt><trkpt lat="43.40685" lon="11.4646283"><ele>478.33333333333337</ele><time>2026-04-11T07:36:17.999Z</time></trkpt><trkpt lat="43.4067767" lon="11.4646017"><ele>478.1666666666667</ele><time>2026-04-11T07:36:19.998Z</time></trkpt><trkpt lat="43.4067033" lon="11.4645783"><ele>478.0</ele><time>2026-04-11T07:36:21.998Z</time></trkpt><trkpt lat="43.40663" lon="11.4645433"><ele>477.2</ele><time>2026-04-11T07:36:23.998Z</time></trkpt><trkpt lat="43.4065517" lon="11.4645133"><ele>476.4</ele><time>2026-04-11T07:36:25.999Z</time></trkpt><trkpt lat="43.4064667" lon="11.4644833"><ele>475.59999999999997</ele><time>2026-04-11T07:36:27.998Z</time></trkpt><trkpt lat="43.4063783" lon="11.4644583"><ele>474.79999999999995</ele><time>2026-04-11T07:36:29.998Z</time></trkpt><trkpt lat="43.406285" lon="11.46443"><ele>474.0</ele><time>2026-04-11T07:36:31.998Z</time></trkpt><trkpt lat="43.4061833" lon="11.464395"><ele>473.0</ele><time>2026-04-11T07:36:33.998Z</time></trkpt><trkpt lat="43.4060733" lon="11.4643417"><ele>472.0</ele><time>2026-04-11T07:36:35.999Z</time></trkpt><trkpt lat="43.4060133" lon="11.4643067"><ele>471.0</ele><time>2026-04-11T07:36:36.998Z</time></trkpt><trkpt lat="43.4059467" lon="11.4642567"><ele>470.0</ele><time>2026-04-11T07:36:37.998Z</time></trkpt><trkpt lat="43.4058783" lon="11.4642017"><ele>469.0</ele><time>2026-04-11T07:36:38.999Z</time></trkpt><trkpt lat="43.40581" lon="11.4641483"><ele>468.0</ele><time>2026-04-11T07:36:39.998Z</time></trkpt><trkpt lat="43.4057417" lon="11.46409"><ele>468.0</ele><time>2026-04-11T07:36:40.998Z</time></trkpt><trkpt lat="43.40567" lon="11.4640267"><ele>468.0</ele><time>2026-04-11T07:36:41.998Z</time></trkpt><trkpt lat="43.4056017" lon="11.463955"><ele>468.0</ele><time>2026-04-11T07:36:42.998Z</time></trkpt><trkpt lat="43.4055367" lon="11.46389"><ele>468.0</ele><time>2026-04-11T07:36:43.999Z</time></trkpt><trkpt lat="43.4054667" lon="11.4638283"><ele>468.0</ele><time>2026-04-11T07:36:44.998Z</time></trkpt><trkpt lat="43.4053983" lon="11.4637667"><ele>468.0</ele><time>2026-04-11T07:36:45.998Z</time></trkpt><trkpt lat="43.4053417" lon="11.4636983"><ele>465.8571428571429</ele><time>2026-04-11T07:36:46.998Z</time></trkpt><trkpt lat="43.40528" lon="11.463625"><ele>463.7142857142858</ele><time>2026-04-11T07:36:47.998Z</time></trkpt><trkpt lat="43.405225" lon="11.463545"><ele>461.57142857142856</ele><time>2026-04-11T07:36:48.998Z</time></trkpt><trkpt lat="43.4051767" lon="11.463475"><ele>459.42857142857144</ele><time>2026-04-11T07:36:49.998Z</time></trkpt><trkpt lat="43.4051317" lon="11.4634083"><ele>457.2857142857143</ele><time>2026-04-11T07:36:50.999Z</time></trkpt><trkpt lat="43.40508" lon="11.4633317"><ele>455.1428571428571</ele><time>2026-04-11T07:36:51.998Z</time></trkpt><trkpt lat="43.4050283" lon="11.4632683"><ele>452.99999999999994</ele><time>2026-04-11T07:36:52.999Z</time></trkpt><trkpt lat="43.4049717" lon="11.4632033"><ele>452.99999999999994</ele><time>2026-04-11T07:36:53.998Z</time></trkpt><trkpt lat="43.404925" lon="11.4631267"><ele>453.0</ele><time>2026-04-11T07:36:54.998Z</time></trkpt><trkpt lat="43.40488" lon="11.46305"><ele>452.99999999999994</ele><time>2026-04-11T07:36:55.998Z</time></trkpt><trkpt lat="43.4048383" lon="11.46297"><ele>452.99999999999994</ele><time>2026-04-11T07:36:56.998Z</time></trkpt><trkpt lat="43.4048017" lon="11.4628933"><ele>453.0</ele><time>2026-04-11T07:36:57.998Z</time></trkpt><trkpt lat="43.40477" lon="11.4628133"><ele>452.99999999999994</ele><time>2026-04-11T07:36:58.998Z</time></trkpt><trkpt lat="43.4047433" lon="11.4627317"><ele>452.99999999999994</ele><time>2026-04-11T07:36:59.998Z</time></trkpt><trkpt lat="43.4047133" lon="11.462575"><ele>452.59999999999997</ele><time>2026-04-11T07:37:01.999Z</time></trkpt><trkpt lat="43.40469" lon="11.46242"><ele>452.19999999999993</ele><time>2026-04-11T07:37:03.998Z</time></trkpt><trkpt lat="43.4046683" lon="11.462285"><ele>451.8</ele><time>2026-04-11T07:37:05.998Z</time></trkpt><trkpt lat="43.40464" lon="11.46216"><ele>451.4</ele><time>2026-04-11T07:37:07.998Z</time></trkpt><trkpt lat="43.404615" lon="11.4620417"><ele>451.0</ele><time>2026-04-11T07:37:09.999Z</time></trkpt><trkpt lat="43.4046" lon="11.4619217"><ele>452.0</ele><time>2026-04-11T07:37:11.998Z</time></trkpt><trkpt lat="43.4045833" lon="11.4617967"><ele>453.0</ele><time>2026-04-11T07:37:13.999Z</time></trkpt><trkpt lat="43.4045517" lon="11.4616767"><ele>454.0</ele><time>2026-04-11T07:37:15.998Z</time></trkpt><trkpt lat="43.4045083" lon="11.4615533"><ele>455.0</ele><time>2026-04-11T07:37:17.999Z</time></trkpt><trkpt lat="43.4044567" lon="11.4614333"><ele>456.0</ele><time>2026-04-11T07:37:19.998Z</time></trkpt><trkpt lat="43.4044017" lon="11.4613167"><ele>456.4</ele><time>2026-04-11T07:37:21.998Z</time></trkpt><trkpt lat="43.40434" lon="11.46119"><ele>456.8</ele><time>2026-04-11T07:37:23.998Z</time></trkpt><trkpt lat="43.4042767" lon="11.4610667"><ele>457.19999999999993</ele><time>2026-04-11T07:37:25.998Z</time></trkpt><trkpt lat="43.4042217" lon="11.4609433"><ele>457.59999999999997</ele><time>2026-04-11T07:37:27.999Z</time></trkpt><trkpt lat="43.4041733" lon="11.4608267"><ele>458.0</ele><time>2026-04-11T07:37:29.998Z</time></trkpt><trkpt lat="43.4041283" lon="11.4607117"><ele>458.0</ele><time>2026-04-11T07:37:31.998Z</time></trkpt><trkpt lat="43.4041" lon="11.4605933"><ele>457.99999999999994</ele><time>2026-04-11T07:37:33.998Z</time></trkpt><trkpt lat="43.4040767" lon="11.4604533"><ele>457.99999999999994</ele><time>2026-04-11T07:37:35.999Z</time></trkpt><trkpt lat="43.40407" lon="11.460325"><ele>458.0</ele><time>2026-04-11T07:37:37.998Z</time></trkpt><trkpt lat="43.4040783" lon="11.460195"><ele>458.0</ele><time>2026-04-11T07:37:39.998Z</time></trkpt><trkpt lat="43.4040933" lon="11.46007"><ele>457.59999999999997</ele><time>2026-04-11T07:37:41.998Z</time></trkpt><trkpt lat="43.4041183" lon="11.459945"><ele>457.19999999999993</ele><time>2026-04-11T07:37:43.999Z</time></trkpt><trkpt lat="43.4041367" lon="11.4598167"><ele>456.8</ele><time>2026-04-11T07:37:45.998Z</time></trkpt><trkpt lat="43.4041683" lon="11.45967"><ele>456.4</ele><time>2026-04-11T07:37:47.998Z</time></trkpt><trkpt lat="43.404205" lon="11.45953"><ele>456.0</ele><time>2026-04-11T07:37:49.998Z</time></trkpt><trkpt lat="43.404265" lon="11.4593967"><ele>455.8</ele><time>2026-04-11T07:37:51.998Z</time></trkpt><trkpt lat="43.4043333" lon="11.4592717"><ele>455.6</ele><time>2026-04-11T07:37:53.998Z</time></trkpt><trkpt lat="43.4043983" lon="11.4591683"><ele>455.4</ele><time>2026-04-11T07:37:55.998Z</time></trkpt><trkpt lat="43.4044617" lon="11.4590717"><ele>455.2</ele><time>2026-04-11T07:37:57.998Z</time></trkpt><trkpt lat="43.4045283" lon="11.4589767"><ele>455.0</ele><time>2026-04-11T07:37:59.998Z</time></trkpt><trkpt lat="43.4045983" lon="11.4588833"><ele>454.8</ele><time>2026-04-11T07:38:01.998Z</time></trkpt><trkpt lat="43.404665" lon="11.458795"><ele>454.6</ele><time>2026-04-11T07:38:03.998Z</time></trkpt><trkpt lat="43.4047283" lon="11.4587033"><ele>454.4</ele><time>2026-04-11T07:38:05.998Z</time></trkpt><trkpt lat="43.4047767" lon="11.4585733"><ele>454.2</ele><time>2026-04-11T07:38:07.998Z</time></trkpt><trkpt lat="43.4048083" lon="11.4584133"><ele>454.0</ele><time>2026-04-11T07:38:09.998Z</time></trkpt><trkpt lat="43.40485" lon="11.4582583"><ele>453.50000000000006</ele><time>2026-04-11T07:38:11.998Z</time></trkpt><trkpt lat="43.4049167" lon="11.45812"><ele>453.0</ele><time>2026-04-11T07:38:13.998Z</time></trkpt><trkpt lat="43.4049633" lon="11.4580517"><ele>452.5</ele><time>2026-04-11T07:38:14.998Z</time></trkpt><trkpt lat="43.4050033" lon="11.45797"><ele>452.0</ele><time>2026-04-11T07:38:15.999Z</time></trkpt><trkpt lat="43.4050233" lon="11.45788"><ele>451.50000000000006</ele><time>2026-04-11T07:38:16.998Z</time></trkpt><trkpt lat="43.4050217" lon="11.457775"><ele>451.0</ele><time>2026-04-11T07:38:17.998Z</time></trkpt><trkpt lat="43.405015" lon="11.4576567"><ele>449.6666666666667</ele><time>2026-04-11T07:38:18.998Z</time></trkpt><trkpt lat="43.4050033" lon="11.4575367"><ele>448.33333333333337</ele><time>2026-04-11T07:38:19.998Z</time></trkpt><trkpt lat="43.4049917" lon="11.4574167"><ele>447.0</ele><time>2026-04-11T07:38:20.998Z</time></trkpt><trkpt lat="43.4049783" lon="11.4572933"><ele>445.66666666666663</ele><time>2026-04-11T07:38:21.999Z</time></trkpt><trkpt lat="43.4049667" lon="11.4571683"><ele>444.3333333333333</ele><time>2026-04-11T07:38:22.998Z</time></trkpt><trkpt lat="43.4049483" lon="11.45705"><ele>443.0</ele><time>2026-04-11T07:38:23.999Z</time></trkpt><trkpt lat="43.4049217" lon="11.4569383"><ele>441.8333333333333</ele><time>2026-04-11T07:38:24.998Z</time></trkpt><trkpt lat="43.404895" lon="11.4568383"><ele>440.66666666666663</ele><time>2026-04-11T07:38:25.998Z</time></trkpt><trkpt lat="43.4048667" lon="11.4567467"><ele>439.5</ele><time>2026-04-11T07:38:26.998Z</time></trkpt><trkpt lat="43.4048383" lon="11.4566633"><ele>438.33333333333337</ele><time>2026-04-11T07:38:27.998Z</time></trkpt><trkpt lat="43.404795" lon="11.4565367"><ele>437.1666666666667</ele><time>2026-04-11T07:38:29.998Z</time></trkpt><trkpt lat="43.40481" lon="11.4564117"><ele>436.0</ele><time>2026-04-11T07:38:32.998Z</time></trkpt><trkpt lat="43.4048883" lon="11.4563433"><ele>436.00000000000006</ele><time>2026-04-11T07:38:34.998Z</time></trkpt><trkpt lat="43.4050083" lon="11.456325"><ele>436.0</ele><time>2026-04-11T07:38:36.999Z</time></trkpt><trkpt lat="43.4050783" lon="11.4563317"><ele>436.0</ele><time>2026-04-11T07:38:37.998Z</time></trkpt><trkpt lat="43.4051517" lon="11.4563383"><ele>436.0</ele><time>2026-04-11T07:38:38.999Z</time></trkpt><trkpt lat="43.405225" lon="11.4563433"><ele>436.00000000000006</ele><time>2026-04-11T07:38:39.998Z</time></trkpt><trkpt lat="43.4053033" lon="11.4563517"><ele>436.0</ele><time>2026-04-11T07:38:40.998Z</time></trkpt><trkpt lat="43.4053883" lon="11.456365"><ele>436.00000000000006</ele><time>2026-04-11T07:38:41.998Z</time></trkpt><trkpt lat="43.40547" lon="11.4563683"><ele>436.0</ele><time>2026-04-11T07:38:42.998Z</time></trkpt><trkpt lat="43.405545" lon="11.456365"><ele>436.0</ele><time>2026-04-11T07:38:43.998Z</time></trkpt><trkpt lat="43.4056217" lon="11.4563467"><ele>436.0</ele><time>2026-04-11T07:38:44.998Z</time></trkpt><trkpt lat="43.405685" lon="11.4563083"><ele>436.00000000000006</ele><time>2026-04-11T07:38:45.999Z</time></trkpt><trkpt lat="43.4057517" lon="11.4562533"><ele>436.0</ele><time>2026-04-11T07:38:46.998Z</time></trkpt><trkpt lat="43.4058167" lon="11.4561867"><ele>434.33333333333337</ele><time>2026-04-11T07:38:47.998Z</time></trkpt><trkpt lat="43.405875" lon="11.4561167"><ele>432.6666666666667</ele><time>2026-04-11T07:38:48.999Z</time></trkpt><trkpt lat="43.4059283" lon="11.4560367"><ele>431.0</ele><time>2026-04-11T07:38:49.998Z</time></trkpt><trkpt lat="43.405975" lon="11.45595"><ele>429.33333333333337</ele><time>2026-04-11T07:38:50.998Z</time></trkpt><trkpt lat="43.40601" lon="11.4558467"><ele>427.6666666666667</ele><time>2026-04-11T07:38:51.999Z</time></trkpt><trkpt lat="43.4060367" lon="11.4557367"><ele>426.0</ele><time>2026-04-11T07:38:52.999Z</time></trkpt><trkpt lat="43.4060567" lon="11.4556267"><ele>425.99999999999994</ele><time>2026-04-11T07:38:53.999Z</time></trkpt><trkpt lat="43.40607" lon="11.455525"><ele>426.0</ele><time>2026-04-11T07:38:54.998Z</time></trkpt><trkpt lat="43.4060817" lon="11.4554283"><ele>426.0</ele><time>2026-04-11T07:38:55.998Z</time></trkpt><trkpt lat="43.406095" lon="11.4553333"><ele>426.0</ele><time>2026-04-11T07:38:56.998Z</time></trkpt><trkpt lat="43.4061117" lon="11.4552467"><ele>426.0</ele><time>2026-04-11T07:38:57.998Z</time></trkpt><trkpt lat="43.4061317" lon="11.4551517"><ele>425.99999999999994</ele><time>2026-04-11T07:38:58.998Z</time></trkpt><trkpt lat="43.40615" lon="11.4550583"><ele>426.0</ele><time>2026-04-11T07:38:59.998Z</time></trkpt><trkpt lat="43.4061667" lon="11.45496"><ele>425.3333333333333</ele><time>2026-04-11T07:39:00.998Z</time></trkpt><trkpt lat="43.40619" lon="11.4548667"><ele>424.66666666666663</ele><time>2026-04-11T07:39:01.998Z</time></trkpt><trkpt lat="43.4062233" lon="11.454775"><ele>424.0</ele><time>2026-04-11T07:39:02.999Z</time></trkpt><trkpt lat="43.4062583" lon="11.4546917"><ele>423.3333333333333</ele><time>2026-04-11T07:39:03.998Z</time></trkpt><trkpt lat="43.406305" lon="11.4546083"><ele>422.66666666666663</ele><time>2026-04-11T07:39:04.998Z</time></trkpt><trkpt lat="43.4063567" lon="11.45452"><ele>422.0</ele><time>2026-04-11T07:39:05.998Z</time></trkpt><trkpt lat="43.406405" lon="11.4544283"><ele>420.3333333333333</ele><time>2026-04-11T07:39:06.998Z</time></trkpt><trkpt lat="43.4064517" lon="11.45433"><ele>418.66666666666663</ele><time>2026-04-11T07:39:07.998Z</time></trkpt><trkpt lat="43.4064867" lon="11.4542283"><ele>417.0</ele><time>2026-04-11T07:39:08.999Z</time></trkpt><trkpt lat="43.406515" lon="11.4541267"><ele>415.33333333333337</ele><time>2026-04-11T07:39:09.998Z</time></trkpt><trkpt lat="43.4065383" lon="11.4540117"><ele>413.6666666666667</ele><time>2026-04-11T07:39:10.999Z</time></trkpt><trkpt lat="43.4065533" lon="11.4539"><ele>412.0</ele><time>2026-04-11T07:39:11.998Z</time></trkpt><trkpt lat="43.4065517" lon="11.4537883"><ele>411.99999999999994</ele><time>2026-04-11T07:39:12.999Z</time></trkpt><trkpt lat="43.406545" lon="11.4536817"><ele>412.0</ele><time>2026-04-11T07:39:13.998Z</time></trkpt><trkpt lat="43.4065267" lon="11.4535767"><ele>412.0</ele><time>2026-04-11T07:39:14.998Z</time></trkpt><trkpt lat="43.4065017" lon="11.4534817"><ele>412.0</ele><time>2026-04-11T07:39:15.998Z</time></trkpt><trkpt lat="43.4064783" lon="11.45339"><ele>412.0</ele><time>2026-04-11T07:39:16.998Z</time></trkpt><trkpt lat="43.40646" lon="11.453295"><ele>411.99999999999994</ele><time>2026-04-11T07:39:17.998Z</time></trkpt><trkpt lat="43.4064483" lon="11.4532"><ele>412.0</ele><time>2026-04-11T07:39:18.999Z</time></trkpt><trkpt lat="43.4064417" lon="11.4531067"><ele>411.99999999999994</ele><time>2026-04-11T07:39:19.998Z</time></trkpt><trkpt lat="43.4064467" lon="11.45301"><ele>412.0</ele><time>2026-04-11T07:39:20.998Z</time></trkpt><trkpt lat="43.4064583" lon="11.4529217"><ele>412.0</ele><time>2026-04-11T07:39:21.999Z</time></trkpt><trkpt lat="43.4064733" lon="11.4528317"><ele>412.0</ele><time>2026-04-11T07:39:22.998Z</time></trkpt><trkpt lat="43.4064867" lon="11.4527367"><ele>412.0</ele><time>2026-04-11T07:39:23.998Z</time></trkpt><trkpt lat="43.4064967" lon="11.4526417"><ele>411.99999999999994</ele><time>2026-04-11T07:39:24.998Z</time></trkpt><trkpt lat="43.4065033" lon="11.4525467"><ele>412.0</ele><time>2026-04-11T07:39:25.998Z</time></trkpt><trkpt lat="43.40651" lon="11.4524467"><ele>411.50000000000006</ele><time>2026-04-11T07:39:26.998Z</time></trkpt><trkpt lat="43.4065167" lon="11.452345"><ele>411.0</ele><time>2026-04-11T07:39:27.998Z</time></trkpt><trkpt lat="43.4065183" lon="11.4522383"><ele>410.5</ele><time>2026-04-11T07:39:28.998Z</time></trkpt><trkpt lat="43.406515" lon="11.4521317"><ele>410.0</ele><time>2026-04-11T07:39:29.998Z</time></trkpt><trkpt lat="43.4064983" lon="11.4520267"><ele>409.50000000000006</ele><time>2026-04-11T07:39:30.998Z</time></trkpt><trkpt lat="43.4064733" lon="11.451925"><ele>409.0</ele><time>2026-04-11T07:39:31.998Z</time></trkpt><trkpt lat="43.4064383" lon="11.45183"><ele>409.2857142857143</ele><time>2026-04-11T07:39:32.998Z</time></trkpt><trkpt lat="43.4064" lon="11.451745"><ele>409.5714285714286</ele><time>2026-04-11T07:39:33.998Z</time></trkpt><trkpt lat="43.4063667" lon="11.4516667"><ele>409.8571428571429</ele><time>2026-04-11T07:39:34.998Z</time></trkpt><trkpt lat="43.4063283" lon="11.4515917"><ele>410.1428571428571</ele><time>2026-04-11T07:39:35.998Z</time></trkpt><trkpt lat="43.40629" lon="11.451515"><ele>410.42857142857144</ele><time>2026-04-11T07:39:36.998Z</time></trkpt><trkpt lat="43.4062533" lon="11.4514367"><ele>410.7142857142857</ele><time>2026-04-11T07:39:37.999Z</time></trkpt><trkpt lat="43.406215" lon="11.4513633"><ele>411.0</ele><time>2026-04-11T07:39:38.999Z</time></trkpt><trkpt lat="43.406175" lon="11.4512933"><ele>411.0</ele><time>2026-04-11T07:39:39.998Z</time></trkpt><trkpt lat="43.4060983" lon="11.4511433"><ele>411.0</ele><time>2026-04-11T07:39:41.999Z</time></trkpt><trkpt lat="43.4060567" lon="11.4510633"><ele>411.0</ele><time>2026-04-11T07:39:42.999Z</time></trkpt><trkpt lat="43.4060167" lon="11.4509767"><ele>411.0</ele><time>2026-04-11T07:39:43.998Z</time></trkpt><trkpt lat="43.4059833" lon="11.4508933"><ele>411.0</ele><time>2026-04-11T07:39:44.998Z</time></trkpt><trkpt lat="43.40595" lon="11.4508017"><ele>411.0</ele><time>2026-04-11T07:39:45.998Z</time></trkpt><trkpt lat="43.405925" lon="11.45071"><ele>411.0</ele><time>2026-04-11T07:39:46.998Z</time></trkpt><trkpt lat="43.4059033" lon="11.4506183"><ele>411.0</ele><time>2026-04-11T07:39:47.998Z</time></trkpt><trkpt lat="43.40589" lon="11.4505217"><ele>411.0</ele><time>2026-04-11T07:39:48.998Z</time></trkpt><trkpt lat="43.40587" lon="11.4504333"><ele>411.0</ele><time>2026-04-11T07:39:49.998Z</time></trkpt><trkpt lat="43.4058417" lon="11.4503433"><ele>411.0</ele><time>2026-04-11T07:39:50.998Z</time></trkpt><trkpt lat="43.4058067" lon="11.45025"><ele>411.0</ele><time>2026-04-11T07:39:51.998Z</time></trkpt><trkpt lat="43.4057767" lon="11.45016"><ele>411.0</ele><time>2026-04-11T07:39:52.998Z</time></trkpt><trkpt lat="43.40574" lon="11.4500667"><ele>410.5</ele><time>2026-04-11T07:39:53.998Z</time></trkpt><trkpt lat="43.4057" lon="11.4499767"><ele>410.0</ele><time>2026-04-11T07:39:54.998Z</time></trkpt><trkpt lat="43.4056517" lon="11.4498783"><ele>409.5</ele><time>2026-04-11T07:39:55.998Z</time></trkpt><trkpt lat="43.4056" lon="11.4497817"><ele>409.0</ele><time>2026-04-11T07:39:56.998Z</time></trkpt><trkpt lat="43.4055483" lon="11.44969"><ele>408.5</ele><time>2026-04-11T07:39:57.998Z</time></trkpt><trkpt lat="43.405495" lon="11.4496017"><ele>408.0</ele><time>2026-04-11T07:39:58.998Z</time></trkpt><trkpt lat="43.4054433" lon="11.4495083"><ele>406.8333333333333</ele><time>2026-04-11T07:39:59.998Z</time></trkpt><trkpt lat="43.4053883" lon="11.4494233"><ele>405.66666666666663</ele><time>2026-04-11T07:40:00.998Z</time></trkpt><trkpt lat="43.405335" lon="11.4493333"><ele>404.5</ele><time>2026-04-11T07:40:01.999Z</time></trkpt><trkpt lat="43.40528" lon="11.449245"><ele>403.3333333333333</ele><time>2026-04-11T07:40:02.998Z</time></trkpt><trkpt lat="43.40523" lon="11.449155"><ele>402.16666666666663</ele><time>2026-04-11T07:40:03.998Z</time></trkpt><trkpt lat="43.40518" lon="11.4490733"><ele>401.0</ele><time>2026-04-11T07:40:04.998Z</time></trkpt><trkpt lat="43.4051367" lon="11.448995"><ele>401.0</ele><time>2026-04-11T07:40:05.998Z</time></trkpt><trkpt lat="43.4050867" lon="11.4489133"><ele>401.0</ele><time>2026-04-11T07:40:06.998Z</time></trkpt><trkpt lat="43.4050383" lon="11.4488267"><ele>401.0</ele><time>2026-04-11T07:40:07.998Z</time></trkpt><trkpt lat="43.4049883" lon="11.448745"><ele>401.0</ele><time>2026-04-11T07:40:08.998Z</time></trkpt><trkpt lat="43.4049433" lon="11.4486717"><ele>401.0</ele><time>2026-04-11T07:40:09.998Z</time></trkpt><trkpt lat="43.4048983" lon="11.4485967"><ele>401.0</ele><time>2026-04-11T07:40:10.998Z</time></trkpt><trkpt lat="43.4048433" lon="11.448535"><ele>401.0</ele><time>2026-04-11T07:40:11.998Z</time></trkpt><trkpt lat="43.40479" lon="11.4484867"><ele>400.7142857142857</ele><time>2026-04-11T07:40:12.998Z</time></trkpt><trkpt lat="43.4047317" lon="11.448435"><ele>400.42857142857144</ele><time>2026-04-11T07:40:13.998Z</time></trkpt><trkpt lat="43.4046717" lon="11.4483833"><ele>400.1428571428571</ele><time>2026-04-11T07:40:14.998Z</time></trkpt><trkpt lat="43.40461" lon="11.4483367"><ele>399.8571428571429</ele><time>2026-04-11T07:40:15.998Z</time></trkpt><trkpt lat="43.4045467" lon="11.44829"><ele>399.57142857142856</ele><time>2026-04-11T07:40:16.998Z</time></trkpt><trkpt lat="43.4044817" lon="11.4482433"><ele>399.2857142857143</ele><time>2026-04-11T07:40:17.998Z</time></trkpt><trkpt lat="43.4044183" lon="11.448195"><ele>399.0</ele><time>2026-04-11T07:40:18.998Z</time></trkpt><trkpt lat="43.40435" lon="11.4481467"><ele>398.85714285714283</ele><time>2026-04-11T07:40:19.998Z</time></trkpt><trkpt lat="43.4042833" lon="11.4480983"><ele>398.7142857142857</ele><time>2026-04-11T07:40:20.998Z</time></trkpt><trkpt lat="43.4042117" lon="11.4480467"><ele>398.57142857142856</ele><time>2026-04-11T07:40:21.998Z</time></trkpt><trkpt lat="43.4041467" lon="11.448"><ele>398.42857142857144</ele><time>2026-04-11T07:40:22.998Z</time></trkpt><trkpt lat="43.4040867" lon="11.4479567"><ele>398.2857142857143</ele><time>2026-04-11T07:40:23.998Z</time></trkpt><trkpt lat="43.4040267" lon="11.4479167"><ele>398.1428571428571</ele><time>2026-04-11T07:40:24.998Z</time></trkpt><trkpt lat="43.4039667" lon="11.4478833"><ele>398.0</ele><time>2026-04-11T07:40:25.999Z</time></trkpt><trkpt lat="43.4039067" lon="11.4478533"><ele>398.16666666666663</ele><time>2026-04-11T07:40:26.998Z</time></trkpt><trkpt lat="43.403845" lon="11.4478233"><ele>398.3333333333333</ele><time>2026-04-11T07:40:27.998Z</time></trkpt><trkpt lat="43.4037817" lon="11.4477917"><ele>398.5</ele><time>2026-04-11T07:40:28.998Z</time></trkpt><trkpt lat="43.403715" lon="11.4477683"><ele>398.66666666666663</ele><time>2026-04-11T07:40:29.998Z</time></trkpt><trkpt lat="43.4035983" lon="11.4477233"><ele>398.8333333333333</ele><time>2026-04-11T07:40:31.998Z</time></trkpt><trkpt lat="43.4035333" lon="11.4476933"><ele>399.0</ele><time>2026-04-11T07:40:32.998Z</time></trkpt><trkpt lat="43.40347" lon="11.4476667"><ele>399.0</ele><time>2026-04-11T07:40:33.998Z</time></trkpt><trkpt lat="43.4034067" lon="11.4476367"><ele>399.0</ele><time>2026-04-11T07:40:34.998Z</time></trkpt><trkpt lat="43.40334" lon="11.4476"><ele>399.0</ele><time>2026-04-11T07:40:35.999Z</time></trkpt><trkpt lat="43.4032767" lon="11.4475633"><ele>399.0</ele><time>2026-04-11T07:40:36.998Z</time></trkpt><trkpt lat="43.4032167" lon="11.4475283"><ele>399.0</ele><time>2026-04-11T07:40:37.998Z</time></trkpt><trkpt lat="43.4031533" lon="11.4474933"><ele>399.0</ele><time>2026-04-11T07:40:38.998Z</time></trkpt><trkpt lat="43.403085" lon="11.4474567"><ele>399.0</ele><time>2026-04-11T07:40:39.998Z</time></trkpt><trkpt lat="43.4030217" lon="11.44742"><ele>397.85714285714283</ele><time>2026-04-11T07:40:40.998Z</time></trkpt><trkpt lat="43.402955" lon="11.447385"><ele>396.7142857142857</ele><time>2026-04-11T07:40:41.998Z</time></trkpt><trkpt lat="43.4028833" lon="11.4473483"><ele>395.57142857142856</ele><time>2026-04-11T07:40:42.998Z</time></trkpt><trkpt lat="43.4028217" lon="11.4473033"><ele>394.42857142857144</ele><time>2026-04-11T07:40:43.998Z</time></trkpt><trkpt lat="43.4027617" lon="11.447265"><ele>393.2857142857143</ele><time>2026-04-11T07:40:44.998Z</time></trkpt><trkpt lat="43.4026983" lon="11.4472217"><ele>392.1428571428571</ele><time>2026-04-11T07:40:45.998Z</time></trkpt><trkpt lat="43.4026317" lon="11.4471833"><ele>391.0</ele><time>2026-04-11T07:40:46.998Z</time></trkpt><trkpt lat="43.402555" lon="11.447145"><ele>390.57142857142856</ele><time>2026-04-11T07:40:47.998Z</time></trkpt><trkpt lat="43.40248" lon="11.4471067"><ele>390.1428571428571</ele><time>2026-04-11T07:40:48.998Z</time></trkpt><trkpt lat="43.4024133" lon="11.4470633"><ele>389.71428571428567</ele><time>2026-04-11T07:40:49.998Z</time></trkpt><trkpt lat="43.402345" lon="11.447025"><ele>389.2857142857143</ele><time>2026-04-11T07:40:50.998Z</time></trkpt><trkpt lat="43.4022833" lon="11.4469733"><ele>388.8571428571429</ele><time>2026-04-11T07:40:51.998Z</time></trkpt><trkpt lat="43.4022233" lon="11.4469283"><ele>388.4285714285714</ele><time>2026-04-11T07:40:52.998Z</time></trkpt><trkpt lat="43.40216" lon="11.44688"><ele>388.0</ele><time>2026-04-11T07:40:53.998Z</time></trkpt><trkpt lat="43.4020917" lon="11.4468267"><ele>388.0</ele><time>2026-04-11T07:40:54.998Z</time></trkpt><trkpt lat="43.4020217" lon="11.4467717"><ele>388.0</ele><time>2026-04-11T07:40:55.998Z</time></trkpt><trkpt lat="43.401945" lon="11.4467033"><ele>388.0</ele><time>2026-04-11T07:40:56.998Z</time></trkpt><trkpt lat="43.4018683" lon="11.4466267"><ele>388.0</ele><time>2026-04-11T07:40:57.998Z</time></trkpt><trkpt lat="43.4017917" lon="11.4465483"><ele>388.0</ele><time>2026-04-11T07:40:58.998Z</time></trkpt><trkpt lat="43.4017217" lon="11.44647"><ele>388.0</ele><time>2026-04-11T07:40:59.997Z</time></trkpt><trkpt lat="43.4016567" lon="11.44639"><ele>388.0</ele><time>2026-04-11T07:41:00.998Z</time></trkpt><trkpt lat="43.40159" lon="11.4463133"><ele>388.0</ele><time>2026-04-11T07:41:01.998Z</time></trkpt><trkpt lat="43.4015167" lon="11.4462283"><ele>388.0</ele><time>2026-04-11T07:41:02.999Z</time></trkpt><trkpt lat="43.4014483" lon="11.446145"><ele>388.0</ele><time>2026-04-11T07:41:03.998Z</time></trkpt><trkpt lat="43.4013817" lon="11.4460533"><ele>387.0</ele><time>2026-04-11T07:41:04.998Z</time></trkpt><trkpt lat="43.40132" lon="11.4459567"><ele>386.0</ele><time>2026-04-11T07:41:05.998Z</time></trkpt><trkpt lat="43.4012667" lon="11.4458617"><ele>385.0</ele><time>2026-04-11T07:41:06.998Z</time></trkpt><trkpt lat="43.4012117" lon="11.4457567"><ele>384.0</ele><time>2026-04-11T07:41:07.998Z</time></trkpt><trkpt lat="43.4011533" lon="11.4456583"><ele>383.0</ele><time>2026-04-11T07:41:08.998Z</time></trkpt><trkpt lat="43.4010867" lon="11.445565"><ele>383.0</ele><time>2026-04-11T07:41:09.998Z</time></trkpt><trkpt lat="43.4010267" lon="11.4454783"><ele>383.0</ele><time>2026-04-11T07:41:10.998Z</time></trkpt><trkpt lat="43.4009717" lon="11.4453817"><ele>383.0</ele><time>2026-04-11T07:41:11.999Z</time></trkpt><trkpt lat="43.40091" lon="11.445285"><ele>383.0</ele><time>2026-04-11T07:41:12.998Z</time></trkpt><trkpt lat="43.4008483" lon="11.4451933"><ele>383.0</ele><time>2026-04-11T07:41:13.998Z</time></trkpt><trkpt lat="43.4007833" lon="11.4450967"><ele>382.79999999999995</ele><time>2026-04-11T07:41:14.999Z</time></trkpt><trkpt lat="43.4007167" lon="11.4450017"><ele>382.6</ele><time>2026-04-11T07:41:15.998Z</time></trkpt><trkpt lat="43.4006483" lon="11.44491"><ele>382.4</ele><time>2026-04-11T07:41:16.998Z</time></trkpt><trkpt lat="43.4005733" lon="11.4448167"><ele>382.20000000000005</ele><time>2026-04-11T07:41:17.998Z</time></trkpt><trkpt lat="43.4005" lon="11.4447183"><ele>382.0</ele><time>2026-04-11T07:41:18.998Z</time></trkpt><trkpt lat="43.4004283" lon="11.44462"><ele>381.0</ele><time>2026-04-11T07:41:19.998Z</time></trkpt><trkpt lat="43.4003567" lon="11.4445217"><ele>380.0</ele><time>2026-04-11T07:41:20.998Z</time></trkpt><trkpt lat="43.40028" lon="11.4444217"><ele>379.0</ele><time>2026-04-11T07:41:21.998Z</time></trkpt><trkpt lat="43.400205" lon="11.4443267"><ele>378.0</ele><time>2026-04-11T07:41:22.998Z</time></trkpt><trkpt lat="43.4001283" lon="11.4442367"><ele>377.0</ele><time>2026-04-11T07:41:23.998Z</time></trkpt><trkpt lat="43.4000533" lon="11.4441483"><ele>377.0</ele><time>2026-04-11T07:41:24.998Z</time></trkpt><trkpt lat="43.3999833" lon="11.444055"><ele>377.0</ele><time>2026-04-11T07:41:25.998Z</time></trkpt><trkpt lat="43.3999117" lon="11.4439617"><ele>377.0</ele><time>2026-04-11T07:41:26.999Z</time></trkpt><trkpt lat="43.3998433" lon="11.44388"><ele>377.0</ele><time>2026-04-11T07:41:27.998Z</time></trkpt><trkpt lat="43.3997717" lon="11.4437967"><ele>377.0</ele><time>2026-04-11T07:41:28.998Z</time></trkpt><trkpt lat="43.3996967" lon="11.4437317"><ele>376.83333333333337</ele><time>2026-04-11T07:41:29.998Z</time></trkpt><trkpt lat="43.3996167" lon="11.4436917"><ele>376.6666666666667</ele><time>2026-04-11T07:41:30.998Z</time></trkpt><trkpt lat="43.39954" lon="11.4436533"><ele>376.5</ele><time>2026-04-11T07:41:31.998Z</time></trkpt><trkpt lat="43.399465" lon="11.443625"><ele>376.3333333333333</ele><time>2026-04-11T07:41:32.998Z</time></trkpt><trkpt lat="43.39939" lon="11.4435883"><ele>376.16666666666663</ele><time>2026-04-11T07:41:33.998Z</time></trkpt><trkpt lat="43.399325" lon="11.4435517"><ele>376.0</ele><time>2026-04-11T07:41:34.998Z</time></trkpt><trkpt lat="43.3992617" lon="11.4435183"><ele>376.0</ele><time>2026-04-11T07:41:35.998Z</time></trkpt><trkpt lat="43.3991967" lon="11.4434867"><ele>376.0</ele><time>2026-04-11T07:41:36.999Z</time></trkpt><trkpt lat="43.3991283" lon="11.4434683"><ele>376.0</ele><time>2026-04-11T07:41:37.998Z</time></trkpt><trkpt lat="43.3990583" lon="11.443455"><ele>376.0</ele><time>2026-04-11T07:41:38.998Z</time></trkpt><trkpt lat="43.39899" lon="11.4434483"><ele>376.0</ele><time>2026-04-11T07:41:39.998Z</time></trkpt><trkpt lat="43.3988633" lon="11.4434467"><ele>376.0</ele><time>2026-04-11T07:41:41.998Z</time></trkpt><trkpt lat="43.3988" lon="11.4434683"><ele>376.0</ele><time>2026-04-11T07:41:42.998Z</time></trkpt><trkpt lat="43.398735" lon="11.4434817"><ele>376.0</ele><time>2026-04-11T07:41:43.998Z</time></trkpt><trkpt lat="43.3986633" lon="11.44349"><ele>376.0</ele><time>2026-04-11T07:41:44.998Z</time></trkpt><trkpt lat="43.3985967" lon="11.4435033"><ele>376.0</ele><time>2026-04-11T07:41:45.998Z</time></trkpt><trkpt lat="43.3985333" lon="11.4435167"><ele>376.0</ele><time>2026-04-11T07:41:46.998Z</time></trkpt><trkpt lat="43.398465" lon="11.4435317"><ele>376.0</ele><time>2026-04-11T07:41:47.998Z</time></trkpt><trkpt lat="43.3984017" lon="11.4435433"><ele>376.0</ele><time>2026-04-11T07:41:48.999Z</time></trkpt><trkpt lat="43.3982767" lon="11.4435767"><ele>376.0</ele><time>2026-04-11T07:41:50.998Z</time></trkpt><trkpt lat="43.3982133" lon="11.4435817"><ele>376.0</ele><time>2026-04-11T07:41:51.998Z</time></trkpt><trkpt lat="43.3981467" lon="11.4435933"><ele>376.0</ele><time>2026-04-11T07:41:52.999Z</time></trkpt><trkpt lat="43.3980767" lon="11.4436083"><ele>376.0</ele><time>2026-04-11T07:41:53.998Z</time></trkpt><trkpt lat="43.3980033" lon="11.4436267"><ele>376.0</ele><time>2026-04-11T07:41:54.998Z</time></trkpt><trkpt lat="43.3979333" lon="11.443635"><ele>376.0</ele><time>2026-04-11T07:41:55.998Z</time></trkpt><trkpt lat="43.3978617" lon="11.44363"><ele>376.0</ele><time>2026-04-11T07:41:56.999Z</time></trkpt><trkpt lat="43.3977917" lon="11.4436033"><ele>375.5</ele><time>2026-04-11T07:41:57.998Z</time></trkpt><trkpt lat="43.3977183" lon="11.4435733"><ele>375.0</ele><time>2026-04-11T07:41:58.998Z</time></trkpt><trkpt lat="43.397645" lon="11.4435467"><ele>374.5</ele><time>2026-04-11T07:41:59.998Z</time></trkpt><trkpt lat="43.3975683" lon="11.44352"><ele>374.0</ele><time>2026-04-11T07:42:00.998Z</time></trkpt><trkpt lat="43.397495" lon="11.4434883"><ele>373.5</ele><time>2026-04-11T07:42:01.998Z</time></trkpt><trkpt lat="43.3974183" lon="11.44346"><ele>373.0</ele><time>2026-04-11T07:42:02.998Z</time></trkpt><trkpt lat="43.3973417" lon="11.4434317"><ele>373.0</ele><time>2026-04-11T07:42:03.998Z</time></trkpt><trkpt lat="43.397265" lon="11.4434067"><ele>373.0</ele><time>2026-04-11T07:42:04.998Z</time></trkpt><trkpt lat="43.3971883" lon="11.443375"><ele>373.0</ele><time>2026-04-11T07:42:05.998Z</time></trkpt><trkpt lat="43.39711" lon="11.44334"><ele>373.0</ele><time>2026-04-11T07:42:06.998Z</time></trkpt><trkpt lat="43.3970283" lon="11.4433083"><ele>373.0</ele><time>2026-04-11T07:42:07.998Z</time></trkpt><trkpt lat="43.3969467" lon="11.443275"><ele>373.0</ele><time>2026-04-11T07:42:08.998Z</time></trkpt><trkpt lat="43.3968617" lon="11.44324"><ele>372.66666666666663</ele><time>2026-04-11T07:42:09.999Z</time></trkpt><trkpt lat="43.396775" lon="11.4432067"><ele>372.3333333333333</ele><time>2026-04-11T07:42:10.998Z</time></trkpt><trkpt lat="43.39669" lon="11.4431767"><ele>372.0</ele><time>2026-04-11T07:42:11.998Z</time></trkpt><trkpt lat="43.39661" lon="11.4431433"><ele>371.6666666666667</ele><time>2026-04-11T07:42:12.998Z</time></trkpt><trkpt lat="43.3965283" lon="11.4431117"><ele>371.33333333333337</ele><time>2026-04-11T07:42:13.998Z</time></trkpt><trkpt lat="43.3964533" lon="11.4430817"><ele>371.0</ele><time>2026-04-11T07:42:14.998Z</time></trkpt><trkpt lat="43.396375" lon="11.4430567"><ele>370.33333333333337</ele><time>2026-04-11T07:42:15.998Z</time></trkpt><trkpt lat="43.3962867" lon="11.4430267"><ele>369.6666666666667</ele><time>2026-04-11T07:42:16.998Z</time></trkpt><trkpt lat="43.3962067" lon="11.442995"><ele>369.0</ele><time>2026-04-11T07:42:17.998Z</time></trkpt><trkpt lat="43.39613" lon="11.4429633"><ele>368.3333333333333</ele><time>2026-04-11T07:42:18.999Z</time></trkpt><trkpt lat="43.39605" lon="11.44293"><ele>367.66666666666663</ele><time>2026-04-11T07:42:19.998Z</time></trkpt><trkpt lat="43.3959717" lon="11.442895"><ele>367.0</ele><time>2026-04-11T07:42:20.998Z</time></trkpt><trkpt lat="43.3958933" lon="11.4428633"><ele>367.0</ele><time>2026-04-11T07:42:21.998Z</time></trkpt><trkpt lat="43.3958083" lon="11.4428317"><ele>367.0</ele><time>2026-04-11T07:42:22.998Z</time></trkpt><trkpt lat="43.3957283" lon="11.4428"><ele>367.0</ele><time>2026-04-11T07:42:23.998Z</time></trkpt><trkpt lat="43.3956533" lon="11.44277"><ele>367.0</ele><time>2026-04-11T07:42:24.998Z</time></trkpt><trkpt lat="43.39557" lon="11.4427433"><ele>367.0</ele><time>2026-04-11T07:42:25.998Z</time></trkpt><trkpt lat="43.3954917" lon="11.4427233"><ele>367.0</ele><time>2026-04-11T07:42:26.998Z</time></trkpt><trkpt lat="43.3954117" lon="11.4427017"><ele>367.16666666666663</ele><time>2026-04-11T07:42:27.998Z</time></trkpt><trkpt lat="43.395335" lon="11.44268"><ele>367.3333333333333</ele><time>2026-04-11T07:42:28.998Z</time></trkpt><trkpt lat="43.395255" lon="11.44267"><ele>367.5</ele><time>2026-04-11T07:42:29.998Z</time></trkpt><trkpt lat="43.39518" lon="11.442665"><ele>367.6666666666667</ele><time>2026-04-11T07:42:30.998Z</time></trkpt><trkpt lat="43.39511" lon="11.4426667"><ele>367.83333333333337</ele><time>2026-04-11T07:42:31.998Z</time></trkpt><trkpt lat="43.3949867" lon="11.4426783"><ele>368.0</ele><time>2026-04-11T07:42:33.998Z</time></trkpt><trkpt lat="43.3949233" lon="11.442685"><ele>368.0</ele><time>2026-04-11T07:42:34.998Z</time></trkpt><trkpt lat="43.394815" lon="11.4426967"><ele>368.0</ele><time>2026-04-11T07:42:36.998Z</time></trkpt><trkpt lat="43.394725" lon="11.4427083"><ele>368.0</ele><time>2026-04-11T07:42:38.998Z</time></trkpt><trkpt lat="43.394635" lon="11.4427117"><ele>368.0</ele><time>2026-04-11T07:42:40.998Z</time></trkpt><trkpt lat="43.394535" lon="11.442715"><ele>368.0</ele><time>2026-04-11T07:42:42.998Z</time></trkpt><trkpt lat="43.3944367" lon="11.4426983"><ele>368.0</ele><time>2026-04-11T07:42:44.999Z</time></trkpt><trkpt lat="43.39434" lon="11.442685"><ele>368.0</ele><time>2026-04-11T07:42:46.998Z</time></trkpt><trkpt lat="43.394245" lon="11.44267"><ele>368.0</ele><time>2026-04-11T07:42:48.998Z</time></trkpt><trkpt lat="43.3941467" lon="11.4426583"><ele>368.0</ele><time>2026-04-11T07:42:50.998Z</time></trkpt><trkpt lat="43.394035" lon="11.4426433"><ele>368.0</ele><time>2026-04-11T07:42:52.998Z</time></trkpt><trkpt lat="43.3939283" lon="11.442625"><ele>368.0</ele><time>2026-04-11T07:42:54.998Z</time></trkpt><trkpt lat="43.393815" lon="11.4426083"><ele>368.0</ele><time>2026-04-11T07:42:56.998Z</time></trkpt><trkpt lat="43.3937" lon="11.4425867"><ele>368.0</ele><time>2026-04-11T07:42:58.998Z</time></trkpt><trkpt lat="43.3936383" lon="11.442565"><ele>368.0</ele><time>2026-04-11T07:42:59.998Z</time></trkpt><trkpt lat="43.3935233" lon="11.4425267"><ele>368.0</ele><time>2026-04-11T07:43:01.998Z</time></trkpt><trkpt lat="43.3934133" lon="11.4424717"><ele>368.0</ele><time>2026-04-11T07:43:03.998Z</time></trkpt><trkpt lat="43.3933517" lon="11.4424417"><ele>368.0</ele><time>2026-04-11T07:43:04.998Z</time></trkpt><trkpt lat="43.3932383" lon="11.4423833"><ele>368.0</ele><time>2026-04-11T07:43:06.999Z</time></trkpt><trkpt lat="43.393125" lon="11.4423467"><ele>368.0</ele><time>2026-04-11T07:43:08.998Z</time></trkpt><trkpt lat="43.3930133" lon="11.4423167"><ele>368.0</ele><time>2026-04-11T07:43:10.999Z</time></trkpt><trkpt lat="43.3929" lon="11.4422983"><ele>368.2</ele><time>2026-04-11T07:43:12.998Z</time></trkpt><trkpt lat="43.392795" lon="11.4423"><ele>368.4</ele><time>2026-04-11T07:43:14.998Z</time></trkpt><trkpt lat="43.392685" lon="11.4423233"><ele>368.59999999999997</ele><time>2026-04-11T07:43:16.998Z</time></trkpt><trkpt lat="43.3925833" lon="11.442345"><ele>368.79999999999995</ele><time>2026-04-11T07:43:18.998Z</time></trkpt><trkpt lat="43.392475" lon="11.4423833"><ele>369.0</ele><time>2026-04-11T07:43:20.998Z</time></trkpt><trkpt lat="43.392365" lon="11.4424317"><ele>369.0</ele><time>2026-04-11T07:43:22.999Z</time></trkpt><trkpt lat="43.39226" lon="11.442485"><ele>369.0</ele><time>2026-04-11T07:43:24.999Z</time></trkpt><trkpt lat="43.3921617" lon="11.4425517"><ele>369.0</ele><time>2026-04-11T07:43:26.998Z</time></trkpt><trkpt lat="43.3920567" lon="11.4426167"><ele>369.0</ele><time>2026-04-11T07:43:28.999Z</time></trkpt><trkpt lat="43.392" lon="11.4426567"><ele>369.0</ele><time>2026-04-11T07:43:29.999Z</time></trkpt><trkpt lat="43.3919017" lon="11.4427267"><ele>368.4</ele><time>2026-04-11T07:43:31.998Z</time></trkpt><trkpt lat="43.3917933" lon="11.4427967"><ele>367.79999999999995</ele><time>2026-04-11T07:43:33.998Z</time></trkpt><trkpt lat="43.3916833" lon="11.4428317"><ele>367.20000000000005</ele><time>2026-04-11T07:43:35.999Z</time></trkpt><trkpt lat="43.3915833" lon="11.44285"><ele>366.6</ele><time>2026-04-11T07:43:37.999Z</time></trkpt><trkpt lat="43.39148" lon="11.442855"><ele>366.0</ele><time>2026-04-11T07:43:39.998Z</time></trkpt><trkpt lat="43.3913817" lon="11.4428533"><ele>366.5</ele><time>2026-04-11T07:43:41.999Z</time></trkpt><trkpt lat="43.3912767" lon="11.4428567"><ele>367.0</ele><time>2026-04-11T07:43:43.999Z</time></trkpt><trkpt lat="43.3911667" lon="11.4428733"><ele>367.5</ele><time>2026-04-11T07:43:45.998Z</time></trkpt><trkpt lat="43.39105" lon="11.442895"><ele>368.0</ele><time>2026-04-11T07:43:47.998Z</time></trkpt><trkpt lat="43.3909333" lon="11.4429067"><ele>368.0</ele><time>2026-04-11T07:43:49.998Z</time></trkpt><trkpt lat="43.3908183" lon="11.4429283"><ele>368.0</ele><time>2026-04-11T07:43:51.998Z</time></trkpt><trkpt lat="43.3906967" lon="11.4429583"><ele>368.0</ele><time>2026-04-11T07:43:53.998Z</time></trkpt><trkpt lat="43.3905833" lon="11.4429683"><ele>368.0</ele><time>2026-04-11T07:43:55.998Z</time></trkpt><trkpt lat="43.390475" lon="11.4429567"><ele>367.4</ele><time>2026-04-11T07:43:57.998Z</time></trkpt><trkpt lat="43.3903733" lon="11.4429383"><ele>366.79999999999995</ele><time>2026-04-11T07:43:59.998Z</time></trkpt><trkpt lat="43.390265" lon="11.4429283"><ele>366.2</ele><time>2026-04-11T07:44:01.999Z</time></trkpt><trkpt lat="43.3901533" lon="11.442915"><ele>365.6</ele><time>2026-04-11T07:44:03.998Z</time></trkpt><trkpt lat="43.39009" lon="11.442905"><ele>365.0</ele><time>2026-04-11T07:44:04.998Z</time></trkpt><trkpt lat="43.389965" lon="11.4428667"><ele>365.0</ele><time>2026-04-11T07:44:06.998Z</time></trkpt><trkpt lat="43.3899" lon="11.4428283"><ele>365.0</ele><time>2026-04-11T07:44:07.999Z</time></trkpt><trkpt lat="43.389835" lon="11.4427767"><ele>365.0</ele><time>2026-04-11T07:44:08.996Z</time></trkpt><trkpt lat="43.3897817" lon="11.4427067"><ele>365.0</ele><time>2026-04-11T07:44:09.998Z</time></trkpt><trkpt lat="43.3897383" lon="11.4426083"><ele>365.0</ele><time>2026-04-11T07:44:10.998Z</time></trkpt><trkpt lat="43.3896967" lon="11.4425083"><ele>365.0</ele><time>2026-04-11T07:44:11.998Z</time></trkpt><trkpt lat="43.389665" lon="11.44242"><ele>363.8571428571429</ele><time>2026-04-11T07:44:12.998Z</time></trkpt><trkpt lat="43.3896333" lon="11.442335"><ele>362.7142857142857</ele><time>2026-04-11T07:44:13.998Z</time></trkpt><trkpt lat="43.389595" lon="11.44226"><ele>361.57142857142856</ele><time>2026-04-11T07:44:14.998Z</time></trkpt><trkpt lat="43.3895467" lon="11.4421817"><ele>360.42857142857144</ele><time>2026-04-11T07:44:15.998Z</time></trkpt><trkpt lat="43.389495" lon="11.4420967"><ele>359.2857142857143</ele><time>2026-04-11T07:44:16.998Z</time></trkpt><trkpt lat="43.38945" lon="11.44202"><ele>358.14285714285717</ele><time>2026-04-11T07:44:17.998Z</time></trkpt><trkpt lat="43.38941" lon="11.4419467"><ele>357.0</ele><time>2026-04-11T07:44:18.998Z</time></trkpt><trkpt lat="43.3893683" lon="11.4418783"><ele>357.0</ele><time>2026-04-11T07:44:19.998Z</time></trkpt><trkpt lat="43.3893183" lon="11.44181"><ele>357.0</ele><time>2026-04-11T07:44:20.999Z</time></trkpt><trkpt lat="43.3892733" lon="11.4417417"><ele>357.0</ele><time>2026-04-11T07:44:21.998Z</time></trkpt><trkpt lat="43.3892267" lon="11.44167"><ele>357.0</ele><time>2026-04-11T07:44:22.998Z</time></trkpt><trkpt lat="43.3891817" lon="11.4415967"><ele>357.0</ele><time>2026-04-11T07:44:23.998Z</time></trkpt><trkpt lat="43.3891333" lon="11.4415183"><ele>357.0</ele><time>2026-04-11T07:44:24.998Z</time></trkpt><trkpt lat="43.3890867" lon="11.441445"><ele>357.0</ele><time>2026-04-11T07:44:25.998Z</time></trkpt><trkpt lat="43.389035" lon="11.441375"><ele>356.5</ele><time>2026-04-11T07:44:26.998Z</time></trkpt><trkpt lat="43.3889817" lon="11.4412967"><ele>356.0</ele><time>2026-04-11T07:44:27.998Z</time></trkpt><trkpt lat="43.38893" lon="11.441215"><ele>355.5</ele><time>2026-04-11T07:44:28.999Z</time></trkpt><trkpt lat="43.388875" lon="11.4411367"><ele>355.0</ele><time>2026-04-11T07:44:29.998Z</time></trkpt><trkpt lat="43.3888183" lon="11.4410567"><ele>354.5</ele><time>2026-04-11T07:44:30.998Z</time></trkpt><trkpt lat="43.3887567" lon="11.4409817"><ele>354.0</ele><time>2026-04-11T07:44:31.998Z</time></trkpt><trkpt lat="43.3887" lon="11.4409117"><ele>354.0</ele><time>2026-04-11T07:44:32.999Z</time></trkpt><trkpt lat="43.388635" lon="11.4408367"><ele>354.0</ele><time>2026-04-11T07:44:33.998Z</time></trkpt><trkpt lat="43.38857" lon="11.4407667"><ele>354.0</ele><time>2026-04-11T07:44:34.998Z</time></trkpt><trkpt lat="43.388505" lon="11.4407017"><ele>354.0</ele><time>2026-04-11T07:44:35.998Z</time></trkpt><trkpt lat="43.3884367" lon="11.4406267"><ele>354.0</ele><time>2026-04-11T07:44:36.999Z</time></trkpt><trkpt lat="43.38837" lon="11.440535"><ele>354.0</ele><time>2026-04-11T07:44:37.998Z</time></trkpt><trkpt lat="43.3883033" lon="11.4404483"><ele>352.4</ele><time>2026-04-11T07:44:38.998Z</time></trkpt><trkpt lat="43.388235" lon="11.440355"><ele>350.79999999999995</ele><time>2026-04-11T07:44:39.998Z</time></trkpt><trkpt lat="43.3881667" lon="11.4402567"><ele>349.20000000000005</ele><time>2026-04-11T07:44:40.998Z</time></trkpt><trkpt lat="43.3880983" lon="11.44016"><ele>347.6</ele><time>2026-04-11T07:44:41.998Z</time></trkpt><trkpt lat="43.3880283" lon="11.4400567"><ele>346.0</ele><time>2026-04-11T07:44:42.999Z</time></trkpt><trkpt lat="43.3879583" lon="11.4399467"><ele>346.0</ele><time>2026-04-11T07:44:43.998Z</time></trkpt><trkpt lat="43.3878883" lon="11.4398283"><ele>346.0</ele><time>2026-04-11T07:44:44.998Z</time></trkpt><trkpt lat="43.3878217" lon="11.439705"><ele>346.0</ele><time>2026-04-11T07:44:45.998Z</time></trkpt><trkpt lat="43.3877617" lon="11.4395817"><ele>346.0</ele><time>2026-04-11T07:44:46.999Z</time></trkpt><trkpt lat="43.387695" lon="11.4394533"><ele>346.0</ele><time>2026-04-11T07:44:47.999Z</time></trkpt><trkpt lat="43.3876233" lon="11.439325"><ele>345.20000000000005</ele><time>2026-04-11T07:44:48.998Z</time></trkpt><trkpt lat="43.38755" lon="11.4392017"><ele>344.40000000000003</ele><time>2026-04-11T07:44:49.999Z</time></trkpt><trkpt lat="43.387475" lon="11.4390867"><ele>343.6</ele><time>2026-04-11T07:44:50.998Z</time></trkpt><trkpt lat="43.3874017" lon="11.4389717"><ele>342.8</ele><time>2026-04-11T07:44:51.998Z</time></trkpt><trkpt lat="43.3873333" lon="11.43886"><ele>342.0</ele><time>2026-04-11T07:44:52.998Z</time></trkpt><trkpt lat="43.387265" lon="11.43875"><ele>342.20000000000005</ele><time>2026-04-11T07:44:53.998Z</time></trkpt><trkpt lat="43.3872067" lon="11.4386417"><ele>342.4</ele><time>2026-04-11T07:44:54.998Z</time></trkpt><trkpt lat="43.3871583" lon="11.43853"><ele>342.6</ele><time>2026-04-11T07:44:55.999Z</time></trkpt><trkpt lat="43.3871167" lon="11.43842"><ele>342.79999999999995</ele><time>2026-04-11T07:44:56.998Z</time></trkpt><trkpt lat="43.3870817" lon="11.438305"><ele>343.0</ele><time>2026-04-11T07:44:57.998Z</time></trkpt><trkpt lat="43.3870533" lon="11.4381933"><ele>343.0</ele><time>2026-04-11T07:44:58.998Z</time></trkpt><trkpt lat="43.3870283" lon="11.438085"><ele>343.0</ele><time>2026-04-11T07:44:59.998Z</time></trkpt><trkpt lat="43.387" lon="11.4379783"><ele>343.0</ele><time>2026-04-11T07:45:00.998Z</time></trkpt><trkpt lat="43.3869733" lon="11.4378767"><ele>343.0</ele><time>2026-04-11T07:45:01.999Z</time></trkpt><trkpt lat="43.3869483" lon="11.43778"><ele>343.0</ele><time>2026-04-11T07:45:02.998Z</time></trkpt><trkpt lat="43.3869233" lon="11.4376817"><ele>343.0</ele><time>2026-04-11T07:45:03.998Z</time></trkpt><trkpt lat="43.3868967" lon="11.4375817"><ele>343.14285714285717</ele><time>2026-04-11T07:45:04.998Z</time></trkpt><trkpt lat="43.386875" lon="11.4374867"><ele>343.2857142857143</ele><time>2026-04-11T07:45:05.998Z</time></trkpt><trkpt lat="43.3868517" lon="11.4373867"><ele>343.42857142857144</ele><time>2026-04-11T07:45:06.999Z</time></trkpt><trkpt lat="43.386825" lon="11.4372917"><ele>343.57142857142856</ele><time>2026-04-11T07:45:07.999Z</time></trkpt><trkpt lat="43.386795" lon="11.4372"><ele>343.7142857142857</ele><time>2026-04-11T07:45:08.999Z</time></trkpt><trkpt lat="43.3867533" lon="11.437115"><ele>343.8571428571429</ele><time>2026-04-11T07:45:09.999Z</time></trkpt><trkpt lat="43.38671" lon="11.4370333"><ele>344.0</ele><time>2026-04-11T07:45:10.998Z</time></trkpt><trkpt lat="43.3866583" lon="11.436965"><ele>343.28571428571433</ele><time>2026-04-11T07:45:11.998Z</time></trkpt><trkpt lat="43.3866117" lon="11.4369017"><ele>342.57142857142856</ele><time>2026-04-11T07:45:12.998Z</time></trkpt><trkpt lat="43.3865633" lon="11.4368417"><ele>341.8571428571429</ele><time>2026-04-11T07:45:13.999Z</time></trkpt><trkpt lat="43.386505" lon="11.4367767"><ele>341.14285714285717</ele><time>2026-04-11T07:45:14.998Z</time></trkpt><trkpt lat="43.3864533" lon="11.4367117"><ele>340.42857142857144</ele><time>2026-04-11T07:45:15.998Z</time></trkpt><trkpt lat="43.3864" lon="11.4366533"><ele>339.7142857142857</ele><time>2026-04-11T07:45:16.999Z</time></trkpt><trkpt lat="43.386345" lon="11.4365917"><ele>339.0</ele><time>2026-04-11T07:45:17.998Z</time></trkpt><trkpt lat="43.3862883" lon="11.4365267"><ele>339.0</ele><time>2026-04-11T07:45:18.998Z</time></trkpt><trkpt lat="43.38623" lon="11.4364617"><ele>339.0</ele><time>2026-04-11T07:45:19.998Z</time></trkpt><trkpt lat="43.3861733" lon="11.4364"><ele>339.0</ele><time>2026-04-11T07:45:20.998Z</time></trkpt><trkpt lat="43.3861267" lon="11.4363383"><ele>339.0</ele><time>2026-04-11T07:45:21.998Z</time></trkpt><trkpt lat="43.38608" lon="11.436275"><ele>339.0</ele><time>2026-04-11T07:45:22.998Z</time></trkpt><trkpt lat="43.3860333" lon="11.4362167"><ele>339.0</ele><time>2026-04-11T07:45:23.998Z</time></trkpt><trkpt lat="43.3859783" lon="11.436155"><ele>339.0</ele><time>2026-04-11T07:45:24.998Z</time></trkpt><trkpt lat="43.38589" lon="11.4360333"><ele>338.5</ele><time>2026-04-11T07:45:26.998Z</time></trkpt><trkpt lat="43.3857967" lon="11.4359217"><ele>338.0</ele><time>2026-04-11T07:45:28.998Z</time></trkpt><trkpt lat="43.3857367" lon="11.4358683"><ele>337.5</ele><time>2026-04-11T07:45:29.998Z</time></trkpt><trkpt lat="43.3856733" lon="11.4358183"><ele>337.0</ele><time>2026-04-11T07:45:30.999Z</time></trkpt><trkpt lat="43.385605" lon="11.4357667"><ele>336.5</ele><time>2026-04-11T07:45:31.998Z</time></trkpt><trkpt lat="43.385535" lon="11.4357067"><ele>336.0</ele><time>2026-04-11T07:45:32.998Z</time></trkpt><trkpt lat="43.38547" lon="11.4356467"><ele>335.0</ele><time>2026-04-11T07:45:33.998Z</time></trkpt><trkpt lat="43.385395" lon="11.4355817"><ele>334.0</ele><time>2026-04-11T07:45:34.998Z</time></trkpt><trkpt lat="43.3853167" lon="11.4355167"><ele>333.0</ele><time>2026-04-11T07:45:35.998Z</time></trkpt><trkpt lat="43.3852417" lon="11.4354483"><ele>332.0</ele><time>2026-04-11T07:45:36.998Z</time></trkpt><trkpt lat="43.3851533" lon="11.4353833"><ele>331.0</ele><time>2026-04-11T07:45:37.998Z</time></trkpt><trkpt lat="43.3850667" lon="11.4353133"><ele>330.6</ele><time>2026-04-11T07:45:38.998Z</time></trkpt><trkpt lat="43.384975" lon="11.4352533"><ele>330.20000000000005</ele><time>2026-04-11T07:45:39.999Z</time></trkpt><trkpt lat="43.3848767" lon="11.4352033"><ele>329.79999999999995</ele><time>2026-04-11T07:45:40.998Z</time></trkpt><trkpt lat="43.3847733" lon="11.435175"><ele>329.4</ele><time>2026-04-11T07:45:41.998Z</time></trkpt><trkpt lat="43.3846767" lon="11.435145"><ele>329.0</ele><time>2026-04-11T07:45:42.999Z</time></trkpt><trkpt lat="43.3845767" lon="11.435125"><ele>328.2</ele><time>2026-04-11T07:45:43.998Z</time></trkpt><trkpt lat="43.384475" lon="11.4351017"><ele>327.4</ele><time>2026-04-11T07:45:44.999Z</time></trkpt><trkpt lat="43.384375" lon="11.435075"><ele>326.6</ele><time>2026-04-11T07:45:45.999Z</time></trkpt><trkpt lat="43.3842767" lon="11.4350483"><ele>325.8</ele><time>2026-04-11T07:45:46.998Z</time></trkpt><trkpt lat="43.3841767" lon="11.4350267"><ele>325.0</ele><time>2026-04-11T07:45:47.998Z</time></trkpt><trkpt lat="43.384075" lon="11.435005"><ele>325.0</ele><time>2026-04-11T07:45:48.998Z</time></trkpt><trkpt lat="43.383975" lon="11.4349817"><ele>325.0</ele><time>2026-04-11T07:45:49.998Z</time></trkpt><trkpt lat="43.3838783" lon="11.4349483"><ele>325.0</ele><time>2026-04-11T07:45:50.999Z</time></trkpt><trkpt lat="43.38378" lon="11.4349167"><ele>325.0</ele><time>2026-04-11T07:45:51.998Z</time></trkpt><trkpt lat="43.3836817" lon="11.4348817"><ele>325.0</ele><time>2026-04-11T07:45:52.998Z</time></trkpt><trkpt lat="43.383585" lon="11.4348317"><ele>324.8</ele><time>2026-04-11T07:45:53.998Z</time></trkpt><trkpt lat="43.383495" lon="11.43478"><ele>324.6</ele><time>2026-04-11T07:45:54.998Z</time></trkpt><trkpt lat="43.38341" lon="11.43473"><ele>324.4</ele><time>2026-04-11T07:45:55.998Z</time></trkpt><trkpt lat="43.383325" lon="11.4346767"><ele>324.2</ele><time>2026-04-11T07:45:56.998Z</time></trkpt><trkpt lat="43.3832467" lon="11.43462"><ele>324.0</ele><time>2026-04-11T07:45:57.998Z</time></trkpt><trkpt lat="43.3831783" lon="11.4345633"><ele>324.42857142857144</ele><time>2026-04-11T07:45:58.998Z</time></trkpt><trkpt lat="43.383115" lon="11.4344983"><ele>324.85714285714283</ele><time>2026-04-11T07:45:59.998Z</time></trkpt><trkpt lat="43.3830533" lon="11.4344333"><ele>325.2857142857143</ele><time>2026-04-11T07:46:00.998Z</time></trkpt><trkpt lat="43.382995" lon="11.4343717"><ele>325.7142857142857</ele><time>2026-04-11T07:46:01.998Z</time></trkpt><trkpt lat="43.382935" lon="11.4343133"><ele>326.14285714285717</ele><time>2026-04-11T07:46:02.998Z</time></trkpt><trkpt lat="43.3828783" lon="11.4342633"><ele>326.57142857142856</ele><time>2026-04-11T07:46:03.998Z</time></trkpt><trkpt lat="43.38282" lon="11.4342183"><ele>327.0</ele><time>2026-04-11T07:46:04.998Z</time></trkpt><trkpt lat="43.3827617" lon="11.43418"><ele>327.0</ele><time>2026-04-11T07:46:05.998Z</time></trkpt><trkpt lat="43.3826483" lon="11.4341233"><ele>327.0</ele><time>2026-04-11T07:46:07.998Z</time></trkpt><trkpt lat="43.38254" lon="11.4340867"><ele>327.0</ele><time>2026-04-11T07:46:09.998Z</time></trkpt><trkpt lat="43.3824483" lon="11.434065"><ele>327.0</ele><time>2026-04-11T07:46:11.999Z</time></trkpt><trkpt lat="43.3823667" lon="11.4340417"><ele>327.0</ele><time>2026-04-11T07:46:13.999Z</time></trkpt><trkpt lat="43.382285" lon="11.434025"><ele>327.0</ele><time>2026-04-11T07:46:15.998Z</time></trkpt><trkpt lat="43.3822033" lon="11.434015"><ele>327.0</ele><time>2026-04-11T07:46:17.998Z</time></trkpt><trkpt lat="43.3821133" lon="11.4340017"><ele>327.0</ele><time>2026-04-11T07:46:19.998Z</time></trkpt><trkpt lat="43.38203" lon="11.4339983"><ele>327.0</ele><time>2026-04-11T07:46:21.998Z</time></trkpt><trkpt lat="43.381945" lon="11.4339933"><ele>327.0</ele><time>2026-04-11T07:46:23.998Z</time></trkpt><trkpt lat="43.38186" lon="11.4339733"><ele>327.0</ele><time>2026-04-11T07:46:25.998Z</time></trkpt><trkpt lat="43.3817683" lon="11.433955"><ele>326.6</ele><time>2026-04-11T07:46:27.998Z</time></trkpt><trkpt lat="43.381675" lon="11.4339167"><ele>326.20000000000005</ele><time>2026-04-11T07:46:29.999Z</time></trkpt><trkpt lat="43.38158" lon="11.433855"><ele>325.8</ele><time>2026-04-11T07:46:31.998Z</time></trkpt><trkpt lat="43.38149" lon="11.4338017"><ele>325.4</ele><time>2026-04-11T07:46:33.999Z</time></trkpt><trkpt lat="43.381395" lon="11.4337433"><ele>325.0</ele><time>2026-04-11T07:46:35.999Z</time></trkpt><trkpt lat="43.3812817" lon="11.4336683"><ele>323.66666666666663</ele><time>2026-04-11T07:46:37.998Z</time></trkpt><trkpt lat="43.381175" lon="11.4335833"><ele>322.3333333333333</ele><time>2026-04-11T07:46:39.999Z</time></trkpt><trkpt lat="43.38112" lon="11.4335367"><ele>321.0</ele><time>2026-04-11T07:46:40.998Z</time></trkpt><trkpt lat="43.3810567" lon="11.4334817"><ele>319.6666666666667</ele><time>2026-04-11T07:46:41.998Z</time></trkpt><trkpt lat="43.3809983" lon="11.4334267"><ele>318.33333333333337</ele><time>2026-04-11T07:46:42.998Z</time></trkpt><trkpt lat="43.3809433" lon="11.43336"><ele>317.0</ele><time>2026-04-11T07:46:43.998Z</time></trkpt><trkpt lat="43.3808917" lon="11.4332867"><ele>317.0</ele><time>2026-04-11T07:46:44.998Z</time></trkpt><trkpt lat="43.3808367" lon="11.4332117"><ele>317.0</ele><time>2026-04-11T07:46:45.998Z</time></trkpt><trkpt lat="43.3807917" lon="11.4331333"><ele>317.0</ele><time>2026-04-11T07:46:46.998Z</time></trkpt><trkpt lat="43.3807517" lon="11.4330567"><ele>317.0</ele><time>2026-04-11T07:46:47.999Z</time></trkpt><trkpt lat="43.38071" lon="11.432975"><ele>317.0</ele><time>2026-04-11T07:46:48.999Z</time></trkpt><trkpt lat="43.3806633" lon="11.432895"><ele>317.0</ele><time>2026-04-11T07:46:49.998Z</time></trkpt><trkpt lat="43.3806133" lon="11.4328233"><ele>317.0</ele><time>2026-04-11T07:46:50.998Z</time></trkpt><trkpt lat="43.380555" lon="11.432765"><ele>317.8</ele><time>2026-04-11T07:46:51.998Z</time></trkpt><trkpt lat="43.3804367" lon="11.4327033"><ele>318.6</ele><time>2026-04-11T07:46:53.998Z</time></trkpt><trkpt lat="43.380375" lon="11.43268"><ele>319.40000000000003</ele><time>2026-04-11T07:46:54.998Z</time></trkpt><trkpt lat="43.3802633" lon="11.4326367"><ele>320.2</ele><time>2026-04-11T07:46:56.998Z</time></trkpt><trkpt lat="43.3801633" lon="11.43261"><ele>321.0</ele><time>2026-04-11T07:46:58.998Z</time></trkpt><trkpt lat="43.3800633" lon="11.4325967"><ele>321.0</ele><time>2026-04-11T07:47:00.999Z</time></trkpt><trkpt lat="43.3799567" lon="11.4325917"><ele>321.0</ele><time>2026-04-11T07:47:02.998Z</time></trkpt><trkpt lat="43.379845" lon="11.4325783"><ele>321.0</ele><time>2026-04-11T07:47:04.998Z</time></trkpt><trkpt lat="43.3797367" lon="11.43255"><ele>321.0</ele><time>2026-04-11T07:47:06.998Z</time></trkpt><trkpt lat="43.3796367" lon="11.4325183"><ele>321.0</ele><time>2026-04-11T07:47:08.998Z</time></trkpt><trkpt lat="43.3795383" lon="11.43248"><ele>320.40000000000003</ele><time>2026-04-11T07:47:10.998Z</time></trkpt><trkpt lat="43.37944" lon="11.4324367"><ele>319.8</ele><time>2026-04-11T07:47:12.998Z</time></trkpt><trkpt lat="43.3793467" lon="11.4323917"><ele>319.20000000000005</ele><time>2026-04-11T07:47:14.998Z</time></trkpt><trkpt lat="43.3792533" lon="11.4323383"><ele>318.6</ele><time>2026-04-11T07:47:16.999Z</time></trkpt><trkpt lat="43.3791633" lon="11.4322933"><ele>318.0</ele><time>2026-04-11T07:47:18.998Z</time></trkpt><trkpt lat="43.37907" lon="11.432255"><ele>318.0</ele><time>2026-04-11T07:47:20.998Z</time></trkpt><trkpt lat="43.37897" lon="11.4322067"><ele>318.0</ele><time>2026-04-11T07:47:22.998Z</time></trkpt><trkpt lat="43.3788667" lon="11.4321517"><ele>318.0</ele><time>2026-04-11T07:47:24.999Z</time></trkpt><trkpt lat="43.3787717" lon="11.4321067"><ele>318.0</ele><time>2026-04-11T07:47:26.998Z</time></trkpt><trkpt lat="43.37868" lon="11.4320683"><ele>318.0</ele><time>2026-04-11T07:47:28.998Z</time></trkpt><trkpt lat="43.3785833" lon="11.4320133"><ele>317.8</ele><time>2026-04-11T07:47:30.998Z</time></trkpt><trkpt lat="43.378475" lon="11.4319667"><ele>317.6</ele><time>2026-04-11T07:47:32.998Z</time></trkpt><trkpt lat="43.3783783" lon="11.431915"><ele>317.4</ele><time>2026-04-11T07:47:34.998Z</time></trkpt><trkpt lat="43.3782783" lon="11.4318667"><ele>317.2</ele><time>2026-04-11T07:47:36.998Z</time></trkpt><trkpt lat="43.3781833" lon="11.4318133"><ele>317.0</ele><time>2026-04-11T07:47:38.999Z</time></trkpt><trkpt lat="43.378085" lon="11.431765"><ele>317.4</ele><time>2026-04-11T07:47:40.999Z</time></trkpt><trkpt lat="43.37799" lon="11.4317183"><ele>317.79999999999995</ele><time>2026-04-11T07:47:42.998Z</time></trkpt><trkpt lat="43.3779017" lon="11.4316717"><ele>318.2</ele><time>2026-04-11T07:47:44.998Z</time></trkpt><trkpt lat="43.37781" lon="11.4316267"><ele>318.59999999999997</ele><time>2026-04-11T07:47:46.999Z</time></trkpt><trkpt lat="43.377715" lon="11.4315717"><ele>319.0</ele><time>2026-04-11T07:47:48.998Z</time></trkpt><trkpt lat="43.3776217" lon="11.4315217"><ele>319.0</ele><time>2026-04-11T07:47:50.998Z</time></trkpt><trkpt lat="43.3775217" lon="11.4314783"><ele>319.0</ele><time>2026-04-11T07:47:52.998Z</time></trkpt><trkpt lat="43.377415" lon="11.431435"><ele>319.0</ele><time>2026-04-11T07:47:54.998Z</time></trkpt><trkpt lat="43.3773083" lon="11.431395"><ele>319.0</ele><time>2026-04-11T07:47:56.998Z</time></trkpt><trkpt lat="43.3771967" lon="11.4313683"><ele>319.0</ele><time>2026-04-11T07:47:58.998Z</time></trkpt><trkpt lat="43.37713" lon="11.4313583"><ele>318.4</ele><time>2026-04-11T07:47:59.998Z</time></trkpt><trkpt lat="43.377065" lon="11.43135"><ele>317.79999999999995</ele><time>2026-04-11T07:48:00.998Z</time></trkpt><trkpt lat="43.3769383" lon="11.4313367"><ele>317.20000000000005</ele><time>2026-04-11T07:48:02.998Z</time></trkpt><trkpt lat="43.37687" lon="11.4313267"><ele>316.6</ele><time>2026-04-11T07:48:03.998Z</time></trkpt><trkpt lat="43.3767467" lon="11.4313083"><ele>316.0</ele><time>2026-04-11T07:48:05.999Z</time></trkpt><trkpt lat="43.3766783" lon="11.4313"><ele>315.5</ele><time>2026-04-11T07:48:06.999Z</time></trkpt><trkpt lat="43.3766083" lon="11.4312883"><ele>315.0</ele><time>2026-04-11T07:48:07.998Z</time></trkpt><trkpt lat="43.3765367" lon="11.4312767"><ele>314.5</ele><time>2026-04-11T07:48:08.998Z</time></trkpt><trkpt lat="43.3764633" lon="11.43127"><ele>314.0</ele><time>2026-04-11T07:48:09.998Z</time></trkpt><trkpt lat="43.3763867" lon="11.4312683"><ele>313.5</ele><time>2026-04-11T07:48:10.999Z</time></trkpt><trkpt lat="43.376305" lon="11.431255"><ele>313.0</ele><time>2026-04-11T07:48:11.998Z</time></trkpt><trkpt lat="43.3762167" lon="11.431245"><ele>313.0</ele><time>2026-04-11T07:48:12.998Z</time></trkpt><trkpt lat="43.3761267" lon="11.4312233"><ele>313.0</ele><time>2026-04-11T07:48:13.998Z</time></trkpt><trkpt lat="43.3760383" lon="11.4312067"><ele>313.0</ele><time>2026-04-11T07:48:14.998Z</time></trkpt><trkpt lat="43.3759517" lon="11.4311833"><ele>313.0</ele><time>2026-04-11T07:48:15.998Z</time></trkpt><trkpt lat="43.3758583" lon="11.431155"><ele>313.0</ele><time>2026-04-11T07:48:16.998Z</time></trkpt><trkpt lat="43.3757667" lon="11.4311217"><ele>313.0</ele><time>2026-04-11T07:48:17.998Z</time></trkpt><trkpt lat="43.3756767" lon="11.4310683"><ele>313.0</ele><time>2026-04-11T07:48:18.998Z</time></trkpt><trkpt lat="43.3755833" lon="11.4310017"><ele>313.0</ele><time>2026-04-11T07:48:19.998Z</time></trkpt><trkpt lat="43.3754917" lon="11.4309367"><ele>313.0</ele><time>2026-04-11T07:48:20.998Z</time></trkpt><trkpt lat="43.3753983" lon="11.430865"><ele>313.0</ele><time>2026-04-11T07:48:21.998Z</time></trkpt><trkpt lat="43.3753067" lon="11.4307883"><ele>311.2</ele><time>2026-04-11T07:48:22.998Z</time></trkpt><trkpt lat="43.375215" lon="11.43072"><ele>309.4</ele><time>2026-04-11T07:48:23.998Z</time></trkpt><trkpt lat="43.37512" lon="11.430655"><ele>307.59999999999997</ele><time>2026-04-11T07:48:24.998Z</time></trkpt><trkpt lat="43.37503" lon="11.4305917"><ele>305.8</ele><time>2026-04-11T07:48:25.998Z</time></trkpt><trkpt lat="43.3749417" lon="11.4305417"><ele>304.0</ele><time>2026-04-11T07:48:26.998Z</time></trkpt><trkpt lat="43.3748533" lon="11.4304983"><ele>304.16666666666663</ele><time>2026-04-11T07:48:27.998Z</time></trkpt><trkpt lat="43.3747633" lon="11.4304617"><ele>304.3333333333333</ele><time>2026-04-11T07:48:28.998Z</time></trkpt><trkpt lat="43.374675" lon="11.4304333"><ele>304.5</ele><time>2026-04-11T07:48:29.998Z</time></trkpt><trkpt lat="43.37459" lon="11.4304067"><ele>304.6666666666667</ele><time>2026-04-11T07:48:30.998Z</time></trkpt><trkpt lat="43.37451" lon="11.4303783"><ele>304.83333333333337</ele><time>2026-04-11T07:48:31.998Z</time></trkpt><trkpt lat="43.3744333" lon="11.4303517"><ele>305.0</ele><time>2026-04-11T07:48:32.998Z</time></trkpt><trkpt lat="43.374355" lon="11.43032"><ele>305.0</ele><time>2026-04-11T07:48:33.998Z</time></trkpt><trkpt lat="43.3742717" lon="11.4302933"><ele>305.0</ele><time>2026-04-11T07:48:34.998Z</time></trkpt><trkpt lat="43.3741933" lon="11.4302667"><ele>305.0</ele><time>2026-04-11T07:48:35.998Z</time></trkpt><trkpt lat="43.37411" lon="11.43024"><ele>305.0</ele><time>2026-04-11T07:48:36.998Z</time></trkpt><trkpt lat="43.37403" lon="11.43021"><ele>305.0</ele><time>2026-04-11T07:48:37.998Z</time></trkpt><trkpt lat="43.3739483" lon="11.4301883"><ele>305.0</ele><time>2026-04-11T07:48:38.998Z</time></trkpt><trkpt lat="43.3738667" lon="11.4301667"><ele>304.8</ele><time>2026-04-11T07:48:39.998Z</time></trkpt><trkpt lat="43.37378" lon="11.430135"><ele>304.6</ele><time>2026-04-11T07:48:40.998Z</time></trkpt><trkpt lat="43.3737" lon="11.4300983"><ele>304.4</ele><time>2026-04-11T07:48:41.998Z</time></trkpt><trkpt lat="43.3736133" lon="11.4300567"><ele>304.2</ele><time>2026-04-11T07:48:42.998Z</time></trkpt><trkpt lat="43.373525" lon="11.4300217"><ele>304.0</ele><time>2026-04-11T07:48:43.999Z</time></trkpt><trkpt lat="43.3734367" lon="11.4299783"><ele>304.0</ele><time>2026-04-11T07:48:44.998Z</time></trkpt><trkpt lat="43.3733483" lon="11.4299233"><ele>304.0</ele><time>2026-04-11T07:48:45.998Z</time></trkpt><trkpt lat="43.3732667" lon="11.4298783"><ele>304.0</ele><time>2026-04-11T07:48:46.998Z</time></trkpt><trkpt lat="43.3731883" lon="11.4298267"><ele>304.0</ele><time>2026-04-11T07:48:47.998Z</time></trkpt><trkpt lat="43.3731083" lon="11.4297817"><ele>304.0</ele><time>2026-04-11T07:48:48.998Z</time></trkpt><trkpt lat="43.37303" lon="11.4297267"><ele>304.0</ele><time>2026-04-11T07:48:49.998Z</time></trkpt><trkpt lat="43.3729467" lon="11.4296683"><ele>302.59999999999997</ele><time>2026-04-11T07:48:50.998Z</time></trkpt><trkpt lat="43.372865" lon="11.4296133"><ele>301.2</ele><time>2026-04-11T07:48:51.998Z</time></trkpt><trkpt lat="43.3727817" lon="11.4295617"><ele>299.79999999999995</ele><time>2026-04-11T07:48:52.998Z</time></trkpt><trkpt lat="43.3726967" lon="11.429505"><ele>298.4</ele><time>2026-04-11T07:48:53.998Z</time></trkpt><trkpt lat="43.37261" lon="11.4294583"><ele>297.0</ele><time>2026-04-11T07:48:54.998Z</time></trkpt><trkpt lat="43.3725267" lon="11.4294133"><ele>297.0</ele><time>2026-04-11T07:48:55.998Z</time></trkpt><trkpt lat="43.372445" lon="11.4293767"><ele>297.0</ele><time>2026-04-11T07:48:56.998Z</time></trkpt><trkpt lat="43.372365" lon="11.4293383"><ele>297.0</ele><time>2026-04-11T07:48:57.999Z</time></trkpt><trkpt lat="43.3722833" lon="11.4292833"><ele>297.0</ele><time>2026-04-11T07:48:58.998Z</time></trkpt><trkpt lat="43.3722" lon="11.42924"><ele>297.0</ele><time>2026-04-11T07:48:59.998Z</time></trkpt><trkpt lat="43.37212" lon="11.4291983"><ele>297.0</ele><time>2026-04-11T07:49:00.998Z</time></trkpt><trkpt lat="43.372035" lon="11.4291583"><ele>296.3333333333333</ele><time>2026-04-11T07:49:01.998Z</time></trkpt><trkpt lat="43.371955" lon="11.4291183"><ele>295.6666666666667</ele><time>2026-04-11T07:49:02.998Z</time></trkpt><trkpt lat="43.3718767" lon="11.42907"><ele>295.0</ele><time>2026-04-11T07:49:03.998Z</time></trkpt><trkpt lat="43.3718017" lon="11.429025"><ele>294.33333333333337</ele><time>2026-04-11T07:49:04.998Z</time></trkpt><trkpt lat="43.3717283" lon="11.428975"><ele>293.6666666666667</ele><time>2026-04-11T07:49:05.998Z</time></trkpt><trkpt lat="43.371655" lon="11.4289333"><ele>293.0</ele><time>2026-04-11T07:49:06.998Z</time></trkpt><trkpt lat="43.3715767" lon="11.4288933"><ele>293.0</ele><time>2026-04-11T07:49:07.998Z</time></trkpt><trkpt lat="43.3714917" lon="11.4288533"><ele>293.0</ele><time>2026-04-11T07:49:08.998Z</time></trkpt><trkpt lat="43.3714133" lon="11.4288167"><ele>293.0</ele><time>2026-04-11T07:49:09.998Z</time></trkpt><trkpt lat="43.3713367" lon="11.4287917"><ele>293.0</ele><time>2026-04-11T07:49:10.998Z</time></trkpt><trkpt lat="43.37126" lon="11.4287667"><ele>293.0</ele><time>2026-04-11T07:49:11.998Z</time></trkpt><trkpt lat="43.3711867" lon="11.428745"><ele>293.0</ele><time>2026-04-11T07:49:12.998Z</time></trkpt><trkpt lat="43.3711117" lon="11.4287167"><ele>293.1666666666667</ele><time>2026-04-11T07:49:13.998Z</time></trkpt><trkpt lat="43.3710367" lon="11.4286983"><ele>293.33333333333337</ele><time>2026-04-11T07:49:14.998Z</time></trkpt><trkpt lat="43.3709617" lon="11.4286833"><ele>293.5</ele><time>2026-04-11T07:49:15.998Z</time></trkpt><trkpt lat="43.3708817" lon="11.4286667"><ele>293.6666666666667</ele><time>2026-04-11T07:49:16.998Z</time></trkpt><trkpt lat="43.3708067" lon="11.42865"><ele>293.8333333333333</ele><time>2026-04-11T07:49:17.998Z</time></trkpt><trkpt lat="43.3707333" lon="11.4286383"><ele>294.0</ele><time>2026-04-11T07:49:18.999Z</time></trkpt><trkpt lat="43.370655" lon="11.4286267"><ele>294.0</ele><time>2026-04-11T07:49:19.998Z</time></trkpt><trkpt lat="43.37058" lon="11.4286117"><ele>294.0</ele><time>2026-04-11T07:49:20.998Z</time></trkpt><trkpt lat="43.370505" lon="11.4286"><ele>294.0</ele><time>2026-04-11T07:49:21.998Z</time></trkpt><trkpt lat="43.370425" lon="11.4285867"><ele>294.0</ele><time>2026-04-11T07:49:22.999Z</time></trkpt><trkpt lat="43.370345" lon="11.4285817"><ele>294.0</ele><time>2026-04-11T07:49:23.998Z</time></trkpt><trkpt lat="43.3702567" lon="11.4285767"><ele>294.0</ele><time>2026-04-11T07:49:24.998Z</time></trkpt><trkpt lat="43.3701733" lon="11.428565"><ele>292.8333333333333</ele><time>2026-04-11T07:49:25.998Z</time></trkpt><trkpt lat="43.3700917" lon="11.42855"><ele>291.6666666666667</ele><time>2026-04-11T07:49:26.998Z</time></trkpt><trkpt lat="43.3700067" lon="11.4285367"><ele>290.5</ele><time>2026-04-11T07:49:27.998Z</time></trkpt><trkpt lat="43.36992" lon="11.4285267"><ele>289.33333333333337</ele><time>2026-04-11T07:49:28.998Z</time></trkpt><trkpt lat="43.3698333" lon="11.4285133"><ele>288.1666666666667</ele><time>2026-04-11T07:49:29.998Z</time></trkpt><trkpt lat="43.3697467" lon="11.428505"><ele>287.0</ele><time>2026-04-11T07:49:30.998Z</time></trkpt><trkpt lat="43.36966" lon="11.4284967"><ele>286.1666666666667</ele><time>2026-04-11T07:49:31.998Z</time></trkpt><trkpt lat="43.3695717" lon="11.42849"><ele>285.33333333333337</ele><time>2026-04-11T07:49:32.998Z</time></trkpt><trkpt lat="43.3694817" lon="11.4284817"><ele>284.5</ele><time>2026-04-11T07:49:33.998Z</time></trkpt><trkpt lat="43.3693933" lon="11.428475"><ele>283.6666666666667</ele><time>2026-04-11T07:49:34.999Z</time></trkpt><trkpt lat="43.3693083" lon="11.4284717"><ele>282.8333333333333</ele><time>2026-04-11T07:49:35.998Z</time></trkpt><trkpt lat="43.3692217" lon="11.4284717"><ele>282.0</ele><time>2026-04-11T07:49:36.998Z</time></trkpt><trkpt lat="43.3691383" lon="11.4284683"><ele>282.0</ele><time>2026-04-11T07:49:37.998Z</time></trkpt><trkpt lat="43.3690517" lon="11.4284633"><ele>282.0</ele><time>2026-04-11T07:49:38.998Z</time></trkpt><trkpt lat="43.368965" lon="11.4284583"><ele>282.0</ele><time>2026-04-11T07:49:39.998Z</time></trkpt><trkpt lat="43.3688817" lon="11.4284533"><ele>282.0</ele><time>2026-04-11T07:49:40.998Z</time></trkpt><trkpt lat="43.3688" lon="11.4284383"><ele>282.0</ele><time>2026-04-11T07:49:41.998Z</time></trkpt><trkpt lat="43.368725" lon="11.4284017"><ele>282.0</ele><time>2026-04-11T07:49:42.998Z</time></trkpt><trkpt lat="43.368645" lon="11.4283617"><ele>282.3333333333333</ele><time>2026-04-11T07:49:43.998Z</time></trkpt><trkpt lat="43.36857" lon="11.4283133"><ele>282.6666666666667</ele><time>2026-04-11T07:49:44.998Z</time></trkpt><trkpt lat="43.3685033" lon="11.428265"><ele>283.0</ele><time>2026-04-11T07:49:45.998Z</time></trkpt><trkpt lat="43.368435" lon="11.42821"><ele>283.33333333333337</ele><time>2026-04-11T07:49:46.998Z</time></trkpt><trkpt lat="43.3683617" lon="11.428145"><ele>283.6666666666667</ele><time>2026-04-11T07:49:47.998Z</time></trkpt><trkpt lat="43.3683" lon="11.428075"><ele>284.0</ele><time>2026-04-11T07:49:48.998Z</time></trkpt><trkpt lat="43.3682417" lon="11.427995"><ele>283.83333333333337</ele><time>2026-04-11T07:49:49.998Z</time></trkpt><trkpt lat="43.368185" lon="11.427905"><ele>283.6666666666667</ele><time>2026-04-11T07:49:50.998Z</time></trkpt><trkpt lat="43.36814" lon="11.427815"><ele>283.5</ele><time>2026-04-11T07:49:51.998Z</time></trkpt><trkpt lat="43.3681" lon="11.4277183"><ele>283.3333333333333</ele><time>2026-04-11T07:49:52.998Z</time></trkpt><trkpt lat="43.36807" lon="11.4276183"><ele>283.16666666666663</ele><time>2026-04-11T07:49:53.998Z</time></trkpt><trkpt lat="43.368045" lon="11.4275183"><ele>283.0</ele><time>2026-04-11T07:49:54.998Z</time></trkpt><trkpt lat="43.36802" lon="11.4274183"><ele>283.0</ele><time>2026-04-11T07:49:55.999Z</time></trkpt><trkpt lat="43.3679933" lon="11.42732"><ele>283.0</ele><time>2026-04-11T07:49:56.998Z</time></trkpt><trkpt lat="43.3679633" lon="11.427225"><ele>283.0</ele><time>2026-04-11T07:49:57.998Z</time></trkpt><trkpt lat="43.3679283" lon="11.427135"><ele>283.0</ele><time>2026-04-11T07:49:58.998Z</time></trkpt><trkpt lat="43.367895" lon="11.4270483"><ele>283.0</ele><time>2026-04-11T07:49:59.998Z</time></trkpt><trkpt lat="43.367855" lon="11.4269717"><ele>283.0</ele><time>2026-04-11T07:50:00.998Z</time></trkpt><trkpt lat="43.3678083" lon="11.42691"><ele>283.0</ele><time>2026-04-11T07:50:01.998Z</time></trkpt><trkpt lat="43.3677133" lon="11.4268183"><ele>283.2</ele><time>2026-04-11T07:50:03.998Z</time></trkpt><trkpt lat="43.36762" lon="11.426755"><ele>283.4</ele><time>2026-04-11T07:50:05.998Z</time></trkpt><trkpt lat="43.36752" lon="11.4267017"><ele>283.59999999999997</ele><time>2026-04-11T07:50:07.998Z</time></trkpt><trkpt lat="43.367415" lon="11.4266467"><ele>283.8</ele><time>2026-04-11T07:50:09.998Z</time></trkpt><trkpt lat="43.367315" lon="11.4266017"><ele>284.0</ele><time>2026-04-11T07:50:11.998Z</time></trkpt><trkpt lat="43.3672133" lon="11.4265567"><ele>285.0</ele><time>2026-04-11T07:50:13.998Z</time></trkpt><trkpt lat="43.367125" lon="11.4265217"><ele>286.0</ele><time>2026-04-11T07:50:15.998Z</time></trkpt><trkpt lat="43.3670383" lon="11.4265067"><ele>287.0</ele><time>2026-04-11T07:50:17.999Z</time></trkpt><trkpt lat="43.3669417" lon="11.426475"><ele>288.0</ele><time>2026-04-11T07:50:19.999Z</time></trkpt><trkpt lat="43.3668533" lon="11.4264283"><ele>289.0</ele><time>2026-04-11T07:50:21.999Z</time></trkpt><trkpt lat="43.3667683" lon="11.426395"><ele>289.0</ele><time>2026-04-11T07:50:23.998Z</time></trkpt><trkpt lat="43.36668" lon="11.4263567"><ele>289.0</ele><time>2026-04-11T07:50:25.998Z</time></trkpt><trkpt lat="43.3665917" lon="11.4263333"><ele>289.0</ele><time>2026-04-11T07:50:27.998Z</time></trkpt><trkpt lat="43.366495" lon="11.42633"><ele>289.0</ele><time>2026-04-11T07:50:29.998Z</time></trkpt><trkpt lat="43.366405" lon="11.42634"><ele>289.0</ele><time>2026-04-11T07:50:31.998Z</time></trkpt><trkpt lat="43.3663067" lon="11.426355"><ele>289.2</ele><time>2026-04-11T07:50:33.998Z</time></trkpt><trkpt lat="43.3662083" lon="11.4263683"><ele>289.4</ele><time>2026-04-11T07:50:35.998Z</time></trkpt><trkpt lat="43.3660883" lon="11.4263767"><ele>289.6</ele><time>2026-04-11T07:50:37.998Z</time></trkpt><trkpt lat="43.3659733" lon="11.4263533"><ele>289.8</ele><time>2026-04-11T07:50:39.999Z</time></trkpt><trkpt lat="43.3659133" lon="11.4263183"><ele>290.0</ele><time>2026-04-11T07:50:40.998Z</time></trkpt><trkpt lat="43.36585" lon="11.4262717"><ele>290.0</ele><time>2026-04-11T07:50:41.998Z</time></trkpt><trkpt lat="43.3657967" lon="11.4262117"><ele>290.0</ele><time>2026-04-11T07:50:42.998Z</time></trkpt><trkpt lat="43.3657433" lon="11.4261483"><ele>290.0</ele><time>2026-04-11T07:50:43.998Z</time></trkpt><trkpt lat="43.36569" lon="11.42608"><ele>290.0</ele><time>2026-04-11T07:50:44.998Z</time></trkpt><trkpt lat="43.3656367" lon="11.4260017"><ele>290.0</ele><time>2026-04-11T07:50:45.998Z</time></trkpt><trkpt lat="43.3655883" lon="11.425925"><ele>290.0</ele><time>2026-04-11T07:50:46.998Z</time></trkpt><trkpt lat="43.3655367" lon="11.4258433"><ele>290.0</ele><time>2026-04-11T07:50:47.998Z</time></trkpt><trkpt lat="43.365475" lon="11.42575"><ele>288.4</ele><time>2026-04-11T07:50:48.998Z</time></trkpt><trkpt lat="43.3654133" lon="11.425655"><ele>286.8</ele><time>2026-04-11T07:50:49.998Z</time></trkpt><trkpt lat="43.3653517" lon="11.425565"><ele>285.2</ele><time>2026-04-11T07:50:50.998Z</time></trkpt><trkpt lat="43.36529" lon="11.4254717"><ele>283.6</ele><time>2026-04-11T07:50:51.998Z</time></trkpt><trkpt lat="43.3652233" lon="11.4253683"><ele>282.0</ele><time>2026-04-11T07:50:52.998Z</time></trkpt><trkpt lat="43.36516" lon="11.425265"><ele>281.8</ele><time>2026-04-11T07:50:53.998Z</time></trkpt><trkpt lat="43.3650867" lon="11.4251517"><ele>281.6</ele><time>2026-04-11T07:50:54.998Z</time></trkpt><trkpt lat="43.36502" lon="11.4250383"><ele>281.40000000000003</ele><time>2026-04-11T07:50:55.998Z</time></trkpt><trkpt lat="43.36495" lon="11.4249233"><ele>281.2</ele><time>2026-04-11T07:50:56.998Z</time></trkpt><trkpt lat="43.364885" lon="11.424805"><ele>281.0</ele><time>2026-04-11T07:50:57.998Z</time></trkpt><trkpt lat="43.3648233" lon="11.4246917"><ele>280.6</ele><time>2026-04-11T07:50:58.998Z</time></trkpt><trkpt lat="43.3647617" lon="11.4245733"><ele>280.20000000000005</ele><time>2026-04-11T07:50:59.998Z</time></trkpt><trkpt lat="43.3647067" lon="11.4244533"><ele>279.79999999999995</ele><time>2026-04-11T07:51:00.998Z</time></trkpt><trkpt lat="43.3646617" lon="11.424325"><ele>279.4</ele><time>2026-04-11T07:51:01.998Z</time></trkpt><trkpt lat="43.36462" lon="11.4241817"><ele>279.0</ele><time>2026-04-11T07:51:02.998Z</time></trkpt><trkpt lat="43.3645817" lon="11.4240317"><ele>278.75</ele><time>2026-04-11T07:51:03.998Z</time></trkpt><trkpt lat="43.3645517" lon="11.423885"><ele>278.5</ele><time>2026-04-11T07:51:04.998Z</time></trkpt><trkpt lat="43.3645217" lon="11.4237217"><ele>278.25</ele><time>2026-04-11T07:51:05.998Z</time></trkpt><trkpt lat="43.36451" lon="11.4235517"><ele>278.0</ele><time>2026-04-11T07:51:06.998Z</time></trkpt><trkpt lat="43.3645133" lon="11.423375"><ele>276.25</ele><time>2026-04-11T07:51:07.998Z</time></trkpt><trkpt lat="43.3645167" lon="11.4232017"><ele>274.5</ele><time>2026-04-11T07:51:08.998Z</time></trkpt><trkpt lat="43.36451" lon="11.4230383"><ele>272.75</ele><time>2026-04-11T07:51:09.998Z</time></trkpt><trkpt lat="43.364515" lon="11.4228867"><ele>271.0</ele><time>2026-04-11T07:51:10.998Z</time></trkpt><trkpt lat="43.3645067" lon="11.42272"><ele>269.25</ele><time>2026-04-11T07:51:11.998Z</time></trkpt><trkpt lat="43.3644967" lon="11.4225433"><ele>267.5</ele><time>2026-04-11T07:51:12.998Z</time></trkpt><trkpt lat="43.364485" lon="11.4223617"><ele>265.75</ele><time>2026-04-11T07:51:13.999Z</time></trkpt><trkpt lat="43.3644683" lon="11.42218"><ele>264.0</ele><time>2026-04-11T07:51:14.998Z</time></trkpt><trkpt lat="43.3644533" lon="11.4219983"><ele>262.25</ele><time>2026-04-11T07:51:15.998Z</time></trkpt><trkpt lat="43.3644467" lon="11.42183"><ele>260.5</ele><time>2026-04-11T07:51:16.999Z</time></trkpt><trkpt lat="43.364435" lon="11.421655"><ele>258.75</ele><time>2026-04-11T07:51:17.999Z</time></trkpt><trkpt lat="43.36442" lon="11.4214917"><ele>257.0</ele><time>2026-04-11T07:51:18.998Z</time></trkpt><trkpt lat="43.3643933" lon="11.421335"><ele>256.8</ele><time>2026-04-11T07:51:19.998Z</time></trkpt><trkpt lat="43.3643567" lon="11.4211967"><ele>256.6</ele><time>2026-04-11T07:51:20.998Z</time></trkpt><trkpt lat="43.3643217" lon="11.421065"><ele>256.40000000000003</ele><time>2026-04-11T07:51:21.998Z</time></trkpt><trkpt lat="43.364285" lon="11.4209367"><ele>256.2</ele><time>2026-04-11T07:51:22.999Z</time></trkpt><trkpt lat="43.3642483" lon="11.4208083"><ele>256.0</ele><time>2026-04-11T07:51:23.998Z</time></trkpt><trkpt lat="43.3642083" lon="11.4206733"><ele>256.0</ele><time>2026-04-11T07:51:24.998Z</time></trkpt><trkpt lat="43.3641717" lon="11.420545"><ele>256.0</ele><time>2026-04-11T07:51:25.998Z</time></trkpt><trkpt lat="43.3641483" lon="11.420415"><ele>256.0</ele><time>2026-04-11T07:51:26.999Z</time></trkpt><trkpt lat="43.3641283" lon="11.420285"><ele>256.0</ele><time>2026-04-11T07:51:27.998Z</time></trkpt><trkpt lat="43.36411" lon="11.4201567"><ele>256.0</ele><time>2026-04-11T07:51:28.998Z</time></trkpt><trkpt lat="43.3641017" lon="11.4200333"><ele>255.66666666666666</ele><time>2026-04-11T07:51:29.999Z</time></trkpt><trkpt lat="43.3641" lon="11.4199167"><ele>255.33333333333331</ele><time>2026-04-11T07:51:30.998Z</time></trkpt><trkpt lat="43.3640933" lon="11.4197967"><ele>255.0</ele><time>2026-04-11T07:51:31.998Z</time></trkpt><trkpt lat="43.3640833" lon="11.4196817"><ele>254.66666666666669</ele><time>2026-04-11T07:51:32.998Z</time></trkpt><trkpt lat="43.3640717" lon="11.419565"><ele>254.33333333333334</ele><time>2026-04-11T07:51:33.998Z</time></trkpt><trkpt lat="43.3640633" lon="11.4194483"><ele>254.0</ele><time>2026-04-11T07:51:34.998Z</time></trkpt><trkpt lat="43.364055" lon="11.4193283"><ele>253.33333333333334</ele><time>2026-04-11T07:51:35.999Z</time></trkpt><trkpt lat="43.3640467" lon="11.419205"><ele>252.66666666666669</ele><time>2026-04-11T07:51:36.999Z</time></trkpt><trkpt lat="43.3640433" lon="11.4190817"><ele>252.0</ele><time>2026-04-11T07:51:37.998Z</time></trkpt><trkpt lat="43.3640433" lon="11.4189667"><ele>251.33333333333331</ele><time>2026-04-11T07:51:38.998Z</time></trkpt><trkpt lat="43.3640433" lon="11.41887"><ele>250.66666666666666</ele><time>2026-04-11T07:51:39.998Z</time></trkpt><trkpt lat="43.3640133" lon="11.4187283"><ele>250.0</ele><time>2026-04-11T07:51:41.998Z</time></trkpt><trkpt lat="43.36392" lon="11.41864"><ele>248.0</ele><time>2026-04-11T07:51:43.999Z</time></trkpt><trkpt lat="43.3638233" lon="11.4185933"><ele>246.0</ele><time>2026-04-11T07:51:45.999Z</time></trkpt><trkpt lat="43.3637217" lon="11.418525"><ele>244.0</ele><time>2026-04-11T07:51:47.998Z</time></trkpt><trkpt lat="43.3636033" lon="11.4184767"><ele>242.0</ele><time>2026-04-11T07:51:49.998Z</time></trkpt><trkpt lat="43.36354" lon="11.418465"><ele>240.0</ele><time>2026-04-11T07:51:50.998Z</time></trkpt><trkpt lat="43.3634683" lon="11.418465"><ele>240.0</ele><time>2026-04-11T07:51:51.998Z</time></trkpt><trkpt lat="43.3633983" lon="11.4184683"><ele>240.0</ele><time>2026-04-11T07:51:52.999Z</time></trkpt><trkpt lat="43.36332" lon="11.4184683"><ele>240.0</ele><time>2026-04-11T07:51:53.998Z</time></trkpt><trkpt lat="43.3632433" lon="11.4184617"><ele>240.0</ele><time>2026-04-11T07:51:54.998Z</time></trkpt><trkpt lat="43.3631667" lon="11.4184483"><ele>240.0</ele><time>2026-04-11T07:51:55.998Z</time></trkpt><trkpt lat="43.363085" lon="11.41844"><ele>240.0</ele><time>2026-04-11T07:51:56.998Z</time></trkpt><trkpt lat="43.3630033" lon="11.418425"><ele>239.5</ele><time>2026-04-11T07:51:57.998Z</time></trkpt><trkpt lat="43.362925" lon="11.418405"><ele>239.0</ele><time>2026-04-11T07:51:58.998Z</time></trkpt><trkpt lat="43.362845" lon="11.4183833"><ele>238.5</ele><time>2026-04-11T07:51:59.998Z</time></trkpt><trkpt lat="43.362765" lon="11.418355"><ele>238.0</ele><time>2026-04-11T07:52:00.998Z</time></trkpt><trkpt lat="43.36268" lon="11.4183233"><ele>237.5</ele><time>2026-04-11T07:52:01.998Z</time></trkpt><trkpt lat="43.362595" lon="11.4182967"><ele>237.0</ele><time>2026-04-11T07:52:02.998Z</time></trkpt><trkpt lat="43.3625133" lon="11.4182717"><ele>237.0</ele><time>2026-04-11T07:52:03.999Z</time></trkpt><trkpt lat="43.362435" lon="11.4182517"><ele>237.0</ele><time>2026-04-11T07:52:04.998Z</time></trkpt><trkpt lat="43.362355" lon="11.41825"><ele>237.0</ele><time>2026-04-11T07:52:05.998Z</time></trkpt><trkpt lat="43.362275" lon="11.41827"><ele>237.0</ele><time>2026-04-11T07:52:06.999Z</time></trkpt><trkpt lat="43.3621917" lon="11.4183133"><ele>237.0</ele><time>2026-04-11T07:52:07.998Z</time></trkpt><trkpt lat="43.3621167" lon="11.4183717"><ele>237.0</ele><time>2026-04-11T07:52:08.998Z</time></trkpt><trkpt lat="43.3620417" lon="11.418435"><ele>237.2</ele><time>2026-04-11T07:52:09.998Z</time></trkpt><trkpt lat="43.36197" lon="11.4185233"><ele>237.39999999999998</ele><time>2026-04-11T07:52:10.998Z</time></trkpt><trkpt lat="43.3619033" lon="11.418615"><ele>237.60000000000002</ele><time>2026-04-11T07:52:11.998Z</time></trkpt><trkpt lat="43.36184" lon="11.4187217"><ele>237.8</ele><time>2026-04-11T07:52:12.999Z</time></trkpt><trkpt lat="43.3617783" lon="11.4188233"><ele>238.0</ele><time>2026-04-11T07:52:13.998Z</time></trkpt><trkpt lat="43.3617183" lon="11.4189317"><ele>238.0</ele><time>2026-04-11T07:52:14.998Z</time></trkpt><trkpt lat="43.3616517" lon="11.4190317"><ele>238.0</ele><time>2026-04-11T07:52:15.998Z</time></trkpt><trkpt lat="43.3615683" lon="11.4191067"><ele>238.0</ele><time>2026-04-11T07:52:16.998Z</time></trkpt><trkpt lat="43.36147" lon="11.419155"><ele>238.0</ele><time>2026-04-11T07:52:17.998Z</time></trkpt><trkpt lat="43.36137" lon="11.419185"><ele>238.0</ele><time>2026-04-11T07:52:18.998Z</time></trkpt><trkpt lat="43.3612683" lon="11.4192083"><ele>236.8</ele><time>2026-04-11T07:52:19.998Z</time></trkpt><trkpt lat="43.361175" lon="11.419245"><ele>235.60000000000002</ele><time>2026-04-11T07:52:20.998Z</time></trkpt><trkpt lat="43.361075" lon="11.4192783"><ele>234.39999999999998</ele><time>2026-04-11T07:52:21.998Z</time></trkpt><trkpt lat="43.3609767" lon="11.4193133"><ele>233.2</ele><time>2026-04-11T07:52:22.998Z</time></trkpt><trkpt lat="43.36088" lon="11.4193517"><ele>232.0</ele><time>2026-04-11T07:52:23.998Z</time></trkpt><trkpt lat="43.360785" lon="11.4193867"><ele>232.0</ele><time>2026-04-11T07:52:24.998Z</time></trkpt><trkpt lat="43.360685" lon="11.41942"><ele>232.0</ele><time>2026-04-11T07:52:25.998Z</time></trkpt><trkpt lat="43.3605833" lon="11.419455"><ele>232.0</ele><time>2026-04-11T07:52:26.998Z</time></trkpt><trkpt lat="43.360485" lon="11.419495"><ele>232.0</ele><time>2026-04-11T07:52:27.998Z</time></trkpt><trkpt lat="43.3603867" lon="11.4195317"><ele>232.0</ele><time>2026-04-11T07:52:28.999Z</time></trkpt><trkpt lat="43.3602883" lon="11.4195667"><ele>232.0</ele><time>2026-04-11T07:52:29.998Z</time></trkpt><trkpt lat="43.3601883" lon="11.419605"><ele>232.0</ele><time>2026-04-11T07:52:30.998Z</time></trkpt><trkpt lat="43.3600883" lon="11.4196383"><ele>232.0</ele><time>2026-04-11T07:52:31.998Z</time></trkpt><trkpt lat="43.35999" lon="11.419675"><ele>232.0</ele><time>2026-04-11T07:52:32.998Z</time></trkpt><trkpt lat="43.359895" lon="11.4197083"><ele>232.0</ele><time>2026-04-11T07:52:33.998Z</time></trkpt><trkpt lat="43.359795" lon="11.41975"><ele>231.2</ele><time>2026-04-11T07:52:34.998Z</time></trkpt><trkpt lat="43.3596933" lon="11.4197833"><ele>230.39999999999998</ele><time>2026-04-11T07:52:35.998Z</time></trkpt><trkpt lat="43.3595967" lon="11.4198167"><ele>229.60000000000002</ele><time>2026-04-11T07:52:36.998Z</time></trkpt><trkpt lat="43.3595" lon="11.4198533"><ele>228.8</ele><time>2026-04-11T07:52:37.998Z</time></trkpt><trkpt lat="43.3594017" lon="11.4198833"><ele>228.0</ele><time>2026-04-11T07:52:38.998Z</time></trkpt><trkpt lat="43.3593033" lon="11.4199167"><ele>228.0</ele><time>2026-04-11T07:52:39.998Z</time></trkpt><trkpt lat="43.35921" lon="11.4199317"><ele>228.0</ele><time>2026-04-11T07:52:40.998Z</time></trkpt><trkpt lat="43.3591117" lon="11.4199267"><ele>228.0</ele><time>2026-04-11T07:52:41.998Z</time></trkpt><trkpt lat="43.3590183" lon="11.419895"><ele>228.0</ele><time>2026-04-11T07:52:42.998Z</time></trkpt><trkpt lat="43.358935" lon="11.419815"><ele>228.0</ele><time>2026-04-11T07:52:43.998Z</time></trkpt><trkpt lat="43.358865" lon="11.4197233"><ele>226.8</ele><time>2026-04-11T07:52:44.998Z</time></trkpt><trkpt lat="43.3587967" lon="11.4196183"><ele>225.60000000000002</ele><time>2026-04-11T07:52:45.998Z</time></trkpt><trkpt lat="43.358735" lon="11.4195133"><ele>224.39999999999998</ele><time>2026-04-11T07:52:46.998Z</time></trkpt><trkpt lat="43.3586733" lon="11.4194083"><ele>223.2</ele><time>2026-04-11T07:52:47.998Z</time></trkpt><trkpt lat="43.3586133" lon="11.41931"><ele>222.0</ele><time>2026-04-11T07:52:48.998Z</time></trkpt><trkpt lat="43.3585533" lon="11.4192117"><ele>222.0</ele><time>2026-04-11T07:52:49.999Z</time></trkpt><trkpt lat="43.3584933" lon="11.4191167"><ele>222.0</ele><time>2026-04-11T07:52:50.998Z</time></trkpt><trkpt lat="43.3584267" lon="11.41902"><ele>222.0</ele><time>2026-04-11T07:52:51.999Z</time></trkpt><trkpt lat="43.3583583" lon="11.41893"><ele>222.0</ele><time>2026-04-11T07:52:52.998Z</time></trkpt><trkpt lat="43.3582933" lon="11.4188333"><ele>222.0</ele><time>2026-04-11T07:52:53.998Z</time></trkpt><trkpt lat="43.3582333" lon="11.4187267"><ele>221.8</ele><time>2026-04-11T07:52:54.998Z</time></trkpt><trkpt lat="43.35817" lon="11.4186283"><ele>221.6</ele><time>2026-04-11T07:52:55.998Z</time></trkpt><trkpt lat="43.3581083" lon="11.418535"><ele>221.40000000000003</ele><time>2026-04-11T07:52:56.998Z</time></trkpt><trkpt lat="43.358045" lon="11.4184433"><ele>221.20000000000002</ele><time>2026-04-11T07:52:57.998Z</time></trkpt><trkpt lat="43.357985" lon="11.4183517"><ele>221.0</ele><time>2026-04-11T07:52:58.998Z</time></trkpt><trkpt lat="43.35793" lon="11.4182617"><ele>220.8</ele><time>2026-04-11T07:52:59.998Z</time></trkpt><trkpt lat="43.357865" lon="11.4181717"><ele>220.60000000000002</ele><time>2026-04-11T07:53:00.999Z</time></trkpt><trkpt lat="43.357805" lon="11.4180717"><ele>220.4</ele><time>2026-04-11T07:53:01.998Z</time></trkpt><trkpt lat="43.357745" lon="11.417975"><ele>220.2</ele><time>2026-04-11T07:53:02.998Z</time></trkpt><trkpt lat="43.3576833" lon="11.4178733"><ele>220.0</ele><time>2026-04-11T07:53:03.999Z</time></trkpt><trkpt lat="43.35762" lon="11.4177817"><ele>219.99999999999997</ele><time>2026-04-11T07:53:04.998Z</time></trkpt><trkpt lat="43.3575633" lon="11.4176917"><ele>220.0</ele><time>2026-04-11T07:53:05.999Z</time></trkpt><trkpt lat="43.3575033" lon="11.4176017"><ele>220.0</ele><time>2026-04-11T07:53:06.999Z</time></trkpt><trkpt lat="43.3574417" lon="11.4175067"><ele>220.0</ele><time>2026-04-11T07:53:07.998Z</time></trkpt><trkpt lat="43.3573817" lon="11.4174217"><ele>219.99999999999997</ele><time>2026-04-11T07:53:08.999Z</time></trkpt><trkpt lat="43.35732" lon="11.4173433"><ele>220.0</ele><time>2026-04-11T07:53:09.998Z</time></trkpt><trkpt lat="43.3572617" lon="11.4172583"><ele>219.99999999999997</ele><time>2026-04-11T07:53:10.998Z</time></trkpt><trkpt lat="43.3572117" lon="11.4171733"><ele>220.0</ele><time>2026-04-11T07:53:11.999Z</time></trkpt><trkpt lat="43.3571583" lon="11.41709"><ele>220.0</ele><time>2026-04-11T07:53:12.999Z</time></trkpt><trkpt lat="43.35711" lon="11.4170117"><ele>220.0</ele><time>2026-04-11T07:53:13.998Z</time></trkpt><trkpt lat="43.35706" lon="11.4169283"><ele>219.99999999999997</ele><time>2026-04-11T07:53:14.998Z</time></trkpt><trkpt lat="43.35701" lon="11.4168533"><ele>220.0</ele><time>2026-04-11T07:53:15.998Z</time></trkpt><trkpt lat="43.356955" lon="11.416775"><ele>219.85714285714283</ele><time>2026-04-11T07:53:16.998Z</time></trkpt><trkpt lat="43.3569" lon="11.4167017"><ele>219.71428571428572</ele><time>2026-04-11T07:53:17.998Z</time></trkpt><trkpt lat="43.3568567" lon="11.4166283"><ele>219.57142857142856</ele><time>2026-04-11T07:53:18.998Z</time></trkpt><trkpt lat="43.3568183" lon="11.4165533"><ele>219.42857142857142</ele><time>2026-04-11T07:53:19.998Z</time></trkpt><trkpt lat="43.3567733" lon="11.41647"><ele>219.28571428571428</ele><time>2026-04-11T07:53:20.998Z</time></trkpt><trkpt lat="43.35673" lon="11.4163917"><ele>219.14285714285714</ele><time>2026-04-11T07:53:21.999Z</time></trkpt><trkpt lat="43.3566867" lon="11.4163083"><ele>219.0</ele><time>2026-04-11T07:53:22.998Z</time></trkpt><trkpt lat="43.35664" lon="11.4162367"><ele>219.2857142857143</ele><time>2026-04-11T07:53:23.998Z</time></trkpt><trkpt lat="43.35659" lon="11.4161633"><ele>219.57142857142856</ele><time>2026-04-11T07:53:24.998Z</time></trkpt><trkpt lat="43.356545" lon="11.4160933"><ele>219.85714285714286</ele><time>2026-04-11T07:53:25.998Z</time></trkpt><trkpt lat="43.3565033" lon="11.4160217"><ele>220.14285714285717</ele><time>2026-04-11T07:53:26.998Z</time></trkpt><trkpt lat="43.3564533" lon="11.4159483"><ele>220.42857142857144</ele><time>2026-04-11T07:53:27.998Z</time></trkpt><trkpt lat="43.3564" lon="11.4158883"><ele>220.71428571428572</ele><time>2026-04-11T07:53:28.998Z</time></trkpt><trkpt lat="43.3563433" lon="11.4158467"><ele>221.0</ele><time>2026-04-11T07:53:29.998Z</time></trkpt><trkpt lat="43.3562817" lon="11.4158167"><ele>221.16666666666669</ele><time>2026-04-11T07:53:30.998Z</time></trkpt><trkpt lat="43.3561583" lon="11.4158117"><ele>221.33333333333334</ele><time>2026-04-11T07:53:32.999Z</time></trkpt><trkpt lat="43.3560967" lon="11.41583"><ele>221.5</ele><time>2026-04-11T07:53:33.998Z</time></trkpt><trkpt lat="43.35603" lon="11.4158617"><ele>221.66666666666669</ele><time>2026-04-11T07:53:34.998Z</time></trkpt><trkpt lat="43.355965" lon="11.4158917"><ele>221.83333333333334</ele><time>2026-04-11T07:53:35.998Z</time></trkpt><trkpt lat="43.3559017" lon="11.41593"><ele>222.0</ele><time>2026-04-11T07:53:36.998Z</time></trkpt><trkpt lat="43.35584" lon="11.4159667"><ele>222.0</ele><time>2026-04-11T07:53:37.999Z</time></trkpt><trkpt lat="43.3557817" lon="11.4160083"><ele>222.0</ele><time>2026-04-11T07:53:38.998Z</time></trkpt><trkpt lat="43.3556717" lon="11.4160967"><ele>222.0</ele><time>2026-04-11T07:53:40.998Z</time></trkpt><trkpt lat="43.355615" lon="11.4161367"><ele>222.0</ele><time>2026-04-11T07:53:41.998Z</time></trkpt><trkpt lat="43.3555533" lon="11.41617"><ele>222.0</ele><time>2026-04-11T07:53:42.998Z</time></trkpt><trkpt lat="43.355435" lon="11.41622"><ele>222.0</ele><time>2026-04-11T07:53:44.998Z</time></trkpt><trkpt lat="43.3553083" lon="11.41622"><ele>222.83333333333334</ele><time>2026-04-11T07:53:46.998Z</time></trkpt><trkpt lat="43.3552383" lon="11.416215"><ele>223.66666666666669</ele><time>2026-04-11T07:53:47.998Z</time></trkpt><trkpt lat="43.3551117" lon="11.4161967"><ele>224.5</ele><time>2026-04-11T07:53:49.998Z</time></trkpt><trkpt lat="43.355045" lon="11.41619"><ele>225.33333333333334</ele><time>2026-04-11T07:53:50.999Z</time></trkpt><trkpt lat="43.35498" lon="11.4161867"><ele>226.16666666666669</ele><time>2026-04-11T07:53:51.999Z</time></trkpt><trkpt lat="43.3549167" lon="11.4161733"><ele>227.0</ele><time>2026-04-11T07:53:52.998Z</time></trkpt><trkpt lat="43.3548467" lon="11.416165"><ele>227.0</ele><time>2026-04-11T07:53:53.998Z</time></trkpt><trkpt lat="43.3547817" lon="11.416155"><ele>227.00000000000003</ele><time>2026-04-11T07:53:54.998Z</time></trkpt><trkpt lat="43.3547167" lon="11.4161467"><ele>227.0</ele><time>2026-04-11T07:53:55.998Z</time></trkpt><trkpt lat="43.3546483" lon="11.416135"><ele>227.0</ele><time>2026-04-11T07:53:56.999Z</time></trkpt><trkpt lat="43.3545783" lon="11.4161267"><ele>227.00000000000003</ele><time>2026-04-11T07:53:57.998Z</time></trkpt><trkpt lat="43.3545117" lon="11.41612"><ele>227.0</ele><time>2026-04-11T07:53:58.999Z</time></trkpt><trkpt lat="43.35444" lon="11.416115"><ele>227.0</ele><time>2026-04-11T07:53:59.999Z</time></trkpt><trkpt lat="43.354375" lon="11.4161067"><ele>226.71428571428572</ele><time>2026-04-11T07:54:00.998Z</time></trkpt><trkpt lat="43.35431" lon="11.416095"><ele>226.42857142857144</ele><time>2026-04-11T07:54:01.998Z</time></trkpt><trkpt lat="43.3542433" lon="11.4160883"><ele>226.14285714285717</ele><time>2026-04-11T07:54:02.998Z</time></trkpt><trkpt lat="43.354175" lon="11.4160817"><ele>225.8571428571429</ele><time>2026-04-11T07:54:03.998Z</time></trkpt><trkpt lat="43.3541067" lon="11.4160683"><ele>225.57142857142858</ele><time>2026-04-11T07:54:04.998Z</time></trkpt><trkpt lat="43.3540417" lon="11.4160633"><ele>225.28571428571433</ele><time>2026-04-11T07:54:05.998Z</time></trkpt><trkpt lat="43.353975" lon="11.4160583"><ele>225.00000000000003</ele><time>2026-04-11T07:54:06.998Z</time></trkpt><trkpt lat="43.3538533" lon="11.4160467"><ele>224.66666666666666</ele><time>2026-04-11T07:54:08.998Z</time></trkpt><trkpt lat="43.35379" lon="11.4160367"><ele>224.33333333333331</ele><time>2026-04-11T07:54:09.998Z</time></trkpt><trkpt lat="43.3537267" lon="11.4160283"><ele>224.0</ele><time>2026-04-11T07:54:10.999Z</time></trkpt><trkpt lat="43.3536617" lon="11.4160167"><ele>223.66666666666666</ele><time>2026-04-11T07:54:11.998Z</time></trkpt><trkpt lat="43.353535" lon="11.4159917"><ele>223.33333333333331</ele><time>2026-04-11T07:54:13.998Z</time></trkpt><trkpt lat="43.35347" lon="11.4159733"><ele>223.0</ele><time>2026-04-11T07:54:14.998Z</time></trkpt><trkpt lat="43.353405" lon="11.4159533"><ele>222.99999999999997</ele><time>2026-04-11T07:54:15.999Z</time></trkpt><trkpt lat="43.3533383" lon="11.41593"><ele>223.0</ele><time>2026-04-11T07:54:16.998Z</time></trkpt><trkpt lat="43.3532217" lon="11.4158883"><ele>223.0</ele><time>2026-04-11T07:54:18.998Z</time></trkpt><trkpt lat="43.3531583" lon="11.4158683"><ele>223.0</ele><time>2026-04-11T07:54:19.998Z</time></trkpt><trkpt lat="43.3530933" lon="11.415845"><ele>222.99999999999997</ele><time>2026-04-11T07:54:20.998Z</time></trkpt><trkpt lat="43.3530267" lon="11.4158233"><ele>223.0</ele><time>2026-04-11T07:54:21.998Z</time></trkpt><trkpt lat="43.35296" lon="11.415805"><ele>223.0</ele><time>2026-04-11T07:54:22.998Z</time></trkpt><trkpt lat="43.3528933" lon="11.4157867"><ele>223.0</ele><time>2026-04-11T07:54:23.998Z</time></trkpt><trkpt lat="43.35283" lon="11.4157683"><ele>223.0</ele><time>2026-04-11T07:54:24.998Z</time></trkpt><trkpt lat="43.3527067" lon="11.4157317"><ele>223.0</ele><time>2026-04-11T07:54:26.998Z</time></trkpt><trkpt lat="43.3525833" lon="11.415695"><ele>223.0</ele><time>2026-04-11T07:54:28.998Z</time></trkpt><trkpt lat="43.3525167" lon="11.4156817"><ele>223.0</ele><time>2026-04-11T07:54:29.998Z</time></trkpt><trkpt lat="43.3523967" lon="11.4156483"><ele>223.0</ele><time>2026-04-11T07:54:31.998Z</time></trkpt><trkpt lat="43.352275" lon="11.4156183"><ele>223.0</ele><time>2026-04-11T07:54:33.999Z</time></trkpt><trkpt lat="43.3522117" lon="11.4156067"><ele>223.0</ele><time>2026-04-11T07:54:34.998Z</time></trkpt><trkpt lat="43.3521033" lon="11.4155733"><ele>223.0</ele><time>2026-04-11T07:54:36.998Z</time></trkpt><trkpt lat="43.3519917" lon="11.4155383"><ele>222.66666666666666</ele><time>2026-04-11T07:54:38.998Z</time></trkpt><trkpt lat="43.3518717" lon="11.4155033"><ele>222.33333333333331</ele><time>2026-04-11T07:54:40.998Z</time></trkpt><trkpt lat="43.3518083" lon="11.4154817"><ele>222.0</ele><time>2026-04-11T07:54:41.998Z</time></trkpt><trkpt lat="43.351685" lon="11.415445"><ele>221.66666666666669</ele><time>2026-04-11T07:54:43.998Z</time></trkpt><trkpt lat="43.35162" lon="11.4154267"><ele>221.33333333333334</ele><time>2026-04-11T07:54:44.998Z</time></trkpt><trkpt lat="43.351555" lon="11.41541"><ele>221.0</ele><time>2026-04-11T07:54:45.998Z</time></trkpt><trkpt lat="43.3514883" lon="11.41539"><ele>221.00000000000003</ele><time>2026-04-11T07:54:46.999Z</time></trkpt><trkpt lat="43.35142" lon="11.4153733"><ele>221.0</ele><time>2026-04-11T07:54:47.998Z</time></trkpt><trkpt lat="43.351355" lon="11.4153517"><ele>221.0</ele><time>2026-04-11T07:54:48.998Z</time></trkpt><trkpt lat="43.3512883" lon="11.4153333"><ele>221.0</ele><time>2026-04-11T07:54:49.998Z</time></trkpt><trkpt lat="43.351225" lon="11.4153117"><ele>221.00000000000003</ele><time>2026-04-11T07:54:50.999Z</time></trkpt><trkpt lat="43.3511" lon="11.4152817"><ele>221.0</ele><time>2026-04-11T07:54:52.998Z</time></trkpt><trkpt lat="43.350985" lon="11.4152467"><ele>220.8</ele><time>2026-04-11T07:54:54.998Z</time></trkpt><trkpt lat="43.35087" lon="11.4152183"><ele>220.60000000000002</ele><time>2026-04-11T07:54:56.998Z</time></trkpt><trkpt lat="43.3507667" lon="11.4151883"><ele>220.4</ele><time>2026-04-11T07:54:58.998Z</time></trkpt><trkpt lat="43.3506633" lon="11.4151483"><ele>220.2</ele><time>2026-04-11T07:55:00.998Z</time></trkpt><trkpt lat="43.3505567" lon="11.4151267"><ele>220.0</ele><time>2026-04-11T07:55:02.999Z</time></trkpt><trkpt lat="43.3504583" lon="11.415105"><ele>220.99999999999997</ele><time>2026-04-11T07:55:04.998Z</time></trkpt><trkpt lat="43.350375" lon="11.4150867"><ele>222.0</ele><time>2026-04-11T07:55:06.999Z</time></trkpt><trkpt lat="43.3502967" lon="11.4150583"><ele>223.0</ele><time>2026-04-11T07:55:08.998Z</time></trkpt><trkpt lat="43.3502367" lon="11.4150117"><ele>224.0</ele><time>2026-04-11T07:55:10.998Z</time></trkpt><trkpt lat="43.35017" lon="11.4149533"><ele>224.99999999999997</ele><time>2026-04-11T07:55:12.998Z</time></trkpt><trkpt lat="43.3500983" lon="11.414885"><ele>226.0</ele><time>2026-04-11T07:55:14.998Z</time></trkpt><trkpt lat="43.3500267" lon="11.4148033"><ele>226.0</ele><time>2026-04-11T07:55:16.998Z</time></trkpt><trkpt lat="43.349955" lon="11.4147117"><ele>226.00000000000003</ele><time>2026-04-11T07:55:18.998Z</time></trkpt><trkpt lat="43.3498983" lon="11.414615"><ele>226.00000000000003</ele><time>2026-04-11T07:55:20.998Z</time></trkpt><trkpt lat="43.3498467" lon="11.4145233"><ele>226.0</ele><time>2026-04-11T07:55:22.999Z</time></trkpt><trkpt lat="43.3497883" lon="11.4144317"><ele>226.0</ele><time>2026-04-11T07:55:24.998Z</time></trkpt><trkpt lat="43.3497417" lon="11.414325"><ele>226.16666666666666</ele><time>2026-04-11T07:55:26.999Z</time></trkpt><trkpt lat="43.349695" lon="11.4142217"><ele>226.33333333333331</ele><time>2026-04-11T07:55:28.998Z</time></trkpt><trkpt lat="43.349645" lon="11.4141317"><ele>226.5</ele><time>2026-04-11T07:55:30.998Z</time></trkpt><trkpt lat="43.349595" lon="11.4140333"><ele>226.66666666666669</ele><time>2026-04-11T07:55:32.999Z</time></trkpt><trkpt lat="43.3495633" lon="11.4139317"><ele>226.83333333333334</ele><time>2026-04-11T07:55:34.998Z</time></trkpt><trkpt lat="43.349525" lon="11.4138283"><ele>227.0</ele><time>2026-04-11T07:55:36.998Z</time></trkpt><trkpt lat="43.3494933" lon="11.4137283"><ele>227.00000000000003</ele><time>2026-04-11T07:55:38.998Z</time></trkpt><trkpt lat="43.3494567" lon="11.413625"><ele>227.0</ele><time>2026-04-11T07:55:40.999Z</time></trkpt><trkpt lat="43.3494133" lon="11.4135333"><ele>227.0</ele><time>2026-04-11T07:55:42.998Z</time></trkpt><trkpt lat="43.349375" lon="11.4134283"><ele>227.0</ele><time>2026-04-11T07:55:44.998Z</time></trkpt><trkpt lat="43.3493383" lon="11.4133233"><ele>227.00000000000003</ele><time>2026-04-11T07:55:46.998Z</time></trkpt><trkpt lat="43.3492917" lon="11.4132233"><ele>227.0</ele><time>2026-04-11T07:55:48.998Z</time></trkpt><trkpt lat="43.3492333" lon="11.41312"><ele>227.0</ele><time>2026-04-11T07:55:50.998Z</time></trkpt><trkpt lat="43.3491683" lon="11.4130267"><ele>227.0</ele><time>2026-04-11T07:55:52.998Z</time></trkpt><trkpt lat="43.3491" lon="11.412935"><ele>227.0</ele><time>2026-04-11T07:55:54.999Z</time></trkpt><trkpt lat="43.34904" lon="11.4128417"><ele>227.0</ele><time>2026-04-11T07:55:56.998Z</time></trkpt><trkpt lat="43.34898" lon="11.4127617"><ele>227.0</ele><time>2026-04-11T07:55:58.998Z</time></trkpt><trkpt lat="43.3489183" lon="11.41267"><ele>227.83333333333334</ele><time>2026-04-11T07:56:00.998Z</time></trkpt><trkpt lat="43.3488567" lon="11.412575"><ele>228.66666666666669</ele><time>2026-04-11T07:56:02.999Z</time></trkpt><trkpt lat="43.348805" lon="11.4124733"><ele>229.5</ele><time>2026-04-11T07:56:04.998Z</time></trkpt><trkpt lat="43.34876" lon="11.4123817"><ele>230.33333333333331</ele><time>2026-04-11T07:56:06.998Z</time></trkpt><trkpt lat="43.34872" lon="11.4122767"><ele>231.16666666666666</ele><time>2026-04-11T07:56:08.998Z</time></trkpt><trkpt lat="43.34869" lon="11.41217"><ele>232.0</ele><time>2026-04-11T07:56:10.998Z</time></trkpt><trkpt lat="43.3486567" lon="11.412065"><ele>231.99999999999997</ele><time>2026-04-11T07:56:12.998Z</time></trkpt><trkpt lat="43.3486267" lon="11.41196"><ele>232.0</ele><time>2026-04-11T07:56:14.998Z</time></trkpt><trkpt lat="43.3486033" lon="11.4118517"><ele>232.0</ele><time>2026-04-11T07:56:16.998Z</time></trkpt><trkpt lat="43.3485817" lon="11.41174"><ele>232.0</ele><time>2026-04-11T07:56:18.998Z</time></trkpt><trkpt lat="43.3485633" lon="11.411625"><ele>231.99999999999997</ele><time>2026-04-11T07:56:20.998Z</time></trkpt><trkpt lat="43.348555" lon="11.41151"><ele>232.0</ele><time>2026-04-11T07:56:22.998Z</time></trkpt><trkpt lat="43.3485467" lon="11.4114167"><ele>232.8571428571429</ele><time>2026-04-11T07:56:24.998Z</time></trkpt><trkpt lat="43.34854" lon="11.4113183"><ele>233.71428571428572</ele><time>2026-04-11T07:56:26.998Z</time></trkpt><trkpt lat="43.3485317" lon="11.411225"><ele>234.57142857142858</ele><time>2026-04-11T07:56:28.998Z</time></trkpt><trkpt lat="43.348525" lon="11.4111367"><ele>235.42857142857144</ele><time>2026-04-11T07:56:30.998Z</time></trkpt><trkpt lat="43.348515" lon="11.41104"><ele>236.28571428571428</ele><time>2026-04-11T07:56:32.998Z</time></trkpt><trkpt lat="43.348505" lon="11.410945"><ele>237.14285714285714</ele><time>2026-04-11T07:56:34.998Z</time></trkpt><trkpt lat="43.348495" lon="11.4108533"><ele>238.0</ele><time>2026-04-11T07:56:36.998Z</time></trkpt><trkpt lat="43.348485" lon="11.4107583"><ele>237.99999999999997</ele><time>2026-04-11T07:56:38.998Z</time></trkpt><trkpt lat="43.3484667" lon="11.4106717"><ele>238.0</ele><time>2026-04-11T07:56:40.998Z</time></trkpt><trkpt lat="43.3484467" lon="11.4105867"><ele>238.0</ele><time>2026-04-11T07:56:42.998Z</time></trkpt><trkpt lat="43.348425" lon="11.4104617"><ele>238.0</ele><time>2026-04-11T07:56:45.998Z</time></trkpt><trkpt lat="43.3484033" lon="11.410345"><ele>237.99999999999997</ele><time>2026-04-11T07:56:48.998Z</time></trkpt><trkpt lat="43.3483817" lon="11.4102617"><ele>238.0</ele><time>2026-04-11T07:56:50.998Z</time></trkpt><trkpt lat="43.3483533" lon="11.41014"><ele>238.33333333333331</ele><time>2026-04-11T07:56:53.999Z</time></trkpt><trkpt lat="43.34833" lon="11.410055"><ele>238.66666666666666</ele><time>2026-04-11T07:56:55.998Z</time></trkpt><trkpt lat="43.348295" lon="11.409935"><ele>239.0</ele><time>2026-04-11T07:56:58.998Z</time></trkpt><trkpt lat="43.348265" lon="11.4098133"><ele>239.33333333333331</ele><time>2026-04-11T07:57:01.998Z</time></trkpt><trkpt lat="43.3482367" lon="11.409695"><ele>239.66666666666666</ele><time>2026-04-11T07:57:04.998Z</time></trkpt><trkpt lat="43.34821" lon="11.4095767"><ele>240.0</ele><time>2026-04-11T07:57:07.998Z</time></trkpt><trkpt lat="43.3481867" lon="11.4094667"><ele>240.0</ele><time>2026-04-11T07:57:10.998Z</time></trkpt><trkpt lat="43.3481533" lon="11.4093583"><ele>240.0</ele><time>2026-04-11T07:57:13.998Z</time></trkpt><trkpt lat="43.3481267" lon="11.4092517"><ele>240.0</ele><time>2026-04-11T07:57:16.998Z</time></trkpt><trkpt lat="43.3480967" lon="11.4091467"><ele>240.0</ele><time>2026-04-11T07:57:19.999Z</time></trkpt><trkpt lat="43.3480733" lon="11.40904"><ele>240.0</ele><time>2026-04-11T07:57:22.998Z</time></trkpt><trkpt lat="43.3480567" lon="11.408935"><ele>240.0</ele><time>2026-04-11T07:57:25.998Z</time></trkpt><trkpt lat="43.348055" lon="11.4088233"><ele>240.5</ele><time>2026-04-11T07:57:28.999Z</time></trkpt><trkpt lat="43.3480467" lon="11.408715"><ele>241.0</ele><time>2026-04-11T07:57:31.998Z</time></trkpt><trkpt lat="43.3480433" lon="11.4086017"><ele>241.5</ele><time>2026-04-11T07:57:34.998Z</time></trkpt><trkpt lat="43.3480367" lon="11.4085033"><ele>242.0</ele><time>2026-04-11T07:57:37.999Z</time></trkpt><trkpt lat="43.3480283" lon="11.4083933"><ele>242.5</ele><time>2026-04-11T07:57:40.998Z</time></trkpt><trkpt lat="43.3480267" lon="11.4082783"><ele>243.0</ele><time>2026-04-11T07:57:43.998Z</time></trkpt><trkpt lat="43.34803" lon="11.4081633"><ele>246.5</ele><time>2026-04-11T07:57:46.999Z</time></trkpt><trkpt lat="43.3480333" lon="11.40805"><ele>250.0</ele><time>2026-04-11T07:57:49.998Z</time></trkpt><trkpt lat="43.3480317" lon="11.4079383"><ele>253.5</ele><time>2026-04-11T07:57:52.998Z</time></trkpt><trkpt lat="43.3480333" lon="11.4078333"><ele>257.0</ele><time>2026-04-11T07:57:55.998Z</time></trkpt><trkpt lat="43.3480367" lon="11.4077267"><ele>260.5</ele><time>2026-04-11T07:57:58.998Z</time></trkpt><trkpt lat="43.3480233" lon="11.4076033"><ele>264.0</ele><time>2026-04-11T07:58:01.998Z</time></trkpt><trkpt lat="43.34803" lon="11.4074917"><ele>261.5</ele><time>2026-04-11T07:58:04.998Z</time></trkpt><trkpt lat="43.3480433" lon="11.40738"><ele>259.0</ele><time>2026-04-11T07:58:07.998Z</time></trkpt><trkpt lat="43.3480483" lon="11.4072717"><ele>256.5</ele><time>2026-04-11T07:58:10.999Z</time></trkpt><trkpt lat="43.3480483" lon="11.4071683"><ele>254.0</ele><time>2026-04-11T07:58:13.999Z</time></trkpt><trkpt lat="43.3480583" lon="11.4070567"><ele>251.5</ele><time>2026-04-11T07:58:16.998Z</time></trkpt><trkpt lat="43.348065" lon="11.4069533"><ele>249.0</ele><time>2026-04-11T07:58:19.998Z</time></trkpt><trkpt lat="43.3480717" lon="11.406845"><ele>249.0</ele><time>2026-04-11T07:58:22.999Z</time></trkpt><trkpt lat="43.3480833" lon="11.4067317"><ele>249.0</ele><time>2026-04-11T07:58:25.998Z</time></trkpt><trkpt lat="43.3480933" lon="11.40663"><ele>249.0</ele><time>2026-04-11T07:58:28.998Z</time></trkpt><trkpt lat="43.34811" lon="11.4065217"><ele>249.0</ele><time>2026-04-11T07:58:31.998Z</time></trkpt><trkpt lat="43.3481383" lon="11.4064117"><ele>249.0</ele><time>2026-04-11T07:58:34.998Z</time></trkpt><trkpt lat="43.34817" lon="11.4063167"><ele>249.0</ele><time>2026-04-11T07:58:37.998Z</time></trkpt><trkpt lat="43.34821" lon="11.4062117"><ele>250.16666666666666</ele><time>2026-04-11T07:58:40.998Z</time></trkpt><trkpt lat="43.3482383" lon="11.4061117"><ele>251.33333333333331</ele><time>2026-04-11T07:58:43.998Z</time></trkpt><trkpt lat="43.34825" lon="11.4060233"><ele>252.5</ele><time>2026-04-11T07:58:46.998Z</time></trkpt><trkpt lat="43.3482783" lon="11.4059333"><ele>253.66666666666666</ele><time>2026-04-11T07:58:49.998Z</time></trkpt><trkpt lat="43.3483" lon="11.40583"><ele>254.83333333333331</ele><time>2026-04-11T07:58:52.998Z</time></trkpt><trkpt lat="43.3483317" lon="11.4057167"><ele>256.0</ele><time>2026-04-11T07:58:55.998Z</time></trkpt><trkpt lat="43.3483617" lon="11.40559"><ele>256.0</ele><time>2026-04-11T07:58:58.998Z</time></trkpt><trkpt lat="43.3483767" lon="11.4055"><ele>255.99999999999997</ele><time>2026-04-11T07:59:00.999Z</time></trkpt><trkpt lat="43.3483917" lon="11.405415"><ele>256.0</ele><time>2026-04-11T07:59:02.999Z</time></trkpt><trkpt lat="43.3484083" lon="11.4053283"><ele>256.0</ele><time>2026-04-11T07:59:04.998Z</time></trkpt><trkpt lat="43.348425" lon="11.4052383"><ele>255.99999999999997</ele><time>2026-04-11T07:59:06.998Z</time></trkpt><trkpt lat="43.3484383" lon="11.4051467"><ele>256.0</ele><time>2026-04-11T07:59:08.998Z</time></trkpt><trkpt lat="43.34845" lon="11.40503"><ele>256.0</ele><time>2026-04-11T07:59:11.998Z</time></trkpt><trkpt lat="43.34845" lon="11.4049433"><ele>257.8333333333333</ele><time>2026-04-11T07:59:14.998Z</time></trkpt><trkpt lat="43.34846" lon="11.4048417"><ele>259.66666666666663</ele><time>2026-04-11T07:59:17.998Z</time></trkpt><trkpt lat="43.3484817" lon="11.404725"><ele>261.5</ele><time>2026-04-11T07:59:20.998Z</time></trkpt><trkpt lat="43.3484983" lon="11.4046267"><ele>263.3333333333333</ele><time>2026-04-11T07:59:23.998Z</time></trkpt><trkpt lat="43.34852" lon="11.4045383"><ele>265.1666666666667</ele><time>2026-04-11T07:59:26.998Z</time></trkpt><trkpt lat="43.3485683" lon="11.4044483"><ele>267.0</ele><time>2026-04-11T07:59:29.998Z</time></trkpt><trkpt lat="43.3486083" lon="11.4043767"><ele>267.3333333333333</ele><time>2026-04-11T07:59:31.999Z</time></trkpt><trkpt lat="43.3486483" lon="11.404295"><ele>267.6666666666667</ele><time>2026-04-11T07:59:33.998Z</time></trkpt><trkpt lat="43.3487017" lon="11.40419"><ele>268.0</ele><time>2026-04-11T07:59:36.998Z</time></trkpt><trkpt lat="43.348755" lon="11.4041017"><ele>268.33333333333337</ele><time>2026-04-11T07:59:39.998Z</time></trkpt><trkpt lat="43.34881" lon="11.40401"><ele>268.6666666666667</ele><time>2026-04-11T07:59:42.998Z</time></trkpt><trkpt lat="43.3488633" lon="11.403945"><ele>269.0</ele><time>2026-04-11T07:59:44.998Z</time></trkpt><trkpt lat="43.348925" lon="11.403865"><ele>269.5</ele><time>2026-04-11T07:59:47.998Z</time></trkpt><trkpt lat="43.3489717" lon="11.403775"><ele>270.0</ele><time>2026-04-11T07:59:50.999Z</time></trkpt><trkpt lat="43.3490117" lon="11.4036817"><ele>270.5</ele><time>2026-04-11T07:59:53.999Z</time></trkpt><trkpt lat="43.349045" lon="11.4035933"><ele>271.0</ele><time>2026-04-11T07:59:57.999Z</time></trkpt><trkpt lat="43.3490667" lon="11.4034967"><ele>271.5</ele><time>2026-04-11T08:00:00.998Z</time></trkpt><trkpt lat="43.3490883" lon="11.4034033"><ele>272.0</ele><time>2026-04-11T08:00:03.998Z</time></trkpt><trkpt lat="43.3491017" lon="11.4032833"><ele>272.0</ele><time>2026-04-11T08:00:06.998Z</time></trkpt><trkpt lat="43.34911" lon="11.4031883"><ele>272.0</ele><time>2026-04-11T08:00:09.998Z</time></trkpt><trkpt lat="43.3491267" lon="11.403085"><ele>272.0</ele><time>2026-04-11T08:00:12.998Z</time></trkpt><trkpt lat="43.3491317" lon="11.4029617"><ele>272.0</ele><time>2026-04-11T08:00:15.998Z</time></trkpt><trkpt lat="43.34914" lon="11.4028367"><ele>272.0</ele><time>2026-04-11T08:00:18.998Z</time></trkpt><trkpt lat="43.3491583" lon="11.4027417"><ele>272.0</ele><time>2026-04-11T08:00:20.998Z</time></trkpt><trkpt lat="43.349165" lon="11.4026267"><ele>273.1666666666667</ele><time>2026-04-11T08:00:23.998Z</time></trkpt><trkpt lat="43.3491667" lon="11.4025083"><ele>274.33333333333337</ele><time>2026-04-11T08:00:26.998Z</time></trkpt><trkpt lat="43.34918" lon="11.4024167"><ele>275.5</ele><time>2026-04-11T08:00:28.999Z</time></trkpt><trkpt lat="43.3491917" lon="11.4023217"><ele>276.6666666666667</ele><time>2026-04-11T08:00:30.998Z</time></trkpt><trkpt lat="43.349205" lon="11.402225"><ele>277.8333333333333</ele><time>2026-04-11T08:00:32.998Z</time></trkpt><trkpt lat="43.34922" lon="11.4021083"><ele>279.0</ele><time>2026-04-11T08:00:35.998Z</time></trkpt><trkpt lat="43.3492383" lon="11.4019983"><ele>280.3333333333333</ele><time>2026-04-11T08:00:38.998Z</time></trkpt><trkpt lat="43.3492767" lon="11.4018967"><ele>281.6666666666667</ele><time>2026-04-11T08:00:41.999Z</time></trkpt><trkpt lat="43.349315" lon="11.401805"><ele>283.0</ele><time>2026-04-11T08:00:44.998Z</time></trkpt><trkpt lat="43.3493767" lon="11.4016967"><ele>284.33333333333337</ele><time>2026-04-11T08:00:47.998Z</time></trkpt><trkpt lat="43.34944" lon="11.4016217"><ele>285.6666666666667</ele><time>2026-04-11T08:00:49.998Z</time></trkpt><trkpt lat="43.3495117" lon="11.4015533"><ele>287.0</ele><time>2026-04-11T08:00:51.998Z</time></trkpt><trkpt lat="43.3495767" lon="11.4015333"><ele>287.0</ele><time>2026-04-11T08:00:53.998Z</time></trkpt><trkpt lat="43.3496567" lon="11.4015217"><ele>287.0</ele><time>2026-04-11T08:00:56.998Z</time></trkpt><trkpt lat="43.3497217" lon="11.40152"><ele>287.0</ele><time>2026-04-11T08:00:59.998Z</time></trkpt><trkpt lat="43.34979" lon="11.4015417"><ele>287.0</ele><time>2026-04-11T08:01:02.998Z</time></trkpt><trkpt lat="43.3498533" lon="11.401565"><ele>287.0</ele><time>2026-04-11T08:01:05.998Z</time></trkpt><trkpt lat="43.3499167" lon="11.4015733"><ele>287.0</ele><time>2026-04-11T08:01:08.998Z</time></trkpt><trkpt lat="43.34998" lon="11.40159"><ele>287.0</ele><time>2026-04-11T08:01:10.998Z</time></trkpt><trkpt lat="43.35005" lon="11.4015883"><ele>286.1666666666667</ele><time>2026-04-11T08:01:12.998Z</time></trkpt><trkpt lat="43.350125" lon="11.4015717"><ele>285.33333333333337</ele><time>2026-04-11T08:01:14.998Z</time></trkpt><trkpt lat="43.3501883" lon="11.4015333"><ele>284.5</ele><time>2026-04-11T08:01:16.998Z</time></trkpt><trkpt lat="43.3502367" lon="11.4014667"><ele>283.6666666666667</ele><time>2026-04-11T08:01:19.998Z</time></trkpt><trkpt lat="43.350235" lon="11.4013483"><ele>282.8333333333333</ele><time>2026-04-11T08:01:23.998Z</time></trkpt><trkpt lat="43.3502183" lon="11.4012417"><ele>282.0</ele><time>2026-04-11T08:01:26.998Z</time></trkpt><trkpt lat="43.3501917" lon="11.4011367"><ele>283.6666666666667</ele><time>2026-04-11T08:01:29.998Z</time></trkpt><trkpt lat="43.3501283" lon="11.4010517"><ele>285.3333333333333</ele><time>2026-04-11T08:01:32.998Z</time></trkpt><trkpt lat="43.3500633" lon="11.4009667"><ele>287.0</ele><time>2026-04-11T08:01:35.999Z</time></trkpt><trkpt lat="43.35" lon="11.4008883"><ele>288.66666666666663</ele><time>2026-04-11T08:01:38.998Z</time></trkpt><trkpt lat="43.3499417" lon="11.4008167"><ele>290.3333333333333</ele><time>2026-04-11T08:01:41.998Z</time></trkpt><trkpt lat="43.3498783" lon="11.4007483"><ele>292.0</ele><time>2026-04-11T08:01:44.998Z</time></trkpt><trkpt lat="43.3498233" lon="11.4007"><ele>292.0</ele><time>2026-04-11T08:01:47.998Z</time></trkpt><trkpt lat="43.34975" lon="11.4006633"><ele>292.0</ele><time>2026-04-11T08:01:50.998Z</time></trkpt><trkpt lat="43.3496767" lon="11.4006367"><ele>292.0</ele><time>2026-04-11T08:01:53.998Z</time></trkpt><trkpt lat="43.3495983" lon="11.4006317"><ele>292.0</ele><time>2026-04-11T08:01:56.998Z</time></trkpt><trkpt lat="43.3495183" lon="11.4006483"><ele>292.0</ele><time>2026-04-11T08:01:59.998Z</time></trkpt><trkpt lat="43.3494367" lon="11.40068"><ele>292.0</ele><time>2026-04-11T08:02:02.998Z</time></trkpt><trkpt lat="43.3493617" lon="11.4007083"><ele>292.3333333333333</ele><time>2026-04-11T08:02:05.998Z</time></trkpt><trkpt lat="43.3492833" lon="11.4007417"><ele>292.66666666666663</ele><time>2026-04-11T08:02:08.998Z</time></trkpt><trkpt lat="43.3492083" lon="11.40079"><ele>293.0</ele><time>2026-04-11T08:02:11.998Z</time></trkpt><trkpt lat="43.3491333" lon="11.4008383"><ele>293.3333333333333</ele><time>2026-04-11T08:02:14.998Z</time></trkpt><trkpt lat="43.3490633" lon="11.4008767"><ele>293.6666666666667</ele><time>2026-04-11T08:02:17.999Z</time></trkpt><trkpt lat="43.3489967" lon="11.4009217"><ele>294.0</ele><time>2026-04-11T08:02:20.998Z</time></trkpt><trkpt lat="43.348925" lon="11.4009717"><ele>295.0</ele><time>2026-04-11T08:02:23.998Z</time></trkpt><trkpt lat="43.3488483" lon="11.4010183"><ele>296.0</ele><time>2026-04-11T08:02:26.998Z</time></trkpt><trkpt lat="43.3487783" lon="11.4010467"><ele>297.0</ele><time>2026-04-11T08:02:29.998Z</time></trkpt><trkpt lat="43.3486967" lon="11.4010467"><ele>298.0</ele><time>2026-04-11T08:02:32.999Z</time></trkpt><trkpt lat="43.34862" lon="11.401015"><ele>299.0</ele><time>2026-04-11T08:02:35.998Z</time></trkpt><trkpt lat="43.3485517" lon="11.40096"><ele>300.0</ele><time>2026-04-11T08:02:38.998Z</time></trkpt><trkpt lat="43.348485" lon="11.400895"><ele>300.0</ele><time>2026-04-11T08:02:41.998Z</time></trkpt><trkpt lat="43.3484167" lon="11.4008217"><ele>300.0</ele><time>2026-04-11T08:02:44.998Z</time></trkpt><trkpt lat="43.34835" lon="11.4007383"><ele>300.0</ele><time>2026-04-11T08:02:47.998Z</time></trkpt><trkpt lat="43.34829" lon="11.400675"><ele>300.0</ele><time>2026-04-11T08:02:50.998Z</time></trkpt><trkpt lat="43.34823" lon="11.400615"><ele>300.0</ele><time>2026-04-11T08:02:53.998Z</time></trkpt><trkpt lat="43.3481533" lon="11.4005417"><ele>300.0</ele><time>2026-04-11T08:02:56.998Z</time></trkpt><trkpt lat="43.3480817" lon="11.4004767"><ele>301.1666666666667</ele><time>2026-04-11T08:02:59.998Z</time></trkpt><trkpt lat="43.3480117" lon="11.4004167"><ele>302.3333333333333</ele><time>2026-04-11T08:03:02.998Z</time></trkpt><trkpt lat="43.34794" lon="11.400365"><ele>303.5</ele><time>2026-04-11T08:03:05.998Z</time></trkpt><trkpt lat="43.34787" lon="11.4003133"><ele>304.66666666666663</ele><time>2026-04-11T08:03:08.998Z</time></trkpt><trkpt lat="43.3477983" lon="11.4002767"><ele>305.8333333333333</ele><time>2026-04-11T08:03:11.998Z</time></trkpt><trkpt lat="43.347725" lon="11.4002083"><ele>307.0</ele><time>2026-04-11T08:03:15.998Z</time></trkpt><trkpt lat="43.3476467" lon="11.4001633"><ele>307.0</ele><time>2026-04-11T08:03:18.998Z</time></trkpt><trkpt lat="43.3475917" lon="11.40012"><ele>307.0</ele><time>2026-04-11T08:03:20.998Z</time></trkpt><trkpt lat="43.3475233" lon="11.4000583"><ele>307.0</ele><time>2026-04-11T08:03:23.998Z</time></trkpt><trkpt lat="43.3474767" lon="11.3999483"><ele>307.0</ele><time>2026-04-11T08:03:26.998Z</time></trkpt><trkpt lat="43.3474483" lon="11.3998633"><ele>307.0</ele><time>2026-04-11T08:03:28.998Z</time></trkpt><trkpt lat="43.3474317" lon="11.3997467"><ele>307.0</ele><time>2026-04-11T08:03:31.998Z</time></trkpt><trkpt lat="43.3474483" lon="11.3996267"><ele>307.16666666666663</ele><time>2026-04-11T08:03:34.998Z</time></trkpt><trkpt lat="43.3474833" lon="11.3995333"><ele>307.3333333333333</ele><time>2026-04-11T08:03:37.998Z</time></trkpt><trkpt lat="43.347535" lon="11.3994367"><ele>307.5</ele><time>2026-04-11T08:03:40.998Z</time></trkpt><trkpt lat="43.3475983" lon="11.3993533"><ele>307.6666666666667</ele><time>2026-04-11T08:03:43.998Z</time></trkpt><trkpt lat="43.3476733" lon="11.39928"><ele>307.83333333333337</ele><time>2026-04-11T08:03:46.998Z</time></trkpt><trkpt lat="43.3477267" lon="11.3992333"><ele>308.0</ele><time>2026-04-11T08:03:48.998Z</time></trkpt><trkpt lat="43.3477867" lon="11.3991933"><ele>308.0</ele><time>2026-04-11T08:03:50.998Z</time></trkpt><trkpt lat="43.34785" lon="11.3991517"><ele>308.0</ele><time>2026-04-11T08:03:52.998Z</time></trkpt><trkpt lat="43.3479117" lon="11.3991133"><ele>308.0</ele><time>2026-04-11T08:03:54.998Z</time></trkpt><trkpt lat="43.3480033" lon="11.3990783"><ele>308.0</ele><time>2026-04-11T08:03:57.999Z</time></trkpt><trkpt lat="43.3480683" lon="11.3990567"><ele>308.0</ele><time>2026-04-11T08:03:59.998Z</time></trkpt><trkpt lat="43.348135" lon="11.399035"><ele>308.0</ele><time>2026-04-11T08:04:01.998Z</time></trkpt><trkpt lat="43.3482" lon="11.3990117"><ele>308.0</ele><time>2026-04-11T08:04:03.998Z</time></trkpt><trkpt lat="43.34827" lon="11.398995"><ele>308.33333333333337</ele><time>2026-04-11T08:04:05.998Z</time></trkpt><trkpt lat="43.348345" lon="11.3989783"><ele>308.6666666666667</ele><time>2026-04-11T08:04:07.998Z</time></trkpt><trkpt lat="43.3484067" lon="11.3989367"><ele>309.0</ele><time>2026-04-11T08:04:10.998Z</time></trkpt><trkpt lat="43.348395" lon="11.398835"><ele>309.3333333333333</ele><time>2026-04-11T08:04:13.998Z</time></trkpt><trkpt lat="43.3483617" lon="11.3987533"><ele>309.66666666666663</ele><time>2026-04-11T08:04:15.999Z</time></trkpt><trkpt lat="43.3483133" lon="11.3986633"><ele>310.0</ele><time>2026-04-11T08:04:17.998Z</time></trkpt><trkpt lat="43.34826" lon="11.3985667"><ele>309.0</ele><time>2026-04-11T08:04:19.998Z</time></trkpt><trkpt lat="43.3481717" lon="11.3984983"><ele>308.0</ele><time>2026-04-11T08:04:21.998Z</time></trkpt><trkpt lat="43.34807" lon="11.3984967"><ele>307.0</ele><time>2026-04-11T08:04:23.998Z</time></trkpt><trkpt lat="43.3479617" lon="11.3985367"><ele>306.0</ele><time>2026-04-11T08:04:25.999Z</time></trkpt><trkpt lat="43.347855" lon="11.3985883"><ele>305.0</ele><time>2026-04-11T08:04:27.999Z</time></trkpt><trkpt lat="43.3477467" lon="11.398635"><ele>304.14285714285717</ele><time>2026-04-11T08:04:29.998Z</time></trkpt><trkpt lat="43.347685" lon="11.398655"><ele>303.2857142857143</ele><time>2026-04-11T08:04:30.998Z</time></trkpt><trkpt lat="43.3476183" lon="11.3986667"><ele>302.42857142857144</ele><time>2026-04-11T08:04:31.998Z</time></trkpt><trkpt lat="43.347545" lon="11.39868"><ele>301.57142857142856</ele><time>2026-04-11T08:04:32.998Z</time></trkpt><trkpt lat="43.347465" lon="11.39869"><ele>300.7142857142857</ele><time>2026-04-11T08:04:33.998Z</time></trkpt><trkpt lat="43.3473867" lon="11.3987"><ele>299.85714285714283</ele><time>2026-04-11T08:04:34.998Z</time></trkpt><trkpt lat="43.347305" lon="11.3987117"><ele>299.0</ele><time>2026-04-11T08:04:35.998Z</time></trkpt><trkpt lat="43.347225" lon="11.3987233"><ele>299.5</ele><time>2026-04-11T08:04:36.998Z</time></trkpt><trkpt lat="43.347145" lon="11.39874"><ele>300.0</ele><time>2026-04-11T08:04:37.998Z</time></trkpt><trkpt lat="43.3470667" lon="11.3987617"><ele>300.5</ele><time>2026-04-11T08:04:38.998Z</time></trkpt><trkpt lat="43.3469917" lon="11.3987883"><ele>301.0</ele><time>2026-04-11T08:04:39.998Z</time></trkpt><trkpt lat="43.34692" lon="11.3988233"><ele>301.5</ele><time>2026-04-11T08:04:40.998Z</time></trkpt><trkpt lat="43.3468583" lon="11.3988733"><ele>302.0</ele><time>2026-04-11T08:04:41.998Z</time></trkpt><trkpt lat="43.346795" lon="11.3989267"><ele>302.00000000000006</ele><time>2026-04-11T08:04:42.999Z</time></trkpt><trkpt lat="43.346745" lon="11.39898"><ele>302.0</ele><time>2026-04-11T08:04:43.998Z</time></trkpt><trkpt lat="43.3467033" lon="11.399045"><ele>302.0</ele><time>2026-04-11T08:04:44.998Z</time></trkpt><trkpt lat="43.3466533" lon="11.399115"><ele>302.0</ele><time>2026-04-11T08:04:45.998Z</time></trkpt><trkpt lat="43.3466067" lon="11.3991867"><ele>302.0</ele><time>2026-04-11T08:04:46.998Z</time></trkpt><trkpt lat="43.3465583" lon="11.3992633"><ele>302.00000000000006</ele><time>2026-04-11T08:04:47.999Z</time></trkpt><trkpt lat="43.3465083" lon="11.3993433"><ele>302.0</ele><time>2026-04-11T08:04:48.998Z</time></trkpt><trkpt lat="43.3464583" lon="11.399425"><ele>302.0</ele><time>2026-04-11T08:04:49.998Z</time></trkpt><trkpt lat="43.346405" lon="11.3995133"><ele>302.0</ele><time>2026-04-11T08:04:50.998Z</time></trkpt><trkpt lat="43.3463517" lon="11.399605"><ele>302.0</ele><time>2026-04-11T08:04:51.998Z</time></trkpt><trkpt lat="43.3462983" lon="11.3996867"><ele>302.0</ele><time>2026-04-11T08:04:52.998Z</time></trkpt><trkpt lat="43.34624" lon="11.3997667"><ele>302.0</ele><time>2026-04-11T08:04:53.999Z</time></trkpt><trkpt lat="43.3461883" lon="11.3998483"><ele>302.0</ele><time>2026-04-11T08:04:54.999Z</time></trkpt><trkpt lat="43.3461367" lon="11.39993"><ele>301.5</ele><time>2026-04-11T08:04:55.998Z</time></trkpt><trkpt lat="43.3460867" lon="11.40001"><ele>301.0</ele><time>2026-04-11T08:04:56.999Z</time></trkpt><trkpt lat="43.3460417" lon="11.4000833"><ele>300.5</ele><time>2026-04-11T08:04:57.998Z</time></trkpt><trkpt lat="43.3459967" lon="11.4001517"><ele>300.0</ele><time>2026-04-11T08:04:58.998Z</time></trkpt><trkpt lat="43.3459533" lon="11.4002167"><ele>299.5</ele><time>2026-04-11T08:04:59.998Z</time></trkpt><trkpt lat="43.3458667" lon="11.400335"><ele>299.0</ele><time>2026-04-11T08:05:01.998Z</time></trkpt><trkpt lat="43.3457933" lon="11.400445"><ele>299.0</ele><time>2026-04-11T08:05:03.999Z</time></trkpt><trkpt lat="43.3457317" lon="11.4005433"><ele>299.0</ele><time>2026-04-11T08:05:05.999Z</time></trkpt><trkpt lat="43.345665" lon="11.4006467"><ele>299.0</ele><time>2026-04-11T08:05:07.998Z</time></trkpt><trkpt lat="43.3455983" lon="11.40075"><ele>299.0</ele><time>2026-04-11T08:05:09.998Z</time></trkpt><trkpt lat="43.3455233" lon="11.4008567"><ele>299.0</ele><time>2026-04-11T08:05:11.998Z</time></trkpt><trkpt lat="43.3454517" lon="11.4009567"><ele>299.0</ele><time>2026-04-11T08:05:13.998Z</time></trkpt><trkpt lat="43.3454033" lon="11.4010133"><ele>299.0</ele><time>2026-04-11T08:05:14.998Z</time></trkpt><trkpt lat="43.3453517" lon="11.4010633"><ele>299.0</ele><time>2026-04-11T08:05:15.998Z</time></trkpt><trkpt lat="43.34524" lon="11.40114"><ele>299.0</ele><time>2026-04-11T08:05:17.998Z</time></trkpt><trkpt lat="43.345175" lon="11.40117"><ele>299.0</ele><time>2026-04-11T08:05:18.998Z</time></trkpt><trkpt lat="43.345105" lon="11.4012033"><ele>299.0</ele><time>2026-04-11T08:05:19.999Z</time></trkpt><trkpt lat="43.3450317" lon="11.4012317"><ele>299.0</ele><time>2026-04-11T08:05:20.998Z</time></trkpt><trkpt lat="43.34496" lon="11.4012583"><ele>299.0</ele><time>2026-04-11T08:05:21.998Z</time></trkpt><trkpt lat="43.3448867" lon="11.4012817"><ele>299.0</ele><time>2026-04-11T08:05:22.998Z</time></trkpt><trkpt lat="43.34481" lon="11.401305"><ele>299.0</ele><time>2026-04-11T08:05:23.998Z</time></trkpt><trkpt lat="43.3447283" lon="11.4013217"><ele>299.0</ele><time>2026-04-11T08:05:24.998Z</time></trkpt><trkpt lat="43.3446517" lon="11.4013367"><ele>299.0</ele><time>2026-04-11T08:05:25.998Z</time></trkpt><trkpt lat="43.3445717" lon="11.4013433"><ele>298.1428571428571</ele><time>2026-04-11T08:05:26.998Z</time></trkpt><trkpt lat="43.3444967" lon="11.40135"><ele>297.2857142857143</ele><time>2026-04-11T08:05:27.998Z</time></trkpt><trkpt lat="43.3444267" lon="11.4013517"><ele>296.42857142857144</ele><time>2026-04-11T08:05:28.998Z</time></trkpt><trkpt lat="43.3443483" lon="11.4013533"><ele>295.57142857142856</ele><time>2026-04-11T08:05:29.998Z</time></trkpt><trkpt lat="43.344265" lon="11.4013583"><ele>294.7142857142857</ele><time>2026-04-11T08:05:30.998Z</time></trkpt><trkpt lat="43.344195" lon="11.4013633"><ele>293.85714285714283</ele><time>2026-04-11T08:05:31.999Z</time></trkpt><trkpt lat="43.3441283" lon="11.4013783"><ele>293.0</ele><time>2026-04-11T08:05:32.998Z</time></trkpt><trkpt lat="43.344065" lon="11.4014"><ele>292.99999999999994</ele><time>2026-04-11T08:05:33.998Z</time></trkpt><trkpt lat="43.344" lon="11.401425"><ele>293.0</ele><time>2026-04-11T08:05:34.998Z</time></trkpt><trkpt lat="43.3439317" lon="11.40146"><ele>293.0</ele><time>2026-04-11T08:05:35.998Z</time></trkpt><trkpt lat="43.34387" lon="11.4015017"><ele>293.0</ele><time>2026-04-11T08:05:36.999Z</time></trkpt><trkpt lat="43.3438017" lon="11.4015417"><ele>293.0</ele><time>2026-04-11T08:05:37.998Z</time></trkpt><trkpt lat="43.343735" lon="11.401575"><ele>292.99999999999994</ele><time>2026-04-11T08:05:38.998Z</time></trkpt><trkpt lat="43.3436667" lon="11.4016117"><ele>293.0</ele><time>2026-04-11T08:05:39.998Z</time></trkpt><trkpt lat="43.3436033" lon="11.4016517"><ele>292.8</ele><time>2026-04-11T08:05:40.998Z</time></trkpt><trkpt lat="43.34354" lon="11.4016933"><ele>292.6</ele><time>2026-04-11T08:05:41.998Z</time></trkpt><trkpt lat="43.3434733" lon="11.4017383"><ele>292.4</ele><time>2026-04-11T08:05:42.998Z</time></trkpt><trkpt lat="43.34337" lon="11.4018433"><ele>292.2</ele><time>2026-04-11T08:05:44.998Z</time></trkpt><trkpt lat="43.3432817" lon="11.401965"><ele>292.0</ele><time>2026-04-11T08:05:46.998Z</time></trkpt><trkpt lat="43.3432417" lon="11.40204"><ele>292.0</ele><time>2026-04-11T08:05:47.999Z</time></trkpt><trkpt lat="43.343205" lon="11.40213"><ele>292.0</ele><time>2026-04-11T08:05:48.998Z</time></trkpt><trkpt lat="43.3431733" lon="11.4022067"><ele>292.0</ele><time>2026-04-11T08:05:49.999Z</time></trkpt><trkpt lat="43.3431433" lon="11.4022883"><ele>292.0</ele><time>2026-04-11T08:05:50.998Z</time></trkpt><trkpt lat="43.3431217" lon="11.4023767"><ele>292.0</ele><time>2026-04-11T08:05:51.998Z</time></trkpt><trkpt lat="43.3430967" lon="11.4025367"><ele>292.0</ele><time>2026-04-11T08:05:53.998Z</time></trkpt><trkpt lat="43.3430817" lon="11.4027017"><ele>291.5</ele><time>2026-04-11T08:05:55.998Z</time></trkpt><trkpt lat="43.3430733" lon="11.4027883"><ele>291.0</ele><time>2026-04-11T08:05:56.998Z</time></trkpt><trkpt lat="43.343045" lon="11.4029633"><ele>290.5</ele><time>2026-04-11T08:05:58.998Z</time></trkpt><trkpt lat="43.3430167" lon="11.4030533"><ele>290.0</ele><time>2026-04-11T08:05:59.998Z</time></trkpt><trkpt lat="43.3429833" lon="11.403135"><ele>289.5</ele><time>2026-04-11T08:06:00.998Z</time></trkpt><trkpt lat="43.342935" lon="11.4032083"><ele>289.0</ele><time>2026-04-11T08:06:01.999Z</time></trkpt><trkpt lat="43.3428733" lon="11.4032617"><ele>289.0</ele><time>2026-04-11T08:06:02.998Z</time></trkpt><trkpt lat="43.342805" lon="11.403295"><ele>289.0</ele><time>2026-04-11T08:06:03.998Z</time></trkpt><trkpt lat="43.34273" lon="11.4033017"><ele>289.0</ele><time>2026-04-11T08:06:04.998Z</time></trkpt><trkpt lat="43.3426533" lon="11.4033167"><ele>289.0</ele><time>2026-04-11T08:06:05.998Z</time></trkpt><trkpt lat="43.3425783" lon="11.403325"><ele>289.0</ele><time>2026-04-11T08:06:06.999Z</time></trkpt><trkpt lat="43.3425033" lon="11.403345"><ele>289.0</ele><time>2026-04-11T08:06:07.998Z</time></trkpt><trkpt lat="43.342435" lon="11.4033817"><ele>289.0</ele><time>2026-04-11T08:06:08.998Z</time></trkpt><trkpt lat="43.342375" lon="11.4034217"><ele>289.0</ele><time>2026-04-11T08:06:09.998Z</time></trkpt><trkpt lat="43.34231" lon="11.4034817"><ele>289.0</ele><time>2026-04-11T08:06:10.998Z</time></trkpt><trkpt lat="43.3422467" lon="11.4035517"><ele>289.0</ele><time>2026-04-11T08:06:11.998Z</time></trkpt><trkpt lat="43.34218" lon="11.4036267"><ele>289.0</ele><time>2026-04-11T08:06:12.998Z</time></trkpt><trkpt lat="43.3421083" lon="11.4037067"><ele>289.0</ele><time>2026-04-11T08:06:13.998Z</time></trkpt><trkpt lat="43.3420417" lon="11.40378"><ele>288.16666666666663</ele><time>2026-04-11T08:06:14.998Z</time></trkpt><trkpt lat="43.341975" lon="11.4038517"><ele>287.3333333333333</ele><time>2026-04-11T08:06:15.998Z</time></trkpt><trkpt lat="43.341905" lon="11.4039283"><ele>286.5</ele><time>2026-04-11T08:06:16.998Z</time></trkpt><trkpt lat="43.3418433" lon="11.4039983"><ele>285.6666666666667</ele><time>2026-04-11T08:06:17.998Z</time></trkpt><trkpt lat="43.3417883" lon="11.40407"><ele>284.83333333333337</ele><time>2026-04-11T08:06:18.999Z</time></trkpt><trkpt lat="43.341735" lon="11.40413"><ele>284.0</ele><time>2026-04-11T08:06:19.998Z</time></trkpt><trkpt lat="43.3416817" lon="11.4041917"><ele>284.0</ele><time>2026-04-11T08:06:20.998Z</time></trkpt><trkpt lat="43.3416283" lon="11.4042467"><ele>284.0</ele><time>2026-04-11T08:06:21.999Z</time></trkpt><trkpt lat="43.3415767" lon="11.4043017"><ele>284.0</ele><time>2026-04-11T08:06:22.999Z</time></trkpt><trkpt lat="43.3414817" lon="11.404405"><ele>284.0</ele><time>2026-04-11T08:06:24.998Z</time></trkpt><trkpt lat="43.3413983" lon="11.40452"><ele>284.0</ele><time>2026-04-11T08:06:26.999Z</time></trkpt><trkpt lat="43.3413217" lon="11.4046317"><ele>285.2</ele><time>2026-04-11T08:06:28.998Z</time></trkpt><trkpt lat="43.3412617" lon="11.4047367"><ele>286.4</ele><time>2026-04-11T08:06:30.998Z</time></trkpt><trkpt lat="43.3412033" lon="11.4048367"><ele>287.6</ele><time>2026-04-11T08:06:32.998Z</time></trkpt><trkpt lat="43.3411483" lon="11.404925"><ele>288.8</ele><time>2026-04-11T08:06:34.998Z</time></trkpt><trkpt lat="43.3410883" lon="11.4050133"><ele>290.0</ele><time>2026-04-11T08:06:36.998Z</time></trkpt><trkpt lat="43.341025" lon="11.4050983"><ele>290.0</ele><time>2026-04-11T08:06:38.998Z</time></trkpt><trkpt lat="43.3409583" lon="11.4051883"><ele>290.0</ele><time>2026-04-11T08:06:40.998Z</time></trkpt><trkpt lat="43.3408833" lon="11.4052633"><ele>290.0</ele><time>2026-04-11T08:06:42.998Z</time></trkpt><trkpt lat="43.3408017" lon="11.4053317"><ele>290.0</ele><time>2026-04-11T08:06:44.998Z</time></trkpt><trkpt lat="43.340725" lon="11.4053883"><ele>290.0</ele><time>2026-04-11T08:06:46.998Z</time></trkpt><trkpt lat="43.3406433" lon="11.4054417"><ele>290.0</ele><time>2026-04-11T08:06:48.998Z</time></trkpt><trkpt lat="43.340565" lon="11.4054883"><ele>290.0</ele><time>2026-04-11T08:06:50.998Z</time></trkpt><trkpt lat="43.3404867" lon="11.40554"><ele>290.0</ele><time>2026-04-11T08:06:52.998Z</time></trkpt><trkpt lat="43.340405" lon="11.4055883"><ele>290.0</ele><time>2026-04-11T08:06:54.998Z</time></trkpt><trkpt lat="43.3403217" lon="11.4056367"><ele>290.0</ele><time>2026-04-11T08:06:56.998Z</time></trkpt><trkpt lat="43.340245" lon="11.4056783"><ele>290.0</ele><time>2026-04-11T08:06:58.999Z</time></trkpt><trkpt lat="43.340175" lon="11.4057117"><ele>290.0</ele><time>2026-04-11T08:07:00.998Z</time></trkpt><trkpt lat="43.34011" lon="11.4057533"><ele>290.0</ele><time>2026-04-11T08:07:02.998Z</time></trkpt><trkpt lat="43.3400483" lon="11.4057967"><ele>290.0</ele><time>2026-04-11T08:07:04.998Z</time></trkpt><trkpt lat="43.339985" lon="11.4058367"><ele>290.0</ele><time>2026-04-11T08:07:06.998Z</time></trkpt><trkpt lat="43.3399267" lon="11.4058733"><ele>290.0</ele><time>2026-04-11T08:07:08.998Z</time></trkpt><trkpt lat="43.3398683" lon="11.4059167"><ele>290.0</ele><time>2026-04-11T08:07:10.998Z</time></trkpt><trkpt lat="43.3398083" lon="11.405955"><ele>290.0</ele><time>2026-04-11T08:07:12.999Z</time></trkpt><trkpt lat="43.33973" lon="11.4060183"><ele>289.5</ele><time>2026-04-11T08:07:15.998Z</time></trkpt><trkpt lat="43.3396683" lon="11.4060817"><ele>289.0</ele><time>2026-04-11T08:07:18.999Z</time></trkpt><trkpt lat="43.3396133" lon="11.4061683"><ele>288.5</ele><time>2026-04-11T08:07:21.998Z</time></trkpt><trkpt lat="43.3395733" lon="11.40624"><ele>288.0</ele><time>2026-04-11T08:07:23.998Z</time></trkpt><trkpt lat="43.339535" lon="11.406325"><ele>287.5</ele><time>2026-04-11T08:07:25.998Z</time></trkpt><trkpt lat="43.3394933" lon="11.4064117"><ele>287.0</ele><time>2026-04-11T08:07:27.998Z</time></trkpt><trkpt lat="43.339455" lon="11.4065033"><ele>287.0</ele><time>2026-04-11T08:07:29.998Z</time></trkpt><trkpt lat="43.3394083" lon="11.40658"><ele>287.0</ele><time>2026-04-11T08:07:31.998Z</time></trkpt><trkpt lat="43.3393667" lon="11.40666"><ele>287.0</ele><time>2026-04-11T08:07:33.998Z</time></trkpt><trkpt lat="43.3393167" lon="11.40673"><ele>287.0</ele><time>2026-04-11T08:07:35.998Z</time></trkpt><trkpt lat="43.3392567" lon="11.4067967"><ele>287.0</ele><time>2026-04-11T08:07:37.998Z</time></trkpt><trkpt lat="43.3392" lon="11.4068667"><ele>287.0</ele><time>2026-04-11T08:07:39.998Z</time></trkpt><trkpt lat="43.339135" lon="11.4069367"><ele>287.0</ele><time>2026-04-11T08:07:41.998Z</time></trkpt><trkpt lat="43.3390667" lon="11.4070117"><ele>287.0</ele><time>2026-04-11T08:07:43.998Z</time></trkpt><trkpt lat="43.3390033" lon="11.4070817"><ele>287.0</ele><time>2026-04-11T08:07:45.999Z</time></trkpt><trkpt lat="43.3389433" lon="11.4071567"><ele>287.0</ele><time>2026-04-11T08:07:47.998Z</time></trkpt><trkpt lat="43.3388767" lon="11.407235"><ele>287.0</ele><time>2026-04-11T08:07:49.998Z</time></trkpt><trkpt lat="43.338815" lon="11.4073133"><ele>287.0</ele><time>2026-04-11T08:07:51.998Z</time></trkpt><trkpt lat="43.3387483" lon="11.4073967"><ele>287.33333333333337</ele><time>2026-04-11T08:07:53.998Z</time></trkpt><trkpt lat="43.3386817" lon="11.4074717"><ele>287.6666666666667</ele><time>2026-04-11T08:07:55.998Z</time></trkpt><trkpt lat="43.3386117" lon="11.40753"><ele>288.0</ele><time>2026-04-11T08:07:57.998Z</time></trkpt><trkpt lat="43.3385567" lon="11.4075833"><ele>288.3333333333333</ele><time>2026-04-11T08:07:59.998Z</time></trkpt><trkpt lat="43.338495" lon="11.4076317"><ele>288.66666666666663</ele><time>2026-04-11T08:08:01.999Z</time></trkpt><trkpt lat="43.3384217" lon="11.4076867"><ele>289.0</ele><time>2026-04-11T08:08:03.999Z</time></trkpt><trkpt lat="43.33835" lon="11.4077333"><ele>289.0</ele><time>2026-04-11T08:08:05.998Z</time></trkpt><trkpt lat="43.3382733" lon="11.40778"><ele>289.0</ele><time>2026-04-11T08:08:07.999Z</time></trkpt><trkpt lat="43.3381917" lon="11.4078117"><ele>289.0</ele><time>2026-04-11T08:08:09.998Z</time></trkpt><trkpt lat="43.338105" lon="11.4078067"><ele>289.0</ele><time>2026-04-11T08:08:11.998Z</time></trkpt><trkpt lat="43.3380167" lon="11.4077683"><ele>289.0</ele><time>2026-04-11T08:08:13.998Z</time></trkpt><trkpt lat="43.3379417" lon="11.4077067"><ele>289.0</ele><time>2026-04-11T08:08:15.998Z</time></trkpt><trkpt lat="43.3378683" lon="11.4076383"><ele>289.4</ele><time>2026-04-11T08:08:17.998Z</time></trkpt><trkpt lat="43.3377917" lon="11.4075683"><ele>289.79999999999995</ele><time>2026-04-11T08:08:19.998Z</time></trkpt><trkpt lat="43.3377167" lon="11.4074983"><ele>290.20000000000005</ele><time>2026-04-11T08:08:21.998Z</time></trkpt><trkpt lat="43.3376433" lon="11.4074233"><ele>290.6</ele><time>2026-04-11T08:08:23.998Z</time></trkpt><trkpt lat="43.3375667" lon="11.4073567"><ele>291.0</ele><time>2026-04-11T08:08:25.998Z</time></trkpt><trkpt lat="43.3374883" lon="11.4072833"><ele>291.0</ele><time>2026-04-11T08:08:27.999Z</time></trkpt><trkpt lat="43.3374183" lon="11.4072183"><ele>291.0</ele><time>2026-04-11T08:08:29.998Z</time></trkpt><trkpt lat="43.3373533" lon="11.4071633"><ele>291.0</ele><time>2026-04-11T08:08:31.998Z</time></trkpt><trkpt lat="43.337285" lon="11.4071117"><ele>291.0</ele><time>2026-04-11T08:08:33.998Z</time></trkpt><trkpt lat="43.3372183" lon="11.4070633"><ele>291.0</ele><time>2026-04-11T08:08:35.998Z</time></trkpt><trkpt lat="43.33714" lon="11.407015"><ele>291.0</ele><time>2026-04-11T08:08:37.998Z</time></trkpt><trkpt lat="43.3370483" lon="11.406965"><ele>291.2</ele><time>2026-04-11T08:08:39.999Z</time></trkpt><trkpt lat="43.3369517" lon="11.4069167"><ele>291.40000000000003</ele><time>2026-04-11T08:08:41.998Z</time></trkpt><trkpt lat="43.3368567" lon="11.4068717"><ele>291.6</ele><time>2026-04-11T08:08:43.998Z</time></trkpt><trkpt lat="43.3367617" lon="11.406835"><ele>291.8</ele><time>2026-04-11T08:08:45.998Z</time></trkpt><trkpt lat="43.3366583" lon="11.4067917"><ele>292.0</ele><time>2026-04-11T08:08:47.998Z</time></trkpt><trkpt lat="43.3365583" lon="11.4067433"><ele>292.0</ele><time>2026-04-11T08:08:49.998Z</time></trkpt><trkpt lat="43.3364633" lon="11.4067083"><ele>292.0</ele><time>2026-04-11T08:08:51.998Z</time></trkpt><trkpt lat="43.33637" lon="11.406685"><ele>292.0</ele><time>2026-04-11T08:08:53.998Z</time></trkpt><trkpt lat="43.3362767" lon="11.40668"><ele>292.0</ele><time>2026-04-11T08:08:55.998Z</time></trkpt><trkpt lat="43.3361867" lon="11.4066967"><ele>292.0</ele><time>2026-04-11T08:08:57.997Z</time></trkpt><trkpt lat="43.3361017" lon="11.406725"><ele>293.16666666666663</ele><time>2026-04-11T08:08:59.998Z</time></trkpt><trkpt lat="43.3360267" lon="11.40677"><ele>294.3333333333333</ele><time>2026-04-11T08:09:01.997Z</time></trkpt><trkpt lat="43.3359567" lon="11.4068367"><ele>295.5</ele><time>2026-04-11T08:09:03.997Z</time></trkpt><trkpt lat="43.3359" lon="11.4068967"><ele>296.6666666666667</ele><time>2026-04-11T08:09:05.997Z</time></trkpt><trkpt lat="43.3358417" lon="11.4069717"><ele>297.83333333333337</ele><time>2026-04-11T08:09:07.998Z</time></trkpt><trkpt lat="43.3357767" lon="11.4070617"><ele>299.0</ele><time>2026-04-11T08:09:09.997Z</time></trkpt><trkpt lat="43.3357083" lon="11.4071267"><ele>298.6666666666667</ele><time>2026-04-11T08:09:11.997Z</time></trkpt><trkpt lat="43.3356283" lon="11.4072033"><ele>298.33333333333337</ele><time>2026-04-11T08:09:13.997Z</time></trkpt><trkpt lat="43.33556" lon="11.4072717"><ele>298.0</ele><time>2026-04-11T08:09:15.997Z</time></trkpt><trkpt lat="43.3355" lon="11.407325"><ele>297.6666666666667</ele><time>2026-04-11T08:09:17.997Z</time></trkpt><trkpt lat="43.3354333" lon="11.4073567"><ele>297.3333333333333</ele><time>2026-04-11T08:09:19.997Z</time></trkpt><trkpt lat="43.3353667" lon="11.4073767"><ele>297.0</ele><time>2026-04-11T08:09:21.997Z</time></trkpt><trkpt lat="43.33529" lon="11.4073833"><ele>297.0</ele><time>2026-04-11T08:09:23.997Z</time></trkpt><trkpt lat="43.3352083" lon="11.4073933"><ele>297.0</ele><time>2026-04-11T08:09:25.998Z</time></trkpt><trkpt lat="43.335115" lon="11.4074067"><ele>297.0</ele><time>2026-04-11T08:09:27.997Z</time></trkpt><trkpt lat="43.335015" lon="11.4074317"><ele>297.0</ele><time>2026-04-11T08:09:29.997Z</time></trkpt><trkpt lat="43.3349117" lon="11.40746"><ele>297.0</ele><time>2026-04-11T08:09:31.997Z</time></trkpt><trkpt lat="43.3347817" lon="11.4074733"><ele>296.0</ele><time>2026-04-11T08:09:33.998Z</time></trkpt><trkpt lat="43.3346983" lon="11.4074783"><ele>295.0</ele><time>2026-04-11T08:09:34.997Z</time></trkpt><trkpt lat="43.3346133" lon="11.407485"><ele>294.0</ele><time>2026-04-11T08:09:35.997Z</time></trkpt><trkpt lat="43.3345367" lon="11.4074883"><ele>293.0</ele><time>2026-04-11T08:09:36.997Z</time></trkpt><trkpt lat="43.3344667" lon="11.407485"><ele>292.0</ele><time>2026-04-11T08:09:37.997Z</time></trkpt><trkpt lat="43.3344017" lon="11.4074683"><ele>291.0</ele><time>2026-04-11T08:09:38.997Z</time></trkpt><trkpt lat="43.3343417" lon="11.4074417"><ele>290.0</ele><time>2026-04-11T08:09:39.997Z</time></trkpt><trkpt lat="43.3342733" lon="11.4073183"><ele>290.0</ele><time>2026-04-11T08:09:41.997Z</time></trkpt><trkpt lat="43.33425" lon="11.407235"><ele>290.0</ele><time>2026-04-11T08:09:42.997Z</time></trkpt><trkpt lat="43.334235" lon="11.407145"><ele>290.0</ele><time>2026-04-11T08:09:43.997Z</time></trkpt><trkpt lat="43.33422" lon="11.4070417"><ele>290.0</ele><time>2026-04-11T08:09:44.997Z</time></trkpt><trkpt lat="43.3342083" lon="11.4069317"><ele>290.0</ele><time>2026-04-11T08:09:45.997Z</time></trkpt><trkpt lat="43.33419" lon="11.4068267"><ele>290.0</ele><time>2026-04-11T08:09:46.997Z</time></trkpt><trkpt lat="43.3341767" lon="11.406715"><ele>289.8571428571429</ele><time>2026-04-11T08:09:47.997Z</time></trkpt><trkpt lat="43.3341617" lon="11.40661"><ele>289.7142857142857</ele><time>2026-04-11T08:09:48.997Z</time></trkpt><trkpt lat="43.33415" lon="11.4065083"><ele>289.57142857142856</ele><time>2026-04-11T08:09:49.997Z</time></trkpt><trkpt lat="43.3341367" lon="11.4064083"><ele>289.42857142857144</ele><time>2026-04-11T08:09:50.997Z</time></trkpt><trkpt lat="43.334125" lon="11.4063033"><ele>289.2857142857143</ele><time>2026-04-11T08:09:51.997Z</time></trkpt><trkpt lat="43.3341133" lon="11.4062067"><ele>289.14285714285717</ele><time>2026-04-11T08:09:52.998Z</time></trkpt><trkpt lat="43.3340983" lon="11.40611"><ele>289.0</ele><time>2026-04-11T08:09:53.998Z</time></trkpt><trkpt lat="43.3340833" lon="11.4060133"><ele>288.57142857142856</ele><time>2026-04-11T08:09:54.997Z</time></trkpt><trkpt lat="43.334075" lon="11.4059217"><ele>288.1428571428571</ele><time>2026-04-11T08:09:55.997Z</time></trkpt><trkpt lat="43.33408" lon="11.4058267"><ele>287.71428571428567</ele><time>2026-04-11T08:09:56.997Z</time></trkpt><trkpt lat="43.3340883" lon="11.40574"><ele>287.2857142857143</ele><time>2026-04-11T08:09:57.997Z</time></trkpt><trkpt lat="43.3341" lon="11.4056467"><ele>286.85714285714283</ele><time>2026-04-11T08:09:58.997Z</time></trkpt><trkpt lat="43.3341067" lon="11.405545"><ele>286.4285714285714</ele><time>2026-04-11T08:09:59.998Z</time></trkpt><trkpt lat="43.3341183" lon="11.4054433"><ele>286.0</ele><time>2026-04-11T08:10:00.997Z</time></trkpt><trkpt lat="43.33413" lon="11.40534"><ele>285.3333333333333</ele><time>2026-04-11T08:10:01.998Z</time></trkpt><trkpt lat="43.3341417" lon="11.4052283"><ele>284.66666666666663</ele><time>2026-04-11T08:10:02.997Z</time></trkpt><trkpt lat="43.3341517" lon="11.4051217"><ele>284.0</ele><time>2026-04-11T08:10:03.997Z</time></trkpt><trkpt lat="43.33416" lon="11.40501"><ele>283.3333333333333</ele><time>2026-04-11T08:10:04.997Z</time></trkpt><trkpt lat="43.33417" lon="11.4049"><ele>282.6666666666667</ele><time>2026-04-11T08:10:05.997Z</time></trkpt><trkpt lat="43.3341733" lon="11.4047983"><ele>282.0</ele><time>2026-04-11T08:10:06.997Z</time></trkpt><trkpt lat="43.33418" lon="11.4046933"><ele>282.0</ele><time>2026-04-11T08:10:07.997Z</time></trkpt><trkpt lat="43.334185" lon="11.4045967"><ele>282.0</ele><time>2026-04-11T08:10:08.997Z</time></trkpt><trkpt lat="43.3341867" lon="11.4045083"><ele>282.0</ele><time>2026-04-11T08:10:09.997Z</time></trkpt><trkpt lat="43.3341983" lon="11.4043417"><ele>282.0</ele><time>2026-04-11T08:10:11.997Z</time></trkpt><trkpt lat="43.3341933" lon="11.4041817"><ele>282.0</ele><time>2026-04-11T08:10:13.997Z</time></trkpt><trkpt lat="43.334145" lon="11.4040583"><ele>282.0</ele><time>2026-04-11T08:10:15.997Z</time></trkpt><trkpt lat="43.3340617" lon="11.4040233"><ele>282.0</ele><time>2026-04-11T08:10:17.997Z</time></trkpt><trkpt lat="43.3339567" lon="11.4040633"><ele>282.0</ele><time>2026-04-11T08:10:19.997Z</time></trkpt><trkpt lat="43.33384" lon="11.4041383"><ele>282.0</ele><time>2026-04-11T08:10:21.997Z</time></trkpt><trkpt lat="43.3337817" lon="11.4041733"><ele>282.0</ele><time>2026-04-11T08:10:22.997Z</time></trkpt><trkpt lat="43.3336733" lon="11.4042267"><ele>281.5</ele><time>2026-04-11T08:10:24.998Z</time></trkpt><trkpt lat="43.3335633" lon="11.4042783"><ele>281.0</ele><time>2026-04-11T08:10:26.997Z</time></trkpt><trkpt lat="43.3334467" lon="11.4043417"><ele>280.5</ele><time>2026-04-11T08:10:28.997Z</time></trkpt><trkpt lat="43.33333" lon="11.404395"><ele>280.0</ele><time>2026-04-11T08:10:30.997Z</time></trkpt><trkpt lat="43.333215" lon="11.4044517"><ele>280.0</ele><time>2026-04-11T08:10:32.997Z</time></trkpt><trkpt lat="43.3331" lon="11.4045"><ele>280.0</ele><time>2026-04-11T08:10:34.997Z</time></trkpt><trkpt lat="43.33304" lon="11.4045283"><ele>280.0</ele><time>2026-04-11T08:10:35.997Z</time></trkpt><trkpt lat="43.3329767" lon="11.40456"><ele>280.0</ele><time>2026-04-11T08:10:36.997Z</time></trkpt><trkpt lat="43.3329183" lon="11.404595"><ele>280.0</ele><time>2026-04-11T08:10:37.997Z</time></trkpt><trkpt lat="43.332855" lon="11.4046317"><ele>280.0</ele><time>2026-04-11T08:10:38.997Z</time></trkpt><trkpt lat="43.332795" lon="11.4046617"><ele>280.0</ele><time>2026-04-11T08:10:39.997Z</time></trkpt><trkpt lat="43.3327317" lon="11.4046983"><ele>279.5</ele><time>2026-04-11T08:10:40.997Z</time></trkpt><trkpt lat="43.33267" lon="11.4047383"><ele>279.0</ele><time>2026-04-11T08:10:41.997Z</time></trkpt><trkpt lat="43.3326083" lon="11.4047733"><ele>278.5</ele><time>2026-04-11T08:10:42.997Z</time></trkpt><trkpt lat="43.332545" lon="11.404805"><ele>278.0</ele><time>2026-04-11T08:10:43.997Z</time></trkpt><trkpt lat="43.3324767" lon="11.4048367"><ele>277.5</ele><time>2026-04-11T08:10:44.997Z</time></trkpt><trkpt lat="43.3324167" lon="11.40487"><ele>277.0</ele><time>2026-04-11T08:10:45.997Z</time></trkpt><trkpt lat="43.332305" lon="11.4049367"><ele>277.0</ele><time>2026-04-11T08:10:47.997Z</time></trkpt><trkpt lat="43.3322467" lon="11.40497"><ele>277.0</ele><time>2026-04-11T08:10:48.997Z</time></trkpt><trkpt lat="43.332185" lon="11.4050067"><ele>277.0</ele><time>2026-04-11T08:10:49.997Z</time></trkpt><trkpt lat="43.33212" lon="11.4050383"><ele>277.0</ele><time>2026-04-11T08:10:50.997Z</time></trkpt><trkpt lat="43.3320083" lon="11.4051167"><ele>277.0</ele><time>2026-04-11T08:10:52.997Z</time></trkpt><trkpt lat="43.3319483" lon="11.4051583"><ele>277.0</ele><time>2026-04-11T08:10:53.997Z</time></trkpt><trkpt lat="43.3318867" lon="11.405195"><ele>277.1428571428571</ele><time>2026-04-11T08:10:54.997Z</time></trkpt><trkpt lat="43.33182" lon="11.40522"><ele>277.2857142857143</ele><time>2026-04-11T08:10:55.998Z</time></trkpt><trkpt lat="43.331755" lon="11.40524"><ele>277.42857142857144</ele><time>2026-04-11T08:10:56.998Z</time></trkpt><trkpt lat="43.33168" lon="11.40525"><ele>277.57142857142856</ele><time>2026-04-11T08:10:57.997Z</time></trkpt><trkpt lat="43.3316117" lon="11.4052617"><ele>277.7142857142857</ele><time>2026-04-11T08:10:58.998Z</time></trkpt><trkpt lat="43.3315433" lon="11.4052717"><ele>277.85714285714283</ele><time>2026-04-11T08:10:59.997Z</time></trkpt><trkpt lat="43.331475" lon="11.40528"><ele>278.0</ele><time>2026-04-11T08:11:00.998Z</time></trkpt><trkpt lat="43.331405" lon="11.4052883"><ele>277.1428571428571</ele><time>2026-04-11T08:11:01.997Z</time></trkpt><trkpt lat="43.331335" lon="11.4053"><ele>276.2857142857143</ele><time>2026-04-11T08:11:02.997Z</time></trkpt><trkpt lat="43.331265" lon="11.4053233"><ele>275.42857142857144</ele><time>2026-04-11T08:11:03.997Z</time></trkpt><trkpt lat="43.331195" lon="11.40534"><ele>274.57142857142856</ele><time>2026-04-11T08:11:04.997Z</time></trkpt><trkpt lat="43.3311217" lon="11.4053617"><ele>273.7142857142857</ele><time>2026-04-11T08:11:05.997Z</time></trkpt><trkpt lat="43.3310483" lon="11.405385"><ele>272.85714285714283</ele><time>2026-04-11T08:11:06.997Z</time></trkpt><trkpt lat="43.330975" lon="11.4054133"><ele>272.0</ele><time>2026-04-11T08:11:07.997Z</time></trkpt><trkpt lat="43.3309" lon="11.405435"><ele>272.0</ele><time>2026-04-11T08:11:08.997Z</time></trkpt><trkpt lat="43.330825" lon="11.4054583"><ele>272.0</ele><time>2026-04-11T08:11:09.997Z</time></trkpt><trkpt lat="43.3307567" lon="11.4054833"><ele>272.0</ele><time>2026-04-11T08:11:10.997Z</time></trkpt><trkpt lat="43.3306833" lon="11.40551"><ele>272.0</ele><time>2026-04-11T08:11:11.997Z</time></trkpt><trkpt lat="43.3306083" lon="11.4055333"><ele>272.0</ele><time>2026-04-11T08:11:12.997Z</time></trkpt><trkpt lat="43.33053" lon="11.4055617"><ele>272.0</ele><time>2026-04-11T08:11:13.997Z</time></trkpt><trkpt lat="43.330455" lon="11.4055883"><ele>270.6666666666667</ele><time>2026-04-11T08:11:14.997Z</time></trkpt><trkpt lat="43.3303783" lon="11.40562"><ele>269.33333333333337</ele><time>2026-04-11T08:11:15.997Z</time></trkpt><trkpt lat="43.3303017" lon="11.4056517"><ele>268.0</ele><time>2026-04-11T08:11:16.997Z</time></trkpt><trkpt lat="43.3302217" lon="11.4056883"><ele>266.6666666666667</ele><time>2026-04-11T08:11:17.997Z</time></trkpt><trkpt lat="43.3301383" lon="11.40573"><ele>265.3333333333333</ele><time>2026-04-11T08:11:18.998Z</time></trkpt><trkpt lat="43.3300533" lon="11.4057783"><ele>264.0</ele><time>2026-04-11T08:11:19.997Z</time></trkpt><trkpt lat="43.3299683" lon="11.40583"><ele>264.0</ele><time>2026-04-11T08:11:20.997Z</time></trkpt><trkpt lat="43.329885" lon="11.4058783"><ele>264.0</ele><time>2026-04-11T08:11:21.997Z</time></trkpt><trkpt lat="43.3298033" lon="11.4059367"><ele>264.0</ele><time>2026-04-11T08:11:22.998Z</time></trkpt><trkpt lat="43.3297217" lon="11.4059983"><ele>264.0</ele><time>2026-04-11T08:11:23.997Z</time></trkpt><trkpt lat="43.329645" lon="11.4060567"><ele>264.0</ele><time>2026-04-11T08:11:24.997Z</time></trkpt><trkpt lat="43.32957" lon="11.4061233"><ele>263.0</ele><time>2026-04-11T08:11:25.997Z</time></trkpt><trkpt lat="43.3294967" lon="11.4062067"><ele>262.0</ele><time>2026-04-11T08:11:26.995Z</time></trkpt><trkpt lat="43.3294233" lon="11.40629"><ele>261.0</ele><time>2026-04-11T08:11:27.997Z</time></trkpt><trkpt lat="43.3293517" lon="11.4063733"><ele>260.0</ele><time>2026-04-11T08:11:28.997Z</time></trkpt><trkpt lat="43.329285" lon="11.4064583"><ele>259.0</ele><time>2026-04-11T08:11:29.997Z</time></trkpt><trkpt lat="43.3292117" lon="11.4065517"><ele>258.8</ele><time>2026-04-11T08:11:30.998Z</time></trkpt><trkpt lat="43.32914" lon="11.4066417"><ele>258.59999999999997</ele><time>2026-04-11T08:11:31.997Z</time></trkpt><trkpt lat="43.3290617" lon="11.4067317"><ele>258.4</ele><time>2026-04-11T08:11:32.997Z</time></trkpt><trkpt lat="43.328985" lon="11.4068183"><ele>258.2</ele><time>2026-04-11T08:11:33.998Z</time></trkpt><trkpt lat="43.3289133" lon="11.4069117"><ele>258.0</ele><time>2026-04-11T08:11:34.997Z</time></trkpt><trkpt lat="43.3288467" lon="11.406995"><ele>257.8</ele><time>2026-04-11T08:11:35.997Z</time></trkpt><trkpt lat="43.3287783" lon="11.4070783"><ele>257.6</ele><time>2026-04-11T08:11:36.997Z</time></trkpt><trkpt lat="43.3287083" lon="11.407155"><ele>257.4</ele><time>2026-04-11T08:11:37.997Z</time></trkpt><trkpt lat="43.32864" lon="11.4072383"><ele>257.2</ele><time>2026-04-11T08:11:38.997Z</time></trkpt><trkpt lat="43.3285717" lon="11.4073183"><ele>257.0</ele><time>2026-04-11T08:11:39.997Z</time></trkpt><trkpt lat="43.3285033" lon="11.4074067"><ele>256.2</ele><time>2026-04-11T08:11:40.998Z</time></trkpt><trkpt lat="43.3284333" lon="11.4074933"><ele>255.39999999999998</ele><time>2026-04-11T08:11:41.998Z</time></trkpt><trkpt lat="43.3283667" lon="11.40757"><ele>254.60000000000002</ele><time>2026-04-11T08:11:42.997Z</time></trkpt><trkpt lat="43.3282933" lon="11.4076483"><ele>253.8</ele><time>2026-04-11T08:11:43.997Z</time></trkpt><trkpt lat="43.3282217" lon="11.4077267"><ele>253.0</ele><time>2026-04-11T08:11:44.997Z</time></trkpt><trkpt lat="43.328155" lon="11.40781"><ele>252.99999999999997</ele><time>2026-04-11T08:11:45.997Z</time></trkpt><trkpt lat="43.3280917" lon="11.407885"><ele>253.0</ele><time>2026-04-11T08:11:46.997Z</time></trkpt><trkpt lat="43.328045" lon="11.4079517"><ele>253.0</ele><time>2026-04-11T08:11:47.998Z</time></trkpt><trkpt lat="43.3279833" lon="11.40802"><ele>253.0</ele><time>2026-04-11T08:11:48.997Z</time></trkpt><trkpt lat="43.3279283" lon="11.40809"><ele>252.99999999999997</ele><time>2026-04-11T08:11:49.997Z</time></trkpt><trkpt lat="43.3278717" lon="11.4081567"><ele>253.0</ele><time>2026-04-11T08:11:50.997Z</time></trkpt><trkpt lat="43.327815" lon="11.4082233"><ele>253.00000000000003</ele><time>2026-04-11T08:11:51.997Z</time></trkpt><trkpt lat="43.3277583" lon="11.408285"><ele>253.0</ele><time>2026-04-11T08:11:52.997Z</time></trkpt><trkpt lat="43.3277067" lon="11.4083417"><ele>253.00000000000003</ele><time>2026-04-11T08:11:53.997Z</time></trkpt><trkpt lat="43.327655" lon="11.4084083"><ele>253.00000000000003</ele><time>2026-04-11T08:11:54.997Z</time></trkpt><trkpt lat="43.3275967" lon="11.4084683"><ele>253.0</ele><time>2026-04-11T08:11:55.997Z</time></trkpt><trkpt lat="43.3275483" lon="11.4085267"><ele>253.00000000000003</ele><time>2026-04-11T08:11:56.997Z</time></trkpt><trkpt lat="43.3275" lon="11.4085917"><ele>253.00000000000003</ele><time>2026-04-11T08:11:57.997Z</time></trkpt><trkpt lat="43.327445" lon="11.4086533"><ele>252.99999999999997</ele><time>2026-04-11T08:11:58.997Z</time></trkpt><trkpt lat="43.3273867" lon="11.40872"><ele>253.0</ele><time>2026-04-11T08:11:59.998Z</time></trkpt><trkpt lat="43.3273283" lon="11.4087883"><ele>253.0</ele><time>2026-04-11T08:12:00.997Z</time></trkpt><trkpt lat="43.3272633" lon="11.4088533"><ele>253.0</ele><time>2026-04-11T08:12:01.997Z</time></trkpt><trkpt lat="43.3272033" lon="11.4089133"><ele>252.99999999999997</ele><time>2026-04-11T08:12:02.997Z</time></trkpt><trkpt lat="43.327145" lon="11.4089817"><ele>253.0</ele><time>2026-04-11T08:12:03.998Z</time></trkpt><trkpt lat="43.32709" lon="11.40905"><ele>252.00000000000003</ele><time>2026-04-11T08:12:04.997Z</time></trkpt><trkpt lat="43.3270383" lon="11.4091133"><ele>251.0</ele><time>2026-04-11T08:12:05.997Z</time></trkpt><trkpt lat="43.3269917" lon="11.4091817"><ele>250.00000000000003</ele><time>2026-04-11T08:12:06.997Z</time></trkpt><trkpt lat="43.3269483" lon="11.4092533"><ele>249.00000000000003</ele><time>2026-04-11T08:12:07.997Z</time></trkpt><trkpt lat="43.3269067" lon="11.409325"><ele>248.0</ele><time>2026-04-11T08:12:08.997Z</time></trkpt><trkpt lat="43.326865" lon="11.4093967"><ele>247.00000000000003</ele><time>2026-04-11T08:12:09.997Z</time></trkpt><trkpt lat="43.326815" lon="11.4094717"><ele>246.00000000000003</ele><time>2026-04-11T08:12:10.997Z</time></trkpt><trkpt lat="43.32676" lon="11.409555"><ele>246.0</ele><time>2026-04-11T08:12:11.998Z</time></trkpt><trkpt lat="43.3267" lon="11.4096317"><ele>246.0</ele><time>2026-04-11T08:12:12.997Z</time></trkpt><trkpt lat="43.3266383" lon="11.4097033"><ele>246.0</ele><time>2026-04-11T08:12:13.997Z</time></trkpt><trkpt lat="43.3265733" lon="11.4097733"><ele>246.0</ele><time>2026-04-11T08:12:14.997Z</time></trkpt><trkpt lat="43.3265133" lon="11.40984"><ele>246.0</ele><time>2026-04-11T08:12:15.997Z</time></trkpt><trkpt lat="43.32645" lon="11.4099033"><ele>246.0</ele><time>2026-04-11T08:12:16.997Z</time></trkpt><trkpt lat="43.3263883" lon="11.4099733"><ele>245.4</ele><time>2026-04-11T08:12:17.997Z</time></trkpt><trkpt lat="43.32633" lon="11.4100433"><ele>244.8</ele><time>2026-04-11T08:12:18.997Z</time></trkpt><trkpt lat="43.3262767" lon="11.41011"><ele>244.20000000000002</ele><time>2026-04-11T08:12:19.997Z</time></trkpt><trkpt lat="43.3261833" lon="11.41022"><ele>243.60000000000002</ele><time>2026-04-11T08:12:21.998Z</time></trkpt><trkpt lat="43.32609" lon="11.4103067"><ele>243.0</ele><time>2026-04-11T08:12:23.997Z</time></trkpt><trkpt lat="43.325985" lon="11.4102933"><ele>243.0</ele><time>2026-04-11T08:12:25.997Z</time></trkpt><trkpt lat="43.3259333" lon="11.41023"><ele>243.0</ele><time>2026-04-11T08:12:26.997Z</time></trkpt><trkpt lat="43.3258883" lon="11.410135"><ele>243.0</ele><time>2026-04-11T08:12:27.997Z</time></trkpt><trkpt lat="43.32585" lon="11.4100233"><ele>243.0</ele><time>2026-04-11T08:12:28.998Z</time></trkpt><trkpt lat="43.32583" lon="11.4099017"><ele>243.0</ele><time>2026-04-11T08:12:29.997Z</time></trkpt><trkpt lat="43.3258183" lon="11.4097683"><ele>243.0</ele><time>2026-04-11T08:12:30.997Z</time></trkpt><trkpt lat="43.3258167" lon="11.40962"><ele>241.0</ele><time>2026-04-11T08:12:31.997Z</time></trkpt><trkpt lat="43.3258233" lon="11.4094667"><ele>239.0</ele><time>2026-04-11T08:12:32.998Z</time></trkpt><trkpt lat="43.3258267" lon="11.4093083"><ele>237.0</ele><time>2026-04-11T08:12:33.997Z</time></trkpt><trkpt lat="43.325825" lon="11.40914"><ele>235.0</ele><time>2026-04-11T08:12:34.997Z</time></trkpt><trkpt lat="43.3258217" lon="11.408955"><ele>234.0</ele><time>2026-04-11T08:12:35.997Z</time></trkpt><trkpt lat="43.325805" lon="11.4087583"><ele>233.0</ele><time>2026-04-11T08:12:36.997Z</time></trkpt><trkpt lat="43.3257867" lon="11.4085583"><ele>232.0</ele><time>2026-04-11T08:12:37.997Z</time></trkpt><trkpt lat="43.3257617" lon="11.4083517"><ele>231.0</ele><time>2026-04-11T08:12:38.997Z</time></trkpt><trkpt lat="43.3257383" lon="11.4081433"><ele>230.0</ele><time>2026-04-11T08:12:39.997Z</time></trkpt><trkpt lat="43.3257117" lon="11.4079467"><ele>229.0</ele><time>2026-04-11T08:12:40.998Z</time></trkpt><trkpt lat="43.3256917" lon="11.40774"><ele>228.0</ele><time>2026-04-11T08:12:41.998Z</time></trkpt><trkpt lat="43.3256717" lon="11.407545"><ele>227.0</ele><time>2026-04-11T08:12:42.997Z</time></trkpt><trkpt lat="43.3256567" lon="11.4073517"><ele>226.0</ele><time>2026-04-11T08:12:43.997Z</time></trkpt><trkpt lat="43.3256317" lon="11.40715"><ele>225.0</ele><time>2026-04-11T08:12:44.998Z</time></trkpt><trkpt lat="43.32561" lon="11.40696"><ele>224.0</ele><time>2026-04-11T08:12:45.997Z</time></trkpt><trkpt lat="43.3255767" lon="11.4067683"><ele>223.0</ele><time>2026-04-11T08:12:46.997Z</time></trkpt><trkpt lat="43.3255233" lon="11.406595"><ele>223.0</ele><time>2026-04-11T08:12:47.997Z</time></trkpt><trkpt lat="43.3254567" lon="11.4064417"><ele>223.0</ele><time>2026-04-11T08:12:48.997Z</time></trkpt><trkpt lat="43.3253717" lon="11.4062983"><ele>223.0</ele><time>2026-04-11T08:12:49.997Z</time></trkpt><trkpt lat="43.3252967" lon="11.4061567"><ele>223.0</ele><time>2026-04-11T08:12:50.997Z</time></trkpt><trkpt lat="43.3252333" lon="11.4060133"><ele>221.5</ele><time>2026-04-11T08:12:51.997Z</time></trkpt><trkpt lat="43.3251783" lon="11.4058617"><ele>220.0</ele><time>2026-04-11T08:12:52.997Z</time></trkpt><trkpt lat="43.3251283" lon="11.405705"><ele>218.5</ele><time>2026-04-11T08:12:53.997Z</time></trkpt><trkpt lat="43.3250783" lon="11.405555"><ele>217.0</ele><time>2026-04-11T08:12:54.997Z</time></trkpt><trkpt lat="43.325045" lon="11.405405"><ele>216.6</ele><time>2026-04-11T08:12:55.997Z</time></trkpt><trkpt lat="43.3250117" lon="11.40526"><ele>216.2</ele><time>2026-04-11T08:12:56.998Z</time></trkpt><trkpt lat="43.3249833" lon="11.4051067"><ele>215.8</ele><time>2026-04-11T08:12:57.998Z</time></trkpt><trkpt lat="43.3249617" lon="11.404955"><ele>215.4</ele><time>2026-04-11T08:12:58.997Z</time></trkpt><trkpt lat="43.3249517" lon="11.40481"><ele>215.0</ele><time>2026-04-11T08:12:59.997Z</time></trkpt><trkpt lat="43.3249467" lon="11.4046617"><ele>214.8</ele><time>2026-04-11T08:13:00.998Z</time></trkpt><trkpt lat="43.3249417" lon="11.40452"><ele>214.6</ele><time>2026-04-11T08:13:01.997Z</time></trkpt><trkpt lat="43.32494" lon="11.4043783"><ele>214.39999999999998</ele><time>2026-04-11T08:13:02.997Z</time></trkpt><trkpt lat="43.3249367" lon="11.40424"><ele>214.2</ele><time>2026-04-11T08:13:03.997Z</time></trkpt><trkpt lat="43.3249367" lon="11.4041067"><ele>214.0</ele><time>2026-04-11T08:13:04.997Z</time></trkpt><trkpt lat="43.3249383" lon="11.4039733"><ele>213.99999999999997</ele><time>2026-04-11T08:13:05.997Z</time></trkpt><trkpt lat="43.3249417" lon="11.4038517"><ele>214.0</ele><time>2026-04-11T08:13:06.997Z</time></trkpt><trkpt lat="43.324945" lon="11.403735"><ele>214.0</ele><time>2026-04-11T08:13:07.997Z</time></trkpt><trkpt lat="43.3249517" lon="11.40362"><ele>214.0</ele><time>2026-04-11T08:13:08.997Z</time></trkpt><trkpt lat="43.324965" lon="11.4035083"><ele>213.99999999999997</ele><time>2026-04-11T08:13:09.997Z</time></trkpt><trkpt lat="43.3249733" lon="11.4033983"><ele>214.0</ele><time>2026-04-11T08:13:10.997Z</time></trkpt><trkpt lat="43.324985" lon="11.4032967"><ele>213.71428571428572</ele><time>2026-04-11T08:13:11.997Z</time></trkpt><trkpt lat="43.3249917" lon="11.4032017"><ele>213.42857142857144</ele><time>2026-04-11T08:13:12.997Z</time></trkpt><trkpt lat="43.3249983" lon="11.4031117"><ele>213.14285714285717</ele><time>2026-04-11T08:13:13.997Z</time></trkpt><trkpt lat="43.325005" lon="11.4030217"><ele>212.85714285714286</ele><time>2026-04-11T08:13:14.997Z</time></trkpt><trkpt lat="43.3250133" lon="11.402935"><ele>212.57142857142856</ele><time>2026-04-11T08:13:15.997Z</time></trkpt><trkpt lat="43.32503" lon="11.4027917"><ele>212.2857142857143</ele><time>2026-04-11T08:13:17.998Z</time></trkpt><trkpt lat="43.32504" lon="11.4026933"><ele>212.0</ele><time>2026-04-11T08:13:19.997Z</time></trkpt><trkpt lat="43.3250483" lon="11.4025767"><ele>212.57142857142858</ele><time>2026-04-11T08:13:22.997Z</time></trkpt><trkpt lat="43.325055" lon="11.40248"><ele>213.14285714285714</ele><time>2026-04-11T08:13:25.997Z</time></trkpt><trkpt lat="43.325055" lon="11.402385"><ele>213.71428571428572</ele><time>2026-04-11T08:13:28.997Z</time></trkpt><trkpt lat="43.32506" lon="11.4022867"><ele>214.28571428571428</ele><time>2026-04-11T08:13:31.997Z</time></trkpt><trkpt lat="43.3250633" lon="11.4021883"><ele>214.85714285714283</ele><time>2026-04-11T08:13:36.997Z</time></trkpt><trkpt lat="43.3250717" lon="11.4020983"><ele>215.42857142857142</ele><time>2026-04-11T08:13:40.997Z</time></trkpt><trkpt lat="43.3250733" lon="11.4019917"><ele>216.0</ele><time>2026-04-11T08:13:45.998Z</time></trkpt><trkpt lat="43.3250833" lon="11.4018917"><ele>217.42857142857142</ele><time>2026-04-11T08:13:49.997Z</time></trkpt><trkpt lat="43.3250867" lon="11.4017883"><ele>218.85714285714283</ele><time>2026-04-11T08:13:53.997Z</time></trkpt><trkpt lat="43.3250917" lon="11.4016867"><ele>220.28571428571428</ele><time>2026-04-11T08:13:57.997Z</time></trkpt><trkpt lat="43.3251017" lon="11.4015817"><ele>221.71428571428572</ele><time>2026-04-11T08:14:01.997Z</time></trkpt><trkpt lat="43.3251017" lon="11.401485"><ele>223.14285714285714</ele><time>2026-04-11T08:14:05.997Z</time></trkpt><trkpt lat="43.325105" lon="11.40139"><ele>224.57142857142858</ele><time>2026-04-11T08:14:09.997Z</time></trkpt><trkpt lat="43.325095" lon="11.4013017"><ele>226.0</ele><time>2026-04-11T08:14:13.997Z</time></trkpt><trkpt lat="43.32508" lon="11.401195"><ele>226.71428571428572</ele><time>2026-04-11T08:14:18.997Z</time></trkpt><trkpt lat="43.325075" lon="11.401105"><ele>227.42857142857142</ele><time>2026-04-11T08:14:22.997Z</time></trkpt><trkpt lat="43.325075" lon="11.4010117"><ele>228.14285714285714</ele><time>2026-04-11T08:14:26.997Z</time></trkpt><trkpt lat="43.3250717" lon="11.4009233"><ele>228.85714285714286</ele><time>2026-04-11T08:14:30.997Z</time></trkpt><trkpt lat="43.325075" lon="11.40083"><ele>229.57142857142856</ele><time>2026-04-11T08:14:34.997Z</time></trkpt><trkpt lat="43.3250817" lon="11.4007383"><ele>230.28571428571428</ele><time>2026-04-11T08:14:38.998Z</time></trkpt><trkpt lat="43.3250817" lon="11.4006467"><ele>231.0</ele><time>2026-04-11T08:14:42.997Z</time></trkpt><trkpt lat="43.3250917" lon="11.40054"><ele>231.71428571428572</ele><time>2026-04-11T08:14:46.998Z</time></trkpt><trkpt lat="43.32511" lon="11.400455"><ele>232.42857142857144</ele><time>2026-04-11T08:14:50.997Z</time></trkpt><trkpt lat="43.3251317" lon="11.40037"><ele>233.14285714285714</ele><time>2026-04-11T08:14:53.997Z</time></trkpt><trkpt lat="43.3251517" lon="11.4002733"><ele>233.85714285714286</ele><time>2026-04-11T08:14:57.998Z</time></trkpt><trkpt lat="43.3251583" lon="11.4001733"><ele>234.57142857142858</ele><time>2026-04-11T08:15:01.997Z</time></trkpt><trkpt lat="43.3251567" lon="11.4000867"><ele>235.28571428571428</ele><time>2026-04-11T08:15:04.998Z</time></trkpt><trkpt lat="43.3251633" lon="11.3999833"><ele>236.0</ele><time>2026-04-11T08:15:07.997Z</time></trkpt><trkpt lat="43.3251633" lon="11.399885"><ele>236.0</ele><time>2026-04-11T08:15:10.997Z</time></trkpt><trkpt lat="43.325155" lon="11.399795"><ele>236.0</ele><time>2026-04-11T08:15:13.997Z</time></trkpt><trkpt lat="43.3251517" lon="11.3997033"><ele>236.0</ele><time>2026-04-11T08:15:16.997Z</time></trkpt><trkpt lat="43.3251517" lon="11.3996"><ele>236.0</ele><time>2026-04-11T08:15:19.998Z</time></trkpt><trkpt lat="43.325145" lon="11.3994967"><ele>236.0</ele><time>2026-04-11T08:15:22.997Z</time></trkpt><trkpt lat="43.3251367" lon="11.3993933"><ele>236.0</ele><time>2026-04-11T08:15:25.998Z</time></trkpt><trkpt lat="43.32513" lon="11.39929"><ele>236.0</ele><time>2026-04-11T08:15:28.997Z</time></trkpt><trkpt lat="43.3251217" lon="11.3991983"><ele>236.83333333333334</ele><time>2026-04-11T08:15:31.997Z</time></trkpt><trkpt lat="43.32512" lon="11.399075"><ele>237.66666666666669</ele><time>2026-04-11T08:15:34.997Z</time></trkpt><trkpt lat="43.3251133" lon="11.3989867"><ele>238.5</ele><time>2026-04-11T08:15:36.997Z</time></trkpt><trkpt lat="43.32511" lon="11.3988983"><ele>239.33333333333331</ele><time>2026-04-11T08:15:38.997Z</time></trkpt><trkpt lat="43.3250967" lon="11.3987717"><ele>240.16666666666666</ele><time>2026-04-11T08:15:41.997Z</time></trkpt><trkpt lat="43.3250933" lon="11.3986533"><ele>241.0</ele><time>2026-04-11T08:15:44.998Z</time></trkpt><trkpt lat="43.3250917" lon="11.3985417"><ele>241.99999999999997</ele><time>2026-04-11T08:15:47.997Z</time></trkpt><trkpt lat="43.3250833" lon="11.3984317"><ele>243.0</ele><time>2026-04-11T08:15:50.997Z</time></trkpt><trkpt lat="43.32508" lon="11.3983183"><ele>244.0</ele><time>2026-04-11T08:15:53.997Z</time></trkpt><trkpt lat="43.3250817" lon="11.3981967"><ele>245.0</ele><time>2026-04-11T08:15:56.997Z</time></trkpt><trkpt lat="43.3250817" lon="11.3980833"><ele>245.99999999999997</ele><time>2026-04-11T08:15:59.997Z</time></trkpt><trkpt lat="43.3250767" lon="11.3979617"><ele>247.0</ele><time>2026-04-11T08:16:02.997Z</time></trkpt><trkpt lat="43.325095" lon="11.3978367"><ele>247.33333333333331</ele><time>2026-04-11T08:16:05.998Z</time></trkpt><trkpt lat="43.3251167" lon="11.39772"><ele>247.66666666666666</ele><time>2026-04-11T08:16:08.997Z</time></trkpt><trkpt lat="43.32515" lon="11.3976167"><ele>248.0</ele><time>2026-04-11T08:16:11.998Z</time></trkpt><trkpt lat="43.3251917" lon="11.3975067"><ele>248.33333333333331</ele><time>2026-04-11T08:16:14.997Z</time></trkpt><trkpt lat="43.3252267" lon="11.3974233"><ele>248.66666666666666</ele><time>2026-04-11T08:16:16.997Z</time></trkpt><trkpt lat="43.3252617" lon="11.3973383"><ele>249.0</ele><time>2026-04-11T08:16:18.997Z</time></trkpt><trkpt lat="43.3252867" lon="11.3972533"><ele>248.66666666666666</ele><time>2026-04-11T08:16:20.997Z</time></trkpt><trkpt lat="43.325315" lon="11.39716"><ele>248.33333333333331</ele><time>2026-04-11T08:16:22.998Z</time></trkpt><trkpt lat="43.3253483" lon="11.3970633"><ele>248.0</ele><time>2026-04-11T08:16:24.997Z</time></trkpt><trkpt lat="43.325375" lon="11.3969733"><ele>247.66666666666666</ele><time>2026-04-11T08:16:26.997Z</time></trkpt><trkpt lat="43.3254033" lon="11.3968867"><ele>247.33333333333331</ele><time>2026-04-11T08:16:28.997Z</time></trkpt><trkpt lat="43.3254233" lon="11.3968033"><ele>247.0</ele><time>2026-04-11T08:16:30.998Z</time></trkpt><trkpt lat="43.3254617" lon="11.3966833"><ele>246.99999999999997</ele><time>2026-04-11T08:16:33.998Z</time></trkpt><trkpt lat="43.3254883" lon="11.3965667"><ele>247.0</ele><time>2026-04-11T08:16:36.997Z</time></trkpt><trkpt lat="43.3255117" lon="11.3964767"><ele>247.0</ele><time>2026-04-11T08:16:38.998Z</time></trkpt><trkpt lat="43.3255333" lon="11.396395"><ele>247.0</ele><time>2026-04-11T08:16:40.997Z</time></trkpt><trkpt lat="43.3255633" lon="11.3962933"><ele>246.99999999999997</ele><time>2026-04-11T08:16:42.998Z</time></trkpt><trkpt lat="43.3255983" lon="11.3961867"><ele>247.0</ele><time>2026-04-11T08:16:44.997Z</time></trkpt><trkpt lat="43.3256317" lon="11.396075"><ele>247.49999999999997</ele><time>2026-04-11T08:16:46.997Z</time></trkpt><trkpt lat="43.3256567" lon="11.3959683"><ele>248.0</ele><time>2026-04-11T08:16:48.997Z</time></trkpt><trkpt lat="43.32567" lon="11.39584"><ele>248.5</ele><time>2026-04-11T08:16:50.997Z</time></trkpt><trkpt lat="43.3256817" lon="11.3957033"><ele>249.0</ele><time>2026-04-11T08:16:52.998Z</time></trkpt><trkpt lat="43.3256817" lon="11.3955833"><ele>249.49999999999997</ele><time>2026-04-11T08:16:54.997Z</time></trkpt><trkpt lat="43.325685" lon="11.3954667"><ele>250.0</ele><time>2026-04-11T08:16:56.997Z</time></trkpt><trkpt lat="43.3256883" lon="11.3953483"><ele>250.33333333333331</ele><time>2026-04-11T08:16:58.997Z</time></trkpt><trkpt lat="43.3256883" lon="11.395235"><ele>250.66666666666666</ele><time>2026-04-11T08:17:00.998Z</time></trkpt><trkpt lat="43.32569" lon="11.39513"><ele>251.0</ele><time>2026-04-11T08:17:02.997Z</time></trkpt><trkpt lat="43.325695" lon="11.39504"><ele>251.33333333333331</ele><time>2026-04-11T08:17:04.998Z</time></trkpt><trkpt lat="43.3257017" lon="11.3949233"><ele>251.66666666666666</ele><time>2026-04-11T08:17:06.997Z</time></trkpt><trkpt lat="43.3256983" lon="11.3948083"><ele>252.0</ele><time>2026-04-11T08:17:08.997Z</time></trkpt><trkpt lat="43.3256933" lon="11.3946833"><ele>252.5</ele><time>2026-04-11T08:17:10.997Z</time></trkpt><trkpt lat="43.325685" lon="11.3945683"><ele>253.0</ele><time>2026-04-11T08:17:12.997Z</time></trkpt><trkpt lat="43.3256717" lon="11.394455"><ele>253.5</ele><time>2026-04-11T08:17:14.997Z</time></trkpt><trkpt lat="43.3256433" lon="11.39435"><ele>254.0</ele><time>2026-04-11T08:17:16.997Z</time></trkpt><trkpt lat="43.325615" lon="11.3942367"><ele>254.5</ele><time>2026-04-11T08:17:18.998Z</time></trkpt><trkpt lat="43.3255867" lon="11.3941283"><ele>255.0</ele><time>2026-04-11T08:17:20.997Z</time></trkpt><trkpt lat="43.325555" lon="11.394025"><ele>255.0</ele><time>2026-04-11T08:17:22.997Z</time></trkpt><trkpt lat="43.3255217" lon="11.3939217"><ele>255.0</ele><time>2026-04-11T08:17:24.997Z</time></trkpt><trkpt lat="43.3254917" lon="11.393815"><ele>255.0</ele><time>2026-04-11T08:17:26.997Z</time></trkpt><trkpt lat="43.3254617" lon="11.393705"><ele>255.0</ele><time>2026-04-11T08:17:28.997Z</time></trkpt><trkpt lat="43.3254267" lon="11.3935983"><ele>255.0</ele><time>2026-04-11T08:17:30.997Z</time></trkpt><trkpt lat="43.3253967" lon="11.3934883"><ele>255.0</ele><time>2026-04-11T08:17:32.997Z</time></trkpt><trkpt lat="43.3253633" lon="11.3933883"><ele>255.83333333333334</ele><time>2026-04-11T08:17:34.998Z</time></trkpt><trkpt lat="43.3253317" lon="11.393285"><ele>256.6666666666667</ele><time>2026-04-11T08:17:36.997Z</time></trkpt><trkpt lat="43.325305" lon="11.393185"><ele>257.5</ele><time>2026-04-11T08:17:38.997Z</time></trkpt><trkpt lat="43.3252733" lon="11.39309"><ele>258.33333333333337</ele><time>2026-04-11T08:17:40.997Z</time></trkpt><trkpt lat="43.32524" lon="11.3930017"><ele>259.1666666666667</ele><time>2026-04-11T08:17:42.997Z</time></trkpt><trkpt lat="43.32521" lon="11.392905"><ele>260.0</ele><time>2026-04-11T08:17:44.997Z</time></trkpt><trkpt lat="43.32518" lon="11.3928133"><ele>260.5714285714286</ele><time>2026-04-11T08:17:46.998Z</time></trkpt><trkpt lat="43.325145" lon="11.3927233"><ele>261.14285714285717</ele><time>2026-04-11T08:17:48.997Z</time></trkpt><trkpt lat="43.325105" lon="11.39263"><ele>261.7142857142857</ele><time>2026-04-11T08:17:50.997Z</time></trkpt><trkpt lat="43.3250583" lon="11.39256"><ele>262.28571428571433</ele><time>2026-04-11T08:17:52.997Z</time></trkpt><trkpt lat="43.325005" lon="11.3925017"><ele>262.8571428571429</ele><time>2026-04-11T08:17:54.997Z</time></trkpt><trkpt lat="43.324935" lon="11.3924817"><ele>263.42857142857144</ele><time>2026-04-11T08:17:56.998Z</time></trkpt><trkpt lat="43.3248717" lon="11.3924883"><ele>264.0</ele><time>2026-04-11T08:17:58.997Z</time></trkpt><trkpt lat="43.3247983" lon="11.3925083"><ele>264.1666666666667</ele><time>2026-04-11T08:18:00.997Z</time></trkpt><trkpt lat="43.3247267" lon="11.3925167"><ele>264.3333333333333</ele><time>2026-04-11T08:18:02.997Z</time></trkpt><trkpt lat="43.324635" lon="11.3925317"><ele>264.5</ele><time>2026-04-11T08:18:05.998Z</time></trkpt><trkpt lat="43.3245717" lon="11.3925317"><ele>264.66666666666663</ele><time>2026-04-11T08:18:07.997Z</time></trkpt><trkpt lat="43.3245" lon="11.39253"><ele>264.8333333333333</ele><time>2026-04-11T08:18:09.997Z</time></trkpt><trkpt lat="43.3244267" lon="11.392505"><ele>265.0</ele><time>2026-04-11T08:18:11.997Z</time></trkpt><trkpt lat="43.3243517" lon="11.39247"><ele>265.0</ele><time>2026-04-11T08:18:13.997Z</time></trkpt><trkpt lat="43.3242817" lon="11.3924367"><ele>265.0</ele><time>2026-04-11T08:18:15.997Z</time></trkpt><trkpt lat="43.3242017" lon="11.3923967"><ele>265.0</ele><time>2026-04-11T08:18:17.997Z</time></trkpt><trkpt lat="43.3241117" lon="11.39236"><ele>265.0</ele><time>2026-04-11T08:18:19.997Z</time></trkpt><trkpt lat="43.3240033" lon="11.3923267"><ele>265.0</ele><time>2026-04-11T08:18:21.997Z</time></trkpt><trkpt lat="43.323895" lon="11.3922933"><ele>264.8</ele><time>2026-04-11T08:18:23.997Z</time></trkpt><trkpt lat="43.3237733" lon="11.392265"><ele>264.6</ele><time>2026-04-11T08:18:25.998Z</time></trkpt><trkpt lat="43.32365" lon="11.3922317"><ele>264.4</ele><time>2026-04-11T08:18:27.997Z</time></trkpt><trkpt lat="43.323585" lon="11.3922217"><ele>264.2</ele><time>2026-04-11T08:18:28.997Z</time></trkpt><trkpt lat="43.323465" lon="11.3921933"><ele>264.0</ele><time>2026-04-11T08:18:30.997Z</time></trkpt><trkpt lat="43.3233567" lon="11.3921733"><ele>263.0</ele><time>2026-04-11T08:18:32.997Z</time></trkpt><trkpt lat="43.323235" lon="11.39215"><ele>262.0</ele><time>2026-04-11T08:18:34.998Z</time></trkpt><trkpt lat="43.3231733" lon="11.3921317"><ele>261.0</ele><time>2026-04-11T08:18:35.997Z</time></trkpt><trkpt lat="43.32311" lon="11.3921117"><ele>260.0</ele><time>2026-04-11T08:18:36.998Z</time></trkpt><trkpt lat="43.3230483" lon="11.39209"><ele>259.0</ele><time>2026-04-11T08:18:37.997Z</time></trkpt><trkpt lat="43.322985" lon="11.3920733"><ele>258.0</ele><time>2026-04-11T08:18:38.997Z</time></trkpt><trkpt lat="43.3229233" lon="11.3920533"><ele>257.0</ele><time>2026-04-11T08:18:39.997Z</time></trkpt><trkpt lat="43.3228017" lon="11.392025"><ele>257.0</ele><time>2026-04-11T08:18:41.997Z</time></trkpt><trkpt lat="43.3227333" lon="11.392005"><ele>257.0</ele><time>2026-04-11T08:18:42.997Z</time></trkpt><trkpt lat="43.3226583" lon="11.391985"><ele>257.0</ele><time>2026-04-11T08:18:43.997Z</time></trkpt><trkpt lat="43.322585" lon="11.39196"><ele>257.0</ele><time>2026-04-11T08:18:44.998Z</time></trkpt><trkpt lat="43.3225067" lon="11.39193"><ele>257.0</ele><time>2026-04-11T08:18:45.997Z</time></trkpt><trkpt lat="43.3224283" lon="11.3919083"><ele>257.0</ele><time>2026-04-11T08:18:46.997Z</time></trkpt><trkpt lat="43.3223467" lon="11.3918883"><ele>257.0</ele><time>2026-04-11T08:18:47.997Z</time></trkpt><trkpt lat="43.32226" lon="11.3918683"><ele>257.0</ele><time>2026-04-11T08:18:48.997Z</time></trkpt><trkpt lat="43.3221733" lon="11.3918483"><ele>257.0</ele><time>2026-04-11T08:18:49.997Z</time></trkpt><trkpt lat="43.322095" lon="11.3918267"><ele>257.0</ele><time>2026-04-11T08:18:50.998Z</time></trkpt><trkpt lat="43.3220083" lon="11.3918033"><ele>257.0</ele><time>2026-04-11T08:18:51.998Z</time></trkpt><trkpt lat="43.32192" lon="11.3917767"><ele>257.0</ele><time>2026-04-11T08:18:52.997Z</time></trkpt><trkpt lat="43.3218317" lon="11.3917467"><ele>256.2</ele><time>2026-04-11T08:18:53.997Z</time></trkpt><trkpt lat="43.3217417" lon="11.3917133"><ele>255.39999999999998</ele><time>2026-04-11T08:18:54.998Z</time></trkpt><trkpt lat="43.3216517" lon="11.391675"><ele>254.60000000000002</ele><time>2026-04-11T08:18:55.997Z</time></trkpt><trkpt lat="43.32156" lon="11.39163"><ele>253.8</ele><time>2026-04-11T08:18:56.997Z</time></trkpt><trkpt lat="43.3214767" lon="11.3915883"><ele>253.0</ele><time>2026-04-11T08:18:57.997Z</time></trkpt><trkpt lat="43.3213933" lon="11.3915383"><ele>252.33333333333331</ele><time>2026-04-11T08:18:58.998Z</time></trkpt><trkpt lat="43.321315" lon="11.3914833"><ele>251.66666666666666</ele><time>2026-04-11T08:18:59.997Z</time></trkpt><trkpt lat="43.3212417" lon="11.391425"><ele>251.0</ele><time>2026-04-11T08:19:00.997Z</time></trkpt><trkpt lat="43.32117" lon="11.3913783"><ele>250.33333333333331</ele><time>2026-04-11T08:19:01.997Z</time></trkpt><trkpt lat="43.3211" lon="11.3913283"><ele>249.66666666666666</ele><time>2026-04-11T08:19:02.997Z</time></trkpt><trkpt lat="43.3210233" lon="11.3912817"><ele>249.0</ele><time>2026-04-11T08:19:03.997Z</time></trkpt><trkpt lat="43.320955" lon="11.391225"><ele>249.0</ele><time>2026-04-11T08:19:04.997Z</time></trkpt><trkpt lat="43.320885" lon="11.3911733"><ele>249.0</ele><time>2026-04-11T08:19:05.998Z</time></trkpt><trkpt lat="43.32082" lon="11.3911383"><ele>249.0</ele><time>2026-04-11T08:19:06.997Z</time></trkpt><trkpt lat="43.3207517" lon="11.39109"><ele>249.0</ele><time>2026-04-11T08:19:07.997Z</time></trkpt><trkpt lat="43.3206867" lon="11.39105"><ele>249.0</ele><time>2026-04-11T08:19:08.997Z</time></trkpt><trkpt lat="43.32062" lon="11.3910067"><ele>249.0</ele><time>2026-04-11T08:19:09.997Z</time></trkpt><trkpt lat="43.3205033" lon="11.390955"><ele>249.0</ele><time>2026-04-11T08:19:11.997Z</time></trkpt><trkpt lat="43.32044" lon="11.390935"><ele>248.99999999999997</ele><time>2026-04-11T08:19:12.997Z</time></trkpt><trkpt lat="43.3203767" lon="11.390925"><ele>248.99999999999997</ele><time>2026-04-11T08:19:13.997Z</time></trkpt><trkpt lat="43.3202633" lon="11.3909"><ele>249.0</ele><time>2026-04-11T08:19:15.998Z</time></trkpt><trkpt lat="43.3201717" lon="11.3908383"><ele>249.0</ele><time>2026-04-11T08:19:17.997Z</time></trkpt><trkpt lat="43.3201117" lon="11.3907083"><ele>249.0</ele><time>2026-04-11T08:19:19.997Z</time></trkpt><trkpt lat="43.3200917" lon="11.3906233"><ele>249.0</ele><time>2026-04-11T08:19:20.997Z</time></trkpt><trkpt lat="43.3200683" lon="11.3904433"><ele>249.0</ele><time>2026-04-11T08:19:22.997Z</time></trkpt><trkpt lat="43.3200517" lon="11.390345"><ele>249.0</ele><time>2026-04-11T08:19:23.997Z</time></trkpt><trkpt lat="43.3200367" lon="11.3902467"><ele>249.0</ele><time>2026-04-11T08:19:24.997Z</time></trkpt><trkpt lat="43.32002" lon="11.3901467"><ele>249.0</ele><time>2026-04-11T08:19:25.997Z</time></trkpt><trkpt lat="43.32" lon="11.3900417"><ele>248.66666666666666</ele><time>2026-04-11T08:19:26.997Z</time></trkpt><trkpt lat="43.3199767" lon="11.3899367"><ele>248.33333333333331</ele><time>2026-04-11T08:19:27.997Z</time></trkpt><trkpt lat="43.319955" lon="11.3898333"><ele>248.0</ele><time>2026-04-11T08:19:28.997Z</time></trkpt><trkpt lat="43.3199283" lon="11.3897233"><ele>247.66666666666666</ele><time>2026-04-11T08:19:29.997Z</time></trkpt><trkpt lat="43.3199" lon="11.3896233"><ele>247.33333333333331</ele><time>2026-04-11T08:19:30.997Z</time></trkpt><trkpt lat="43.31987" lon="11.3895233"><ele>247.0</ele><time>2026-04-11T08:19:31.997Z</time></trkpt><trkpt lat="43.319845" lon="11.3894233"><ele>246.33333333333331</ele><time>2026-04-11T08:19:32.997Z</time></trkpt><trkpt lat="43.3198167" lon="11.389325"><ele>245.66666666666666</ele><time>2026-04-11T08:19:33.997Z</time></trkpt><trkpt lat="43.319785" lon="11.3892283"><ele>245.0</ele><time>2026-04-11T08:19:34.997Z</time></trkpt><trkpt lat="43.3197533" lon="11.3891133"><ele>244.33333333333331</ele><time>2026-04-11T08:19:35.997Z</time></trkpt><trkpt lat="43.3197283" lon="11.3889967"><ele>243.66666666666666</ele><time>2026-04-11T08:19:36.997Z</time></trkpt><trkpt lat="43.3197017" lon="11.3888817"><ele>243.0</ele><time>2026-04-11T08:19:37.997Z</time></trkpt><trkpt lat="43.319675" lon="11.3887733"><ele>240.66666666666666</ele><time>2026-04-11T08:19:38.997Z</time></trkpt><trkpt lat="43.319655" lon="11.3886567"><ele>238.33333333333331</ele><time>2026-04-11T08:19:39.997Z</time></trkpt><trkpt lat="43.3196333" lon="11.3885467"><ele>236.0</ele><time>2026-04-11T08:19:40.997Z</time></trkpt><trkpt lat="43.3196117" lon="11.38843"><ele>233.66666666666666</ele><time>2026-04-11T08:19:41.997Z</time></trkpt><trkpt lat="43.31959" lon="11.3883117"><ele>231.33333333333331</ele><time>2026-04-11T08:19:42.997Z</time></trkpt><trkpt lat="43.3195667" lon="11.3881917"><ele>229.0</ele><time>2026-04-11T08:19:43.997Z</time></trkpt><trkpt lat="43.319545" lon="11.3880667"><ele>229.0</ele><time>2026-04-11T08:19:44.997Z</time></trkpt><trkpt lat="43.3195217" lon="11.387935"><ele>228.99999999999997</ele><time>2026-04-11T08:19:45.998Z</time></trkpt><trkpt lat="43.3195" lon="11.38781"><ele>228.99999999999997</ele><time>2026-04-11T08:19:46.998Z</time></trkpt><trkpt lat="43.3194783" lon="11.3876917"><ele>229.0</ele><time>2026-04-11T08:19:47.997Z</time></trkpt><trkpt lat="43.3194367" lon="11.3875767"><ele>229.0</ele><time>2026-04-11T08:19:48.998Z</time></trkpt><trkpt lat="43.31938" lon="11.3874767"><ele>229.0</ele><time>2026-04-11T08:19:49.997Z</time></trkpt><trkpt lat="43.3193017" lon="11.38741"><ele>228.99999999999997</ele><time>2026-04-11T08:19:50.997Z</time></trkpt><trkpt lat="43.3192083" lon="11.3873617"><ele>228.99999999999997</ele><time>2026-04-11T08:19:51.997Z</time></trkpt><trkpt lat="43.319115" lon="11.3873017"><ele>229.0</ele><time>2026-04-11T08:19:52.997Z</time></trkpt><trkpt lat="43.3190517" lon="11.3872017"><ele>229.0</ele><time>2026-04-11T08:19:53.997Z</time></trkpt><trkpt lat="43.3190317" lon="11.3870783"><ele>228.6</ele><time>2026-04-11T08:19:54.997Z</time></trkpt><trkpt lat="43.3190417" lon="11.3869433"><ele>228.2</ele><time>2026-04-11T08:19:55.997Z</time></trkpt><trkpt lat="43.3190717" lon="11.3868167"><ele>227.79999999999998</ele><time>2026-04-11T08:19:56.997Z</time></trkpt><trkpt lat="43.3191183" lon="11.38669"><ele>227.39999999999998</ele><time>2026-04-11T08:19:57.997Z</time></trkpt><trkpt lat="43.3191767" lon="11.3865717"><ele>227.0</ele><time>2026-04-11T08:19:58.997Z</time></trkpt><trkpt lat="43.31926" lon="11.3864883"><ele>227.0</ele><time>2026-04-11T08:19:59.997Z</time></trkpt><trkpt lat="43.31935" lon="11.38642"><ele>227.0</ele><time>2026-04-11T08:20:00.998Z</time></trkpt><trkpt lat="43.3194433" lon="11.3863683"><ele>227.0</ele><time>2026-04-11T08:20:01.997Z</time></trkpt><trkpt lat="43.3195317" lon="11.38632"><ele>227.0</ele><time>2026-04-11T08:20:02.997Z</time></trkpt><trkpt lat="43.3196167" lon="11.3862683"><ele>227.0</ele><time>2026-04-11T08:20:03.997Z</time></trkpt><trkpt lat="43.3197017" lon="11.3862183"><ele>226.0</ele><time>2026-04-11T08:20:04.997Z</time></trkpt><trkpt lat="43.3197933" lon="11.3861667"><ele>225.0</ele><time>2026-04-11T08:20:05.997Z</time></trkpt><trkpt lat="43.3198767" lon="11.38611"><ele>224.0</ele><time>2026-04-11T08:20:06.997Z</time></trkpt><trkpt lat="43.319955" lon="11.3860467"><ele>223.0</ele><time>2026-04-11T08:20:07.997Z</time></trkpt><trkpt lat="43.320025" lon="11.3859617"><ele>222.0</ele><time>2026-04-11T08:20:08.997Z</time></trkpt><trkpt lat="43.320075" lon="11.3858617"><ele>222.0</ele><time>2026-04-11T08:20:09.998Z</time></trkpt><trkpt lat="43.3201083" lon="11.3857417"><ele>222.0</ele><time>2026-04-11T08:20:10.997Z</time></trkpt><trkpt lat="43.3201183" lon="11.3856217"><ele>222.0</ele><time>2026-04-11T08:20:11.998Z</time></trkpt><trkpt lat="43.320115" lon="11.3854933"><ele>222.0</ele><time>2026-04-11T08:20:12.997Z</time></trkpt><trkpt lat="43.32011" lon="11.3853683"><ele>222.0</ele><time>2026-04-11T08:20:13.997Z</time></trkpt><trkpt lat="43.3201167" lon="11.385255"><ele>222.0</ele><time>2026-04-11T08:20:14.997Z</time></trkpt><trkpt lat="43.32013" lon="11.3851367"><ele>221.0</ele><time>2026-04-11T08:20:15.997Z</time></trkpt><trkpt lat="43.32016" lon="11.3850083"><ele>220.0</ele><time>2026-04-11T08:20:16.997Z</time></trkpt><trkpt lat="43.320205" lon="11.3848933"><ele>219.0</ele><time>2026-04-11T08:20:17.997Z</time></trkpt><trkpt lat="43.3202583" lon="11.3847883"><ele>218.0</ele><time>2026-04-11T08:20:18.997Z</time></trkpt><trkpt lat="43.3203167" lon="11.3846917"><ele>217.0</ele><time>2026-04-11T08:20:19.997Z</time></trkpt><trkpt lat="43.3203817" lon="11.3845933"><ele>216.2</ele><time>2026-04-11T08:20:20.997Z</time></trkpt><trkpt lat="43.3204633" lon="11.3845017"><ele>215.39999999999998</ele><time>2026-04-11T08:20:21.997Z</time></trkpt><trkpt lat="43.32055" lon="11.384405"><ele>214.60000000000002</ele><time>2026-04-11T08:20:22.998Z</time></trkpt><trkpt lat="43.3206317" lon="11.38431"><ele>213.8</ele><time>2026-04-11T08:20:23.997Z</time></trkpt><trkpt lat="43.320705" lon="11.3842017"><ele>213.0</ele><time>2026-04-11T08:20:24.997Z</time></trkpt><trkpt lat="43.3207583" lon="11.38409"><ele>212.5</ele><time>2026-04-11T08:20:25.997Z</time></trkpt><trkpt lat="43.3207833" lon="11.3839783"><ele>212.0</ele><time>2026-04-11T08:20:26.997Z</time></trkpt><trkpt lat="43.3207883" lon="11.38386"><ele>211.5</ele><time>2026-04-11T08:20:27.997Z</time></trkpt><trkpt lat="43.32077" lon="11.3837417"><ele>211.0</ele><time>2026-04-11T08:20:28.997Z</time></trkpt><trkpt lat="43.3207283" lon="11.38363"><ele>210.5</ele><time>2026-04-11T08:20:29.997Z</time></trkpt><trkpt lat="43.32069" lon="11.3835233"><ele>210.0</ele><time>2026-04-11T08:20:30.997Z</time></trkpt><trkpt lat="43.3206567" lon="11.383415"><ele>208.4</ele><time>2026-04-11T08:20:31.997Z</time></trkpt><trkpt lat="43.3206367" lon="11.3833"><ele>206.8</ele><time>2026-04-11T08:20:32.997Z</time></trkpt><trkpt lat="43.3206217" lon="11.3831767"><ele>205.2</ele><time>2026-04-11T08:20:33.997Z</time></trkpt><trkpt lat="43.320605" lon="11.3830433"><ele>203.6</ele><time>2026-04-11T08:20:34.997Z</time></trkpt><trkpt lat="43.32059" lon="11.382905"><ele>202.0</ele><time>2026-04-11T08:20:35.997Z</time></trkpt><trkpt lat="43.32058" lon="11.38277"><ele>201.39999999999998</ele><time>2026-04-11T08:20:36.997Z</time></trkpt><trkpt lat="43.3205633" lon="11.3826367"><ele>200.79999999999998</ele><time>2026-04-11T08:20:37.997Z</time></trkpt><trkpt lat="43.3205417" lon="11.3825"><ele>200.2</ele><time>2026-04-11T08:20:38.997Z</time></trkpt><trkpt lat="43.3205217" lon="11.38237"><ele>199.6</ele><time>2026-04-11T08:20:39.997Z</time></trkpt><trkpt lat="43.3205117" lon="11.3822383"><ele>199.0</ele><time>2026-04-11T08:20:40.997Z</time></trkpt><trkpt lat="43.3204933" lon="11.382105"><ele>198.79999999999998</ele><time>2026-04-11T08:20:41.997Z</time></trkpt><trkpt lat="43.32047" lon="11.3819767"><ele>198.6</ele><time>2026-04-11T08:20:42.997Z</time></trkpt><trkpt lat="43.3204467" lon="11.381855"><ele>198.4</ele><time>2026-04-11T08:20:43.997Z</time></trkpt><trkpt lat="43.32042" lon="11.3817367"><ele>198.2</ele><time>2026-04-11T08:20:44.998Z</time></trkpt><trkpt lat="43.3203983" lon="11.38162"><ele>198.0</ele><time>2026-04-11T08:20:45.997Z</time></trkpt><trkpt lat="43.3203783" lon="11.3815033"><ele>198.0</ele><time>2026-04-11T08:20:46.997Z</time></trkpt><trkpt lat="43.320365" lon="11.3813883"><ele>198.0</ele><time>2026-04-11T08:20:47.997Z</time></trkpt><trkpt lat="43.3203517" lon="11.381275"><ele>198.0</ele><time>2026-04-11T08:20:48.997Z</time></trkpt><trkpt lat="43.32034" lon="11.3811617"><ele>198.0</ele><time>2026-04-11T08:20:49.997Z</time></trkpt><trkpt lat="43.3203317" lon="11.3810517"><ele>198.0</ele><time>2026-04-11T08:20:50.997Z</time></trkpt><trkpt lat="43.3203233" lon="11.380945"><ele>198.0</ele><time>2026-04-11T08:20:51.997Z</time></trkpt><trkpt lat="43.3203233" lon="11.3808383"><ele>197.83333333333334</ele><time>2026-04-11T08:20:52.997Z</time></trkpt><trkpt lat="43.3203333" lon="11.3807383"><ele>197.66666666666669</ele><time>2026-04-11T08:20:53.997Z</time></trkpt><trkpt lat="43.320345" lon="11.3806367"><ele>197.5</ele><time>2026-04-11T08:20:54.997Z</time></trkpt><trkpt lat="43.32036" lon="11.3805333"><ele>197.33333333333334</ele><time>2026-04-11T08:20:55.997Z</time></trkpt><trkpt lat="43.32037" lon="11.3804433"><ele>197.16666666666669</ele><time>2026-04-11T08:20:56.997Z</time></trkpt><trkpt lat="43.3203833" lon="11.380355"><ele>197.0</ele><time>2026-04-11T08:20:57.997Z</time></trkpt><trkpt lat="43.320405" lon="11.3801917"><ele>197.0</ele><time>2026-04-11T08:20:59.998Z</time></trkpt><trkpt lat="43.3204183" lon="11.3800317"><ele>197.0</ele><time>2026-04-11T08:21:01.997Z</time></trkpt><trkpt lat="43.3204383" lon="11.3798933"><ele>197.0</ele><time>2026-04-11T08:21:03.997Z</time></trkpt><trkpt lat="43.3204567" lon="11.3797517"><ele>197.0</ele><time>2026-04-11T08:21:05.997Z</time></trkpt><trkpt lat="43.3204783" lon="11.379615"><ele>197.0</ele><time>2026-04-11T08:21:07.998Z</time></trkpt><trkpt lat="43.3205017" lon="11.3794633"><ele>197.75</ele><time>2026-04-11T08:21:09.997Z</time></trkpt><trkpt lat="43.3205167" lon="11.3793117"><ele>198.5</ele><time>2026-04-11T08:21:11.997Z</time></trkpt><trkpt lat="43.3205383" lon="11.3791517"><ele>199.25</ele><time>2026-04-11T08:21:13.998Z</time></trkpt><trkpt lat="43.3205567" lon="11.3789867"><ele>200.0</ele><time>2026-04-11T08:21:15.997Z</time></trkpt><trkpt lat="43.3205783" lon="11.3788117"><ele>201.2</ele><time>2026-04-11T08:21:17.997Z</time></trkpt><trkpt lat="43.32059" lon="11.3786367"><ele>202.4</ele><time>2026-04-11T08:21:19.997Z</time></trkpt><trkpt lat="43.3205983" lon="11.3784583"><ele>203.60000000000002</ele><time>2026-04-11T08:21:21.997Z</time></trkpt><trkpt lat="43.3206" lon="11.378365"><ele>204.8</ele><time>2026-04-11T08:21:22.997Z</time></trkpt><trkpt lat="43.3205967" lon="11.3782717"><ele>206.0</ele><time>2026-04-11T08:21:23.998Z</time></trkpt><trkpt lat="43.32059" lon="11.3781817"><ele>206.00000000000003</ele><time>2026-04-11T08:21:24.997Z</time></trkpt><trkpt lat="43.3205817" lon="11.37809"><ele>206.0</ele><time>2026-04-11T08:21:25.997Z</time></trkpt><trkpt lat="43.320575" lon="11.3779967"><ele>206.0</ele><time>2026-04-11T08:21:26.997Z</time></trkpt><trkpt lat="43.3205617" lon="11.3779067"><ele>206.0</ele><time>2026-04-11T08:21:27.997Z</time></trkpt><trkpt lat="43.3205467" lon="11.37782"><ele>206.00000000000003</ele><time>2026-04-11T08:21:28.997Z</time></trkpt><trkpt lat="43.32052" lon="11.3776567"><ele>206.0</ele><time>2026-04-11T08:21:30.997Z</time></trkpt><trkpt lat="43.3205" lon="11.3774933"><ele>208.0</ele><time>2026-04-11T08:21:32.997Z</time></trkpt><trkpt lat="43.32049" lon="11.3773367"><ele>210.0</ele><time>2026-04-11T08:21:34.997Z</time></trkpt><trkpt lat="43.32048" lon="11.3771833"><ele>212.0</ele><time>2026-04-11T08:21:36.997Z</time></trkpt><trkpt lat="43.3204517" lon="11.3770317"><ele>214.0</ele><time>2026-04-11T08:21:38.997Z</time></trkpt><trkpt lat="43.32044" lon="11.3768817"><ele>215.39999999999998</ele><time>2026-04-11T08:21:40.997Z</time></trkpt><trkpt lat="43.3204367" lon="11.3767333"><ele>216.79999999999998</ele><time>2026-04-11T08:21:42.997Z</time></trkpt><trkpt lat="43.3204433" lon="11.376615"><ele>218.20000000000002</ele><time>2026-04-11T08:21:44.997Z</time></trkpt><trkpt lat="43.320455" lon="11.3764883"><ele>219.60000000000002</ele><time>2026-04-11T08:21:46.997Z</time></trkpt><trkpt lat="43.3204783" lon="11.376365"><ele>221.0</ele><time>2026-04-11T08:21:48.997Z</time></trkpt><trkpt lat="43.3204867" lon="11.37625"><ele>221.00000000000003</ele><time>2026-04-11T08:21:50.998Z</time></trkpt><trkpt lat="43.3204967" lon="11.3761317"><ele>221.0</ele><time>2026-04-11T08:21:52.997Z</time></trkpt><trkpt lat="43.3205033" lon="11.3760317"><ele>221.0</ele><time>2026-04-11T08:21:54.997Z</time></trkpt><trkpt lat="43.320515" lon="11.3759433"><ele>221.0</ele><time>2026-04-11T08:21:56.997Z</time></trkpt><trkpt lat="43.3205017" lon="11.3758433"><ele>221.00000000000003</ele><time>2026-04-11T08:21:59.997Z</time></trkpt><trkpt lat="43.320485" lon="11.3757233"><ele>221.0</ele><time>2026-04-11T08:22:03.997Z</time></trkpt><trkpt lat="43.320485" lon="11.3756117"><ele>220.71428571428572</ele><time>2026-04-11T08:22:06.998Z</time></trkpt><trkpt lat="43.3204717" lon="11.3755117"><ele>220.42857142857144</ele><time>2026-04-11T08:22:09.998Z</time></trkpt><trkpt lat="43.3204433" lon="11.3754183"><ele>220.14285714285717</ele><time>2026-04-11T08:22:12.997Z</time></trkpt><trkpt lat="43.3204033" lon="11.375345"><ele>219.85714285714286</ele><time>2026-04-11T08:22:15.997Z</time></trkpt><trkpt lat="43.3203567" lon="11.375275"><ele>219.57142857142856</ele><time>2026-04-11T08:22:19.997Z</time></trkpt><trkpt lat="43.32031" lon="11.3751983"><ele>219.2857142857143</ele><time>2026-04-11T08:22:22.997Z</time></trkpt><trkpt lat="43.3202667" lon="11.3751133"><ele>219.0</ele><time>2026-04-11T08:22:25.997Z</time></trkpt><trkpt lat="43.32023" lon="11.3750283"><ele>219.0</ele><time>2026-04-11T08:22:28.997Z</time></trkpt><trkpt lat="43.3202383" lon="11.374915"><ele>219.0</ele><time>2026-04-11T08:22:33.998Z</time></trkpt><trkpt lat="43.320255" lon="11.374815"><ele>219.0</ele><time>2026-04-11T08:22:36.997Z</time></trkpt><trkpt lat="43.3202733" lon="11.3747183"><ele>219.0</ele><time>2026-04-11T08:22:40.997Z</time></trkpt><trkpt lat="43.3202867" lon="11.3746217"><ele>219.0</ele><time>2026-04-11T08:22:44.997Z</time></trkpt><trkpt lat="43.320315" lon="11.374525"><ele>219.0</ele><time>2026-04-11T08:22:49.997Z</time></trkpt><trkpt lat="43.3203333" lon="11.374425"><ele>219.2857142857143</ele><time>2026-04-11T08:22:53.997Z</time></trkpt><trkpt lat="43.32036" lon="11.37434"><ele>219.57142857142856</ele><time>2026-04-11T08:22:56.997Z</time></trkpt><trkpt lat="43.3203883" lon="11.3742467"><ele>219.85714285714286</ele><time>2026-04-11T08:22:59.997Z</time></trkpt><trkpt lat="43.3204183" lon="11.3741433"><ele>220.14285714285717</ele><time>2026-04-11T08:23:03.997Z</time></trkpt><trkpt lat="43.320445" lon="11.37406"><ele>220.42857142857144</ele><time>2026-04-11T08:23:06.997Z</time></trkpt><trkpt lat="43.3204683" lon="11.3739633"><ele>220.71428571428572</ele><time>2026-04-11T08:23:10.997Z</time></trkpt><trkpt lat="43.3204983" lon="11.3738583"><ele>221.0</ele><time>2026-04-11T08:23:14.997Z</time></trkpt><trkpt lat="43.3205317" lon="11.3737617"><ele>221.8571428571429</ele><time>2026-04-11T08:23:18.997Z</time></trkpt><trkpt lat="43.32056" lon="11.373665"><ele>222.71428571428572</ele><time>2026-04-11T08:23:22.998Z</time></trkpt><trkpt lat="43.3205967" lon="11.3735917"><ele>223.57142857142858</ele><time>2026-04-11T08:23:25.997Z</time></trkpt><trkpt lat="43.3206367" lon="11.3735067"><ele>224.42857142857144</ele><time>2026-04-11T08:23:29.997Z</time></trkpt><trkpt lat="43.3206833" lon="11.373425"><ele>225.2857142857143</ele><time>2026-04-11T08:23:33.998Z</time></trkpt><trkpt lat="43.3207367" lon="11.3733383"><ele>226.14285714285717</ele><time>2026-04-11T08:23:37.997Z</time></trkpt><trkpt lat="43.320775" lon="11.3732467"><ele>227.0</ele><time>2026-04-11T08:23:41.997Z</time></trkpt><trkpt lat="43.3208183" lon="11.3731583"><ele>227.2857142857143</ele><time>2026-04-11T08:23:45.997Z</time></trkpt><trkpt lat="43.3208567" lon="11.3730717"><ele>227.5714285714286</ele><time>2026-04-11T08:23:49.998Z</time></trkpt><trkpt lat="43.3208917" lon="11.3729933"><ele>227.85714285714286</ele><time>2026-04-11T08:23:53.997Z</time></trkpt><trkpt lat="43.3209317" lon="11.372925"><ele>228.14285714285717</ele><time>2026-04-11T08:23:56.997Z</time></trkpt><trkpt lat="43.3209683" lon="11.3728483"><ele>228.42857142857144</ele><time>2026-04-11T08:23:59.997Z</time></trkpt><trkpt lat="43.321" lon="11.37277"><ele>228.71428571428572</ele><time>2026-04-11T08:24:02.997Z</time></trkpt><trkpt lat="43.32102" lon="11.3726783"><ele>229.0</ele><time>2026-04-11T08:24:05.997Z</time></trkpt><trkpt lat="43.3210333" lon="11.372575"><ele>230.28571428571428</ele><time>2026-04-11T08:24:09.997Z</time></trkpt><trkpt lat="43.321045" lon="11.3724833"><ele>231.57142857142858</ele><time>2026-04-11T08:24:12.997Z</time></trkpt><trkpt lat="43.3210567" lon="11.372395"><ele>232.85714285714286</ele><time>2026-04-11T08:24:15.997Z</time></trkpt><trkpt lat="43.3210717" lon="11.37229"><ele>234.14285714285714</ele><time>2026-04-11T08:24:19.997Z</time></trkpt><trkpt lat="43.3210783" lon="11.3721867"><ele>235.42857142857144</ele><time>2026-04-11T08:24:23.997Z</time></trkpt><trkpt lat="43.3211083" lon="11.372085"><ele>236.71428571428572</ele><time>2026-04-11T08:24:26.997Z</time></trkpt><trkpt lat="43.32112" lon="11.371985"><ele>238.0</ele><time>2026-04-11T08:24:29.997Z</time></trkpt><trkpt lat="43.3211367" lon="11.3718983"><ele>239.49999999999997</ele><time>2026-04-11T08:24:32.997Z</time></trkpt><trkpt lat="43.3211483" lon="11.3717867"><ele>241.0</ele><time>2026-04-11T08:24:35.997Z</time></trkpt><trkpt lat="43.321165" lon="11.3716717"><ele>242.5</ele><time>2026-04-11T08:24:38.997Z</time></trkpt><trkpt lat="43.321175" lon="11.37158"><ele>244.0</ele><time>2026-04-11T08:24:40.997Z</time></trkpt><trkpt lat="43.32119" lon="11.3714617"><ele>245.49999999999997</ele><time>2026-04-11T08:24:43.997Z</time></trkpt><trkpt lat="43.321205" lon="11.3713467"><ele>247.0</ele><time>2026-04-11T08:24:46.997Z</time></trkpt><trkpt lat="43.3212183" lon="11.3712333"><ele>246.66666666666666</ele><time>2026-04-11T08:24:49.997Z</time></trkpt><trkpt lat="43.3212417" lon="11.371125"><ele>246.33333333333331</ele><time>2026-04-11T08:24:52.997Z</time></trkpt><trkpt lat="43.3212583" lon="11.3710333"><ele>246.0</ele><time>2026-04-11T08:24:55.997Z</time></trkpt><trkpt lat="43.3212817" lon="11.370945"><ele>245.66666666666669</ele><time>2026-04-11T08:24:58.997Z</time></trkpt><trkpt lat="43.321315" lon="11.3708317"><ele>245.33333333333334</ele><time>2026-04-11T08:25:01.998Z</time></trkpt><trkpt lat="43.321355" lon="11.37073"><ele>245.0</ele><time>2026-04-11T08:25:04.997Z</time></trkpt><trkpt lat="43.3214033" lon="11.3706283"><ele>245.00000000000003</ele><time>2026-04-11T08:25:07.997Z</time></trkpt><trkpt lat="43.3214483" lon="11.3705333"><ele>245.0</ele><time>2026-04-11T08:25:10.997Z</time></trkpt><trkpt lat="43.321485" lon="11.3704317"><ele>245.0</ele><time>2026-04-11T08:25:13.997Z</time></trkpt><trkpt lat="43.321535" lon="11.3703333"><ele>245.0</ele><time>2026-04-11T08:25:16.997Z</time></trkpt><trkpt lat="43.321585" lon="11.3702417"><ele>245.00000000000003</ele><time>2026-04-11T08:25:19.997Z</time></trkpt><trkpt lat="43.3216283" lon="11.3701567"><ele>245.0</ele><time>2026-04-11T08:25:22.997Z</time></trkpt><trkpt lat="43.3216667" lon="11.3700683"><ele>246.16666666666669</ele><time>2026-04-11T08:25:25.997Z</time></trkpt><trkpt lat="43.3216983" lon="11.3699783"><ele>247.33333333333334</ele><time>2026-04-11T08:25:28.997Z</time></trkpt><trkpt lat="43.32174" lon="11.3699"><ele>248.5</ele><time>2026-04-11T08:25:31.997Z</time></trkpt><trkpt lat="43.3217883" lon="11.369815"><ele>249.66666666666669</ele><time>2026-04-11T08:25:34.997Z</time></trkpt><trkpt lat="43.3218283" lon="11.3697267"><ele>250.83333333333334</ele><time>2026-04-11T08:25:37.997Z</time></trkpt><trkpt lat="43.32188" lon="11.369635"><ele>252.0</ele><time>2026-04-11T08:25:40.997Z</time></trkpt><trkpt lat="43.3219283" lon="11.3695533"><ele>253.28571428571428</ele><time>2026-04-11T08:25:43.997Z</time></trkpt><trkpt lat="43.3219667" lon="11.369465"><ele>254.57142857142856</ele><time>2026-04-11T08:25:46.997Z</time></trkpt><trkpt lat="43.3219983" lon="11.3693883"><ele>255.85714285714286</ele><time>2026-04-11T08:25:49.997Z</time></trkpt><trkpt lat="43.3220217" lon="11.3693067"><ele>257.1428571428571</ele><time>2026-04-11T08:25:52.997Z</time></trkpt><trkpt lat="43.3220267" lon="11.3692083"><ele>258.42857142857144</ele><time>2026-04-11T08:25:55.997Z</time></trkpt><trkpt lat="43.3219817" lon="11.369145"><ele>259.7142857142857</ele><time>2026-04-11T08:25:58.998Z</time></trkpt><trkpt lat="43.32191" lon="11.369135"><ele>261.0</ele><time>2026-04-11T08:26:01.997Z</time></trkpt><trkpt lat="43.3218367" lon="11.3691717"><ele>261.0</ele><time>2026-04-11T08:26:04.997Z</time></trkpt><trkpt lat="43.3217683" lon="11.3692417"><ele>261.0</ele><time>2026-04-11T08:26:08.998Z</time></trkpt><trkpt lat="43.3217117" lon="11.3693083"><ele>261.0</ele><time>2026-04-11T08:26:11.997Z</time></trkpt><trkpt lat="43.3216583" lon="11.3693633"><ele>261.0</ele><time>2026-04-11T08:26:14.997Z</time></trkpt><trkpt lat="43.3215867" lon="11.3694067"><ele>261.0</ele><time>2026-04-11T08:26:17.997Z</time></trkpt><trkpt lat="43.3215117" lon="11.3694017"><ele>261.0</ele><time>2026-04-11T08:26:20.997Z</time></trkpt><trkpt lat="43.321435" lon="11.3693667"><ele>261.3333333333333</ele><time>2026-04-11T08:26:23.997Z</time></trkpt><trkpt lat="43.3213617" lon="11.36931"><ele>261.6666666666667</ele><time>2026-04-11T08:26:26.997Z</time></trkpt><trkpt lat="43.3212967" lon="11.3692367"><ele>262.0</ele><time>2026-04-11T08:26:29.997Z</time></trkpt><trkpt lat="43.32123" lon="11.3691767"><ele>262.33333333333337</ele><time>2026-04-11T08:26:32.997Z</time></trkpt><trkpt lat="43.321165" lon="11.3691117"><ele>262.6666666666667</ele><time>2026-04-11T08:26:35.997Z</time></trkpt><trkpt lat="43.321115" lon="11.3690433"><ele>263.0</ele><time>2026-04-11T08:26:38.997Z</time></trkpt><trkpt lat="43.3210583" lon="11.3689917"><ele>263.0</ele><time>2026-04-11T08:26:41.997Z</time></trkpt><trkpt lat="43.32101" lon="11.368925"><ele>263.0</ele><time>2026-04-11T08:26:44.997Z</time></trkpt><trkpt lat="43.3209633" lon="11.3688567"><ele>263.0</ele><time>2026-04-11T08:26:47.997Z</time></trkpt><trkpt lat="43.32096" lon="11.3687667"><ele>263.0</ele><time>2026-04-11T08:26:50.997Z</time></trkpt><trkpt lat="43.32098" lon="11.3686833"><ele>263.0</ele><time>2026-04-11T08:26:53.997Z</time></trkpt><trkpt lat="43.3210017" lon="11.3686"><ele>263.0</ele><time>2026-04-11T08:26:56.997Z</time></trkpt><trkpt lat="43.321015" lon="11.368515"><ele>263.0</ele><time>2026-04-11T08:26:59.996Z</time></trkpt><trkpt lat="43.3210333" lon="11.3684033"><ele>263.0</ele><time>2026-04-11T08:27:02.996Z</time></trkpt><trkpt lat="43.3210633" lon="11.3683117"><ele>263.0</ele><time>2026-04-11T08:27:04.996Z</time></trkpt><trkpt lat="43.3210733" lon="11.3681933"><ele>263.0</ele><time>2026-04-11T08:27:07.996Z</time></trkpt><trkpt lat="43.32108" lon="11.3681033"><ele>263.0</ele><time>2026-04-11T08:27:09.996Z</time></trkpt><trkpt lat="43.32109" lon="11.367975"><ele>263.0</ele><time>2026-04-11T08:27:12.997Z</time></trkpt><trkpt lat="43.3211033" lon="11.3678583"><ele>263.0</ele><time>2026-04-11T08:27:15.997Z</time></trkpt><trkpt lat="43.32111" lon="11.3677383"><ele>263.6666666666667</ele><time>2026-04-11T08:27:18.996Z</time></trkpt><trkpt lat="43.3211067" lon="11.3676267"><ele>264.33333333333337</ele><time>2026-04-11T08:27:21.996Z</time></trkpt><trkpt lat="43.3211067" lon="11.36752"><ele>265.0</ele><time>2026-04-11T08:27:24.996Z</time></trkpt><trkpt lat="43.3211217" lon="11.3674067"><ele>265.6666666666667</ele><time>2026-04-11T08:27:27.996Z</time></trkpt><trkpt lat="43.321125" lon="11.367275"><ele>266.3333333333333</ele><time>2026-04-11T08:27:30.996Z</time></trkpt><trkpt lat="43.3211267" lon="11.36718"><ele>267.0</ele><time>2026-04-11T08:27:32.996Z</time></trkpt><trkpt lat="43.3211283" lon="11.367065"><ele>267.5714285714286</ele><time>2026-04-11T08:27:35.996Z</time></trkpt><trkpt lat="43.321125" lon="11.3669683"><ele>268.14285714285717</ele><time>2026-04-11T08:27:38.996Z</time></trkpt><trkpt lat="43.321135" lon="11.3668617"><ele>268.7142857142857</ele><time>2026-04-11T08:27:41.996Z</time></trkpt><trkpt lat="43.32113" lon="11.3667583"><ele>269.28571428571433</ele><time>2026-04-11T08:27:44.996Z</time></trkpt><trkpt lat="43.3210933" lon="11.366665"><ele>269.8571428571429</ele><time>2026-04-11T08:27:47.996Z</time></trkpt><trkpt lat="43.32108" lon="11.366565"><ele>270.42857142857144</ele><time>2026-04-11T08:27:50.996Z</time></trkpt><trkpt lat="43.3210717" lon="11.3664717"><ele>271.0</ele><time>2026-04-11T08:28:05.996Z</time></trkpt><trkpt lat="43.3210633" lon="11.3663683"><ele>271.0</ele><time>2026-04-11T08:28:08.996Z</time></trkpt><trkpt lat="43.32104" lon="11.3662783"><ele>271.0</ele><time>2026-04-11T08:28:10.996Z</time></trkpt><trkpt lat="43.3210267" lon="11.366165"><ele>271.0</ele><time>2026-04-11T08:28:12.996Z</time></trkpt><trkpt lat="43.3210133" lon="11.366045"><ele>271.0</ele><time>2026-04-11T08:28:14.996Z</time></trkpt><trkpt lat="43.3209933" lon="11.3659133"><ele>271.0</ele><time>2026-04-11T08:28:16.996Z</time></trkpt><trkpt lat="43.320955" lon="11.3657583"><ele>271.0</ele><time>2026-04-11T08:28:18.996Z</time></trkpt><trkpt lat="43.3209067" lon="11.3656017"><ele>271.0</ele><time>2026-04-11T08:28:20.996Z</time></trkpt><trkpt lat="43.3208617" lon="11.365445"><ele>271.0</ele><time>2026-04-11T08:28:22.996Z</time></trkpt><trkpt lat="43.32083" lon="11.3653583"><ele>271.0</ele><time>2026-04-11T08:28:23.997Z</time></trkpt><trkpt lat="43.3207983" lon="11.3652767"><ele>271.0</ele><time>2026-04-11T08:28:24.996Z</time></trkpt><trkpt lat="43.32074" lon="11.365125"><ele>271.25</ele><time>2026-04-11T08:28:26.996Z</time></trkpt><trkpt lat="43.3206867" lon="11.36498"><ele>271.5</ele><time>2026-04-11T08:28:28.996Z</time></trkpt><trkpt lat="43.320625" lon="11.3648433"><ele>271.75</ele><time>2026-04-11T08:28:30.996Z</time></trkpt><trkpt lat="43.32056" lon="11.36471"><ele>272.0</ele><time>2026-04-11T08:28:32.996Z</time></trkpt><trkpt lat="43.3204917" lon="11.3646"><ele>272.4</ele><time>2026-04-11T08:28:34.997Z</time></trkpt><trkpt lat="43.3204217" lon="11.3644867"><ele>272.79999999999995</ele><time>2026-04-11T08:28:36.996Z</time></trkpt><trkpt lat="43.3203467" lon="11.3643667"><ele>273.2</ele><time>2026-04-11T08:28:38.997Z</time></trkpt><trkpt lat="43.32027" lon="11.3642283"><ele>273.59999999999997</ele><time>2026-04-11T08:28:40.996Z</time></trkpt><trkpt lat="43.3202317" lon="11.3641583"><ele>274.0</ele><time>2026-04-11T08:28:41.996Z</time></trkpt><trkpt lat="43.32019" lon="11.3640817"><ele>274.0</ele><time>2026-04-11T08:28:42.996Z</time></trkpt><trkpt lat="43.3201483" lon="11.3640017"><ele>274.0</ele><time>2026-04-11T08:28:43.996Z</time></trkpt><trkpt lat="43.32011" lon="11.3639267"><ele>274.0</ele><time>2026-04-11T08:28:44.996Z</time></trkpt><trkpt lat="43.3200567" lon="11.36385"><ele>274.0</ele><time>2026-04-11T08:28:45.996Z</time></trkpt><trkpt lat="43.3199983" lon="11.3637717"><ele>274.0</ele><time>2026-04-11T08:28:46.996Z</time></trkpt><trkpt lat="43.3199417" lon="11.363695"><ele>274.0</ele><time>2026-04-11T08:28:47.996Z</time></trkpt><trkpt lat="43.3198867" lon="11.3636183"><ele>274.5</ele><time>2026-04-11T08:28:48.996Z</time></trkpt><trkpt lat="43.319835" lon="11.3635383"><ele>275.0</ele><time>2026-04-11T08:28:49.996Z</time></trkpt><trkpt lat="43.3197867" lon="11.3634717"><ele>275.5</ele><time>2026-04-11T08:28:50.996Z</time></trkpt><trkpt lat="43.3197367" lon="11.36341"><ele>276.0</ele><time>2026-04-11T08:28:51.997Z</time></trkpt><trkpt lat="43.3196867" lon="11.3633467"><ele>276.5</ele><time>2026-04-11T08:28:52.996Z</time></trkpt><trkpt lat="43.3195983" lon="11.363215"><ele>277.0</ele><time>2026-04-11T08:28:54.996Z</time></trkpt><trkpt lat="43.3195667" lon="11.363135"><ele>277.0</ele><time>2026-04-11T08:28:55.996Z</time></trkpt><trkpt lat="43.3195283" lon="11.3630583"><ele>277.0</ele><time>2026-04-11T08:28:56.997Z</time></trkpt><trkpt lat="43.3194883" lon="11.3629833"><ele>277.0</ele><time>2026-04-11T08:28:57.997Z</time></trkpt><trkpt lat="43.31945" lon="11.3629017"><ele>277.0</ele><time>2026-04-11T08:28:58.996Z</time></trkpt><trkpt lat="43.3194283" lon="11.3628117"><ele>277.0</ele><time>2026-04-11T08:28:59.996Z</time></trkpt><trkpt lat="43.3194067" lon="11.3627033"><ele>277.0</ele><time>2026-04-11T08:29:00.997Z</time></trkpt><trkpt lat="43.3193717" lon="11.3626017"><ele>277.0</ele><time>2026-04-11T08:29:01.997Z</time></trkpt><trkpt lat="43.3193317" lon="11.3625033"><ele>275.6</ele><time>2026-04-11T08:29:02.996Z</time></trkpt><trkpt lat="43.319275" lon="11.3624067"><ele>274.2</ele><time>2026-04-11T08:29:03.996Z</time></trkpt><trkpt lat="43.3192083" lon="11.3623217"><ele>272.8</ele><time>2026-04-11T08:29:04.996Z</time></trkpt><trkpt lat="43.31915" lon="11.36223"><ele>271.4</ele><time>2026-04-11T08:29:05.996Z</time></trkpt><trkpt lat="43.3190867" lon="11.3621433"><ele>270.0</ele><time>2026-04-11T08:29:06.996Z</time></trkpt><trkpt lat="43.3190217" lon="11.36205"><ele>269.2</ele><time>2026-04-11T08:29:07.996Z</time></trkpt><trkpt lat="43.3189583" lon="11.3619483"><ele>268.4</ele><time>2026-04-11T08:29:08.996Z</time></trkpt><trkpt lat="43.3189017" lon="11.3618433"><ele>267.6</ele><time>2026-04-11T08:29:09.997Z</time></trkpt><trkpt lat="43.318835" lon="11.3617433"><ele>266.8</ele><time>2026-04-11T08:29:10.996Z</time></trkpt><trkpt lat="43.31877" lon="11.3616333"><ele>266.0</ele><time>2026-04-11T08:29:11.996Z</time></trkpt><trkpt lat="43.3187067" lon="11.36151"><ele>266.0</ele><time>2026-04-11T08:29:12.996Z</time></trkpt><trkpt lat="43.3186567" lon="11.3613733"><ele>266.0</ele><time>2026-04-11T08:29:13.996Z</time></trkpt><trkpt lat="43.3186067" lon="11.3612367"><ele>266.0</ele><time>2026-04-11T08:29:14.996Z</time></trkpt><trkpt lat="43.3185667" lon="11.3610917"><ele>266.0</ele><time>2026-04-11T08:29:15.996Z</time></trkpt><trkpt lat="43.3185183" lon="11.36094"><ele>264.0</ele><time>2026-04-11T08:29:16.996Z</time></trkpt><trkpt lat="43.3184567" lon="11.36079"><ele>262.0</ele><time>2026-04-11T08:29:17.996Z</time></trkpt><trkpt lat="43.3183917" lon="11.36065"><ele>260.0</ele><time>2026-04-11T08:29:18.996Z</time></trkpt><trkpt lat="43.3183333" lon="11.360515"><ele>258.0</ele><time>2026-04-11T08:29:19.996Z</time></trkpt><trkpt lat="43.3182733" lon="11.360395"><ele>256.6</ele><time>2026-04-11T08:29:20.996Z</time></trkpt><trkpt lat="43.3182183" lon="11.36027"><ele>255.20000000000002</ele><time>2026-04-11T08:29:21.996Z</time></trkpt><trkpt lat="43.3181633" lon="11.3601617"><ele>253.8</ele><time>2026-04-11T08:29:22.996Z</time></trkpt><trkpt lat="43.3181133" lon="11.36006"><ele>252.4</ele><time>2026-04-11T08:29:23.996Z</time></trkpt><trkpt lat="43.3180467" lon="11.359955"><ele>251.0</ele><time>2026-04-11T08:29:24.996Z</time></trkpt><trkpt lat="43.31798" lon="11.359845"><ele>251.0</ele><time>2026-04-11T08:29:25.996Z</time></trkpt><trkpt lat="43.3179167" lon="11.3597267"><ele>251.00000000000003</ele><time>2026-04-11T08:29:26.996Z</time></trkpt><trkpt lat="43.317865" lon="11.3596183"><ele>251.00000000000003</ele><time>2026-04-11T08:29:27.996Z</time></trkpt><trkpt lat="43.317825" lon="11.3595033"><ele>251.0</ele><time>2026-04-11T08:29:28.996Z</time></trkpt><trkpt lat="43.317795" lon="11.3593833"><ele>251.0</ele><time>2026-04-11T08:29:29.996Z</time></trkpt><trkpt lat="43.317775" lon="11.3592667"><ele>249.0</ele><time>2026-04-11T08:29:30.996Z</time></trkpt><trkpt lat="43.317755" lon="11.3591433"><ele>247.00000000000003</ele><time>2026-04-11T08:29:31.996Z</time></trkpt><trkpt lat="43.3177317" lon="11.35902"><ele>245.00000000000003</ele><time>2026-04-11T08:29:32.997Z</time></trkpt><trkpt lat="43.3177067" lon="11.3588817"><ele>243.0</ele><time>2026-04-11T08:29:33.997Z</time></trkpt><trkpt lat="43.31767" lon="11.3587533"><ele>241.0</ele><time>2026-04-11T08:29:34.996Z</time></trkpt><trkpt lat="43.3176083" lon="11.35863"><ele>240.20000000000002</ele><time>2026-04-11T08:29:35.996Z</time></trkpt><trkpt lat="43.31754" lon="11.3585183"><ele>239.40000000000003</ele><time>2026-04-11T08:29:36.997Z</time></trkpt><trkpt lat="43.31746" lon="11.35843"><ele>238.6</ele><time>2026-04-11T08:29:37.996Z</time></trkpt><trkpt lat="43.3173583" lon="11.3583483"><ele>237.8</ele><time>2026-04-11T08:29:38.996Z</time></trkpt><trkpt lat="43.31725" lon="11.3583117"><ele>237.0</ele><time>2026-04-11T08:29:39.997Z</time></trkpt><trkpt lat="43.3171333" lon="11.3583"><ele>235.6</ele><time>2026-04-11T08:29:40.997Z</time></trkpt><trkpt lat="43.3170117" lon="11.3583"><ele>234.2</ele><time>2026-04-11T08:29:41.996Z</time></trkpt><trkpt lat="43.3169" lon="11.3582883"><ele>232.8</ele><time>2026-04-11T08:29:42.996Z</time></trkpt><trkpt lat="43.3167933" lon="11.3582567"><ele>231.4</ele><time>2026-04-11T08:29:43.996Z</time></trkpt><trkpt lat="43.3167" lon="11.3581933"><ele>230.0</ele><time>2026-04-11T08:29:44.996Z</time></trkpt><trkpt lat="43.316625" lon="11.3581"><ele>230.5</ele><time>2026-04-11T08:29:45.996Z</time></trkpt><trkpt lat="43.3165517" lon="11.3579883"><ele>231.0</ele><time>2026-04-11T08:29:46.997Z</time></trkpt><trkpt lat="43.3164767" lon="11.35787"><ele>231.5</ele><time>2026-04-11T08:29:47.996Z</time></trkpt><trkpt lat="43.31641" lon="11.357755"><ele>232.0</ele><time>2026-04-11T08:29:48.996Z</time></trkpt><trkpt lat="43.3163317" lon="11.3576317"><ele>230.75</ele><time>2026-04-11T08:29:49.996Z</time></trkpt><trkpt lat="43.3162567" lon="11.357505"><ele>229.5</ele><time>2026-04-11T08:29:50.996Z</time></trkpt><trkpt lat="43.3161817" lon="11.357375"><ele>228.25</ele><time>2026-04-11T08:29:51.996Z</time></trkpt><trkpt lat="43.3161333" lon="11.35722"><ele>227.0</ele><time>2026-04-11T08:29:52.996Z</time></trkpt><trkpt lat="43.3160917" lon="11.3570683"><ele>226.83333333333334</ele><time>2026-04-11T08:29:53.996Z</time></trkpt><trkpt lat="43.3160717" lon="11.3569233"><ele>226.66666666666669</ele><time>2026-04-11T08:29:54.997Z</time></trkpt><trkpt lat="43.3160517" lon="11.3567817"><ele>226.5</ele><time>2026-04-11T08:29:55.996Z</time></trkpt><trkpt lat="43.3160467" lon="11.356665"><ele>226.33333333333331</ele><time>2026-04-11T08:29:56.996Z</time></trkpt><trkpt lat="43.3160383" lon="11.3565617"><ele>226.16666666666666</ele><time>2026-04-11T08:29:57.996Z</time></trkpt><trkpt lat="43.316035" lon="11.3564717"><ele>226.0</ele><time>2026-04-11T08:29:58.996Z</time></trkpt><trkpt lat="43.31603" lon="11.3563167"><ele>225.8</ele><time>2026-04-11T08:30:00.997Z</time></trkpt><trkpt lat="43.3160517" lon="11.3561667"><ele>225.60000000000002</ele><time>2026-04-11T08:30:02.996Z</time></trkpt><trkpt lat="43.3161233" lon="11.3560383"><ele>225.4</ele><time>2026-04-11T08:30:04.996Z</time></trkpt><trkpt lat="43.3161917" lon="11.3559183"><ele>225.2</ele><time>2026-04-11T08:30:06.996Z</time></trkpt><trkpt lat="43.31623" lon="11.3558283"><ele>225.0</ele><time>2026-04-11T08:30:08.996Z</time></trkpt><trkpt lat="43.3162683" lon="11.35573"><ele>225.0</ele><time>2026-04-11T08:30:11.996Z</time></trkpt><trkpt lat="43.31631" lon="11.3556633"><ele>225.0</ele><time>2026-04-11T08:30:13.996Z</time></trkpt><trkpt lat="43.3163533" lon="11.3555817"><ele>225.0</ele><time>2026-04-11T08:30:15.997Z</time></trkpt><trkpt lat="43.3163783" lon="11.3554583"><ele>225.0</ele><time>2026-04-11T08:30:17.996Z</time></trkpt><trkpt lat="43.3163583" lon="11.3553383"><ele>225.0</ele><time>2026-04-11T08:30:19.997Z</time></trkpt><trkpt lat="43.3162933" lon="11.3552417"><ele>225.0</ele><time>2026-04-11T08:30:21.997Z</time></trkpt><trkpt lat="43.3162117" lon="11.355195"><ele>225.33333333333334</ele><time>2026-04-11T08:30:23.996Z</time></trkpt><trkpt lat="43.31613" lon="11.355165"><ele>225.66666666666669</ele><time>2026-04-11T08:30:25.996Z</time></trkpt><trkpt lat="43.3160617" lon="11.3551033"><ele>226.0</ele><time>2026-04-11T08:30:27.996Z</time></trkpt><trkpt lat="43.3160017" lon="11.35503"><ele>226.33333333333334</ele><time>2026-04-11T08:30:29.997Z</time></trkpt><trkpt lat="43.3159683" lon="11.3549367"><ele>226.66666666666669</ele><time>2026-04-11T08:30:31.997Z</time></trkpt><trkpt lat="43.3159467" lon="11.354855"><ele>227.0</ele><time>2026-04-11T08:30:33.996Z</time></trkpt><trkpt lat="43.3159183" lon="11.3547333"><ele>227.66666666666669</ele><time>2026-04-11T08:30:36.996Z</time></trkpt><trkpt lat="43.315905" lon="11.3546467"><ele>228.33333333333334</ele><time>2026-04-11T08:30:38.996Z</time></trkpt><trkpt lat="43.3158833" lon="11.3545633"><ele>229.0</ele><time>2026-04-11T08:30:40.996Z</time></trkpt><trkpt lat="43.31585" lon="11.3544567"><ele>229.66666666666669</ele><time>2026-04-11T08:30:43.997Z</time></trkpt><trkpt lat="43.3158233" lon="11.3543583"><ele>230.33333333333334</ele><time>2026-04-11T08:30:46.996Z</time></trkpt><trkpt lat="43.315795" lon="11.3542517"><ele>231.0</ele><time>2026-04-11T08:30:49.996Z</time></trkpt><trkpt lat="43.31576" lon="11.3541417"><ele>231.0</ele><time>2026-04-11T08:30:52.996Z</time></trkpt><trkpt lat="43.3157083" lon="11.3540367"><ele>231.0</ele><time>2026-04-11T08:30:55.996Z</time></trkpt><trkpt lat="43.3156933" lon="11.3539367"><ele>231.0</ele><time>2026-04-11T08:30:57.996Z</time></trkpt><trkpt lat="43.3156567" lon="11.3538133"><ele>231.0</ele><time>2026-04-11T08:31:00.996Z</time></trkpt><trkpt lat="43.3156267" lon="11.3536967"><ele>231.0</ele><time>2026-04-11T08:31:03.997Z</time></trkpt><trkpt lat="43.31561" lon="11.3535767"><ele>231.0</ele><time>2026-04-11T08:31:06.996Z</time></trkpt><trkpt lat="43.3155817" lon="11.35347"><ele>231.5</ele><time>2026-04-11T08:31:09.996Z</time></trkpt><trkpt lat="43.3155567" lon="11.3533633"><ele>232.0</ele><time>2026-04-11T08:31:12.996Z</time></trkpt><trkpt lat="43.3155283" lon="11.35325"><ele>232.5</ele><time>2026-04-11T08:31:15.997Z</time></trkpt><trkpt lat="43.3154967" lon="11.3531417"><ele>233.0</ele><time>2026-04-11T08:31:18.997Z</time></trkpt><trkpt lat="43.3154617" lon="11.353045"><ele>233.5</ele><time>2026-04-11T08:31:21.996Z</time></trkpt><trkpt lat="43.31544" lon="11.3529467"><ele>234.0</ele><time>2026-04-11T08:31:24.996Z</time></trkpt><trkpt lat="43.315415" lon="11.3528467"><ele>234.5</ele><time>2026-04-11T08:31:27.996Z</time></trkpt><trkpt lat="43.3153917" lon="11.3527567"><ele>235.0</ele><time>2026-04-11T08:31:29.996Z</time></trkpt><trkpt lat="43.3153683" lon="11.3526567"><ele>235.5</ele><time>2026-04-11T08:31:32.996Z</time></trkpt><trkpt lat="43.3153417" lon="11.3525417"><ele>236.0</ele><time>2026-04-11T08:31:35.997Z</time></trkpt><trkpt lat="43.315315" lon="11.3524333"><ele>236.5</ele><time>2026-04-11T08:31:38.996Z</time></trkpt><trkpt lat="43.3152833" lon="11.3523217"><ele>237.0</ele><time>2026-04-11T08:31:41.997Z</time></trkpt><trkpt lat="43.31525" lon="11.352215"><ele>238.16666666666666</ele><time>2026-04-11T08:31:44.996Z</time></trkpt><trkpt lat="43.3152283" lon="11.352105"><ele>239.33333333333331</ele><time>2026-04-11T08:31:47.996Z</time></trkpt><trkpt lat="43.3151983" lon="11.3520017"><ele>240.5</ele><time>2026-04-11T08:31:50.996Z</time></trkpt><trkpt lat="43.31517" lon="11.351905"><ele>241.66666666666666</ele><time>2026-04-11T08:31:53.996Z</time></trkpt><trkpt lat="43.3151333" lon="11.3518033"><ele>242.83333333333331</ele><time>2026-04-11T08:31:56.996Z</time></trkpt><trkpt lat="43.3150867" lon="11.3517033"><ele>244.0</ele><time>2026-04-11T08:31:59.997Z</time></trkpt><trkpt lat="43.3150483" lon="11.3516017"><ele>243.99999999999997</ele><time>2026-04-11T08:32:02.996Z</time></trkpt><trkpt lat="43.315" lon="11.3515167"><ele>244.0</ele><time>2026-04-11T08:32:05.996Z</time></trkpt><trkpt lat="43.3149517" lon="11.3514283"><ele>244.0</ele><time>2026-04-11T08:32:08.996Z</time></trkpt><trkpt lat="43.3148983" lon="11.3513467"><ele>244.0</ele><time>2026-04-11T08:32:11.996Z</time></trkpt><trkpt lat="43.3148667" lon="11.3512633"><ele>243.99999999999997</ele><time>2026-04-11T08:32:14.996Z</time></trkpt><trkpt lat="43.3148233" lon="11.3511883"><ele>244.0</ele><time>2026-04-11T08:32:17.996Z</time></trkpt><trkpt lat="43.3147683" lon="11.3511"><ele>243.83333333333331</ele><time>2026-04-11T08:32:20.996Z</time></trkpt><trkpt lat="43.3147217" lon="11.3510383"><ele>243.66666666666666</ele><time>2026-04-11T08:32:22.996Z</time></trkpt><trkpt lat="43.3146633" lon="11.3509417"><ele>243.5</ele><time>2026-04-11T08:32:25.996Z</time></trkpt><trkpt lat="43.31461" lon="11.350855"><ele>243.33333333333331</ele><time>2026-04-11T08:32:28.997Z</time></trkpt><trkpt lat="43.31456" lon="11.3507667"><ele>243.16666666666666</ele><time>2026-04-11T08:32:31.996Z</time></trkpt><trkpt lat="43.314505" lon="11.3506667"><ele>243.0</ele><time>2026-04-11T08:32:34.996Z</time></trkpt><trkpt lat="43.3144517" lon="11.3505683"><ele>243.5</ele><time>2026-04-11T08:32:37.996Z</time></trkpt><trkpt lat="43.3144133" lon="11.3504633"><ele>244.0</ele><time>2026-04-11T08:32:40.996Z</time></trkpt><trkpt lat="43.3143867" lon="11.3503633"><ele>244.5</ele><time>2026-04-11T08:32:43.996Z</time></trkpt><trkpt lat="43.3143783" lon="11.3502583"><ele>245.0</ele><time>2026-04-11T08:32:46.996Z</time></trkpt><trkpt lat="43.31439" lon="11.3501667"><ele>245.5</ele><time>2026-04-11T08:32:49.996Z</time></trkpt><trkpt lat="43.3144133" lon="11.3500717"><ele>246.0</ele><time>2026-04-11T08:32:52.996Z</time></trkpt><trkpt lat="43.314455" lon="11.3499883"><ele>246.0</ele><time>2026-04-11T08:32:55.996Z</time></trkpt><trkpt lat="43.3145117" lon="11.3499233"><ele>246.0</ele><time>2026-04-11T08:32:58.996Z</time></trkpt><trkpt lat="43.314575" lon="11.3498967"><ele>246.0</ele><time>2026-04-11T08:33:01.996Z</time></trkpt><trkpt lat="43.3146433" lon="11.3498833"><ele>246.0</ele><time>2026-04-11T08:33:04.997Z</time></trkpt><trkpt lat="43.3147317" lon="11.3498667"><ele>246.0</ele><time>2026-04-11T08:33:07.997Z</time></trkpt><trkpt lat="43.31481" lon="11.349855"><ele>246.0</ele><time>2026-04-11T08:33:10.996Z</time></trkpt><trkpt lat="43.3148883" lon="11.3498333"><ele>248.5</ele><time>2026-04-11T08:33:13.996Z</time></trkpt><trkpt lat="43.3149667" lon="11.3497817"><ele>251.0</ele><time>2026-04-11T08:33:16.996Z</time></trkpt><trkpt lat="43.3150383" lon="11.3497267"><ele>253.5</ele><time>2026-04-11T08:33:19.996Z</time></trkpt><trkpt lat="43.3150833" lon="11.34964"><ele>256.0</ele><time>2026-04-11T08:33:22.996Z</time></trkpt><trkpt lat="43.3151183" lon="11.3495433"><ele>258.5</ele><time>2026-04-11T08:33:25.996Z</time></trkpt><trkpt lat="43.3151317" lon="11.3494267"><ele>261.0</ele><time>2026-04-11T08:33:28.996Z</time></trkpt><trkpt lat="43.315125" lon="11.34932"><ele>261.5</ele><time>2026-04-11T08:33:31.996Z</time></trkpt><trkpt lat="43.3150917" lon="11.3492117"><ele>262.0</ele><time>2026-04-11T08:33:34.996Z</time></trkpt><trkpt lat="43.3150567" lon="11.3491117"><ele>262.5</ele><time>2026-04-11T08:33:37.996Z</time></trkpt><trkpt lat="43.315005" lon="11.3490433"><ele>263.0</ele><time>2026-04-11T08:33:40.996Z</time></trkpt><trkpt lat="43.3149317" lon="11.3489767"><ele>263.5</ele><time>2026-04-11T08:33:43.996Z</time></trkpt><trkpt lat="43.3148533" lon="11.34893"><ele>264.0</ele><time>2026-04-11T08:33:46.996Z</time></trkpt><trkpt lat="43.314775" lon="11.3488917"><ele>262.5</ele><time>2026-04-11T08:33:49.997Z</time></trkpt><trkpt lat="43.3146983" lon="11.3488367"><ele>261.0</ele><time>2026-04-11T08:33:52.996Z</time></trkpt><trkpt lat="43.31463" lon="11.34876"><ele>259.5</ele><time>2026-04-11T08:33:55.996Z</time></trkpt><trkpt lat="43.3146017" lon="11.34867"><ele>258.0</ele><time>2026-04-11T08:33:58.996Z</time></trkpt><trkpt lat="43.3145867" lon="11.3485717"><ele>256.5</ele><time>2026-04-11T08:34:01.996Z</time></trkpt><trkpt lat="43.314575" lon="11.34846"><ele>255.0</ele><time>2026-04-11T08:34:04.996Z</time></trkpt><trkpt lat="43.314575" lon="11.3483383"><ele>255.0</ele><time>2026-04-11T08:34:07.996Z</time></trkpt><trkpt lat="43.3145933" lon="11.3482233"><ele>255.0</ele><time>2026-04-11T08:34:10.996Z</time></trkpt><trkpt lat="43.314615" lon="11.348105"><ele>255.0</ele><time>2026-04-11T08:34:13.996Z</time></trkpt><trkpt lat="43.3146433" lon="11.3480133"><ele>255.0</ele><time>2026-04-11T08:34:16.996Z</time></trkpt><trkpt lat="43.3146833" lon="11.3479217"><ele>255.0</ele><time>2026-04-11T08:34:19.996Z</time></trkpt><trkpt lat="43.3147283" lon="11.34786"><ele>255.0</ele><time>2026-04-11T08:34:21.997Z</time></trkpt><trkpt lat="43.3147817" lon="11.347765"><ele>257.1666666666667</ele><time>2026-04-11T08:34:24.996Z</time></trkpt><trkpt lat="43.3148417" lon="11.3476767"><ele>259.3333333333333</ele><time>2026-04-11T08:34:27.996Z</time></trkpt><trkpt lat="43.3148883" lon="11.3475783"><ele>261.5</ele><time>2026-04-11T08:34:30.996Z</time></trkpt><trkpt lat="43.3149367" lon="11.3474933"><ele>263.66666666666663</ele><time>2026-04-11T08:34:33.996Z</time></trkpt><trkpt lat="43.3149917" lon="11.3474083"><ele>265.8333333333333</ele><time>2026-04-11T08:34:36.996Z</time></trkpt><trkpt lat="43.3150267" lon="11.34731"><ele>268.0</ele><time>2026-04-11T08:34:39.996Z</time></trkpt><trkpt lat="43.31507" lon="11.3472017"><ele>268.0</ele><time>2026-04-11T08:34:42.996Z</time></trkpt><trkpt lat="43.3151117" lon="11.3471117"><ele>268.0</ele><time>2026-04-11T08:34:45.996Z</time></trkpt><trkpt lat="43.3151467" lon="11.3470267"><ele>268.0</ele><time>2026-04-11T08:34:48.997Z</time></trkpt><trkpt lat="43.31519" lon="11.3469167"><ele>268.0</ele><time>2026-04-11T08:34:51.996Z</time></trkpt><trkpt lat="43.3152333" lon="11.3468417"><ele>268.0</ele><time>2026-04-11T08:34:54.996Z</time></trkpt><trkpt lat="43.315295" lon="11.346785"><ele>268.0</ele><time>2026-04-11T08:34:57.997Z</time></trkpt><trkpt lat="43.315355" lon="11.3467"><ele>268.0</ele><time>2026-04-11T08:35:00.996Z</time></trkpt><trkpt lat="43.3154167" lon="11.3466333"><ele>268.0</ele><time>2026-04-11T08:35:03.996Z</time></trkpt><trkpt lat="43.3154767" lon="11.3465583"><ele>268.0</ele><time>2026-04-11T08:35:06.996Z</time></trkpt><trkpt lat="43.315535" lon="11.346475"><ele>268.0</ele><time>2026-04-11T08:35:09.996Z</time></trkpt><trkpt lat="43.3155833" lon="11.3464033"><ele>268.0</ele><time>2026-04-11T08:35:12.996Z</time></trkpt><trkpt lat="43.3156383" lon="11.346335"><ele>268.0</ele><time>2026-04-11T08:35:15.996Z</time></trkpt><trkpt lat="43.3156833" lon="11.3462433"><ele>270.0</ele><time>2026-04-11T08:35:18.996Z</time></trkpt><trkpt lat="43.3157383" lon="11.3461383"><ele>272.0</ele><time>2026-04-11T08:35:21.996Z</time></trkpt><trkpt lat="43.3157833" lon="11.3460433"><ele>274.0</ele><time>2026-04-11T08:35:24.997Z</time></trkpt><trkpt lat="43.3158417" lon="11.34598"><ele>276.0</ele><time>2026-04-11T08:35:27.996Z</time></trkpt><trkpt lat="43.315895" lon="11.3459083"><ele>278.0</ele><time>2026-04-11T08:35:30.996Z</time></trkpt><trkpt lat="43.3159367" lon="11.3458383"><ele>280.0</ele><time>2026-04-11T08:35:33.996Z</time></trkpt><trkpt lat="43.315995" lon="11.3457567"><ele>280.0</ele><time>2026-04-11T08:35:36.996Z</time></trkpt><trkpt lat="43.3160417" lon="11.34567"><ele>280.0</ele><time>2026-04-11T08:35:39.996Z</time></trkpt><trkpt lat="43.31608" lon="11.3455933"><ele>280.0</ele><time>2026-04-11T08:35:42.996Z</time></trkpt><trkpt lat="43.3161217" lon="11.3455083"><ele>280.0</ele><time>2026-04-11T08:35:45.996Z</time></trkpt><trkpt lat="43.3161633" lon="11.3454133"><ele>280.0</ele><time>2026-04-11T08:35:48.996Z</time></trkpt><trkpt lat="43.31622" lon="11.345325"><ele>280.0</ele><time>2026-04-11T08:35:51.996Z</time></trkpt><trkpt lat="43.3162817" lon="11.3452567"><ele>281.0</ele><time>2026-04-11T08:35:54.996Z</time></trkpt><trkpt lat="43.3163283" lon="11.3451783"><ele>282.0</ele><time>2026-04-11T08:35:57.996Z</time></trkpt><trkpt lat="43.31638" lon="11.3450933"><ele>283.0</ele><time>2026-04-11T08:36:00.997Z</time></trkpt><trkpt lat="43.316435" lon="11.3450117"><ele>284.0</ele><time>2026-04-11T08:36:03.996Z</time></trkpt><trkpt lat="43.3165033" lon="11.34492"><ele>285.0</ele><time>2026-04-11T08:36:06.996Z</time></trkpt><trkpt lat="43.3165617" lon="11.344825"><ele>286.0</ele><time>2026-04-11T08:36:09.996Z</time></trkpt><trkpt lat="43.316595" lon="11.3447483"><ele>285.66666666666663</ele><time>2026-04-11T08:36:12.997Z</time></trkpt><trkpt lat="43.3166517" lon="11.3446517"><ele>285.3333333333333</ele><time>2026-04-11T08:36:15.996Z</time></trkpt><trkpt lat="43.3166967" lon="11.344565"><ele>285.0</ele><time>2026-04-11T08:36:18.996Z</time></trkpt><trkpt lat="43.3167517" lon="11.3444817"><ele>284.6666666666667</ele><time>2026-04-11T08:36:21.996Z</time></trkpt><trkpt lat="43.3167967" lon="11.344385"><ele>284.33333333333337</ele><time>2026-04-11T08:36:24.997Z</time></trkpt><trkpt lat="43.3168233" lon="11.3442783"><ele>284.0</ele><time>2026-04-11T08:36:27.996Z</time></trkpt><trkpt lat="43.3168117" lon="11.3441883"><ele>284.0</ele><time>2026-04-11T08:36:29.996Z</time></trkpt><trkpt lat="43.3167283" lon="11.3441133"><ele>284.0</ele><time>2026-04-11T08:36:32.996Z</time></trkpt><trkpt lat="43.3166633" lon="11.3440517"><ele>284.0</ele><time>2026-04-11T08:36:34.996Z</time></trkpt><trkpt lat="43.3166267" lon="11.3439117"><ele>284.0</ele><time>2026-04-11T08:36:36.996Z</time></trkpt><trkpt lat="43.3166283" lon="11.3438217"><ele>284.0</ele><time>2026-04-11T08:36:37.996Z</time></trkpt><trkpt lat="43.316655" lon="11.343735"><ele>284.0</ele><time>2026-04-11T08:36:38.996Z</time></trkpt><trkpt lat="43.3166933" lon="11.343655"><ele>282.0</ele><time>2026-04-11T08:36:39.996Z</time></trkpt><trkpt lat="43.31673" lon="11.34357"><ele>282.0</ele><time>2026-04-11T08:36:40.996Z</time></trkpt><trkpt lat="43.316755" lon="11.34347"><ele>282.0</ele><time>2026-04-11T08:36:41.996Z</time></trkpt><trkpt lat="43.3167733" lon="11.3433583"><ele>282.0</ele><time>2026-04-11T08:36:42.997Z</time></trkpt><trkpt lat="43.3167867" lon="11.34324"><ele>282.0</ele><time>2026-04-11T08:36:43.996Z</time></trkpt></trkseg></trk></gpx>